<?xml version="1.0" encoding="UTF-8" standalone="no" ?>
<gpx xmlns="http://www.topografix.com/GPX/1/1" xmlns:xsi="http://www.w3.org/2001/XMLSchema-instance" xsi:schemaLocation="http://www.topografix.com/GPX/1/1 http://www.topografix.com/GPX/1/1/gpx.xsd" version="1.1" creator="VisuGPX - https://www.visugpx.com">
  <metadata>
    <name>RECO TV 2018 AR AIRE St MICHEL LEVENS</name>
    <desc><![CDATA[50km D  2000m 
Départ de l'aire St Michel montée du mont chauve et contournement par le col de la prairie puis descente sur Aspremont.
Traverser le village pour faire le tour du cima par la gauche, puis une 1ere descente qui ramene sur la piste à prendre à gauche et le chemin a droire un peu plus loin pour aller aux ruines puis la rivière,
après la rivière remonter jusqu’à la piste à prendre à gauche jusqu'a Ste Claire puis Levens par la route jusqu’à la déchetterie départ du tronçon TV]]></desc>
  </metadata>
  <trk>
    <name><![CDATA[20180426180109-tN74H]]></name>
    <trkseg>
      <trkpt lat="43.7374" lon="7.26288">
        <ele>229</ele>
        <time>2018-04-26T06:52:48.000Z</time>
      </trkpt>
      <trkpt lat="43.73741" lon="7.26288">
        <ele>229</ele>
        <time>2018-04-26T06:52:54.000Z</time>
      </trkpt>
      <trkpt lat="43.73745" lon="7.26287">
        <ele>230</ele>
        <time>2018-04-26T06:52:59.000Z</time>
      </trkpt>
      <trkpt lat="43.73745" lon="7.26288">
        <ele>230</ele>
        <time>2018-04-26T06:53:00.000Z</time>
      </trkpt>
      <trkpt lat="43.7375" lon="7.26288">
        <ele>230</ele>
        <time>2018-04-26T06:53:04.000Z</time>
      </trkpt>
      <trkpt lat="43.73752" lon="7.26288">
        <ele>238</ele>
        <time>2018-04-26T06:53:06.000Z</time>
      </trkpt>
      <trkpt lat="43.73754" lon="7.26289">
        <ele>238</ele>
        <time>2018-04-26T06:53:08.000Z</time>
      </trkpt>
      <trkpt lat="43.73755" lon="7.26289">
        <ele>239</ele>
        <time>2018-04-26T06:53:09.000Z</time>
      </trkpt>
      <trkpt lat="43.7376" lon="7.2629">
        <ele>239</ele>
        <time>2018-04-26T06:53:14.000Z</time>
      </trkpt>
      <trkpt lat="43.73761" lon="7.26291">
        <ele>239</ele>
        <time>2018-04-26T06:53:15.000Z</time>
      </trkpt>
      <trkpt lat="43.73768" lon="7.2629">
        <ele>239</ele>
        <time>2018-04-26T06:53:21.000Z</time>
      </trkpt>
      <trkpt lat="43.7377" lon="7.2629">
        <ele>239</ele>
        <time>2018-04-26T06:53:23.000Z</time>
      </trkpt>
      <trkpt lat="43.73773" lon="7.2629">
        <ele>240</ele>
        <time>2018-04-26T06:53:26.000Z</time>
      </trkpt>
      <trkpt lat="43.73779" lon="7.26291">
        <ele>240</ele>
        <time>2018-04-26T06:53:31.000Z</time>
      </trkpt>
      <trkpt lat="43.73786" lon="7.26291">
        <ele>241</ele>
        <time>2018-04-26T06:53:38.000Z</time>
      </trkpt>
      <trkpt lat="43.73787" lon="7.26292">
        <ele>241</ele>
        <time>2018-04-26T06:53:39.000Z</time>
      </trkpt>
      <trkpt lat="43.73793" lon="7.26292">
        <ele>241</ele>
        <time>2018-04-26T06:53:44.000Z</time>
      </trkpt>
      <trkpt lat="43.73794" lon="7.26292">
        <ele>241</ele>
        <time>2018-04-26T06:53:45.000Z</time>
      </trkpt>
      <trkpt lat="43.73796" lon="7.26293">
        <ele>242</ele>
        <time>2018-04-26T06:53:47.000Z</time>
      </trkpt>
      <trkpt lat="43.73798" lon="7.26293">
        <ele>242</ele>
        <time>2018-04-26T06:53:49.000Z</time>
      </trkpt>
      <trkpt lat="43.73803" lon="7.2629">
        <ele>242</ele>
        <time>2018-04-26T06:53:54.000Z</time>
      </trkpt>
      <trkpt lat="43.73805" lon="7.26288">
        <ele>242</ele>
        <time>2018-04-26T06:53:56.000Z</time>
      </trkpt>
      <trkpt lat="43.73811" lon="7.26287">
        <ele>243</ele>
        <time>2018-04-26T06:54:01.000Z</time>
      </trkpt>
      <trkpt lat="43.73812" lon="7.26288">
        <ele>243</ele>
        <time>2018-04-26T06:54:02.000Z</time>
      </trkpt>
      <trkpt lat="43.73818" lon="7.26284">
        <ele>243</ele>
        <time>2018-04-26T06:54:08.000Z</time>
      </trkpt>
      <trkpt lat="43.73824" lon="7.26278">
        <ele>243</ele>
        <time>2018-04-26T06:54:14.000Z</time>
      </trkpt>
      <trkpt lat="43.7383" lon="7.26278">
        <ele>243</ele>
        <time>2018-04-26T06:54:19.000Z</time>
      </trkpt>
      <trkpt lat="43.73832" lon="7.26277">
        <ele>243</ele>
        <time>2018-04-26T06:54:21.000Z</time>
      </trkpt>
      <trkpt lat="43.73837" lon="7.26275">
        <ele>251</ele>
        <time>2018-04-26T06:54:25.000Z</time>
      </trkpt>
      <trkpt lat="43.7384" lon="7.26275">
        <ele>252</ele>
        <time>2018-04-26T06:54:28.000Z</time>
      </trkpt>
      <trkpt lat="43.73844" lon="7.26274">
        <ele>252</ele>
        <time>2018-04-26T06:54:31.000Z</time>
      </trkpt>
      <trkpt lat="43.73849" lon="7.26272">
        <ele>252</ele>
        <time>2018-04-26T06:54:36.000Z</time>
      </trkpt>
      <trkpt lat="43.7385" lon="7.26272">
        <ele>252</ele>
        <time>2018-04-26T06:54:37.000Z</time>
      </trkpt>
      <trkpt lat="43.73855" lon="7.26271">
        <ele>253</ele>
        <time>2018-04-26T06:54:42.000Z</time>
      </trkpt>
      <trkpt lat="43.73856" lon="7.2627">
        <ele>253</ele>
        <time>2018-04-26T06:54:43.000Z</time>
      </trkpt>
      <trkpt lat="43.73862" lon="7.2627">
        <ele>253</ele>
        <time>2018-04-26T06:54:48.000Z</time>
      </trkpt>
      <trkpt lat="43.73865" lon="7.26271">
        <ele>254</ele>
        <time>2018-04-26T06:54:51.000Z</time>
      </trkpt>
      <trkpt lat="43.73868" lon="7.26269">
        <ele>254</ele>
        <time>2018-04-26T06:54:54.000Z</time>
      </trkpt>
      <trkpt lat="43.73872" lon="7.26268">
        <ele>254</ele>
        <time>2018-04-26T06:54:57.000Z</time>
      </trkpt>
      <trkpt lat="43.73873" lon="7.26269">
        <ele>254</ele>
        <time>2018-04-26T06:54:58.000Z</time>
      </trkpt>
      <trkpt lat="43.73875" lon="7.2627">
        <ele>255</ele>
        <time>2018-04-26T06:55:00.000Z</time>
      </trkpt>
      <trkpt lat="43.73877" lon="7.26269">
        <ele>255</ele>
        <time>2018-04-26T06:55:02.000Z</time>
      </trkpt>
      <trkpt lat="43.73879" lon="7.26268">
        <ele>255</ele>
        <time>2018-04-26T06:55:04.000Z</time>
      </trkpt>
      <trkpt lat="43.73881" lon="7.26269">
        <ele>255</ele>
        <time>2018-04-26T06:55:06.000Z</time>
      </trkpt>
      <trkpt lat="43.73882" lon="7.2627">
        <ele>255</ele>
        <time>2018-04-26T06:55:07.000Z</time>
      </trkpt>
      <trkpt lat="43.73884" lon="7.26271">
        <ele>256</ele>
        <time>2018-04-26T06:55:09.000Z</time>
      </trkpt>
      <trkpt lat="43.73888" lon="7.26269">
        <ele>256</ele>
        <time>2018-04-26T06:55:13.000Z</time>
      </trkpt>
      <trkpt lat="43.73889" lon="7.26269">
        <ele>256</ele>
        <time>2018-04-26T06:55:14.000Z</time>
      </trkpt>
      <trkpt lat="43.7389" lon="7.26271">
        <ele>256</ele>
        <time>2018-04-26T06:55:15.000Z</time>
      </trkpt>
      <trkpt lat="43.73893" lon="7.26273">
        <ele>256</ele>
        <time>2018-04-26T06:55:18.000Z</time>
      </trkpt>
      <trkpt lat="43.73896" lon="7.26273">
        <ele>257</ele>
        <time>2018-04-26T06:55:21.000Z</time>
      </trkpt>
      <trkpt lat="43.73897" lon="7.26273">
        <ele>257</ele>
        <time>2018-04-26T06:55:22.000Z</time>
      </trkpt>
      <trkpt lat="43.73901" lon="7.26273">
        <ele>257</ele>
        <time>2018-04-26T06:55:25.000Z</time>
      </trkpt>
      <trkpt lat="43.73906" lon="7.26273">
        <ele>257</ele>
        <time>2018-04-26T06:55:30.000Z</time>
      </trkpt>
      <trkpt lat="43.73908" lon="7.26273">
        <ele>257</ele>
        <time>2018-04-26T06:55:31.000Z</time>
      </trkpt>
      <trkpt lat="43.73912" lon="7.26275">
        <ele>257</ele>
        <time>2018-04-26T06:55:35.000Z</time>
      </trkpt>
      <trkpt lat="43.73916" lon="7.26275">
        <ele>258</ele>
        <time>2018-04-26T06:55:39.000Z</time>
      </trkpt>
      <trkpt lat="43.73917" lon="7.26275">
        <ele>265</ele>
        <time>2018-04-26T06:55:41.000Z</time>
      </trkpt>
      <trkpt lat="43.73923" lon="7.26273">
        <ele>266</ele>
        <time>2018-04-26T06:55:46.000Z</time>
      </trkpt>
      <trkpt lat="43.73924" lon="7.26273">
        <ele>266</ele>
        <time>2018-04-26T06:55:47.000Z</time>
      </trkpt>
      <trkpt lat="43.73926" lon="7.26274">
        <ele>266</ele>
        <time>2018-04-26T06:55:49.000Z</time>
      </trkpt>
      <trkpt lat="43.73928" lon="7.26274">
        <ele>266</ele>
        <time>2018-04-26T06:55:52.000Z</time>
      </trkpt>
      <trkpt lat="43.73929" lon="7.26275">
        <ele>266</ele>
        <time>2018-04-26T06:55:53.000Z</time>
      </trkpt>
      <trkpt lat="43.73934" lon="7.26273">
        <ele>267</ele>
        <time>2018-04-26T06:55:58.000Z</time>
      </trkpt>
      <trkpt lat="43.73935" lon="7.26273">
        <ele>267</ele>
        <time>2018-04-26T06:55:59.000Z</time>
      </trkpt>
      <trkpt lat="43.73938" lon="7.26273">
        <ele>267</ele>
        <time>2018-04-26T06:56:03.000Z</time>
      </trkpt>
      <trkpt lat="43.7394" lon="7.26272">
        <ele>267</ele>
        <time>2018-04-26T06:56:05.000Z</time>
      </trkpt>
      <trkpt lat="43.73945" lon="7.2627">
        <ele>268</ele>
        <time>2018-04-26T06:56:09.000Z</time>
      </trkpt>
      <trkpt lat="43.73948" lon="7.26268">
        <ele>268</ele>
        <time>2018-04-26T06:56:12.000Z</time>
      </trkpt>
      <trkpt lat="43.73955" lon="7.26266">
        <ele>269</ele>
        <time>2018-04-26T06:56:18.000Z</time>
      </trkpt>
      <trkpt lat="43.73963" lon="7.26263">
        <ele>270</ele>
        <time>2018-04-26T06:56:25.000Z</time>
      </trkpt>
      <trkpt lat="43.73972" lon="7.26261">
        <ele>270</ele>
        <time>2018-04-26T06:56:32.000Z</time>
      </trkpt>
      <trkpt lat="43.73974" lon="7.2626">
        <ele>271</ele>
        <time>2018-04-26T06:56:34.000Z</time>
      </trkpt>
      <trkpt lat="43.73981" lon="7.26258">
        <ele>271</ele>
        <time>2018-04-26T06:56:39.000Z</time>
      </trkpt>
      <trkpt lat="43.73986" lon="7.26257">
        <ele>272</ele>
        <time>2018-04-26T06:56:43.000Z</time>
      </trkpt>
      <trkpt lat="43.7399" lon="7.26258">
        <ele>272</ele>
        <time>2018-04-26T06:56:46.000Z</time>
      </trkpt>
      <trkpt lat="43.73997" lon="7.26256">
        <ele>272</ele>
        <time>2018-04-26T06:56:51.000Z</time>
      </trkpt>
      <trkpt lat="43.74003" lon="7.26256">
        <ele>275</ele>
        <time>2018-04-26T06:56:55.000Z</time>
      </trkpt>
      <trkpt lat="43.7401" lon="7.26259">
        <ele>277</ele>
        <time>2018-04-26T06:56:59.000Z</time>
      </trkpt>
      <trkpt lat="43.74017" lon="7.26261">
        <ele>278</ele>
        <time>2018-04-26T06:57:04.000Z</time>
      </trkpt>
      <trkpt lat="43.74021" lon="7.26263">
        <ele>279</ele>
        <time>2018-04-26T06:57:07.000Z</time>
      </trkpt>
      <trkpt lat="43.74028" lon="7.26265">
        <ele>279</ele>
        <time>2018-04-26T06:57:12.000Z</time>
      </trkpt>
      <trkpt lat="43.74032" lon="7.26267">
        <ele>280</ele>
        <time>2018-04-26T06:57:15.000Z</time>
      </trkpt>
      <trkpt lat="43.74039" lon="7.2627">
        <ele>281</ele>
        <time>2018-04-26T06:57:20.000Z</time>
      </trkpt>
      <trkpt lat="43.74042" lon="7.26271">
        <ele>281</ele>
        <time>2018-04-26T06:57:22.000Z</time>
      </trkpt>
      <trkpt lat="43.74046" lon="7.26273">
        <ele>281</ele>
        <time>2018-04-26T06:57:25.000Z</time>
      </trkpt>
      <trkpt lat="43.74054" lon="7.26275">
        <ele>281</ele>
        <time>2018-04-26T06:57:31.000Z</time>
      </trkpt>
      <trkpt lat="43.74062" lon="7.26277">
        <ele>282</ele>
        <time>2018-04-26T06:57:37.000Z</time>
      </trkpt>
      <trkpt lat="43.74063" lon="7.26277">
        <ele>282</ele>
        <time>2018-04-26T06:57:38.000Z</time>
      </trkpt>
      <trkpt lat="43.7407" lon="7.26278">
        <ele>282</ele>
        <time>2018-04-26T06:57:43.000Z</time>
      </trkpt>
      <trkpt lat="43.74071" lon="7.26278">
        <ele>282</ele>
        <time>2018-04-26T06:57:44.000Z</time>
      </trkpt>
      <trkpt lat="43.74076" lon="7.26279">
        <ele>282</ele>
        <time>2018-04-26T06:57:47.000Z</time>
      </trkpt>
      <trkpt lat="43.74078" lon="7.26281">
        <ele>282</ele>
        <time>2018-04-26T06:57:49.000Z</time>
      </trkpt>
      <trkpt lat="43.74079" lon="7.26282">
        <ele>282</ele>
        <time>2018-04-26T06:57:50.000Z</time>
      </trkpt>
      <trkpt lat="43.74084" lon="7.26283">
        <ele>287</ele>
        <time>2018-04-26T06:57:54.000Z</time>
      </trkpt>
      <trkpt lat="43.74087" lon="7.26284">
        <ele>288</ele>
        <time>2018-04-26T06:57:56.000Z</time>
      </trkpt>
      <trkpt lat="43.7409" lon="7.26287">
        <ele>288</ele>
        <time>2018-04-26T06:57:59.000Z</time>
      </trkpt>
      <trkpt lat="43.74097" lon="7.26293">
        <ele>289</ele>
        <time>2018-04-26T06:58:05.000Z</time>
      </trkpt>
      <trkpt lat="43.74103" lon="7.263">
        <ele>290</ele>
        <time>2018-04-26T06:58:11.000Z</time>
      </trkpt>
      <trkpt lat="43.74108" lon="7.26305">
        <ele>290</ele>
        <time>2018-04-26T06:58:15.000Z</time>
      </trkpt>
      <trkpt lat="43.7411" lon="7.26307">
        <ele>290</ele>
        <time>2018-04-26T06:58:17.000Z</time>
      </trkpt>
      <trkpt lat="43.74117" lon="7.26317">
        <ele>291</ele>
        <time>2018-04-26T06:58:24.000Z</time>
      </trkpt>
      <trkpt lat="43.74118" lon="7.26318">
        <ele>291</ele>
        <time>2018-04-26T06:58:25.000Z</time>
      </trkpt>
      <trkpt lat="43.74124" lon="7.26327">
        <ele>291</ele>
        <time>2018-04-26T06:58:31.000Z</time>
      </trkpt>
      <trkpt lat="43.74125" lon="7.26329">
        <ele>291</ele>
        <time>2018-04-26T06:58:32.000Z</time>
      </trkpt>
      <trkpt lat="43.74131" lon="7.26338">
        <ele>296</ele>
        <time>2018-04-26T06:58:37.000Z</time>
      </trkpt>
      <trkpt lat="43.74139" lon="7.26349">
        <ele>296</ele>
        <time>2018-04-26T06:58:43.000Z</time>
      </trkpt>
      <trkpt lat="43.7414" lon="7.26351">
        <ele>296</ele>
        <time>2018-04-26T06:58:44.000Z</time>
      </trkpt>
      <trkpt lat="43.7415" lon="7.2636">
        <ele>297</ele>
        <time>2018-04-26T06:58:51.000Z</time>
      </trkpt>
      <trkpt lat="43.74151" lon="7.26362">
        <ele>297</ele>
        <time>2018-04-26T06:58:52.000Z</time>
      </trkpt>
      <trkpt lat="43.74159" lon="7.26367">
        <ele>297</ele>
        <time>2018-04-26T06:58:57.000Z</time>
      </trkpt>
      <trkpt lat="43.74165" lon="7.26368">
        <ele>297</ele>
        <time>2018-04-26T06:59:00.000Z</time>
      </trkpt>
      <trkpt lat="43.74168" lon="7.26369">
        <ele>302</ele>
        <time>2018-04-26T06:59:02.000Z</time>
      </trkpt>
      <trkpt lat="43.74176" lon="7.2637">
        <ele>302</ele>
        <time>2018-04-26T06:59:07.000Z</time>
      </trkpt>
      <trkpt lat="43.74177" lon="7.26371">
        <ele>302</ele>
        <time>2018-04-26T06:59:08.000Z</time>
      </trkpt>
      <trkpt lat="43.74179" lon="7.26371">
        <ele>302</ele>
        <time>2018-04-26T06:59:10.000Z</time>
      </trkpt>
      <trkpt lat="43.74184" lon="7.2637">
        <ele>303</ele>
        <time>2018-04-26T06:59:13.000Z</time>
      </trkpt>
      <trkpt lat="43.74188" lon="7.2637">
        <ele>303</ele>
        <time>2018-04-26T06:59:15.000Z</time>
      </trkpt>
      <trkpt lat="43.74197" lon="7.26369">
        <ele>303</ele>
        <time>2018-04-26T06:59:21.000Z</time>
      </trkpt>
      <trkpt lat="43.74208" lon="7.26367">
        <ele>304</ele>
        <time>2018-04-26T06:59:28.000Z</time>
      </trkpt>
      <trkpt lat="43.7421" lon="7.26367">
        <ele>304</ele>
        <time>2018-04-26T06:59:29.000Z</time>
      </trkpt>
      <trkpt lat="43.74217" lon="7.26367">
        <ele>305</ele>
        <time>2018-04-26T06:59:34.000Z</time>
      </trkpt>
      <trkpt lat="43.7422" lon="7.26366">
        <ele>305</ele>
        <time>2018-04-26T06:59:36.000Z</time>
      </trkpt>
      <trkpt lat="43.74228" lon="7.26366">
        <ele>305</ele>
        <time>2018-04-26T06:59:42.000Z</time>
      </trkpt>
      <trkpt lat="43.74232" lon="7.26366">
        <ele>306</ele>
        <time>2018-04-26T06:59:45.000Z</time>
      </trkpt>
      <trkpt lat="43.74233" lon="7.26366">
        <ele>306</ele>
        <time>2018-04-26T06:59:46.000Z</time>
      </trkpt>
      <trkpt lat="43.74237" lon="7.26366">
        <ele>306</ele>
        <time>2018-04-26T06:59:48.000Z</time>
      </trkpt>
      <trkpt lat="43.74239" lon="7.26367">
        <ele>306</ele>
        <time>2018-04-26T06:59:50.000Z</time>
      </trkpt>
      <trkpt lat="43.74244" lon="7.26367">
        <ele>306</ele>
        <time>2018-04-26T06:59:53.000Z</time>
      </trkpt>
      <trkpt lat="43.74246" lon="7.26368">
        <ele>306</ele>
        <time>2018-04-26T06:59:54.000Z</time>
      </trkpt>
      <trkpt lat="43.7425" lon="7.26367">
        <ele>313</ele>
        <time>2018-04-26T06:59:57.000Z</time>
      </trkpt>
      <trkpt lat="43.74254" lon="7.26367">
        <ele>313</ele>
        <time>2018-04-26T07:00:00.000Z</time>
      </trkpt>
      <trkpt lat="43.74259" lon="7.26366">
        <ele>313</ele>
        <time>2018-04-26T07:00:04.000Z</time>
      </trkpt>
      <trkpt lat="43.74262" lon="7.26365">
        <ele>313</ele>
        <time>2018-04-26T07:00:06.000Z</time>
      </trkpt>
      <trkpt lat="43.74268" lon="7.26362">
        <ele>313</ele>
        <time>2018-04-26T07:00:11.000Z</time>
      </trkpt>
      <trkpt lat="43.74278" lon="7.26359">
        <ele>314</ele>
        <time>2018-04-26T07:00:17.000Z</time>
      </trkpt>
      <trkpt lat="43.74289" lon="7.26357">
        <ele>314</ele>
        <time>2018-04-26T07:00:25.000Z</time>
      </trkpt>
      <trkpt lat="43.7429" lon="7.26356">
        <ele>314</ele>
        <time>2018-04-26T07:00:26.000Z</time>
      </trkpt>
      <trkpt lat="43.74301" lon="7.26354">
        <ele>315</ele>
        <time>2018-04-26T07:00:33.000Z</time>
      </trkpt>
      <trkpt lat="43.74302" lon="7.26353">
        <ele>315</ele>
        <time>2018-04-26T07:00:34.000Z</time>
      </trkpt>
      <trkpt lat="43.74312" lon="7.2635">
        <ele>316</ele>
        <time>2018-04-26T07:00:41.000Z</time>
      </trkpt>
      <trkpt lat="43.74321" lon="7.26347">
        <ele>316</ele>
        <time>2018-04-26T07:00:47.000Z</time>
      </trkpt>
      <trkpt lat="43.74322" lon="7.26347">
        <ele>316</ele>
        <time>2018-04-26T07:00:48.000Z</time>
      </trkpt>
      <trkpt lat="43.74329" lon="7.26344">
        <ele>316</ele>
        <time>2018-04-26T07:00:53.000Z</time>
      </trkpt>
      <trkpt lat="43.7433" lon="7.26343">
        <ele>316</ele>
        <time>2018-04-26T07:00:54.000Z</time>
      </trkpt>
      <trkpt lat="43.74331" lon="7.26343">
        <ele>316</ele>
        <time>2018-04-26T07:00:55.000Z</time>
      </trkpt>
      <trkpt lat="43.74335" lon="7.26348">
        <ele>317</ele>
        <time>2018-04-26T07:00:58.000Z</time>
      </trkpt>
      <trkpt lat="43.74337" lon="7.26352">
        <ele>317</ele>
        <time>2018-04-26T07:01:00.000Z</time>
      </trkpt>
      <trkpt lat="43.74339" lon="7.26356">
        <ele>317</ele>
        <time>2018-04-26T07:01:03.000Z</time>
      </trkpt>
      <trkpt lat="43.74341" lon="7.26358">
        <ele>317</ele>
        <time>2018-04-26T07:01:06.000Z</time>
      </trkpt>
      <trkpt lat="43.74342" lon="7.26359">
        <ele>317</ele>
        <time>2018-04-26T07:01:10.000Z</time>
      </trkpt>
      <trkpt lat="43.74342" lon="7.26359">
        <ele>317</ele>
        <time>2018-04-26T07:01:20.000Z</time>
      </trkpt>
      <trkpt lat="43.74341" lon="7.26359">
        <ele>317</ele>
        <time>2018-04-26T07:01:28.000Z</time>
      </trkpt>
      <trkpt lat="43.74342" lon="7.26359">
        <ele>317</ele>
        <time>2018-04-26T07:01:47.000Z</time>
      </trkpt>
      <trkpt lat="43.74341" lon="7.26358">
        <ele>317</ele>
        <time>2018-04-26T07:02:00.000Z</time>
      </trkpt>
      <trkpt lat="43.74342" lon="7.26358">
        <ele>317</ele>
        <time>2018-04-26T07:02:14.000Z</time>
      </trkpt>
      <trkpt lat="43.74342" lon="7.26357">
        <ele>317</ele>
        <time>2018-04-26T07:02:23.000Z</time>
      </trkpt>
      <trkpt lat="43.74342" lon="7.26356">
        <ele>317</ele>
        <time>2018-04-26T07:02:34.000Z</time>
      </trkpt>
      <trkpt lat="43.74341" lon="7.26355">
        <ele>317</ele>
        <time>2018-04-26T07:02:48.000Z</time>
      </trkpt>
      <trkpt lat="43.74342" lon="7.26355">
        <ele>317</ele>
        <time>2018-04-26T07:02:56.000Z</time>
      </trkpt>
      <trkpt lat="43.74342" lon="7.26355">
        <ele>317</ele>
        <time>2018-04-26T07:03:03.000Z</time>
      </trkpt>
      <trkpt lat="43.74342" lon="7.26355">
        <ele>317</ele>
        <time>2018-04-26T07:03:12.000Z</time>
      </trkpt>
      <trkpt lat="43.74342" lon="7.26356">
        <ele>317</ele>
        <time>2018-04-26T07:03:23.000Z</time>
      </trkpt>
      <trkpt lat="43.74342" lon="7.26356">
        <ele>317</ele>
        <time>2018-04-26T07:03:36.000Z</time>
      </trkpt>
      <trkpt lat="43.74341" lon="7.26356">
        <ele>317</ele>
        <time>2018-04-26T07:03:43.000Z</time>
      </trkpt>
      <trkpt lat="43.74341" lon="7.26357">
        <ele>317</ele>
        <time>2018-04-26T07:03:51.000Z</time>
      </trkpt>
      <trkpt lat="43.74345" lon="7.2635">
        <ele>317</ele>
        <time>2018-04-26T07:03:55.000Z</time>
      </trkpt>
      <trkpt lat="43.74351" lon="7.26333">
        <ele>319</ele>
        <time>2018-04-26T07:04:01.000Z</time>
      </trkpt>
      <trkpt lat="43.74357" lon="7.26324">
        <ele>320</ele>
        <time>2018-04-26T07:04:06.000Z</time>
      </trkpt>
      <trkpt lat="43.7436" lon="7.26316">
        <ele>320</ele>
        <time>2018-04-26T07:04:10.000Z</time>
      </trkpt>
      <trkpt lat="43.74363" lon="7.26308">
        <ele>321</ele>
        <time>2018-04-26T07:04:14.000Z</time>
      </trkpt>
      <trkpt lat="43.74364" lon="7.26304">
        <ele>321</ele>
        <time>2018-04-26T07:04:16.000Z</time>
      </trkpt>
      <trkpt lat="43.74368" lon="7.26294">
        <ele>321</ele>
        <time>2018-04-26T07:04:21.000Z</time>
      </trkpt>
      <trkpt lat="43.74368" lon="7.26292">
        <ele>322</ele>
        <time>2018-04-26T07:04:22.000Z</time>
      </trkpt>
      <trkpt lat="43.74373" lon="7.2628">
        <ele>322</ele>
        <time>2018-04-26T07:04:29.000Z</time>
      </trkpt>
      <trkpt lat="43.74373" lon="7.26278">
        <ele>323</ele>
        <time>2018-04-26T07:04:30.000Z</time>
      </trkpt>
      <trkpt lat="43.74376" lon="7.26269">
        <ele>323</ele>
        <time>2018-04-26T07:04:35.000Z</time>
      </trkpt>
      <trkpt lat="43.74377" lon="7.26268">
        <ele>323</ele>
        <time>2018-04-26T07:04:36.000Z</time>
      </trkpt>
      <trkpt lat="43.74379" lon="7.26261">
        <ele>324</ele>
        <time>2018-04-26T07:04:40.000Z</time>
      </trkpt>
      <trkpt lat="43.74379" lon="7.26255">
        <ele>324</ele>
        <time>2018-04-26T07:04:43.000Z</time>
      </trkpt>
      <trkpt lat="43.74378" lon="7.26252">
        <ele>324</ele>
        <time>2018-04-26T07:04:45.000Z</time>
      </trkpt>
      <trkpt lat="43.74377" lon="7.26244">
        <ele>331</ele>
        <time>2018-04-26T07:04:49.000Z</time>
      </trkpt>
      <trkpt lat="43.74374" lon="7.26237">
        <ele>331</ele>
        <time>2018-04-26T07:04:53.000Z</time>
      </trkpt>
      <trkpt lat="43.74372" lon="7.2623">
        <ele>331</ele>
        <time>2018-04-26T07:04:57.000Z</time>
      </trkpt>
      <trkpt lat="43.7437" lon="7.26225">
        <ele>331</ele>
        <time>2018-04-26T07:05:00.000Z</time>
      </trkpt>
      <trkpt lat="43.74366" lon="7.26215">
        <ele>332</ele>
        <time>2018-04-26T07:05:06.000Z</time>
      </trkpt>
      <trkpt lat="43.74361" lon="7.26202">
        <ele>332</ele>
        <time>2018-04-26T07:05:13.000Z</time>
      </trkpt>
      <trkpt lat="43.7436" lon="7.262">
        <ele>332</ele>
        <time>2018-04-26T07:05:14.000Z</time>
      </trkpt>
      <trkpt lat="43.74357" lon="7.2619">
        <ele>333</ele>
        <time>2018-04-26T07:05:20.000Z</time>
      </trkpt>
      <trkpt lat="43.74355" lon="7.26184">
        <ele>333</ele>
        <time>2018-04-26T07:05:23.000Z</time>
      </trkpt>
      <trkpt lat="43.74352" lon="7.26177">
        <ele>333</ele>
        <time>2018-04-26T07:05:27.000Z</time>
      </trkpt>
      <trkpt lat="43.74349" lon="7.2617">
        <ele>333</ele>
        <time>2018-04-26T07:05:31.000Z</time>
      </trkpt>
      <trkpt lat="43.74347" lon="7.26165">
        <ele>337</ele>
        <time>2018-04-26T07:05:34.000Z</time>
      </trkpt>
      <trkpt lat="43.74345" lon="7.26159">
        <ele>337</ele>
        <time>2018-04-26T07:05:37.000Z</time>
      </trkpt>
      <trkpt lat="43.74344" lon="7.26157">
        <ele>337</ele>
        <time>2018-04-26T07:05:38.000Z</time>
      </trkpt>
      <trkpt lat="43.74342" lon="7.26149">
        <ele>338</ele>
        <time>2018-04-26T07:05:42.000Z</time>
      </trkpt>
      <trkpt lat="43.74339" lon="7.26139">
        <ele>339</ele>
        <time>2018-04-26T07:05:47.000Z</time>
      </trkpt>
      <trkpt lat="43.74338" lon="7.26136">
        <ele>340</ele>
        <time>2018-04-26T07:05:49.000Z</time>
      </trkpt>
      <trkpt lat="43.74335" lon="7.26125">
        <ele>341</ele>
        <time>2018-04-26T07:05:54.000Z</time>
      </trkpt>
      <trkpt lat="43.74335" lon="7.26121">
        <ele>341</ele>
        <time>2018-04-26T07:05:56.000Z</time>
      </trkpt>
      <trkpt lat="43.74331" lon="7.26105">
        <ele>333</ele>
        <time>2018-04-26T07:06:02.000Z</time>
      </trkpt>
      <trkpt lat="43.74329" lon="7.26099">
        <ele>334</ele>
        <time>2018-04-26T07:06:04.000Z</time>
      </trkpt>
      <trkpt lat="43.74322" lon="7.26073">
        <ele>337</ele>
        <time>2018-04-26T07:06:13.000Z</time>
      </trkpt>
      <trkpt lat="43.74314" lon="7.26047">
        <ele>335</ele>
        <time>2018-04-26T07:06:22.000Z</time>
      </trkpt>
      <trkpt lat="43.74313" lon="7.26044">
        <ele>335</ele>
        <time>2018-04-26T07:06:23.000Z</time>
      </trkpt>
      <trkpt lat="43.74309" lon="7.2603">
        <ele>335</ele>
        <time>2018-04-26T07:06:27.000Z</time>
      </trkpt>
      <trkpt lat="43.74304" lon="7.26009">
        <ele>336</ele>
        <time>2018-04-26T07:06:34.000Z</time>
      </trkpt>
      <trkpt lat="43.74301" lon="7.25995">
        <ele>340</ele>
        <time>2018-04-26T07:06:39.000Z</time>
      </trkpt>
      <trkpt lat="43.74299" lon="7.25989">
        <ele>340</ele>
        <time>2018-04-26T07:06:41.000Z</time>
      </trkpt>
      <trkpt lat="43.74292" lon="7.25965">
        <ele>340</ele>
        <time>2018-04-26T07:06:49.000Z</time>
      </trkpt>
      <trkpt lat="43.74291" lon="7.25962">
        <ele>340</ele>
        <time>2018-04-26T07:06:50.000Z</time>
      </trkpt>
      <trkpt lat="43.74285" lon="7.25941">
        <ele>341</ele>
        <time>2018-04-26T07:06:57.000Z</time>
      </trkpt>
      <trkpt lat="43.74284" lon="7.25925">
        <ele>342</ele>
        <time>2018-04-26T07:07:03.000Z</time>
      </trkpt>
      <trkpt lat="43.74285" lon="7.2592">
        <ele>342</ele>
        <time>2018-04-26T07:07:05.000Z</time>
      </trkpt>
      <trkpt lat="43.74286" lon="7.25913">
        <ele>350</ele>
        <time>2018-04-26T07:07:08.000Z</time>
      </trkpt>
      <trkpt lat="43.74289" lon="7.25904">
        <ele>351</ele>
        <time>2018-04-26T07:07:12.000Z</time>
      </trkpt>
      <trkpt lat="43.7429" lon="7.25903">
        <ele>351</ele>
        <time>2018-04-26T07:07:13.000Z</time>
      </trkpt>
      <trkpt lat="43.74293" lon="7.25896">
        <ele>352</ele>
        <time>2018-04-26T07:07:17.000Z</time>
      </trkpt>
      <trkpt lat="43.74293" lon="7.25891">
        <ele>353</ele>
        <time>2018-04-26T07:07:19.000Z</time>
      </trkpt>
      <trkpt lat="43.7429" lon="7.25883">
        <ele>353</ele>
        <time>2018-04-26T07:07:23.000Z</time>
      </trkpt>
      <trkpt lat="43.74287" lon="7.2588">
        <ele>353</ele>
        <time>2018-04-26T07:07:25.000Z</time>
      </trkpt>
      <trkpt lat="43.74282" lon="7.25874">
        <ele>354</ele>
        <time>2018-04-26T07:07:29.000Z</time>
      </trkpt>
      <trkpt lat="43.74281" lon="7.25872">
        <ele>354</ele>
        <time>2018-04-26T07:07:30.000Z</time>
      </trkpt>
      <trkpt lat="43.74278" lon="7.2587">
        <ele>354</ele>
        <time>2018-04-26T07:07:32.000Z</time>
      </trkpt>
      <trkpt lat="43.74274" lon="7.25865">
        <ele>354</ele>
        <time>2018-04-26T07:07:36.000Z</time>
      </trkpt>
      <trkpt lat="43.7427" lon="7.25862">
        <ele>354</ele>
        <time>2018-04-26T07:07:39.000Z</time>
      </trkpt>
      <trkpt lat="43.74268" lon="7.25861">
        <ele>355</ele>
        <time>2018-04-26T07:07:41.000Z</time>
      </trkpt>
      <trkpt lat="43.74263" lon="7.25858">
        <ele>355</ele>
        <time>2018-04-26T07:07:46.000Z</time>
      </trkpt>
      <trkpt lat="43.74261" lon="7.25857">
        <ele>355</ele>
        <time>2018-04-26T07:07:47.000Z</time>
      </trkpt>
      <trkpt lat="43.74256" lon="7.25854">
        <ele>356</ele>
        <time>2018-04-26T07:07:52.000Z</time>
      </trkpt>
      <trkpt lat="43.74255" lon="7.25853">
        <ele>356</ele>
        <time>2018-04-26T07:07:53.000Z</time>
      </trkpt>
      <trkpt lat="43.74249" lon="7.25848">
        <ele>351</ele>
        <time>2018-04-26T07:07:58.000Z</time>
      </trkpt>
      <trkpt lat="43.74248" lon="7.25847">
        <ele>351</ele>
        <time>2018-04-26T07:07:59.000Z</time>
      </trkpt>
      <trkpt lat="43.74245" lon="7.25842">
        <ele>352</ele>
        <time>2018-04-26T07:08:03.000Z</time>
      </trkpt>
      <trkpt lat="43.74242" lon="7.25839">
        <ele>353</ele>
        <time>2018-04-26T07:08:06.000Z</time>
      </trkpt>
      <trkpt lat="43.74239" lon="7.25835">
        <ele>352</ele>
        <time>2018-04-26T07:08:09.000Z</time>
      </trkpt>
      <trkpt lat="43.74233" lon="7.25828">
        <ele>356</ele>
        <time>2018-04-26T07:08:15.000Z</time>
      </trkpt>
      <trkpt lat="43.74233" lon="7.25826">
        <ele>355</ele>
        <time>2018-04-26T07:08:16.000Z</time>
      </trkpt>
      <trkpt lat="43.74225" lon="7.25816">
        <ele>354</ele>
        <time>2018-04-26T07:08:23.000Z</time>
      </trkpt>
      <trkpt lat="43.74224" lon="7.25814">
        <ele>354</ele>
        <time>2018-04-26T07:08:24.000Z</time>
      </trkpt>
      <trkpt lat="43.74215" lon="7.25803">
        <ele>353</ele>
        <time>2018-04-26T07:08:31.000Z</time>
      </trkpt>
      <trkpt lat="43.74208" lon="7.25795">
        <ele>353</ele>
        <time>2018-04-26T07:08:36.000Z</time>
      </trkpt>
      <trkpt lat="43.74203" lon="7.2579">
        <ele>352</ele>
        <time>2018-04-26T07:08:39.000Z</time>
      </trkpt>
      <trkpt lat="43.74195" lon="7.25775">
        <ele>352</ele>
        <time>2018-04-26T07:08:46.000Z</time>
      </trkpt>
      <trkpt lat="43.74193" lon="7.25768">
        <ele>352</ele>
        <time>2018-04-26T07:08:49.000Z</time>
      </trkpt>
      <trkpt lat="43.74191" lon="7.25762">
        <ele>352</ele>
        <time>2018-04-26T07:08:53.000Z</time>
      </trkpt>
      <trkpt lat="43.7419" lon="7.25756">
        <ele>351</ele>
        <time>2018-04-26T07:08:56.000Z</time>
      </trkpt>
      <trkpt lat="43.74189" lon="7.25753">
        <ele>351</ele>
        <time>2018-04-26T07:08:58.000Z</time>
      </trkpt>
      <trkpt lat="43.74188" lon="7.25744">
        <ele>357</ele>
        <time>2018-04-26T07:09:03.000Z</time>
      </trkpt>
      <trkpt lat="43.74189" lon="7.25742">
        <ele>357</ele>
        <time>2018-04-26T07:09:05.000Z</time>
      </trkpt>
      <trkpt lat="43.74188" lon="7.25736">
        <ele>358</ele>
        <time>2018-04-26T07:09:09.000Z</time>
      </trkpt>
      <trkpt lat="43.74188" lon="7.25734">
        <ele>358</ele>
        <time>2018-04-26T07:09:10.000Z</time>
      </trkpt>
      <trkpt lat="43.74191" lon="7.25727">
        <ele>359</ele>
        <time>2018-04-26T07:09:15.000Z</time>
      </trkpt>
      <trkpt lat="43.74195" lon="7.2572">
        <ele>361</ele>
        <time>2018-04-26T07:09:21.000Z</time>
      </trkpt>
      <trkpt lat="43.74195" lon="7.25718">
        <ele>361</ele>
        <time>2018-04-26T07:09:22.000Z</time>
      </trkpt>
      <trkpt lat="43.74199" lon="7.25709">
        <ele>362</ele>
        <time>2018-04-26T07:09:28.000Z</time>
      </trkpt>
      <trkpt lat="43.74202" lon="7.25706">
        <ele>363</ele>
        <time>2018-04-26T07:09:31.000Z</time>
      </trkpt>
      <trkpt lat="43.74204" lon="7.25704">
        <ele>363</ele>
        <time>2018-04-26T07:09:33.000Z</time>
      </trkpt>
      <trkpt lat="43.74208" lon="7.25698">
        <ele>364</ele>
        <time>2018-04-26T07:09:38.000Z</time>
      </trkpt>
      <trkpt lat="43.74209" lon="7.25697">
        <ele>364</ele>
        <time>2018-04-26T07:09:39.000Z</time>
      </trkpt>
      <trkpt lat="43.74215" lon="7.2569">
        <ele>365</ele>
        <time>2018-04-26T07:09:45.000Z</time>
      </trkpt>
      <trkpt lat="43.74221" lon="7.25684">
        <ele>366</ele>
        <time>2018-04-26T07:09:51.000Z</time>
      </trkpt>
      <trkpt lat="43.74222" lon="7.25683">
        <ele>367</ele>
        <time>2018-04-26T07:09:52.000Z</time>
      </trkpt>
      <trkpt lat="43.74228" lon="7.25678">
        <ele>368</ele>
        <time>2018-04-26T07:09:57.000Z</time>
      </trkpt>
      <trkpt lat="43.7423" lon="7.25676">
        <ele>369</ele>
        <time>2018-04-26T07:09:59.000Z</time>
      </trkpt>
      <trkpt lat="43.74235" lon="7.2567">
        <ele>370</ele>
        <time>2018-04-26T07:10:04.000Z</time>
      </trkpt>
      <trkpt lat="43.74236" lon="7.2567">
        <ele>371</ele>
        <time>2018-04-26T07:10:05.000Z</time>
      </trkpt>
      <trkpt lat="43.74241" lon="7.25665">
        <ele>374</ele>
        <time>2018-04-26T07:10:10.000Z</time>
      </trkpt>
      <trkpt lat="43.74245" lon="7.25661">
        <ele>374</ele>
        <time>2018-04-26T07:10:13.000Z</time>
      </trkpt>
      <trkpt lat="43.74247" lon="7.25659">
        <ele>374</ele>
        <time>2018-04-26T07:10:15.000Z</time>
      </trkpt>
      <trkpt lat="43.74251" lon="7.25655">
        <ele>377</ele>
        <time>2018-04-26T07:10:19.000Z</time>
      </trkpt>
      <trkpt lat="43.74256" lon="7.25652">
        <ele>377</ele>
        <time>2018-04-26T07:10:23.000Z</time>
      </trkpt>
      <trkpt lat="43.74257" lon="7.25651">
        <ele>378</ele>
        <time>2018-04-26T07:10:24.000Z</time>
      </trkpt>
      <trkpt lat="43.74266" lon="7.25642">
        <ele>378</ele>
        <time>2018-04-26T07:10:30.000Z</time>
      </trkpt>
      <trkpt lat="43.74271" lon="7.25638">
        <ele>378</ele>
        <time>2018-04-26T07:10:33.000Z</time>
      </trkpt>
      <trkpt lat="43.74274" lon="7.25636">
        <ele>379</ele>
        <time>2018-04-26T07:10:35.000Z</time>
      </trkpt>
      <trkpt lat="43.74281" lon="7.25629">
        <ele>379</ele>
        <time>2018-04-26T07:10:40.000Z</time>
      </trkpt>
      <trkpt lat="43.74288" lon="7.25627">
        <ele>379</ele>
        <time>2018-04-26T07:10:44.000Z</time>
      </trkpt>
      <trkpt lat="43.74289" lon="7.25627">
        <ele>379</ele>
        <time>2018-04-26T07:10:45.000Z</time>
      </trkpt>
      <trkpt lat="43.74298" lon="7.25631">
        <ele>379</ele>
        <time>2018-04-26T07:10:50.000Z</time>
      </trkpt>
      <trkpt lat="43.74301" lon="7.25631">
        <ele>379</ele>
        <time>2018-04-26T07:10:52.000Z</time>
      </trkpt>
      <trkpt lat="43.74312" lon="7.2563">
        <ele>380</ele>
        <time>2018-04-26T07:10:58.000Z</time>
      </trkpt>
      <trkpt lat="43.74314" lon="7.2563">
        <ele>380</ele>
        <time>2018-04-26T07:10:59.000Z</time>
      </trkpt>
      <trkpt lat="43.74322" lon="7.25636">
        <ele>380</ele>
        <time>2018-04-26T07:11:04.000Z</time>
      </trkpt>
      <trkpt lat="43.74327" lon="7.25646">
        <ele>380</ele>
        <time>2018-04-26T07:11:10.000Z</time>
      </trkpt>
      <trkpt lat="43.74329" lon="7.25647">
        <ele>380</ele>
        <time>2018-04-26T07:11:11.000Z</time>
      </trkpt>
      <trkpt lat="43.74334" lon="7.25646">
        <ele>382</ele>
        <time>2018-04-26T07:11:14.000Z</time>
      </trkpt>
      <trkpt lat="43.74337" lon="7.25647">
        <ele>382</ele>
        <time>2018-04-26T07:11:16.000Z</time>
      </trkpt>
      <trkpt lat="43.74346" lon="7.2565">
        <ele>382</ele>
        <time>2018-04-26T07:11:22.000Z</time>
      </trkpt>
      <trkpt lat="43.74352" lon="7.2565">
        <ele>383</ele>
        <time>2018-04-26T07:11:26.000Z</time>
      </trkpt>
      <trkpt lat="43.74354" lon="7.2565">
        <ele>383</ele>
        <time>2018-04-26T07:11:27.000Z</time>
      </trkpt>
      <trkpt lat="43.7436" lon="7.25651">
        <ele>383</ele>
        <time>2018-04-26T07:11:31.000Z</time>
      </trkpt>
      <trkpt lat="43.74367" lon="7.25652">
        <ele>383</ele>
        <time>2018-04-26T07:11:35.000Z</time>
      </trkpt>
      <trkpt lat="43.74368" lon="7.25653">
        <ele>383</ele>
        <time>2018-04-26T07:11:36.000Z</time>
      </trkpt>
      <trkpt lat="43.74373" lon="7.25655">
        <ele>383</ele>
        <time>2018-04-26T07:11:39.000Z</time>
      </trkpt>
      <trkpt lat="43.74379" lon="7.25655">
        <ele>383</ele>
        <time>2018-04-26T07:11:43.000Z</time>
      </trkpt>
      <trkpt lat="43.74389" lon="7.2565">
        <ele>384</ele>
        <time>2018-04-26T07:11:49.000Z</time>
      </trkpt>
      <trkpt lat="43.74391" lon="7.2565">
        <ele>384</ele>
        <time>2018-04-26T07:11:50.000Z</time>
      </trkpt>
      <trkpt lat="43.74397" lon="7.25646">
        <ele>384</ele>
        <time>2018-04-26T07:11:54.000Z</time>
      </trkpt>
      <trkpt lat="43.74403" lon="7.25646">
        <ele>384</ele>
        <time>2018-04-26T07:11:57.000Z</time>
      </trkpt>
      <trkpt lat="43.74415" lon="7.25644">
        <ele>384</ele>
        <time>2018-04-26T07:12:03.000Z</time>
      </trkpt>
      <trkpt lat="43.74423" lon="7.25642">
        <ele>388</ele>
        <time>2018-04-26T07:12:08.000Z</time>
      </trkpt>
      <trkpt lat="43.74427" lon="7.25642">
        <ele>388</ele>
        <time>2018-04-26T07:12:10.000Z</time>
      </trkpt>
      <trkpt lat="43.7444" lon="7.25646">
        <ele>388</ele>
        <time>2018-04-26T07:12:17.000Z</time>
      </trkpt>
      <trkpt lat="43.74441" lon="7.25646">
        <ele>388</ele>
        <time>2018-04-26T07:12:18.000Z</time>
      </trkpt>
      <trkpt lat="43.7445" lon="7.25643">
        <ele>389</ele>
        <time>2018-04-26T07:12:23.000Z</time>
      </trkpt>
      <trkpt lat="43.74455" lon="7.25637">
        <ele>390</ele>
        <time>2018-04-26T07:12:27.000Z</time>
      </trkpt>
      <trkpt lat="43.74457" lon="7.25637">
        <ele>390</ele>
        <time>2018-04-26T07:12:28.000Z</time>
      </trkpt>
      <trkpt lat="43.7446" lon="7.25635">
        <ele>390</ele>
        <time>2018-04-26T07:12:30.000Z</time>
      </trkpt>
      <trkpt lat="43.74467" lon="7.25635">
        <ele>390</ele>
        <time>2018-04-26T07:12:34.000Z</time>
      </trkpt>
      <trkpt lat="43.74475" lon="7.25631">
        <ele>391</ele>
        <time>2018-04-26T07:12:39.000Z</time>
      </trkpt>
      <trkpt lat="43.74479" lon="7.25625">
        <ele>391</ele>
        <time>2018-04-26T07:12:42.000Z</time>
      </trkpt>
      <trkpt lat="43.74485" lon="7.25622">
        <ele>391</ele>
        <time>2018-04-26T07:12:45.000Z</time>
      </trkpt>
      <trkpt lat="43.74486" lon="7.2562">
        <ele>391</ele>
        <time>2018-04-26T07:12:46.000Z</time>
      </trkpt>
      <trkpt lat="43.74496" lon="7.25618">
        <ele>392</ele>
        <time>2018-04-26T07:12:51.000Z</time>
      </trkpt>
      <trkpt lat="43.74498" lon="7.25618">
        <ele>392</ele>
        <time>2018-04-26T07:12:52.000Z</time>
      </trkpt>
      <trkpt lat="43.74506" lon="7.25619">
        <ele>396</ele>
        <time>2018-04-26T07:12:56.000Z</time>
      </trkpt>
      <trkpt lat="43.74509" lon="7.2562">
        <ele>397</ele>
        <time>2018-04-26T07:12:58.000Z</time>
      </trkpt>
      <trkpt lat="43.74513" lon="7.25619">
        <ele>397</ele>
        <time>2018-04-26T07:13:00.000Z</time>
      </trkpt>
      <trkpt lat="43.74518" lon="7.2562">
        <ele>397</ele>
        <time>2018-04-26T07:13:03.000Z</time>
      </trkpt>
      <trkpt lat="43.74529" lon="7.25618">
        <ele>397</ele>
        <time>2018-04-26T07:13:09.000Z</time>
      </trkpt>
      <trkpt lat="43.7453" lon="7.25617">
        <ele>397</ele>
        <time>2018-04-26T07:13:10.000Z</time>
      </trkpt>
      <trkpt lat="43.74539" lon="7.25618">
        <ele>398</ele>
        <time>2018-04-26T07:13:15.000Z</time>
      </trkpt>
      <trkpt lat="43.74543" lon="7.2562">
        <ele>398</ele>
        <time>2018-04-26T07:13:17.000Z</time>
      </trkpt>
      <trkpt lat="43.74547" lon="7.25624">
        <ele>398</ele>
        <time>2018-04-26T07:13:20.000Z</time>
      </trkpt>
      <trkpt lat="43.74553" lon="7.25625">
        <ele>398</ele>
        <time>2018-04-26T07:13:24.000Z</time>
      </trkpt>
      <trkpt lat="43.74555" lon="7.25624">
        <ele>398</ele>
        <time>2018-04-26T07:13:25.000Z</time>
      </trkpt>
      <trkpt lat="43.74556" lon="7.25623">
        <ele>398</ele>
        <time>2018-04-26T07:13:26.000Z</time>
      </trkpt>
      <trkpt lat="43.74559" lon="7.2562">
        <ele>398</ele>
        <time>2018-04-26T07:13:29.000Z</time>
      </trkpt>
      <trkpt lat="43.7456" lon="7.25618">
        <ele>398</ele>
        <time>2018-04-26T07:13:31.000Z</time>
      </trkpt>
      <trkpt lat="43.74561" lon="7.25616">
        <ele>398</ele>
        <time>2018-04-26T07:13:32.000Z</time>
      </trkpt>
      <trkpt lat="43.74564" lon="7.25611">
        <ele>398</ele>
        <time>2018-04-26T07:13:37.000Z</time>
      </trkpt>
      <trkpt lat="43.74566" lon="7.25609">
        <ele>398</ele>
        <time>2018-04-26T07:13:38.000Z</time>
      </trkpt>
      <trkpt lat="43.74571" lon="7.25606">
        <ele>398</ele>
        <time>2018-04-26T07:13:42.000Z</time>
      </trkpt>
      <trkpt lat="43.74575" lon="7.25603">
        <ele>398</ele>
        <time>2018-04-26T07:13:45.000Z</time>
      </trkpt>
      <trkpt lat="43.74581" lon="7.25602">
        <ele>398</ele>
        <time>2018-04-26T07:13:49.000Z</time>
      </trkpt>
      <trkpt lat="43.74583" lon="7.25602">
        <ele>398</ele>
        <time>2018-04-26T07:13:51.000Z</time>
      </trkpt>
      <trkpt lat="43.74586" lon="7.256">
        <ele>401</ele>
        <time>2018-04-26T07:13:54.000Z</time>
      </trkpt>
      <trkpt lat="43.74595" lon="7.256">
        <ele>402</ele>
        <time>2018-04-26T07:14:00.000Z</time>
      </trkpt>
      <trkpt lat="43.74603" lon="7.25599">
        <ele>402</ele>
        <time>2018-04-26T07:14:06.000Z</time>
      </trkpt>
      <trkpt lat="43.74606" lon="7.25598">
        <ele>402</ele>
        <time>2018-04-26T07:14:08.000Z</time>
      </trkpt>
      <trkpt lat="43.74612" lon="7.25598">
        <ele>403</ele>
        <time>2018-04-26T07:14:12.000Z</time>
      </trkpt>
      <trkpt lat="43.74619" lon="7.25596">
        <ele>403</ele>
        <time>2018-04-26T07:14:18.000Z</time>
      </trkpt>
      <trkpt lat="43.74621" lon="7.25595">
        <ele>403</ele>
        <time>2018-04-26T07:14:19.000Z</time>
      </trkpt>
      <trkpt lat="43.74624" lon="7.2559">
        <ele>403</ele>
        <time>2018-04-26T07:14:23.000Z</time>
      </trkpt>
      <trkpt lat="43.74626" lon="7.25589">
        <ele>403</ele>
        <time>2018-04-26T07:14:24.000Z</time>
      </trkpt>
      <trkpt lat="43.74634" lon="7.25589">
        <ele>404</ele>
        <time>2018-04-26T07:14:30.000Z</time>
      </trkpt>
      <trkpt lat="43.74646" lon="7.25589">
        <ele>404</ele>
        <time>2018-04-26T07:14:36.000Z</time>
      </trkpt>
      <trkpt lat="43.74652" lon="7.25586">
        <ele>404</ele>
        <time>2018-04-26T07:14:38.000Z</time>
      </trkpt>
      <trkpt lat="43.74656" lon="7.25585">
        <ele>404</ele>
        <time>2018-04-26T07:14:40.000Z</time>
      </trkpt>
      <trkpt lat="43.74663" lon="7.25581">
        <ele>402</ele>
        <time>2018-04-26T07:14:43.000Z</time>
      </trkpt>
      <trkpt lat="43.7467" lon="7.25575">
        <ele>402</ele>
        <time>2018-04-26T07:14:46.000Z</time>
      </trkpt>
      <trkpt lat="43.74675" lon="7.25572">
        <ele>402</ele>
        <time>2018-04-26T07:14:48.000Z</time>
      </trkpt>
      <trkpt lat="43.74684" lon="7.25568">
        <ele>401</ele>
        <time>2018-04-26T07:14:51.000Z</time>
      </trkpt>
      <trkpt lat="43.74692" lon="7.25566">
        <ele>401</ele>
        <time>2018-04-26T07:14:53.000Z</time>
      </trkpt>
      <trkpt lat="43.74696" lon="7.25566">
        <ele>401</ele>
        <time>2018-04-26T07:14:54.000Z</time>
      </trkpt>
      <trkpt lat="43.74703" lon="7.25567">
        <ele>401</ele>
        <time>2018-04-26T07:14:56.000Z</time>
      </trkpt>
      <trkpt lat="43.74718" lon="7.25569">
        <ele>402</ele>
        <time>2018-04-26T07:15:01.000Z</time>
      </trkpt>
      <trkpt lat="43.74734" lon="7.25572">
        <ele>403</ele>
        <time>2018-04-26T07:15:07.000Z</time>
      </trkpt>
      <trkpt lat="43.74741" lon="7.25571">
        <ele>404</ele>
        <time>2018-04-26T07:15:11.000Z</time>
      </trkpt>
      <trkpt lat="43.74754" lon="7.2557">
        <ele>405</ele>
        <time>2018-04-26T07:15:17.000Z</time>
      </trkpt>
      <trkpt lat="43.74775" lon="7.25567">
        <ele>404</ele>
        <time>2018-04-26T07:15:25.000Z</time>
      </trkpt>
      <trkpt lat="43.74782" lon="7.25566">
        <ele>404</ele>
        <time>2018-04-26T07:15:28.000Z</time>
      </trkpt>
      <trkpt lat="43.74789" lon="7.25565">
        <ele>404</ele>
        <time>2018-04-26T07:15:31.000Z</time>
      </trkpt>
      <trkpt lat="43.74803" lon="7.25562">
        <ele>404</ele>
        <time>2018-04-26T07:15:37.000Z</time>
      </trkpt>
      <trkpt lat="43.74805" lon="7.25562">
        <ele>404</ele>
        <time>2018-04-26T07:15:38.000Z</time>
      </trkpt>
      <trkpt lat="43.74808" lon="7.25562">
        <ele>404</ele>
        <time>2018-04-26T07:15:40.000Z</time>
      </trkpt>
      <trkpt lat="43.74807" lon="7.25562">
        <ele>404</ele>
        <time>2018-04-26T07:15:42.000Z</time>
      </trkpt>
      <trkpt lat="43.74809" lon="7.25564">
        <ele>405</ele>
        <time>2018-04-26T07:15:48.000Z</time>
      </trkpt>
      <trkpt lat="43.74811" lon="7.25565">
        <ele>405</ele>
        <time>2018-04-26T07:15:52.000Z</time>
      </trkpt>
      <trkpt lat="43.74812" lon="7.25565">
        <ele>405</ele>
        <time>2018-04-26T07:15:53.000Z</time>
      </trkpt>
      <trkpt lat="43.74819" lon="7.25564">
        <ele>405</ele>
        <time>2018-04-26T07:15:56.000Z</time>
      </trkpt>
      <trkpt lat="43.74825" lon="7.25564">
        <ele>406</ele>
        <time>2018-04-26T07:15:58.000Z</time>
      </trkpt>
      <trkpt lat="43.74839" lon="7.25561">
        <ele>407</ele>
        <time>2018-04-26T07:16:03.000Z</time>
      </trkpt>
      <trkpt lat="43.74856" lon="7.25561">
        <ele>406</ele>
        <time>2018-04-26T07:16:08.000Z</time>
      </trkpt>
      <trkpt lat="43.74865" lon="7.25563">
        <ele>406</ele>
        <time>2018-04-26T07:16:11.000Z</time>
      </trkpt>
      <trkpt lat="43.74871" lon="7.25563">
        <ele>406</ele>
        <time>2018-04-26T07:16:13.000Z</time>
      </trkpt>
      <trkpt lat="43.74877" lon="7.25562">
        <ele>406</ele>
        <time>2018-04-26T07:16:15.000Z</time>
      </trkpt>
      <trkpt lat="43.74887" lon="7.25561">
        <ele>406</ele>
        <time>2018-04-26T07:16:18.000Z</time>
      </trkpt>
      <trkpt lat="43.74889" lon="7.25561">
        <ele>406</ele>
        <time>2018-04-26T07:16:19.000Z</time>
      </trkpt>
      <trkpt lat="43.74898" lon="7.25559">
        <ele>407</ele>
        <time>2018-04-26T07:16:22.000Z</time>
      </trkpt>
      <trkpt lat="43.74904" lon="7.25557">
        <ele>407</ele>
        <time>2018-04-26T07:16:24.000Z</time>
      </trkpt>
      <trkpt lat="43.74911" lon="7.25556">
        <ele>407</ele>
        <time>2018-04-26T07:16:26.000Z</time>
      </trkpt>
      <trkpt lat="43.74922" lon="7.25555">
        <ele>408</ele>
        <time>2018-04-26T07:16:29.000Z</time>
      </trkpt>
      <trkpt lat="43.74924" lon="7.25553">
        <ele>407</ele>
        <time>2018-04-26T07:16:30.000Z</time>
      </trkpt>
      <trkpt lat="43.7493" lon="7.2555">
        <ele>407</ele>
        <time>2018-04-26T07:16:32.000Z</time>
      </trkpt>
      <trkpt lat="43.74938" lon="7.25553">
        <ele>407</ele>
        <time>2018-04-26T07:16:35.000Z</time>
      </trkpt>
      <trkpt lat="43.74948" lon="7.2555">
        <ele>407</ele>
        <time>2018-04-26T07:16:38.000Z</time>
      </trkpt>
      <trkpt lat="43.7495" lon="7.25547">
        <ele>407</ele>
        <time>2018-04-26T07:16:39.000Z</time>
      </trkpt>
      <trkpt lat="43.74962" lon="7.25548">
        <ele>407</ele>
        <time>2018-04-26T07:16:43.000Z</time>
      </trkpt>
      <trkpt lat="43.74974" lon="7.25544">
        <ele>407</ele>
        <time>2018-04-26T07:16:47.000Z</time>
      </trkpt>
      <trkpt lat="43.74985" lon="7.25546">
        <ele>407</ele>
        <time>2018-04-26T07:16:51.000Z</time>
      </trkpt>
      <trkpt lat="43.74995" lon="7.25542">
        <ele>407</ele>
        <time>2018-04-26T07:16:55.000Z</time>
      </trkpt>
      <trkpt lat="43.75009" lon="7.25538">
        <ele>410</ele>
        <time>2018-04-26T07:17:00.000Z</time>
      </trkpt>
      <trkpt lat="43.75024" lon="7.25535">
        <ele>411</ele>
        <time>2018-04-26T07:17:05.000Z</time>
      </trkpt>
      <trkpt lat="43.75027" lon="7.25533">
        <ele>411</ele>
        <time>2018-04-26T07:17:06.000Z</time>
      </trkpt>
      <trkpt lat="43.75044" lon="7.25528">
        <ele>411</ele>
        <time>2018-04-26T07:17:12.000Z</time>
      </trkpt>
      <trkpt lat="43.7505" lon="7.25527">
        <ele>411</ele>
        <time>2018-04-26T07:17:14.000Z</time>
      </trkpt>
      <trkpt lat="43.75058" lon="7.25528">
        <ele>412</ele>
        <time>2018-04-26T07:17:17.000Z</time>
      </trkpt>
      <trkpt lat="43.75068" lon="7.25526">
        <ele>412</ele>
        <time>2018-04-26T07:17:21.000Z</time>
      </trkpt>
      <trkpt lat="43.75076" lon="7.25526">
        <ele>412</ele>
        <time>2018-04-26T07:17:24.000Z</time>
      </trkpt>
      <trkpt lat="43.75078" lon="7.25525">
        <ele>412</ele>
        <time>2018-04-26T07:17:25.000Z</time>
      </trkpt>
      <trkpt lat="43.75079" lon="7.25524">
        <ele>412</ele>
        <time>2018-04-26T07:17:26.000Z</time>
      </trkpt>
      <trkpt lat="43.75083" lon="7.2552">
        <ele>412</ele>
        <time>2018-04-26T07:17:29.000Z</time>
      </trkpt>
      <trkpt lat="43.75085" lon="7.2552">
        <ele>417</ele>
        <time>2018-04-26T07:17:30.000Z</time>
      </trkpt>
      <trkpt lat="43.75098" lon="7.25513">
        <ele>417</ele>
        <time>2018-04-26T07:17:35.000Z</time>
      </trkpt>
      <trkpt lat="43.75101" lon="7.25508">
        <ele>417</ele>
        <time>2018-04-26T07:17:37.000Z</time>
      </trkpt>
      <trkpt lat="43.75104" lon="7.25501">
        <ele>417</ele>
        <time>2018-04-26T07:17:39.000Z</time>
      </trkpt>
      <trkpt lat="43.75108" lon="7.2548">
        <ele>415</ele>
        <time>2018-04-26T07:17:44.000Z</time>
      </trkpt>
      <trkpt lat="43.75109" lon="7.25477">
        <ele>415</ele>
        <time>2018-04-26T07:17:45.000Z</time>
      </trkpt>
      <trkpt lat="43.75115" lon="7.2546">
        <ele>415</ele>
        <time>2018-04-26T07:17:50.000Z</time>
      </trkpt>
      <trkpt lat="43.75123" lon="7.25447">
        <ele>416</ele>
        <time>2018-04-26T07:17:55.000Z</time>
      </trkpt>
      <trkpt lat="43.75127" lon="7.25438">
        <ele>416</ele>
        <time>2018-04-26T07:17:58.000Z</time>
      </trkpt>
      <trkpt lat="43.7513" lon="7.25432">
        <ele>416</ele>
        <time>2018-04-26T07:18:00.000Z</time>
      </trkpt>
      <trkpt lat="43.75137" lon="7.25418">
        <ele>417</ele>
        <time>2018-04-26T07:18:05.000Z</time>
      </trkpt>
      <trkpt lat="43.75139" lon="7.25416">
        <ele>418</ele>
        <time>2018-04-26T07:18:06.000Z</time>
      </trkpt>
      <trkpt lat="43.75148" lon="7.25401">
        <ele>418</ele>
        <time>2018-04-26T07:18:11.000Z</time>
      </trkpt>
      <trkpt lat="43.75158" lon="7.25388">
        <ele>418</ele>
        <time>2018-04-26T07:18:16.000Z</time>
      </trkpt>
      <trkpt lat="43.7516" lon="7.25385">
        <ele>418</ele>
        <time>2018-04-26T07:18:17.000Z</time>
      </trkpt>
      <trkpt lat="43.75166" lon="7.25378">
        <ele>419</ele>
        <time>2018-04-26T07:18:20.000Z</time>
      </trkpt>
      <trkpt lat="43.75169" lon="7.25376">
        <ele>423</ele>
        <time>2018-04-26T07:18:22.000Z</time>
      </trkpt>
      <trkpt lat="43.75171" lon="7.25374">
        <ele>423</ele>
        <time>2018-04-26T07:18:23.000Z</time>
      </trkpt>
      <trkpt lat="43.75178" lon="7.25366">
        <ele>423</ele>
        <time>2018-04-26T07:18:27.000Z</time>
      </trkpt>
      <trkpt lat="43.75183" lon="7.25363">
        <ele>424</ele>
        <time>2018-04-26T07:18:29.000Z</time>
      </trkpt>
      <trkpt lat="43.75186" lon="7.2536">
        <ele>424</ele>
        <time>2018-04-26T07:18:31.000Z</time>
      </trkpt>
      <trkpt lat="43.75191" lon="7.25358">
        <ele>424</ele>
        <time>2018-04-26T07:18:34.000Z</time>
      </trkpt>
      <trkpt lat="43.75195" lon="7.25356">
        <ele>424</ele>
        <time>2018-04-26T07:18:36.000Z</time>
      </trkpt>
      <trkpt lat="43.75204" lon="7.25351">
        <ele>424</ele>
        <time>2018-04-26T07:18:41.000Z</time>
      </trkpt>
      <trkpt lat="43.75215" lon="7.25347">
        <ele>425</ele>
        <time>2018-04-26T07:18:48.000Z</time>
      </trkpt>
      <trkpt lat="43.75221" lon="7.2534">
        <ele>425</ele>
        <time>2018-04-26T07:18:54.000Z</time>
      </trkpt>
      <trkpt lat="43.75221" lon="7.25338">
        <ele>425</ele>
        <time>2018-04-26T07:18:55.000Z</time>
      </trkpt>
      <trkpt lat="43.75223" lon="7.25328">
        <ele>425</ele>
        <time>2018-04-26T07:18:58.000Z</time>
      </trkpt>
      <trkpt lat="43.75224" lon="7.25321">
        <ele>425</ele>
        <time>2018-04-26T07:19:00.000Z</time>
      </trkpt>
      <trkpt lat="43.75225" lon="7.25313">
        <ele>425</ele>
        <time>2018-04-26T07:19:02.000Z</time>
      </trkpt>
      <trkpt lat="43.75231" lon="7.25307">
        <ele>425</ele>
        <time>2018-04-26T07:19:05.000Z</time>
      </trkpt>
      <trkpt lat="43.75233" lon="7.25306">
        <ele>425</ele>
        <time>2018-04-26T07:19:06.000Z</time>
      </trkpt>
      <trkpt lat="43.75242" lon="7.25299">
        <ele>425</ele>
        <time>2018-04-26T07:19:10.000Z</time>
      </trkpt>
      <trkpt lat="43.75244" lon="7.25298">
        <ele>425</ele>
        <time>2018-04-26T07:19:11.000Z</time>
      </trkpt>
      <trkpt lat="43.75247" lon="7.25298">
        <ele>426</ele>
        <time>2018-04-26T07:19:12.000Z</time>
      </trkpt>
      <trkpt lat="43.75259" lon="7.25299">
        <ele>427</ele>
        <time>2018-04-26T07:19:16.000Z</time>
      </trkpt>
      <trkpt lat="43.75264" lon="7.25302">
        <ele>427</ele>
        <time>2018-04-26T07:19:18.000Z</time>
      </trkpt>
      <trkpt lat="43.75269" lon="7.25303">
        <ele>427</ele>
        <time>2018-04-26T07:19:20.000Z</time>
      </trkpt>
      <trkpt lat="43.75274" lon="7.25304">
        <ele>427</ele>
        <time>2018-04-26T07:19:22.000Z</time>
      </trkpt>
      <trkpt lat="43.75278" lon="7.25305">
        <ele>427</ele>
        <time>2018-04-26T07:19:24.000Z</time>
      </trkpt>
      <trkpt lat="43.75282" lon="7.25305">
        <ele>427</ele>
        <time>2018-04-26T07:19:26.000Z</time>
      </trkpt>
      <trkpt lat="43.75289" lon="7.25305">
        <ele>427</ele>
        <time>2018-04-26T07:19:29.000Z</time>
      </trkpt>
      <trkpt lat="43.75298" lon="7.25311">
        <ele>427</ele>
        <time>2018-04-26T07:19:33.000Z</time>
      </trkpt>
      <trkpt lat="43.753" lon="7.2531">
        <ele>428</ele>
        <time>2018-04-26T07:19:34.000Z</time>
      </trkpt>
      <trkpt lat="43.75305" lon="7.25309">
        <ele>428</ele>
        <time>2018-04-26T07:19:37.000Z</time>
      </trkpt>
      <trkpt lat="43.7531" lon="7.25307">
        <ele>428</ele>
        <time>2018-04-26T07:19:39.000Z</time>
      </trkpt>
      <trkpt lat="43.75317" lon="7.25304">
        <ele>428</ele>
        <time>2018-04-26T07:19:42.000Z</time>
      </trkpt>
      <trkpt lat="43.7533" lon="7.25299">
        <ele>428</ele>
        <time>2018-04-26T07:19:47.000Z</time>
      </trkpt>
      <trkpt lat="43.7534" lon="7.25301">
        <ele>429</ele>
        <time>2018-04-26T07:19:51.000Z</time>
      </trkpt>
      <trkpt lat="43.75342" lon="7.253">
        <ele>429</ele>
        <time>2018-04-26T07:19:52.000Z</time>
      </trkpt>
      <trkpt lat="43.75352" lon="7.25295">
        <ele>429</ele>
        <time>2018-04-26T07:19:56.000Z</time>
      </trkpt>
      <trkpt lat="43.75365" lon="7.25283">
        <ele>430</ele>
        <time>2018-04-26T07:20:02.000Z</time>
      </trkpt>
      <trkpt lat="43.75372" lon="7.25267">
        <ele>429</ele>
        <time>2018-04-26T07:20:06.000Z</time>
      </trkpt>
      <trkpt lat="43.75387" lon="7.2525">
        <ele>429</ele>
        <time>2018-04-26T07:20:11.000Z</time>
      </trkpt>
      <trkpt lat="43.75406" lon="7.25232">
        <ele>429</ele>
        <time>2018-04-26T07:20:18.000Z</time>
      </trkpt>
      <trkpt lat="43.75426" lon="7.25226">
        <ele>429</ele>
        <time>2018-04-26T07:20:24.000Z</time>
      </trkpt>
      <trkpt lat="43.75447" lon="7.25227">
        <ele>429</ele>
        <time>2018-04-26T07:20:31.000Z</time>
      </trkpt>
      <trkpt lat="43.7547" lon="7.25229">
        <ele>429</ele>
        <time>2018-04-26T07:20:38.000Z</time>
      </trkpt>
      <trkpt lat="43.75486" lon="7.25232">
        <ele>430</ele>
        <time>2018-04-26T07:20:43.000Z</time>
      </trkpt>
      <trkpt lat="43.75486" lon="7.25242">
        <ele>430</ele>
        <time>2018-04-26T07:20:46.000Z</time>
      </trkpt>
      <trkpt lat="43.75486" lon="7.25245">
        <ele>431</ele>
        <time>2018-04-26T07:20:47.000Z</time>
      </trkpt>
      <trkpt lat="43.75486" lon="7.25257">
        <ele>433</ele>
        <time>2018-04-26T07:20:52.000Z</time>
      </trkpt>
      <trkpt lat="43.75485" lon="7.25261">
        <ele>433</ele>
        <time>2018-04-26T07:20:54.000Z</time>
      </trkpt>
      <trkpt lat="43.75486" lon="7.25263">
        <ele>433</ele>
        <time>2018-04-26T07:20:55.000Z</time>
      </trkpt>
      <trkpt lat="43.75486" lon="7.25264">
        <ele>434</ele>
        <time>2018-04-26T07:20:56.000Z</time>
      </trkpt>
      <trkpt lat="43.75483" lon="7.2527">
        <ele>434</ele>
        <time>2018-04-26T07:20:59.000Z</time>
      </trkpt>
      <trkpt lat="43.75481" lon="7.25273">
        <ele>434</ele>
        <time>2018-04-26T07:21:01.000Z</time>
      </trkpt>
      <trkpt lat="43.7548" lon="7.25274">
        <ele>434</ele>
        <time>2018-04-26T07:21:02.000Z</time>
      </trkpt>
      <trkpt lat="43.75478" lon="7.25277">
        <ele>434</ele>
        <time>2018-04-26T07:21:04.000Z</time>
      </trkpt>
      <trkpt lat="43.75473" lon="7.25283">
        <ele>435</ele>
        <time>2018-04-26T07:21:09.000Z</time>
      </trkpt>
      <trkpt lat="43.75472" lon="7.25285">
        <ele>435</ele>
        <time>2018-04-26T07:21:10.000Z</time>
      </trkpt>
      <trkpt lat="43.75463" lon="7.25298">
        <ele>435</ele>
        <time>2018-04-26T07:21:18.000Z</time>
      </trkpt>
      <trkpt lat="43.75462" lon="7.25299">
        <ele>435</ele>
        <time>2018-04-26T07:21:19.000Z</time>
      </trkpt>
      <trkpt lat="43.75454" lon="7.25312">
        <ele>435</ele>
        <time>2018-04-26T07:21:26.000Z</time>
      </trkpt>
      <trkpt lat="43.75452" lon="7.25314">
        <ele>435</ele>
        <time>2018-04-26T07:21:27.000Z</time>
      </trkpt>
      <trkpt lat="43.75444" lon="7.25326">
        <ele>435</ele>
        <time>2018-04-26T07:21:34.000Z</time>
      </trkpt>
      <trkpt lat="43.75439" lon="7.25333">
        <ele>435</ele>
        <time>2018-04-26T07:21:38.000Z</time>
      </trkpt>
      <trkpt lat="43.75435" lon="7.25337">
        <ele>440</ele>
        <time>2018-04-26T07:21:41.000Z</time>
      </trkpt>
      <trkpt lat="43.75434" lon="7.25339">
        <ele>440</ele>
        <time>2018-04-26T07:21:42.000Z</time>
      </trkpt>
      <trkpt lat="43.75426" lon="7.2535">
        <ele>441</ele>
        <time>2018-04-26T07:21:48.000Z</time>
      </trkpt>
      <trkpt lat="43.75418" lon="7.25361">
        <ele>442</ele>
        <time>2018-04-26T07:21:54.000Z</time>
      </trkpt>
      <trkpt lat="43.75416" lon="7.25364">
        <ele>437</ele>
        <time>2018-04-26T07:21:56.000Z</time>
      </trkpt>
      <trkpt lat="43.75409" lon="7.25376">
        <ele>438</ele>
        <time>2018-04-26T07:22:02.000Z</time>
      </trkpt>
      <trkpt lat="43.75405" lon="7.25382">
        <ele>438</ele>
        <time>2018-04-26T07:22:05.000Z</time>
      </trkpt>
      <trkpt lat="43.75397" lon="7.25398">
        <ele>440</ele>
        <time>2018-04-26T07:22:12.000Z</time>
      </trkpt>
      <trkpt lat="43.75393" lon="7.25406">
        <ele>440</ele>
        <time>2018-04-26T07:22:15.000Z</time>
      </trkpt>
      <trkpt lat="43.75386" lon="7.25421">
        <ele>446</ele>
        <time>2018-04-26T07:22:22.000Z</time>
      </trkpt>
      <trkpt lat="43.75384" lon="7.25423">
        <ele>446</ele>
        <time>2018-04-26T07:22:23.000Z</time>
      </trkpt>
      <trkpt lat="43.75376" lon="7.25438">
        <ele>446</ele>
        <time>2018-04-26T07:22:30.000Z</time>
      </trkpt>
      <trkpt lat="43.75365" lon="7.25459">
        <ele>447</ele>
        <time>2018-04-26T07:22:39.000Z</time>
      </trkpt>
      <trkpt lat="43.75358" lon="7.25477">
        <ele>448</ele>
        <time>2018-04-26T07:22:46.000Z</time>
      </trkpt>
      <trkpt lat="43.75354" lon="7.25489">
        <ele>448</ele>
        <time>2018-04-26T07:22:52.000Z</time>
      </trkpt>
      <trkpt lat="43.75353" lon="7.2549">
        <ele>448</ele>
        <time>2018-04-26T07:22:53.000Z</time>
      </trkpt>
      <trkpt lat="43.7535" lon="7.255">
        <ele>453</ele>
        <time>2018-04-26T07:22:59.000Z</time>
      </trkpt>
      <trkpt lat="43.75348" lon="7.25503">
        <ele>453</ele>
        <time>2018-04-26T07:23:02.000Z</time>
      </trkpt>
      <trkpt lat="43.75346" lon="7.25506">
        <ele>453</ele>
        <time>2018-04-26T07:23:04.000Z</time>
      </trkpt>
      <trkpt lat="43.75346" lon="7.25507">
        <ele>453</ele>
        <time>2018-04-26T07:23:05.000Z</time>
      </trkpt>
      <trkpt lat="43.75346" lon="7.25507">
        <ele>453</ele>
        <time>2018-04-26T07:23:09.000Z</time>
      </trkpt>
      <trkpt lat="43.75345" lon="7.2551">
        <ele>453</ele>
        <time>2018-04-26T07:23:17.000Z</time>
      </trkpt>
      <trkpt lat="43.75343" lon="7.25515">
        <ele>454</ele>
        <time>2018-04-26T07:23:24.000Z</time>
      </trkpt>
      <trkpt lat="43.75343" lon="7.25516">
        <ele>454</ele>
        <time>2018-04-26T07:23:25.000Z</time>
      </trkpt>
      <trkpt lat="43.75341" lon="7.2552">
        <ele>455</ele>
        <time>2018-04-26T07:23:30.000Z</time>
      </trkpt>
      <trkpt lat="43.7534" lon="7.25523">
        <ele>455</ele>
        <time>2018-04-26T07:23:34.000Z</time>
      </trkpt>
      <trkpt lat="43.75339" lon="7.25525">
        <ele>455</ele>
        <time>2018-04-26T07:23:36.000Z</time>
      </trkpt>
      <trkpt lat="43.75337" lon="7.25531">
        <ele>456</ele>
        <time>2018-04-26T07:23:43.000Z</time>
      </trkpt>
      <trkpt lat="43.75337" lon="7.25532">
        <ele>457</ele>
        <time>2018-04-26T07:23:44.000Z</time>
      </trkpt>
      <trkpt lat="43.75335" lon="7.25539">
        <ele>457</ele>
        <time>2018-04-26T07:23:51.000Z</time>
      </trkpt>
      <trkpt lat="43.75336" lon="7.25538">
        <ele>457</ele>
        <time>2018-04-26T07:23:52.000Z</time>
      </trkpt>
      <trkpt lat="43.75334" lon="7.25545">
        <ele>458</ele>
        <time>2018-04-26T07:23:58.000Z</time>
      </trkpt>
      <trkpt lat="43.75334" lon="7.25548">
        <ele>458</ele>
        <time>2018-04-26T07:24:01.000Z</time>
      </trkpt>
      <trkpt lat="43.75332" lon="7.25553">
        <ele>453</ele>
        <time>2018-04-26T07:24:06.000Z</time>
      </trkpt>
      <trkpt lat="43.75332" lon="7.25556">
        <ele>454</ele>
        <time>2018-04-26T07:24:09.000Z</time>
      </trkpt>
      <trkpt lat="43.75331" lon="7.25558">
        <ele>454</ele>
        <time>2018-04-26T07:24:11.000Z</time>
      </trkpt>
      <trkpt lat="43.7533" lon="7.25564">
        <ele>455</ele>
        <time>2018-04-26T07:24:17.000Z</time>
      </trkpt>
      <trkpt lat="43.7533" lon="7.25565">
        <ele>456</ele>
        <time>2018-04-26T07:24:18.000Z</time>
      </trkpt>
      <trkpt lat="43.75328" lon="7.25569">
        <ele>457</ele>
        <time>2018-04-26T07:24:23.000Z</time>
      </trkpt>
      <trkpt lat="43.75328" lon="7.25571">
        <ele>457</ele>
        <time>2018-04-26T07:24:25.000Z</time>
      </trkpt>
      <trkpt lat="43.75327" lon="7.25577">
        <ele>458</ele>
        <time>2018-04-26T07:24:31.000Z</time>
      </trkpt>
      <trkpt lat="43.75326" lon="7.25579">
        <ele>458</ele>
        <time>2018-04-26T07:24:33.000Z</time>
      </trkpt>
      <trkpt lat="43.75325" lon="7.25583">
        <ele>459</ele>
        <time>2018-04-26T07:24:37.000Z</time>
      </trkpt>
      <trkpt lat="43.75325" lon="7.25587">
        <ele>462</ele>
        <time>2018-04-26T07:24:41.000Z</time>
      </trkpt>
      <trkpt lat="43.75324" lon="7.2559">
        <ele>462</ele>
        <time>2018-04-26T07:24:44.000Z</time>
      </trkpt>
      <trkpt lat="43.75322" lon="7.25597">
        <ele>462</ele>
        <time>2018-04-26T07:24:51.000Z</time>
      </trkpt>
      <trkpt lat="43.75322" lon="7.25598">
        <ele>462</ele>
        <time>2018-04-26T07:24:52.000Z</time>
      </trkpt>
      <trkpt lat="43.7532" lon="7.25605">
        <ele>463</ele>
        <time>2018-04-26T07:24:59.000Z</time>
      </trkpt>
      <trkpt lat="43.7532" lon="7.25606">
        <ele>463</ele>
        <time>2018-04-26T07:25:00.000Z</time>
      </trkpt>
      <trkpt lat="43.75319" lon="7.25612">
        <ele>463</ele>
        <time>2018-04-26T07:25:06.000Z</time>
      </trkpt>
      <trkpt lat="43.75319" lon="7.25611">
        <ele>463</ele>
        <time>2018-04-26T07:25:07.000Z</time>
      </trkpt>
      <trkpt lat="43.75317" lon="7.25616">
        <ele>464</ele>
        <time>2018-04-26T07:25:19.000Z</time>
      </trkpt>
      <trkpt lat="43.75316" lon="7.2562">
        <ele>464</ele>
        <time>2018-04-26T07:25:22.000Z</time>
      </trkpt>
      <trkpt lat="43.75316" lon="7.25624">
        <ele>464</ele>
        <time>2018-04-26T07:25:26.000Z</time>
      </trkpt>
      <trkpt lat="43.75315" lon="7.25628">
        <ele>465</ele>
        <time>2018-04-26T07:25:30.000Z</time>
      </trkpt>
      <trkpt lat="43.75314" lon="7.25633">
        <ele>465</ele>
        <time>2018-04-26T07:25:35.000Z</time>
      </trkpt>
      <trkpt lat="43.75313" lon="7.25634">
        <ele>465</ele>
        <time>2018-04-26T07:25:36.000Z</time>
      </trkpt>
      <trkpt lat="43.75311" lon="7.25642">
        <ele>466</ele>
        <time>2018-04-26T07:25:44.000Z</time>
      </trkpt>
      <trkpt lat="43.75311" lon="7.25643">
        <ele>466</ele>
        <time>2018-04-26T07:25:45.000Z</time>
      </trkpt>
      <trkpt lat="43.7531" lon="7.25648">
        <ele>466</ele>
        <time>2018-04-26T07:25:50.000Z</time>
      </trkpt>
      <trkpt lat="43.7531" lon="7.25651">
        <ele>467</ele>
        <time>2018-04-26T07:25:55.000Z</time>
      </trkpt>
      <trkpt lat="43.75309" lon="7.25652">
        <ele>467</ele>
        <time>2018-04-26T07:25:57.000Z</time>
      </trkpt>
      <trkpt lat="43.75309" lon="7.25652">
        <ele>467</ele>
        <time>2018-04-26T07:26:00.000Z</time>
      </trkpt>
      <trkpt lat="43.75309" lon="7.25654">
        <ele>467</ele>
        <time>2018-04-26T07:26:06.000Z</time>
      </trkpt>
      <trkpt lat="43.75308" lon="7.25663">
        <ele>467</ele>
        <time>2018-04-26T07:26:14.000Z</time>
      </trkpt>
      <trkpt lat="43.75307" lon="7.25665">
        <ele>467</ele>
        <time>2018-04-26T07:26:15.000Z</time>
      </trkpt>
      <trkpt lat="43.75306" lon="7.2567">
        <ele>475</ele>
        <time>2018-04-26T07:26:20.000Z</time>
      </trkpt>
      <trkpt lat="43.75305" lon="7.25673">
        <ele>475</ele>
        <time>2018-04-26T07:26:23.000Z</time>
      </trkpt>
      <trkpt lat="43.75304" lon="7.25676">
        <ele>475</ele>
        <time>2018-04-26T07:26:26.000Z</time>
      </trkpt>
      <trkpt lat="43.75302" lon="7.25681">
        <ele>475</ele>
        <time>2018-04-26T07:26:31.000Z</time>
      </trkpt>
      <trkpt lat="43.75302" lon="7.25683">
        <ele>475</ele>
        <time>2018-04-26T07:26:33.000Z</time>
      </trkpt>
      <trkpt lat="43.75301" lon="7.2569">
        <ele>476</ele>
        <time>2018-04-26T07:26:39.000Z</time>
      </trkpt>
      <trkpt lat="43.753" lon="7.25692">
        <ele>476</ele>
        <time>2018-04-26T07:26:41.000Z</time>
      </trkpt>
      <trkpt lat="43.75299" lon="7.25699">
        <ele>476</ele>
        <time>2018-04-26T07:26:48.000Z</time>
      </trkpt>
      <trkpt lat="43.75297" lon="7.25705">
        <ele>477</ele>
        <time>2018-04-26T07:26:54.000Z</time>
      </trkpt>
      <trkpt lat="43.75297" lon="7.25708">
        <ele>477</ele>
        <time>2018-04-26T07:26:57.000Z</time>
      </trkpt>
      <trkpt lat="43.75296" lon="7.25712">
        <ele>477</ele>
        <time>2018-04-26T07:27:01.000Z</time>
      </trkpt>
      <trkpt lat="43.75294" lon="7.25717">
        <ele>477</ele>
        <time>2018-04-26T07:27:07.000Z</time>
      </trkpt>
      <trkpt lat="43.75293" lon="7.25724">
        <ele>478</ele>
        <time>2018-04-26T07:27:13.000Z</time>
      </trkpt>
      <trkpt lat="43.75292" lon="7.25727">
        <ele>478</ele>
        <time>2018-04-26T07:27:16.000Z</time>
      </trkpt>
      <trkpt lat="43.75291" lon="7.25734">
        <ele>478</ele>
        <time>2018-04-26T07:27:22.000Z</time>
      </trkpt>
      <trkpt lat="43.75289" lon="7.25738">
        <ele>478</ele>
        <time>2018-04-26T07:27:26.000Z</time>
      </trkpt>
      <trkpt lat="43.75289" lon="7.25742">
        <ele>479</ele>
        <time>2018-04-26T07:27:30.000Z</time>
      </trkpt>
      <trkpt lat="43.75287" lon="7.25748">
        <ele>479</ele>
        <time>2018-04-26T07:27:35.000Z</time>
      </trkpt>
      <trkpt lat="43.75287" lon="7.2575">
        <ele>485</ele>
        <time>2018-04-26T07:27:39.000Z</time>
      </trkpt>
      <trkpt lat="43.75287" lon="7.25752">
        <ele>485</ele>
        <time>2018-04-26T07:27:40.000Z</time>
      </trkpt>
      <trkpt lat="43.75285" lon="7.25756">
        <ele>485</ele>
        <time>2018-04-26T07:27:43.000Z</time>
      </trkpt>
      <trkpt lat="43.75284" lon="7.25762">
        <ele>485</ele>
        <time>2018-04-26T07:27:45.000Z</time>
      </trkpt>
      <trkpt lat="43.75281" lon="7.25775">
        <ele>486</ele>
        <time>2018-04-26T07:27:49.000Z</time>
      </trkpt>
      <trkpt lat="43.75277" lon="7.25797">
        <ele>487</ele>
        <time>2018-04-26T07:27:57.000Z</time>
      </trkpt>
      <trkpt lat="43.75274" lon="7.25811">
        <ele>487</ele>
        <time>2018-04-26T07:28:03.000Z</time>
      </trkpt>
      <trkpt lat="43.75273" lon="7.25814">
        <ele>487</ele>
        <time>2018-04-26T07:28:04.000Z</time>
      </trkpt>
      <trkpt lat="43.75271" lon="7.2582">
        <ele>487</ele>
        <time>2018-04-26T07:28:07.000Z</time>
      </trkpt>
      <trkpt lat="43.75269" lon="7.25828">
        <ele>488</ele>
        <time>2018-04-26T07:28:11.000Z</time>
      </trkpt>
      <trkpt lat="43.75268" lon="7.25834">
        <ele>491</ele>
        <time>2018-04-26T07:28:15.000Z</time>
      </trkpt>
      <trkpt lat="43.75269" lon="7.25838">
        <ele>491</ele>
        <time>2018-04-26T07:28:18.000Z</time>
      </trkpt>
      <trkpt lat="43.75272" lon="7.25838">
        <ele>492</ele>
        <time>2018-04-26T07:28:21.000Z</time>
      </trkpt>
      <trkpt lat="43.75274" lon="7.25838">
        <ele>492</ele>
        <time>2018-04-26T07:28:23.000Z</time>
      </trkpt>
      <trkpt lat="43.75281" lon="7.25836">
        <ele>493</ele>
        <time>2018-04-26T07:28:28.000Z</time>
      </trkpt>
      <trkpt lat="43.75283" lon="7.25835">
        <ele>493</ele>
        <time>2018-04-26T07:28:29.000Z</time>
      </trkpt>
      <trkpt lat="43.75285" lon="7.25833">
        <ele>489</ele>
        <time>2018-04-26T07:28:31.000Z</time>
      </trkpt>
      <trkpt lat="43.75289" lon="7.2583">
        <ele>489</ele>
        <time>2018-04-26T07:28:34.000Z</time>
      </trkpt>
      <trkpt lat="43.75291" lon="7.25829">
        <ele>489</ele>
        <time>2018-04-26T07:28:35.000Z</time>
      </trkpt>
      <trkpt lat="43.75296" lon="7.25828">
        <ele>489</ele>
        <time>2018-04-26T07:28:38.000Z</time>
      </trkpt>
      <trkpt lat="43.75299" lon="7.25826">
        <ele>490</ele>
        <time>2018-04-26T07:28:41.000Z</time>
      </trkpt>
      <trkpt lat="43.75303" lon="7.25823">
        <ele>490</ele>
        <time>2018-04-26T07:28:44.000Z</time>
      </trkpt>
      <trkpt lat="43.75305" lon="7.25823">
        <ele>490</ele>
        <time>2018-04-26T07:28:45.000Z</time>
      </trkpt>
      <trkpt lat="43.75314" lon="7.25816">
        <ele>491</ele>
        <time>2018-04-26T07:28:50.000Z</time>
      </trkpt>
      <trkpt lat="43.75325" lon="7.25813">
        <ele>491</ele>
        <time>2018-04-26T07:28:55.000Z</time>
      </trkpt>
      <trkpt lat="43.75333" lon="7.25802">
        <ele>490</ele>
        <time>2018-04-26T07:29:01.000Z</time>
      </trkpt>
      <trkpt lat="43.75338" lon="7.25791">
        <ele>494</ele>
        <time>2018-04-26T07:29:06.000Z</time>
      </trkpt>
      <trkpt lat="43.75341" lon="7.2579">
        <ele>494</ele>
        <time>2018-04-26T07:29:07.000Z</time>
      </trkpt>
      <trkpt lat="43.75343" lon="7.2579">
        <ele>494</ele>
        <time>2018-04-26T07:29:08.000Z</time>
      </trkpt>
      <trkpt lat="43.75351" lon="7.25785">
        <ele>494</ele>
        <time>2018-04-26T07:29:13.000Z</time>
      </trkpt>
      <trkpt lat="43.75357" lon="7.25784">
        <ele>494</ele>
        <time>2018-04-26T07:29:16.000Z</time>
      </trkpt>
      <trkpt lat="43.75359" lon="7.25785">
        <ele>494</ele>
        <time>2018-04-26T07:29:17.000Z</time>
      </trkpt>
      <trkpt lat="43.75367" lon="7.25786">
        <ele>494</ele>
        <time>2018-04-26T07:29:23.000Z</time>
      </trkpt>
      <trkpt lat="43.7537" lon="7.25787">
        <ele>494</ele>
        <time>2018-04-26T07:29:25.000Z</time>
      </trkpt>
      <trkpt lat="43.75371" lon="7.2579">
        <ele>494</ele>
        <time>2018-04-26T07:29:27.000Z</time>
      </trkpt>
      <trkpt lat="43.75372" lon="7.25791">
        <ele>494</ele>
        <time>2018-04-26T07:29:28.000Z</time>
      </trkpt>
      <trkpt lat="43.75375" lon="7.25798">
        <ele>494</ele>
        <time>2018-04-26T07:29:32.000Z</time>
      </trkpt>
      <trkpt lat="43.75376" lon="7.25798">
        <ele>495</ele>
        <time>2018-04-26T07:29:33.000Z</time>
      </trkpt>
      <trkpt lat="43.75383" lon="7.258">
        <ele>495</ele>
        <time>2018-04-26T07:29:37.000Z</time>
      </trkpt>
      <trkpt lat="43.75391" lon="7.25801">
        <ele>495</ele>
        <time>2018-04-26T07:29:42.000Z</time>
      </trkpt>
      <trkpt lat="43.75407" lon="7.25808">
        <ele>496</ele>
        <time>2018-04-26T07:29:50.000Z</time>
      </trkpt>
      <trkpt lat="43.75421" lon="7.25803">
        <ele>497</ele>
        <time>2018-04-26T07:29:56.000Z</time>
      </trkpt>
      <trkpt lat="43.75423" lon="7.25801">
        <ele>497</ele>
        <time>2018-04-26T07:29:57.000Z</time>
      </trkpt>
      <trkpt lat="43.75429" lon="7.25801">
        <ele>497</ele>
        <time>2018-04-26T07:29:59.000Z</time>
      </trkpt>
      <trkpt lat="43.75434" lon="7.25802">
        <ele>498</ele>
        <time>2018-04-26T07:30:01.000Z</time>
      </trkpt>
      <trkpt lat="43.7544" lon="7.25802">
        <ele>498</ele>
        <time>2018-04-26T07:30:03.000Z</time>
      </trkpt>
      <trkpt lat="43.75448" lon="7.25799">
        <ele>498</ele>
        <time>2018-04-26T07:30:06.000Z</time>
      </trkpt>
      <trkpt lat="43.75458" lon="7.25792">
        <ele>498</ele>
        <time>2018-04-26T07:30:11.000Z</time>
      </trkpt>
      <trkpt lat="43.75469" lon="7.25785">
        <ele>498</ele>
        <time>2018-04-26T07:30:16.000Z</time>
      </trkpt>
      <trkpt lat="43.7548" lon="7.25783">
        <ele>498</ele>
        <time>2018-04-26T07:30:21.000Z</time>
      </trkpt>
      <trkpt lat="43.75482" lon="7.25781">
        <ele>498</ele>
        <time>2018-04-26T07:30:22.000Z</time>
      </trkpt>
      <trkpt lat="43.75485" lon="7.25774">
        <ele>499</ele>
        <time>2018-04-26T07:30:25.000Z</time>
      </trkpt>
      <trkpt lat="43.75488" lon="7.25764">
        <ele>499</ele>
        <time>2018-04-26T07:30:28.000Z</time>
      </trkpt>
      <trkpt lat="43.7549" lon="7.25748">
        <ele>499</ele>
        <time>2018-04-26T07:30:32.000Z</time>
      </trkpt>
      <trkpt lat="43.75495" lon="7.25735">
        <ele>498</ele>
        <time>2018-04-26T07:30:37.000Z</time>
      </trkpt>
      <trkpt lat="43.75496" lon="7.25733">
        <ele>498</ele>
        <time>2018-04-26T07:30:38.000Z</time>
      </trkpt>
      <trkpt lat="43.75499" lon="7.25729">
        <ele>498</ele>
        <time>2018-04-26T07:30:41.000Z</time>
      </trkpt>
      <trkpt lat="43.755" lon="7.25726">
        <ele>506</ele>
        <time>2018-04-26T07:30:43.000Z</time>
      </trkpt>
      <trkpt lat="43.75502" lon="7.25722">
        <ele>506</ele>
        <time>2018-04-26T07:30:46.000Z</time>
      </trkpt>
      <trkpt lat="43.75505" lon="7.25719">
        <ele>506</ele>
        <time>2018-04-26T07:30:49.000Z</time>
      </trkpt>
      <trkpt lat="43.75507" lon="7.25719">
        <ele>507</ele>
        <time>2018-04-26T07:30:50.000Z</time>
      </trkpt>
      <trkpt lat="43.75508" lon="7.25719">
        <ele>507</ele>
        <time>2018-04-26T07:30:52.000Z</time>
      </trkpt>
      <trkpt lat="43.75508" lon="7.2572">
        <ele>507</ele>
        <time>2018-04-26T07:30:55.000Z</time>
      </trkpt>
      <trkpt lat="43.75511" lon="7.25716">
        <ele>507</ele>
        <time>2018-04-26T07:31:02.000Z</time>
      </trkpt>
      <trkpt lat="43.75515" lon="7.25714">
        <ele>507</ele>
        <time>2018-04-26T07:31:10.000Z</time>
      </trkpt>
      <trkpt lat="43.75516" lon="7.25714">
        <ele>507</ele>
        <time>2018-04-26T07:31:11.000Z</time>
      </trkpt>
      <trkpt lat="43.75519" lon="7.25713">
        <ele>508</ele>
        <time>2018-04-26T07:31:16.000Z</time>
      </trkpt>
      <trkpt lat="43.75523" lon="7.25711">
        <ele>508</ele>
        <time>2018-04-26T07:31:24.000Z</time>
      </trkpt>
      <trkpt lat="43.75523" lon="7.2571">
        <ele>508</ele>
        <time>2018-04-26T07:31:25.000Z</time>
      </trkpt>
      <trkpt lat="43.75523" lon="7.25704">
        <ele>508</ele>
        <time>2018-04-26T07:31:31.000Z</time>
      </trkpt>
      <trkpt lat="43.75525" lon="7.257">
        <ele>508</ele>
        <time>2018-04-26T07:31:34.000Z</time>
      </trkpt>
      <trkpt lat="43.75525" lon="7.257">
        <ele>508</ele>
        <time>2018-04-26T07:31:37.000Z</time>
      </trkpt>
      <trkpt lat="43.75526" lon="7.25697">
        <ele>508</ele>
        <time>2018-04-26T07:31:43.000Z</time>
      </trkpt>
      <trkpt lat="43.75528" lon="7.25689">
        <ele>508</ele>
        <time>2018-04-26T07:31:48.000Z</time>
      </trkpt>
      <trkpt lat="43.75528" lon="7.25679">
        <ele>508</ele>
        <time>2018-04-26T07:31:53.000Z</time>
      </trkpt>
      <trkpt lat="43.75528" lon="7.25675">
        <ele>508</ele>
        <time>2018-04-26T07:31:55.000Z</time>
      </trkpt>
      <trkpt lat="43.75529" lon="7.25665">
        <ele>508</ele>
        <time>2018-04-26T07:32:00.000Z</time>
      </trkpt>
      <trkpt lat="43.7553" lon="7.25657">
        <ele>509</ele>
        <time>2018-04-26T07:32:04.000Z</time>
      </trkpt>
      <trkpt lat="43.7553" lon="7.2565">
        <ele>509</ele>
        <time>2018-04-26T07:32:07.000Z</time>
      </trkpt>
      <trkpt lat="43.75531" lon="7.25642">
        <ele>509</ele>
        <time>2018-04-26T07:32:11.000Z</time>
      </trkpt>
      <trkpt lat="43.75532" lon="7.25635">
        <ele>509</ele>
        <time>2018-04-26T07:32:15.000Z</time>
      </trkpt>
      <trkpt lat="43.75536" lon="7.25626">
        <ele>509</ele>
        <time>2018-04-26T07:32:20.000Z</time>
      </trkpt>
      <trkpt lat="43.7554" lon="7.2562">
        <ele>510</ele>
        <time>2018-04-26T07:32:24.000Z</time>
      </trkpt>
      <trkpt lat="43.75541" lon="7.25617">
        <ele>510</ele>
        <time>2018-04-26T07:32:26.000Z</time>
      </trkpt>
      <trkpt lat="43.75548" lon="7.25605">
        <ele>511</ele>
        <time>2018-04-26T07:32:33.000Z</time>
      </trkpt>
      <trkpt lat="43.75548" lon="7.25604">
        <ele>511</ele>
        <time>2018-04-26T07:32:34.000Z</time>
      </trkpt>
      <trkpt lat="43.75553" lon="7.25598">
        <ele>511</ele>
        <time>2018-04-26T07:32:39.000Z</time>
      </trkpt>
      <trkpt lat="43.75555" lon="7.25596">
        <ele>512</ele>
        <time>2018-04-26T07:32:41.000Z</time>
      </trkpt>
      <trkpt lat="43.75559" lon="7.25591">
        <ele>513</ele>
        <time>2018-04-26T07:32:45.000Z</time>
      </trkpt>
      <trkpt lat="43.75564" lon="7.25587">
        <ele>514</ele>
        <time>2018-04-26T07:32:49.000Z</time>
      </trkpt>
      <trkpt lat="43.75565" lon="7.25587">
        <ele>514</ele>
        <time>2018-04-26T07:32:50.000Z</time>
      </trkpt>
      <trkpt lat="43.75566" lon="7.25588">
        <ele>515</ele>
        <time>2018-04-26T07:32:51.000Z</time>
      </trkpt>
      <trkpt lat="43.75567" lon="7.25588">
        <ele>515</ele>
        <time>2018-04-26T07:32:56.000Z</time>
      </trkpt>
      <trkpt lat="43.75567" lon="7.25588">
        <ele>515</ele>
        <time>2018-04-26T07:32:58.000Z</time>
      </trkpt>
      <trkpt lat="43.75569" lon="7.25587">
        <ele>515</ele>
        <time>2018-04-26T07:33:01.000Z</time>
      </trkpt>
      <trkpt lat="43.75569" lon="7.25586">
        <ele>515</ele>
        <time>2018-04-26T07:33:02.000Z</time>
      </trkpt>
      <trkpt lat="43.75574" lon="7.25583">
        <ele>513</ele>
        <time>2018-04-26T07:33:06.000Z</time>
      </trkpt>
      <trkpt lat="43.7558" lon="7.25578">
        <ele>515</ele>
        <time>2018-04-26T07:33:12.000Z</time>
      </trkpt>
      <trkpt lat="43.75581" lon="7.25577">
        <ele>515</ele>
        <time>2018-04-26T07:33:13.000Z</time>
      </trkpt>
      <trkpt lat="43.7559" lon="7.25576">
        <ele>520</ele>
        <time>2018-04-26T07:33:19.000Z</time>
      </trkpt>
      <trkpt lat="43.75591" lon="7.25575">
        <ele>520</ele>
        <time>2018-04-26T07:33:21.000Z</time>
      </trkpt>
      <trkpt lat="43.75596" lon="7.25573">
        <ele>521</ele>
        <time>2018-04-26T07:33:25.000Z</time>
      </trkpt>
      <trkpt lat="43.75601" lon="7.25571">
        <ele>521</ele>
        <time>2018-04-26T07:33:29.000Z</time>
      </trkpt>
      <trkpt lat="43.75604" lon="7.25571">
        <ele>521</ele>
        <time>2018-04-26T07:33:31.000Z</time>
      </trkpt>
      <trkpt lat="43.75605" lon="7.25571">
        <ele>521</ele>
        <time>2018-04-26T07:33:32.000Z</time>
      </trkpt>
      <trkpt lat="43.75606" lon="7.2557">
        <ele>521</ele>
        <time>2018-04-26T07:33:33.000Z</time>
      </trkpt>
      <trkpt lat="43.75609" lon="7.25569">
        <ele>522</ele>
        <time>2018-04-26T07:33:36.000Z</time>
      </trkpt>
      <trkpt lat="43.7561" lon="7.25569">
        <ele>522</ele>
        <time>2018-04-26T07:33:37.000Z</time>
      </trkpt>
      <trkpt lat="43.75614" lon="7.25565">
        <ele>522</ele>
        <time>2018-04-26T07:33:41.000Z</time>
      </trkpt>
      <trkpt lat="43.75619" lon="7.25562">
        <ele>522</ele>
        <time>2018-04-26T07:33:46.000Z</time>
      </trkpt>
      <trkpt lat="43.75621" lon="7.25562">
        <ele>523</ele>
        <time>2018-04-26T07:33:47.000Z</time>
      </trkpt>
      <trkpt lat="43.7563" lon="7.25556">
        <ele>523</ele>
        <time>2018-04-26T07:33:54.000Z</time>
      </trkpt>
      <trkpt lat="43.75631" lon="7.25555">
        <ele>523</ele>
        <time>2018-04-26T07:33:55.000Z</time>
      </trkpt>
      <trkpt lat="43.75632" lon="7.25554">
        <ele>523</ele>
        <time>2018-04-26T07:33:56.000Z</time>
      </trkpt>
      <trkpt lat="43.75637" lon="7.25551">
        <ele>524</ele>
        <time>2018-04-26T07:34:00.000Z</time>
      </trkpt>
      <trkpt lat="43.75646" lon="7.25541">
        <ele>523</ele>
        <time>2018-04-26T07:34:07.000Z</time>
      </trkpt>
      <trkpt lat="43.75647" lon="7.25541">
        <ele>523</ele>
        <time>2018-04-26T07:34:08.000Z</time>
      </trkpt>
      <trkpt lat="43.75655" lon="7.25539">
        <ele>524</ele>
        <time>2018-04-26T07:34:13.000Z</time>
      </trkpt>
      <trkpt lat="43.75657" lon="7.25539">
        <ele>524</ele>
        <time>2018-04-26T07:34:15.000Z</time>
      </trkpt>
      <trkpt lat="43.7566" lon="7.25538">
        <ele>524</ele>
        <time>2018-04-26T07:34:19.000Z</time>
      </trkpt>
      <trkpt lat="43.75661" lon="7.25538">
        <ele>524</ele>
        <time>2018-04-26T07:34:20.000Z</time>
      </trkpt>
      <trkpt lat="43.75667" lon="7.25536">
        <ele>535</ele>
        <time>2018-04-26T07:34:24.000Z</time>
      </trkpt>
      <trkpt lat="43.75671" lon="7.25534">
        <ele>535</ele>
        <time>2018-04-26T07:34:27.000Z</time>
      </trkpt>
      <trkpt lat="43.75675" lon="7.25532">
        <ele>535</ele>
        <time>2018-04-26T07:34:31.000Z</time>
      </trkpt>
      <trkpt lat="43.75676" lon="7.25531">
        <ele>535</ele>
        <time>2018-04-26T07:34:32.000Z</time>
      </trkpt>
      <trkpt lat="43.75679" lon="7.25529">
        <ele>535</ele>
        <time>2018-04-26T07:34:34.000Z</time>
      </trkpt>
      <trkpt lat="43.75682" lon="7.25527">
        <ele>535</ele>
        <time>2018-04-26T07:34:36.000Z</time>
      </trkpt>
      <trkpt lat="43.75696" lon="7.25519">
        <ele>535</ele>
        <time>2018-04-26T07:34:45.000Z</time>
      </trkpt>
      <trkpt lat="43.75704" lon="7.25519">
        <ele>537</ele>
        <time>2018-04-26T07:34:50.000Z</time>
      </trkpt>
      <trkpt lat="43.75705" lon="7.25519">
        <ele>537</ele>
        <time>2018-04-26T07:34:51.000Z</time>
      </trkpt>
      <trkpt lat="43.75711" lon="7.25516">
        <ele>537</ele>
        <time>2018-04-26T07:34:55.000Z</time>
      </trkpt>
      <trkpt lat="43.75719" lon="7.25511">
        <ele>538</ele>
        <time>2018-04-26T07:35:01.000Z</time>
      </trkpt>
      <trkpt lat="43.75725" lon="7.25508">
        <ele>539</ele>
        <time>2018-04-26T07:35:05.000Z</time>
      </trkpt>
      <trkpt lat="43.75732" lon="7.25503">
        <ele>539</ele>
        <time>2018-04-26T07:35:10.000Z</time>
      </trkpt>
      <trkpt lat="43.75742" lon="7.25498">
        <ele>536</ele>
        <time>2018-04-26T07:35:16.000Z</time>
      </trkpt>
      <trkpt lat="43.75744" lon="7.25498">
        <ele>537</ele>
        <time>2018-04-26T07:35:17.000Z</time>
      </trkpt>
      <trkpt lat="43.75748" lon="7.25497">
        <ele>539</ele>
        <time>2018-04-26T07:35:21.000Z</time>
      </trkpt>
      <trkpt lat="43.7575" lon="7.25497">
        <ele>539</ele>
        <time>2018-04-26T07:35:22.000Z</time>
      </trkpt>
      <trkpt lat="43.75755" lon="7.25495">
        <ele>542</ele>
        <time>2018-04-26T07:35:28.000Z</time>
      </trkpt>
      <trkpt lat="43.75755" lon="7.25495">
        <ele>542</ele>
        <time>2018-04-26T07:35:30.000Z</time>
      </trkpt>
      <trkpt lat="43.75756" lon="7.25495">
        <ele>542</ele>
        <time>2018-04-26T07:35:33.000Z</time>
      </trkpt>
      <trkpt lat="43.7576" lon="7.2549">
        <ele>542</ele>
        <time>2018-04-26T07:35:38.000Z</time>
      </trkpt>
      <trkpt lat="43.75768" lon="7.25486">
        <ele>542</ele>
        <time>2018-04-26T07:35:44.000Z</time>
      </trkpt>
      <trkpt lat="43.75769" lon="7.25485">
        <ele>543</ele>
        <time>2018-04-26T07:35:45.000Z</time>
      </trkpt>
      <trkpt lat="43.75774" lon="7.25479">
        <ele>543</ele>
        <time>2018-04-26T07:35:50.000Z</time>
      </trkpt>
      <trkpt lat="43.75779" lon="7.25474">
        <ele>543</ele>
        <time>2018-04-26T07:35:54.000Z</time>
      </trkpt>
      <trkpt lat="43.75783" lon="7.25471">
        <ele>543</ele>
        <time>2018-04-26T07:35:57.000Z</time>
      </trkpt>
      <trkpt lat="43.7579" lon="7.25467">
        <ele>544</ele>
        <time>2018-04-26T07:36:02.000Z</time>
      </trkpt>
      <trkpt lat="43.75792" lon="7.25467">
        <ele>544</ele>
        <time>2018-04-26T07:36:03.000Z</time>
      </trkpt>
      <trkpt lat="43.75793" lon="7.25466">
        <ele>544</ele>
        <time>2018-04-26T07:36:04.000Z</time>
      </trkpt>
      <trkpt lat="43.75794" lon="7.25464">
        <ele>544</ele>
        <time>2018-04-26T07:36:06.000Z</time>
      </trkpt>
      <trkpt lat="43.75796" lon="7.25464">
        <ele>544</ele>
        <time>2018-04-26T07:36:07.000Z</time>
      </trkpt>
      <trkpt lat="43.75799" lon="7.2546">
        <ele>544</ele>
        <time>2018-04-26T07:36:10.000Z</time>
      </trkpt>
      <trkpt lat="43.75801" lon="7.25459">
        <ele>545</ele>
        <time>2018-04-26T07:36:12.000Z</time>
      </trkpt>
      <trkpt lat="43.75809" lon="7.25454">
        <ele>545</ele>
        <time>2018-04-26T07:36:18.000Z</time>
      </trkpt>
      <trkpt lat="43.75816" lon="7.2545">
        <ele>546</ele>
        <time>2018-04-26T07:36:23.000Z</time>
      </trkpt>
      <trkpt lat="43.75818" lon="7.2545">
        <ele>546</ele>
        <time>2018-04-26T07:36:24.000Z</time>
      </trkpt>
      <trkpt lat="43.75823" lon="7.25448">
        <ele>546</ele>
        <time>2018-04-26T07:36:28.000Z</time>
      </trkpt>
      <trkpt lat="43.75823" lon="7.25447">
        <ele>546</ele>
        <time>2018-04-26T07:36:29.000Z</time>
      </trkpt>
      <trkpt lat="43.75828" lon="7.25441">
        <ele>546</ele>
        <time>2018-04-26T07:36:35.000Z</time>
      </trkpt>
      <trkpt lat="43.75829" lon="7.25441">
        <ele>546</ele>
        <time>2018-04-26T07:36:36.000Z</time>
      </trkpt>
      <trkpt lat="43.75836" lon="7.25437">
        <ele>556</ele>
        <time>2018-04-26T07:36:42.000Z</time>
      </trkpt>
      <trkpt lat="43.75843" lon="7.25436">
        <ele>557</ele>
        <time>2018-04-26T07:36:47.000Z</time>
      </trkpt>
      <trkpt lat="43.75842" lon="7.25436">
        <ele>557</ele>
        <time>2018-04-26T07:36:48.000Z</time>
      </trkpt>
      <trkpt lat="43.75844" lon="7.25435">
        <ele>557</ele>
        <time>2018-04-26T07:36:51.000Z</time>
      </trkpt>
      <trkpt lat="43.75848" lon="7.25433">
        <ele>557</ele>
        <time>2018-04-26T07:36:57.000Z</time>
      </trkpt>
      <trkpt lat="43.7585" lon="7.25432">
        <ele>557</ele>
        <time>2018-04-26T07:36:59.000Z</time>
      </trkpt>
      <trkpt lat="43.75853" lon="7.25431">
        <ele>557</ele>
        <time>2018-04-26T07:37:03.000Z</time>
      </trkpt>
      <trkpt lat="43.75855" lon="7.2543">
        <ele>558</ele>
        <time>2018-04-26T07:37:06.000Z</time>
      </trkpt>
      <trkpt lat="43.75858" lon="7.25429">
        <ele>558</ele>
        <time>2018-04-26T07:37:10.000Z</time>
      </trkpt>
      <trkpt lat="43.75858" lon="7.2543">
        <ele>558</ele>
        <time>2018-04-26T07:37:12.000Z</time>
      </trkpt>
      <trkpt lat="43.75862" lon="7.25428">
        <ele>559</ele>
        <time>2018-04-26T07:37:18.000Z</time>
      </trkpt>
      <trkpt lat="43.75863" lon="7.25427">
        <ele>559</ele>
        <time>2018-04-26T07:37:19.000Z</time>
      </trkpt>
      <trkpt lat="43.75867" lon="7.25426">
        <ele>560</ele>
        <time>2018-04-26T07:37:24.000Z</time>
      </trkpt>
      <trkpt lat="43.75867" lon="7.25425">
        <ele>560</ele>
        <time>2018-04-26T07:37:30.000Z</time>
      </trkpt>
      <trkpt lat="43.75867" lon="7.25426">
        <ele>560</ele>
        <time>2018-04-26T07:37:48.000Z</time>
      </trkpt>
      <trkpt lat="43.75866" lon="7.25426">
        <ele>560</ele>
        <time>2018-04-26T07:37:53.000Z</time>
      </trkpt>
      <trkpt lat="43.75866" lon="7.25425">
        <ele>560</ele>
        <time>2018-04-26T07:37:59.000Z</time>
      </trkpt>
      <trkpt lat="43.75866" lon="7.25426">
        <ele>560</ele>
        <time>2018-04-26T07:38:10.000Z</time>
      </trkpt>
      <trkpt lat="43.75866" lon="7.25426">
        <ele>560</ele>
        <time>2018-04-26T07:38:15.000Z</time>
      </trkpt>
      <trkpt lat="43.75866" lon="7.25425">
        <ele>560</ele>
        <time>2018-04-26T07:38:25.000Z</time>
      </trkpt>
      <trkpt lat="43.75866" lon="7.25426">
        <ele>560</ele>
        <time>2018-04-26T07:38:33.000Z</time>
      </trkpt>
      <trkpt lat="43.75866" lon="7.25426">
        <ele>560</ele>
        <time>2018-04-26T07:38:41.000Z</time>
      </trkpt>
      <trkpt lat="43.75866" lon="7.25425">
        <ele>560</ele>
        <time>2018-04-26T07:38:49.000Z</time>
      </trkpt>
      <trkpt lat="43.75866" lon="7.25424">
        <ele>560</ele>
        <time>2018-04-26T07:38:57.000Z</time>
      </trkpt>
      <trkpt lat="43.75871" lon="7.25421">
        <ele>560</ele>
        <time>2018-04-26T07:39:06.000Z</time>
      </trkpt>
      <trkpt lat="43.7588" lon="7.25411">
        <ele>551</ele>
        <time>2018-04-26T07:39:13.000Z</time>
      </trkpt>
      <trkpt lat="43.75891" lon="7.25402">
        <ele>553</ele>
        <time>2018-04-26T07:39:20.000Z</time>
      </trkpt>
      <trkpt lat="43.759" lon="7.25393">
        <ele>553</ele>
        <time>2018-04-26T07:39:26.000Z</time>
      </trkpt>
      <trkpt lat="43.75903" lon="7.25392">
        <ele>553</ele>
        <time>2018-04-26T07:39:28.000Z</time>
      </trkpt>
      <trkpt lat="43.75909" lon="7.25387">
        <ele>552</ele>
        <time>2018-04-26T07:39:32.000Z</time>
      </trkpt>
      <trkpt lat="43.75911" lon="7.25384">
        <ele>552</ele>
        <time>2018-04-26T07:39:34.000Z</time>
      </trkpt>
      <trkpt lat="43.75916" lon="7.25381">
        <ele>551</ele>
        <time>2018-04-26T07:39:37.000Z</time>
      </trkpt>
      <trkpt lat="43.75922" lon="7.25375">
        <ele>562</ele>
        <time>2018-04-26T07:39:42.000Z</time>
      </trkpt>
      <trkpt lat="43.75925" lon="7.25372">
        <ele>562</ele>
        <time>2018-04-26T07:39:44.000Z</time>
      </trkpt>
      <trkpt lat="43.75932" lon="7.25367">
        <ele>562</ele>
        <time>2018-04-26T07:39:49.000Z</time>
      </trkpt>
      <trkpt lat="43.75939" lon="7.25363">
        <ele>562</ele>
        <time>2018-04-26T07:39:54.000Z</time>
      </trkpt>
      <trkpt lat="43.75942" lon="7.25361">
        <ele>562</ele>
        <time>2018-04-26T07:39:56.000Z</time>
      </trkpt>
      <trkpt lat="43.75951" lon="7.25354">
        <ele>562</ele>
        <time>2018-04-26T07:40:02.000Z</time>
      </trkpt>
      <trkpt lat="43.75953" lon="7.25354">
        <ele>562</ele>
        <time>2018-04-26T07:40:03.000Z</time>
      </trkpt>
      <trkpt lat="43.7596" lon="7.25351">
        <ele>563</ele>
        <time>2018-04-26T07:40:07.000Z</time>
      </trkpt>
      <trkpt lat="43.75966" lon="7.25346">
        <ele>564</ele>
        <time>2018-04-26T07:40:12.000Z</time>
      </trkpt>
      <trkpt lat="43.75968" lon="7.25345">
        <ele>564</ele>
        <time>2018-04-26T07:40:13.000Z</time>
      </trkpt>
      <trkpt lat="43.75977" lon="7.2534">
        <ele>565</ele>
        <time>2018-04-26T07:40:19.000Z</time>
      </trkpt>
      <trkpt lat="43.75984" lon="7.25337">
        <ele>565</ele>
        <time>2018-04-26T07:40:23.000Z</time>
      </trkpt>
      <trkpt lat="43.75986" lon="7.25336">
        <ele>565</ele>
        <time>2018-04-26T07:40:24.000Z</time>
      </trkpt>
      <trkpt lat="43.75993" lon="7.25329">
        <ele>560</ele>
        <time>2018-04-26T07:40:29.000Z</time>
      </trkpt>
      <trkpt lat="43.75995" lon="7.25327">
        <ele>560</ele>
        <time>2018-04-26T07:40:31.000Z</time>
      </trkpt>
      <trkpt lat="43.76003" lon="7.25324">
        <ele>566</ele>
        <time>2018-04-26T07:40:36.000Z</time>
      </trkpt>
      <trkpt lat="43.76005" lon="7.25322">
        <ele>566</ele>
        <time>2018-04-26T07:40:37.000Z</time>
      </trkpt>
      <trkpt lat="43.76007" lon="7.25321">
        <ele>566</ele>
        <time>2018-04-26T07:40:38.000Z</time>
      </trkpt>
      <trkpt lat="43.7601" lon="7.25319">
        <ele>566</ele>
        <time>2018-04-26T07:40:41.000Z</time>
      </trkpt>
      <trkpt lat="43.76011" lon="7.25318">
        <ele>566</ele>
        <time>2018-04-26T07:40:42.000Z</time>
      </trkpt>
      <trkpt lat="43.76017" lon="7.25315">
        <ele>566</ele>
        <time>2018-04-26T07:40:46.000Z</time>
      </trkpt>
      <trkpt lat="43.76018" lon="7.25314">
        <ele>566</ele>
        <time>2018-04-26T07:40:47.000Z</time>
      </trkpt>
      <trkpt lat="43.76029" lon="7.25309">
        <ele>566</ele>
        <time>2018-04-26T07:40:54.000Z</time>
      </trkpt>
      <trkpt lat="43.76034" lon="7.25309">
        <ele>567</ele>
        <time>2018-04-26T07:40:57.000Z</time>
      </trkpt>
      <trkpt lat="43.76034" lon="7.25309">
        <ele>567</ele>
        <time>2018-04-26T07:40:59.000Z</time>
      </trkpt>
      <trkpt lat="43.76036" lon="7.2531">
        <ele>567</ele>
        <time>2018-04-26T07:41:05.000Z</time>
      </trkpt>
      <trkpt lat="43.76036" lon="7.2531">
        <ele>567</ele>
        <time>2018-04-26T07:41:07.000Z</time>
      </trkpt>
      <trkpt lat="43.7604" lon="7.25308">
        <ele>567</ele>
        <time>2018-04-26T07:41:13.000Z</time>
      </trkpt>
      <trkpt lat="43.76041" lon="7.25308">
        <ele>568</ele>
        <time>2018-04-26T07:41:14.000Z</time>
      </trkpt>
      <trkpt lat="43.76045" lon="7.25305">
        <ele>568</ele>
        <time>2018-04-26T07:41:21.000Z</time>
      </trkpt>
      <trkpt lat="43.76046" lon="7.25303">
        <ele>568</ele>
        <time>2018-04-26T07:41:23.000Z</time>
      </trkpt>
      <trkpt lat="43.76049" lon="7.25302">
        <ele>568</ele>
        <time>2018-04-26T07:41:28.000Z</time>
      </trkpt>
      <trkpt lat="43.76049" lon="7.25301">
        <ele>568</ele>
        <time>2018-04-26T07:41:36.000Z</time>
      </trkpt>
      <trkpt lat="43.76053" lon="7.25298">
        <ele>568</ele>
        <time>2018-04-26T07:41:41.000Z</time>
      </trkpt>
      <trkpt lat="43.76055" lon="7.25297">
        <ele>568</ele>
        <time>2018-04-26T07:41:42.000Z</time>
      </trkpt>
      <trkpt lat="43.76064" lon="7.25293">
        <ele>569</ele>
        <time>2018-04-26T07:41:48.000Z</time>
      </trkpt>
      <trkpt lat="43.76068" lon="7.25291">
        <ele>569</ele>
        <time>2018-04-26T07:41:51.000Z</time>
      </trkpt>
      <trkpt lat="43.76076" lon="7.25288">
        <ele>569</ele>
        <time>2018-04-26T07:41:56.000Z</time>
      </trkpt>
      <trkpt lat="43.76079" lon="7.25286">
        <ele>569</ele>
        <time>2018-04-26T07:41:58.000Z</time>
      </trkpt>
      <trkpt lat="43.76087" lon="7.25282">
        <ele>582</ele>
        <time>2018-04-26T07:42:03.000Z</time>
      </trkpt>
      <trkpt lat="43.76089" lon="7.25282">
        <ele>582</ele>
        <time>2018-04-26T07:42:07.000Z</time>
      </trkpt>
      <trkpt lat="43.76089" lon="7.25282">
        <ele>582</ele>
        <time>2018-04-26T07:42:08.000Z</time>
      </trkpt>
      <trkpt lat="43.7609" lon="7.25282">
        <ele>582</ele>
        <time>2018-04-26T07:42:13.000Z</time>
      </trkpt>
      <trkpt lat="43.76092" lon="7.25282">
        <ele>583</ele>
        <time>2018-04-26T07:42:18.000Z</time>
      </trkpt>
      <trkpt lat="43.76096" lon="7.25281">
        <ele>583</ele>
        <time>2018-04-26T07:42:23.000Z</time>
      </trkpt>
      <trkpt lat="43.76098" lon="7.2528">
        <ele>583</ele>
        <time>2018-04-26T07:42:26.000Z</time>
      </trkpt>
      <trkpt lat="43.761" lon="7.25278">
        <ele>583</ele>
        <time>2018-04-26T07:42:30.000Z</time>
      </trkpt>
      <trkpt lat="43.76101" lon="7.25277">
        <ele>583</ele>
        <time>2018-04-26T07:42:34.000Z</time>
      </trkpt>
      <trkpt lat="43.76101" lon="7.25276">
        <ele>583</ele>
        <time>2018-04-26T07:42:41.000Z</time>
      </trkpt>
      <trkpt lat="43.76102" lon="7.25275">
        <ele>583</ele>
        <time>2018-04-26T07:42:42.000Z</time>
      </trkpt>
      <trkpt lat="43.76104" lon="7.25274">
        <ele>583</ele>
        <time>2018-04-26T07:42:44.000Z</time>
      </trkpt>
      <trkpt lat="43.76105" lon="7.25273">
        <ele>583</ele>
        <time>2018-04-26T07:42:46.000Z</time>
      </trkpt>
      <trkpt lat="43.7611" lon="7.25269">
        <ele>583</ele>
        <time>2018-04-26T07:42:49.000Z</time>
      </trkpt>
      <trkpt lat="43.76113" lon="7.25268">
        <ele>584</ele>
        <time>2018-04-26T07:42:51.000Z</time>
      </trkpt>
      <trkpt lat="43.76116" lon="7.25267">
        <ele>584</ele>
        <time>2018-04-26T07:42:53.000Z</time>
      </trkpt>
      <trkpt lat="43.76122" lon="7.25263">
        <ele>585</ele>
        <time>2018-04-26T07:42:57.000Z</time>
      </trkpt>
      <trkpt lat="43.76124" lon="7.25263">
        <ele>585</ele>
        <time>2018-04-26T07:42:58.000Z</time>
      </trkpt>
      <trkpt lat="43.76129" lon="7.25259">
        <ele>586</ele>
        <time>2018-04-26T07:43:02.000Z</time>
      </trkpt>
      <trkpt lat="43.7613" lon="7.25257">
        <ele>587</ele>
        <time>2018-04-26T07:43:03.000Z</time>
      </trkpt>
      <trkpt lat="43.76135" lon="7.25254">
        <ele>587</ele>
        <time>2018-04-26T07:43:07.000Z</time>
      </trkpt>
      <trkpt lat="43.76136" lon="7.25253">
        <ele>587</ele>
        <time>2018-04-26T07:43:08.000Z</time>
      </trkpt>
      <trkpt lat="43.76136" lon="7.25253">
        <ele>587</ele>
        <time>2018-04-26T07:43:13.000Z</time>
      </trkpt>
      <trkpt lat="43.76138" lon="7.25252">
        <ele>588</ele>
        <time>2018-04-26T07:43:20.000Z</time>
      </trkpt>
      <trkpt lat="43.76139" lon="7.25251">
        <ele>588</ele>
        <time>2018-04-26T07:43:21.000Z</time>
      </trkpt>
      <trkpt lat="43.76142" lon="7.2525">
        <ele>577</ele>
        <time>2018-04-26T07:43:27.000Z</time>
      </trkpt>
      <trkpt lat="43.76144" lon="7.2525">
        <ele>577</ele>
        <time>2018-04-26T07:43:29.000Z</time>
      </trkpt>
      <trkpt lat="43.76147" lon="7.25249">
        <ele>579</ele>
        <time>2018-04-26T07:43:35.000Z</time>
      </trkpt>
      <trkpt lat="43.76149" lon="7.25248">
        <ele>580</ele>
        <time>2018-04-26T07:43:38.000Z</time>
      </trkpt>
      <trkpt lat="43.76152" lon="7.25246">
        <ele>581</ele>
        <time>2018-04-26T07:43:43.000Z</time>
      </trkpt>
      <trkpt lat="43.76153" lon="7.25246">
        <ele>581</ele>
        <time>2018-04-26T07:43:44.000Z</time>
      </trkpt>
      <trkpt lat="43.76153" lon="7.25246">
        <ele>581</ele>
        <time>2018-04-26T07:43:49.000Z</time>
      </trkpt>
      <trkpt lat="43.76155" lon="7.25245">
        <ele>582</ele>
        <time>2018-04-26T07:43:55.000Z</time>
      </trkpt>
      <trkpt lat="43.76159" lon="7.25242">
        <ele>583</ele>
        <time>2018-04-26T07:44:00.000Z</time>
      </trkpt>
      <trkpt lat="43.76168" lon="7.25237">
        <ele>591</ele>
        <time>2018-04-26T07:44:06.000Z</time>
      </trkpt>
      <trkpt lat="43.76174" lon="7.25234">
        <ele>590</ele>
        <time>2018-04-26T07:44:10.000Z</time>
      </trkpt>
      <trkpt lat="43.76175" lon="7.25232">
        <ele>590</ele>
        <time>2018-04-26T07:44:11.000Z</time>
      </trkpt>
      <trkpt lat="43.76185" lon="7.25226">
        <ele>589</ele>
        <time>2018-04-26T07:44:18.000Z</time>
      </trkpt>
      <trkpt lat="43.76186" lon="7.25225">
        <ele>589</ele>
        <time>2018-04-26T07:44:19.000Z</time>
      </trkpt>
      <trkpt lat="43.76188" lon="7.25224">
        <ele>589</ele>
        <time>2018-04-26T07:44:25.000Z</time>
      </trkpt>
      <trkpt lat="43.76196" lon="7.25222">
        <ele>589</ele>
        <time>2018-04-26T07:44:30.000Z</time>
      </trkpt>
      <trkpt lat="43.762" lon="7.25221">
        <ele>590</ele>
        <time>2018-04-26T07:44:32.000Z</time>
      </trkpt>
      <trkpt lat="43.76202" lon="7.25222">
        <ele>590</ele>
        <time>2018-04-26T07:44:35.000Z</time>
      </trkpt>
      <trkpt lat="43.76203" lon="7.25221">
        <ele>590</ele>
        <time>2018-04-26T07:44:36.000Z</time>
      </trkpt>
      <trkpt lat="43.76212" lon="7.25215">
        <ele>590</ele>
        <time>2018-04-26T07:44:42.000Z</time>
      </trkpt>
      <trkpt lat="43.76223" lon="7.25213">
        <ele>591</ele>
        <time>2018-04-26T07:44:48.000Z</time>
      </trkpt>
      <trkpt lat="43.76224" lon="7.25213">
        <ele>591</ele>
        <time>2018-04-26T07:44:49.000Z</time>
      </trkpt>
      <trkpt lat="43.76233" lon="7.25213">
        <ele>592</ele>
        <time>2018-04-26T07:44:55.000Z</time>
      </trkpt>
      <trkpt lat="43.76235" lon="7.25213">
        <ele>592</ele>
        <time>2018-04-26T07:44:57.000Z</time>
      </trkpt>
      <trkpt lat="43.76239" lon="7.25212">
        <ele>593</ele>
        <time>2018-04-26T07:44:59.000Z</time>
      </trkpt>
      <trkpt lat="43.7624" lon="7.25212">
        <ele>593</ele>
        <time>2018-04-26T07:45:00.000Z</time>
      </trkpt>
      <trkpt lat="43.76246" lon="7.25211">
        <ele>593</ele>
        <time>2018-04-26T07:45:04.000Z</time>
      </trkpt>
      <trkpt lat="43.76248" lon="7.2521">
        <ele>593</ele>
        <time>2018-04-26T07:45:05.000Z</time>
      </trkpt>
      <trkpt lat="43.7625" lon="7.2521">
        <ele>593</ele>
        <time>2018-04-26T07:45:06.000Z</time>
      </trkpt>
      <trkpt lat="43.76257" lon="7.25209">
        <ele>602</ele>
        <time>2018-04-26T07:45:11.000Z</time>
      </trkpt>
      <trkpt lat="43.76265" lon="7.25208">
        <ele>603</ele>
        <time>2018-04-26T07:45:16.000Z</time>
      </trkpt>
      <trkpt lat="43.76272" lon="7.25207">
        <ele>603</ele>
        <time>2018-04-26T07:45:21.000Z</time>
      </trkpt>
      <trkpt lat="43.76275" lon="7.25207">
        <ele>603</ele>
        <time>2018-04-26T07:45:23.000Z</time>
      </trkpt>
      <trkpt lat="43.76279" lon="7.25207">
        <ele>603</ele>
        <time>2018-04-26T07:45:27.000Z</time>
      </trkpt>
      <trkpt lat="43.7628" lon="7.25206">
        <ele>603</ele>
        <time>2018-04-26T07:45:28.000Z</time>
      </trkpt>
      <trkpt lat="43.76283" lon="7.25207">
        <ele>604</ele>
        <time>2018-04-26T07:45:30.000Z</time>
      </trkpt>
      <trkpt lat="43.76284" lon="7.25207">
        <ele>604</ele>
        <time>2018-04-26T07:45:31.000Z</time>
      </trkpt>
      <trkpt lat="43.76286" lon="7.25206">
        <ele>604</ele>
        <time>2018-04-26T07:45:33.000Z</time>
      </trkpt>
      <trkpt lat="43.76291" lon="7.25205">
        <ele>604</ele>
        <time>2018-04-26T07:45:37.000Z</time>
      </trkpt>
      <trkpt lat="43.76293" lon="7.25204">
        <ele>604</ele>
        <time>2018-04-26T07:45:39.000Z</time>
      </trkpt>
      <trkpt lat="43.76301" lon="7.25203">
        <ele>605</ele>
        <time>2018-04-26T07:45:46.000Z</time>
      </trkpt>
      <trkpt lat="43.76305" lon="7.25202">
        <ele>605</ele>
        <time>2018-04-26T07:45:48.000Z</time>
      </trkpt>
      <trkpt lat="43.76309" lon="7.25202">
        <ele>605</ele>
        <time>2018-04-26T07:45:51.000Z</time>
      </trkpt>
      <trkpt lat="43.76313" lon="7.252">
        <ele>605</ele>
        <time>2018-04-26T07:45:54.000Z</time>
      </trkpt>
      <trkpt lat="43.76316" lon="7.252">
        <ele>605</ele>
        <time>2018-04-26T07:45:56.000Z</time>
      </trkpt>
      <trkpt lat="43.76322" lon="7.25201">
        <ele>606</ele>
        <time>2018-04-26T07:46:00.000Z</time>
      </trkpt>
      <trkpt lat="43.76325" lon="7.25202">
        <ele>606</ele>
        <time>2018-04-26T07:46:02.000Z</time>
      </trkpt>
      <trkpt lat="43.76325" lon="7.25201">
        <ele>606</ele>
        <time>2018-04-26T07:46:04.000Z</time>
      </trkpt>
      <trkpt lat="43.76325" lon="7.25201">
        <ele>606</ele>
        <time>2018-04-26T07:46:06.000Z</time>
      </trkpt>
      <trkpt lat="43.76328" lon="7.25202">
        <ele>606</ele>
        <time>2018-04-26T07:46:12.000Z</time>
      </trkpt>
      <trkpt lat="43.7633" lon="7.25203">
        <ele>606</ele>
        <time>2018-04-26T07:46:15.000Z</time>
      </trkpt>
      <trkpt lat="43.76333" lon="7.25203">
        <ele>615</ele>
        <time>2018-04-26T07:46:19.000Z</time>
      </trkpt>
      <trkpt lat="43.76334" lon="7.25203">
        <ele>615</ele>
        <time>2018-04-26T07:46:20.000Z</time>
      </trkpt>
      <trkpt lat="43.76335" lon="7.25203">
        <ele>615</ele>
        <time>2018-04-26T07:46:23.000Z</time>
      </trkpt>
      <trkpt lat="43.76337" lon="7.25204">
        <ele>616</ele>
        <time>2018-04-26T07:46:26.000Z</time>
      </trkpt>
      <trkpt lat="43.7634" lon="7.25204">
        <ele>616</ele>
        <time>2018-04-26T07:46:33.000Z</time>
      </trkpt>
      <trkpt lat="43.76341" lon="7.25203">
        <ele>616</ele>
        <time>2018-04-26T07:46:36.000Z</time>
      </trkpt>
      <trkpt lat="43.76341" lon="7.25203">
        <ele>616</ele>
        <time>2018-04-26T07:46:38.000Z</time>
      </trkpt>
      <trkpt lat="43.76347" lon="7.252">
        <ele>616</ele>
        <time>2018-04-26T07:46:46.000Z</time>
      </trkpt>
      <trkpt lat="43.76352" lon="7.25196">
        <ele>616</ele>
        <time>2018-04-26T07:46:51.000Z</time>
      </trkpt>
      <trkpt lat="43.76354" lon="7.25194">
        <ele>616</ele>
        <time>2018-04-26T07:46:53.000Z</time>
      </trkpt>
      <trkpt lat="43.76359" lon="7.25184">
        <ele>615</ele>
        <time>2018-04-26T07:46:58.000Z</time>
      </trkpt>
      <trkpt lat="43.76366" lon="7.25174">
        <ele>616</ele>
        <time>2018-04-26T07:47:03.000Z</time>
      </trkpt>
      <trkpt lat="43.7637" lon="7.25171">
        <ele>617</ele>
        <time>2018-04-26T07:47:06.000Z</time>
      </trkpt>
      <trkpt lat="43.76372" lon="7.2517">
        <ele>617</ele>
        <time>2018-04-26T07:47:07.000Z</time>
      </trkpt>
      <trkpt lat="43.76376" lon="7.25164">
        <ele>609</ele>
        <time>2018-04-26T07:47:10.000Z</time>
      </trkpt>
      <trkpt lat="43.76378" lon="7.25162">
        <ele>609</ele>
        <time>2018-04-26T07:47:11.000Z</time>
      </trkpt>
      <trkpt lat="43.76383" lon="7.25157">
        <ele>610</ele>
        <time>2018-04-26T07:47:15.000Z</time>
      </trkpt>
      <trkpt lat="43.76387" lon="7.25153">
        <ele>610</ele>
        <time>2018-04-26T07:47:18.000Z</time>
      </trkpt>
      <trkpt lat="43.76393" lon="7.25147">
        <ele>611</ele>
        <time>2018-04-26T07:47:22.000Z</time>
      </trkpt>
      <trkpt lat="43.76393" lon="7.25147">
        <ele>611</ele>
        <time>2018-04-26T07:47:23.000Z</time>
      </trkpt>
      <trkpt lat="43.76401" lon="7.2514">
        <ele>611</ele>
        <time>2018-04-26T07:47:28.000Z</time>
      </trkpt>
      <trkpt lat="43.76403" lon="7.25139">
        <ele>611</ele>
        <time>2018-04-26T07:47:30.000Z</time>
      </trkpt>
      <trkpt lat="43.76405" lon="7.25138">
        <ele>611</ele>
        <time>2018-04-26T07:47:34.000Z</time>
      </trkpt>
      <trkpt lat="43.76406" lon="7.25137">
        <ele>611</ele>
        <time>2018-04-26T07:47:35.000Z</time>
      </trkpt>
      <trkpt lat="43.76411" lon="7.25134">
        <ele>610</ele>
        <time>2018-04-26T07:47:43.000Z</time>
      </trkpt>
      <trkpt lat="43.76413" lon="7.25134">
        <ele>610</ele>
        <time>2018-04-26T07:47:45.000Z</time>
      </trkpt>
      <trkpt lat="43.76413" lon="7.25133">
        <ele>610</ele>
        <time>2018-04-26T07:47:46.000Z</time>
      </trkpt>
      <trkpt lat="43.76415" lon="7.25132">
        <ele>610</ele>
        <time>2018-04-26T07:47:48.000Z</time>
      </trkpt>
      <trkpt lat="43.76418" lon="7.25131">
        <ele>621</ele>
        <time>2018-04-26T07:47:52.000Z</time>
      </trkpt>
      <trkpt lat="43.76421" lon="7.2513">
        <ele>621</ele>
        <time>2018-04-26T07:47:56.000Z</time>
      </trkpt>
      <trkpt lat="43.76425" lon="7.25129">
        <ele>621</ele>
        <time>2018-04-26T07:48:01.000Z</time>
      </trkpt>
      <trkpt lat="43.76426" lon="7.25129">
        <ele>621</ele>
        <time>2018-04-26T07:48:02.000Z</time>
      </trkpt>
      <trkpt lat="43.76431" lon="7.25127">
        <ele>620</ele>
        <time>2018-04-26T07:48:09.000Z</time>
      </trkpt>
      <trkpt lat="43.76432" lon="7.25126">
        <ele>621</ele>
        <time>2018-04-26T07:48:11.000Z</time>
      </trkpt>
      <trkpt lat="43.76435" lon="7.25125">
        <ele>620</ele>
        <time>2018-04-26T07:48:16.000Z</time>
      </trkpt>
      <trkpt lat="43.76437" lon="7.25124">
        <ele>620</ele>
        <time>2018-04-26T07:48:21.000Z</time>
      </trkpt>
      <trkpt lat="43.76439" lon="7.25123">
        <ele>620</ele>
        <time>2018-04-26T07:48:27.000Z</time>
      </trkpt>
      <trkpt lat="43.76448" lon="7.25119">
        <ele>621</ele>
        <time>2018-04-26T07:48:32.000Z</time>
      </trkpt>
      <trkpt lat="43.76455" lon="7.25117">
        <ele>621</ele>
        <time>2018-04-26T07:48:37.000Z</time>
      </trkpt>
      <trkpt lat="43.76457" lon="7.25117">
        <ele>621</ele>
        <time>2018-04-26T07:48:38.000Z</time>
      </trkpt>
      <trkpt lat="43.76467" lon="7.25116">
        <ele>622</ele>
        <time>2018-04-26T07:48:43.000Z</time>
      </trkpt>
      <trkpt lat="43.76468" lon="7.25116">
        <ele>622</ele>
        <time>2018-04-26T07:48:44.000Z</time>
      </trkpt>
      <trkpt lat="43.7647" lon="7.25116">
        <ele>622</ele>
        <time>2018-04-26T07:48:46.000Z</time>
      </trkpt>
      <trkpt lat="43.76476" lon="7.25113">
        <ele>622</ele>
        <time>2018-04-26T07:48:51.000Z</time>
      </trkpt>
      <trkpt lat="43.76478" lon="7.25113">
        <ele>622</ele>
        <time>2018-04-26T07:48:52.000Z</time>
      </trkpt>
      <trkpt lat="43.76483" lon="7.25114">
        <ele>623</ele>
        <time>2018-04-26T07:48:55.000Z</time>
      </trkpt>
      <trkpt lat="43.76487" lon="7.25114">
        <ele>623</ele>
        <time>2018-04-26T07:48:57.000Z</time>
      </trkpt>
      <trkpt lat="43.76497" lon="7.25117">
        <ele>623</ele>
        <time>2018-04-26T07:49:03.000Z</time>
      </trkpt>
      <trkpt lat="43.76498" lon="7.25118">
        <ele>623</ele>
        <time>2018-04-26T07:49:04.000Z</time>
      </trkpt>
      <trkpt lat="43.76503" lon="7.2512">
        <ele>629</ele>
        <time>2018-04-26T07:49:08.000Z</time>
      </trkpt>
      <trkpt lat="43.76505" lon="7.25121">
        <ele>629</ele>
        <time>2018-04-26T07:49:10.000Z</time>
      </trkpt>
      <trkpt lat="43.76512" lon="7.25122">
        <ele>630</ele>
        <time>2018-04-26T07:49:15.000Z</time>
      </trkpt>
      <trkpt lat="43.76514" lon="7.25124">
        <ele>630</ele>
        <time>2018-04-26T07:49:17.000Z</time>
      </trkpt>
      <trkpt lat="43.76519" lon="7.25127">
        <ele>630</ele>
        <time>2018-04-26T07:49:22.000Z</time>
      </trkpt>
      <trkpt lat="43.7652" lon="7.25128">
        <ele>630</ele>
        <time>2018-04-26T07:49:23.000Z</time>
      </trkpt>
      <trkpt lat="43.76527" lon="7.2513">
        <ele>631</ele>
        <time>2018-04-26T07:49:29.000Z</time>
      </trkpt>
      <trkpt lat="43.76528" lon="7.25132">
        <ele>631</ele>
        <time>2018-04-26T07:49:30.000Z</time>
      </trkpt>
      <trkpt lat="43.76529" lon="7.25132">
        <ele>631</ele>
        <time>2018-04-26T07:49:31.000Z</time>
      </trkpt>
      <trkpt lat="43.76532" lon="7.25132">
        <ele>631</ele>
        <time>2018-04-26T07:49:34.000Z</time>
      </trkpt>
      <trkpt lat="43.7654" lon="7.25131">
        <ele>631</ele>
        <time>2018-04-26T07:49:39.000Z</time>
      </trkpt>
      <trkpt lat="43.76541" lon="7.2513">
        <ele>631</ele>
        <time>2018-04-26T07:49:40.000Z</time>
      </trkpt>
      <trkpt lat="43.76546" lon="7.25128">
        <ele>631</ele>
        <time>2018-04-26T07:49:43.000Z</time>
      </trkpt>
      <trkpt lat="43.76549" lon="7.25126">
        <ele>631</ele>
        <time>2018-04-26T07:49:45.000Z</time>
      </trkpt>
      <trkpt lat="43.76553" lon="7.25124">
        <ele>631</ele>
        <time>2018-04-26T07:49:49.000Z</time>
      </trkpt>
      <trkpt lat="43.76555" lon="7.25122">
        <ele>631</ele>
        <time>2018-04-26T07:49:51.000Z</time>
      </trkpt>
      <trkpt lat="43.76559" lon="7.25119">
        <ele>631</ele>
        <time>2018-04-26T07:49:55.000Z</time>
      </trkpt>
      <trkpt lat="43.76562" lon="7.25117">
        <ele>632</ele>
        <time>2018-04-26T07:49:57.000Z</time>
      </trkpt>
      <trkpt lat="43.76568" lon="7.25114">
        <ele>632</ele>
        <time>2018-04-26T07:50:03.000Z</time>
      </trkpt>
      <trkpt lat="43.76571" lon="7.25113">
        <ele>632</ele>
        <time>2018-04-26T07:50:05.000Z</time>
      </trkpt>
      <trkpt lat="43.76578" lon="7.2511">
        <ele>633</ele>
        <time>2018-04-26T07:50:11.000Z</time>
      </trkpt>
      <trkpt lat="43.76581" lon="7.25109">
        <ele>633</ele>
        <time>2018-04-26T07:50:13.000Z</time>
      </trkpt>
      <trkpt lat="43.76589" lon="7.25106">
        <ele>637</ele>
        <time>2018-04-26T07:50:19.000Z</time>
      </trkpt>
      <trkpt lat="43.76592" lon="7.25105">
        <ele>637</ele>
        <time>2018-04-26T07:50:21.000Z</time>
      </trkpt>
      <trkpt lat="43.76599" lon="7.25103">
        <ele>637</ele>
        <time>2018-04-26T07:50:26.000Z</time>
      </trkpt>
      <trkpt lat="43.76603" lon="7.25102">
        <ele>637</ele>
        <time>2018-04-26T07:50:29.000Z</time>
      </trkpt>
      <trkpt lat="43.76609" lon="7.25101">
        <ele>637</ele>
        <time>2018-04-26T07:50:32.000Z</time>
      </trkpt>
      <trkpt lat="43.76625" lon="7.25098">
        <ele>638</ele>
        <time>2018-04-26T07:50:40.000Z</time>
      </trkpt>
      <trkpt lat="43.76629" lon="7.25097">
        <ele>639</ele>
        <time>2018-04-26T07:50:44.000Z</time>
      </trkpt>
      <trkpt lat="43.7663" lon="7.25097">
        <ele>639</ele>
        <time>2018-04-26T07:50:45.000Z</time>
      </trkpt>
      <trkpt lat="43.7663" lon="7.25097">
        <ele>639</ele>
        <time>2018-04-26T07:50:51.000Z</time>
      </trkpt>
      <trkpt lat="43.76632" lon="7.25096">
        <ele>639</ele>
        <time>2018-04-26T07:50:58.000Z</time>
      </trkpt>
      <trkpt lat="43.76636" lon="7.25096">
        <ele>639</ele>
        <time>2018-04-26T07:51:02.000Z</time>
      </trkpt>
      <trkpt lat="43.76638" lon="7.25096">
        <ele>640</ele>
        <time>2018-04-26T07:51:03.000Z</time>
      </trkpt>
      <trkpt lat="43.76641" lon="7.25096">
        <ele>640</ele>
        <time>2018-04-26T07:51:05.000Z</time>
      </trkpt>
      <trkpt lat="43.76647" lon="7.25096">
        <ele>641</ele>
        <time>2018-04-26T07:51:09.000Z</time>
      </trkpt>
      <trkpt lat="43.76659" lon="7.25093">
        <ele>642</ele>
        <time>2018-04-26T07:51:17.000Z</time>
      </trkpt>
      <trkpt lat="43.76667" lon="7.25091">
        <ele>645</ele>
        <time>2018-04-26T07:51:22.000Z</time>
      </trkpt>
      <trkpt lat="43.76668" lon="7.2509">
        <ele>645</ele>
        <time>2018-04-26T07:51:23.000Z</time>
      </trkpt>
      <trkpt lat="43.7667" lon="7.25087">
        <ele>646</ele>
        <time>2018-04-26T07:51:25.000Z</time>
      </trkpt>
      <trkpt lat="43.76672" lon="7.25083">
        <ele>647</ele>
        <time>2018-04-26T07:51:27.000Z</time>
      </trkpt>
      <trkpt lat="43.76672" lon="7.25082">
        <ele>647</ele>
        <time>2018-04-26T07:51:28.000Z</time>
      </trkpt>
      <trkpt lat="43.76674" lon="7.25078">
        <ele>647</ele>
        <time>2018-04-26T07:51:31.000Z</time>
      </trkpt>
      <trkpt lat="43.76675" lon="7.25075">
        <ele>648</ele>
        <time>2018-04-26T07:51:33.000Z</time>
      </trkpt>
      <trkpt lat="43.76678" lon="7.25068">
        <ele>648</ele>
        <time>2018-04-26T07:51:37.000Z</time>
      </trkpt>
      <trkpt lat="43.76678" lon="7.25067">
        <ele>648</ele>
        <time>2018-04-26T07:51:38.000Z</time>
      </trkpt>
      <trkpt lat="43.76681" lon="7.25061">
        <ele>649</ele>
        <time>2018-04-26T07:51:42.000Z</time>
      </trkpt>
      <trkpt lat="43.76682" lon="7.25059">
        <ele>649</ele>
        <time>2018-04-26T07:51:44.000Z</time>
      </trkpt>
      <trkpt lat="43.76686" lon="7.25051">
        <ele>649</ele>
        <time>2018-04-26T07:51:50.000Z</time>
      </trkpt>
      <trkpt lat="43.76687" lon="7.2505">
        <ele>649</ele>
        <time>2018-04-26T07:51:51.000Z</time>
      </trkpt>
      <trkpt lat="43.76696" lon="7.25052">
        <ele>650</ele>
        <time>2018-04-26T07:51:56.000Z</time>
      </trkpt>
      <trkpt lat="43.76697" lon="7.25052">
        <ele>650</ele>
        <time>2018-04-26T07:51:57.000Z</time>
      </trkpt>
      <trkpt lat="43.767" lon="7.25055">
        <ele>650</ele>
        <time>2018-04-26T07:52:00.000Z</time>
      </trkpt>
      <trkpt lat="43.76701" lon="7.25056">
        <ele>650</ele>
        <time>2018-04-26T07:52:01.000Z</time>
      </trkpt>
      <trkpt lat="43.76702" lon="7.25057">
        <ele>650</ele>
        <time>2018-04-26T07:52:02.000Z</time>
      </trkpt>
      <trkpt lat="43.7671" lon="7.25057">
        <ele>651</ele>
        <time>2018-04-26T07:52:08.000Z</time>
      </trkpt>
      <trkpt lat="43.76717" lon="7.25057">
        <ele>651</ele>
        <time>2018-04-26T07:52:12.000Z</time>
      </trkpt>
      <trkpt lat="43.76719" lon="7.25058">
        <ele>652</ele>
        <time>2018-04-26T07:52:13.000Z</time>
      </trkpt>
      <trkpt lat="43.76722" lon="7.25059">
        <ele>652</ele>
        <time>2018-04-26T07:52:16.000Z</time>
      </trkpt>
      <trkpt lat="43.76727" lon="7.25059">
        <ele>652</ele>
        <time>2018-04-26T07:52:19.000Z</time>
      </trkpt>
      <trkpt lat="43.76732" lon="7.25062">
        <ele>652</ele>
        <time>2018-04-26T07:52:23.000Z</time>
      </trkpt>
      <trkpt lat="43.76732" lon="7.25061">
        <ele>652</ele>
        <time>2018-04-26T07:52:24.000Z</time>
      </trkpt>
      <trkpt lat="43.76733" lon="7.2506">
        <ele>652</ele>
        <time>2018-04-26T07:52:25.000Z</time>
      </trkpt>
      <trkpt lat="43.76737" lon="7.25058">
        <ele>653</ele>
        <time>2018-04-26T07:52:28.000Z</time>
      </trkpt>
      <trkpt lat="43.76737" lon="7.25057">
        <ele>653</ele>
        <time>2018-04-26T07:52:29.000Z</time>
      </trkpt>
      <trkpt lat="43.76742" lon="7.25054">
        <ele>653</ele>
        <time>2018-04-26T07:52:33.000Z</time>
      </trkpt>
      <trkpt lat="43.76743" lon="7.25055">
        <ele>653</ele>
        <time>2018-04-26T07:52:34.000Z</time>
      </trkpt>
      <trkpt lat="43.76746" lon="7.25052">
        <ele>653</ele>
        <time>2018-04-26T07:52:37.000Z</time>
      </trkpt>
      <trkpt lat="43.76748" lon="7.25052">
        <ele>653</ele>
        <time>2018-04-26T07:52:38.000Z</time>
      </trkpt>
      <trkpt lat="43.76749" lon="7.25052">
        <ele>653</ele>
        <time>2018-04-26T07:52:40.000Z</time>
      </trkpt>
      <trkpt lat="43.76749" lon="7.25051">
        <ele>653</ele>
        <time>2018-04-26T07:52:41.000Z</time>
      </trkpt>
      <trkpt lat="43.76751" lon="7.25051">
        <ele>659</ele>
        <time>2018-04-26T07:52:42.000Z</time>
      </trkpt>
      <trkpt lat="43.76756" lon="7.25049">
        <ele>659</ele>
        <time>2018-04-26T07:52:47.000Z</time>
      </trkpt>
      <trkpt lat="43.76763" lon="7.25045">
        <ele>660</ele>
        <time>2018-04-26T07:52:54.000Z</time>
      </trkpt>
      <trkpt lat="43.76765" lon="7.25044">
        <ele>660</ele>
        <time>2018-04-26T07:52:56.000Z</time>
      </trkpt>
      <trkpt lat="43.76774" lon="7.25041">
        <ele>661</ele>
        <time>2018-04-26T07:53:03.000Z</time>
      </trkpt>
      <trkpt lat="43.76775" lon="7.25041">
        <ele>661</ele>
        <time>2018-04-26T07:53:04.000Z</time>
      </trkpt>
      <trkpt lat="43.7678" lon="7.25039">
        <ele>661</ele>
        <time>2018-04-26T07:53:08.000Z</time>
      </trkpt>
      <trkpt lat="43.76781" lon="7.25038">
        <ele>661</ele>
        <time>2018-04-26T07:53:09.000Z</time>
      </trkpt>
      <trkpt lat="43.76787" lon="7.25035">
        <ele>661</ele>
        <time>2018-04-26T07:53:14.000Z</time>
      </trkpt>
      <trkpt lat="43.7679" lon="7.25034">
        <ele>661</ele>
        <time>2018-04-26T07:53:16.000Z</time>
      </trkpt>
      <trkpt lat="43.76798" lon="7.25036">
        <ele>662</ele>
        <time>2018-04-26T07:53:21.000Z</time>
      </trkpt>
      <trkpt lat="43.76801" lon="7.25037">
        <ele>662</ele>
        <time>2018-04-26T07:53:23.000Z</time>
      </trkpt>
      <trkpt lat="43.76805" lon="7.2504">
        <ele>662</ele>
        <time>2018-04-26T07:53:27.000Z</time>
      </trkpt>
      <trkpt lat="43.76814" lon="7.25045">
        <ele>662</ele>
        <time>2018-04-26T07:53:34.000Z</time>
      </trkpt>
      <trkpt lat="43.76821" lon="7.2505">
        <ele>662</ele>
        <time>2018-04-26T07:53:40.000Z</time>
      </trkpt>
      <trkpt lat="43.76826" lon="7.25052">
        <ele>662</ele>
        <time>2018-04-26T07:53:44.000Z</time>
      </trkpt>
      <trkpt lat="43.76828" lon="7.25053">
        <ele>662</ele>
        <time>2018-04-26T07:53:46.000Z</time>
      </trkpt>
      <trkpt lat="43.76837" lon="7.25054">
        <ele>668</ele>
        <time>2018-04-26T07:53:52.000Z</time>
      </trkpt>
      <trkpt lat="43.76841" lon="7.25054">
        <ele>668</ele>
        <time>2018-04-26T07:53:54.000Z</time>
      </trkpt>
      <trkpt lat="43.7685" lon="7.25053">
        <ele>669</ele>
        <time>2018-04-26T07:54:00.000Z</time>
      </trkpt>
      <trkpt lat="43.76851" lon="7.25053">
        <ele>669</ele>
        <time>2018-04-26T07:54:01.000Z</time>
      </trkpt>
      <trkpt lat="43.76859" lon="7.25051">
        <ele>670</ele>
        <time>2018-04-26T07:54:06.000Z</time>
      </trkpt>
      <trkpt lat="43.76863" lon="7.2505">
        <ele>670</ele>
        <time>2018-04-26T07:54:09.000Z</time>
      </trkpt>
      <trkpt lat="43.76871" lon="7.25047">
        <ele>671</ele>
        <time>2018-04-26T07:54:14.000Z</time>
      </trkpt>
      <trkpt lat="43.76874" lon="7.25047">
        <ele>671</ele>
        <time>2018-04-26T07:54:16.000Z</time>
      </trkpt>
      <trkpt lat="43.7688" lon="7.25044">
        <ele>671</ele>
        <time>2018-04-26T07:54:20.000Z</time>
      </trkpt>
      <trkpt lat="43.76887" lon="7.25044">
        <ele>672</ele>
        <time>2018-04-26T07:54:24.000Z</time>
      </trkpt>
      <trkpt lat="43.7689" lon="7.25045">
        <ele>672</ele>
        <time>2018-04-26T07:54:26.000Z</time>
      </trkpt>
      <trkpt lat="43.76895" lon="7.25051">
        <ele>673</ele>
        <time>2018-04-26T07:54:30.000Z</time>
      </trkpt>
      <trkpt lat="43.76896" lon="7.25066">
        <ele>674</ele>
        <time>2018-04-26T07:54:36.000Z</time>
      </trkpt>
      <trkpt lat="43.76896" lon="7.25076">
        <ele>675</ele>
        <time>2018-04-26T07:54:40.000Z</time>
      </trkpt>
      <trkpt lat="43.76896" lon="7.25084">
        <ele>677</ele>
        <time>2018-04-26T07:54:43.000Z</time>
      </trkpt>
      <trkpt lat="43.76896" lon="7.251">
        <ele>677</ele>
        <time>2018-04-26T07:54:50.000Z</time>
      </trkpt>
      <trkpt lat="43.76896" lon="7.25102">
        <ele>677</ele>
        <time>2018-04-26T07:54:51.000Z</time>
      </trkpt>
      <trkpt lat="43.76896" lon="7.25113">
        <ele>677</ele>
        <time>2018-04-26T07:54:56.000Z</time>
      </trkpt>
      <trkpt lat="43.76895" lon="7.25122">
        <ele>678</ele>
        <time>2018-04-26T07:55:00.000Z</time>
      </trkpt>
      <trkpt lat="43.76895" lon="7.25126">
        <ele>678</ele>
        <time>2018-04-26T07:55:02.000Z</time>
      </trkpt>
      <trkpt lat="43.76895" lon="7.2514">
        <ele>679</ele>
        <time>2018-04-26T07:55:09.000Z</time>
      </trkpt>
      <trkpt lat="43.76894" lon="7.25151">
        <ele>681</ele>
        <time>2018-04-26T07:55:14.000Z</time>
      </trkpt>
      <trkpt lat="43.76893" lon="7.25157">
        <ele>681</ele>
        <time>2018-04-26T07:55:17.000Z</time>
      </trkpt>
      <trkpt lat="43.76893" lon="7.25166">
        <ele>682</ele>
        <time>2018-04-26T07:55:21.000Z</time>
      </trkpt>
      <trkpt lat="43.76892" lon="7.25176">
        <ele>686</ele>
        <time>2018-04-26T07:55:26.000Z</time>
      </trkpt>
      <trkpt lat="43.76891" lon="7.25183">
        <ele>686</ele>
        <time>2018-04-26T07:55:29.000Z</time>
      </trkpt>
      <trkpt lat="43.7689" lon="7.25192">
        <ele>686</ele>
        <time>2018-04-26T07:55:33.000Z</time>
      </trkpt>
      <trkpt lat="43.76889" lon="7.25195">
        <ele>686</ele>
        <time>2018-04-26T07:55:35.000Z</time>
      </trkpt>
      <trkpt lat="43.7689" lon="7.25202">
        <ele>686</ele>
        <time>2018-04-26T07:55:39.000Z</time>
      </trkpt>
      <trkpt lat="43.76891" lon="7.25203">
        <ele>687</ele>
        <time>2018-04-26T07:55:40.000Z</time>
      </trkpt>
      <trkpt lat="43.76896" lon="7.25201">
        <ele>687</ele>
        <time>2018-04-26T07:55:45.000Z</time>
      </trkpt>
      <trkpt lat="43.76896" lon="7.25199">
        <ele>687</ele>
        <time>2018-04-26T07:55:46.000Z</time>
      </trkpt>
      <trkpt lat="43.76897" lon="7.25197">
        <ele>687</ele>
        <time>2018-04-26T07:55:47.000Z</time>
      </trkpt>
      <trkpt lat="43.76899" lon="7.25185">
        <ele>688</ele>
        <time>2018-04-26T07:55:51.000Z</time>
      </trkpt>
      <trkpt lat="43.76901" lon="7.2518">
        <ele>688</ele>
        <time>2018-04-26T07:55:53.000Z</time>
      </trkpt>
      <trkpt lat="43.76905" lon="7.2517">
        <ele>690</ele>
        <time>2018-04-26T07:55:58.000Z</time>
      </trkpt>
      <trkpt lat="43.76906" lon="7.25167">
        <ele>691</ele>
        <time>2018-04-26T07:55:59.000Z</time>
      </trkpt>
      <trkpt lat="43.76911" lon="7.25156">
        <ele>687</ele>
        <time>2018-04-26T07:56:04.000Z</time>
      </trkpt>
      <trkpt lat="43.76911" lon="7.25154">
        <ele>687</ele>
        <time>2018-04-26T07:56:05.000Z</time>
      </trkpt>
      <trkpt lat="43.76916" lon="7.25145">
        <ele>684</ele>
        <time>2018-04-26T07:56:10.000Z</time>
      </trkpt>
      <trkpt lat="43.76918" lon="7.25142">
        <ele>698</ele>
        <time>2018-04-26T07:56:12.000Z</time>
      </trkpt>
      <trkpt lat="43.76923" lon="7.25136">
        <ele>698</ele>
        <time>2018-04-26T07:56:16.000Z</time>
      </trkpt>
      <trkpt lat="43.76931" lon="7.25128">
        <ele>698</ele>
        <time>2018-04-26T07:56:22.000Z</time>
      </trkpt>
      <trkpt lat="43.76941" lon="7.25118">
        <ele>698</ele>
        <time>2018-04-26T07:56:29.000Z</time>
      </trkpt>
      <trkpt lat="43.76943" lon="7.25116">
        <ele>698</ele>
        <time>2018-04-26T07:56:30.000Z</time>
      </trkpt>
      <trkpt lat="43.7695" lon="7.25109">
        <ele>698</ele>
        <time>2018-04-26T07:56:35.000Z</time>
      </trkpt>
      <trkpt lat="43.76957" lon="7.25101">
        <ele>698</ele>
        <time>2018-04-26T07:56:41.000Z</time>
      </trkpt>
      <trkpt lat="43.76966" lon="7.25091">
        <ele>699</ele>
        <time>2018-04-26T07:56:48.000Z</time>
      </trkpt>
      <trkpt lat="43.76967" lon="7.2509">
        <ele>699</ele>
        <time>2018-04-26T07:56:49.000Z</time>
      </trkpt>
      <trkpt lat="43.76972" lon="7.25086">
        <ele>700</ele>
        <time>2018-04-26T07:56:53.000Z</time>
      </trkpt>
      <trkpt lat="43.76975" lon="7.25087">
        <ele>700</ele>
        <time>2018-04-26T07:56:55.000Z</time>
      </trkpt>
      <trkpt lat="43.76975" lon="7.25089">
        <ele>700</ele>
        <time>2018-04-26T07:56:56.000Z</time>
      </trkpt>
      <trkpt lat="43.76972" lon="7.25095">
        <ele>700</ele>
        <time>2018-04-26T07:56:59.000Z</time>
      </trkpt>
      <trkpt lat="43.76971" lon="7.25097">
        <ele>700</ele>
        <time>2018-04-26T07:57:00.000Z</time>
      </trkpt>
      <trkpt lat="43.7697" lon="7.25098">
        <ele>700</ele>
        <time>2018-04-26T07:57:01.000Z</time>
      </trkpt>
      <trkpt lat="43.76963" lon="7.25109">
        <ele>700</ele>
        <time>2018-04-26T07:57:07.000Z</time>
      </trkpt>
      <trkpt lat="43.76956" lon="7.2512">
        <ele>700</ele>
        <time>2018-04-26T07:57:13.000Z</time>
      </trkpt>
      <trkpt lat="43.76953" lon="7.25125">
        <ele>700</ele>
        <time>2018-04-26T07:57:16.000Z</time>
      </trkpt>
      <trkpt lat="43.76946" lon="7.25141">
        <ele>701</ele>
        <time>2018-04-26T07:57:23.000Z</time>
      </trkpt>
      <trkpt lat="43.76936" lon="7.2516">
        <ele>700</ele>
        <time>2018-04-26T07:57:31.000Z</time>
      </trkpt>
      <trkpt lat="43.76935" lon="7.25163">
        <ele>699</ele>
        <time>2018-04-26T07:57:32.000Z</time>
      </trkpt>
      <trkpt lat="43.76927" lon="7.25188">
        <ele>712</ele>
        <time>2018-04-26T07:57:41.000Z</time>
      </trkpt>
      <trkpt lat="43.76925" lon="7.25195">
        <ele>714</ele>
        <time>2018-04-26T07:57:43.000Z</time>
      </trkpt>
      <trkpt lat="43.76922" lon="7.25207">
        <ele>716</ele>
        <time>2018-04-26T07:57:48.000Z</time>
      </trkpt>
      <trkpt lat="43.7692" lon="7.25217">
        <ele>717</ele>
        <time>2018-04-26T07:57:53.000Z</time>
      </trkpt>
      <trkpt lat="43.7692" lon="7.25221">
        <ele>718</ele>
        <time>2018-04-26T07:57:55.000Z</time>
      </trkpt>
      <trkpt lat="43.76918" lon="7.25235">
        <ele>717</ele>
        <time>2018-04-26T07:58:01.000Z</time>
      </trkpt>
      <trkpt lat="43.76918" lon="7.25237">
        <ele>717</ele>
        <time>2018-04-26T07:58:02.000Z</time>
      </trkpt>
      <trkpt lat="43.76915" lon="7.25248">
        <ele>710</ele>
        <time>2018-04-26T07:58:07.000Z</time>
      </trkpt>
      <trkpt lat="43.76914" lon="7.25254">
        <ele>710</ele>
        <time>2018-04-26T07:58:10.000Z</time>
      </trkpt>
      <trkpt lat="43.76913" lon="7.25258">
        <ele>709</ele>
        <time>2018-04-26T07:58:12.000Z</time>
      </trkpt>
      <trkpt lat="43.7691" lon="7.25269">
        <ele>706</ele>
        <time>2018-04-26T07:58:18.000Z</time>
      </trkpt>
      <trkpt lat="43.76908" lon="7.2528">
        <ele>706</ele>
        <time>2018-04-26T07:58:24.000Z</time>
      </trkpt>
      <trkpt lat="43.76907" lon="7.25286">
        <ele>706</ele>
        <time>2018-04-26T07:58:27.000Z</time>
      </trkpt>
      <trkpt lat="43.76906" lon="7.25289">
        <ele>707</ele>
        <time>2018-04-26T07:58:29.000Z</time>
      </trkpt>
      <trkpt lat="43.76902" lon="7.253">
        <ele>708</ele>
        <time>2018-04-26T07:58:35.000Z</time>
      </trkpt>
      <trkpt lat="43.76902" lon="7.25301">
        <ele>708</ele>
        <time>2018-04-26T07:58:36.000Z</time>
      </trkpt>
      <trkpt lat="43.76895" lon="7.2531">
        <ele>709</ele>
        <time>2018-04-26T07:58:43.000Z</time>
      </trkpt>
      <trkpt lat="43.76892" lon="7.25314">
        <ele>708</ele>
        <time>2018-04-26T07:58:47.000Z</time>
      </trkpt>
      <trkpt lat="43.76889" lon="7.25318">
        <ele>708</ele>
        <time>2018-04-26T07:58:51.000Z</time>
      </trkpt>
      <trkpt lat="43.76887" lon="7.25322">
        <ele>707</ele>
        <time>2018-04-26T07:58:54.000Z</time>
      </trkpt>
      <trkpt lat="43.76883" lon="7.25329">
        <ele>706</ele>
        <time>2018-04-26T07:58:59.000Z</time>
      </trkpt>
      <trkpt lat="43.76882" lon="7.25331">
        <ele>705</ele>
        <time>2018-04-26T07:59:01.000Z</time>
      </trkpt>
      <trkpt lat="43.76879" lon="7.25335">
        <ele>718</ele>
        <time>2018-04-26T07:59:04.000Z</time>
      </trkpt>
      <trkpt lat="43.76878" lon="7.25338">
        <ele>717</ele>
        <time>2018-04-26T07:59:06.000Z</time>
      </trkpt>
      <trkpt lat="43.76877" lon="7.2534">
        <ele>717</ele>
        <time>2018-04-26T07:59:07.000Z</time>
      </trkpt>
      <trkpt lat="43.76874" lon="7.25347">
        <ele>716</ele>
        <time>2018-04-26T07:59:12.000Z</time>
      </trkpt>
      <trkpt lat="43.76873" lon="7.25348">
        <ele>716</ele>
        <time>2018-04-26T07:59:13.000Z</time>
      </trkpt>
      <trkpt lat="43.7687" lon="7.25355">
        <ele>715</ele>
        <time>2018-04-26T07:59:18.000Z</time>
      </trkpt>
      <trkpt lat="43.76868" lon="7.2536">
        <ele>715</ele>
        <time>2018-04-26T07:59:21.000Z</time>
      </trkpt>
      <trkpt lat="43.76866" lon="7.25368">
        <ele>716</ele>
        <time>2018-04-26T07:59:26.000Z</time>
      </trkpt>
      <trkpt lat="43.76866" lon="7.2537">
        <ele>716</ele>
        <time>2018-04-26T07:59:27.000Z</time>
      </trkpt>
      <trkpt lat="43.76866" lon="7.25382">
        <ele>718</ele>
        <time>2018-04-26T07:59:34.000Z</time>
      </trkpt>
      <trkpt lat="43.76866" lon="7.25384">
        <ele>718</ele>
        <time>2018-04-26T07:59:35.000Z</time>
      </trkpt>
      <trkpt lat="43.76865" lon="7.25395">
        <ele>718</ele>
        <time>2018-04-26T07:59:41.000Z</time>
      </trkpt>
      <trkpt lat="43.76865" lon="7.25397">
        <ele>718</ele>
        <time>2018-04-26T07:59:42.000Z</time>
      </trkpt>
      <trkpt lat="43.76863" lon="7.2541">
        <ele>718</ele>
        <time>2018-04-26T07:59:49.000Z</time>
      </trkpt>
      <trkpt lat="43.76863" lon="7.25411">
        <ele>717</ele>
        <time>2018-04-26T07:59:50.000Z</time>
      </trkpt>
      <trkpt lat="43.76858" lon="7.25424">
        <ele>728</ele>
        <time>2018-04-26T07:59:57.000Z</time>
      </trkpt>
      <trkpt lat="43.76857" lon="7.25426">
        <ele>728</ele>
        <time>2018-04-26T07:59:58.000Z</time>
      </trkpt>
      <trkpt lat="43.76853" lon="7.25437">
        <ele>729</ele>
        <time>2018-04-26T08:00:04.000Z</time>
      </trkpt>
      <trkpt lat="43.7685" lon="7.25442">
        <ele>730</ele>
        <time>2018-04-26T08:00:07.000Z</time>
      </trkpt>
      <trkpt lat="43.76848" lon="7.25447">
        <ele>730</ele>
        <time>2018-04-26T08:00:10.000Z</time>
      </trkpt>
      <trkpt lat="43.76843" lon="7.25456">
        <ele>732</ele>
        <time>2018-04-26T08:00:16.000Z</time>
      </trkpt>
      <trkpt lat="43.76842" lon="7.25458">
        <ele>732</ele>
        <time>2018-04-26T08:00:17.000Z</time>
      </trkpt>
      <trkpt lat="43.76841" lon="7.2547">
        <ele>733</ele>
        <time>2018-04-26T08:00:23.000Z</time>
      </trkpt>
      <trkpt lat="43.7684" lon="7.25472">
        <ele>733</ele>
        <time>2018-04-26T08:00:24.000Z</time>
      </trkpt>
      <trkpt lat="43.76839" lon="7.25487">
        <ele>730</ele>
        <time>2018-04-26T08:00:32.000Z</time>
      </trkpt>
      <trkpt lat="43.76839" lon="7.25502">
        <ele>729</ele>
        <time>2018-04-26T08:00:40.000Z</time>
      </trkpt>
      <trkpt lat="43.76839" lon="7.25504">
        <ele>730</ele>
        <time>2018-04-26T08:00:41.000Z</time>
      </trkpt>
      <trkpt lat="43.76836" lon="7.25514">
        <ele>737</ele>
        <time>2018-04-26T08:00:46.000Z</time>
      </trkpt>
      <trkpt lat="43.76834" lon="7.25518">
        <ele>739</ele>
        <time>2018-04-26T08:00:48.000Z</time>
      </trkpt>
      <trkpt lat="43.76831" lon="7.25526">
        <ele>705</ele>
        <time>2018-04-26T08:00:53.000Z</time>
      </trkpt>
      <trkpt lat="43.76828" lon="7.25536">
        <ele>704</ele>
        <time>2018-04-26T08:00:58.000Z</time>
      </trkpt>
      <trkpt lat="43.76827" lon="7.2554">
        <ele>704</ele>
        <time>2018-04-26T08:01:00.000Z</time>
      </trkpt>
      <trkpt lat="43.76825" lon="7.25557">
        <ele>707</ele>
        <time>2018-04-26T08:01:07.000Z</time>
      </trkpt>
      <trkpt lat="43.76826" lon="7.2557">
        <ele>715</ele>
        <time>2018-04-26T08:01:13.000Z</time>
      </trkpt>
      <trkpt lat="43.76826" lon="7.25574">
        <ele>718</ele>
        <time>2018-04-26T08:01:15.000Z</time>
      </trkpt>
      <trkpt lat="43.76828" lon="7.25583">
        <ele>725</ele>
        <time>2018-04-26T08:01:19.000Z</time>
      </trkpt>
      <trkpt lat="43.76829" lon="7.2559">
        <ele>724</ele>
        <time>2018-04-26T08:01:22.000Z</time>
      </trkpt>
      <trkpt lat="43.7683" lon="7.25599">
        <ele>718</ele>
        <time>2018-04-26T08:01:26.000Z</time>
      </trkpt>
      <trkpt lat="43.76832" lon="7.25605">
        <ele>716</ele>
        <time>2018-04-26T08:01:29.000Z</time>
      </trkpt>
      <trkpt lat="43.76833" lon="7.25608">
        <ele>714</ele>
        <time>2018-04-26T08:01:31.000Z</time>
      </trkpt>
      <trkpt lat="43.76836" lon="7.25619">
        <ele>747</ele>
        <time>2018-04-26T08:01:37.000Z</time>
      </trkpt>
      <trkpt lat="43.76837" lon="7.2562">
        <ele>747</ele>
        <time>2018-04-26T08:01:38.000Z</time>
      </trkpt>
      <trkpt lat="43.76841" lon="7.25633">
        <ele>746</ele>
        <time>2018-04-26T08:01:45.000Z</time>
      </trkpt>
      <trkpt lat="43.76841" lon="7.25636">
        <ele>746</ele>
        <time>2018-04-26T08:01:47.000Z</time>
      </trkpt>
      <trkpt lat="43.76844" lon="7.25641">
        <ele>745</ele>
        <time>2018-04-26T08:01:51.000Z</time>
      </trkpt>
      <trkpt lat="43.76848" lon="7.25645">
        <ele>745</ele>
        <time>2018-04-26T08:01:57.000Z</time>
      </trkpt>
      <trkpt lat="43.76849" lon="7.25645">
        <ele>746</ele>
        <time>2018-04-26T08:02:02.000Z</time>
      </trkpt>
      <trkpt lat="43.7685" lon="7.25646">
        <ele>746</ele>
        <time>2018-04-26T08:02:07.000Z</time>
      </trkpt>
      <trkpt lat="43.7685" lon="7.25646">
        <ele>746</ele>
        <time>2018-04-26T08:02:11.000Z</time>
      </trkpt>
      <trkpt lat="43.7685" lon="7.25646">
        <ele>746</ele>
        <time>2018-04-26T08:02:18.000Z</time>
      </trkpt>
      <trkpt lat="43.7685" lon="7.25646">
        <ele>746</ele>
        <time>2018-04-26T08:02:33.000Z</time>
      </trkpt>
      <trkpt lat="43.7685" lon="7.25646">
        <ele>746</ele>
        <time>2018-04-26T08:02:47.000Z</time>
      </trkpt>
      <trkpt lat="43.7685" lon="7.25646">
        <ele>746</ele>
        <time>2018-04-26T08:03:06.000Z</time>
      </trkpt>
      <trkpt lat="43.7685" lon="7.25647">
        <ele>745</ele>
        <time>2018-04-26T08:03:14.000Z</time>
      </trkpt>
      <trkpt lat="43.7685" lon="7.25648">
        <ele>745</ele>
        <time>2018-04-26T08:03:30.000Z</time>
      </trkpt>
      <trkpt lat="43.76849" lon="7.25649">
        <ele>745</ele>
        <time>2018-04-26T08:03:45.000Z</time>
      </trkpt>
      <trkpt lat="43.76848" lon="7.2565">
        <ele>744</ele>
        <time>2018-04-26T08:03:59.000Z</time>
      </trkpt>
      <trkpt lat="43.76848" lon="7.2565">
        <ele>744</ele>
        <time>2018-04-26T08:04:07.000Z</time>
      </trkpt>
      <trkpt lat="43.76851" lon="7.2565">
        <ele>745</ele>
        <time>2018-04-26T08:04:32.000Z</time>
      </trkpt>
      <trkpt lat="43.76853" lon="7.25651">
        <ele>746</ele>
        <time>2018-04-26T08:04:54.000Z</time>
      </trkpt>
      <trkpt lat="43.76856" lon="7.2565">
        <ele>747</ele>
        <time>2018-04-26T08:05:07.000Z</time>
      </trkpt>
      <trkpt lat="43.76857" lon="7.2565">
        <ele>747</ele>
        <time>2018-04-26T08:05:19.000Z</time>
      </trkpt>
      <trkpt lat="43.76853" lon="7.2565">
        <ele>746</ele>
        <time>2018-04-26T08:05:40.000Z</time>
      </trkpt>
      <trkpt lat="43.76852" lon="7.25649">
        <ele>746</ele>
        <time>2018-04-26T08:05:54.000Z</time>
      </trkpt>
      <trkpt lat="43.76851" lon="7.2565">
        <ele>745</ele>
        <time>2018-04-26T08:06:08.000Z</time>
      </trkpt>
      <trkpt lat="43.7685" lon="7.2565">
        <ele>745</ele>
        <time>2018-04-26T08:06:19.000Z</time>
      </trkpt>
      <trkpt lat="43.76849" lon="7.2565">
        <ele>744</ele>
        <time>2018-04-26T08:06:32.000Z</time>
      </trkpt>
      <trkpt lat="43.76849" lon="7.25649">
        <ele>745</ele>
        <time>2018-04-26T08:06:44.000Z</time>
      </trkpt>
      <trkpt lat="43.76849" lon="7.25649">
        <ele>744</ele>
        <time>2018-04-26T08:06:53.000Z</time>
      </trkpt>
      <trkpt lat="43.76848" lon="7.25649">
        <ele>744</ele>
        <time>2018-04-26T08:07:08.000Z</time>
      </trkpt>
      <trkpt lat="43.76849" lon="7.25649">
        <ele>745</ele>
        <time>2018-04-26T08:07:17.000Z</time>
      </trkpt>
      <trkpt lat="43.76849" lon="7.25648">
        <ele>745</ele>
        <time>2018-04-26T08:07:31.000Z</time>
      </trkpt>
      <trkpt lat="43.76849" lon="7.25648">
        <ele>745</ele>
        <time>2018-04-26T08:07:42.000Z</time>
      </trkpt>
      <trkpt lat="43.76848" lon="7.25649">
        <ele>744</ele>
        <time>2018-04-26T08:07:49.000Z</time>
      </trkpt>
      <trkpt lat="43.76848" lon="7.25649">
        <ele>744</ele>
        <time>2018-04-26T08:07:58.000Z</time>
      </trkpt>
      <trkpt lat="43.76848" lon="7.25649">
        <ele>744</ele>
        <time>2018-04-26T08:08:05.000Z</time>
      </trkpt>
      <trkpt lat="43.76848" lon="7.25649">
        <ele>744</ele>
        <time>2018-04-26T08:08:14.000Z</time>
      </trkpt>
      <trkpt lat="43.76848" lon="7.25649">
        <ele>744</ele>
        <time>2018-04-26T08:08:19.000Z</time>
      </trkpt>
      <trkpt lat="43.76849" lon="7.25646">
        <ele>745</ele>
        <time>2018-04-26T08:08:25.000Z</time>
      </trkpt>
      <trkpt lat="43.76848" lon="7.25648">
        <ele>744</ele>
        <time>2018-04-26T08:08:32.000Z</time>
      </trkpt>
      <trkpt lat="43.76848" lon="7.25649">
        <ele>744</ele>
        <time>2018-04-26T08:08:41.000Z</time>
      </trkpt>
      <trkpt lat="43.76848" lon="7.25648">
        <ele>744</ele>
        <time>2018-04-26T08:09:05.000Z</time>
      </trkpt>
      <trkpt lat="43.76847" lon="7.25648">
        <ele>744</ele>
        <time>2018-04-26T08:09:18.000Z</time>
      </trkpt>
      <trkpt lat="43.76847" lon="7.25648">
        <ele>744</ele>
        <time>2018-04-26T08:09:34.000Z</time>
      </trkpt>
      <trkpt lat="43.76847" lon="7.25649">
        <ele>744</ele>
        <time>2018-04-26T08:09:48.000Z</time>
      </trkpt>
      <trkpt lat="43.76847" lon="7.25649">
        <ele>744</ele>
        <time>2018-04-26T08:09:54.000Z</time>
      </trkpt>
      <trkpt lat="43.76849" lon="7.25647">
        <ele>745</ele>
        <time>2018-04-26T08:10:01.000Z</time>
      </trkpt>
      <trkpt lat="43.7685" lon="7.25646">
        <ele>746</ele>
        <time>2018-04-26T08:10:06.000Z</time>
      </trkpt>
      <trkpt lat="43.76852" lon="7.25648">
        <ele>746</ele>
        <time>2018-04-26T08:10:13.000Z</time>
      </trkpt>
      <trkpt lat="43.76855" lon="7.25658">
        <ele>745</ele>
        <time>2018-04-26T08:10:17.000Z</time>
      </trkpt>
      <trkpt lat="43.76862" lon="7.25678">
        <ele>738</ele>
        <time>2018-04-26T08:10:21.000Z</time>
      </trkpt>
      <trkpt lat="43.76864" lon="7.25685">
        <ele>738</ele>
        <time>2018-04-26T08:10:22.000Z</time>
      </trkpt>
      <trkpt lat="43.7687" lon="7.25701">
        <ele>738</ele>
        <time>2018-04-26T08:10:24.000Z</time>
      </trkpt>
      <trkpt lat="43.76873" lon="7.25711">
        <ele>738</ele>
        <time>2018-04-26T08:10:25.000Z</time>
      </trkpt>
      <trkpt lat="43.76877" lon="7.2572">
        <ele>738</ele>
        <time>2018-04-26T08:10:26.000Z</time>
      </trkpt>
      <trkpt lat="43.76885" lon="7.2574">
        <ele>740</ele>
        <time>2018-04-26T08:10:28.000Z</time>
      </trkpt>
      <trkpt lat="43.76891" lon="7.2575">
        <ele>728</ele>
        <time>2018-04-26T08:10:29.000Z</time>
      </trkpt>
      <trkpt lat="43.76898" lon="7.2576">
        <ele>730</ele>
        <time>2018-04-26T08:10:30.000Z</time>
      </trkpt>
      <trkpt lat="43.76911" lon="7.25778">
        <ele>727</ele>
        <time>2018-04-26T08:10:32.000Z</time>
      </trkpt>
      <trkpt lat="43.76917" lon="7.25788">
        <ele>742</ele>
        <time>2018-04-26T08:10:33.000Z</time>
      </trkpt>
      <trkpt lat="43.76922" lon="7.25798">
        <ele>739</ele>
        <time>2018-04-26T08:10:34.000Z</time>
      </trkpt>
      <trkpt lat="43.76926" lon="7.2581">
        <ele>735</ele>
        <time>2018-04-26T08:10:35.000Z</time>
      </trkpt>
      <trkpt lat="43.76938" lon="7.25831">
        <ele>733</ele>
        <time>2018-04-26T08:10:37.000Z</time>
      </trkpt>
      <trkpt lat="43.76944" lon="7.2584">
        <ele>719</ele>
        <time>2018-04-26T08:10:38.000Z</time>
      </trkpt>
      <trkpt lat="43.76957" lon="7.25855">
        <ele>719</ele>
        <time>2018-04-26T08:10:40.000Z</time>
      </trkpt>
      <trkpt lat="43.76962" lon="7.25863">
        <ele>719</ele>
        <time>2018-04-26T08:10:41.000Z</time>
      </trkpt>
      <trkpt lat="43.76967" lon="7.25873">
        <ele>718</ele>
        <time>2018-04-26T08:10:42.000Z</time>
      </trkpt>
      <trkpt lat="43.76974" lon="7.25895">
        <ele>716</ele>
        <time>2018-04-26T08:10:44.000Z</time>
      </trkpt>
      <trkpt lat="43.76977" lon="7.25906">
        <ele>716</ele>
        <time>2018-04-26T08:10:45.000Z</time>
      </trkpt>
      <trkpt lat="43.7698" lon="7.25914">
        <ele>716</ele>
        <time>2018-04-26T08:10:46.000Z</time>
      </trkpt>
      <trkpt lat="43.76992" lon="7.25926">
        <ele>707</ele>
        <time>2018-04-26T08:10:48.000Z</time>
      </trkpt>
      <trkpt lat="43.77007" lon="7.2593">
        <ele>711</ele>
        <time>2018-04-26T08:10:50.000Z</time>
      </trkpt>
      <trkpt lat="43.77014" lon="7.25931">
        <ele>710</ele>
        <time>2018-04-26T08:10:51.000Z</time>
      </trkpt>
      <trkpt lat="43.77022" lon="7.25932">
        <ele>709</ele>
        <time>2018-04-26T08:10:52.000Z</time>
      </trkpt>
      <trkpt lat="43.7703" lon="7.25931">
        <ele>708</ele>
        <time>2018-04-26T08:10:53.000Z</time>
      </trkpt>
      <trkpt lat="43.77039" lon="7.2593">
        <ele>708</ele>
        <time>2018-04-26T08:10:54.000Z</time>
      </trkpt>
      <trkpt lat="43.77055" lon="7.25927">
        <ele>709</ele>
        <time>2018-04-26T08:10:56.000Z</time>
      </trkpt>
      <trkpt lat="43.77072" lon="7.25924">
        <ele>712</ele>
        <time>2018-04-26T08:10:58.000Z</time>
      </trkpt>
      <trkpt lat="43.77091" lon="7.25921">
        <ele>713</ele>
        <time>2018-04-26T08:11:00.000Z</time>
      </trkpt>
      <trkpt lat="43.7711" lon="7.25917">
        <ele>709</ele>
        <time>2018-04-26T08:11:02.000Z</time>
      </trkpt>
      <trkpt lat="43.77129" lon="7.25914">
        <ele>722</ele>
        <time>2018-04-26T08:11:04.000Z</time>
      </trkpt>
      <trkpt lat="43.7715" lon="7.25913">
        <ele>719</ele>
        <time>2018-04-26T08:11:06.000Z</time>
      </trkpt>
      <trkpt lat="43.7716" lon="7.25915">
        <ele>715</ele>
        <time>2018-04-26T08:11:07.000Z</time>
      </trkpt>
      <trkpt lat="43.77169" lon="7.25918">
        <ele>711</ele>
        <time>2018-04-26T08:11:08.000Z</time>
      </trkpt>
      <trkpt lat="43.77186" lon="7.2593">
        <ele>708</ele>
        <time>2018-04-26T08:11:10.000Z</time>
      </trkpt>
      <trkpt lat="43.77192" lon="7.25934">
        <ele>707</ele>
        <time>2018-04-26T08:11:11.000Z</time>
      </trkpt>
      <trkpt lat="43.77198" lon="7.25938">
        <ele>707</ele>
        <time>2018-04-26T08:11:12.000Z</time>
      </trkpt>
      <trkpt lat="43.77204" lon="7.25939">
        <ele>707</ele>
        <time>2018-04-26T08:11:13.000Z</time>
      </trkpt>
      <trkpt lat="43.77215" lon="7.25941">
        <ele>707</ele>
        <time>2018-04-26T08:11:15.000Z</time>
      </trkpt>
      <trkpt lat="43.77219" lon="7.25942">
        <ele>708</ele>
        <time>2018-04-26T08:11:16.000Z</time>
      </trkpt>
      <trkpt lat="43.77222" lon="7.25943">
        <ele>708</ele>
        <time>2018-04-26T08:11:17.000Z</time>
      </trkpt>
      <trkpt lat="43.77232" lon="7.25944">
        <ele>708</ele>
        <time>2018-04-26T08:11:21.000Z</time>
      </trkpt>
      <trkpt lat="43.77242" lon="7.25943">
        <ele>709</ele>
        <time>2018-04-26T08:11:25.000Z</time>
      </trkpt>
      <trkpt lat="43.77244" lon="7.25943">
        <ele>709</ele>
        <time>2018-04-26T08:11:26.000Z</time>
      </trkpt>
      <trkpt lat="43.77248" lon="7.25943">
        <ele>709</ele>
        <time>2018-04-26T08:11:28.000Z</time>
      </trkpt>
      <trkpt lat="43.77254" lon="7.25939">
        <ele>717</ele>
        <time>2018-04-26T08:11:31.000Z</time>
      </trkpt>
      <trkpt lat="43.77257" lon="7.25938">
        <ele>717</ele>
        <time>2018-04-26T08:11:32.000Z</time>
      </trkpt>
      <trkpt lat="43.77269" lon="7.25931">
        <ele>717</ele>
        <time>2018-04-26T08:11:37.000Z</time>
      </trkpt>
      <trkpt lat="43.77271" lon="7.2593">
        <ele>718</ele>
        <time>2018-04-26T08:11:38.000Z</time>
      </trkpt>
      <trkpt lat="43.77285" lon="7.25919">
        <ele>719</ele>
        <time>2018-04-26T08:11:45.000Z</time>
      </trkpt>
      <trkpt lat="43.77287" lon="7.25918">
        <ele>719</ele>
        <time>2018-04-26T08:11:46.000Z</time>
      </trkpt>
      <trkpt lat="43.77295" lon="7.25918">
        <ele>720</ele>
        <time>2018-04-26T08:11:50.000Z</time>
      </trkpt>
      <trkpt lat="43.77298" lon="7.25918">
        <ele>720</ele>
        <time>2018-04-26T08:11:51.000Z</time>
      </trkpt>
      <trkpt lat="43.77306" lon="7.2591">
        <ele>723</ele>
        <time>2018-04-26T08:11:56.000Z</time>
      </trkpt>
      <trkpt lat="43.77307" lon="7.25906">
        <ele>723</ele>
        <time>2018-04-26T08:11:58.000Z</time>
      </trkpt>
      <trkpt lat="43.77309" lon="7.25904">
        <ele>723</ele>
        <time>2018-04-26T08:11:59.000Z</time>
      </trkpt>
      <trkpt lat="43.77312" lon="7.25903">
        <ele>723</ele>
        <time>2018-04-26T08:12:01.000Z</time>
      </trkpt>
      <trkpt lat="43.77315" lon="7.25902">
        <ele>724</ele>
        <time>2018-04-26T08:12:03.000Z</time>
      </trkpt>
      <trkpt lat="43.77316" lon="7.25901">
        <ele>724</ele>
        <time>2018-04-26T08:12:04.000Z</time>
      </trkpt>
      <trkpt lat="43.77321" lon="7.25897">
        <ele>724</ele>
        <time>2018-04-26T08:12:07.000Z</time>
      </trkpt>
      <trkpt lat="43.77323" lon="7.25894">
        <ele>724</ele>
        <time>2018-04-26T08:12:09.000Z</time>
      </trkpt>
      <trkpt lat="43.77328" lon="7.25887">
        <ele>724</ele>
        <time>2018-04-26T08:12:14.000Z</time>
      </trkpt>
      <trkpt lat="43.77329" lon="7.25885">
        <ele>724</ele>
        <time>2018-04-26T08:12:16.000Z</time>
      </trkpt>
      <trkpt lat="43.77335" lon="7.25882">
        <ele>728</ele>
        <time>2018-04-26T08:12:21.000Z</time>
      </trkpt>
      <trkpt lat="43.77336" lon="7.25882">
        <ele>728</ele>
        <time>2018-04-26T08:12:22.000Z</time>
      </trkpt>
      <trkpt lat="43.77339" lon="7.25881">
        <ele>728</ele>
        <time>2018-04-26T08:12:26.000Z</time>
      </trkpt>
      <trkpt lat="43.77339" lon="7.25881">
        <ele>728</ele>
        <time>2018-04-26T08:12:27.000Z</time>
      </trkpt>
      <trkpt lat="43.77342" lon="7.25881">
        <ele>728</ele>
        <time>2018-04-26T08:12:32.000Z</time>
      </trkpt>
      <trkpt lat="43.77344" lon="7.2588">
        <ele>728</ele>
        <time>2018-04-26T08:12:35.000Z</time>
      </trkpt>
      <trkpt lat="43.77347" lon="7.25878">
        <ele>728</ele>
        <time>2018-04-26T08:12:39.000Z</time>
      </trkpt>
      <trkpt lat="43.77349" lon="7.25877">
        <ele>729</ele>
        <time>2018-04-26T08:12:43.000Z</time>
      </trkpt>
      <trkpt lat="43.7735" lon="7.25877">
        <ele>729</ele>
        <time>2018-04-26T08:12:44.000Z</time>
      </trkpt>
      <trkpt lat="43.77352" lon="7.25875">
        <ele>729</ele>
        <time>2018-04-26T08:12:51.000Z</time>
      </trkpt>
      <trkpt lat="43.77353" lon="7.25874">
        <ele>729</ele>
        <time>2018-04-26T08:12:52.000Z</time>
      </trkpt>
      <trkpt lat="43.77356" lon="7.25873">
        <ele>729</ele>
        <time>2018-04-26T08:12:58.000Z</time>
      </trkpt>
      <trkpt lat="43.77357" lon="7.25872">
        <ele>729</ele>
        <time>2018-04-26T08:13:01.000Z</time>
      </trkpt>
      <trkpt lat="43.77359" lon="7.2587">
        <ele>729</ele>
        <time>2018-04-26T08:13:05.000Z</time>
      </trkpt>
      <trkpt lat="43.77361" lon="7.25869">
        <ele>729</ele>
        <time>2018-04-26T08:13:08.000Z</time>
      </trkpt>
      <trkpt lat="43.77365" lon="7.25867">
        <ele>729</ele>
        <time>2018-04-26T08:13:13.000Z</time>
      </trkpt>
      <trkpt lat="43.77367" lon="7.25866">
        <ele>729</ele>
        <time>2018-04-26T08:13:17.000Z</time>
      </trkpt>
      <trkpt lat="43.77369" lon="7.25865">
        <ele>729</ele>
        <time>2018-04-26T08:13:21.000Z</time>
      </trkpt>
      <trkpt lat="43.7737" lon="7.25865">
        <ele>729</ele>
        <time>2018-04-26T08:13:22.000Z</time>
      </trkpt>
      <trkpt lat="43.77374" lon="7.25863">
        <ele>729</ele>
        <time>2018-04-26T08:13:28.000Z</time>
      </trkpt>
      <trkpt lat="43.77377" lon="7.25863">
        <ele>730</ele>
        <time>2018-04-26T08:13:32.000Z</time>
      </trkpt>
      <trkpt lat="43.77378" lon="7.25862">
        <ele>730</ele>
        <time>2018-04-26T08:13:36.000Z</time>
      </trkpt>
      <trkpt lat="43.77379" lon="7.25862">
        <ele>730</ele>
        <time>2018-04-26T08:13:40.000Z</time>
      </trkpt>
      <trkpt lat="43.77379" lon="7.25862">
        <ele>730</ele>
        <time>2018-04-26T08:13:42.000Z</time>
      </trkpt>
      <trkpt lat="43.7738" lon="7.25863">
        <ele>730</ele>
        <time>2018-04-26T08:13:48.000Z</time>
      </trkpt>
      <trkpt lat="43.77382" lon="7.25861">
        <ele>730</ele>
        <time>2018-04-26T08:13:53.000Z</time>
      </trkpt>
      <trkpt lat="43.77383" lon="7.25861">
        <ele>730</ele>
        <time>2018-04-26T08:13:58.000Z</time>
      </trkpt>
      <trkpt lat="43.77386" lon="7.2586">
        <ele>730</ele>
        <time>2018-04-26T08:14:03.000Z</time>
      </trkpt>
      <trkpt lat="43.77386" lon="7.25861">
        <ele>730</ele>
        <time>2018-04-26T08:14:08.000Z</time>
      </trkpt>
      <trkpt lat="43.77388" lon="7.2586">
        <ele>730</ele>
        <time>2018-04-26T08:14:12.000Z</time>
      </trkpt>
      <trkpt lat="43.77392" lon="7.25859">
        <ele>730</ele>
        <time>2018-04-26T08:14:15.000Z</time>
      </trkpt>
      <trkpt lat="43.77398" lon="7.25857">
        <ele>730</ele>
        <time>2018-04-26T08:14:19.000Z</time>
      </trkpt>
      <trkpt lat="43.77401" lon="7.25857">
        <ele>730</ele>
        <time>2018-04-26T08:14:21.000Z</time>
      </trkpt>
      <trkpt lat="43.77412" lon="7.25854">
        <ele>730</ele>
        <time>2018-04-26T08:14:27.000Z</time>
      </trkpt>
      <trkpt lat="43.77416" lon="7.25852">
        <ele>730</ele>
        <time>2018-04-26T08:14:29.000Z</time>
      </trkpt>
      <trkpt lat="43.77426" lon="7.25844">
        <ele>732</ele>
        <time>2018-04-26T08:14:34.000Z</time>
      </trkpt>
      <trkpt lat="43.77445" lon="7.25838">
        <ele>734</ele>
        <time>2018-04-26T08:14:41.000Z</time>
      </trkpt>
      <trkpt lat="43.77471" lon="7.25826">
        <ele>732</ele>
        <time>2018-04-26T08:14:49.000Z</time>
      </trkpt>
      <trkpt lat="43.7748" lon="7.25822">
        <ele>732</ele>
        <time>2018-04-26T08:14:51.000Z</time>
      </trkpt>
      <trkpt lat="43.77493" lon="7.25814">
        <ele>732</ele>
        <time>2018-04-26T08:14:54.000Z</time>
      </trkpt>
      <trkpt lat="43.77498" lon="7.25811">
        <ele>732</ele>
        <time>2018-04-26T08:14:55.000Z</time>
      </trkpt>
      <trkpt lat="43.77508" lon="7.25809">
        <ele>730</ele>
        <time>2018-04-26T08:14:57.000Z</time>
      </trkpt>
      <trkpt lat="43.77512" lon="7.25809">
        <ele>729</ele>
        <time>2018-04-26T08:14:58.000Z</time>
      </trkpt>
      <trkpt lat="43.7752" lon="7.25811">
        <ele>729</ele>
        <time>2018-04-26T08:15:01.000Z</time>
      </trkpt>
      <trkpt lat="43.77521" lon="7.2581">
        <ele>729</ele>
        <time>2018-04-26T08:15:02.000Z</time>
      </trkpt>
      <trkpt lat="43.77528" lon="7.25803">
        <ele>728</ele>
        <time>2018-04-26T08:15:05.000Z</time>
      </trkpt>
      <trkpt lat="43.77538" lon="7.25793">
        <ele>727</ele>
        <time>2018-04-26T08:15:08.000Z</time>
      </trkpt>
      <trkpt lat="43.77546" lon="7.25792">
        <ele>726</ele>
        <time>2018-04-26T08:15:10.000Z</time>
      </trkpt>
      <trkpt lat="43.77552" lon="7.25794">
        <ele>726</ele>
        <time>2018-04-26T08:15:12.000Z</time>
      </trkpt>
      <trkpt lat="43.77556" lon="7.25796">
        <ele>726</ele>
        <time>2018-04-26T08:15:13.000Z</time>
      </trkpt>
      <trkpt lat="43.77562" lon="7.25799">
        <ele>725</ele>
        <time>2018-04-26T08:15:15.000Z</time>
      </trkpt>
      <trkpt lat="43.77565" lon="7.25801">
        <ele>725</ele>
        <time>2018-04-26T08:15:16.000Z</time>
      </trkpt>
      <trkpt lat="43.77574" lon="7.25811">
        <ele>725</ele>
        <time>2018-04-26T08:15:20.000Z</time>
      </trkpt>
      <trkpt lat="43.77577" lon="7.25828">
        <ele>724</ele>
        <time>2018-04-26T08:15:25.000Z</time>
      </trkpt>
      <trkpt lat="43.77578" lon="7.25832">
        <ele>724</ele>
        <time>2018-04-26T08:15:26.000Z</time>
      </trkpt>
      <trkpt lat="43.77578" lon="7.25841">
        <ele>725</ele>
        <time>2018-04-26T08:15:29.000Z</time>
      </trkpt>
      <trkpt lat="43.77578" lon="7.25842">
        <ele>725</ele>
        <time>2018-04-26T08:15:31.000Z</time>
      </trkpt>
      <trkpt lat="43.77579" lon="7.25842">
        <ele>725</ele>
        <time>2018-04-26T08:15:41.000Z</time>
      </trkpt>
      <trkpt lat="43.77579" lon="7.2585">
        <ele>725</ele>
        <time>2018-04-26T08:15:50.000Z</time>
      </trkpt>
      <trkpt lat="43.77577" lon="7.25871">
        <ele>726</ele>
        <time>2018-04-26T08:15:56.000Z</time>
      </trkpt>
      <trkpt lat="43.77576" lon="7.25876">
        <ele>726</ele>
        <time>2018-04-26T08:15:57.000Z</time>
      </trkpt>
      <trkpt lat="43.77573" lon="7.25899">
        <ele>724</ele>
        <time>2018-04-26T08:16:02.000Z</time>
      </trkpt>
      <trkpt lat="43.7757" lon="7.2592">
        <ele>723</ele>
        <time>2018-04-26T08:16:07.000Z</time>
      </trkpt>
      <trkpt lat="43.77567" lon="7.25927">
        <ele>723</ele>
        <time>2018-04-26T08:16:09.000Z</time>
      </trkpt>
      <trkpt lat="43.77561" lon="7.25938">
        <ele>725</ele>
        <time>2018-04-26T08:16:12.000Z</time>
      </trkpt>
      <trkpt lat="43.77549" lon="7.25962">
        <ele>726</ele>
        <time>2018-04-26T08:16:18.000Z</time>
      </trkpt>
      <trkpt lat="43.77546" lon="7.25967">
        <ele>726</ele>
        <time>2018-04-26T08:16:19.000Z</time>
      </trkpt>
      <trkpt lat="43.7754" lon="7.25982">
        <ele>726</ele>
        <time>2018-04-26T08:16:22.000Z</time>
      </trkpt>
      <trkpt lat="43.77533" lon="7.25997">
        <ele>727</ele>
        <time>2018-04-26T08:16:25.000Z</time>
      </trkpt>
      <trkpt lat="43.77521" lon="7.26022">
        <ele>725</ele>
        <time>2018-04-26T08:16:31.000Z</time>
      </trkpt>
      <trkpt lat="43.77515" lon="7.26036">
        <ele>725</ele>
        <time>2018-04-26T08:16:36.000Z</time>
      </trkpt>
      <trkpt lat="43.77512" lon="7.2604">
        <ele>725</ele>
        <time>2018-04-26T08:16:38.000Z</time>
      </trkpt>
      <trkpt lat="43.77512" lon="7.26042">
        <ele>724</ele>
        <time>2018-04-26T08:16:39.000Z</time>
      </trkpt>
      <trkpt lat="43.77515" lon="7.26043">
        <ele>724</ele>
        <time>2018-04-26T08:16:41.000Z</time>
      </trkpt>
      <trkpt lat="43.7752" lon="7.26035">
        <ele>725</ele>
        <time>2018-04-26T08:16:44.000Z</time>
      </trkpt>
      <trkpt lat="43.77534" lon="7.26022">
        <ele>725</ele>
        <time>2018-04-26T08:16:48.000Z</time>
      </trkpt>
      <trkpt lat="43.77553" lon="7.26003">
        <ele>724</ele>
        <time>2018-04-26T08:16:52.000Z</time>
      </trkpt>
      <trkpt lat="43.7756" lon="7.25999">
        <ele>724</ele>
        <time>2018-04-26T08:16:53.000Z</time>
      </trkpt>
      <trkpt lat="43.77572" lon="7.2599">
        <ele>723</ele>
        <time>2018-04-26T08:16:55.000Z</time>
      </trkpt>
      <trkpt lat="43.77576" lon="7.25985">
        <ele>723</ele>
        <time>2018-04-26T08:16:56.000Z</time>
      </trkpt>
      <trkpt lat="43.77581" lon="7.25979">
        <ele>723</ele>
        <time>2018-04-26T08:16:57.000Z</time>
      </trkpt>
      <trkpt lat="43.77591" lon="7.25968">
        <ele>717</ele>
        <time>2018-04-26T08:16:59.000Z</time>
      </trkpt>
      <trkpt lat="43.77597" lon="7.25963">
        <ele>716</ele>
        <time>2018-04-26T08:17:00.000Z</time>
      </trkpt>
      <trkpt lat="43.77603" lon="7.25958">
        <ele>716</ele>
        <time>2018-04-26T08:17:01.000Z</time>
      </trkpt>
      <trkpt lat="43.77608" lon="7.2595">
        <ele>716</ele>
        <time>2018-04-26T08:17:02.000Z</time>
      </trkpt>
      <trkpt lat="43.7762" lon="7.25936">
        <ele>714</ele>
        <time>2018-04-26T08:17:04.000Z</time>
      </trkpt>
      <trkpt lat="43.77631" lon="7.25924">
        <ele>712</ele>
        <time>2018-04-26T08:17:06.000Z</time>
      </trkpt>
      <trkpt lat="43.77635" lon="7.25916">
        <ele>708</ele>
        <time>2018-04-26T08:17:07.000Z</time>
      </trkpt>
      <trkpt lat="43.7764" lon="7.25908">
        <ele>707</ele>
        <time>2018-04-26T08:17:08.000Z</time>
      </trkpt>
      <trkpt lat="43.77645" lon="7.25901">
        <ele>707</ele>
        <time>2018-04-26T08:17:09.000Z</time>
      </trkpt>
      <trkpt lat="43.7765" lon="7.25893">
        <ele>706</ele>
        <time>2018-04-26T08:17:10.000Z</time>
      </trkpt>
      <trkpt lat="43.77655" lon="7.25886">
        <ele>706</ele>
        <time>2018-04-26T08:17:11.000Z</time>
      </trkpt>
      <trkpt lat="43.7766" lon="7.25879">
        <ele>706</ele>
        <time>2018-04-26T08:17:12.000Z</time>
      </trkpt>
      <trkpt lat="43.77665" lon="7.25871">
        <ele>705</ele>
        <time>2018-04-26T08:17:13.000Z</time>
      </trkpt>
      <trkpt lat="43.77671" lon="7.25863">
        <ele>696</ele>
        <time>2018-04-26T08:17:14.000Z</time>
      </trkpt>
      <trkpt lat="43.77677" lon="7.25856">
        <ele>695</ele>
        <time>2018-04-26T08:17:15.000Z</time>
      </trkpt>
      <trkpt lat="43.77683" lon="7.25849">
        <ele>695</ele>
        <time>2018-04-26T08:17:16.000Z</time>
      </trkpt>
      <trkpt lat="43.77695" lon="7.25833">
        <ele>691</ele>
        <time>2018-04-26T08:17:18.000Z</time>
      </trkpt>
      <trkpt lat="43.77702" lon="7.25825">
        <ele>690</ele>
        <time>2018-04-26T08:17:19.000Z</time>
      </trkpt>
      <trkpt lat="43.77707" lon="7.25819">
        <ele>690</ele>
        <time>2018-04-26T08:17:20.000Z</time>
      </trkpt>
      <trkpt lat="43.77711" lon="7.25812">
        <ele>689</ele>
        <time>2018-04-26T08:17:21.000Z</time>
      </trkpt>
      <trkpt lat="43.77714" lon="7.25804">
        <ele>689</ele>
        <time>2018-04-26T08:17:22.000Z</time>
      </trkpt>
      <trkpt lat="43.77717" lon="7.25795">
        <ele>688</ele>
        <time>2018-04-26T08:17:23.000Z</time>
      </trkpt>
      <trkpt lat="43.77721" lon="7.25786">
        <ele>687</ele>
        <time>2018-04-26T08:17:24.000Z</time>
      </trkpt>
      <trkpt lat="43.77725" lon="7.2577">
        <ele>686</ele>
        <time>2018-04-26T08:17:26.000Z</time>
      </trkpt>
      <trkpt lat="43.77726" lon="7.25758">
        <ele>684</ele>
        <time>2018-04-26T08:17:28.000Z</time>
      </trkpt>
      <trkpt lat="43.77725" lon="7.25752">
        <ele>684</ele>
        <time>2018-04-26T08:17:29.000Z</time>
      </trkpt>
      <trkpt lat="43.77724" lon="7.25745">
        <ele>682</ele>
        <time>2018-04-26T08:17:30.000Z</time>
      </trkpt>
      <trkpt lat="43.77726" lon="7.25732">
        <ele>682</ele>
        <time>2018-04-26T08:17:32.000Z</time>
      </trkpt>
      <trkpt lat="43.77727" lon="7.25724">
        <ele>682</ele>
        <time>2018-04-26T08:17:33.000Z</time>
      </trkpt>
      <trkpt lat="43.77729" lon="7.25709">
        <ele>681</ele>
        <time>2018-04-26T08:17:35.000Z</time>
      </trkpt>
      <trkpt lat="43.77731" lon="7.25701">
        <ele>680</ele>
        <time>2018-04-26T08:17:36.000Z</time>
      </trkpt>
      <trkpt lat="43.77733" lon="7.25695">
        <ele>679</ele>
        <time>2018-04-26T08:17:37.000Z</time>
      </trkpt>
      <trkpt lat="43.77736" lon="7.25689">
        <ele>678</ele>
        <time>2018-04-26T08:17:38.000Z</time>
      </trkpt>
      <trkpt lat="43.77739" lon="7.25681">
        <ele>676</ele>
        <time>2018-04-26T08:17:39.000Z</time>
      </trkpt>
      <trkpt lat="43.77746" lon="7.25667">
        <ele>669</ele>
        <time>2018-04-26T08:17:41.000Z</time>
      </trkpt>
      <trkpt lat="43.77749" lon="7.25661">
        <ele>670</ele>
        <time>2018-04-26T08:17:42.000Z</time>
      </trkpt>
      <trkpt lat="43.77753" lon="7.25655">
        <ele>662</ele>
        <time>2018-04-26T08:17:43.000Z</time>
      </trkpt>
      <trkpt lat="43.77757" lon="7.25651">
        <ele>661</ele>
        <time>2018-04-26T08:17:44.000Z</time>
      </trkpt>
      <trkpt lat="43.7776" lon="7.25648">
        <ele>660</ele>
        <time>2018-04-26T08:17:45.000Z</time>
      </trkpt>
      <trkpt lat="43.77763" lon="7.25645">
        <ele>659</ele>
        <time>2018-04-26T08:17:46.000Z</time>
      </trkpt>
      <trkpt lat="43.77765" lon="7.25642">
        <ele>659</ele>
        <time>2018-04-26T08:17:47.000Z</time>
      </trkpt>
      <trkpt lat="43.77767" lon="7.25639">
        <ele>658</ele>
        <time>2018-04-26T08:17:48.000Z</time>
      </trkpt>
      <trkpt lat="43.77769" lon="7.25636">
        <ele>658</ele>
        <time>2018-04-26T08:17:49.000Z</time>
      </trkpt>
      <trkpt lat="43.77772" lon="7.25633">
        <ele>657</ele>
        <time>2018-04-26T08:17:50.000Z</time>
      </trkpt>
      <trkpt lat="43.77778" lon="7.25628">
        <ele>656</ele>
        <time>2018-04-26T08:17:52.000Z</time>
      </trkpt>
      <trkpt lat="43.7778" lon="7.25623">
        <ele>656</ele>
        <time>2018-04-26T08:17:53.000Z</time>
      </trkpt>
      <trkpt lat="43.77782" lon="7.25619">
        <ele>656</ele>
        <time>2018-04-26T08:17:54.000Z</time>
      </trkpt>
      <trkpt lat="43.77785" lon="7.25619">
        <ele>655</ele>
        <time>2018-04-26T08:17:55.000Z</time>
      </trkpt>
      <trkpt lat="43.77785" lon="7.2562">
        <ele>655</ele>
        <time>2018-04-26T08:17:56.000Z</time>
      </trkpt>
      <trkpt lat="43.77785" lon="7.25622">
        <ele>655</ele>
        <time>2018-04-26T08:17:57.000Z</time>
      </trkpt>
      <trkpt lat="43.77784" lon="7.25625">
        <ele>655</ele>
        <time>2018-04-26T08:17:58.000Z</time>
      </trkpt>
      <trkpt lat="43.77786" lon="7.25629">
        <ele>655</ele>
        <time>2018-04-26T08:18:00.000Z</time>
      </trkpt>
      <trkpt lat="43.77789" lon="7.25623">
        <ele>654</ele>
        <time>2018-04-26T08:18:03.000Z</time>
      </trkpt>
      <trkpt lat="43.77796" lon="7.25615">
        <ele>653</ele>
        <time>2018-04-26T08:18:06.000Z</time>
      </trkpt>
      <trkpt lat="43.77798" lon="7.25612">
        <ele>652</ele>
        <time>2018-04-26T08:18:07.000Z</time>
      </trkpt>
      <trkpt lat="43.778" lon="7.25609">
        <ele>651</ele>
        <time>2018-04-26T08:18:08.000Z</time>
      </trkpt>
      <trkpt lat="43.77803" lon="7.25604">
        <ele>650</ele>
        <time>2018-04-26T08:18:10.000Z</time>
      </trkpt>
      <trkpt lat="43.77805" lon="7.25604">
        <ele>650</ele>
        <time>2018-04-26T08:18:11.000Z</time>
      </trkpt>
      <trkpt lat="43.77806" lon="7.25606">
        <ele>650</ele>
        <time>2018-04-26T08:18:12.000Z</time>
      </trkpt>
      <trkpt lat="43.77805" lon="7.25613">
        <ele>650</ele>
        <time>2018-04-26T08:18:14.000Z</time>
      </trkpt>
      <trkpt lat="43.77806" lon="7.25616">
        <ele>650</ele>
        <time>2018-04-26T08:18:15.000Z</time>
      </trkpt>
      <trkpt lat="43.77808" lon="7.25619">
        <ele>650</ele>
        <time>2018-04-26T08:18:16.000Z</time>
      </trkpt>
      <trkpt lat="43.77812" lon="7.25624">
        <ele>649</ele>
        <time>2018-04-26T08:18:19.000Z</time>
      </trkpt>
      <trkpt lat="43.77812" lon="7.25623">
        <ele>649</ele>
        <time>2018-04-26T08:18:20.000Z</time>
      </trkpt>
      <trkpt lat="43.77813" lon="7.2562">
        <ele>649</ele>
        <time>2018-04-26T08:18:21.000Z</time>
      </trkpt>
      <trkpt lat="43.77818" lon="7.25615">
        <ele>648</ele>
        <time>2018-04-26T08:18:23.000Z</time>
      </trkpt>
      <trkpt lat="43.77826" lon="7.25618">
        <ele>647</ele>
        <time>2018-04-26T08:18:26.000Z</time>
      </trkpt>
      <trkpt lat="43.77829" lon="7.25624">
        <ele>647</ele>
        <time>2018-04-26T08:18:28.000Z</time>
      </trkpt>
      <trkpt lat="43.77833" lon="7.25623">
        <ele>647</ele>
        <time>2018-04-26T08:18:30.000Z</time>
      </trkpt>
      <trkpt lat="43.77839" lon="7.25625">
        <ele>622</ele>
        <time>2018-04-26T08:18:32.000Z</time>
      </trkpt>
      <trkpt lat="43.77846" lon="7.25624">
        <ele>621</ele>
        <time>2018-04-26T08:18:34.000Z</time>
      </trkpt>
      <trkpt lat="43.77857" lon="7.25622">
        <ele>618</ele>
        <time>2018-04-26T08:18:37.000Z</time>
      </trkpt>
      <trkpt lat="43.77862" lon="7.25625">
        <ele>617</ele>
        <time>2018-04-26T08:18:39.000Z</time>
      </trkpt>
      <trkpt lat="43.77865" lon="7.25626">
        <ele>617</ele>
        <time>2018-04-26T08:18:40.000Z</time>
      </trkpt>
      <trkpt lat="43.77871" lon="7.25629">
        <ele>615</ele>
        <time>2018-04-26T08:18:42.000Z</time>
      </trkpt>
      <trkpt lat="43.77874" lon="7.25628">
        <ele>615</ele>
        <time>2018-04-26T08:18:43.000Z</time>
      </trkpt>
      <trkpt lat="43.77875" lon="7.25625">
        <ele>614</ele>
        <time>2018-04-26T08:18:44.000Z</time>
      </trkpt>
      <trkpt lat="43.77874" lon="7.25617">
        <ele>614</ele>
        <time>2018-04-26T08:18:46.000Z</time>
      </trkpt>
      <trkpt lat="43.77874" lon="7.25611">
        <ele>614</ele>
        <time>2018-04-26T08:18:47.000Z</time>
      </trkpt>
      <trkpt lat="43.77873" lon="7.25607">
        <ele>614</ele>
        <time>2018-04-26T08:18:48.000Z</time>
      </trkpt>
      <trkpt lat="43.77872" lon="7.25595">
        <ele>614</ele>
        <time>2018-04-26T08:18:50.000Z</time>
      </trkpt>
      <trkpt lat="43.77872" lon="7.25589">
        <ele>614</ele>
        <time>2018-04-26T08:18:51.000Z</time>
      </trkpt>
      <trkpt lat="43.77873" lon="7.25584">
        <ele>613</ele>
        <time>2018-04-26T08:18:52.000Z</time>
      </trkpt>
      <trkpt lat="43.77878" lon="7.25583">
        <ele>610</ele>
        <time>2018-04-26T08:18:54.000Z</time>
      </trkpt>
      <trkpt lat="43.77884" lon="7.25586">
        <ele>609</ele>
        <time>2018-04-26T08:18:56.000Z</time>
      </trkpt>
      <trkpt lat="43.77889" lon="7.25589">
        <ele>606</ele>
        <time>2018-04-26T08:18:58.000Z</time>
      </trkpt>
      <trkpt lat="43.77894" lon="7.25588">
        <ele>604</ele>
        <time>2018-04-26T08:19:00.000Z</time>
      </trkpt>
      <trkpt lat="43.77894" lon="7.25584">
        <ele>603</ele>
        <time>2018-04-26T08:19:02.000Z</time>
      </trkpt>
      <trkpt lat="43.7789" lon="7.25579">
        <ele>605</ele>
        <time>2018-04-26T08:19:04.000Z</time>
      </trkpt>
      <trkpt lat="43.77889" lon="7.25572">
        <ele>606</ele>
        <time>2018-04-26T08:19:06.000Z</time>
      </trkpt>
      <trkpt lat="43.77894" lon="7.25567">
        <ele>604</ele>
        <time>2018-04-26T08:19:09.000Z</time>
      </trkpt>
      <trkpt lat="43.77897" lon="7.25565">
        <ele>603</ele>
        <time>2018-04-26T08:19:11.000Z</time>
      </trkpt>
      <trkpt lat="43.779" lon="7.25563">
        <ele>603</ele>
        <time>2018-04-26T08:19:13.000Z</time>
      </trkpt>
      <trkpt lat="43.77903" lon="7.2556">
        <ele>603</ele>
        <time>2018-04-26T08:19:14.000Z</time>
      </trkpt>
      <trkpt lat="43.77904" lon="7.25558">
        <ele>603</ele>
        <time>2018-04-26T08:19:15.000Z</time>
      </trkpt>
      <trkpt lat="43.77908" lon="7.2555">
        <ele>603</ele>
        <time>2018-04-26T08:19:17.000Z</time>
      </trkpt>
      <trkpt lat="43.77911" lon="7.25543">
        <ele>603</ele>
        <time>2018-04-26T08:19:19.000Z</time>
      </trkpt>
      <trkpt lat="43.77913" lon="7.25539">
        <ele>603</ele>
        <time>2018-04-26T08:19:20.000Z</time>
      </trkpt>
      <trkpt lat="43.77915" lon="7.25533">
        <ele>603</ele>
        <time>2018-04-26T08:19:21.000Z</time>
      </trkpt>
      <trkpt lat="43.77919" lon="7.2553">
        <ele>576</ele>
        <time>2018-04-26T08:19:22.000Z</time>
      </trkpt>
      <trkpt lat="43.77924" lon="7.25525">
        <ele>576</ele>
        <time>2018-04-26T08:19:23.000Z</time>
      </trkpt>
      <trkpt lat="43.77929" lon="7.2552">
        <ele>576</ele>
        <time>2018-04-26T08:19:24.000Z</time>
      </trkpt>
      <trkpt lat="43.77933" lon="7.25515">
        <ele>576</ele>
        <time>2018-04-26T08:19:25.000Z</time>
      </trkpt>
      <trkpt lat="43.77936" lon="7.25508">
        <ele>576</ele>
        <time>2018-04-26T08:19:26.000Z</time>
      </trkpt>
      <trkpt lat="43.77941" lon="7.255">
        <ele>578</ele>
        <time>2018-04-26T08:19:27.000Z</time>
      </trkpt>
      <trkpt lat="43.77946" lon="7.25492">
        <ele>576</ele>
        <time>2018-04-26T08:19:28.000Z</time>
      </trkpt>
      <trkpt lat="43.77949" lon="7.25482">
        <ele>576</ele>
        <time>2018-04-26T08:19:29.000Z</time>
      </trkpt>
      <trkpt lat="43.77954" lon="7.25473">
        <ele>574</ele>
        <time>2018-04-26T08:19:30.000Z</time>
      </trkpt>
      <trkpt lat="43.77958" lon="7.25465">
        <ele>574</ele>
        <time>2018-04-26T08:19:31.000Z</time>
      </trkpt>
      <trkpt lat="43.7796" lon="7.25457">
        <ele>574</ele>
        <time>2018-04-26T08:19:32.000Z</time>
      </trkpt>
      <trkpt lat="43.77963" lon="7.25449">
        <ele>574</ele>
        <time>2018-04-26T08:19:33.000Z</time>
      </trkpt>
      <trkpt lat="43.77969" lon="7.25437">
        <ele>572</ele>
        <time>2018-04-26T08:19:35.000Z</time>
      </trkpt>
      <trkpt lat="43.77971" lon="7.25434">
        <ele>572</ele>
        <time>2018-04-26T08:19:36.000Z</time>
      </trkpt>
      <trkpt lat="43.77976" lon="7.25431">
        <ele>570</ele>
        <time>2018-04-26T08:19:37.000Z</time>
      </trkpt>
      <trkpt lat="43.77982" lon="7.25426">
        <ele>568</ele>
        <time>2018-04-26T08:19:38.000Z</time>
      </trkpt>
      <trkpt lat="43.77985" lon="7.25421">
        <ele>566</ele>
        <time>2018-04-26T08:19:39.000Z</time>
      </trkpt>
      <trkpt lat="43.77989" lon="7.25413">
        <ele>570</ele>
        <time>2018-04-26T08:19:41.000Z</time>
      </trkpt>
      <trkpt lat="43.77992" lon="7.25411">
        <ele>569</ele>
        <time>2018-04-26T08:19:42.000Z</time>
      </trkpt>
      <trkpt lat="43.77995" lon="7.25409">
        <ele>568</ele>
        <time>2018-04-26T08:19:43.000Z</time>
      </trkpt>
      <trkpt lat="43.77998" lon="7.25406">
        <ele>570</ele>
        <time>2018-04-26T08:19:44.000Z</time>
      </trkpt>
      <trkpt lat="43.77999" lon="7.25402">
        <ele>572</ele>
        <time>2018-04-26T08:19:45.000Z</time>
      </trkpt>
      <trkpt lat="43.78" lon="7.25398">
        <ele>557</ele>
        <time>2018-04-26T08:19:46.000Z</time>
      </trkpt>
      <trkpt lat="43.78011" lon="7.25378">
        <ele>558</ele>
        <time>2018-04-26T08:19:51.000Z</time>
      </trkpt>
      <trkpt lat="43.78014" lon="7.25374">
        <ele>558</ele>
        <time>2018-04-26T08:19:52.000Z</time>
      </trkpt>
      <trkpt lat="43.78016" lon="7.2537">
        <ele>558</ele>
        <time>2018-04-26T08:19:53.000Z</time>
      </trkpt>
      <trkpt lat="43.78019" lon="7.25365">
        <ele>559</ele>
        <time>2018-04-26T08:19:54.000Z</time>
      </trkpt>
      <trkpt lat="43.78026" lon="7.25356">
        <ele>559</ele>
        <time>2018-04-26T08:19:56.000Z</time>
      </trkpt>
      <trkpt lat="43.78035" lon="7.25345">
        <ele>558</ele>
        <time>2018-04-26T08:19:58.000Z</time>
      </trkpt>
      <trkpt lat="43.78047" lon="7.25334">
        <ele>555</ele>
        <time>2018-04-26T08:20:00.000Z</time>
      </trkpt>
      <trkpt lat="43.7806" lon="7.25324">
        <ele>562</ele>
        <time>2018-04-26T08:20:02.000Z</time>
      </trkpt>
      <trkpt lat="43.78067" lon="7.25318">
        <ele>560</ele>
        <time>2018-04-26T08:20:03.000Z</time>
      </trkpt>
      <trkpt lat="43.78074" lon="7.25312">
        <ele>561</ele>
        <time>2018-04-26T08:20:04.000Z</time>
      </trkpt>
      <trkpt lat="43.78083" lon="7.25304">
        <ele>562</ele>
        <time>2018-04-26T08:20:05.000Z</time>
      </trkpt>
      <trkpt lat="43.78091" lon="7.25298">
        <ele>545</ele>
        <time>2018-04-26T08:20:06.000Z</time>
      </trkpt>
      <trkpt lat="43.78101" lon="7.2529">
        <ele>545</ele>
        <time>2018-04-26T08:20:07.000Z</time>
      </trkpt>
      <trkpt lat="43.7811" lon="7.25283">
        <ele>545</ele>
        <time>2018-04-26T08:20:08.000Z</time>
      </trkpt>
      <trkpt lat="43.7812" lon="7.25275">
        <ele>544</ele>
        <time>2018-04-26T08:20:09.000Z</time>
      </trkpt>
      <trkpt lat="43.78128" lon="7.25268">
        <ele>543</ele>
        <time>2018-04-26T08:20:10.000Z</time>
      </trkpt>
      <trkpt lat="43.78136" lon="7.25261">
        <ele>542</ele>
        <time>2018-04-26T08:20:11.000Z</time>
      </trkpt>
      <trkpt lat="43.78143" lon="7.25254">
        <ele>540</ele>
        <time>2018-04-26T08:20:12.000Z</time>
      </trkpt>
      <trkpt lat="43.78148" lon="7.25247">
        <ele>546</ele>
        <time>2018-04-26T08:20:13.000Z</time>
      </trkpt>
      <trkpt lat="43.78151" lon="7.25242">
        <ele>546</ele>
        <time>2018-04-26T08:20:14.000Z</time>
      </trkpt>
      <trkpt lat="43.78154" lon="7.25238">
        <ele>546</ele>
        <time>2018-04-26T08:20:15.000Z</time>
      </trkpt>
      <trkpt lat="43.78155" lon="7.25237">
        <ele>545</ele>
        <time>2018-04-26T08:20:16.000Z</time>
      </trkpt>
      <trkpt lat="43.78157" lon="7.25236">
        <ele>545</ele>
        <time>2018-04-26T08:20:17.000Z</time>
      </trkpt>
      <trkpt lat="43.78156" lon="7.25236">
        <ele>545</ele>
        <time>2018-04-26T08:20:19.000Z</time>
      </trkpt>
      <trkpt lat="43.78156" lon="7.25236">
        <ele>546</ele>
        <time>2018-04-26T08:20:21.000Z</time>
      </trkpt>
      <trkpt lat="43.78156" lon="7.25237">
        <ele>545</ele>
        <time>2018-04-26T08:20:23.000Z</time>
      </trkpt>
      <trkpt lat="43.78155" lon="7.25236">
        <ele>546</ele>
        <time>2018-04-26T08:20:26.000Z</time>
      </trkpt>
      <trkpt lat="43.78154" lon="7.25235">
        <ele>546</ele>
        <time>2018-04-26T08:20:31.000Z</time>
      </trkpt>
      <trkpt lat="43.78154" lon="7.25236">
        <ele>546</ele>
        <time>2018-04-26T08:20:37.000Z</time>
      </trkpt>
      <trkpt lat="43.78154" lon="7.25236">
        <ele>546</ele>
        <time>2018-04-26T08:20:38.000Z</time>
      </trkpt>
      <trkpt lat="43.78154" lon="7.25235">
        <ele>546</ele>
        <time>2018-04-26T08:20:46.000Z</time>
      </trkpt>
      <trkpt lat="43.78155" lon="7.25235">
        <ele>546</ele>
        <time>2018-04-26T08:20:52.000Z</time>
      </trkpt>
      <trkpt lat="43.78156" lon="7.25236">
        <ele>546</ele>
        <time>2018-04-26T08:20:53.000Z</time>
      </trkpt>
      <trkpt lat="43.78158" lon="7.25243">
        <ele>542</ele>
        <time>2018-04-26T08:20:56.000Z</time>
      </trkpt>
      <trkpt lat="43.78164" lon="7.25258">
        <ele>536</ele>
        <time>2018-04-26T08:21:01.000Z</time>
      </trkpt>
      <trkpt lat="43.78171" lon="7.25265">
        <ele>534</ele>
        <time>2018-04-26T08:21:03.000Z</time>
      </trkpt>
      <trkpt lat="43.78175" lon="7.25268">
        <ele>534</ele>
        <time>2018-04-26T08:21:04.000Z</time>
      </trkpt>
      <trkpt lat="43.78185" lon="7.25276">
        <ele>535</ele>
        <time>2018-04-26T08:21:06.000Z</time>
      </trkpt>
      <trkpt lat="43.78193" lon="7.25281">
        <ele>535</ele>
        <time>2018-04-26T08:21:09.000Z</time>
      </trkpt>
      <trkpt lat="43.78197" lon="7.25283">
        <ele>535</ele>
        <time>2018-04-26T08:21:13.000Z</time>
      </trkpt>
      <trkpt lat="43.78197" lon="7.25282">
        <ele>535</ele>
        <time>2018-04-26T08:21:15.000Z</time>
      </trkpt>
      <trkpt lat="43.78198" lon="7.25278">
        <ele>535</ele>
        <time>2018-04-26T08:21:17.000Z</time>
      </trkpt>
      <trkpt lat="43.78204" lon="7.25265">
        <ele>536</ele>
        <time>2018-04-26T08:21:22.000Z</time>
      </trkpt>
      <trkpt lat="43.78207" lon="7.25263">
        <ele>536</ele>
        <time>2018-04-26T08:21:23.000Z</time>
      </trkpt>
      <trkpt lat="43.78221" lon="7.25243">
        <ele>539</ele>
        <time>2018-04-26T08:21:29.000Z</time>
      </trkpt>
      <trkpt lat="43.78235" lon="7.25219">
        <ele>538</ele>
        <time>2018-04-26T08:21:34.000Z</time>
      </trkpt>
      <trkpt lat="43.78238" lon="7.25214">
        <ele>538</ele>
        <time>2018-04-26T08:21:35.000Z</time>
      </trkpt>
      <trkpt lat="43.78241" lon="7.25208">
        <ele>537</ele>
        <time>2018-04-26T08:21:36.000Z</time>
      </trkpt>
      <trkpt lat="43.78251" lon="7.25191">
        <ele>537</ele>
        <time>2018-04-26T08:21:39.000Z</time>
      </trkpt>
      <trkpt lat="43.78254" lon="7.25184">
        <ele>536</ele>
        <time>2018-04-26T08:21:41.000Z</time>
      </trkpt>
      <trkpt lat="43.78254" lon="7.25184">
        <ele>536</ele>
        <time>2018-04-26T08:21:44.000Z</time>
      </trkpt>
      <trkpt lat="43.78257" lon="7.25176">
        <ele>534</ele>
        <time>2018-04-26T08:21:49.000Z</time>
      </trkpt>
      <trkpt lat="43.78267" lon="7.25161">
        <ele>532</ele>
        <time>2018-04-26T08:21:53.000Z</time>
      </trkpt>
      <trkpt lat="43.78287" lon="7.25129">
        <ele>532</ele>
        <time>2018-04-26T08:21:59.000Z</time>
      </trkpt>
      <trkpt lat="43.78291" lon="7.25123">
        <ele>532</ele>
        <time>2018-04-26T08:22:00.000Z</time>
      </trkpt>
      <trkpt lat="43.78302" lon="7.25103">
        <ele>532</ele>
        <time>2018-04-26T08:22:03.000Z</time>
      </trkpt>
      <trkpt lat="43.78316" lon="7.25082">
        <ele>528</ele>
        <time>2018-04-26T08:22:06.000Z</time>
      </trkpt>
      <trkpt lat="43.7832" lon="7.25074">
        <ele>528</ele>
        <time>2018-04-26T08:22:07.000Z</time>
      </trkpt>
      <trkpt lat="43.78332" lon="7.25049">
        <ele>526</ele>
        <time>2018-04-26T08:22:10.000Z</time>
      </trkpt>
      <trkpt lat="43.78334" lon="7.25039">
        <ele>531</ele>
        <time>2018-04-26T08:22:11.000Z</time>
      </trkpt>
      <trkpt lat="43.78337" lon="7.25029">
        <ele>530</ele>
        <time>2018-04-26T08:22:12.000Z</time>
      </trkpt>
      <trkpt lat="43.7834" lon="7.25019">
        <ele>528</ele>
        <time>2018-04-26T08:22:13.000Z</time>
      </trkpt>
      <trkpt lat="43.78345" lon="7.24998">
        <ele>523</ele>
        <time>2018-04-26T08:22:15.000Z</time>
      </trkpt>
      <trkpt lat="43.78351" lon="7.24977">
        <ele>526</ele>
        <time>2018-04-26T08:22:17.000Z</time>
      </trkpt>
      <trkpt lat="43.78357" lon="7.24947">
        <ele>526</ele>
        <time>2018-04-26T08:22:20.000Z</time>
      </trkpt>
      <trkpt lat="43.78359" lon="7.24929">
        <ele>525</ele>
        <time>2018-04-26T08:22:22.000Z</time>
      </trkpt>
      <trkpt lat="43.78366" lon="7.24845">
        <ele>521</ele>
        <time>2018-04-26T08:22:30.000Z</time>
      </trkpt>
      <trkpt lat="43.78368" lon="7.24835">
        <ele>521</ele>
        <time>2018-04-26T08:22:31.000Z</time>
      </trkpt>
      <trkpt lat="43.7837" lon="7.24825">
        <ele>516</ele>
        <time>2018-04-26T08:22:32.000Z</time>
      </trkpt>
      <trkpt lat="43.7838" lon="7.24777">
        <ele>516</ele>
        <time>2018-04-26T08:22:37.000Z</time>
      </trkpt>
      <trkpt lat="43.78382" lon="7.24768">
        <ele>516</ele>
        <time>2018-04-26T08:22:38.000Z</time>
      </trkpt>
      <trkpt lat="43.78387" lon="7.24739">
        <ele>509</ele>
        <time>2018-04-26T08:22:41.000Z</time>
      </trkpt>
      <trkpt lat="43.78393" lon="7.24718">
        <ele>507</ele>
        <time>2018-04-26T08:22:43.000Z</time>
      </trkpt>
      <trkpt lat="43.78397" lon="7.24697">
        <ele>505</ele>
        <time>2018-04-26T08:22:45.000Z</time>
      </trkpt>
      <trkpt lat="43.78404" lon="7.24676">
        <ele>506</ele>
        <time>2018-04-26T08:22:47.000Z</time>
      </trkpt>
      <trkpt lat="43.78409" lon="7.24665">
        <ele>504</ele>
        <time>2018-04-26T08:22:48.000Z</time>
      </trkpt>
      <trkpt lat="43.78421" lon="7.24646">
        <ele>510</ele>
        <time>2018-04-26T08:22:50.000Z</time>
      </trkpt>
      <trkpt lat="43.78434" lon="7.24627">
        <ele>510</ele>
        <time>2018-04-26T08:22:52.000Z</time>
      </trkpt>
      <trkpt lat="43.7844" lon="7.24616">
        <ele>509</ele>
        <time>2018-04-26T08:22:53.000Z</time>
      </trkpt>
      <trkpt lat="43.78444" lon="7.24604">
        <ele>509</ele>
        <time>2018-04-26T08:22:54.000Z</time>
      </trkpt>
      <trkpt lat="43.78445" lon="7.24591">
        <ele>508</ele>
        <time>2018-04-26T08:22:55.000Z</time>
      </trkpt>
      <trkpt lat="43.78446" lon="7.24578">
        <ele>503</ele>
        <time>2018-04-26T08:22:56.000Z</time>
      </trkpt>
      <trkpt lat="43.78451" lon="7.24553">
        <ele>504</ele>
        <time>2018-04-26T08:22:58.000Z</time>
      </trkpt>
      <trkpt lat="43.78455" lon="7.24541">
        <ele>504</ele>
        <time>2018-04-26T08:22:59.000Z</time>
      </trkpt>
      <trkpt lat="43.7846" lon="7.24529">
        <ele>505</ele>
        <time>2018-04-26T08:23:00.000Z</time>
      </trkpt>
      <trkpt lat="43.7847" lon="7.24506">
        <ele>505</ele>
        <time>2018-04-26T08:23:02.000Z</time>
      </trkpt>
      <trkpt lat="43.78481" lon="7.24488">
        <ele>504</ele>
        <time>2018-04-26T08:23:04.000Z</time>
      </trkpt>
      <trkpt lat="43.78487" lon="7.24473">
        <ele>504</ele>
        <time>2018-04-26T08:23:06.000Z</time>
      </trkpt>
      <trkpt lat="43.78486" lon="7.24464">
        <ele>504</ele>
        <time>2018-04-26T08:23:07.000Z</time>
      </trkpt>
      <trkpt lat="43.78478" lon="7.24442">
        <ele>503</ele>
        <time>2018-04-26T08:23:10.000Z</time>
      </trkpt>
      <trkpt lat="43.78476" lon="7.2443">
        <ele>503</ele>
        <time>2018-04-26T08:23:12.000Z</time>
      </trkpt>
      <trkpt lat="43.78473" lon="7.24414">
        <ele>503</ele>
        <time>2018-04-26T08:23:15.000Z</time>
      </trkpt>
      <trkpt lat="43.78471" lon="7.24404">
        <ele>503</ele>
        <time>2018-04-26T08:23:17.000Z</time>
      </trkpt>
      <trkpt lat="43.78469" lon="7.24399">
        <ele>503</ele>
        <time>2018-04-26T08:23:18.000Z</time>
      </trkpt>
      <trkpt lat="43.78463" lon="7.24386">
        <ele>502</ele>
        <time>2018-04-26T08:23:21.000Z</time>
      </trkpt>
      <trkpt lat="43.78457" lon="7.24379">
        <ele>502</ele>
        <time>2018-04-26T08:23:23.000Z</time>
      </trkpt>
      <trkpt lat="43.78445" lon="7.24369">
        <ele>502</ele>
        <time>2018-04-26T08:23:27.000Z</time>
      </trkpt>
      <trkpt lat="43.78442" lon="7.24368">
        <ele>502</ele>
        <time>2018-04-26T08:23:28.000Z</time>
      </trkpt>
      <trkpt lat="43.78429" lon="7.24359">
        <ele>502</ele>
        <time>2018-04-26T08:23:33.000Z</time>
      </trkpt>
      <trkpt lat="43.78434" lon="7.24357">
        <ele>502</ele>
        <time>2018-04-26T08:23:35.000Z</time>
      </trkpt>
      <trkpt lat="43.78436" lon="7.24358">
        <ele>502</ele>
        <time>2018-04-26T08:23:36.000Z</time>
      </trkpt>
      <trkpt lat="43.78437" lon="7.24359">
        <ele>502</ele>
        <time>2018-04-26T08:23:37.000Z</time>
      </trkpt>
      <trkpt lat="43.78441" lon="7.24361">
        <ele>502</ele>
        <time>2018-04-26T08:23:39.000Z</time>
      </trkpt>
      <trkpt lat="43.78447" lon="7.24364">
        <ele>502</ele>
        <time>2018-04-26T08:23:42.000Z</time>
      </trkpt>
      <trkpt lat="43.78457" lon="7.24369">
        <ele>502</ele>
        <time>2018-04-26T08:23:46.000Z</time>
      </trkpt>
      <trkpt lat="43.78473" lon="7.24376">
        <ele>502</ele>
        <time>2018-04-26T08:23:52.000Z</time>
      </trkpt>
      <trkpt lat="43.78475" lon="7.24378">
        <ele>502</ele>
        <time>2018-04-26T08:23:53.000Z</time>
      </trkpt>
      <trkpt lat="43.78485" lon="7.24385">
        <ele>502</ele>
        <time>2018-04-26T08:23:58.000Z</time>
      </trkpt>
      <trkpt lat="43.78487" lon="7.24386">
        <ele>502</ele>
        <time>2018-04-26T08:23:59.000Z</time>
      </trkpt>
      <trkpt lat="43.78496" lon="7.2439">
        <ele>502</ele>
        <time>2018-04-26T08:24:04.000Z</time>
      </trkpt>
      <trkpt lat="43.78506" lon="7.24394">
        <ele>504</ele>
        <time>2018-04-26T08:24:10.000Z</time>
      </trkpt>
      <trkpt lat="43.78508" lon="7.24395">
        <ele>504</ele>
        <time>2018-04-26T08:24:11.000Z</time>
      </trkpt>
      <trkpt lat="43.78514" lon="7.244">
        <ele>504</ele>
        <time>2018-04-26T08:24:16.000Z</time>
      </trkpt>
      <trkpt lat="43.78519" lon="7.24403">
        <ele>504</ele>
        <time>2018-04-26T08:24:19.000Z</time>
      </trkpt>
      <trkpt lat="43.78522" lon="7.24405">
        <ele>504</ele>
        <time>2018-04-26T08:24:21.000Z</time>
      </trkpt>
      <trkpt lat="43.7853" lon="7.2441">
        <ele>505</ele>
        <time>2018-04-26T08:24:26.000Z</time>
      </trkpt>
      <trkpt lat="43.78535" lon="7.24412">
        <ele>505</ele>
        <time>2018-04-26T08:24:29.000Z</time>
      </trkpt>
      <trkpt lat="43.78544" lon="7.24419">
        <ele>510</ele>
        <time>2018-04-26T08:24:35.000Z</time>
      </trkpt>
      <trkpt lat="43.78551" lon="7.24424">
        <ele>511</ele>
        <time>2018-04-26T08:24:40.000Z</time>
      </trkpt>
      <trkpt lat="43.78555" lon="7.24425">
        <ele>511</ele>
        <time>2018-04-26T08:24:42.000Z</time>
      </trkpt>
      <trkpt lat="43.7856" lon="7.24426">
        <ele>512</ele>
        <time>2018-04-26T08:24:45.000Z</time>
      </trkpt>
      <trkpt lat="43.78563" lon="7.24426">
        <ele>512</ele>
        <time>2018-04-26T08:24:47.000Z</time>
      </trkpt>
      <trkpt lat="43.78569" lon="7.24427">
        <ele>512</ele>
        <time>2018-04-26T08:24:51.000Z</time>
      </trkpt>
      <trkpt lat="43.78576" lon="7.24428">
        <ele>512</ele>
        <time>2018-04-26T08:24:55.000Z</time>
      </trkpt>
      <trkpt lat="43.78584" lon="7.2443">
        <ele>518</ele>
        <time>2018-04-26T08:25:00.000Z</time>
      </trkpt>
      <trkpt lat="43.78588" lon="7.24432">
        <ele>519</ele>
        <time>2018-04-26T08:25:03.000Z</time>
      </trkpt>
      <trkpt lat="43.78596" lon="7.24433">
        <ele>520</ele>
        <time>2018-04-26T08:25:08.000Z</time>
      </trkpt>
      <trkpt lat="43.78598" lon="7.24433">
        <ele>521</ele>
        <time>2018-04-26T08:25:10.000Z</time>
      </trkpt>
      <trkpt lat="43.786" lon="7.24433">
        <ele>521</ele>
        <time>2018-04-26T08:25:12.000Z</time>
      </trkpt>
      <trkpt lat="43.78607" lon="7.24432">
        <ele>522</ele>
        <time>2018-04-26T08:25:17.000Z</time>
      </trkpt>
      <trkpt lat="43.78618" lon="7.24428">
        <ele>523</ele>
        <time>2018-04-26T08:25:24.000Z</time>
      </trkpt>
      <trkpt lat="43.78624" lon="7.24423">
        <ele>524</ele>
        <time>2018-04-26T08:25:29.000Z</time>
      </trkpt>
      <trkpt lat="43.78627" lon="7.24421">
        <ele>524</ele>
        <time>2018-04-26T08:25:31.000Z</time>
      </trkpt>
      <trkpt lat="43.78631" lon="7.24419">
        <ele>525</ele>
        <time>2018-04-26T08:25:34.000Z</time>
      </trkpt>
      <trkpt lat="43.78637" lon="7.24416">
        <ele>517</ele>
        <time>2018-04-26T08:25:38.000Z</time>
      </trkpt>
      <trkpt lat="43.78642" lon="7.24413">
        <ele>518</ele>
        <time>2018-04-26T08:25:42.000Z</time>
      </trkpt>
      <trkpt lat="43.78646" lon="7.24409">
        <ele>518</ele>
        <time>2018-04-26T08:25:45.000Z</time>
      </trkpt>
      <trkpt lat="43.78647" lon="7.24408">
        <ele>518</ele>
        <time>2018-04-26T08:25:46.000Z</time>
      </trkpt>
      <trkpt lat="43.78653" lon="7.24405">
        <ele>519</ele>
        <time>2018-04-26T08:25:51.000Z</time>
      </trkpt>
      <trkpt lat="43.78655" lon="7.24405">
        <ele>520</ele>
        <time>2018-04-26T08:25:52.000Z</time>
      </trkpt>
      <trkpt lat="43.78661" lon="7.24406">
        <ele>522</ele>
        <time>2018-04-26T08:25:57.000Z</time>
      </trkpt>
      <trkpt lat="43.78662" lon="7.24406">
        <ele>522</ele>
        <time>2018-04-26T08:25:58.000Z</time>
      </trkpt>
      <trkpt lat="43.78667" lon="7.24405">
        <ele>524</ele>
        <time>2018-04-26T08:26:03.000Z</time>
      </trkpt>
      <trkpt lat="43.78668" lon="7.24405">
        <ele>524</ele>
        <time>2018-04-26T08:26:04.000Z</time>
      </trkpt>
      <trkpt lat="43.78671" lon="7.24404">
        <ele>524</ele>
        <time>2018-04-26T08:26:07.000Z</time>
      </trkpt>
      <trkpt lat="43.78676" lon="7.24404">
        <ele>523</ele>
        <time>2018-04-26T08:26:10.000Z</time>
      </trkpt>
      <trkpt lat="43.78679" lon="7.24403">
        <ele>523</ele>
        <time>2018-04-26T08:26:13.000Z</time>
      </trkpt>
      <trkpt lat="43.78684" lon="7.24402">
        <ele>522</ele>
        <time>2018-04-26T08:26:18.000Z</time>
      </trkpt>
      <trkpt lat="43.78686" lon="7.24403">
        <ele>522</ele>
        <time>2018-04-26T08:26:20.000Z</time>
      </trkpt>
      <trkpt lat="43.78691" lon="7.24402">
        <ele>521</ele>
        <time>2018-04-26T08:26:24.000Z</time>
      </trkpt>
      <trkpt lat="43.78692" lon="7.24402">
        <ele>521</ele>
        <time>2018-04-26T08:26:25.000Z</time>
      </trkpt>
      <trkpt lat="43.78701" lon="7.24402">
        <ele>521</ele>
        <time>2018-04-26T08:26:32.000Z</time>
      </trkpt>
      <trkpt lat="43.78706" lon="7.24403">
        <ele>521</ele>
        <time>2018-04-26T08:26:36.000Z</time>
      </trkpt>
      <trkpt lat="43.78709" lon="7.24404">
        <ele>521</ele>
        <time>2018-04-26T08:26:38.000Z</time>
      </trkpt>
      <trkpt lat="43.7871" lon="7.24404">
        <ele>521</ele>
        <time>2018-04-26T08:26:39.000Z</time>
      </trkpt>
      <trkpt lat="43.78711" lon="7.24404">
        <ele>521</ele>
        <time>2018-04-26T08:26:40.000Z</time>
      </trkpt>
      <trkpt lat="43.78713" lon="7.24406">
        <ele>522</ele>
        <time>2018-04-26T08:26:42.000Z</time>
      </trkpt>
      <trkpt lat="43.78716" lon="7.24408">
        <ele>522</ele>
        <time>2018-04-26T08:26:45.000Z</time>
      </trkpt>
      <trkpt lat="43.78717" lon="7.24409">
        <ele>522</ele>
        <time>2018-04-26T08:26:47.000Z</time>
      </trkpt>
      <trkpt lat="43.78721" lon="7.24411">
        <ele>523</ele>
        <time>2018-04-26T08:26:50.000Z</time>
      </trkpt>
      <trkpt lat="43.78724" lon="7.24413">
        <ele>523</ele>
        <time>2018-04-26T08:26:53.000Z</time>
      </trkpt>
      <trkpt lat="43.78727" lon="7.24414">
        <ele>524</ele>
        <time>2018-04-26T08:26:56.000Z</time>
      </trkpt>
      <trkpt lat="43.78729" lon="7.24416">
        <ele>525</ele>
        <time>2018-04-26T08:26:58.000Z</time>
      </trkpt>
      <trkpt lat="43.78733" lon="7.2442">
        <ele>536</ele>
        <time>2018-04-26T08:27:03.000Z</time>
      </trkpt>
      <trkpt lat="43.78735" lon="7.24421">
        <ele>536</ele>
        <time>2018-04-26T08:27:04.000Z</time>
      </trkpt>
      <trkpt lat="43.78739" lon="7.24426">
        <ele>536</ele>
        <time>2018-04-26T08:27:08.000Z</time>
      </trkpt>
      <trkpt lat="43.7874" lon="7.24427">
        <ele>536</ele>
        <time>2018-04-26T08:27:09.000Z</time>
      </trkpt>
      <trkpt lat="43.78742" lon="7.2443">
        <ele>536</ele>
        <time>2018-04-26T08:27:12.000Z</time>
      </trkpt>
      <trkpt lat="43.78745" lon="7.24433">
        <ele>536</ele>
        <time>2018-04-26T08:27:15.000Z</time>
      </trkpt>
      <trkpt lat="43.78747" lon="7.24435">
        <ele>537</ele>
        <time>2018-04-26T08:27:17.000Z</time>
      </trkpt>
      <trkpt lat="43.78752" lon="7.2444">
        <ele>536</ele>
        <time>2018-04-26T08:27:22.000Z</time>
      </trkpt>
      <trkpt lat="43.78753" lon="7.24441">
        <ele>536</ele>
        <time>2018-04-26T08:27:23.000Z</time>
      </trkpt>
      <trkpt lat="43.78757" lon="7.24449">
        <ele>537</ele>
        <time>2018-04-26T08:27:29.000Z</time>
      </trkpt>
      <trkpt lat="43.78761" lon="7.24456">
        <ele>538</ele>
        <time>2018-04-26T08:27:34.000Z</time>
      </trkpt>
      <trkpt lat="43.78761" lon="7.24457">
        <ele>539</ele>
        <time>2018-04-26T08:27:35.000Z</time>
      </trkpt>
      <trkpt lat="43.78762" lon="7.24463">
        <ele>540</ele>
        <time>2018-04-26T08:27:39.000Z</time>
      </trkpt>
      <trkpt lat="43.78764" lon="7.24467">
        <ele>540</ele>
        <time>2018-04-26T08:27:42.000Z</time>
      </trkpt>
      <trkpt lat="43.78765" lon="7.24469">
        <ele>541</ele>
        <time>2018-04-26T08:27:43.000Z</time>
      </trkpt>
      <trkpt lat="43.78766" lon="7.2447">
        <ele>541</ele>
        <time>2018-04-26T08:27:44.000Z</time>
      </trkpt>
      <trkpt lat="43.78768" lon="7.2448">
        <ele>542</ele>
        <time>2018-04-26T08:27:50.000Z</time>
      </trkpt>
      <trkpt lat="43.78769" lon="7.24482">
        <ele>543</ele>
        <time>2018-04-26T08:27:51.000Z</time>
      </trkpt>
      <trkpt lat="43.7877" lon="7.24491">
        <ele>544</ele>
        <time>2018-04-26T08:27:56.000Z</time>
      </trkpt>
      <trkpt lat="43.78771" lon="7.24495">
        <ele>544</ele>
        <time>2018-04-26T08:27:58.000Z</time>
      </trkpt>
      <trkpt lat="43.78776" lon="7.24505">
        <ele>555</ele>
        <time>2018-04-26T08:28:05.000Z</time>
      </trkpt>
      <trkpt lat="43.78777" lon="7.24506">
        <ele>555</ele>
        <time>2018-04-26T08:28:06.000Z</time>
      </trkpt>
      <trkpt lat="43.78778" lon="7.24507">
        <ele>555</ele>
        <time>2018-04-26T08:28:11.000Z</time>
      </trkpt>
      <trkpt lat="43.78778" lon="7.24506">
        <ele>555</ele>
        <time>2018-04-26T08:28:12.000Z</time>
      </trkpt>
      <trkpt lat="43.78779" lon="7.24506">
        <ele>555</ele>
        <time>2018-04-26T08:28:17.000Z</time>
      </trkpt>
      <trkpt lat="43.78779" lon="7.24506">
        <ele>555</ele>
        <time>2018-04-26T08:28:23.000Z</time>
      </trkpt>
      <trkpt lat="43.78779" lon="7.24504">
        <ele>555</ele>
        <time>2018-04-26T08:28:30.000Z</time>
      </trkpt>
      <trkpt lat="43.7878" lon="7.24504">
        <ele>555</ele>
        <time>2018-04-26T08:28:38.000Z</time>
      </trkpt>
      <trkpt lat="43.7878" lon="7.24504">
        <ele>555</ele>
        <time>2018-04-26T08:28:49.000Z</time>
      </trkpt>
      <trkpt lat="43.7878" lon="7.24504">
        <ele>555</ele>
        <time>2018-04-26T08:28:58.000Z</time>
      </trkpt>
      <trkpt lat="43.78779" lon="7.24503">
        <ele>555</ele>
        <time>2018-04-26T08:29:06.000Z</time>
      </trkpt>
      <trkpt lat="43.7878" lon="7.24502">
        <ele>555</ele>
        <time>2018-04-26T08:29:12.000Z</time>
      </trkpt>
      <trkpt lat="43.78779" lon="7.24501">
        <ele>555</ele>
        <time>2018-04-26T08:29:22.000Z</time>
      </trkpt>
      <trkpt lat="43.7878" lon="7.24501">
        <ele>555</ele>
        <time>2018-04-26T08:29:30.000Z</time>
      </trkpt>
      <trkpt lat="43.7878" lon="7.24501">
        <ele>555</ele>
        <time>2018-04-26T08:29:38.000Z</time>
      </trkpt>
      <trkpt lat="43.7878" lon="7.24501">
        <ele>555</ele>
        <time>2018-04-26T08:29:45.000Z</time>
      </trkpt>
      <trkpt lat="43.78778" lon="7.245">
        <ele>555</ele>
        <time>2018-04-26T08:29:53.000Z</time>
      </trkpt>
      <trkpt lat="43.78778" lon="7.245">
        <ele>555</ele>
        <time>2018-04-26T08:29:56.000Z</time>
      </trkpt>
      <trkpt lat="43.78777" lon="7.24501">
        <ele>555</ele>
        <time>2018-04-26T08:30:00.000Z</time>
      </trkpt>
      <trkpt lat="43.78775" lon="7.245">
        <ele>544</ele>
        <time>2018-04-26T08:30:09.000Z</time>
      </trkpt>
      <trkpt lat="43.78776" lon="7.245">
        <ele>555</ele>
        <time>2018-04-26T08:30:14.000Z</time>
      </trkpt>
      <trkpt lat="43.78777" lon="7.245">
        <ele>555</ele>
        <time>2018-04-26T08:30:19.000Z</time>
      </trkpt>
      <trkpt lat="43.78779" lon="7.24501">
        <ele>555</ele>
        <time>2018-04-26T08:30:21.000Z</time>
      </trkpt>
      <trkpt lat="43.78781" lon="7.24502">
        <ele>555</ele>
        <time>2018-04-26T08:30:23.000Z</time>
      </trkpt>
      <trkpt lat="43.78786" lon="7.24507">
        <ele>555</ele>
        <time>2018-04-26T08:30:28.000Z</time>
      </trkpt>
      <trkpt lat="43.78788" lon="7.24509">
        <ele>555</ele>
        <time>2018-04-26T08:30:30.000Z</time>
      </trkpt>
      <trkpt lat="43.78792" lon="7.24512">
        <ele>555</ele>
        <time>2018-04-26T08:30:34.000Z</time>
      </trkpt>
      <trkpt lat="43.78794" lon="7.24514">
        <ele>555</ele>
        <time>2018-04-26T08:30:36.000Z</time>
      </trkpt>
      <trkpt lat="43.78797" lon="7.24518">
        <ele>555</ele>
        <time>2018-04-26T08:30:40.000Z</time>
      </trkpt>
      <trkpt lat="43.788" lon="7.2452">
        <ele>555</ele>
        <time>2018-04-26T08:30:43.000Z</time>
      </trkpt>
      <trkpt lat="43.78803" lon="7.24523">
        <ele>555</ele>
        <time>2018-04-26T08:30:48.000Z</time>
      </trkpt>
      <trkpt lat="43.78806" lon="7.24527">
        <ele>555</ele>
        <time>2018-04-26T08:30:52.000Z</time>
      </trkpt>
      <trkpt lat="43.78807" lon="7.24529">
        <ele>556</ele>
        <time>2018-04-26T08:30:54.000Z</time>
      </trkpt>
      <trkpt lat="43.7881" lon="7.24532">
        <ele>556</ele>
        <time>2018-04-26T08:30:57.000Z</time>
      </trkpt>
      <trkpt lat="43.78811" lon="7.24534">
        <ele>556</ele>
        <time>2018-04-26T08:30:59.000Z</time>
      </trkpt>
      <trkpt lat="43.78816" lon="7.24537">
        <ele>556</ele>
        <time>2018-04-26T08:31:03.000Z</time>
      </trkpt>
      <trkpt lat="43.78816" lon="7.24537">
        <ele>557</ele>
        <time>2018-04-26T08:31:04.000Z</time>
      </trkpt>
      <trkpt lat="43.78819" lon="7.2454">
        <ele>557</ele>
        <time>2018-04-26T08:31:07.000Z</time>
      </trkpt>
      <trkpt lat="43.7882" lon="7.24541">
        <ele>557</ele>
        <time>2018-04-26T08:31:08.000Z</time>
      </trkpt>
      <trkpt lat="43.78821" lon="7.24541">
        <ele>557</ele>
        <time>2018-04-26T08:31:09.000Z</time>
      </trkpt>
      <trkpt lat="43.78824" lon="7.24541">
        <ele>557</ele>
        <time>2018-04-26T08:31:11.000Z</time>
      </trkpt>
      <trkpt lat="43.78825" lon="7.24542">
        <ele>557</ele>
        <time>2018-04-26T08:31:12.000Z</time>
      </trkpt>
      <trkpt lat="43.78826" lon="7.24546">
        <ele>558</ele>
        <time>2018-04-26T08:31:15.000Z</time>
      </trkpt>
      <trkpt lat="43.78827" lon="7.24546">
        <ele>558</ele>
        <time>2018-04-26T08:31:16.000Z</time>
      </trkpt>
      <trkpt lat="43.78828" lon="7.24546">
        <ele>558</ele>
        <time>2018-04-26T08:31:17.000Z</time>
      </trkpt>
      <trkpt lat="43.7883" lon="7.24549">
        <ele>558</ele>
        <time>2018-04-26T08:31:19.000Z</time>
      </trkpt>
      <trkpt lat="43.78833" lon="7.24553">
        <ele>559</ele>
        <time>2018-04-26T08:31:23.000Z</time>
      </trkpt>
      <trkpt lat="43.78834" lon="7.24554">
        <ele>559</ele>
        <time>2018-04-26T08:31:24.000Z</time>
      </trkpt>
      <trkpt lat="43.78837" lon="7.24558">
        <ele>560</ele>
        <time>2018-04-26T08:31:28.000Z</time>
      </trkpt>
      <trkpt lat="43.78837" lon="7.2456">
        <ele>560</ele>
        <time>2018-04-26T08:31:30.000Z</time>
      </trkpt>
      <trkpt lat="43.78838" lon="7.24562">
        <ele>561</ele>
        <time>2018-04-26T08:31:31.000Z</time>
      </trkpt>
      <trkpt lat="43.78838" lon="7.24566">
        <ele>562</ele>
        <time>2018-04-26T08:31:34.000Z</time>
      </trkpt>
      <trkpt lat="43.78839" lon="7.2457">
        <ele>563</ele>
        <time>2018-04-26T08:31:37.000Z</time>
      </trkpt>
      <trkpt lat="43.78838" lon="7.24575">
        <ele>564</ele>
        <time>2018-04-26T08:31:42.000Z</time>
      </trkpt>
      <trkpt lat="43.78837" lon="7.24578">
        <ele>565</ele>
        <time>2018-04-26T08:31:44.000Z</time>
      </trkpt>
      <trkpt lat="43.78834" lon="7.24582">
        <ele>567</ele>
        <time>2018-04-26T08:31:48.000Z</time>
      </trkpt>
      <trkpt lat="43.78831" lon="7.24585">
        <ele>568</ele>
        <time>2018-04-26T08:31:52.000Z</time>
      </trkpt>
      <trkpt lat="43.78828" lon="7.24586">
        <ele>568</ele>
        <time>2018-04-26T08:31:55.000Z</time>
      </trkpt>
      <trkpt lat="43.78825" lon="7.24588">
        <ele>568</ele>
        <time>2018-04-26T08:31:57.000Z</time>
      </trkpt>
      <trkpt lat="43.78824" lon="7.24589">
        <ele>568</ele>
        <time>2018-04-26T08:31:58.000Z</time>
      </trkpt>
      <trkpt lat="43.78814" lon="7.24594">
        <ele>567</ele>
        <time>2018-04-26T08:32:05.000Z</time>
      </trkpt>
      <trkpt lat="43.78813" lon="7.24595">
        <ele>567</ele>
        <time>2018-04-26T08:32:06.000Z</time>
      </trkpt>
      <trkpt lat="43.78814" lon="7.24605">
        <ele>568</ele>
        <time>2018-04-26T08:32:10.000Z</time>
      </trkpt>
      <trkpt lat="43.78815" lon="7.24607">
        <ele>568</ele>
        <time>2018-04-26T08:32:11.000Z</time>
      </trkpt>
      <trkpt lat="43.78822" lon="7.2462">
        <ele>568</ele>
        <time>2018-04-26T08:32:17.000Z</time>
      </trkpt>
      <trkpt lat="43.78823" lon="7.24622">
        <ele>568</ele>
        <time>2018-04-26T08:32:18.000Z</time>
      </trkpt>
      <trkpt lat="43.78829" lon="7.24628">
        <ele>569</ele>
        <time>2018-04-26T08:32:23.000Z</time>
      </trkpt>
      <trkpt lat="43.78831" lon="7.24631">
        <ele>569</ele>
        <time>2018-04-26T08:32:25.000Z</time>
      </trkpt>
      <trkpt lat="43.78833" lon="7.24632">
        <ele>569</ele>
        <time>2018-04-26T08:32:26.000Z</time>
      </trkpt>
      <trkpt lat="43.78838" lon="7.24637">
        <ele>574</ele>
        <time>2018-04-26T08:32:31.000Z</time>
      </trkpt>
      <trkpt lat="43.7884" lon="7.24638">
        <ele>574</ele>
        <time>2018-04-26T08:32:32.000Z</time>
      </trkpt>
      <trkpt lat="43.78844" lon="7.24642">
        <ele>574</ele>
        <time>2018-04-26T08:32:36.000Z</time>
      </trkpt>
      <trkpt lat="43.78845" lon="7.24643">
        <ele>574</ele>
        <time>2018-04-26T08:32:37.000Z</time>
      </trkpt>
      <trkpt lat="43.7885" lon="7.24648">
        <ele>574</ele>
        <time>2018-04-26T08:32:42.000Z</time>
      </trkpt>
      <trkpt lat="43.78851" lon="7.24649">
        <ele>574</ele>
        <time>2018-04-26T08:32:43.000Z</time>
      </trkpt>
      <trkpt lat="43.78852" lon="7.24651">
        <ele>574</ele>
        <time>2018-04-26T08:32:44.000Z</time>
      </trkpt>
      <trkpt lat="43.78855" lon="7.24654">
        <ele>575</ele>
        <time>2018-04-26T08:32:48.000Z</time>
      </trkpt>
      <trkpt lat="43.78858" lon="7.24655">
        <ele>575</ele>
        <time>2018-04-26T08:32:50.000Z</time>
      </trkpt>
      <trkpt lat="43.78863" lon="7.24656">
        <ele>575</ele>
        <time>2018-04-26T08:32:54.000Z</time>
      </trkpt>
      <trkpt lat="43.78867" lon="7.24656">
        <ele>575</ele>
        <time>2018-04-26T08:32:57.000Z</time>
      </trkpt>
      <trkpt lat="43.78873" lon="7.24655">
        <ele>575</ele>
        <time>2018-04-26T08:33:01.000Z</time>
      </trkpt>
      <trkpt lat="43.78876" lon="7.24653">
        <ele>575</ele>
        <time>2018-04-26T08:33:03.000Z</time>
      </trkpt>
      <trkpt lat="43.78889" lon="7.24642">
        <ele>575</ele>
        <time>2018-04-26T08:33:12.000Z</time>
      </trkpt>
      <trkpt lat="43.78894" lon="7.2464">
        <ele>575</ele>
        <time>2018-04-26T08:33:15.000Z</time>
      </trkpt>
      <trkpt lat="43.78902" lon="7.2464">
        <ele>576</ele>
        <time>2018-04-26T08:33:19.000Z</time>
      </trkpt>
      <trkpt lat="43.78915" lon="7.24642">
        <ele>576</ele>
        <time>2018-04-26T08:33:26.000Z</time>
      </trkpt>
      <trkpt lat="43.78917" lon="7.24642">
        <ele>576</ele>
        <time>2018-04-26T08:33:27.000Z</time>
      </trkpt>
      <trkpt lat="43.78926" lon="7.24645">
        <ele>576</ele>
        <time>2018-04-26T08:33:32.000Z</time>
      </trkpt>
      <trkpt lat="43.78933" lon="7.24651">
        <ele>577</ele>
        <time>2018-04-26T08:33:36.000Z</time>
      </trkpt>
      <trkpt lat="43.78941" lon="7.24666">
        <ele>577</ele>
        <time>2018-04-26T08:33:43.000Z</time>
      </trkpt>
      <trkpt lat="43.78944" lon="7.24672">
        <ele>590</ele>
        <time>2018-04-26T08:33:46.000Z</time>
      </trkpt>
      <trkpt lat="43.78948" lon="7.24678">
        <ele>591</ele>
        <time>2018-04-26T08:33:49.000Z</time>
      </trkpt>
      <trkpt lat="43.78955" lon="7.24686">
        <ele>592</ele>
        <time>2018-04-26T08:33:54.000Z</time>
      </trkpt>
      <trkpt lat="43.78959" lon="7.24688">
        <ele>592</ele>
        <time>2018-04-26T08:33:56.000Z</time>
      </trkpt>
      <trkpt lat="43.78972" lon="7.24694">
        <ele>593</ele>
        <time>2018-04-26T08:34:03.000Z</time>
      </trkpt>
      <trkpt lat="43.78974" lon="7.24695">
        <ele>593</ele>
        <time>2018-04-26T08:34:04.000Z</time>
      </trkpt>
      <trkpt lat="43.78986" lon="7.24693">
        <ele>592</ele>
        <time>2018-04-26T08:34:11.000Z</time>
      </trkpt>
      <trkpt lat="43.79001" lon="7.24689">
        <ele>596</ele>
        <time>2018-04-26T08:34:19.000Z</time>
      </trkpt>
      <trkpt lat="43.79004" lon="7.24687">
        <ele>596</ele>
        <time>2018-04-26T08:34:21.000Z</time>
      </trkpt>
      <trkpt lat="43.79012" lon="7.24685">
        <ele>596</ele>
        <time>2018-04-26T08:34:25.000Z</time>
      </trkpt>
      <trkpt lat="43.79019" lon="7.24682">
        <ele>597</ele>
        <time>2018-04-26T08:34:29.000Z</time>
      </trkpt>
      <trkpt lat="43.79028" lon="7.24679">
        <ele>598</ele>
        <time>2018-04-26T08:34:34.000Z</time>
      </trkpt>
      <trkpt lat="43.79036" lon="7.24679">
        <ele>600</ele>
        <time>2018-04-26T08:34:38.000Z</time>
      </trkpt>
      <trkpt lat="43.79041" lon="7.24681">
        <ele>600</ele>
        <time>2018-04-26T08:34:42.000Z</time>
      </trkpt>
      <trkpt lat="43.79042" lon="7.24681">
        <ele>601</ele>
        <time>2018-04-26T08:34:43.000Z</time>
      </trkpt>
      <trkpt lat="43.7905" lon="7.24684">
        <ele>601</ele>
        <time>2018-04-26T08:34:47.000Z</time>
      </trkpt>
      <trkpt lat="43.7906" lon="7.24681">
        <ele>601</ele>
        <time>2018-04-26T08:34:52.000Z</time>
      </trkpt>
      <trkpt lat="43.79062" lon="7.2468">
        <ele>601</ele>
        <time>2018-04-26T08:34:53.000Z</time>
      </trkpt>
      <trkpt lat="43.79074" lon="7.24676">
        <ele>599</ele>
        <time>2018-04-26T08:34:58.000Z</time>
      </trkpt>
      <trkpt lat="43.79086" lon="7.24674">
        <ele>601</ele>
        <time>2018-04-26T08:35:03.000Z</time>
      </trkpt>
      <trkpt lat="43.79088" lon="7.24674">
        <ele>602</ele>
        <time>2018-04-26T08:35:04.000Z</time>
      </trkpt>
      <trkpt lat="43.79105" lon="7.24669">
        <ele>609</ele>
        <time>2018-04-26T08:35:11.000Z</time>
      </trkpt>
      <trkpt lat="43.79113" lon="7.24666">
        <ele>593</ele>
        <time>2018-04-26T08:35:14.000Z</time>
      </trkpt>
      <trkpt lat="43.79125" lon="7.24662">
        <ele>594</ele>
        <time>2018-04-26T08:35:19.000Z</time>
      </trkpt>
      <trkpt lat="43.79135" lon="7.24657">
        <ele>596</ele>
        <time>2018-04-26T08:35:24.000Z</time>
      </trkpt>
      <trkpt lat="43.79136" lon="7.24656">
        <ele>596</ele>
        <time>2018-04-26T08:35:25.000Z</time>
      </trkpt>
      <trkpt lat="43.79146" lon="7.24654">
        <ele>598</ele>
        <time>2018-04-26T08:35:30.000Z</time>
      </trkpt>
      <trkpt lat="43.79154" lon="7.24651">
        <ele>599</ele>
        <time>2018-04-26T08:35:34.000Z</time>
      </trkpt>
      <trkpt lat="43.79159" lon="7.24649">
        <ele>600</ele>
        <time>2018-04-26T08:35:36.000Z</time>
      </trkpt>
      <trkpt lat="43.79178" lon="7.24646">
        <ele>611</ele>
        <time>2018-04-26T08:35:44.000Z</time>
      </trkpt>
      <trkpt lat="43.79191" lon="7.2464">
        <ele>611</ele>
        <time>2018-04-26T08:35:51.000Z</time>
      </trkpt>
      <trkpt lat="43.79192" lon="7.24638">
        <ele>611</ele>
        <time>2018-04-26T08:35:52.000Z</time>
      </trkpt>
      <trkpt lat="43.792" lon="7.24632">
        <ele>611</ele>
        <time>2018-04-26T08:35:57.000Z</time>
      </trkpt>
      <trkpt lat="43.79203" lon="7.24629">
        <ele>611</ele>
        <time>2018-04-26T08:35:59.000Z</time>
      </trkpt>
      <trkpt lat="43.79212" lon="7.24612">
        <ele>610</ele>
        <time>2018-04-26T08:36:07.000Z</time>
      </trkpt>
      <trkpt lat="43.79213" lon="7.24609">
        <ele>610</ele>
        <time>2018-04-26T08:36:08.000Z</time>
      </trkpt>
      <trkpt lat="43.79218" lon="7.24596">
        <ele>610</ele>
        <time>2018-04-26T08:36:13.000Z</time>
      </trkpt>
      <trkpt lat="43.79222" lon="7.24586">
        <ele>610</ele>
        <time>2018-04-26T08:36:17.000Z</time>
      </trkpt>
      <trkpt lat="43.79227" lon="7.24573">
        <ele>598</ele>
        <time>2018-04-26T08:36:22.000Z</time>
      </trkpt>
      <trkpt lat="43.79229" lon="7.24569">
        <ele>598</ele>
        <time>2018-04-26T08:36:24.000Z</time>
      </trkpt>
      <trkpt lat="43.79235" lon="7.24558">
        <ele>597</ele>
        <time>2018-04-26T08:36:29.000Z</time>
      </trkpt>
      <trkpt lat="43.7924" lon="7.2455">
        <ele>596</ele>
        <time>2018-04-26T08:36:33.000Z</time>
      </trkpt>
      <trkpt lat="43.79246" lon="7.24543">
        <ele>595</ele>
        <time>2018-04-26T08:36:37.000Z</time>
      </trkpt>
      <trkpt lat="43.79253" lon="7.24536">
        <ele>614</ele>
        <time>2018-04-26T08:36:42.000Z</time>
      </trkpt>
      <trkpt lat="43.79258" lon="7.24532">
        <ele>613</ele>
        <time>2018-04-26T08:36:45.000Z</time>
      </trkpt>
      <trkpt lat="43.79266" lon="7.24525">
        <ele>613</ele>
        <time>2018-04-26T08:36:50.000Z</time>
      </trkpt>
      <trkpt lat="43.79269" lon="7.24523">
        <ele>613</ele>
        <time>2018-04-26T08:36:52.000Z</time>
      </trkpt>
      <trkpt lat="43.79276" lon="7.24518">
        <ele>614</ele>
        <time>2018-04-26T08:36:56.000Z</time>
      </trkpt>
      <trkpt lat="43.79282" lon="7.24512">
        <ele>615</ele>
        <time>2018-04-26T08:37:00.000Z</time>
      </trkpt>
      <trkpt lat="43.79288" lon="7.24507">
        <ele>616</ele>
        <time>2018-04-26T08:37:03.000Z</time>
      </trkpt>
      <trkpt lat="43.79294" lon="7.245">
        <ele>617</ele>
        <time>2018-04-26T08:37:07.000Z</time>
      </trkpt>
      <trkpt lat="43.79304" lon="7.24489">
        <ele>605</ele>
        <time>2018-04-26T08:37:14.000Z</time>
      </trkpt>
      <trkpt lat="43.79306" lon="7.24487">
        <ele>605</ele>
        <time>2018-04-26T08:37:15.000Z</time>
      </trkpt>
      <trkpt lat="43.79313" lon="7.24475">
        <ele>605</ele>
        <time>2018-04-26T08:37:21.000Z</time>
      </trkpt>
      <trkpt lat="43.79314" lon="7.24473">
        <ele>604</ele>
        <time>2018-04-26T08:37:22.000Z</time>
      </trkpt>
      <trkpt lat="43.79322" lon="7.24465">
        <ele>604</ele>
        <time>2018-04-26T08:37:27.000Z</time>
      </trkpt>
      <trkpt lat="43.79327" lon="7.24463">
        <ele>604</ele>
        <time>2018-04-26T08:37:30.000Z</time>
      </trkpt>
      <trkpt lat="43.79333" lon="7.24459">
        <ele>603</ele>
        <time>2018-04-26T08:37:34.000Z</time>
      </trkpt>
      <trkpt lat="43.79337" lon="7.24456">
        <ele>622</ele>
        <time>2018-04-26T08:37:37.000Z</time>
      </trkpt>
      <trkpt lat="43.79346" lon="7.2445">
        <ele>622</ele>
        <time>2018-04-26T08:37:42.000Z</time>
      </trkpt>
      <trkpt lat="43.79356" lon="7.24444">
        <ele>622</ele>
        <time>2018-04-26T08:37:48.000Z</time>
      </trkpt>
      <trkpt lat="43.79358" lon="7.24441">
        <ele>622</ele>
        <time>2018-04-26T08:37:50.000Z</time>
      </trkpt>
      <trkpt lat="43.79364" lon="7.24437">
        <ele>622</ele>
        <time>2018-04-26T08:37:54.000Z</time>
      </trkpt>
      <trkpt lat="43.79369" lon="7.24433">
        <ele>623</ele>
        <time>2018-04-26T08:37:57.000Z</time>
      </trkpt>
      <trkpt lat="43.79372" lon="7.24432">
        <ele>624</ele>
        <time>2018-04-26T08:37:59.000Z</time>
      </trkpt>
      <trkpt lat="43.79383" lon="7.24424">
        <ele>626</ele>
        <time>2018-04-26T08:38:05.000Z</time>
      </trkpt>
      <trkpt lat="43.79396" lon="7.24415">
        <ele>613</ele>
        <time>2018-04-26T08:38:12.000Z</time>
      </trkpt>
      <trkpt lat="43.79406" lon="7.24408">
        <ele>617</ele>
        <time>2018-04-26T08:38:18.000Z</time>
      </trkpt>
      <trkpt lat="43.79409" lon="7.24405">
        <ele>617</ele>
        <time>2018-04-26T08:38:20.000Z</time>
      </trkpt>
      <trkpt lat="43.79416" lon="7.24399">
        <ele>615</ele>
        <time>2018-04-26T08:38:25.000Z</time>
      </trkpt>
      <trkpt lat="43.79422" lon="7.24394">
        <ele>629</ele>
        <time>2018-04-26T08:38:29.000Z</time>
      </trkpt>
      <trkpt lat="43.79428" lon="7.24388">
        <ele>629</ele>
        <time>2018-04-26T08:38:33.000Z</time>
      </trkpt>
      <trkpt lat="43.79434" lon="7.24382">
        <ele>628</ele>
        <time>2018-04-26T08:38:37.000Z</time>
      </trkpt>
      <trkpt lat="43.79442" lon="7.24374">
        <ele>628</ele>
        <time>2018-04-26T08:38:43.000Z</time>
      </trkpt>
      <trkpt lat="43.79443" lon="7.24372">
        <ele>628</ele>
        <time>2018-04-26T08:38:44.000Z</time>
      </trkpt>
      <trkpt lat="43.79452" lon="7.24364">
        <ele>628</ele>
        <time>2018-04-26T08:38:50.000Z</time>
      </trkpt>
      <trkpt lat="43.79458" lon="7.24358">
        <ele>628</ele>
        <time>2018-04-26T08:38:54.000Z</time>
      </trkpt>
      <trkpt lat="43.79461" lon="7.24356">
        <ele>629</ele>
        <time>2018-04-26T08:38:56.000Z</time>
      </trkpt>
      <trkpt lat="43.79469" lon="7.24348">
        <ele>630</ele>
        <time>2018-04-26T08:39:02.000Z</time>
      </trkpt>
      <trkpt lat="43.79473" lon="7.24344">
        <ele>630</ele>
        <time>2018-04-26T08:39:05.000Z</time>
      </trkpt>
      <trkpt lat="43.7948" lon="7.24336">
        <ele>631</ele>
        <time>2018-04-26T08:39:10.000Z</time>
      </trkpt>
      <trkpt lat="43.79483" lon="7.24333">
        <ele>620</ele>
        <time>2018-04-26T08:39:12.000Z</time>
      </trkpt>
      <trkpt lat="43.79492" lon="7.24322">
        <ele>621</ele>
        <time>2018-04-26T08:39:18.000Z</time>
      </trkpt>
      <trkpt lat="43.79495" lon="7.24319">
        <ele>621</ele>
        <time>2018-04-26T08:39:20.000Z</time>
      </trkpt>
      <trkpt lat="43.79502" lon="7.2431">
        <ele>636</ele>
        <time>2018-04-26T08:39:25.000Z</time>
      </trkpt>
      <trkpt lat="43.79505" lon="7.24307">
        <ele>636</ele>
        <time>2018-04-26T08:39:27.000Z</time>
      </trkpt>
      <trkpt lat="43.79512" lon="7.24297">
        <ele>636</ele>
        <time>2018-04-26T08:39:32.000Z</time>
      </trkpt>
      <trkpt lat="43.79513" lon="7.24296">
        <ele>636</ele>
        <time>2018-04-26T08:39:33.000Z</time>
      </trkpt>
      <trkpt lat="43.79523" lon="7.24284">
        <ele>636</ele>
        <time>2018-04-26T08:39:40.000Z</time>
      </trkpt>
      <trkpt lat="43.79525" lon="7.2428">
        <ele>635</ele>
        <time>2018-04-26T08:39:42.000Z</time>
      </trkpt>
      <trkpt lat="43.79532" lon="7.2427">
        <ele>636</ele>
        <time>2018-04-26T08:39:47.000Z</time>
      </trkpt>
      <trkpt lat="43.79538" lon="7.24262">
        <ele>637</ele>
        <time>2018-04-26T08:39:51.000Z</time>
      </trkpt>
      <trkpt lat="43.79542" lon="7.24257">
        <ele>638</ele>
        <time>2018-04-26T08:39:54.000Z</time>
      </trkpt>
      <trkpt lat="43.79552" lon="7.24239">
        <ele>632</ele>
        <time>2018-04-26T08:40:02.000Z</time>
      </trkpt>
      <trkpt lat="43.79553" lon="7.24237">
        <ele>632</ele>
        <time>2018-04-26T08:40:03.000Z</time>
      </trkpt>
      <trkpt lat="43.79559" lon="7.24221">
        <ele>632</ele>
        <time>2018-04-26T08:40:09.000Z</time>
      </trkpt>
      <trkpt lat="43.79562" lon="7.2421">
        <ele>632</ele>
        <time>2018-04-26T08:40:13.000Z</time>
      </trkpt>
      <trkpt lat="43.79566" lon="7.24198">
        <ele>632</ele>
        <time>2018-04-26T08:40:17.000Z</time>
      </trkpt>
      <trkpt lat="43.79568" lon="7.2419">
        <ele>633</ele>
        <time>2018-04-26T08:40:20.000Z</time>
      </trkpt>
      <trkpt lat="43.79573" lon="7.24179">
        <ele>636</ele>
        <time>2018-04-26T08:40:24.000Z</time>
      </trkpt>
      <trkpt lat="43.79576" lon="7.24172">
        <ele>639</ele>
        <time>2018-04-26T08:40:27.000Z</time>
      </trkpt>
      <trkpt lat="43.79578" lon="7.24166">
        <ele>642</ele>
        <time>2018-04-26T08:40:30.000Z</time>
      </trkpt>
      <trkpt lat="43.79581" lon="7.24157">
        <ele>640</ele>
        <time>2018-04-26T08:40:34.000Z</time>
      </trkpt>
      <trkpt lat="43.79585" lon="7.24152">
        <ele>656</ele>
        <time>2018-04-26T08:40:37.000Z</time>
      </trkpt>
      <trkpt lat="43.79589" lon="7.24156">
        <ele>655</ele>
        <time>2018-04-26T08:40:40.000Z</time>
      </trkpt>
      <trkpt lat="43.79589" lon="7.24159">
        <ele>653</ele>
        <time>2018-04-26T08:40:41.000Z</time>
      </trkpt>
      <trkpt lat="43.79587" lon="7.24168">
        <ele>648</ele>
        <time>2018-04-26T08:40:46.000Z</time>
      </trkpt>
      <trkpt lat="43.79585" lon="7.24171">
        <ele>649</ele>
        <time>2018-04-26T08:40:48.000Z</time>
      </trkpt>
      <trkpt lat="43.79583" lon="7.24179">
        <ele>638</ele>
        <time>2018-04-26T08:40:53.000Z</time>
      </trkpt>
      <trkpt lat="43.79582" lon="7.24181">
        <ele>638</ele>
        <time>2018-04-26T08:40:54.000Z</time>
      </trkpt>
      <trkpt lat="43.7958" lon="7.2419">
        <ele>635</ele>
        <time>2018-04-26T08:40:59.000Z</time>
      </trkpt>
      <trkpt lat="43.79579" lon="7.24197">
        <ele>635</ele>
        <time>2018-04-26T08:41:02.000Z</time>
      </trkpt>
      <trkpt lat="43.79578" lon="7.24203">
        <ele>634</ele>
        <time>2018-04-26T08:41:05.000Z</time>
      </trkpt>
      <trkpt lat="43.79576" lon="7.24212">
        <ele>635</ele>
        <time>2018-04-26T08:41:10.000Z</time>
      </trkpt>
      <trkpt lat="43.79576" lon="7.24216">
        <ele>635</ele>
        <time>2018-04-26T08:41:12.000Z</time>
      </trkpt>
      <trkpt lat="43.79575" lon="7.24224">
        <ele>637</ele>
        <time>2018-04-26T08:41:16.000Z</time>
      </trkpt>
      <trkpt lat="43.79575" lon="7.24228">
        <ele>638</ele>
        <time>2018-04-26T08:41:18.000Z</time>
      </trkpt>
      <trkpt lat="43.79574" lon="7.24239">
        <ele>641</ele>
        <time>2018-04-26T08:41:23.000Z</time>
      </trkpt>
      <trkpt lat="43.79572" lon="7.24248">
        <ele>643</ele>
        <time>2018-04-26T08:41:27.000Z</time>
      </trkpt>
      <trkpt lat="43.7957" lon="7.24255">
        <ele>648</ele>
        <time>2018-04-26T08:41:30.000Z</time>
      </trkpt>
      <trkpt lat="43.79569" lon="7.24263">
        <ele>646</ele>
        <time>2018-04-26T08:41:33.000Z</time>
      </trkpt>
      <trkpt lat="43.79566" lon="7.24273">
        <ele>645</ele>
        <time>2018-04-26T08:41:37.000Z</time>
      </trkpt>
      <trkpt lat="43.79564" lon="7.24277">
        <ele>645</ele>
        <time>2018-04-26T08:41:39.000Z</time>
      </trkpt>
      <trkpt lat="43.79558" lon="7.24291">
        <ele>645</ele>
        <time>2018-04-26T08:41:46.000Z</time>
      </trkpt>
      <trkpt lat="43.79556" lon="7.24296">
        <ele>646</ele>
        <time>2018-04-26T08:41:48.000Z</time>
      </trkpt>
      <trkpt lat="43.79553" lon="7.24304">
        <ele>646</ele>
        <time>2018-04-26T08:41:52.000Z</time>
      </trkpt>
      <trkpt lat="43.79547" lon="7.24316">
        <ele>646</ele>
        <time>2018-04-26T08:41:58.000Z</time>
      </trkpt>
      <trkpt lat="43.79544" lon="7.24322">
        <ele>646</ele>
        <time>2018-04-26T08:42:01.000Z</time>
      </trkpt>
      <trkpt lat="43.79537" lon="7.24334">
        <ele>659</ele>
        <time>2018-04-26T08:42:07.000Z</time>
      </trkpt>
      <trkpt lat="43.79535" lon="7.24339">
        <ele>659</ele>
        <time>2018-04-26T08:42:09.000Z</time>
      </trkpt>
      <trkpt lat="43.79528" lon="7.24351">
        <ele>658</ele>
        <time>2018-04-26T08:42:15.000Z</time>
      </trkpt>
      <trkpt lat="43.79521" lon="7.24363">
        <ele>659</ele>
        <time>2018-04-26T08:42:21.000Z</time>
      </trkpt>
      <trkpt lat="43.7952" lon="7.24365">
        <ele>659</ele>
        <time>2018-04-26T08:42:22.000Z</time>
      </trkpt>
      <trkpt lat="43.79513" lon="7.24377">
        <ele>661</ele>
        <time>2018-04-26T08:42:28.000Z</time>
      </trkpt>
      <trkpt lat="43.79511" lon="7.24381">
        <ele>661</ele>
        <time>2018-04-26T08:42:30.000Z</time>
      </trkpt>
      <trkpt lat="43.79505" lon="7.24391">
        <ele>662</ele>
        <time>2018-04-26T08:42:35.000Z</time>
      </trkpt>
      <trkpt lat="43.795" lon="7.24398">
        <ele>663</ele>
        <time>2018-04-26T08:42:39.000Z</time>
      </trkpt>
      <trkpt lat="43.79495" lon="7.24408">
        <ele>652</ele>
        <time>2018-04-26T08:42:44.000Z</time>
      </trkpt>
      <trkpt lat="43.79494" lon="7.2441">
        <ele>653</ele>
        <time>2018-04-26T08:42:45.000Z</time>
      </trkpt>
      <trkpt lat="43.79485" lon="7.24425">
        <ele>661</ele>
        <time>2018-04-26T08:42:52.000Z</time>
      </trkpt>
      <trkpt lat="43.79483" lon="7.24428">
        <ele>661</ele>
        <time>2018-04-26T08:42:54.000Z</time>
      </trkpt>
      <trkpt lat="43.79476" lon="7.24442">
        <ele>662</ele>
        <time>2018-04-26T08:43:00.000Z</time>
      </trkpt>
      <trkpt lat="43.79475" lon="7.24444">
        <ele>662</ele>
        <time>2018-04-26T08:43:01.000Z</time>
      </trkpt>
      <trkpt lat="43.79466" lon="7.24454">
        <ele>662</ele>
        <time>2018-04-26T08:43:07.000Z</time>
      </trkpt>
      <trkpt lat="43.79455" lon="7.24466">
        <ele>662</ele>
        <time>2018-04-26T08:43:14.000Z</time>
      </trkpt>
      <trkpt lat="43.79452" lon="7.2447">
        <ele>662</ele>
        <time>2018-04-26T08:43:16.000Z</time>
      </trkpt>
      <trkpt lat="43.79444" lon="7.24479">
        <ele>662</ele>
        <time>2018-04-26T08:43:22.000Z</time>
      </trkpt>
      <trkpt lat="43.79442" lon="7.24481">
        <ele>662</ele>
        <time>2018-04-26T08:43:23.000Z</time>
      </trkpt>
      <trkpt lat="43.79434" lon="7.2449">
        <ele>662</ele>
        <time>2018-04-26T08:43:29.000Z</time>
      </trkpt>
      <trkpt lat="43.7943" lon="7.24494">
        <ele>661</ele>
        <time>2018-04-26T08:43:32.000Z</time>
      </trkpt>
      <trkpt lat="43.79421" lon="7.24504">
        <ele>667</ele>
        <time>2018-04-26T08:43:39.000Z</time>
      </trkpt>
      <trkpt lat="43.7942" lon="7.24505">
        <ele>667</ele>
        <time>2018-04-26T08:43:40.000Z</time>
      </trkpt>
      <trkpt lat="43.79413" lon="7.24513">
        <ele>659</ele>
        <time>2018-04-26T08:43:46.000Z</time>
      </trkpt>
      <trkpt lat="43.79411" lon="7.24516">
        <ele>659</ele>
        <time>2018-04-26T08:43:48.000Z</time>
      </trkpt>
      <trkpt lat="43.79404" lon="7.24525">
        <ele>660</ele>
        <time>2018-04-26T08:43:54.000Z</time>
      </trkpt>
      <trkpt lat="43.79401" lon="7.24529">
        <ele>660</ele>
        <time>2018-04-26T08:43:57.000Z</time>
      </trkpt>
      <trkpt lat="43.79393" lon="7.24541">
        <ele>661</ele>
        <time>2018-04-26T08:44:04.000Z</time>
      </trkpt>
      <trkpt lat="43.79392" lon="7.24543">
        <ele>661</ele>
        <time>2018-04-26T08:44:05.000Z</time>
      </trkpt>
      <trkpt lat="43.79384" lon="7.24555">
        <ele>661</ele>
        <time>2018-04-26T08:44:12.000Z</time>
      </trkpt>
      <trkpt lat="43.79377" lon="7.24567">
        <ele>662</ele>
        <time>2018-04-26T08:44:18.000Z</time>
      </trkpt>
      <trkpt lat="43.79375" lon="7.24571">
        <ele>661</ele>
        <time>2018-04-26T08:44:20.000Z</time>
      </trkpt>
      <trkpt lat="43.79372" lon="7.24579">
        <ele>661</ele>
        <time>2018-04-26T08:44:24.000Z</time>
      </trkpt>
      <trkpt lat="43.7937" lon="7.24585">
        <ele>676</ele>
        <time>2018-04-26T08:44:27.000Z</time>
      </trkpt>
      <trkpt lat="43.79367" lon="7.24593">
        <ele>675</ele>
        <time>2018-04-26T08:44:31.000Z</time>
      </trkpt>
      <trkpt lat="43.79366" lon="7.24597">
        <ele>675</ele>
        <time>2018-04-26T08:44:33.000Z</time>
      </trkpt>
      <trkpt lat="43.79361" lon="7.2461">
        <ele>676</ele>
        <time>2018-04-26T08:44:40.000Z</time>
      </trkpt>
      <trkpt lat="43.7936" lon="7.24612">
        <ele>676</ele>
        <time>2018-04-26T08:44:41.000Z</time>
      </trkpt>
      <trkpt lat="43.79356" lon="7.24625">
        <ele>677</ele>
        <time>2018-04-26T08:44:47.000Z</time>
      </trkpt>
      <trkpt lat="43.79356" lon="7.24627">
        <ele>677</ele>
        <time>2018-04-26T08:44:48.000Z</time>
      </trkpt>
      <trkpt lat="43.79349" lon="7.24645">
        <ele>678</ele>
        <time>2018-04-26T08:44:56.000Z</time>
      </trkpt>
      <trkpt lat="43.79348" lon="7.24647">
        <ele>677</ele>
        <time>2018-04-26T08:44:57.000Z</time>
      </trkpt>
      <trkpt lat="43.79343" lon="7.24664">
        <ele>675</ele>
        <time>2018-04-26T08:45:04.000Z</time>
      </trkpt>
      <trkpt lat="43.79342" lon="7.24666">
        <ele>675</ele>
        <time>2018-04-26T08:45:05.000Z</time>
      </trkpt>
      <trkpt lat="43.79338" lon="7.24681">
        <ele>681</ele>
        <time>2018-04-26T08:45:11.000Z</time>
      </trkpt>
      <trkpt lat="43.79334" lon="7.24696">
        <ele>685</ele>
        <time>2018-04-26T08:45:17.000Z</time>
      </trkpt>
      <trkpt lat="43.79332" lon="7.24704">
        <ele>666</ele>
        <time>2018-04-26T08:45:20.000Z</time>
      </trkpt>
      <trkpt lat="43.79332" lon="7.24709">
        <ele>667</ele>
        <time>2018-04-26T08:45:22.000Z</time>
      </trkpt>
      <trkpt lat="43.79328" lon="7.24728">
        <ele>669</ele>
        <time>2018-04-26T08:45:29.000Z</time>
      </trkpt>
      <trkpt lat="43.79326" lon="7.2475">
        <ele>677</ele>
        <time>2018-04-26T08:45:37.000Z</time>
      </trkpt>
      <trkpt lat="43.79327" lon="7.24753">
        <ele>676</ele>
        <time>2018-04-26T08:45:38.000Z</time>
      </trkpt>
      <trkpt lat="43.79329" lon="7.24774">
        <ele>672</ele>
        <time>2018-04-26T08:45:46.000Z</time>
      </trkpt>
      <trkpt lat="43.7933" lon="7.24776">
        <ele>671</ele>
        <time>2018-04-26T08:45:47.000Z</time>
      </trkpt>
      <trkpt lat="43.79335" lon="7.24782">
        <ele>682</ele>
        <time>2018-04-26T08:45:51.000Z</time>
      </trkpt>
      <trkpt lat="43.79336" lon="7.2478">
        <ele>683</ele>
        <time>2018-04-26T08:45:52.000Z</time>
      </trkpt>
      <trkpt lat="43.79338" lon="7.24773">
        <ele>683</ele>
        <time>2018-04-26T08:45:55.000Z</time>
      </trkpt>
      <trkpt lat="43.79337" lon="7.2477">
        <ele>683</ele>
        <time>2018-04-26T08:45:56.000Z</time>
      </trkpt>
      <trkpt lat="43.79336" lon="7.24763">
        <ele>682</ele>
        <time>2018-04-26T08:45:58.000Z</time>
      </trkpt>
      <trkpt lat="43.79336" lon="7.2476">
        <ele>682</ele>
        <time>2018-04-26T08:45:59.000Z</time>
      </trkpt>
      <trkpt lat="43.79336" lon="7.24747">
        <ele>682</ele>
        <time>2018-04-26T08:46:03.000Z</time>
      </trkpt>
      <trkpt lat="43.79337" lon="7.24744">
        <ele>683</ele>
        <time>2018-04-26T08:46:04.000Z</time>
      </trkpt>
      <trkpt lat="43.79345" lon="7.24719">
        <ele>688</ele>
        <time>2018-04-26T08:46:12.000Z</time>
      </trkpt>
      <trkpt lat="43.79357" lon="7.2468">
        <ele>687</ele>
        <time>2018-04-26T08:46:23.000Z</time>
      </trkpt>
      <trkpt lat="43.79364" lon="7.24659">
        <ele>681</ele>
        <time>2018-04-26T08:46:29.000Z</time>
      </trkpt>
      <trkpt lat="43.79367" lon="7.24652">
        <ele>682</ele>
        <time>2018-04-26T08:46:31.000Z</time>
      </trkpt>
      <trkpt lat="43.79381" lon="7.24623">
        <ele>683</ele>
        <time>2018-04-26T08:46:40.000Z</time>
      </trkpt>
      <trkpt lat="43.79393" lon="7.24604">
        <ele>684</ele>
        <time>2018-04-26T08:46:47.000Z</time>
      </trkpt>
      <trkpt lat="43.79405" lon="7.2459">
        <ele>687</ele>
        <time>2018-04-26T08:46:53.000Z</time>
      </trkpt>
      <trkpt lat="43.79407" lon="7.24588">
        <ele>688</ele>
        <time>2018-04-26T08:46:54.000Z</time>
      </trkpt>
      <trkpt lat="43.79423" lon="7.24573">
        <ele>693</ele>
        <time>2018-04-26T08:47:01.000Z</time>
      </trkpt>
      <trkpt lat="43.79428" lon="7.24568">
        <ele>693</ele>
        <time>2018-04-26T08:47:03.000Z</time>
      </trkpt>
      <trkpt lat="43.79441" lon="7.24556">
        <ele>694</ele>
        <time>2018-04-26T08:47:09.000Z</time>
      </trkpt>
      <trkpt lat="43.79445" lon="7.24552">
        <ele>694</ele>
        <time>2018-04-26T08:47:11.000Z</time>
      </trkpt>
      <trkpt lat="43.79462" lon="7.24536">
        <ele>695</ele>
        <time>2018-04-26T08:47:18.000Z</time>
      </trkpt>
      <trkpt lat="43.79482" lon="7.2452">
        <ele>696</ele>
        <time>2018-04-26T08:47:26.000Z</time>
      </trkpt>
      <trkpt lat="43.79487" lon="7.24515">
        <ele>695</ele>
        <time>2018-04-26T08:47:28.000Z</time>
      </trkpt>
      <trkpt lat="43.79503" lon="7.24499">
        <ele>695</ele>
        <time>2018-04-26T08:47:35.000Z</time>
      </trkpt>
      <trkpt lat="43.79508" lon="7.24495">
        <ele>696</ele>
        <time>2018-04-26T08:47:37.000Z</time>
      </trkpt>
      <trkpt lat="43.79518" lon="7.24486">
        <ele>697</ele>
        <time>2018-04-26T08:47:42.000Z</time>
      </trkpt>
      <trkpt lat="43.79524" lon="7.2448">
        <ele>697</ele>
        <time>2018-04-26T08:47:45.000Z</time>
      </trkpt>
      <trkpt lat="43.79525" lon="7.24479">
        <ele>697</ele>
        <time>2018-04-26T08:47:46.000Z</time>
      </trkpt>
      <trkpt lat="43.79536" lon="7.2447">
        <ele>698</ele>
        <time>2018-04-26T08:47:52.000Z</time>
      </trkpt>
      <trkpt lat="43.79538" lon="7.24468">
        <ele>698</ele>
        <time>2018-04-26T08:47:53.000Z</time>
      </trkpt>
      <trkpt lat="43.7955" lon="7.2446">
        <ele>699</ele>
        <time>2018-04-26T08:47:59.000Z</time>
      </trkpt>
      <trkpt lat="43.79553" lon="7.24456">
        <ele>699</ele>
        <time>2018-04-26T08:48:01.000Z</time>
      </trkpt>
      <trkpt lat="43.79558" lon="7.24448">
        <ele>698</ele>
        <time>2018-04-26T08:48:04.000Z</time>
      </trkpt>
      <trkpt lat="43.7957" lon="7.24435">
        <ele>698</ele>
        <time>2018-04-26T08:48:10.000Z</time>
      </trkpt>
      <trkpt lat="43.79577" lon="7.24428">
        <ele>697</ele>
        <time>2018-04-26T08:48:13.000Z</time>
      </trkpt>
      <trkpt lat="43.79588" lon="7.24416">
        <ele>698</ele>
        <time>2018-04-26T08:48:18.000Z</time>
      </trkpt>
      <trkpt lat="43.79596" lon="7.24408">
        <ele>700</ele>
        <time>2018-04-26T08:48:22.000Z</time>
      </trkpt>
      <trkpt lat="43.79606" lon="7.24396">
        <ele>702</ele>
        <time>2018-04-26T08:48:27.000Z</time>
      </trkpt>
      <trkpt lat="43.79614" lon="7.24388">
        <ele>703</ele>
        <time>2018-04-26T08:48:31.000Z</time>
      </trkpt>
      <trkpt lat="43.79615" lon="7.24387">
        <ele>703</ele>
        <time>2018-04-26T08:48:32.000Z</time>
      </trkpt>
      <trkpt lat="43.79625" lon="7.24375">
        <ele>704</ele>
        <time>2018-04-26T08:48:38.000Z</time>
      </trkpt>
      <trkpt lat="43.79634" lon="7.24365">
        <ele>704</ele>
        <time>2018-04-26T08:48:44.000Z</time>
      </trkpt>
      <trkpt lat="43.79636" lon="7.24363">
        <ele>704</ele>
        <time>2018-04-26T08:48:45.000Z</time>
      </trkpt>
      <trkpt lat="43.79647" lon="7.24353">
        <ele>705</ele>
        <time>2018-04-26T08:48:53.000Z</time>
      </trkpt>
      <trkpt lat="43.79656" lon="7.24342">
        <ele>705</ele>
        <time>2018-04-26T08:49:00.000Z</time>
      </trkpt>
      <trkpt lat="43.79657" lon="7.2434">
        <ele>706</ele>
        <time>2018-04-26T08:49:01.000Z</time>
      </trkpt>
      <trkpt lat="43.79668" lon="7.24326">
        <ele>710</ele>
        <time>2018-04-26T08:49:09.000Z</time>
      </trkpt>
      <trkpt lat="43.79672" lon="7.2432">
        <ele>711</ele>
        <time>2018-04-26T08:49:12.000Z</time>
      </trkpt>
      <trkpt lat="43.79678" lon="7.2431">
        <ele>713</ele>
        <time>2018-04-26T08:49:17.000Z</time>
      </trkpt>
      <trkpt lat="43.79686" lon="7.24296">
        <ele>714</ele>
        <time>2018-04-26T08:49:23.000Z</time>
      </trkpt>
      <trkpt lat="43.7969" lon="7.24288">
        <ele>714</ele>
        <time>2018-04-26T08:49:26.000Z</time>
      </trkpt>
      <trkpt lat="43.79702" lon="7.24262">
        <ele>713</ele>
        <time>2018-04-26T08:49:35.000Z</time>
      </trkpt>
      <trkpt lat="43.79714" lon="7.24235">
        <ele>707</ele>
        <time>2018-04-26T08:49:44.000Z</time>
      </trkpt>
      <trkpt lat="43.79717" lon="7.24227">
        <ele>708</ele>
        <time>2018-04-26T08:49:47.000Z</time>
      </trkpt>
      <trkpt lat="43.79723" lon="7.24215">
        <ele>708</ele>
        <time>2018-04-26T08:49:52.000Z</time>
      </trkpt>
      <trkpt lat="43.79723" lon="7.24213">
        <ele>708</ele>
        <time>2018-04-26T08:49:53.000Z</time>
      </trkpt>
      <trkpt lat="43.7973" lon="7.24197">
        <ele>708</ele>
        <time>2018-04-26T08:50:00.000Z</time>
      </trkpt>
      <trkpt lat="43.79736" lon="7.2419">
        <ele>709</ele>
        <time>2018-04-26T08:50:04.000Z</time>
      </trkpt>
      <trkpt lat="43.79737" lon="7.24184">
        <ele>709</ele>
        <time>2018-04-26T08:50:06.000Z</time>
      </trkpt>
      <trkpt lat="43.79739" lon="7.2416">
        <ele>710</ele>
        <time>2018-04-26T08:50:10.000Z</time>
      </trkpt>
      <trkpt lat="43.79741" lon="7.24153">
        <ele>709</ele>
        <time>2018-04-26T08:50:11.000Z</time>
      </trkpt>
      <trkpt lat="43.79747" lon="7.2414">
        <ele>708</ele>
        <time>2018-04-26T08:50:13.000Z</time>
      </trkpt>
      <trkpt lat="43.7975" lon="7.24135">
        <ele>708</ele>
        <time>2018-04-26T08:50:14.000Z</time>
      </trkpt>
      <trkpt lat="43.79753" lon="7.24129">
        <ele>719</ele>
        <time>2018-04-26T08:50:16.000Z</time>
      </trkpt>
      <trkpt lat="43.79756" lon="7.24122">
        <ele>719</ele>
        <time>2018-04-26T08:50:18.000Z</time>
      </trkpt>
      <trkpt lat="43.7976" lon="7.24114">
        <ele>719</ele>
        <time>2018-04-26T08:50:21.000Z</time>
      </trkpt>
      <trkpt lat="43.79762" lon="7.24111">
        <ele>719</ele>
        <time>2018-04-26T08:50:23.000Z</time>
      </trkpt>
      <trkpt lat="43.79764" lon="7.24107">
        <ele>719</ele>
        <time>2018-04-26T08:50:25.000Z</time>
      </trkpt>
      <trkpt lat="43.79769" lon="7.241">
        <ele>719</ele>
        <time>2018-04-26T08:50:29.000Z</time>
      </trkpt>
      <trkpt lat="43.79773" lon="7.24097">
        <ele>719</ele>
        <time>2018-04-26T08:50:32.000Z</time>
      </trkpt>
      <trkpt lat="43.79778" lon="7.24092">
        <ele>719</ele>
        <time>2018-04-26T08:50:36.000Z</time>
      </trkpt>
      <trkpt lat="43.79779" lon="7.24091">
        <ele>719</ele>
        <time>2018-04-26T08:50:37.000Z</time>
      </trkpt>
      <trkpt lat="43.79781" lon="7.24089">
        <ele>719</ele>
        <time>2018-04-26T08:50:39.000Z</time>
      </trkpt>
      <trkpt lat="43.79784" lon="7.24087">
        <ele>719</ele>
        <time>2018-04-26T08:50:41.000Z</time>
      </trkpt>
      <trkpt lat="43.79786" lon="7.24085">
        <ele>719</ele>
        <time>2018-04-26T08:50:43.000Z</time>
      </trkpt>
      <trkpt lat="43.79789" lon="7.24083">
        <ele>719</ele>
        <time>2018-04-26T08:50:45.000Z</time>
      </trkpt>
      <trkpt lat="43.798" lon="7.24081">
        <ele>716</ele>
        <time>2018-04-26T08:50:52.000Z</time>
      </trkpt>
      <trkpt lat="43.79815" lon="7.24081">
        <ele>716</ele>
        <time>2018-04-26T08:51:01.000Z</time>
      </trkpt>
      <trkpt lat="43.7983" lon="7.2408">
        <ele>717</ele>
        <time>2018-04-26T08:51:08.000Z</time>
      </trkpt>
      <trkpt lat="43.79834" lon="7.2408">
        <ele>717</ele>
        <time>2018-04-26T08:51:10.000Z</time>
      </trkpt>
      <trkpt lat="43.7984" lon="7.24079">
        <ele>717</ele>
        <time>2018-04-26T08:51:14.000Z</time>
      </trkpt>
      <trkpt lat="43.79846" lon="7.24076">
        <ele>716</ele>
        <time>2018-04-26T08:51:17.000Z</time>
      </trkpt>
      <trkpt lat="43.79859" lon="7.24072">
        <ele>715</ele>
        <time>2018-04-26T08:51:23.000Z</time>
      </trkpt>
      <trkpt lat="43.79863" lon="7.24071">
        <ele>715</ele>
        <time>2018-04-26T08:51:25.000Z</time>
      </trkpt>
      <trkpt lat="43.79876" lon="7.24069">
        <ele>716</ele>
        <time>2018-04-26T08:51:32.000Z</time>
      </trkpt>
      <trkpt lat="43.79877" lon="7.24069">
        <ele>716</ele>
        <time>2018-04-26T08:51:33.000Z</time>
      </trkpt>
      <trkpt lat="43.79881" lon="7.24072">
        <ele>716</ele>
        <time>2018-04-26T08:51:36.000Z</time>
      </trkpt>
      <trkpt lat="43.79883" lon="7.24077">
        <ele>717</ele>
        <time>2018-04-26T08:51:38.000Z</time>
      </trkpt>
      <trkpt lat="43.79886" lon="7.2408">
        <ele>718</ele>
        <time>2018-04-26T08:51:41.000Z</time>
      </trkpt>
      <trkpt lat="43.79885" lon="7.2408">
        <ele>718</ele>
        <time>2018-04-26T08:51:42.000Z</time>
      </trkpt>
      <trkpt lat="43.79885" lon="7.2408">
        <ele>718</ele>
        <time>2018-04-26T08:51:46.000Z</time>
      </trkpt>
      <trkpt lat="43.79887" lon="7.24081">
        <ele>718</ele>
        <time>2018-04-26T08:51:51.000Z</time>
      </trkpt>
      <trkpt lat="43.79892" lon="7.24083">
        <ele>719</ele>
        <time>2018-04-26T08:51:59.000Z</time>
      </trkpt>
      <trkpt lat="43.79896" lon="7.24085">
        <ele>729</ele>
        <time>2018-04-26T08:52:07.000Z</time>
      </trkpt>
      <trkpt lat="43.79898" lon="7.24089">
        <ele>729</ele>
        <time>2018-04-26T08:52:12.000Z</time>
      </trkpt>
      <trkpt lat="43.79899" lon="7.2409">
        <ele>729</ele>
        <time>2018-04-26T08:52:13.000Z</time>
      </trkpt>
      <trkpt lat="43.79902" lon="7.24092">
        <ele>729</ele>
        <time>2018-04-26T08:52:19.000Z</time>
      </trkpt>
      <trkpt lat="43.79907" lon="7.24091">
        <ele>729</ele>
        <time>2018-04-26T08:52:25.000Z</time>
      </trkpt>
      <trkpt lat="43.79909" lon="7.2409">
        <ele>729</ele>
        <time>2018-04-26T08:52:30.000Z</time>
      </trkpt>
      <trkpt lat="43.79912" lon="7.24091">
        <ele>729</ele>
        <time>2018-04-26T08:52:32.000Z</time>
      </trkpt>
      <trkpt lat="43.79913" lon="7.24093">
        <ele>729</ele>
        <time>2018-04-26T08:52:33.000Z</time>
      </trkpt>
      <trkpt lat="43.79915" lon="7.24094">
        <ele>729</ele>
        <time>2018-04-26T08:52:35.000Z</time>
      </trkpt>
      <trkpt lat="43.79916" lon="7.24095">
        <ele>729</ele>
        <time>2018-04-26T08:52:36.000Z</time>
      </trkpt>
      <trkpt lat="43.79921" lon="7.24101">
        <ele>733</ele>
        <time>2018-04-26T08:52:41.000Z</time>
      </trkpt>
      <trkpt lat="43.79924" lon="7.24106">
        <ele>734</ele>
        <time>2018-04-26T08:52:45.000Z</time>
      </trkpt>
      <trkpt lat="43.79928" lon="7.2411">
        <ele>735</ele>
        <time>2018-04-26T08:52:48.000Z</time>
      </trkpt>
      <trkpt lat="43.79933" lon="7.24116">
        <ele>736</ele>
        <time>2018-04-26T08:52:53.000Z</time>
      </trkpt>
      <trkpt lat="43.79935" lon="7.24118">
        <ele>736</ele>
        <time>2018-04-26T08:52:55.000Z</time>
      </trkpt>
      <trkpt lat="43.79938" lon="7.24121">
        <ele>737</ele>
        <time>2018-04-26T08:52:57.000Z</time>
      </trkpt>
      <trkpt lat="43.79939" lon="7.24124">
        <ele>737</ele>
        <time>2018-04-26T08:52:59.000Z</time>
      </trkpt>
      <trkpt lat="43.79941" lon="7.24127">
        <ele>737</ele>
        <time>2018-04-26T08:53:01.000Z</time>
      </trkpt>
      <trkpt lat="43.79943" lon="7.24132">
        <ele>738</ele>
        <time>2018-04-26T08:53:04.000Z</time>
      </trkpt>
      <trkpt lat="43.79945" lon="7.24136">
        <ele>738</ele>
        <time>2018-04-26T08:53:07.000Z</time>
      </trkpt>
      <trkpt lat="43.79948" lon="7.24144">
        <ele>738</ele>
        <time>2018-04-26T08:53:12.000Z</time>
      </trkpt>
      <trkpt lat="43.79949" lon="7.24149">
        <ele>739</ele>
        <time>2018-04-26T08:53:16.000Z</time>
      </trkpt>
      <trkpt lat="43.79951" lon="7.24152">
        <ele>739</ele>
        <time>2018-04-26T08:53:18.000Z</time>
      </trkpt>
      <trkpt lat="43.79951" lon="7.24153">
        <ele>739</ele>
        <time>2018-04-26T08:53:19.000Z</time>
      </trkpt>
      <trkpt lat="43.79953" lon="7.24158">
        <ele>739</ele>
        <time>2018-04-26T08:53:22.000Z</time>
      </trkpt>
      <trkpt lat="43.79953" lon="7.2416">
        <ele>739</ele>
        <time>2018-04-26T08:53:23.000Z</time>
      </trkpt>
      <trkpt lat="43.79954" lon="7.24164">
        <ele>739</ele>
        <time>2018-04-26T08:53:25.000Z</time>
      </trkpt>
      <trkpt lat="43.79955" lon="7.24166">
        <ele>739</ele>
        <time>2018-04-26T08:53:27.000Z</time>
      </trkpt>
      <trkpt lat="43.79956" lon="7.2417">
        <ele>746</ele>
        <time>2018-04-26T08:53:30.000Z</time>
      </trkpt>
      <trkpt lat="43.79956" lon="7.24173">
        <ele>746</ele>
        <time>2018-04-26T08:53:32.000Z</time>
      </trkpt>
      <trkpt lat="43.79958" lon="7.24177">
        <ele>746</ele>
        <time>2018-04-26T08:53:36.000Z</time>
      </trkpt>
      <trkpt lat="43.79958" lon="7.24179">
        <ele>746</ele>
        <time>2018-04-26T08:53:37.000Z</time>
      </trkpt>
      <trkpt lat="43.79961" lon="7.24185">
        <ele>747</ele>
        <time>2018-04-26T08:53:42.000Z</time>
      </trkpt>
      <trkpt lat="43.79962" lon="7.24189">
        <ele>747</ele>
        <time>2018-04-26T08:53:47.000Z</time>
      </trkpt>
      <trkpt lat="43.79962" lon="7.24189">
        <ele>747</ele>
        <time>2018-04-26T08:53:49.000Z</time>
      </trkpt>
      <trkpt lat="43.79967" lon="7.24192">
        <ele>747</ele>
        <time>2018-04-26T08:53:55.000Z</time>
      </trkpt>
      <trkpt lat="43.79969" lon="7.24197">
        <ele>747</ele>
        <time>2018-04-26T08:54:01.000Z</time>
      </trkpt>
      <trkpt lat="43.7997" lon="7.24199">
        <ele>747</ele>
        <time>2018-04-26T08:54:04.000Z</time>
      </trkpt>
      <trkpt lat="43.79974" lon="7.24202">
        <ele>747</ele>
        <time>2018-04-26T08:54:10.000Z</time>
      </trkpt>
      <trkpt lat="43.79976" lon="7.24204">
        <ele>747</ele>
        <time>2018-04-26T08:54:13.000Z</time>
      </trkpt>
      <trkpt lat="43.79978" lon="7.24204">
        <ele>747</ele>
        <time>2018-04-26T08:54:18.000Z</time>
      </trkpt>
      <trkpt lat="43.79979" lon="7.24204">
        <ele>747</ele>
        <time>2018-04-26T08:54:19.000Z</time>
      </trkpt>
      <trkpt lat="43.79985" lon="7.24206">
        <ele>747</ele>
        <time>2018-04-26T08:54:23.000Z</time>
      </trkpt>
      <trkpt lat="43.79986" lon="7.24207">
        <ele>747</ele>
        <time>2018-04-26T08:54:24.000Z</time>
      </trkpt>
      <trkpt lat="43.79993" lon="7.24213">
        <ele>747</ele>
        <time>2018-04-26T08:54:30.000Z</time>
      </trkpt>
      <trkpt lat="43.79998" lon="7.24222">
        <ele>748</ele>
        <time>2018-04-26T08:54:37.000Z</time>
      </trkpt>
      <trkpt lat="43.79998" lon="7.24229">
        <ele>748</ele>
        <time>2018-04-26T08:54:40.000Z</time>
      </trkpt>
      <trkpt lat="43.79997" lon="7.24233">
        <ele>748</ele>
        <time>2018-04-26T08:54:42.000Z</time>
      </trkpt>
      <trkpt lat="43.8" lon="7.24244">
        <ele>747</ele>
        <time>2018-04-26T08:54:47.000Z</time>
      </trkpt>
      <trkpt lat="43.80001" lon="7.24257">
        <ele>743</ele>
        <time>2018-04-26T08:54:52.000Z</time>
      </trkpt>
      <trkpt lat="43.80002" lon="7.2426">
        <ele>742</ele>
        <time>2018-04-26T08:54:53.000Z</time>
      </trkpt>
      <trkpt lat="43.80002" lon="7.2427">
        <ele>739</ele>
        <time>2018-04-26T08:54:57.000Z</time>
      </trkpt>
      <trkpt lat="43.80002" lon="7.24273">
        <ele>739</ele>
        <time>2018-04-26T08:54:58.000Z</time>
      </trkpt>
      <trkpt lat="43.80007" lon="7.24285">
        <ele>737</ele>
        <time>2018-04-26T08:55:02.000Z</time>
      </trkpt>
      <trkpt lat="43.80009" lon="7.24296">
        <ele>737</ele>
        <time>2018-04-26T08:55:05.000Z</time>
      </trkpt>
      <trkpt lat="43.80011" lon="7.243">
        <ele>737</ele>
        <time>2018-04-26T08:55:06.000Z</time>
      </trkpt>
      <trkpt lat="43.80012" lon="7.24304">
        <ele>737</ele>
        <time>2018-04-26T08:55:07.000Z</time>
      </trkpt>
      <trkpt lat="43.80013" lon="7.24308">
        <ele>737</ele>
        <time>2018-04-26T08:55:08.000Z</time>
      </trkpt>
      <trkpt lat="43.80014" lon="7.24313">
        <ele>738</ele>
        <time>2018-04-26T08:55:09.000Z</time>
      </trkpt>
      <trkpt lat="43.80014" lon="7.24317">
        <ele>739</ele>
        <time>2018-04-26T08:55:10.000Z</time>
      </trkpt>
      <trkpt lat="43.80016" lon="7.24327">
        <ele>740</ele>
        <time>2018-04-26T08:55:12.000Z</time>
      </trkpt>
      <trkpt lat="43.80018" lon="7.24341">
        <ele>740</ele>
        <time>2018-04-26T08:55:15.000Z</time>
      </trkpt>
      <trkpt lat="43.80021" lon="7.24362">
        <ele>737</ele>
        <time>2018-04-26T08:55:20.000Z</time>
      </trkpt>
      <trkpt lat="43.80022" lon="7.24366">
        <ele>737</ele>
        <time>2018-04-26T08:55:21.000Z</time>
      </trkpt>
      <trkpt lat="43.80026" lon="7.24382">
        <ele>737</ele>
        <time>2018-04-26T08:55:24.000Z</time>
      </trkpt>
      <trkpt lat="43.80028" lon="7.24387">
        <ele>736</ele>
        <time>2018-04-26T08:55:25.000Z</time>
      </trkpt>
      <trkpt lat="43.80033" lon="7.24401">
        <ele>736</ele>
        <time>2018-04-26T08:55:29.000Z</time>
      </trkpt>
      <trkpt lat="43.80035" lon="7.24407">
        <ele>736</ele>
        <time>2018-04-26T08:55:30.000Z</time>
      </trkpt>
      <trkpt lat="43.8004" lon="7.24418">
        <ele>736</ele>
        <time>2018-04-26T08:55:32.000Z</time>
      </trkpt>
      <trkpt lat="43.80044" lon="7.24429">
        <ele>736</ele>
        <time>2018-04-26T08:55:34.000Z</time>
      </trkpt>
      <trkpt lat="43.80047" lon="7.24434">
        <ele>735</ele>
        <time>2018-04-26T08:55:35.000Z</time>
      </trkpt>
      <trkpt lat="43.80055" lon="7.24445">
        <ele>735</ele>
        <time>2018-04-26T08:55:37.000Z</time>
      </trkpt>
      <trkpt lat="43.80059" lon="7.2445">
        <ele>735</ele>
        <time>2018-04-26T08:55:38.000Z</time>
      </trkpt>
      <trkpt lat="43.80063" lon="7.24455">
        <ele>735</ele>
        <time>2018-04-26T08:55:39.000Z</time>
      </trkpt>
      <trkpt lat="43.80073" lon="7.2447">
        <ele>735</ele>
        <time>2018-04-26T08:55:42.000Z</time>
      </trkpt>
      <trkpt lat="43.80077" lon="7.24473">
        <ele>735</ele>
        <time>2018-04-26T08:55:43.000Z</time>
      </trkpt>
      <trkpt lat="43.80094" lon="7.24488">
        <ele>732</ele>
        <time>2018-04-26T08:55:49.000Z</time>
      </trkpt>
      <trkpt lat="43.80102" lon="7.24499">
        <ele>732</ele>
        <time>2018-04-26T08:55:55.000Z</time>
      </trkpt>
      <trkpt lat="43.80105" lon="7.24503">
        <ele>736</ele>
        <time>2018-04-26T08:55:57.000Z</time>
      </trkpt>
      <trkpt lat="43.8011" lon="7.24512">
        <ele>736</ele>
        <time>2018-04-26T08:56:01.000Z</time>
      </trkpt>
      <trkpt lat="43.80117" lon="7.24525">
        <ele>737</ele>
        <time>2018-04-26T08:56:07.000Z</time>
      </trkpt>
      <trkpt lat="43.8012" lon="7.24529">
        <ele>737</ele>
        <time>2018-04-26T08:56:09.000Z</time>
      </trkpt>
      <trkpt lat="43.80129" lon="7.24544">
        <ele>738</ele>
        <time>2018-04-26T08:56:15.000Z</time>
      </trkpt>
      <trkpt lat="43.80132" lon="7.24548">
        <ele>738</ele>
        <time>2018-04-26T08:56:17.000Z</time>
      </trkpt>
      <trkpt lat="43.80139" lon="7.24557">
        <ele>739</ele>
        <time>2018-04-26T08:56:22.000Z</time>
      </trkpt>
      <trkpt lat="43.80149" lon="7.24571">
        <ele>742</ele>
        <time>2018-04-26T08:56:29.000Z</time>
      </trkpt>
      <trkpt lat="43.80155" lon="7.24579">
        <ele>744</ele>
        <time>2018-04-26T08:56:34.000Z</time>
      </trkpt>
      <trkpt lat="43.80158" lon="7.24581">
        <ele>745</ele>
        <time>2018-04-26T08:56:36.000Z</time>
      </trkpt>
      <trkpt lat="43.80162" lon="7.24583">
        <ele>746</ele>
        <time>2018-04-26T08:56:38.000Z</time>
      </trkpt>
      <trkpt lat="43.80169" lon="7.24585">
        <ele>750</ele>
        <time>2018-04-26T08:56:42.000Z</time>
      </trkpt>
      <trkpt lat="43.8017" lon="7.24585">
        <ele>751</ele>
        <time>2018-04-26T08:56:43.000Z</time>
      </trkpt>
      <trkpt lat="43.80175" lon="7.24585">
        <ele>754</ele>
        <time>2018-04-26T08:56:47.000Z</time>
      </trkpt>
      <trkpt lat="43.80177" lon="7.24585">
        <ele>755</ele>
        <time>2018-04-26T08:56:49.000Z</time>
      </trkpt>
      <trkpt lat="43.8018" lon="7.24585">
        <ele>757</ele>
        <time>2018-04-26T08:56:52.000Z</time>
      </trkpt>
      <trkpt lat="43.80184" lon="7.24585">
        <ele>758</ele>
        <time>2018-04-26T08:56:55.000Z</time>
      </trkpt>
      <trkpt lat="43.80186" lon="7.24584">
        <ele>759</ele>
        <time>2018-04-26T08:56:57.000Z</time>
      </trkpt>
      <trkpt lat="43.80194" lon="7.24584">
        <ele>762</ele>
        <time>2018-04-26T08:57:03.000Z</time>
      </trkpt>
      <trkpt lat="43.80202" lon="7.24581">
        <ele>755</ele>
        <time>2018-04-26T08:57:10.000Z</time>
      </trkpt>
      <trkpt lat="43.80205" lon="7.24581">
        <ele>756</ele>
        <time>2018-04-26T08:57:12.000Z</time>
      </trkpt>
      <trkpt lat="43.80208" lon="7.2458">
        <ele>757</ele>
        <time>2018-04-26T08:57:14.000Z</time>
      </trkpt>
      <trkpt lat="43.80212" lon="7.24579">
        <ele>758</ele>
        <time>2018-04-26T08:57:18.000Z</time>
      </trkpt>
      <trkpt lat="43.80213" lon="7.24578">
        <ele>758</ele>
        <time>2018-04-26T08:57:19.000Z</time>
      </trkpt>
      <trkpt lat="43.80218" lon="7.24576">
        <ele>759</ele>
        <time>2018-04-26T08:57:24.000Z</time>
      </trkpt>
      <trkpt lat="43.80221" lon="7.24575">
        <ele>760</ele>
        <time>2018-04-26T08:57:26.000Z</time>
      </trkpt>
      <trkpt lat="43.80224" lon="7.24574">
        <ele>760</ele>
        <time>2018-04-26T08:57:29.000Z</time>
      </trkpt>
      <trkpt lat="43.80229" lon="7.24572">
        <ele>761</ele>
        <time>2018-04-26T08:57:33.000Z</time>
      </trkpt>
      <trkpt lat="43.8023" lon="7.2457">
        <ele>761</ele>
        <time>2018-04-26T08:57:34.000Z</time>
      </trkpt>
      <trkpt lat="43.80233" lon="7.24568">
        <ele>762</ele>
        <time>2018-04-26T08:57:37.000Z</time>
      </trkpt>
      <trkpt lat="43.80234" lon="7.24568">
        <ele>762</ele>
        <time>2018-04-26T08:57:38.000Z</time>
      </trkpt>
      <trkpt lat="43.80235" lon="7.24567">
        <ele>762</ele>
        <time>2018-04-26T08:57:39.000Z</time>
      </trkpt>
      <trkpt lat="43.80238" lon="7.24565">
        <ele>762</ele>
        <time>2018-04-26T08:57:42.000Z</time>
      </trkpt>
      <trkpt lat="43.8024" lon="7.24562">
        <ele>762</ele>
        <time>2018-04-26T08:57:45.000Z</time>
      </trkpt>
      <trkpt lat="43.80242" lon="7.24558">
        <ele>761</ele>
        <time>2018-04-26T08:57:49.000Z</time>
      </trkpt>
      <trkpt lat="43.80244" lon="7.24554">
        <ele>761</ele>
        <time>2018-04-26T08:57:52.000Z</time>
      </trkpt>
      <trkpt lat="43.80246" lon="7.24552">
        <ele>760</ele>
        <time>2018-04-26T08:57:54.000Z</time>
      </trkpt>
      <trkpt lat="43.8025" lon="7.24549">
        <ele>771</ele>
        <time>2018-04-26T08:57:59.000Z</time>
      </trkpt>
      <trkpt lat="43.80252" lon="7.24547">
        <ele>771</ele>
        <time>2018-04-26T08:58:01.000Z</time>
      </trkpt>
      <trkpt lat="43.80255" lon="7.24545">
        <ele>770</ele>
        <time>2018-04-26T08:58:05.000Z</time>
      </trkpt>
      <trkpt lat="43.80256" lon="7.24544">
        <ele>770</ele>
        <time>2018-04-26T08:58:06.000Z</time>
      </trkpt>
      <trkpt lat="43.80257" lon="7.24544">
        <ele>770</ele>
        <time>2018-04-26T08:58:07.000Z</time>
      </trkpt>
      <trkpt lat="43.80262" lon="7.24542">
        <ele>770</ele>
        <time>2018-04-26T08:58:12.000Z</time>
      </trkpt>
      <trkpt lat="43.80263" lon="7.24542">
        <ele>770</ele>
        <time>2018-04-26T08:58:13.000Z</time>
      </trkpt>
      <trkpt lat="43.80272" lon="7.2454">
        <ele>770</ele>
        <time>2018-04-26T08:58:19.000Z</time>
      </trkpt>
      <trkpt lat="43.80276" lon="7.2454">
        <ele>771</ele>
        <time>2018-04-26T08:58:22.000Z</time>
      </trkpt>
      <trkpt lat="43.8028" lon="7.2454">
        <ele>771</ele>
        <time>2018-04-26T08:58:25.000Z</time>
      </trkpt>
      <trkpt lat="43.80282" lon="7.2454">
        <ele>771</ele>
        <time>2018-04-26T08:58:27.000Z</time>
      </trkpt>
      <trkpt lat="43.80283" lon="7.24538">
        <ele>771</ele>
        <time>2018-04-26T08:58:29.000Z</time>
      </trkpt>
      <trkpt lat="43.8029" lon="7.24536">
        <ele>771</ele>
        <time>2018-04-26T08:58:35.000Z</time>
      </trkpt>
      <trkpt lat="43.80298" lon="7.24533">
        <ele>771</ele>
        <time>2018-04-26T08:58:42.000Z</time>
      </trkpt>
      <trkpt lat="43.803" lon="7.24532">
        <ele>771</ele>
        <time>2018-04-26T08:58:44.000Z</time>
      </trkpt>
      <trkpt lat="43.80306" lon="7.24529">
        <ele>771</ele>
        <time>2018-04-26T08:58:49.000Z</time>
      </trkpt>
      <trkpt lat="43.8031" lon="7.24527">
        <ele>771</ele>
        <time>2018-04-26T08:58:52.000Z</time>
      </trkpt>
      <trkpt lat="43.8032" lon="7.24525">
        <ele>771</ele>
        <time>2018-04-26T08:58:59.000Z</time>
      </trkpt>
      <trkpt lat="43.80324" lon="7.24524">
        <ele>771</ele>
        <time>2018-04-26T08:59:01.000Z</time>
      </trkpt>
      <trkpt lat="43.80338" lon="7.24523">
        <ele>776</ele>
        <time>2018-04-26T08:59:08.000Z</time>
      </trkpt>
      <trkpt lat="43.80347" lon="7.24522">
        <ele>776</ele>
        <time>2018-04-26T08:59:12.000Z</time>
      </trkpt>
      <trkpt lat="43.80356" lon="7.24521">
        <ele>777</ele>
        <time>2018-04-26T08:59:16.000Z</time>
      </trkpt>
      <trkpt lat="43.80382" lon="7.24519">
        <ele>778</ele>
        <time>2018-04-26T08:59:27.000Z</time>
      </trkpt>
      <trkpt lat="43.80395" lon="7.24517">
        <ele>778</ele>
        <time>2018-04-26T08:59:32.000Z</time>
      </trkpt>
      <trkpt lat="43.80403" lon="7.24516">
        <ele>777</ele>
        <time>2018-04-26T08:59:35.000Z</time>
      </trkpt>
      <trkpt lat="43.80427" lon="7.24513">
        <ele>779</ele>
        <time>2018-04-26T08:59:43.000Z</time>
      </trkpt>
      <trkpt lat="43.8043" lon="7.24513">
        <ele>779</ele>
        <time>2018-04-26T08:59:44.000Z</time>
      </trkpt>
      <trkpt lat="43.80446" lon="7.24511">
        <ele>782</ele>
        <time>2018-04-26T08:59:50.000Z</time>
      </trkpt>
      <trkpt lat="43.80449" lon="7.2451">
        <ele>782</ele>
        <time>2018-04-26T08:59:51.000Z</time>
      </trkpt>
      <trkpt lat="43.80459" lon="7.24509">
        <ele>783</ele>
        <time>2018-04-26T08:59:55.000Z</time>
      </trkpt>
      <trkpt lat="43.80467" lon="7.24508">
        <ele>783</ele>
        <time>2018-04-26T08:59:58.000Z</time>
      </trkpt>
      <trkpt lat="43.80478" lon="7.24506">
        <ele>781</ele>
        <time>2018-04-26T09:00:02.000Z</time>
      </trkpt>
      <trkpt lat="43.80487" lon="7.24505">
        <ele>779</ele>
        <time>2018-04-26T09:00:05.000Z</time>
      </trkpt>
      <trkpt lat="43.80512" lon="7.24504">
        <ele>780</ele>
        <time>2018-04-26T09:00:12.000Z</time>
      </trkpt>
      <trkpt lat="43.80516" lon="7.24504">
        <ele>782</ele>
        <time>2018-04-26T09:00:13.000Z</time>
      </trkpt>
      <trkpt lat="43.80542" lon="7.24508">
        <ele>785</ele>
        <time>2018-04-26T09:00:20.000Z</time>
      </trkpt>
      <trkpt lat="43.80574" lon="7.24506">
        <ele>780</ele>
        <time>2018-04-26T09:00:27.000Z</time>
      </trkpt>
      <trkpt lat="43.80579" lon="7.24506">
        <ele>778</ele>
        <time>2018-04-26T09:00:28.000Z</time>
      </trkpt>
      <trkpt lat="43.80587" lon="7.24505">
        <ele>777</ele>
        <time>2018-04-26T09:00:30.000Z</time>
      </trkpt>
      <trkpt lat="43.80591" lon="7.24503">
        <ele>779</ele>
        <time>2018-04-26T09:00:31.000Z</time>
      </trkpt>
      <trkpt lat="43.80616" lon="7.24498">
        <ele>765</ele>
        <time>2018-04-26T09:00:36.000Z</time>
      </trkpt>
      <trkpt lat="43.80621" lon="7.24498">
        <ele>765</ele>
        <time>2018-04-26T09:00:37.000Z</time>
      </trkpt>
      <trkpt lat="43.8063" lon="7.24498">
        <ele>765</ele>
        <time>2018-04-26T09:00:39.000Z</time>
      </trkpt>
      <trkpt lat="43.80637" lon="7.24497">
        <ele>766</ele>
        <time>2018-04-26T09:00:41.000Z</time>
      </trkpt>
      <trkpt lat="43.80647" lon="7.24497">
        <ele>768</ele>
        <time>2018-04-26T09:00:43.000Z</time>
      </trkpt>
      <trkpt lat="43.80654" lon="7.24496">
        <ele>770</ele>
        <time>2018-04-26T09:00:45.000Z</time>
      </trkpt>
      <trkpt lat="43.80668" lon="7.24493">
        <ele>774</ele>
        <time>2018-04-26T09:00:49.000Z</time>
      </trkpt>
      <trkpt lat="43.80672" lon="7.24493">
        <ele>773</ele>
        <time>2018-04-26T09:00:50.000Z</time>
      </trkpt>
      <trkpt lat="43.80687" lon="7.24491">
        <ele>770</ele>
        <time>2018-04-26T09:00:55.000Z</time>
      </trkpt>
      <trkpt lat="43.80704" lon="7.2449">
        <ele>769</ele>
        <time>2018-04-26T09:01:02.000Z</time>
      </trkpt>
      <trkpt lat="43.80706" lon="7.24489">
        <ele>769</ele>
        <time>2018-04-26T09:01:03.000Z</time>
      </trkpt>
      <trkpt lat="43.80726" lon="7.24485">
        <ele>770</ele>
        <time>2018-04-26T09:01:10.000Z</time>
      </trkpt>
      <trkpt lat="43.80729" lon="7.24484">
        <ele>770</ele>
        <time>2018-04-26T09:01:11.000Z</time>
      </trkpt>
      <trkpt lat="43.80747" lon="7.24484">
        <ele>773</ele>
        <time>2018-04-26T09:01:17.000Z</time>
      </trkpt>
      <trkpt lat="43.80754" lon="7.24484">
        <ele>774</ele>
        <time>2018-04-26T09:01:19.000Z</time>
      </trkpt>
      <trkpt lat="43.80764" lon="7.24485">
        <ele>773</ele>
        <time>2018-04-26T09:01:22.000Z</time>
      </trkpt>
      <trkpt lat="43.80774" lon="7.24486">
        <ele>772</ele>
        <time>2018-04-26T09:01:26.000Z</time>
      </trkpt>
      <trkpt lat="43.80782" lon="7.24488">
        <ele>771</ele>
        <time>2018-04-26T09:01:28.000Z</time>
      </trkpt>
      <trkpt lat="43.80789" lon="7.24492">
        <ele>770</ele>
        <time>2018-04-26T09:01:30.000Z</time>
      </trkpt>
      <trkpt lat="43.80799" lon="7.24504">
        <ele>783</ele>
        <time>2018-04-26T09:01:34.000Z</time>
      </trkpt>
      <trkpt lat="43.80805" lon="7.24521">
        <ele>784</ele>
        <time>2018-04-26T09:01:38.000Z</time>
      </trkpt>
      <trkpt lat="43.80808" lon="7.24531">
        <ele>785</ele>
        <time>2018-04-26T09:01:40.000Z</time>
      </trkpt>
      <trkpt lat="43.80812" lon="7.24551">
        <ele>788</ele>
        <time>2018-04-26T09:01:44.000Z</time>
      </trkpt>
      <trkpt lat="43.80821" lon="7.24559">
        <ele>789</ele>
        <time>2018-04-26T09:01:48.000Z</time>
      </trkpt>
      <trkpt lat="43.80824" lon="7.24558">
        <ele>789</ele>
        <time>2018-04-26T09:01:49.000Z</time>
      </trkpt>
      <trkpt lat="43.80832" lon="7.24553">
        <ele>788</ele>
        <time>2018-04-26T09:01:52.000Z</time>
      </trkpt>
      <trkpt lat="43.80841" lon="7.24549">
        <ele>779</ele>
        <time>2018-04-26T09:01:55.000Z</time>
      </trkpt>
      <trkpt lat="43.80852" lon="7.24544">
        <ele>778</ele>
        <time>2018-04-26T09:01:58.000Z</time>
      </trkpt>
      <trkpt lat="43.80865" lon="7.24536">
        <ele>777</ele>
        <time>2018-04-26T09:02:03.000Z</time>
      </trkpt>
      <trkpt lat="43.80868" lon="7.24534">
        <ele>776</ele>
        <time>2018-04-26T09:02:04.000Z</time>
      </trkpt>
      <trkpt lat="43.80881" lon="7.24525">
        <ele>775</ele>
        <time>2018-04-26T09:02:08.000Z</time>
      </trkpt>
      <trkpt lat="43.80887" lon="7.24524">
        <ele>775</ele>
        <time>2018-04-26T09:02:10.000Z</time>
      </trkpt>
      <trkpt lat="43.80894" lon="7.24523">
        <ele>775</ele>
        <time>2018-04-26T09:02:12.000Z</time>
      </trkpt>
      <trkpt lat="43.8091" lon="7.24522">
        <ele>774</ele>
        <time>2018-04-26T09:02:16.000Z</time>
      </trkpt>
      <trkpt lat="43.80919" lon="7.24523">
        <ele>761</ele>
        <time>2018-04-26T09:02:18.000Z</time>
      </trkpt>
      <trkpt lat="43.80921" lon="7.24526">
        <ele>760</ele>
        <time>2018-04-26T09:02:19.000Z</time>
      </trkpt>
      <trkpt lat="43.80922" lon="7.24527">
        <ele>760</ele>
        <time>2018-04-26T09:02:21.000Z</time>
      </trkpt>
      <trkpt lat="43.80922" lon="7.24529">
        <ele>760</ele>
        <time>2018-04-26T09:02:29.000Z</time>
      </trkpt>
      <trkpt lat="43.80923" lon="7.24529">
        <ele>759</ele>
        <time>2018-04-26T09:02:35.000Z</time>
      </trkpt>
      <trkpt lat="43.80923" lon="7.2453">
        <ele>759</ele>
        <time>2018-04-26T09:02:47.000Z</time>
      </trkpt>
      <trkpt lat="43.80924" lon="7.24528">
        <ele>759</ele>
        <time>2018-04-26T09:03:04.000Z</time>
      </trkpt>
      <trkpt lat="43.80924" lon="7.24528">
        <ele>759</ele>
        <time>2018-04-26T09:03:16.000Z</time>
      </trkpt>
      <trkpt lat="43.80923" lon="7.24528">
        <ele>760</ele>
        <time>2018-04-26T09:03:21.000Z</time>
      </trkpt>
      <trkpt lat="43.80922" lon="7.24528">
        <ele>760</ele>
        <time>2018-04-26T09:03:26.000Z</time>
      </trkpt>
      <trkpt lat="43.80922" lon="7.24528">
        <ele>760</ele>
        <time>2018-04-26T09:03:28.000Z</time>
      </trkpt>
      <trkpt lat="43.80919" lon="7.24529">
        <ele>760</ele>
        <time>2018-04-26T09:03:35.000Z</time>
      </trkpt>
      <trkpt lat="43.80919" lon="7.24529">
        <ele>760</ele>
        <time>2018-04-26T09:03:46.000Z</time>
      </trkpt>
      <trkpt lat="43.80918" lon="7.2453">
        <ele>760</ele>
        <time>2018-04-26T09:03:59.000Z</time>
      </trkpt>
      <trkpt lat="43.80919" lon="7.2453">
        <ele>760</ele>
        <time>2018-04-26T09:04:05.000Z</time>
      </trkpt>
      <trkpt lat="43.80918" lon="7.2453">
        <ele>760</ele>
        <time>2018-04-26T09:04:11.000Z</time>
      </trkpt>
      <trkpt lat="43.80918" lon="7.2453">
        <ele>760</ele>
        <time>2018-04-26T09:04:21.000Z</time>
      </trkpt>
      <trkpt lat="43.80917" lon="7.2453">
        <ele>760</ele>
        <time>2018-04-26T09:04:33.000Z</time>
      </trkpt>
      <trkpt lat="43.80917" lon="7.24529">
        <ele>760</ele>
        <time>2018-04-26T09:04:49.000Z</time>
      </trkpt>
      <trkpt lat="43.80918" lon="7.24529">
        <ele>760</ele>
        <time>2018-04-26T09:05:01.000Z</time>
      </trkpt>
      <trkpt lat="43.80917" lon="7.24529">
        <ele>760</ele>
        <time>2018-04-26T09:05:12.000Z</time>
      </trkpt>
      <trkpt lat="43.80918" lon="7.24529">
        <ele>760</ele>
        <time>2018-04-26T09:05:14.000Z</time>
      </trkpt>
      <trkpt lat="43.80918" lon="7.2453">
        <ele>760</ele>
        <time>2018-04-26T09:05:28.000Z</time>
      </trkpt>
      <trkpt lat="43.80918" lon="7.2453">
        <ele>760</ele>
        <time>2018-04-26T09:05:30.000Z</time>
      </trkpt>
      <trkpt lat="43.80919" lon="7.2453">
        <ele>760</ele>
        <time>2018-04-26T09:05:38.000Z</time>
      </trkpt>
      <trkpt lat="43.80918" lon="7.24531">
        <ele>760</ele>
        <time>2018-04-26T09:05:48.000Z</time>
      </trkpt>
      <trkpt lat="43.80918" lon="7.24531">
        <ele>760</ele>
        <time>2018-04-26T09:05:55.000Z</time>
      </trkpt>
      <trkpt lat="43.80919" lon="7.24531">
        <ele>760</ele>
        <time>2018-04-26T09:06:02.000Z</time>
      </trkpt>
      <trkpt lat="43.80919" lon="7.24532">
        <ele>759</ele>
        <time>2018-04-26T09:06:09.000Z</time>
      </trkpt>
      <trkpt lat="43.80919" lon="7.24533">
        <ele>759</ele>
        <time>2018-04-26T09:06:14.000Z</time>
      </trkpt>
      <trkpt lat="43.8092" lon="7.24534">
        <ele>759</ele>
        <time>2018-04-26T09:06:22.000Z</time>
      </trkpt>
      <trkpt lat="43.8092" lon="7.24534">
        <ele>759</ele>
        <time>2018-04-26T09:06:31.000Z</time>
      </trkpt>
      <trkpt lat="43.8092" lon="7.24534">
        <ele>759</ele>
        <time>2018-04-26T09:06:46.000Z</time>
      </trkpt>
      <trkpt lat="43.8092" lon="7.24533">
        <ele>759</ele>
        <time>2018-04-26T09:07:10.000Z</time>
      </trkpt>
      <trkpt lat="43.8092" lon="7.24533">
        <ele>759</ele>
        <time>2018-04-26T09:07:21.000Z</time>
      </trkpt>
      <trkpt lat="43.80919" lon="7.24533">
        <ele>759</ele>
        <time>2018-04-26T09:07:29.000Z</time>
      </trkpt>
      <trkpt lat="43.80919" lon="7.24532">
        <ele>759</ele>
        <time>2018-04-26T09:07:35.000Z</time>
      </trkpt>
      <trkpt lat="43.80919" lon="7.24533">
        <ele>759</ele>
        <time>2018-04-26T09:07:43.000Z</time>
      </trkpt>
      <trkpt lat="43.80921" lon="7.24531">
        <ele>759</ele>
        <time>2018-04-26T09:07:50.000Z</time>
      </trkpt>
      <trkpt lat="43.80922" lon="7.2453">
        <ele>759</ele>
        <time>2018-04-26T09:08:00.000Z</time>
      </trkpt>
      <trkpt lat="43.80922" lon="7.24528">
        <ele>760</ele>
        <time>2018-04-26T09:08:15.000Z</time>
      </trkpt>
      <trkpt lat="43.80921" lon="7.24528">
        <ele>760</ele>
        <time>2018-04-26T09:08:24.000Z</time>
      </trkpt>
      <trkpt lat="43.80921" lon="7.24526">
        <ele>760</ele>
        <time>2018-04-26T09:08:31.000Z</time>
      </trkpt>
      <trkpt lat="43.8092" lon="7.24525">
        <ele>760</ele>
        <time>2018-04-26T09:08:36.000Z</time>
      </trkpt>
      <trkpt lat="43.8092" lon="7.24523">
        <ele>761</ele>
        <time>2018-04-26T09:08:43.000Z</time>
      </trkpt>
      <trkpt lat="43.8092" lon="7.24521">
        <ele>761</ele>
        <time>2018-04-26T09:09:04.000Z</time>
      </trkpt>
      <trkpt lat="43.80921" lon="7.24521">
        <ele>761</ele>
        <time>2018-04-26T09:09:36.000Z</time>
      </trkpt>
      <trkpt lat="43.80922" lon="7.24522">
        <ele>761</ele>
        <time>2018-04-26T09:10:01.000Z</time>
      </trkpt>
      <trkpt lat="43.80928" lon="7.24518">
        <ele>761</ele>
        <time>2018-04-26T09:10:06.000Z</time>
      </trkpt>
      <trkpt lat="43.8093" lon="7.24514">
        <ele>761</ele>
        <time>2018-04-26T09:10:08.000Z</time>
      </trkpt>
      <trkpt lat="43.80928" lon="7.24507">
        <ele>763</ele>
        <time>2018-04-26T09:10:10.000Z</time>
      </trkpt>
      <trkpt lat="43.80931" lon="7.24499">
        <ele>765</ele>
        <time>2018-04-26T09:10:12.000Z</time>
      </trkpt>
      <trkpt lat="43.80934" lon="7.24496">
        <ele>763</ele>
        <time>2018-04-26T09:10:13.000Z</time>
      </trkpt>
      <trkpt lat="43.8094" lon="7.24483">
        <ele>760</ele>
        <time>2018-04-26T09:10:16.000Z</time>
      </trkpt>
      <trkpt lat="43.80943" lon="7.24478">
        <ele>759</ele>
        <time>2018-04-26T09:10:17.000Z</time>
      </trkpt>
      <trkpt lat="43.80945" lon="7.24474">
        <ele>759</ele>
        <time>2018-04-26T09:10:18.000Z</time>
      </trkpt>
      <trkpt lat="43.8095" lon="7.24468">
        <ele>758</ele>
        <time>2018-04-26T09:10:20.000Z</time>
      </trkpt>
      <trkpt lat="43.80953" lon="7.24464">
        <ele>757</ele>
        <time>2018-04-26T09:10:21.000Z</time>
      </trkpt>
      <trkpt lat="43.80955" lon="7.24458">
        <ele>757</ele>
        <time>2018-04-26T09:10:22.000Z</time>
      </trkpt>
      <trkpt lat="43.80959" lon="7.2445">
        <ele>756</ele>
        <time>2018-04-26T09:10:24.000Z</time>
      </trkpt>
      <trkpt lat="43.80961" lon="7.24448">
        <ele>756</ele>
        <time>2018-04-26T09:10:25.000Z</time>
      </trkpt>
      <trkpt lat="43.80963" lon="7.24445">
        <ele>755</ele>
        <time>2018-04-26T09:10:26.000Z</time>
      </trkpt>
      <trkpt lat="43.80967" lon="7.24436">
        <ele>754</ele>
        <time>2018-04-26T09:10:28.000Z</time>
      </trkpt>
      <trkpt lat="43.80969" lon="7.24428">
        <ele>754</ele>
        <time>2018-04-26T09:10:29.000Z</time>
      </trkpt>
      <trkpt lat="43.80971" lon="7.24423">
        <ele>753</ele>
        <time>2018-04-26T09:10:30.000Z</time>
      </trkpt>
      <trkpt lat="43.80972" lon="7.24419">
        <ele>753</ele>
        <time>2018-04-26T09:10:31.000Z</time>
      </trkpt>
      <trkpt lat="43.80974" lon="7.24413">
        <ele>756</ele>
        <time>2018-04-26T09:10:32.000Z</time>
      </trkpt>
      <trkpt lat="43.80974" lon="7.24407">
        <ele>756</ele>
        <time>2018-04-26T09:10:33.000Z</time>
      </trkpt>
      <trkpt lat="43.80974" lon="7.24401">
        <ele>757</ele>
        <time>2018-04-26T09:10:34.000Z</time>
      </trkpt>
      <trkpt lat="43.80976" lon="7.24399">
        <ele>756</ele>
        <time>2018-04-26T09:10:35.000Z</time>
      </trkpt>
      <trkpt lat="43.8098" lon="7.24389">
        <ele>757</ele>
        <time>2018-04-26T09:10:37.000Z</time>
      </trkpt>
      <trkpt lat="43.80985" lon="7.24385">
        <ele>757</ele>
        <time>2018-04-26T09:10:39.000Z</time>
      </trkpt>
      <trkpt lat="43.80987" lon="7.24379">
        <ele>757</ele>
        <time>2018-04-26T09:10:41.000Z</time>
      </trkpt>
      <trkpt lat="43.8099" lon="7.24373">
        <ele>757</ele>
        <time>2018-04-26T09:10:42.000Z</time>
      </trkpt>
      <trkpt lat="43.80993" lon="7.24369">
        <ele>757</ele>
        <time>2018-04-26T09:10:43.000Z</time>
      </trkpt>
      <trkpt lat="43.80994" lon="7.24365">
        <ele>757</ele>
        <time>2018-04-26T09:10:44.000Z</time>
      </trkpt>
      <trkpt lat="43.80996" lon="7.24361">
        <ele>757</ele>
        <time>2018-04-26T09:10:45.000Z</time>
      </trkpt>
      <trkpt lat="43.81001" lon="7.24354">
        <ele>733</ele>
        <time>2018-04-26T09:10:47.000Z</time>
      </trkpt>
      <trkpt lat="43.81008" lon="7.24344">
        <ele>737</ele>
        <time>2018-04-26T09:10:49.000Z</time>
      </trkpt>
      <trkpt lat="43.81014" lon="7.24331">
        <ele>740</ele>
        <time>2018-04-26T09:10:51.000Z</time>
      </trkpt>
      <trkpt lat="43.81018" lon="7.24327">
        <ele>738</ele>
        <time>2018-04-26T09:10:52.000Z</time>
      </trkpt>
      <trkpt lat="43.81023" lon="7.24323">
        <ele>736</ele>
        <time>2018-04-26T09:10:53.000Z</time>
      </trkpt>
      <trkpt lat="43.81027" lon="7.24316">
        <ele>734</ele>
        <time>2018-04-26T09:10:54.000Z</time>
      </trkpt>
      <trkpt lat="43.81032" lon="7.24309">
        <ele>732</ele>
        <time>2018-04-26T09:10:55.000Z</time>
      </trkpt>
      <trkpt lat="43.8104" lon="7.24294">
        <ele>730</ele>
        <time>2018-04-26T09:10:57.000Z</time>
      </trkpt>
      <trkpt lat="43.81044" lon="7.24286">
        <ele>730</ele>
        <time>2018-04-26T09:10:58.000Z</time>
      </trkpt>
      <trkpt lat="43.81048" lon="7.24278">
        <ele>730</ele>
        <time>2018-04-26T09:10:59.000Z</time>
      </trkpt>
      <trkpt lat="43.81053" lon="7.2427">
        <ele>729</ele>
        <time>2018-04-26T09:11:00.000Z</time>
      </trkpt>
      <trkpt lat="43.81057" lon="7.24264">
        <ele>728</ele>
        <time>2018-04-26T09:11:01.000Z</time>
      </trkpt>
      <trkpt lat="43.8106" lon="7.24258">
        <ele>726</ele>
        <time>2018-04-26T09:11:02.000Z</time>
      </trkpt>
      <trkpt lat="43.81065" lon="7.24253">
        <ele>725</ele>
        <time>2018-04-26T09:11:03.000Z</time>
      </trkpt>
      <trkpt lat="43.81067" lon="7.24248">
        <ele>730</ele>
        <time>2018-04-26T09:11:04.000Z</time>
      </trkpt>
      <trkpt lat="43.81075" lon="7.24238">
        <ele>729</ele>
        <time>2018-04-26T09:11:06.000Z</time>
      </trkpt>
      <trkpt lat="43.81082" lon="7.24226">
        <ele>732</ele>
        <time>2018-04-26T09:11:08.000Z</time>
      </trkpt>
      <trkpt lat="43.81089" lon="7.24214">
        <ele>708</ele>
        <time>2018-04-26T09:11:10.000Z</time>
      </trkpt>
      <trkpt lat="43.81098" lon="7.24202">
        <ele>708</ele>
        <time>2018-04-26T09:11:12.000Z</time>
      </trkpt>
      <trkpt lat="43.81103" lon="7.24195">
        <ele>708</ele>
        <time>2018-04-26T09:11:13.000Z</time>
      </trkpt>
      <trkpt lat="43.81106" lon="7.24189">
        <ele>708</ele>
        <time>2018-04-26T09:11:14.000Z</time>
      </trkpt>
      <trkpt lat="43.81108" lon="7.24183">
        <ele>708</ele>
        <time>2018-04-26T09:11:15.000Z</time>
      </trkpt>
      <trkpt lat="43.81112" lon="7.24179">
        <ele>708</ele>
        <time>2018-04-26T09:11:16.000Z</time>
      </trkpt>
      <trkpt lat="43.81116" lon="7.24173">
        <ele>707</ele>
        <time>2018-04-26T09:11:17.000Z</time>
      </trkpt>
      <trkpt lat="43.81121" lon="7.24167">
        <ele>705</ele>
        <time>2018-04-26T09:11:18.000Z</time>
      </trkpt>
      <trkpt lat="43.81126" lon="7.24163">
        <ele>708</ele>
        <time>2018-04-26T09:11:19.000Z</time>
      </trkpt>
      <trkpt lat="43.81128" lon="7.2416">
        <ele>707</ele>
        <time>2018-04-26T09:11:20.000Z</time>
      </trkpt>
      <trkpt lat="43.81131" lon="7.24153">
        <ele>706</ele>
        <time>2018-04-26T09:11:22.000Z</time>
      </trkpt>
      <trkpt lat="43.81133" lon="7.24149">
        <ele>705</ele>
        <time>2018-04-26T09:11:23.000Z</time>
      </trkpt>
      <trkpt lat="43.81136" lon="7.24145">
        <ele>705</ele>
        <time>2018-04-26T09:11:24.000Z</time>
      </trkpt>
      <trkpt lat="43.81139" lon="7.24141">
        <ele>704</ele>
        <time>2018-04-26T09:11:25.000Z</time>
      </trkpt>
      <trkpt lat="43.81145" lon="7.24128">
        <ele>704</ele>
        <time>2018-04-26T09:11:28.000Z</time>
      </trkpt>
      <trkpt lat="43.81146" lon="7.24121">
        <ele>703</ele>
        <time>2018-04-26T09:11:29.000Z</time>
      </trkpt>
      <trkpt lat="43.81146" lon="7.24114">
        <ele>703</ele>
        <time>2018-04-26T09:11:30.000Z</time>
      </trkpt>
      <trkpt lat="43.81146" lon="7.24107">
        <ele>703</ele>
        <time>2018-04-26T09:11:31.000Z</time>
      </trkpt>
      <trkpt lat="43.81146" lon="7.24102">
        <ele>702</ele>
        <time>2018-04-26T09:11:32.000Z</time>
      </trkpt>
      <trkpt lat="43.81148" lon="7.24098">
        <ele>701</ele>
        <time>2018-04-26T09:11:33.000Z</time>
      </trkpt>
      <trkpt lat="43.8115" lon="7.24097">
        <ele>701</ele>
        <time>2018-04-26T09:11:34.000Z</time>
      </trkpt>
      <trkpt lat="43.81153" lon="7.24097">
        <ele>700</ele>
        <time>2018-04-26T09:11:35.000Z</time>
      </trkpt>
      <trkpt lat="43.8116" lon="7.241">
        <ele>699</ele>
        <time>2018-04-26T09:11:37.000Z</time>
      </trkpt>
      <trkpt lat="43.81165" lon="7.24104">
        <ele>699</ele>
        <time>2018-04-26T09:11:39.000Z</time>
      </trkpt>
      <trkpt lat="43.81166" lon="7.24106">
        <ele>699</ele>
        <time>2018-04-26T09:11:40.000Z</time>
      </trkpt>
      <trkpt lat="43.81168" lon="7.2411">
        <ele>679</ele>
        <time>2018-04-26T09:11:41.000Z</time>
      </trkpt>
      <trkpt lat="43.8117" lon="7.24115">
        <ele>678</ele>
        <time>2018-04-26T09:11:42.000Z</time>
      </trkpt>
      <trkpt lat="43.81172" lon="7.24114">
        <ele>678</ele>
        <time>2018-04-26T09:11:43.000Z</time>
      </trkpt>
      <trkpt lat="43.81174" lon="7.24113">
        <ele>677</ele>
        <time>2018-04-26T09:11:44.000Z</time>
      </trkpt>
      <trkpt lat="43.81179" lon="7.24111">
        <ele>677</ele>
        <time>2018-04-26T09:11:46.000Z</time>
      </trkpt>
      <trkpt lat="43.81181" lon="7.24112">
        <ele>676</ele>
        <time>2018-04-26T09:11:47.000Z</time>
      </trkpt>
      <trkpt lat="43.81184" lon="7.2412">
        <ele>675</ele>
        <time>2018-04-26T09:11:49.000Z</time>
      </trkpt>
      <trkpt lat="43.81187" lon="7.24123">
        <ele>675</ele>
        <time>2018-04-26T09:11:50.000Z</time>
      </trkpt>
      <trkpt lat="43.81189" lon="7.24125">
        <ele>674</ele>
        <time>2018-04-26T09:11:51.000Z</time>
      </trkpt>
      <trkpt lat="43.81191" lon="7.24127">
        <ele>673</ele>
        <time>2018-04-26T09:11:52.000Z</time>
      </trkpt>
      <trkpt lat="43.81194" lon="7.2413">
        <ele>673</ele>
        <time>2018-04-26T09:11:53.000Z</time>
      </trkpt>
      <trkpt lat="43.81196" lon="7.24131">
        <ele>672</ele>
        <time>2018-04-26T09:11:54.000Z</time>
      </trkpt>
      <trkpt lat="43.81198" lon="7.24129">
        <ele>672</ele>
        <time>2018-04-26T09:11:55.000Z</time>
      </trkpt>
      <trkpt lat="43.81203" lon="7.24123">
        <ele>671</ele>
        <time>2018-04-26T09:11:57.000Z</time>
      </trkpt>
      <trkpt lat="43.81204" lon="7.24125">
        <ele>671</ele>
        <time>2018-04-26T09:11:58.000Z</time>
      </trkpt>
      <trkpt lat="43.81205" lon="7.24127">
        <ele>670</ele>
        <time>2018-04-26T09:11:59.000Z</time>
      </trkpt>
      <trkpt lat="43.81208" lon="7.24131">
        <ele>670</ele>
        <time>2018-04-26T09:12:00.000Z</time>
      </trkpt>
      <trkpt lat="43.81211" lon="7.24131">
        <ele>669</ele>
        <time>2018-04-26T09:12:01.000Z</time>
      </trkpt>
      <trkpt lat="43.81214" lon="7.24131">
        <ele>668</ele>
        <time>2018-04-26T09:12:02.000Z</time>
      </trkpt>
      <trkpt lat="43.81218" lon="7.24131">
        <ele>667</ele>
        <time>2018-04-26T09:12:03.000Z</time>
      </trkpt>
      <trkpt lat="43.81222" lon="7.24133">
        <ele>666</ele>
        <time>2018-04-26T09:12:04.000Z</time>
      </trkpt>
      <trkpt lat="43.81226" lon="7.24136">
        <ele>665</ele>
        <time>2018-04-26T09:12:05.000Z</time>
      </trkpt>
      <trkpt lat="43.81228" lon="7.24135">
        <ele>665</ele>
        <time>2018-04-26T09:12:06.000Z</time>
      </trkpt>
      <trkpt lat="43.81232" lon="7.2413">
        <ele>665</ele>
        <time>2018-04-26T09:12:08.000Z</time>
      </trkpt>
      <trkpt lat="43.81235" lon="7.24131">
        <ele>664</ele>
        <time>2018-04-26T09:12:09.000Z</time>
      </trkpt>
      <trkpt lat="43.81242" lon="7.24132">
        <ele>663</ele>
        <time>2018-04-26T09:12:11.000Z</time>
      </trkpt>
      <trkpt lat="43.81246" lon="7.24133">
        <ele>662</ele>
        <time>2018-04-26T09:12:12.000Z</time>
      </trkpt>
      <trkpt lat="43.8125" lon="7.24132">
        <ele>643</ele>
        <time>2018-04-26T09:12:13.000Z</time>
      </trkpt>
      <trkpt lat="43.81254" lon="7.24132">
        <ele>643</ele>
        <time>2018-04-26T09:12:14.000Z</time>
      </trkpt>
      <trkpt lat="43.81258" lon="7.24134">
        <ele>643</ele>
        <time>2018-04-26T09:12:15.000Z</time>
      </trkpt>
      <trkpt lat="43.81264" lon="7.24138">
        <ele>643</ele>
        <time>2018-04-26T09:12:17.000Z</time>
      </trkpt>
      <trkpt lat="43.81267" lon="7.24138">
        <ele>642</ele>
        <time>2018-04-26T09:12:18.000Z</time>
      </trkpt>
      <trkpt lat="43.8127" lon="7.24141">
        <ele>642</ele>
        <time>2018-04-26T09:12:19.000Z</time>
      </trkpt>
      <trkpt lat="43.81273" lon="7.24143">
        <ele>642</ele>
        <time>2018-04-26T09:12:20.000Z</time>
      </trkpt>
      <trkpt lat="43.81275" lon="7.24144">
        <ele>641</ele>
        <time>2018-04-26T09:12:21.000Z</time>
      </trkpt>
      <trkpt lat="43.81275" lon="7.24143">
        <ele>641</ele>
        <time>2018-04-26T09:12:22.000Z</time>
      </trkpt>
      <trkpt lat="43.81276" lon="7.24145">
        <ele>641</ele>
        <time>2018-04-26T09:12:24.000Z</time>
      </trkpt>
      <trkpt lat="43.81276" lon="7.24145">
        <ele>641</ele>
        <time>2018-04-26T09:12:29.000Z</time>
      </trkpt>
      <trkpt lat="43.81275" lon="7.24145">
        <ele>641</ele>
        <time>2018-04-26T09:12:32.000Z</time>
      </trkpt>
      <trkpt lat="43.81275" lon="7.24144">
        <ele>641</ele>
        <time>2018-04-26T09:12:37.000Z</time>
      </trkpt>
      <trkpt lat="43.81276" lon="7.24142">
        <ele>641</ele>
        <time>2018-04-26T09:12:44.000Z</time>
      </trkpt>
      <trkpt lat="43.81281" lon="7.24138">
        <ele>640</ele>
        <time>2018-04-26T09:12:50.000Z</time>
      </trkpt>
      <trkpt lat="43.81281" lon="7.24138">
        <ele>640</ele>
        <time>2018-04-26T09:12:51.000Z</time>
      </trkpt>
      <trkpt lat="43.81285" lon="7.24141">
        <ele>640</ele>
        <time>2018-04-26T09:12:54.000Z</time>
      </trkpt>
      <trkpt lat="43.81287" lon="7.24142">
        <ele>640</ele>
        <time>2018-04-26T09:12:59.000Z</time>
      </trkpt>
      <trkpt lat="43.81291" lon="7.24145">
        <ele>639</ele>
        <time>2018-04-26T09:13:11.000Z</time>
      </trkpt>
      <trkpt lat="43.81296" lon="7.24148">
        <ele>638</ele>
        <time>2018-04-26T09:13:13.000Z</time>
      </trkpt>
      <trkpt lat="43.81303" lon="7.24154">
        <ele>637</ele>
        <time>2018-04-26T09:13:15.000Z</time>
      </trkpt>
      <trkpt lat="43.81306" lon="7.24156">
        <ele>637</ele>
        <time>2018-04-26T09:13:16.000Z</time>
      </trkpt>
      <trkpt lat="43.81311" lon="7.24158">
        <ele>636</ele>
        <time>2018-04-26T09:13:17.000Z</time>
      </trkpt>
      <trkpt lat="43.81315" lon="7.24159">
        <ele>635</ele>
        <time>2018-04-26T09:13:18.000Z</time>
      </trkpt>
      <trkpt lat="43.81318" lon="7.24162">
        <ele>635</ele>
        <time>2018-04-26T09:13:19.000Z</time>
      </trkpt>
      <trkpt lat="43.81322" lon="7.24163">
        <ele>634</ele>
        <time>2018-04-26T09:13:20.000Z</time>
      </trkpt>
      <trkpt lat="43.81325" lon="7.24164">
        <ele>633</ele>
        <time>2018-04-26T09:13:21.000Z</time>
      </trkpt>
      <trkpt lat="43.81329" lon="7.24165">
        <ele>632</ele>
        <time>2018-04-26T09:13:22.000Z</time>
      </trkpt>
      <trkpt lat="43.81334" lon="7.24161">
        <ele>627</ele>
        <time>2018-04-26T09:13:24.000Z</time>
      </trkpt>
      <trkpt lat="43.81339" lon="7.24165">
        <ele>627</ele>
        <time>2018-04-26T09:13:26.000Z</time>
      </trkpt>
      <trkpt lat="43.81342" lon="7.24169">
        <ele>624</ele>
        <time>2018-04-26T09:13:27.000Z</time>
      </trkpt>
      <trkpt lat="43.81345" lon="7.24171">
        <ele>621</ele>
        <time>2018-04-26T09:13:28.000Z</time>
      </trkpt>
      <trkpt lat="43.81348" lon="7.24172">
        <ele>620</ele>
        <time>2018-04-26T09:13:29.000Z</time>
      </trkpt>
      <trkpt lat="43.81352" lon="7.24173">
        <ele>618</ele>
        <time>2018-04-26T09:13:30.000Z</time>
      </trkpt>
      <trkpt lat="43.81355" lon="7.24172">
        <ele>616</ele>
        <time>2018-04-26T09:13:31.000Z</time>
      </trkpt>
      <trkpt lat="43.81358" lon="7.24172">
        <ele>615</ele>
        <time>2018-04-26T09:13:32.000Z</time>
      </trkpt>
      <trkpt lat="43.8136" lon="7.24174">
        <ele>614</ele>
        <time>2018-04-26T09:13:33.000Z</time>
      </trkpt>
      <trkpt lat="43.81361" lon="7.24175">
        <ele>614</ele>
        <time>2018-04-26T09:13:34.000Z</time>
      </trkpt>
      <trkpt lat="43.81363" lon="7.24179">
        <ele>613</ele>
        <time>2018-04-26T09:13:35.000Z</time>
      </trkpt>
      <trkpt lat="43.81366" lon="7.24188">
        <ele>611</ele>
        <time>2018-04-26T09:13:37.000Z</time>
      </trkpt>
      <trkpt lat="43.81368" lon="7.2419">
        <ele>610</ele>
        <time>2018-04-26T09:13:38.000Z</time>
      </trkpt>
      <trkpt lat="43.81373" lon="7.24191">
        <ele>609</ele>
        <time>2018-04-26T09:13:39.000Z</time>
      </trkpt>
      <trkpt lat="43.81374" lon="7.24194">
        <ele>608</ele>
        <time>2018-04-26T09:13:40.000Z</time>
      </trkpt>
      <trkpt lat="43.81375" lon="7.24203">
        <ele>607</ele>
        <time>2018-04-26T09:13:42.000Z</time>
      </trkpt>
      <trkpt lat="43.81377" lon="7.24208">
        <ele>607</ele>
        <time>2018-04-26T09:13:43.000Z</time>
      </trkpt>
      <trkpt lat="43.81379" lon="7.24212">
        <ele>606</ele>
        <time>2018-04-26T09:13:44.000Z</time>
      </trkpt>
      <trkpt lat="43.81383" lon="7.24218">
        <ele>605</ele>
        <time>2018-04-26T09:13:45.000Z</time>
      </trkpt>
      <trkpt lat="43.81387" lon="7.24226">
        <ele>603</ele>
        <time>2018-04-26T09:13:47.000Z</time>
      </trkpt>
      <trkpt lat="43.81393" lon="7.24231">
        <ele>602</ele>
        <time>2018-04-26T09:13:49.000Z</time>
      </trkpt>
      <trkpt lat="43.81395" lon="7.24235">
        <ele>600</ele>
        <time>2018-04-26T09:13:50.000Z</time>
      </trkpt>
      <trkpt lat="43.81395" lon="7.24239">
        <ele>600</ele>
        <time>2018-04-26T09:13:51.000Z</time>
      </trkpt>
      <trkpt lat="43.81396" lon="7.24242">
        <ele>599</ele>
        <time>2018-04-26T09:13:52.000Z</time>
      </trkpt>
      <trkpt lat="43.81398" lon="7.24243">
        <ele>598</ele>
        <time>2018-04-26T09:13:53.000Z</time>
      </trkpt>
      <trkpt lat="43.81399" lon="7.24243">
        <ele>598</ele>
        <time>2018-04-26T09:13:54.000Z</time>
      </trkpt>
      <trkpt lat="43.814" lon="7.24243">
        <ele>598</ele>
        <time>2018-04-26T09:13:55.000Z</time>
      </trkpt>
      <trkpt lat="43.81402" lon="7.24244">
        <ele>597</ele>
        <time>2018-04-26T09:13:56.000Z</time>
      </trkpt>
      <trkpt lat="43.81405" lon="7.24243">
        <ele>596</ele>
        <time>2018-04-26T09:13:57.000Z</time>
      </trkpt>
      <trkpt lat="43.81409" lon="7.24243">
        <ele>595</ele>
        <time>2018-04-26T09:13:59.000Z</time>
      </trkpt>
      <trkpt lat="43.81409" lon="7.24241">
        <ele>595</ele>
        <time>2018-04-26T09:14:00.000Z</time>
      </trkpt>
      <trkpt lat="43.81411" lon="7.24239">
        <ele>595</ele>
        <time>2018-04-26T09:14:01.000Z</time>
      </trkpt>
      <trkpt lat="43.81414" lon="7.24236">
        <ele>596</ele>
        <time>2018-04-26T09:14:02.000Z</time>
      </trkpt>
      <trkpt lat="43.81417" lon="7.24239">
        <ele>582</ele>
        <time>2018-04-26T09:14:04.000Z</time>
      </trkpt>
      <trkpt lat="43.81417" lon="7.24241">
        <ele>583</ele>
        <time>2018-04-26T09:14:05.000Z</time>
      </trkpt>
      <trkpt lat="43.8142" lon="7.2425">
        <ele>586</ele>
        <time>2018-04-26T09:14:08.000Z</time>
      </trkpt>
      <trkpt lat="43.81421" lon="7.24253">
        <ele>583</ele>
        <time>2018-04-26T09:14:09.000Z</time>
      </trkpt>
      <trkpt lat="43.81422" lon="7.24256">
        <ele>581</ele>
        <time>2018-04-26T09:14:10.000Z</time>
      </trkpt>
      <trkpt lat="43.81425" lon="7.24264">
        <ele>576</ele>
        <time>2018-04-26T09:14:12.000Z</time>
      </trkpt>
      <trkpt lat="43.81424" lon="7.24268">
        <ele>575</ele>
        <time>2018-04-26T09:14:13.000Z</time>
      </trkpt>
      <trkpt lat="43.81423" lon="7.24274">
        <ele>573</ele>
        <time>2018-04-26T09:14:14.000Z</time>
      </trkpt>
      <trkpt lat="43.81422" lon="7.24277">
        <ele>572</ele>
        <time>2018-04-26T09:14:15.000Z</time>
      </trkpt>
      <trkpt lat="43.81421" lon="7.2428">
        <ele>571</ele>
        <time>2018-04-26T09:14:16.000Z</time>
      </trkpt>
      <trkpt lat="43.81418" lon="7.24284">
        <ele>570</ele>
        <time>2018-04-26T09:14:18.000Z</time>
      </trkpt>
      <trkpt lat="43.81414" lon="7.2429">
        <ele>584</ele>
        <time>2018-04-26T09:14:20.000Z</time>
      </trkpt>
      <trkpt lat="43.81411" lon="7.243">
        <ele>582</ele>
        <time>2018-04-26T09:14:22.000Z</time>
      </trkpt>
      <trkpt lat="43.81412" lon="7.24304">
        <ele>581</ele>
        <time>2018-04-26T09:14:23.000Z</time>
      </trkpt>
      <trkpt lat="43.81417" lon="7.2431">
        <ele>566</ele>
        <time>2018-04-26T09:14:25.000Z</time>
      </trkpt>
      <trkpt lat="43.81425" lon="7.24314">
        <ele>565</ele>
        <time>2018-04-26T09:14:27.000Z</time>
      </trkpt>
      <trkpt lat="43.81432" lon="7.24313">
        <ele>565</ele>
        <time>2018-04-26T09:14:29.000Z</time>
      </trkpt>
      <trkpt lat="43.81438" lon="7.24313">
        <ele>565</ele>
        <time>2018-04-26T09:14:31.000Z</time>
      </trkpt>
      <trkpt lat="43.81444" lon="7.24311">
        <ele>564</ele>
        <time>2018-04-26T09:14:32.000Z</time>
      </trkpt>
      <trkpt lat="43.81449" lon="7.2431">
        <ele>564</ele>
        <time>2018-04-26T09:14:33.000Z</time>
      </trkpt>
      <trkpt lat="43.81453" lon="7.2431">
        <ele>563</ele>
        <time>2018-04-26T09:14:34.000Z</time>
      </trkpt>
      <trkpt lat="43.81461" lon="7.24312">
        <ele>562</ele>
        <time>2018-04-26T09:14:36.000Z</time>
      </trkpt>
      <trkpt lat="43.81463" lon="7.24314">
        <ele>561</ele>
        <time>2018-04-26T09:14:37.000Z</time>
      </trkpt>
      <trkpt lat="43.81464" lon="7.24317">
        <ele>561</ele>
        <time>2018-04-26T09:14:38.000Z</time>
      </trkpt>
      <trkpt lat="43.81468" lon="7.24318">
        <ele>560</ele>
        <time>2018-04-26T09:14:40.000Z</time>
      </trkpt>
      <trkpt lat="43.8147" lon="7.24317">
        <ele>560</ele>
        <time>2018-04-26T09:14:41.000Z</time>
      </trkpt>
      <trkpt lat="43.81478" lon="7.24311">
        <ele>559</ele>
        <time>2018-04-26T09:14:44.000Z</time>
      </trkpt>
      <trkpt lat="43.81478" lon="7.24307">
        <ele>560</ele>
        <time>2018-04-26T09:14:45.000Z</time>
      </trkpt>
      <trkpt lat="43.81479" lon="7.24304">
        <ele>560</ele>
        <time>2018-04-26T09:14:46.000Z</time>
      </trkpt>
      <trkpt lat="43.8148" lon="7.24295">
        <ele>560</ele>
        <time>2018-04-26T09:14:48.000Z</time>
      </trkpt>
      <trkpt lat="43.81478" lon="7.24293">
        <ele>561</ele>
        <time>2018-04-26T09:14:49.000Z</time>
      </trkpt>
      <trkpt lat="43.81475" lon="7.24287">
        <ele>562</ele>
        <time>2018-04-26T09:14:51.000Z</time>
      </trkpt>
      <trkpt lat="43.81475" lon="7.24279">
        <ele>562</ele>
        <time>2018-04-26T09:14:53.000Z</time>
      </trkpt>
      <trkpt lat="43.81475" lon="7.24275">
        <ele>562</ele>
        <time>2018-04-26T09:14:54.000Z</time>
      </trkpt>
      <trkpt lat="43.81474" lon="7.24266">
        <ele>562</ele>
        <time>2018-04-26T09:14:56.000Z</time>
      </trkpt>
      <trkpt lat="43.81476" lon="7.24249">
        <ele>564</ele>
        <time>2018-04-26T09:14:59.000Z</time>
      </trkpt>
      <trkpt lat="43.81477" lon="7.24242">
        <ele>564</ele>
        <time>2018-04-26T09:15:00.000Z</time>
      </trkpt>
      <trkpt lat="43.81479" lon="7.24219">
        <ele>564</ele>
        <time>2018-04-26T09:15:03.000Z</time>
      </trkpt>
      <trkpt lat="43.81479" lon="7.2421">
        <ele>564</ele>
        <time>2018-04-26T09:15:04.000Z</time>
      </trkpt>
      <trkpt lat="43.81478" lon="7.24201">
        <ele>564</ele>
        <time>2018-04-26T09:15:05.000Z</time>
      </trkpt>
      <trkpt lat="43.81476" lon="7.24181">
        <ele>561</ele>
        <time>2018-04-26T09:15:07.000Z</time>
      </trkpt>
      <trkpt lat="43.81476" lon="7.24159">
        <ele>558</ele>
        <time>2018-04-26T09:15:09.000Z</time>
      </trkpt>
      <trkpt lat="43.81476" lon="7.24148">
        <ele>559</ele>
        <time>2018-04-26T09:15:10.000Z</time>
      </trkpt>
      <trkpt lat="43.81476" lon="7.24138">
        <ele>560</ele>
        <time>2018-04-26T09:15:11.000Z</time>
      </trkpt>
      <trkpt lat="43.81477" lon="7.24126">
        <ele>559</ele>
        <time>2018-04-26T09:15:12.000Z</time>
      </trkpt>
      <trkpt lat="43.81482" lon="7.24103">
        <ele>555</ele>
        <time>2018-04-26T09:15:14.000Z</time>
      </trkpt>
      <trkpt lat="43.81488" lon="7.24082">
        <ele>544</ele>
        <time>2018-04-26T09:15:16.000Z</time>
      </trkpt>
      <trkpt lat="43.81493" lon="7.24064">
        <ele>545</ele>
        <time>2018-04-26T09:15:18.000Z</time>
      </trkpt>
      <trkpt lat="43.81491" lon="7.24047">
        <ele>545</ele>
        <time>2018-04-26T09:15:20.000Z</time>
      </trkpt>
      <trkpt lat="43.81489" lon="7.2404">
        <ele>545</ele>
        <time>2018-04-26T09:15:21.000Z</time>
      </trkpt>
      <trkpt lat="43.81484" lon="7.24024">
        <ele>543</ele>
        <time>2018-04-26T09:15:23.000Z</time>
      </trkpt>
      <trkpt lat="43.81475" lon="7.24011">
        <ele>543</ele>
        <time>2018-04-26T09:15:25.000Z</time>
      </trkpt>
      <trkpt lat="43.8147" lon="7.24005">
        <ele>544</ele>
        <time>2018-04-26T09:15:26.000Z</time>
      </trkpt>
      <trkpt lat="43.81464" lon="7.23998">
        <ele>533</ele>
        <time>2018-04-26T09:15:27.000Z</time>
      </trkpt>
      <trkpt lat="43.81458" lon="7.23991">
        <ele>534</ele>
        <time>2018-04-26T09:15:28.000Z</time>
      </trkpt>
      <trkpt lat="43.81446" lon="7.23977">
        <ele>537</ele>
        <time>2018-04-26T09:15:30.000Z</time>
      </trkpt>
      <trkpt lat="43.8144" lon="7.23971">
        <ele>537</ele>
        <time>2018-04-26T09:15:31.000Z</time>
      </trkpt>
      <trkpt lat="43.81426" lon="7.23957">
        <ele>536</ele>
        <time>2018-04-26T09:15:33.000Z</time>
      </trkpt>
      <trkpt lat="43.8142" lon="7.23947">
        <ele>535</ele>
        <time>2018-04-26T09:15:34.000Z</time>
      </trkpt>
      <trkpt lat="43.81415" lon="7.23938">
        <ele>555</ele>
        <time>2018-04-26T09:15:35.000Z</time>
      </trkpt>
      <trkpt lat="43.81403" lon="7.23923">
        <ele>551</ele>
        <time>2018-04-26T09:15:37.000Z</time>
      </trkpt>
      <trkpt lat="43.8139" lon="7.23914">
        <ele>556</ele>
        <time>2018-04-26T09:15:39.000Z</time>
      </trkpt>
      <trkpt lat="43.81383" lon="7.2389">
        <ele>561</ele>
        <time>2018-04-26T09:15:42.000Z</time>
      </trkpt>
      <trkpt lat="43.8139" lon="7.23875">
        <ele>561</ele>
        <time>2018-04-26T09:15:44.000Z</time>
      </trkpt>
      <trkpt lat="43.81395" lon="7.23871">
        <ele>560</ele>
        <time>2018-04-26T09:15:45.000Z</time>
      </trkpt>
      <trkpt lat="43.81411" lon="7.2386">
        <ele>557</ele>
        <time>2018-04-26T09:15:48.000Z</time>
      </trkpt>
      <trkpt lat="43.81418" lon="7.23855">
        <ele>534</ele>
        <time>2018-04-26T09:15:49.000Z</time>
      </trkpt>
      <trkpt lat="43.81431" lon="7.23848">
        <ele>534</ele>
        <time>2018-04-26T09:15:51.000Z</time>
      </trkpt>
      <trkpt lat="43.81443" lon="7.23842">
        <ele>530</ele>
        <time>2018-04-26T09:15:53.000Z</time>
      </trkpt>
      <trkpt lat="43.81449" lon="7.23839">
        <ele>528</ele>
        <time>2018-04-26T09:15:54.000Z</time>
      </trkpt>
      <trkpt lat="43.81455" lon="7.23837">
        <ele>526</ele>
        <time>2018-04-26T09:15:55.000Z</time>
      </trkpt>
      <trkpt lat="43.81467" lon="7.23829">
        <ele>535</ele>
        <time>2018-04-26T09:15:57.000Z</time>
      </trkpt>
      <trkpt lat="43.81479" lon="7.23819">
        <ele>531</ele>
        <time>2018-04-26T09:15:59.000Z</time>
      </trkpt>
      <trkpt lat="43.81485" lon="7.23813">
        <ele>531</ele>
        <time>2018-04-26T09:16:00.000Z</time>
      </trkpt>
      <trkpt lat="43.8149" lon="7.23809">
        <ele>531</ele>
        <time>2018-04-26T09:16:01.000Z</time>
      </trkpt>
      <trkpt lat="43.81498" lon="7.23799">
        <ele>534</ele>
        <time>2018-04-26T09:16:03.000Z</time>
      </trkpt>
      <trkpt lat="43.81501" lon="7.23795">
        <ele>509</ele>
        <time>2018-04-26T09:16:04.000Z</time>
      </trkpt>
      <trkpt lat="43.81504" lon="7.23801">
        <ele>508</ele>
        <time>2018-04-26T09:16:07.000Z</time>
      </trkpt>
      <trkpt lat="43.815" lon="7.23808">
        <ele>507</ele>
        <time>2018-04-26T09:16:09.000Z</time>
      </trkpt>
      <trkpt lat="43.81498" lon="7.23811">
        <ele>529</ele>
        <time>2018-04-26T09:16:10.000Z</time>
      </trkpt>
      <trkpt lat="43.81495" lon="7.23817">
        <ele>526</ele>
        <time>2018-04-26T09:16:13.000Z</time>
      </trkpt>
      <trkpt lat="43.81496" lon="7.23816">
        <ele>526</ele>
        <time>2018-04-26T09:16:14.000Z</time>
      </trkpt>
      <trkpt lat="43.81497" lon="7.23816">
        <ele>526</ele>
        <time>2018-04-26T09:16:15.000Z</time>
      </trkpt>
      <trkpt lat="43.81504" lon="7.2381">
        <ele>507</ele>
        <time>2018-04-26T09:16:18.000Z</time>
      </trkpt>
      <trkpt lat="43.81508" lon="7.2381">
        <ele>506</ele>
        <time>2018-04-26T09:16:20.000Z</time>
      </trkpt>
      <trkpt lat="43.81507" lon="7.23814">
        <ele>506</ele>
        <time>2018-04-26T09:16:21.000Z</time>
      </trkpt>
      <trkpt lat="43.81505" lon="7.23817">
        <ele>506</ele>
        <time>2018-04-26T09:16:22.000Z</time>
      </trkpt>
      <trkpt lat="43.815" lon="7.23825">
        <ele>507</ele>
        <time>2018-04-26T09:16:24.000Z</time>
      </trkpt>
      <trkpt lat="43.81497" lon="7.23829">
        <ele>516</ele>
        <time>2018-04-26T09:16:25.000Z</time>
      </trkpt>
      <trkpt lat="43.81493" lon="7.23832">
        <ele>518</ele>
        <time>2018-04-26T09:16:26.000Z</time>
      </trkpt>
      <trkpt lat="43.81487" lon="7.23845">
        <ele>516</ele>
        <time>2018-04-26T09:16:28.000Z</time>
      </trkpt>
      <trkpt lat="43.81484" lon="7.23852">
        <ele>518</ele>
        <time>2018-04-26T09:16:29.000Z</time>
      </trkpt>
      <trkpt lat="43.81479" lon="7.23859">
        <ele>519</ele>
        <time>2018-04-26T09:16:30.000Z</time>
      </trkpt>
      <trkpt lat="43.81469" lon="7.23868">
        <ele>521</ele>
        <time>2018-04-26T09:16:32.000Z</time>
      </trkpt>
      <trkpt lat="43.81463" lon="7.23871">
        <ele>522</ele>
        <time>2018-04-26T09:16:33.000Z</time>
      </trkpt>
      <trkpt lat="43.81458" lon="7.23875">
        <ele>523</ele>
        <time>2018-04-26T09:16:34.000Z</time>
      </trkpt>
      <trkpt lat="43.81448" lon="7.23882">
        <ele>525</ele>
        <time>2018-04-26T09:16:36.000Z</time>
      </trkpt>
      <trkpt lat="43.81443" lon="7.23887">
        <ele>526</ele>
        <time>2018-04-26T09:16:37.000Z</time>
      </trkpt>
      <trkpt lat="43.81445" lon="7.23895">
        <ele>525</ele>
        <time>2018-04-26T09:16:40.000Z</time>
      </trkpt>
      <trkpt lat="43.81447" lon="7.23897">
        <ele>525</ele>
        <time>2018-04-26T09:16:41.000Z</time>
      </trkpt>
      <trkpt lat="43.81451" lon="7.23899">
        <ele>524</ele>
        <time>2018-04-26T09:16:42.000Z</time>
      </trkpt>
      <trkpt lat="43.81455" lon="7.23905">
        <ele>522</ele>
        <time>2018-04-26T09:16:44.000Z</time>
      </trkpt>
      <trkpt lat="43.81457" lon="7.23908">
        <ele>522</ele>
        <time>2018-04-26T09:16:45.000Z</time>
      </trkpt>
      <trkpt lat="43.81463" lon="7.23917">
        <ele>524</ele>
        <time>2018-04-26T09:16:50.000Z</time>
      </trkpt>
      <trkpt lat="43.81465" lon="7.23919">
        <ele>523</ele>
        <time>2018-04-26T09:16:52.000Z</time>
      </trkpt>
      <trkpt lat="43.81467" lon="7.23922">
        <ele>523</ele>
        <time>2018-04-26T09:16:54.000Z</time>
      </trkpt>
      <trkpt lat="43.81469" lon="7.23925">
        <ele>522</ele>
        <time>2018-04-26T09:16:55.000Z</time>
      </trkpt>
      <trkpt lat="43.81474" lon="7.2393">
        <ele>521</ele>
        <time>2018-04-26T09:16:57.000Z</time>
      </trkpt>
      <trkpt lat="43.81481" lon="7.23936">
        <ele>520</ele>
        <time>2018-04-26T09:16:59.000Z</time>
      </trkpt>
      <trkpt lat="43.81499" lon="7.23955">
        <ele>522</ele>
        <time>2018-04-26T09:17:05.000Z</time>
      </trkpt>
      <trkpt lat="43.81514" lon="7.23972">
        <ele>497</ele>
        <time>2018-04-26T09:17:10.000Z</time>
      </trkpt>
      <trkpt lat="43.81525" lon="7.23979">
        <ele>496</ele>
        <time>2018-04-26T09:17:13.000Z</time>
      </trkpt>
      <trkpt lat="43.81528" lon="7.23983">
        <ele>495</ele>
        <time>2018-04-26T09:17:14.000Z</time>
      </trkpt>
      <trkpt lat="43.81535" lon="7.23997">
        <ele>494</ele>
        <time>2018-04-26T09:17:17.000Z</time>
      </trkpt>
      <trkpt lat="43.81537" lon="7.24001">
        <ele>504</ele>
        <time>2018-04-26T09:17:18.000Z</time>
      </trkpt>
      <trkpt lat="43.81543" lon="7.24027">
        <ele>503</ele>
        <time>2018-04-26T09:17:24.000Z</time>
      </trkpt>
      <trkpt lat="43.81543" lon="7.24032">
        <ele>504</ele>
        <time>2018-04-26T09:17:25.000Z</time>
      </trkpt>
      <trkpt lat="43.81546" lon="7.24049">
        <ele>505</ele>
        <time>2018-04-26T09:17:29.000Z</time>
      </trkpt>
      <trkpt lat="43.81546" lon="7.24062">
        <ele>506</ele>
        <time>2018-04-26T09:17:33.000Z</time>
      </trkpt>
      <trkpt lat="43.81545" lon="7.24063">
        <ele>506</ele>
        <time>2018-04-26T09:17:34.000Z</time>
      </trkpt>
      <trkpt lat="43.81546" lon="7.24075">
        <ele>506</ele>
        <time>2018-04-26T09:17:37.000Z</time>
      </trkpt>
      <trkpt lat="43.81546" lon="7.24077">
        <ele>507</ele>
        <time>2018-04-26T09:17:38.000Z</time>
      </trkpt>
      <trkpt lat="43.81545" lon="7.2408">
        <ele>507</ele>
        <time>2018-04-26T09:17:39.000Z</time>
      </trkpt>
      <trkpt lat="43.81544" lon="7.24088">
        <ele>517</ele>
        <time>2018-04-26T09:17:42.000Z</time>
      </trkpt>
      <trkpt lat="43.81544" lon="7.24095">
        <ele>517</ele>
        <time>2018-04-26T09:17:45.000Z</time>
      </trkpt>
      <trkpt lat="43.81542" lon="7.24099">
        <ele>518</ele>
        <time>2018-04-26T09:17:47.000Z</time>
      </trkpt>
      <trkpt lat="43.81541" lon="7.24102">
        <ele>519</ele>
        <time>2018-04-26T09:17:48.000Z</time>
      </trkpt>
      <trkpt lat="43.8154" lon="7.24105">
        <ele>519</ele>
        <time>2018-04-26T09:17:49.000Z</time>
      </trkpt>
      <trkpt lat="43.8154" lon="7.24112">
        <ele>520</ele>
        <time>2018-04-26T09:17:52.000Z</time>
      </trkpt>
      <trkpt lat="43.81539" lon="7.24117">
        <ele>520</ele>
        <time>2018-04-26T09:17:54.000Z</time>
      </trkpt>
      <trkpt lat="43.81539" lon="7.24128">
        <ele>521</ele>
        <time>2018-04-26T09:17:58.000Z</time>
      </trkpt>
      <trkpt lat="43.81542" lon="7.24138">
        <ele>521</ele>
        <time>2018-04-26T09:18:02.000Z</time>
      </trkpt>
      <trkpt lat="43.81542" lon="7.2414">
        <ele>521</ele>
        <time>2018-04-26T09:18:03.000Z</time>
      </trkpt>
      <trkpt lat="43.81544" lon="7.24151">
        <ele>521</ele>
        <time>2018-04-26T09:18:07.000Z</time>
      </trkpt>
      <trkpt lat="43.81547" lon="7.24157">
        <ele>521</ele>
        <time>2018-04-26T09:18:10.000Z</time>
      </trkpt>
      <trkpt lat="43.81551" lon="7.24161">
        <ele>520</ele>
        <time>2018-04-26T09:18:12.000Z</time>
      </trkpt>
      <trkpt lat="43.81558" lon="7.2417">
        <ele>527</ele>
        <time>2018-04-26T09:18:16.000Z</time>
      </trkpt>
      <trkpt lat="43.8156" lon="7.24171">
        <ele>526</ele>
        <time>2018-04-26T09:18:17.000Z</time>
      </trkpt>
      <trkpt lat="43.81564" lon="7.24172">
        <ele>525</ele>
        <time>2018-04-26T09:18:19.000Z</time>
      </trkpt>
      <trkpt lat="43.81572" lon="7.24177">
        <ele>522</ele>
        <time>2018-04-26T09:18:23.000Z</time>
      </trkpt>
      <trkpt lat="43.81585" lon="7.2418">
        <ele>512</ele>
        <time>2018-04-26T09:18:28.000Z</time>
      </trkpt>
      <trkpt lat="43.816" lon="7.24178">
        <ele>512</ele>
        <time>2018-04-26T09:18:33.000Z</time>
      </trkpt>
      <trkpt lat="43.81605" lon="7.24178">
        <ele>512</ele>
        <time>2018-04-26T09:18:34.000Z</time>
      </trkpt>
      <trkpt lat="43.81623" lon="7.24177">
        <ele>510</ele>
        <time>2018-04-26T09:18:37.000Z</time>
      </trkpt>
      <trkpt lat="43.81629" lon="7.24177">
        <ele>509</ele>
        <time>2018-04-26T09:18:38.000Z</time>
      </trkpt>
      <trkpt lat="43.81636" lon="7.24178">
        <ele>507</ele>
        <time>2018-04-26T09:18:39.000Z</time>
      </trkpt>
      <trkpt lat="43.81642" lon="7.24179">
        <ele>506</ele>
        <time>2018-04-26T09:18:40.000Z</time>
      </trkpt>
      <trkpt lat="43.81647" lon="7.2418">
        <ele>505</ele>
        <time>2018-04-26T09:18:41.000Z</time>
      </trkpt>
      <trkpt lat="43.81652" lon="7.24185">
        <ele>505</ele>
        <time>2018-04-26T09:18:42.000Z</time>
      </trkpt>
      <trkpt lat="43.81656" lon="7.24197">
        <ele>507</ele>
        <time>2018-04-26T09:18:44.000Z</time>
      </trkpt>
      <trkpt lat="43.81658" lon="7.24208">
        <ele>510</ele>
        <time>2018-04-26T09:18:46.000Z</time>
      </trkpt>
      <trkpt lat="43.81661" lon="7.2422">
        <ele>511</ele>
        <time>2018-04-26T09:18:48.000Z</time>
      </trkpt>
      <trkpt lat="43.81672" lon="7.24244">
        <ele>508</ele>
        <time>2018-04-26T09:18:53.000Z</time>
      </trkpt>
      <trkpt lat="43.81688" lon="7.24253">
        <ele>503</ele>
        <time>2018-04-26T09:18:57.000Z</time>
      </trkpt>
      <trkpt lat="43.81696" lon="7.24256">
        <ele>501</ele>
        <time>2018-04-26T09:18:59.000Z</time>
      </trkpt>
      <trkpt lat="43.81701" lon="7.2426">
        <ele>499</ele>
        <time>2018-04-26T09:19:01.000Z</time>
      </trkpt>
      <trkpt lat="43.81705" lon="7.24262">
        <ele>498</ele>
        <time>2018-04-26T09:19:05.000Z</time>
      </trkpt>
      <trkpt lat="43.81707" lon="7.24266">
        <ele>498</ele>
        <time>2018-04-26T09:19:11.000Z</time>
      </trkpt>
      <trkpt lat="43.81713" lon="7.24274">
        <ele>496</ele>
        <time>2018-04-26T09:19:18.000Z</time>
      </trkpt>
      <trkpt lat="43.81717" lon="7.24278">
        <ele>495</ele>
        <time>2018-04-26T09:19:24.000Z</time>
      </trkpt>
      <trkpt lat="43.81719" lon="7.24278">
        <ele>495</ele>
        <time>2018-04-26T09:19:29.000Z</time>
      </trkpt>
      <trkpt lat="43.81719" lon="7.24278">
        <ele>495</ele>
        <time>2018-04-26T09:19:32.000Z</time>
      </trkpt>
      <trkpt lat="43.8172" lon="7.24279">
        <ele>495</ele>
        <time>2018-04-26T09:19:51.000Z</time>
      </trkpt>
      <trkpt lat="43.81721" lon="7.24279">
        <ele>494</ele>
        <time>2018-04-26T09:20:04.000Z</time>
      </trkpt>
      <trkpt lat="43.81721" lon="7.2428">
        <ele>494</ele>
        <time>2018-04-26T09:20:27.000Z</time>
      </trkpt>
      <trkpt lat="43.81721" lon="7.2428">
        <ele>494</ele>
        <time>2018-04-26T09:20:32.000Z</time>
      </trkpt>
      <trkpt lat="43.81721" lon="7.2428">
        <ele>494</ele>
        <time>2018-04-26T09:20:43.000Z</time>
      </trkpt>
      <trkpt lat="43.81722" lon="7.2428">
        <ele>494</ele>
        <time>2018-04-26T09:20:55.000Z</time>
      </trkpt>
      <trkpt lat="43.81722" lon="7.24279">
        <ele>494</ele>
        <time>2018-04-26T09:21:04.000Z</time>
      </trkpt>
      <trkpt lat="43.81724" lon="7.24276">
        <ele>494</ele>
        <time>2018-04-26T09:21:11.000Z</time>
      </trkpt>
      <trkpt lat="43.81729" lon="7.2428">
        <ele>493</ele>
        <time>2018-04-26T09:21:15.000Z</time>
      </trkpt>
      <trkpt lat="43.81728" lon="7.24283">
        <ele>493</ele>
        <time>2018-04-26T09:21:16.000Z</time>
      </trkpt>
      <trkpt lat="43.81726" lon="7.24287">
        <ele>493</ele>
        <time>2018-04-26T09:21:17.000Z</time>
      </trkpt>
      <trkpt lat="43.81725" lon="7.24289">
        <ele>492</ele>
        <time>2018-04-26T09:21:18.000Z</time>
      </trkpt>
      <trkpt lat="43.81725" lon="7.24292">
        <ele>492</ele>
        <time>2018-04-26T09:21:19.000Z</time>
      </trkpt>
      <trkpt lat="43.81722" lon="7.24298">
        <ele>492</ele>
        <time>2018-04-26T09:21:23.000Z</time>
      </trkpt>
      <trkpt lat="43.81722" lon="7.24299">
        <ele>492</ele>
        <time>2018-04-26T09:21:26.000Z</time>
      </trkpt>
      <trkpt lat="43.8172" lon="7.24302">
        <ele>491</ele>
        <time>2018-04-26T09:21:28.000Z</time>
      </trkpt>
      <trkpt lat="43.81712" lon="7.2431">
        <ele>492</ele>
        <time>2018-04-26T09:21:31.000Z</time>
      </trkpt>
      <trkpt lat="43.81708" lon="7.24312">
        <ele>493</ele>
        <time>2018-04-26T09:21:32.000Z</time>
      </trkpt>
      <trkpt lat="43.81705" lon="7.24314">
        <ele>494</ele>
        <time>2018-04-26T09:21:33.000Z</time>
      </trkpt>
      <trkpt lat="43.81701" lon="7.24316">
        <ele>495</ele>
        <time>2018-04-26T09:21:35.000Z</time>
      </trkpt>
      <trkpt lat="43.81691" lon="7.24328">
        <ele>497</ele>
        <time>2018-04-26T09:21:39.000Z</time>
      </trkpt>
      <trkpt lat="43.81676" lon="7.2434">
        <ele>493</ele>
        <time>2018-04-26T09:21:43.000Z</time>
      </trkpt>
      <trkpt lat="43.81669" lon="7.24344">
        <ele>493</ele>
        <time>2018-04-26T09:21:45.000Z</time>
      </trkpt>
      <trkpt lat="43.81653" lon="7.24361">
        <ele>503</ele>
        <time>2018-04-26T09:21:50.000Z</time>
      </trkpt>
      <trkpt lat="43.81642" lon="7.24372">
        <ele>502</ele>
        <time>2018-04-26T09:21:53.000Z</time>
      </trkpt>
      <trkpt lat="43.81635" lon="7.24376">
        <ele>503</ele>
        <time>2018-04-26T09:21:55.000Z</time>
      </trkpt>
      <trkpt lat="43.8162" lon="7.24386">
        <ele>503</ele>
        <time>2018-04-26T09:22:00.000Z</time>
      </trkpt>
      <trkpt lat="43.81608" lon="7.24395">
        <ele>504</ele>
        <time>2018-04-26T09:22:05.000Z</time>
      </trkpt>
      <trkpt lat="43.81605" lon="7.24398">
        <ele>504</ele>
        <time>2018-04-26T09:22:06.000Z</time>
      </trkpt>
      <trkpt lat="43.81599" lon="7.24405">
        <ele>504</ele>
        <time>2018-04-26T09:22:08.000Z</time>
      </trkpt>
      <trkpt lat="43.81595" lon="7.24408">
        <ele>503</ele>
        <time>2018-04-26T09:22:09.000Z</time>
      </trkpt>
      <trkpt lat="43.81577" lon="7.24422">
        <ele>501</ele>
        <time>2018-04-26T09:22:14.000Z</time>
      </trkpt>
      <trkpt lat="43.81574" lon="7.24424">
        <ele>500</ele>
        <time>2018-04-26T09:22:15.000Z</time>
      </trkpt>
      <trkpt lat="43.81564" lon="7.24429">
        <ele>499</ele>
        <time>2018-04-26T09:22:18.000Z</time>
      </trkpt>
      <trkpt lat="43.81557" lon="7.24431">
        <ele>498</ele>
        <time>2018-04-26T09:22:20.000Z</time>
      </trkpt>
      <trkpt lat="43.81548" lon="7.24435">
        <ele>498</ele>
        <time>2018-04-26T09:22:24.000Z</time>
      </trkpt>
      <trkpt lat="43.81547" lon="7.24436">
        <ele>498</ele>
        <time>2018-04-26T09:22:26.000Z</time>
      </trkpt>
      <trkpt lat="43.81544" lon="7.24439">
        <ele>498</ele>
        <time>2018-04-26T09:22:37.000Z</time>
      </trkpt>
      <trkpt lat="43.81536" lon="7.24446">
        <ele>498</ele>
        <time>2018-04-26T09:22:41.000Z</time>
      </trkpt>
      <trkpt lat="43.81533" lon="7.24448">
        <ele>498</ele>
        <time>2018-04-26T09:22:42.000Z</time>
      </trkpt>
      <trkpt lat="43.81523" lon="7.24452">
        <ele>498</ele>
        <time>2018-04-26T09:22:45.000Z</time>
      </trkpt>
      <trkpt lat="43.81524" lon="7.24452">
        <ele>498</ele>
        <time>2018-04-26T09:22:46.000Z</time>
      </trkpt>
      <trkpt lat="43.81524" lon="7.24454">
        <ele>498</ele>
        <time>2018-04-26T09:22:53.000Z</time>
      </trkpt>
      <trkpt lat="43.81525" lon="7.24455">
        <ele>497</ele>
        <time>2018-04-26T09:22:59.000Z</time>
      </trkpt>
      <trkpt lat="43.81525" lon="7.24455">
        <ele>497</ele>
        <time>2018-04-26T09:23:00.000Z</time>
      </trkpt>
      <trkpt lat="43.81527" lon="7.24453">
        <ele>497</ele>
        <time>2018-04-26T09:23:02.000Z</time>
      </trkpt>
      <trkpt lat="43.81529" lon="7.24452">
        <ele>497</ele>
        <time>2018-04-26T09:23:03.000Z</time>
      </trkpt>
      <trkpt lat="43.81537" lon="7.24451">
        <ele>497</ele>
        <time>2018-04-26T09:23:07.000Z</time>
      </trkpt>
      <trkpt lat="43.81538" lon="7.2445">
        <ele>497</ele>
        <time>2018-04-26T09:23:08.000Z</time>
      </trkpt>
      <trkpt lat="43.8154" lon="7.2445">
        <ele>497</ele>
        <time>2018-04-26T09:23:10.000Z</time>
      </trkpt>
      <trkpt lat="43.81542" lon="7.24451">
        <ele>496</ele>
        <time>2018-04-26T09:23:11.000Z</time>
      </trkpt>
      <trkpt lat="43.81544" lon="7.24452">
        <ele>496</ele>
        <time>2018-04-26T09:23:12.000Z</time>
      </trkpt>
      <trkpt lat="43.81551" lon="7.24455">
        <ele>495</ele>
        <time>2018-04-26T09:23:15.000Z</time>
      </trkpt>
      <trkpt lat="43.81553" lon="7.24456">
        <ele>494</ele>
        <time>2018-04-26T09:23:16.000Z</time>
      </trkpt>
      <trkpt lat="43.81551" lon="7.24459">
        <ele>494</ele>
        <time>2018-04-26T09:23:18.000Z</time>
      </trkpt>
      <trkpt lat="43.81548" lon="7.2446">
        <ele>494</ele>
        <time>2018-04-26T09:23:20.000Z</time>
      </trkpt>
      <trkpt lat="43.81549" lon="7.24461">
        <ele>494</ele>
        <time>2018-04-26T09:23:21.000Z</time>
      </trkpt>
      <trkpt lat="43.81551" lon="7.24462">
        <ele>493</ele>
        <time>2018-04-26T09:23:22.000Z</time>
      </trkpt>
      <trkpt lat="43.81554" lon="7.24463">
        <ele>493</ele>
        <time>2018-04-26T09:23:23.000Z</time>
      </trkpt>
      <trkpt lat="43.81557" lon="7.24466">
        <ele>492</ele>
        <time>2018-04-26T09:23:24.000Z</time>
      </trkpt>
      <trkpt lat="43.8156" lon="7.24467">
        <ele>491</ele>
        <time>2018-04-26T09:23:25.000Z</time>
      </trkpt>
      <trkpt lat="43.81562" lon="7.24468">
        <ele>491</ele>
        <time>2018-04-26T09:23:26.000Z</time>
      </trkpt>
      <trkpt lat="43.81563" lon="7.2447">
        <ele>490</ele>
        <time>2018-04-26T09:23:27.000Z</time>
      </trkpt>
      <trkpt lat="43.81561" lon="7.24472">
        <ele>490</ele>
        <time>2018-04-26T09:23:28.000Z</time>
      </trkpt>
      <trkpt lat="43.81559" lon="7.24475">
        <ele>490</ele>
        <time>2018-04-26T09:23:29.000Z</time>
      </trkpt>
      <trkpt lat="43.8156" lon="7.24479">
        <ele>488</ele>
        <time>2018-04-26T09:23:31.000Z</time>
      </trkpt>
      <trkpt lat="43.81565" lon="7.24479">
        <ele>487</ele>
        <time>2018-04-26T09:23:33.000Z</time>
      </trkpt>
      <trkpt lat="43.81567" lon="7.24479">
        <ele>487</ele>
        <time>2018-04-26T09:23:34.000Z</time>
      </trkpt>
      <trkpt lat="43.81568" lon="7.2448">
        <ele>486</ele>
        <time>2018-04-26T09:23:35.000Z</time>
      </trkpt>
      <trkpt lat="43.81566" lon="7.24483">
        <ele>486</ele>
        <time>2018-04-26T09:23:37.000Z</time>
      </trkpt>
      <trkpt lat="43.81563" lon="7.24486">
        <ele>486</ele>
        <time>2018-04-26T09:23:39.000Z</time>
      </trkpt>
      <trkpt lat="43.81564" lon="7.24487">
        <ele>485</ele>
        <time>2018-04-26T09:23:40.000Z</time>
      </trkpt>
      <trkpt lat="43.81566" lon="7.24487">
        <ele>484</ele>
        <time>2018-04-26T09:23:42.000Z</time>
      </trkpt>
      <trkpt lat="43.81569" lon="7.2449">
        <ele>482</ele>
        <time>2018-04-26T09:23:44.000Z</time>
      </trkpt>
      <trkpt lat="43.81572" lon="7.24492">
        <ele>481</ele>
        <time>2018-04-26T09:23:45.000Z</time>
      </trkpt>
      <trkpt lat="43.81575" lon="7.24494">
        <ele>479</ele>
        <time>2018-04-26T09:23:46.000Z</time>
      </trkpt>
      <trkpt lat="43.81578" lon="7.24495">
        <ele>477</ele>
        <time>2018-04-26T09:23:47.000Z</time>
      </trkpt>
      <trkpt lat="43.81581" lon="7.24497">
        <ele>473</ele>
        <time>2018-04-26T09:23:49.000Z</time>
      </trkpt>
      <trkpt lat="43.8158" lon="7.24501">
        <ele>470</ele>
        <time>2018-04-26T09:23:51.000Z</time>
      </trkpt>
      <trkpt lat="43.8158" lon="7.24503">
        <ele>470</ele>
        <time>2018-04-26T09:23:53.000Z</time>
      </trkpt>
      <trkpt lat="43.8158" lon="7.24504">
        <ele>470</ele>
        <time>2018-04-26T09:23:55.000Z</time>
      </trkpt>
      <trkpt lat="43.81581" lon="7.24504">
        <ele>470</ele>
        <time>2018-04-26T09:23:58.000Z</time>
      </trkpt>
      <trkpt lat="43.81581" lon="7.24504">
        <ele>470</ele>
        <time>2018-04-26T09:24:00.000Z</time>
      </trkpt>
      <trkpt lat="43.81582" lon="7.24503">
        <ele>470</ele>
        <time>2018-04-26T09:24:06.000Z</time>
      </trkpt>
      <trkpt lat="43.81584" lon="7.24504">
        <ele>466</ele>
        <time>2018-04-26T09:24:08.000Z</time>
      </trkpt>
      <trkpt lat="43.81584" lon="7.24504">
        <ele>466</ele>
        <time>2018-04-26T09:24:14.000Z</time>
      </trkpt>
      <trkpt lat="43.81582" lon="7.2451">
        <ele>469</ele>
        <time>2018-04-26T09:24:19.000Z</time>
      </trkpt>
      <trkpt lat="43.81579" lon="7.24514">
        <ele>469</ele>
        <time>2018-04-26T09:24:23.000Z</time>
      </trkpt>
      <trkpt lat="43.81583" lon="7.24517">
        <ele>469</ele>
        <time>2018-04-26T09:24:26.000Z</time>
      </trkpt>
      <trkpt lat="43.81589" lon="7.24519">
        <ele>454</ele>
        <time>2018-04-26T09:24:29.000Z</time>
      </trkpt>
      <trkpt lat="43.81592" lon="7.2452">
        <ele>453</ele>
        <time>2018-04-26T09:24:30.000Z</time>
      </trkpt>
      <trkpt lat="43.81596" lon="7.2452">
        <ele>452</ele>
        <time>2018-04-26T09:24:31.000Z</time>
      </trkpt>
      <trkpt lat="43.816" lon="7.2452">
        <ele>451</ele>
        <time>2018-04-26T09:24:32.000Z</time>
      </trkpt>
      <trkpt lat="43.81604" lon="7.2452">
        <ele>450</ele>
        <time>2018-04-26T09:24:33.000Z</time>
      </trkpt>
      <trkpt lat="43.8161" lon="7.2452">
        <ele>448</ele>
        <time>2018-04-26T09:24:34.000Z</time>
      </trkpt>
      <trkpt lat="43.81616" lon="7.2452">
        <ele>447</ele>
        <time>2018-04-26T09:24:35.000Z</time>
      </trkpt>
      <trkpt lat="43.81621" lon="7.2452">
        <ele>445</ele>
        <time>2018-04-26T09:24:36.000Z</time>
      </trkpt>
      <trkpt lat="43.81625" lon="7.2452">
        <ele>445</ele>
        <time>2018-04-26T09:24:37.000Z</time>
      </trkpt>
      <trkpt lat="43.81626" lon="7.24521">
        <ele>444</ele>
        <time>2018-04-26T09:24:38.000Z</time>
      </trkpt>
      <trkpt lat="43.81629" lon="7.24524">
        <ele>443</ele>
        <time>2018-04-26T09:24:40.000Z</time>
      </trkpt>
      <trkpt lat="43.81639" lon="7.24525">
        <ele>441</ele>
        <time>2018-04-26T09:24:42.000Z</time>
      </trkpt>
      <trkpt lat="43.81644" lon="7.24524">
        <ele>440</ele>
        <time>2018-04-26T09:24:43.000Z</time>
      </trkpt>
      <trkpt lat="43.81649" lon="7.24523">
        <ele>440</ele>
        <time>2018-04-26T09:24:44.000Z</time>
      </trkpt>
      <trkpt lat="43.81654" lon="7.24524">
        <ele>439</ele>
        <time>2018-04-26T09:24:45.000Z</time>
      </trkpt>
      <trkpt lat="43.81659" lon="7.24524">
        <ele>439</ele>
        <time>2018-04-26T09:24:46.000Z</time>
      </trkpt>
      <trkpt lat="43.81666" lon="7.24523">
        <ele>439</ele>
        <time>2018-04-26T09:24:47.000Z</time>
      </trkpt>
      <trkpt lat="43.81678" lon="7.24519">
        <ele>420</ele>
        <time>2018-04-26T09:24:49.000Z</time>
      </trkpt>
      <trkpt lat="43.81684" lon="7.24518">
        <ele>419</ele>
        <time>2018-04-26T09:24:50.000Z</time>
      </trkpt>
      <trkpt lat="43.81688" lon="7.24516">
        <ele>417</ele>
        <time>2018-04-26T09:24:51.000Z</time>
      </trkpt>
      <trkpt lat="43.81691" lon="7.24516">
        <ele>417</ele>
        <time>2018-04-26T09:24:52.000Z</time>
      </trkpt>
      <trkpt lat="43.81691" lon="7.24517">
        <ele>416</ele>
        <time>2018-04-26T09:24:53.000Z</time>
      </trkpt>
      <trkpt lat="43.81691" lon="7.24517">
        <ele>416</ele>
        <time>2018-04-26T09:24:55.000Z</time>
      </trkpt>
      <trkpt lat="43.81691" lon="7.24516">
        <ele>417</ele>
        <time>2018-04-26T09:24:57.000Z</time>
      </trkpt>
      <trkpt lat="43.8169" lon="7.24516">
        <ele>417</ele>
        <time>2018-04-26T09:24:59.000Z</time>
      </trkpt>
      <trkpt lat="43.81686" lon="7.24522">
        <ele>417</ele>
        <time>2018-04-26T09:25:03.000Z</time>
      </trkpt>
      <trkpt lat="43.8168" lon="7.2453">
        <ele>415</ele>
        <time>2018-04-26T09:25:06.000Z</time>
      </trkpt>
      <trkpt lat="43.81673" lon="7.24538">
        <ele>414</ele>
        <time>2018-04-26T09:25:08.000Z</time>
      </trkpt>
      <trkpt lat="43.81667" lon="7.24543">
        <ele>413</ele>
        <time>2018-04-26T09:25:10.000Z</time>
      </trkpt>
      <trkpt lat="43.81661" lon="7.24548">
        <ele>434</ele>
        <time>2018-04-26T09:25:12.000Z</time>
      </trkpt>
      <trkpt lat="43.81656" lon="7.24551">
        <ele>433</ele>
        <time>2018-04-26T09:25:14.000Z</time>
      </trkpt>
      <trkpt lat="43.81651" lon="7.24553">
        <ele>433</ele>
        <time>2018-04-26T09:25:16.000Z</time>
      </trkpt>
      <trkpt lat="43.81642" lon="7.24559">
        <ele>434</ele>
        <time>2018-04-26T09:25:19.000Z</time>
      </trkpt>
      <trkpt lat="43.81632" lon="7.24564">
        <ele>436</ele>
        <time>2018-04-26T09:25:22.000Z</time>
      </trkpt>
      <trkpt lat="43.81624" lon="7.24569">
        <ele>437</ele>
        <time>2018-04-26T09:25:24.000Z</time>
      </trkpt>
      <trkpt lat="43.81615" lon="7.24578">
        <ele>439</ele>
        <time>2018-04-26T09:25:27.000Z</time>
      </trkpt>
      <trkpt lat="43.81612" lon="7.24585">
        <ele>427</ele>
        <time>2018-04-26T09:25:29.000Z</time>
      </trkpt>
      <trkpt lat="43.81611" lon="7.24594">
        <ele>426</ele>
        <time>2018-04-26T09:25:31.000Z</time>
      </trkpt>
      <trkpt lat="43.81609" lon="7.24603">
        <ele>426</ele>
        <time>2018-04-26T09:25:33.000Z</time>
      </trkpt>
      <trkpt lat="43.81607" lon="7.24606">
        <ele>426</ele>
        <time>2018-04-26T09:25:34.000Z</time>
      </trkpt>
      <trkpt lat="43.81591" lon="7.24617">
        <ele>426</ele>
        <time>2018-04-26T09:25:39.000Z</time>
      </trkpt>
      <trkpt lat="43.81583" lon="7.24627">
        <ele>444</ele>
        <time>2018-04-26T09:25:43.000Z</time>
      </trkpt>
      <trkpt lat="43.81582" lon="7.24634">
        <ele>442</ele>
        <time>2018-04-26T09:25:45.000Z</time>
      </trkpt>
      <trkpt lat="43.81584" lon="7.24637">
        <ele>424</ele>
        <time>2018-04-26T09:25:46.000Z</time>
      </trkpt>
      <trkpt lat="43.81593" lon="7.24646">
        <ele>423</ele>
        <time>2018-04-26T09:25:48.000Z</time>
      </trkpt>
      <trkpt lat="43.81596" lon="7.24651">
        <ele>423</ele>
        <time>2018-04-26T09:25:49.000Z</time>
      </trkpt>
      <trkpt lat="43.81597" lon="7.24655">
        <ele>423</ele>
        <time>2018-04-26T09:25:50.000Z</time>
      </trkpt>
      <trkpt lat="43.81597" lon="7.24658">
        <ele>423</ele>
        <time>2018-04-26T09:25:51.000Z</time>
      </trkpt>
      <trkpt lat="43.81595" lon="7.24661">
        <ele>424</ele>
        <time>2018-04-26T09:25:52.000Z</time>
      </trkpt>
      <trkpt lat="43.81592" lon="7.24664">
        <ele>424</ele>
        <time>2018-04-26T09:25:53.000Z</time>
      </trkpt>
      <trkpt lat="43.81585" lon="7.24671">
        <ele>425</ele>
        <time>2018-04-26T09:25:56.000Z</time>
      </trkpt>
      <trkpt lat="43.81579" lon="7.24677">
        <ele>432</ele>
        <time>2018-04-26T09:25:58.000Z</time>
      </trkpt>
      <trkpt lat="43.81575" lon="7.24681">
        <ele>434</ele>
        <time>2018-04-26T09:25:59.000Z</time>
      </trkpt>
      <trkpt lat="43.81572" lon="7.24685">
        <ele>435</ele>
        <time>2018-04-26T09:26:00.000Z</time>
      </trkpt>
      <trkpt lat="43.81563" lon="7.2469">
        <ele>437</ele>
        <time>2018-04-26T09:26:03.000Z</time>
      </trkpt>
      <trkpt lat="43.81559" lon="7.24691">
        <ele>438</ele>
        <time>2018-04-26T09:26:04.000Z</time>
      </trkpt>
      <trkpt lat="43.81555" lon="7.24689">
        <ele>439</ele>
        <time>2018-04-26T09:26:06.000Z</time>
      </trkpt>
      <trkpt lat="43.81555" lon="7.24689">
        <ele>439</ele>
        <time>2018-04-26T09:26:07.000Z</time>
      </trkpt>
      <trkpt lat="43.81554" lon="7.24693">
        <ele>439</ele>
        <time>2018-04-26T09:26:09.000Z</time>
      </trkpt>
      <trkpt lat="43.81554" lon="7.24694">
        <ele>439</ele>
        <time>2018-04-26T09:26:10.000Z</time>
      </trkpt>
      <trkpt lat="43.81553" lon="7.24697">
        <ele>440</ele>
        <time>2018-04-26T09:26:11.000Z</time>
      </trkpt>
      <trkpt lat="43.81552" lon="7.247">
        <ele>440</ele>
        <time>2018-04-26T09:26:15.000Z</time>
      </trkpt>
      <trkpt lat="43.81553" lon="7.24703">
        <ele>440</ele>
        <time>2018-04-26T09:26:22.000Z</time>
      </trkpt>
      <trkpt lat="43.81552" lon="7.24704">
        <ele>440</ele>
        <time>2018-04-26T09:26:23.000Z</time>
      </trkpt>
      <trkpt lat="43.81548" lon="7.24707">
        <ele>441</ele>
        <time>2018-04-26T09:26:29.000Z</time>
      </trkpt>
      <trkpt lat="43.81547" lon="7.24707">
        <ele>441</ele>
        <time>2018-04-26T09:26:31.000Z</time>
      </trkpt>
      <trkpt lat="43.81546" lon="7.24708">
        <ele>441</ele>
        <time>2018-04-26T09:26:32.000Z</time>
      </trkpt>
      <trkpt lat="43.81543" lon="7.24708">
        <ele>441</ele>
        <time>2018-04-26T09:26:36.000Z</time>
      </trkpt>
      <trkpt lat="43.81542" lon="7.24709">
        <ele>442</ele>
        <time>2018-04-26T09:26:37.000Z</time>
      </trkpt>
      <trkpt lat="43.81539" lon="7.24712">
        <ele>442</ele>
        <time>2018-04-26T09:26:43.000Z</time>
      </trkpt>
      <trkpt lat="43.81539" lon="7.24713">
        <ele>442</ele>
        <time>2018-04-26T09:26:44.000Z</time>
      </trkpt>
      <trkpt lat="43.81538" lon="7.24714">
        <ele>442</ele>
        <time>2018-04-26T09:26:48.000Z</time>
      </trkpt>
      <trkpt lat="43.81537" lon="7.2472">
        <ele>442</ele>
        <time>2018-04-26T09:26:55.000Z</time>
      </trkpt>
      <trkpt lat="43.81536" lon="7.24723">
        <ele>442</ele>
        <time>2018-04-26T09:27:01.000Z</time>
      </trkpt>
      <trkpt lat="43.81537" lon="7.24724">
        <ele>442</ele>
        <time>2018-04-26T09:27:05.000Z</time>
      </trkpt>
      <trkpt lat="43.81537" lon="7.24726">
        <ele>442</ele>
        <time>2018-04-26T09:27:07.000Z</time>
      </trkpt>
      <trkpt lat="43.81537" lon="7.24728">
        <ele>442</ele>
        <time>2018-04-26T09:27:12.000Z</time>
      </trkpt>
      <trkpt lat="43.81539" lon="7.24732">
        <ele>442</ele>
        <time>2018-04-26T09:27:18.000Z</time>
      </trkpt>
      <trkpt lat="43.81539" lon="7.24735">
        <ele>442</ele>
        <time>2018-04-26T09:27:22.000Z</time>
      </trkpt>
      <trkpt lat="43.81537" lon="7.24737">
        <ele>442</ele>
        <time>2018-04-26T09:27:25.000Z</time>
      </trkpt>
      <trkpt lat="43.81536" lon="7.24737">
        <ele>442</ele>
        <time>2018-04-26T09:27:30.000Z</time>
      </trkpt>
      <trkpt lat="43.81532" lon="7.24741">
        <ele>443</ele>
        <time>2018-04-26T09:27:36.000Z</time>
      </trkpt>
      <trkpt lat="43.81532" lon="7.24741">
        <ele>443</ele>
        <time>2018-04-26T09:27:37.000Z</time>
      </trkpt>
      <trkpt lat="43.8153" lon="7.24742">
        <ele>443</ele>
        <time>2018-04-26T09:27:43.000Z</time>
      </trkpt>
      <trkpt lat="43.8153" lon="7.24742">
        <ele>443</ele>
        <time>2018-04-26T09:27:44.000Z</time>
      </trkpt>
      <trkpt lat="43.81527" lon="7.24746">
        <ele>444</ele>
        <time>2018-04-26T09:27:52.000Z</time>
      </trkpt>
      <trkpt lat="43.81527" lon="7.2475">
        <ele>444</ele>
        <time>2018-04-26T09:27:56.000Z</time>
      </trkpt>
      <trkpt lat="43.81529" lon="7.24751">
        <ele>450</ele>
        <time>2018-04-26T09:27:58.000Z</time>
      </trkpt>
      <trkpt lat="43.81532" lon="7.24752">
        <ele>450</ele>
        <time>2018-04-26T09:28:02.000Z</time>
      </trkpt>
      <trkpt lat="43.81533" lon="7.24754">
        <ele>450</ele>
        <time>2018-04-26T09:28:06.000Z</time>
      </trkpt>
      <trkpt lat="43.81534" lon="7.24755">
        <ele>450</ele>
        <time>2018-04-26T09:28:07.000Z</time>
      </trkpt>
      <trkpt lat="43.81538" lon="7.24759">
        <ele>450</ele>
        <time>2018-04-26T09:28:14.000Z</time>
      </trkpt>
      <trkpt lat="43.81538" lon="7.24766">
        <ele>450</ele>
        <time>2018-04-26T09:28:21.000Z</time>
      </trkpt>
      <trkpt lat="43.81535" lon="7.24766">
        <ele>451</ele>
        <time>2018-04-26T09:28:29.000Z</time>
      </trkpt>
      <trkpt lat="43.81534" lon="7.24768">
        <ele>451</ele>
        <time>2018-04-26T09:28:33.000Z</time>
      </trkpt>
      <trkpt lat="43.81535" lon="7.24769">
        <ele>451</ele>
        <time>2018-04-26T09:28:35.000Z</time>
      </trkpt>
      <trkpt lat="43.81536" lon="7.2477">
        <ele>451</ele>
        <time>2018-04-26T09:28:36.000Z</time>
      </trkpt>
      <trkpt lat="43.81538" lon="7.24774">
        <ele>451</ele>
        <time>2018-04-26T09:28:41.000Z</time>
      </trkpt>
      <trkpt lat="43.81537" lon="7.24775">
        <ele>451</ele>
        <time>2018-04-26T09:28:43.000Z</time>
      </trkpt>
      <trkpt lat="43.81538" lon="7.24778">
        <ele>452</ele>
        <time>2018-04-26T09:28:47.000Z</time>
      </trkpt>
      <trkpt lat="43.81538" lon="7.2478">
        <ele>452</ele>
        <time>2018-04-26T09:28:50.000Z</time>
      </trkpt>
      <trkpt lat="43.8154" lon="7.24782">
        <ele>452</ele>
        <time>2018-04-26T09:28:53.000Z</time>
      </trkpt>
      <trkpt lat="43.81541" lon="7.24783">
        <ele>452</ele>
        <time>2018-04-26T09:28:56.000Z</time>
      </trkpt>
      <trkpt lat="43.81542" lon="7.24785">
        <ele>452</ele>
        <time>2018-04-26T09:28:59.000Z</time>
      </trkpt>
      <trkpt lat="43.81543" lon="7.24787">
        <ele>453</ele>
        <time>2018-04-26T09:29:02.000Z</time>
      </trkpt>
      <trkpt lat="43.81543" lon="7.2479">
        <ele>453</ele>
        <time>2018-04-26T09:29:05.000Z</time>
      </trkpt>
      <trkpt lat="43.81543" lon="7.24793">
        <ele>453</ele>
        <time>2018-04-26T09:29:08.000Z</time>
      </trkpt>
      <trkpt lat="43.81543" lon="7.24794">
        <ele>453</ele>
        <time>2018-04-26T09:29:10.000Z</time>
      </trkpt>
      <trkpt lat="43.81543" lon="7.24797">
        <ele>454</ele>
        <time>2018-04-26T09:29:13.000Z</time>
      </trkpt>
      <trkpt lat="43.81543" lon="7.248">
        <ele>454</ele>
        <time>2018-04-26T09:29:16.000Z</time>
      </trkpt>
      <trkpt lat="43.81543" lon="7.248">
        <ele>454</ele>
        <time>2018-04-26T09:29:17.000Z</time>
      </trkpt>
      <trkpt lat="43.81545" lon="7.24804">
        <ele>455</ele>
        <time>2018-04-26T09:29:22.000Z</time>
      </trkpt>
      <trkpt lat="43.81545" lon="7.24805">
        <ele>455</ele>
        <time>2018-04-26T09:29:23.000Z</time>
      </trkpt>
      <trkpt lat="43.81544" lon="7.24808">
        <ele>455</ele>
        <time>2018-04-26T09:29:27.000Z</time>
      </trkpt>
      <trkpt lat="43.81544" lon="7.24809">
        <ele>455</ele>
        <time>2018-04-26T09:29:28.000Z</time>
      </trkpt>
      <trkpt lat="43.81544" lon="7.24809">
        <ele>455</ele>
        <time>2018-04-26T09:29:29.000Z</time>
      </trkpt>
      <trkpt lat="43.81545" lon="7.24814">
        <ele>456</ele>
        <time>2018-04-26T09:29:34.000Z</time>
      </trkpt>
      <trkpt lat="43.81545" lon="7.24815">
        <ele>456</ele>
        <time>2018-04-26T09:29:35.000Z</time>
      </trkpt>
      <trkpt lat="43.81545" lon="7.24818">
        <ele>456</ele>
        <time>2018-04-26T09:29:39.000Z</time>
      </trkpt>
      <trkpt lat="43.81544" lon="7.24821">
        <ele>456</ele>
        <time>2018-04-26T09:29:42.000Z</time>
      </trkpt>
      <trkpt lat="43.81544" lon="7.24823">
        <ele>457</ele>
        <time>2018-04-26T09:29:45.000Z</time>
      </trkpt>
      <trkpt lat="43.81544" lon="7.24828">
        <ele>457</ele>
        <time>2018-04-26T09:29:49.000Z</time>
      </trkpt>
      <trkpt lat="43.81544" lon="7.24831">
        <ele>457</ele>
        <time>2018-04-26T09:29:53.000Z</time>
      </trkpt>
      <trkpt lat="43.81543" lon="7.24833">
        <ele>457</ele>
        <time>2018-04-26T09:29:56.000Z</time>
      </trkpt>
      <trkpt lat="43.81543" lon="7.24832">
        <ele>457</ele>
        <time>2018-04-26T09:29:57.000Z</time>
      </trkpt>
      <trkpt lat="43.81542" lon="7.24832">
        <ele>457</ele>
        <time>2018-04-26T09:30:01.000Z</time>
      </trkpt>
      <trkpt lat="43.81541" lon="7.24833">
        <ele>458</ele>
        <time>2018-04-26T09:30:03.000Z</time>
      </trkpt>
      <trkpt lat="43.81538" lon="7.24835">
        <ele>473</ele>
        <time>2018-04-26T09:30:08.000Z</time>
      </trkpt>
      <trkpt lat="43.81538" lon="7.24835">
        <ele>473</ele>
        <time>2018-04-26T09:30:09.000Z</time>
      </trkpt>
      <trkpt lat="43.81535" lon="7.24835">
        <ele>474</ele>
        <time>2018-04-26T09:30:14.000Z</time>
      </trkpt>
      <trkpt lat="43.81535" lon="7.24834">
        <ele>474</ele>
        <time>2018-04-26T09:30:16.000Z</time>
      </trkpt>
      <trkpt lat="43.81531" lon="7.24835">
        <ele>474</ele>
        <time>2018-04-26T09:30:21.000Z</time>
      </trkpt>
      <trkpt lat="43.81527" lon="7.24837">
        <ele>474</ele>
        <time>2018-04-26T09:30:28.000Z</time>
      </trkpt>
      <trkpt lat="43.81526" lon="7.24838">
        <ele>474</ele>
        <time>2018-04-26T09:30:29.000Z</time>
      </trkpt>
      <trkpt lat="43.81524" lon="7.24838">
        <ele>474</ele>
        <time>2018-04-26T09:30:33.000Z</time>
      </trkpt>
      <trkpt lat="43.81521" lon="7.2484">
        <ele>474</ele>
        <time>2018-04-26T09:30:38.000Z</time>
      </trkpt>
      <trkpt lat="43.81521" lon="7.2484">
        <ele>474</ele>
        <time>2018-04-26T09:30:39.000Z</time>
      </trkpt>
      <trkpt lat="43.81519" lon="7.24841">
        <ele>474</ele>
        <time>2018-04-26T09:30:44.000Z</time>
      </trkpt>
      <trkpt lat="43.81519" lon="7.24841">
        <ele>474</ele>
        <time>2018-04-26T09:30:45.000Z</time>
      </trkpt>
      <trkpt lat="43.81515" lon="7.24841">
        <ele>473</ele>
        <time>2018-04-26T09:30:50.000Z</time>
      </trkpt>
      <trkpt lat="43.81511" lon="7.2484">
        <ele>473</ele>
        <time>2018-04-26T09:30:54.000Z</time>
      </trkpt>
      <trkpt lat="43.8151" lon="7.2484">
        <ele>472</ele>
        <time>2018-04-26T09:30:55.000Z</time>
      </trkpt>
      <trkpt lat="43.81507" lon="7.24842">
        <ele>472</ele>
        <time>2018-04-26T09:31:00.000Z</time>
      </trkpt>
      <trkpt lat="43.81506" lon="7.24843">
        <ele>472</ele>
        <time>2018-04-26T09:31:02.000Z</time>
      </trkpt>
      <trkpt lat="43.81504" lon="7.24845">
        <ele>473</ele>
        <time>2018-04-26T09:31:09.000Z</time>
      </trkpt>
      <trkpt lat="43.815" lon="7.24846">
        <ele>473</ele>
        <time>2018-04-26T09:31:14.000Z</time>
      </trkpt>
      <trkpt lat="43.81499" lon="7.24847">
        <ele>475</ele>
        <time>2018-04-26T09:31:16.000Z</time>
      </trkpt>
      <trkpt lat="43.81497" lon="7.24849">
        <ele>475</ele>
        <time>2018-04-26T09:31:20.000Z</time>
      </trkpt>
      <trkpt lat="43.81496" lon="7.2485">
        <ele>476</ele>
        <time>2018-04-26T09:31:22.000Z</time>
      </trkpt>
      <trkpt lat="43.81493" lon="7.24853">
        <ele>477</ele>
        <time>2018-04-26T09:31:26.000Z</time>
      </trkpt>
      <trkpt lat="43.81493" lon="7.24853">
        <ele>477</ele>
        <time>2018-04-26T09:31:27.000Z</time>
      </trkpt>
      <trkpt lat="43.81491" lon="7.24857">
        <ele>478</ele>
        <time>2018-04-26T09:31:32.000Z</time>
      </trkpt>
      <trkpt lat="43.81491" lon="7.24859">
        <ele>478</ele>
        <time>2018-04-26T09:31:34.000Z</time>
      </trkpt>
      <trkpt lat="43.81492" lon="7.24861">
        <ele>479</ele>
        <time>2018-04-26T09:31:38.000Z</time>
      </trkpt>
      <trkpt lat="43.81493" lon="7.24863">
        <ele>479</ele>
        <time>2018-04-26T09:31:41.000Z</time>
      </trkpt>
      <trkpt lat="43.81494" lon="7.24863">
        <ele>479</ele>
        <time>2018-04-26T09:31:42.000Z</time>
      </trkpt>
      <trkpt lat="43.81495" lon="7.24865">
        <ele>480</ele>
        <time>2018-04-26T09:31:45.000Z</time>
      </trkpt>
      <trkpt lat="43.81496" lon="7.24868">
        <ele>481</ele>
        <time>2018-04-26T09:31:47.000Z</time>
      </trkpt>
      <trkpt lat="43.81496" lon="7.2487">
        <ele>481</ele>
        <time>2018-04-26T09:31:53.000Z</time>
      </trkpt>
      <trkpt lat="43.81495" lon="7.2487">
        <ele>481</ele>
        <time>2018-04-26T09:31:55.000Z</time>
      </trkpt>
      <trkpt lat="43.81496" lon="7.24868">
        <ele>481</ele>
        <time>2018-04-26T09:31:58.000Z</time>
      </trkpt>
      <trkpt lat="43.81495" lon="7.24867">
        <ele>480</ele>
        <time>2018-04-26T09:32:04.000Z</time>
      </trkpt>
      <trkpt lat="43.81494" lon="7.24867">
        <ele>480</ele>
        <time>2018-04-26T09:32:14.000Z</time>
      </trkpt>
      <trkpt lat="43.81493" lon="7.24866">
        <ele>480</ele>
        <time>2018-04-26T09:32:22.000Z</time>
      </trkpt>
      <trkpt lat="43.81493" lon="7.24866">
        <ele>480</ele>
        <time>2018-04-26T09:32:29.000Z</time>
      </trkpt>
      <trkpt lat="43.81493" lon="7.24865">
        <ele>480</ele>
        <time>2018-04-26T09:32:36.000Z</time>
      </trkpt>
      <trkpt lat="43.81492" lon="7.24867">
        <ele>480</ele>
        <time>2018-04-26T09:32:42.000Z</time>
      </trkpt>
      <trkpt lat="43.81494" lon="7.24864">
        <ele>480</ele>
        <time>2018-04-26T09:32:49.000Z</time>
      </trkpt>
      <trkpt lat="43.81495" lon="7.24864">
        <ele>480</ele>
        <time>2018-04-26T09:32:55.000Z</time>
      </trkpt>
      <trkpt lat="43.81495" lon="7.24864">
        <ele>480</ele>
        <time>2018-04-26T09:32:57.000Z</time>
      </trkpt>
      <trkpt lat="43.81495" lon="7.24865">
        <ele>480</ele>
        <time>2018-04-26T09:33:03.000Z</time>
      </trkpt>
      <trkpt lat="43.81495" lon="7.24865">
        <ele>480</ele>
        <time>2018-04-26T09:33:09.000Z</time>
      </trkpt>
      <trkpt lat="43.815" lon="7.24866">
        <ele>480</ele>
        <time>2018-04-26T09:33:16.000Z</time>
      </trkpt>
      <trkpt lat="43.81514" lon="7.24868">
        <ele>478</ele>
        <time>2018-04-26T09:33:20.000Z</time>
      </trkpt>
      <trkpt lat="43.81532" lon="7.24875">
        <ele>479</ele>
        <time>2018-04-26T09:33:23.000Z</time>
      </trkpt>
      <trkpt lat="43.81537" lon="7.24878">
        <ele>479</ele>
        <time>2018-04-26T09:33:24.000Z</time>
      </trkpt>
      <trkpt lat="43.81543" lon="7.24881">
        <ele>479</ele>
        <time>2018-04-26T09:33:25.000Z</time>
      </trkpt>
      <trkpt lat="43.8155" lon="7.24882">
        <ele>479</ele>
        <time>2018-04-26T09:33:26.000Z</time>
      </trkpt>
      <trkpt lat="43.81561" lon="7.2488">
        <ele>479</ele>
        <time>2018-04-26T09:33:28.000Z</time>
      </trkpt>
      <trkpt lat="43.81567" lon="7.24875">
        <ele>477</ele>
        <time>2018-04-26T09:33:29.000Z</time>
      </trkpt>
      <trkpt lat="43.81576" lon="7.24868">
        <ele>475</ele>
        <time>2018-04-26T09:33:31.000Z</time>
      </trkpt>
      <trkpt lat="43.81585" lon="7.24868">
        <ele>465</ele>
        <time>2018-04-26T09:33:33.000Z</time>
      </trkpt>
      <trkpt lat="43.81591" lon="7.2487">
        <ele>466</ele>
        <time>2018-04-26T09:33:34.000Z</time>
      </trkpt>
      <trkpt lat="43.81595" lon="7.24873">
        <ele>466</ele>
        <time>2018-04-26T09:33:35.000Z</time>
      </trkpt>
      <trkpt lat="43.816" lon="7.24879">
        <ele>467</ele>
        <time>2018-04-26T09:33:36.000Z</time>
      </trkpt>
      <trkpt lat="43.81604" lon="7.24885">
        <ele>468</ele>
        <time>2018-04-26T09:33:37.000Z</time>
      </trkpt>
      <trkpt lat="43.81609" lon="7.24902">
        <ele>471</ele>
        <time>2018-04-26T09:33:39.000Z</time>
      </trkpt>
      <trkpt lat="43.81618" lon="7.24917">
        <ele>489</ele>
        <time>2018-04-26T09:33:41.000Z</time>
      </trkpt>
      <trkpt lat="43.81629" lon="7.2493">
        <ele>488</ele>
        <time>2018-04-26T09:33:43.000Z</time>
      </trkpt>
      <trkpt lat="43.8164" lon="7.24936">
        <ele>486</ele>
        <time>2018-04-26T09:33:45.000Z</time>
      </trkpt>
      <trkpt lat="43.81645" lon="7.24935">
        <ele>484</ele>
        <time>2018-04-26T09:33:46.000Z</time>
      </trkpt>
      <trkpt lat="43.81648" lon="7.24932">
        <ele>483</ele>
        <time>2018-04-26T09:33:47.000Z</time>
      </trkpt>
      <trkpt lat="43.8165" lon="7.2493">
        <ele>481</ele>
        <time>2018-04-26T09:33:48.000Z</time>
      </trkpt>
      <trkpt lat="43.81657" lon="7.24925">
        <ele>476</ele>
        <time>2018-04-26T09:33:51.000Z</time>
      </trkpt>
      <trkpt lat="43.81661" lon="7.24923">
        <ele>473</ele>
        <time>2018-04-26T09:33:53.000Z</time>
      </trkpt>
      <trkpt lat="43.81664" lon="7.24923">
        <ele>471</ele>
        <time>2018-04-26T09:33:54.000Z</time>
      </trkpt>
      <trkpt lat="43.81669" lon="7.24925">
        <ele>467</ele>
        <time>2018-04-26T09:33:56.000Z</time>
      </trkpt>
      <trkpt lat="43.81671" lon="7.24927">
        <ele>468</ele>
        <time>2018-04-26T09:33:57.000Z</time>
      </trkpt>
      <trkpt lat="43.81675" lon="7.24931">
        <ele>470</ele>
        <time>2018-04-26T09:33:59.000Z</time>
      </trkpt>
      <trkpt lat="43.81686" lon="7.24936">
        <ele>471</ele>
        <time>2018-04-26T09:34:02.000Z</time>
      </trkpt>
      <trkpt lat="43.8169" lon="7.24935">
        <ele>471</ele>
        <time>2018-04-26T09:34:03.000Z</time>
      </trkpt>
      <trkpt lat="43.81698" lon="7.24932">
        <ele>471</ele>
        <time>2018-04-26T09:34:05.000Z</time>
      </trkpt>
      <trkpt lat="43.81714" lon="7.24922">
        <ele>469</ele>
        <time>2018-04-26T09:34:08.000Z</time>
      </trkpt>
      <trkpt lat="43.8172" lon="7.2492">
        <ele>468</ele>
        <time>2018-04-26T09:34:09.000Z</time>
      </trkpt>
      <trkpt lat="43.81731" lon="7.24924">
        <ele>466</ele>
        <time>2018-04-26T09:34:11.000Z</time>
      </trkpt>
      <trkpt lat="43.81735" lon="7.2493">
        <ele>466</ele>
        <time>2018-04-26T09:34:12.000Z</time>
      </trkpt>
      <trkpt lat="43.81741" lon="7.24944">
        <ele>468</ele>
        <time>2018-04-26T09:34:14.000Z</time>
      </trkpt>
      <trkpt lat="43.81743" lon="7.24952">
        <ele>470</ele>
        <time>2018-04-26T09:34:15.000Z</time>
      </trkpt>
      <trkpt lat="43.81744" lon="7.24959">
        <ele>471</ele>
        <time>2018-04-26T09:34:16.000Z</time>
      </trkpt>
      <trkpt lat="43.81748" lon="7.24964">
        <ele>472</ele>
        <time>2018-04-26T09:34:17.000Z</time>
      </trkpt>
      <trkpt lat="43.81753" lon="7.24967">
        <ele>460</ele>
        <time>2018-04-26T09:34:18.000Z</time>
      </trkpt>
      <trkpt lat="43.81762" lon="7.24963">
        <ele>458</ele>
        <time>2018-04-26T09:34:20.000Z</time>
      </trkpt>
      <trkpt lat="43.81767" lon="7.24948">
        <ele>456</ele>
        <time>2018-04-26T09:34:22.000Z</time>
      </trkpt>
      <trkpt lat="43.81771" lon="7.24939">
        <ele>455</ele>
        <time>2018-04-26T09:34:23.000Z</time>
      </trkpt>
      <trkpt lat="43.81775" lon="7.24931">
        <ele>454</ele>
        <time>2018-04-26T09:34:24.000Z</time>
      </trkpt>
      <trkpt lat="43.81784" lon="7.24913">
        <ele>444</ele>
        <time>2018-04-26T09:34:26.000Z</time>
      </trkpt>
      <trkpt lat="43.81793" lon="7.24892">
        <ele>441</ele>
        <time>2018-04-26T09:34:28.000Z</time>
      </trkpt>
      <trkpt lat="43.81797" lon="7.2488">
        <ele>439</ele>
        <time>2018-04-26T09:34:29.000Z</time>
      </trkpt>
      <trkpt lat="43.818" lon="7.24868">
        <ele>438</ele>
        <time>2018-04-26T09:34:30.000Z</time>
      </trkpt>
      <trkpt lat="43.81802" lon="7.24856">
        <ele>437</ele>
        <time>2018-04-26T09:34:31.000Z</time>
      </trkpt>
      <trkpt lat="43.81804" lon="7.24846">
        <ele>435</ele>
        <time>2018-04-26T09:34:32.000Z</time>
      </trkpt>
      <trkpt lat="43.81807" lon="7.24838">
        <ele>434</ele>
        <time>2018-04-26T09:34:33.000Z</time>
      </trkpt>
      <trkpt lat="43.81816" lon="7.24833">
        <ele>423</ele>
        <time>2018-04-26T09:34:35.000Z</time>
      </trkpt>
      <trkpt lat="43.81826" lon="7.24844">
        <ele>431</ele>
        <time>2018-04-26T09:34:37.000Z</time>
      </trkpt>
      <trkpt lat="43.81829" lon="7.24852">
        <ele>432</ele>
        <time>2018-04-26T09:34:38.000Z</time>
      </trkpt>
      <trkpt lat="43.8183" lon="7.24862">
        <ele>435</ele>
        <time>2018-04-26T09:34:39.000Z</time>
      </trkpt>
      <trkpt lat="43.81831" lon="7.24871">
        <ele>436</ele>
        <time>2018-04-26T09:34:40.000Z</time>
      </trkpt>
      <trkpt lat="43.8183" lon="7.24882">
        <ele>437</ele>
        <time>2018-04-26T09:34:41.000Z</time>
      </trkpt>
      <trkpt lat="43.81831" lon="7.24893">
        <ele>438</ele>
        <time>2018-04-26T09:34:42.000Z</time>
      </trkpt>
      <trkpt lat="43.81836" lon="7.24915">
        <ele>435</ele>
        <time>2018-04-26T09:34:44.000Z</time>
      </trkpt>
      <trkpt lat="43.81838" lon="7.24926">
        <ele>435</ele>
        <time>2018-04-26T09:34:45.000Z</time>
      </trkpt>
      <trkpt lat="43.81842" lon="7.24947">
        <ele>434</ele>
        <time>2018-04-26T09:34:47.000Z</time>
      </trkpt>
      <trkpt lat="43.81842" lon="7.24956">
        <ele>434</ele>
        <time>2018-04-26T09:34:48.000Z</time>
      </trkpt>
      <trkpt lat="43.81842" lon="7.24964">
        <ele>435</ele>
        <time>2018-04-26T09:34:49.000Z</time>
      </trkpt>
      <trkpt lat="43.81846" lon="7.24972">
        <ele>435</ele>
        <time>2018-04-26T09:34:51.000Z</time>
      </trkpt>
      <trkpt lat="43.81851" lon="7.24966">
        <ele>434</ele>
        <time>2018-04-26T09:34:53.000Z</time>
      </trkpt>
      <trkpt lat="43.81851" lon="7.24945">
        <ele>433</ele>
        <time>2018-04-26T09:34:56.000Z</time>
      </trkpt>
      <trkpt lat="43.81848" lon="7.24924">
        <ele>434</ele>
        <time>2018-04-26T09:34:59.000Z</time>
      </trkpt>
      <trkpt lat="43.81848" lon="7.24919">
        <ele>434</ele>
        <time>2018-04-26T09:35:00.000Z</time>
      </trkpt>
      <trkpt lat="43.81848" lon="7.24915">
        <ele>429</ele>
        <time>2018-04-26T09:35:01.000Z</time>
      </trkpt>
      <trkpt lat="43.81848" lon="7.24909">
        <ele>428</ele>
        <time>2018-04-26T09:35:04.000Z</time>
      </trkpt>
      <trkpt lat="43.81848" lon="7.24907">
        <ele>427</ele>
        <time>2018-04-26T09:35:07.000Z</time>
      </trkpt>
      <trkpt lat="43.81848" lon="7.24908">
        <ele>427</ele>
        <time>2018-04-26T09:35:10.000Z</time>
      </trkpt>
      <trkpt lat="43.81848" lon="7.24908">
        <ele>428</ele>
        <time>2018-04-26T09:35:16.000Z</time>
      </trkpt>
      <trkpt lat="43.81848" lon="7.24905">
        <ele>427</ele>
        <time>2018-04-26T09:35:23.000Z</time>
      </trkpt>
      <trkpt lat="43.81848" lon="7.24903">
        <ele>427</ele>
        <time>2018-04-26T09:35:24.000Z</time>
      </trkpt>
      <trkpt lat="43.81848" lon="7.24902">
        <ele>426</ele>
        <time>2018-04-26T09:35:26.000Z</time>
      </trkpt>
      <trkpt lat="43.81848" lon="7.249">
        <ele>426</ele>
        <time>2018-04-26T09:35:27.000Z</time>
      </trkpt>
      <trkpt lat="43.8185" lon="7.2489">
        <ele>423</ele>
        <time>2018-04-26T09:35:30.000Z</time>
      </trkpt>
      <trkpt lat="43.81851" lon="7.24882">
        <ele>422</ele>
        <time>2018-04-26T09:35:31.000Z</time>
      </trkpt>
      <trkpt lat="43.81856" lon="7.24853">
        <ele>419</ele>
        <time>2018-04-26T09:35:35.000Z</time>
      </trkpt>
      <trkpt lat="43.81854" lon="7.24844">
        <ele>420</ele>
        <time>2018-04-26T09:35:36.000Z</time>
      </trkpt>
      <trkpt lat="43.81851" lon="7.24836">
        <ele>420</ele>
        <time>2018-04-26T09:35:37.000Z</time>
      </trkpt>
      <trkpt lat="43.81844" lon="7.24821">
        <ele>414</ele>
        <time>2018-04-26T09:35:39.000Z</time>
      </trkpt>
      <trkpt lat="43.8184" lon="7.24814">
        <ele>412</ele>
        <time>2018-04-26T09:35:40.000Z</time>
      </trkpt>
      <trkpt lat="43.81833" lon="7.248">
        <ele>419</ele>
        <time>2018-04-26T09:35:42.000Z</time>
      </trkpt>
      <trkpt lat="43.81829" lon="7.24794">
        <ele>418</ele>
        <time>2018-04-26T09:35:43.000Z</time>
      </trkpt>
      <trkpt lat="43.81827" lon="7.24788">
        <ele>417</ele>
        <time>2018-04-26T09:35:44.000Z</time>
      </trkpt>
      <trkpt lat="43.81826" lon="7.24783">
        <ele>416</ele>
        <time>2018-04-26T09:35:45.000Z</time>
      </trkpt>
      <trkpt lat="43.81828" lon="7.24779">
        <ele>415</ele>
        <time>2018-04-26T09:35:46.000Z</time>
      </trkpt>
      <trkpt lat="43.81832" lon="7.2478">
        <ele>415</ele>
        <time>2018-04-26T09:35:47.000Z</time>
      </trkpt>
      <trkpt lat="43.8184" lon="7.24785">
        <ele>405</ele>
        <time>2018-04-26T09:35:49.000Z</time>
      </trkpt>
      <trkpt lat="43.81844" lon="7.2479">
        <ele>406</ele>
        <time>2018-04-26T09:35:50.000Z</time>
      </trkpt>
      <trkpt lat="43.81848" lon="7.24796">
        <ele>406</ele>
        <time>2018-04-26T09:35:51.000Z</time>
      </trkpt>
      <trkpt lat="43.81857" lon="7.24811">
        <ele>407</ele>
        <time>2018-04-26T09:35:53.000Z</time>
      </trkpt>
      <trkpt lat="43.81868" lon="7.24827">
        <ele>407</ele>
        <time>2018-04-26T09:35:55.000Z</time>
      </trkpt>
      <trkpt lat="43.81874" lon="7.24836">
        <ele>415</ele>
        <time>2018-04-26T09:35:56.000Z</time>
      </trkpt>
      <trkpt lat="43.8188" lon="7.24846">
        <ele>414</ele>
        <time>2018-04-26T09:35:57.000Z</time>
      </trkpt>
      <trkpt lat="43.81885" lon="7.24855">
        <ele>414</ele>
        <time>2018-04-26T09:35:58.000Z</time>
      </trkpt>
      <trkpt lat="43.8189" lon="7.24864">
        <ele>414</ele>
        <time>2018-04-26T09:35:59.000Z</time>
      </trkpt>
      <trkpt lat="43.81894" lon="7.24873">
        <ele>414</ele>
        <time>2018-04-26T09:36:00.000Z</time>
      </trkpt>
      <trkpt lat="43.81897" lon="7.24882">
        <ele>414</ele>
        <time>2018-04-26T09:36:01.000Z</time>
      </trkpt>
      <trkpt lat="43.81902" lon="7.24897">
        <ele>414</ele>
        <time>2018-04-26T09:36:03.000Z</time>
      </trkpt>
      <trkpt lat="43.81905" lon="7.249">
        <ele>414</ele>
        <time>2018-04-26T09:36:04.000Z</time>
      </trkpt>
      <trkpt lat="43.81908" lon="7.24902">
        <ele>413</ele>
        <time>2018-04-26T09:36:05.000Z</time>
      </trkpt>
      <trkpt lat="43.81914" lon="7.24901">
        <ele>413</ele>
        <time>2018-04-26T09:36:07.000Z</time>
      </trkpt>
      <trkpt lat="43.81917" lon="7.249">
        <ele>406</ele>
        <time>2018-04-26T09:36:08.000Z</time>
      </trkpt>
      <trkpt lat="43.81923" lon="7.24896">
        <ele>406</ele>
        <time>2018-04-26T09:36:10.000Z</time>
      </trkpt>
      <trkpt lat="43.81936" lon="7.24889">
        <ele>404</ele>
        <time>2018-04-26T09:36:14.000Z</time>
      </trkpt>
      <trkpt lat="43.81945" lon="7.2489">
        <ele>404</ele>
        <time>2018-04-26T09:36:18.000Z</time>
      </trkpt>
      <trkpt lat="43.81955" lon="7.24892">
        <ele>404</ele>
        <time>2018-04-26T09:36:21.000Z</time>
      </trkpt>
      <trkpt lat="43.81968" lon="7.24896">
        <ele>405</ele>
        <time>2018-04-26T09:36:25.000Z</time>
      </trkpt>
      <trkpt lat="43.81995" lon="7.24904">
        <ele>407</ele>
        <time>2018-04-26T09:36:33.000Z</time>
      </trkpt>
      <trkpt lat="43.82004" lon="7.24912">
        <ele>410</ele>
        <time>2018-04-26T09:36:38.000Z</time>
      </trkpt>
      <trkpt lat="43.82005" lon="7.24913">
        <ele>410</ele>
        <time>2018-04-26T09:36:39.000Z</time>
      </trkpt>
      <trkpt lat="43.8201" lon="7.24917">
        <ele>416</ele>
        <time>2018-04-26T09:36:43.000Z</time>
      </trkpt>
      <trkpt lat="43.82013" lon="7.24918">
        <ele>417</ele>
        <time>2018-04-26T09:36:45.000Z</time>
      </trkpt>
      <trkpt lat="43.82016" lon="7.24918">
        <ele>418</ele>
        <time>2018-04-26T09:36:47.000Z</time>
      </trkpt>
      <trkpt lat="43.82022" lon="7.24919">
        <ele>419</ele>
        <time>2018-04-26T09:36:52.000Z</time>
      </trkpt>
      <trkpt lat="43.82028" lon="7.24918">
        <ele>420</ele>
        <time>2018-04-26T09:36:56.000Z</time>
      </trkpt>
      <trkpt lat="43.82033" lon="7.24916">
        <ele>408</ele>
        <time>2018-04-26T09:37:00.000Z</time>
      </trkpt>
      <trkpt lat="43.82034" lon="7.24916">
        <ele>408</ele>
        <time>2018-04-26T09:37:01.000Z</time>
      </trkpt>
      <trkpt lat="43.82043" lon="7.2492">
        <ele>422</ele>
        <time>2018-04-26T09:37:07.000Z</time>
      </trkpt>
      <trkpt lat="43.82046" lon="7.24921">
        <ele>422</ele>
        <time>2018-04-26T09:37:09.000Z</time>
      </trkpt>
      <trkpt lat="43.82047" lon="7.24921">
        <ele>422</ele>
        <time>2018-04-26T09:37:10.000Z</time>
      </trkpt>
      <trkpt lat="43.8205" lon="7.2492">
        <ele>422</ele>
        <time>2018-04-26T09:37:12.000Z</time>
      </trkpt>
      <trkpt lat="43.82059" lon="7.24919">
        <ele>422</ele>
        <time>2018-04-26T09:37:18.000Z</time>
      </trkpt>
      <trkpt lat="43.82061" lon="7.24919">
        <ele>422</ele>
        <time>2018-04-26T09:37:20.000Z</time>
      </trkpt>
      <trkpt lat="43.82065" lon="7.24918">
        <ele>422</ele>
        <time>2018-04-26T09:37:23.000Z</time>
      </trkpt>
      <trkpt lat="43.82071" lon="7.24918">
        <ele>421</ele>
        <time>2018-04-26T09:37:28.000Z</time>
      </trkpt>
      <trkpt lat="43.82077" lon="7.24919">
        <ele>420</ele>
        <time>2018-04-26T09:37:33.000Z</time>
      </trkpt>
      <trkpt lat="43.8208" lon="7.24919">
        <ele>419</ele>
        <time>2018-04-26T09:37:35.000Z</time>
      </trkpt>
      <trkpt lat="43.82085" lon="7.24921">
        <ele>420</ele>
        <time>2018-04-26T09:37:39.000Z</time>
      </trkpt>
      <trkpt lat="43.82087" lon="7.24922">
        <ele>421</ele>
        <time>2018-04-26T09:37:41.000Z</time>
      </trkpt>
      <trkpt lat="43.8209" lon="7.24924">
        <ele>423</ele>
        <time>2018-04-26T09:37:44.000Z</time>
      </trkpt>
      <trkpt lat="43.82091" lon="7.24924">
        <ele>423</ele>
        <time>2018-04-26T09:37:45.000Z</time>
      </trkpt>
      <trkpt lat="43.82095" lon="7.24927">
        <ele>425</ele>
        <time>2018-04-26T09:37:48.000Z</time>
      </trkpt>
      <trkpt lat="43.82097" lon="7.24928">
        <ele>426</ele>
        <time>2018-04-26T09:37:50.000Z</time>
      </trkpt>
      <trkpt lat="43.82102" lon="7.24931">
        <ele>428</ele>
        <time>2018-04-26T09:37:55.000Z</time>
      </trkpt>
      <trkpt lat="43.82103" lon="7.24932">
        <ele>428</ele>
        <time>2018-04-26T09:37:56.000Z</time>
      </trkpt>
      <trkpt lat="43.82109" lon="7.24934">
        <ele>429</ele>
        <time>2018-04-26T09:38:01.000Z</time>
      </trkpt>
      <trkpt lat="43.82112" lon="7.24935">
        <ele>429</ele>
        <time>2018-04-26T09:38:03.000Z</time>
      </trkpt>
      <trkpt lat="43.82115" lon="7.24935">
        <ele>430</ele>
        <time>2018-04-26T09:38:06.000Z</time>
      </trkpt>
      <trkpt lat="43.8212" lon="7.24935">
        <ele>430</ele>
        <time>2018-04-26T09:38:10.000Z</time>
      </trkpt>
      <trkpt lat="43.82121" lon="7.24934">
        <ele>430</ele>
        <time>2018-04-26T09:38:11.000Z</time>
      </trkpt>
      <trkpt lat="43.82127" lon="7.24932">
        <ele>430</ele>
        <time>2018-04-26T09:38:16.000Z</time>
      </trkpt>
      <trkpt lat="43.82128" lon="7.24931">
        <ele>430</ele>
        <time>2018-04-26T09:38:17.000Z</time>
      </trkpt>
      <trkpt lat="43.82132" lon="7.2493">
        <ele>430</ele>
        <time>2018-04-26T09:38:22.000Z</time>
      </trkpt>
      <trkpt lat="43.82133" lon="7.2493">
        <ele>430</ele>
        <time>2018-04-26T09:38:28.000Z</time>
      </trkpt>
      <trkpt lat="43.82133" lon="7.24929">
        <ele>430</ele>
        <time>2018-04-26T09:38:34.000Z</time>
      </trkpt>
      <trkpt lat="43.82135" lon="7.24928">
        <ele>430</ele>
        <time>2018-04-26T09:38:36.000Z</time>
      </trkpt>
      <trkpt lat="43.82141" lon="7.24926">
        <ele>430</ele>
        <time>2018-04-26T09:38:41.000Z</time>
      </trkpt>
      <trkpt lat="43.82144" lon="7.24926">
        <ele>430</ele>
        <time>2018-04-26T09:38:43.000Z</time>
      </trkpt>
      <trkpt lat="43.8215" lon="7.24928">
        <ele>430</ele>
        <time>2018-04-26T09:38:48.000Z</time>
      </trkpt>
      <trkpt lat="43.82152" lon="7.24929">
        <ele>430</ele>
        <time>2018-04-26T09:38:50.000Z</time>
      </trkpt>
      <trkpt lat="43.82154" lon="7.24935">
        <ele>431</ele>
        <time>2018-04-26T09:38:54.000Z</time>
      </trkpt>
      <trkpt lat="43.82153" lon="7.24937">
        <ele>431</ele>
        <time>2018-04-26T09:38:55.000Z</time>
      </trkpt>
      <trkpt lat="43.82149" lon="7.24941">
        <ele>432</ele>
        <time>2018-04-26T09:38:59.000Z</time>
      </trkpt>
      <trkpt lat="43.82148" lon="7.24942">
        <ele>432</ele>
        <time>2018-04-26T09:39:00.000Z</time>
      </trkpt>
      <trkpt lat="43.82147" lon="7.24944">
        <ele>432</ele>
        <time>2018-04-26T09:39:01.000Z</time>
      </trkpt>
      <trkpt lat="43.82142" lon="7.24948">
        <ele>433</ele>
        <time>2018-04-26T09:39:05.000Z</time>
      </trkpt>
      <trkpt lat="43.82139" lon="7.2495">
        <ele>433</ele>
        <time>2018-04-26T09:39:08.000Z</time>
      </trkpt>
      <trkpt lat="43.82137" lon="7.24952">
        <ele>433</ele>
        <time>2018-04-26T09:39:10.000Z</time>
      </trkpt>
      <trkpt lat="43.82133" lon="7.24956">
        <ele>434</ele>
        <time>2018-04-26T09:39:14.000Z</time>
      </trkpt>
      <trkpt lat="43.82129" lon="7.24961">
        <ele>434</ele>
        <time>2018-04-26T09:39:19.000Z</time>
      </trkpt>
      <trkpt lat="43.82127" lon="7.24964">
        <ele>435</ele>
        <time>2018-04-26T09:39:21.000Z</time>
      </trkpt>
      <trkpt lat="43.82124" lon="7.24966">
        <ele>435</ele>
        <time>2018-04-26T09:39:24.000Z</time>
      </trkpt>
      <trkpt lat="43.82122" lon="7.24969">
        <ele>435</ele>
        <time>2018-04-26T09:39:27.000Z</time>
      </trkpt>
      <trkpt lat="43.8212" lon="7.24974">
        <ele>436</ele>
        <time>2018-04-26T09:39:30.000Z</time>
      </trkpt>
      <trkpt lat="43.8212" lon="7.24975">
        <ele>436</ele>
        <time>2018-04-26T09:39:31.000Z</time>
      </trkpt>
      <trkpt lat="43.8212" lon="7.2498">
        <ele>436</ele>
        <time>2018-04-26T09:39:34.000Z</time>
      </trkpt>
      <trkpt lat="43.82124" lon="7.24982">
        <ele>437</ele>
        <time>2018-04-26T09:39:37.000Z</time>
      </trkpt>
      <trkpt lat="43.82125" lon="7.24982">
        <ele>437</ele>
        <time>2018-04-26T09:39:38.000Z</time>
      </trkpt>
      <trkpt lat="43.82136" lon="7.24978">
        <ele>437</ele>
        <time>2018-04-26T09:39:45.000Z</time>
      </trkpt>
      <trkpt lat="43.82137" lon="7.24977">
        <ele>437</ele>
        <time>2018-04-26T09:39:46.000Z</time>
      </trkpt>
      <trkpt lat="43.82144" lon="7.24974">
        <ele>438</ele>
        <time>2018-04-26T09:39:51.000Z</time>
      </trkpt>
      <trkpt lat="43.82148" lon="7.24972">
        <ele>438</ele>
        <time>2018-04-26T09:39:54.000Z</time>
      </trkpt>
      <trkpt lat="43.82151" lon="7.24971">
        <ele>438</ele>
        <time>2018-04-26T09:39:56.000Z</time>
      </trkpt>
      <trkpt lat="43.82157" lon="7.24972">
        <ele>438</ele>
        <time>2018-04-26T09:40:00.000Z</time>
      </trkpt>
      <trkpt lat="43.82158" lon="7.24972">
        <ele>438</ele>
        <time>2018-04-26T09:40:01.000Z</time>
      </trkpt>
      <trkpt lat="43.82167" lon="7.24971">
        <ele>445</ele>
        <time>2018-04-26T09:40:07.000Z</time>
      </trkpt>
      <trkpt lat="43.8217" lon="7.2497">
        <ele>445</ele>
        <time>2018-04-26T09:40:09.000Z</time>
      </trkpt>
      <trkpt lat="43.82176" lon="7.2497">
        <ele>446</ele>
        <time>2018-04-26T09:40:13.000Z</time>
      </trkpt>
      <trkpt lat="43.82182" lon="7.2497">
        <ele>446</ele>
        <time>2018-04-26T09:40:18.000Z</time>
      </trkpt>
      <trkpt lat="43.82184" lon="7.24969">
        <ele>446</ele>
        <time>2018-04-26T09:40:19.000Z</time>
      </trkpt>
      <trkpt lat="43.82191" lon="7.24969">
        <ele>446</ele>
        <time>2018-04-26T09:40:25.000Z</time>
      </trkpt>
      <trkpt lat="43.82193" lon="7.24969">
        <ele>446</ele>
        <time>2018-04-26T09:40:26.000Z</time>
      </trkpt>
      <trkpt lat="43.82199" lon="7.24969">
        <ele>447</ele>
        <time>2018-04-26T09:40:31.000Z</time>
      </trkpt>
      <trkpt lat="43.82203" lon="7.24968">
        <ele>447</ele>
        <time>2018-04-26T09:40:34.000Z</time>
      </trkpt>
      <trkpt lat="43.82206" lon="7.24968">
        <ele>447</ele>
        <time>2018-04-26T09:40:37.000Z</time>
      </trkpt>
      <trkpt lat="43.82208" lon="7.24967">
        <ele>447</ele>
        <time>2018-04-26T09:40:39.000Z</time>
      </trkpt>
      <trkpt lat="43.82214" lon="7.24966">
        <ele>448</ele>
        <time>2018-04-26T09:40:43.000Z</time>
      </trkpt>
      <trkpt lat="43.82219" lon="7.24966">
        <ele>448</ele>
        <time>2018-04-26T09:40:47.000Z</time>
      </trkpt>
      <trkpt lat="43.82223" lon="7.24966">
        <ele>448</ele>
        <time>2018-04-26T09:40:49.000Z</time>
      </trkpt>
      <trkpt lat="43.8223" lon="7.24965">
        <ele>449</ele>
        <time>2018-04-26T09:40:54.000Z</time>
      </trkpt>
      <trkpt lat="43.82233" lon="7.24964">
        <ele>449</ele>
        <time>2018-04-26T09:40:56.000Z</time>
      </trkpt>
      <trkpt lat="43.82236" lon="7.24963">
        <ele>449</ele>
        <time>2018-04-26T09:40:58.000Z</time>
      </trkpt>
      <trkpt lat="43.82237" lon="7.24963">
        <ele>449</ele>
        <time>2018-04-26T09:40:59.000Z</time>
      </trkpt>
      <trkpt lat="43.82245" lon="7.2496">
        <ele>449</ele>
        <time>2018-04-26T09:41:04.000Z</time>
      </trkpt>
      <trkpt lat="43.82246" lon="7.24959">
        <ele>449</ele>
        <time>2018-04-26T09:41:05.000Z</time>
      </trkpt>
      <trkpt lat="43.82257" lon="7.24956">
        <ele>455</ele>
        <time>2018-04-26T09:41:12.000Z</time>
      </trkpt>
      <trkpt lat="43.8226" lon="7.24954">
        <ele>455</ele>
        <time>2018-04-26T09:41:14.000Z</time>
      </trkpt>
      <trkpt lat="43.82269" lon="7.2495">
        <ele>455</ele>
        <time>2018-04-26T09:41:20.000Z</time>
      </trkpt>
      <trkpt lat="43.82272" lon="7.2495">
        <ele>455</ele>
        <time>2018-04-26T09:41:22.000Z</time>
      </trkpt>
      <trkpt lat="43.8228" lon="7.24949">
        <ele>455</ele>
        <time>2018-04-26T09:41:27.000Z</time>
      </trkpt>
      <trkpt lat="43.82283" lon="7.24949">
        <ele>455</ele>
        <time>2018-04-26T09:41:29.000Z</time>
      </trkpt>
      <trkpt lat="43.8229" lon="7.2495">
        <ele>456</ele>
        <time>2018-04-26T09:41:34.000Z</time>
      </trkpt>
      <trkpt lat="43.82297" lon="7.24951">
        <ele>456</ele>
        <time>2018-04-26T09:41:38.000Z</time>
      </trkpt>
      <trkpt lat="43.82301" lon="7.24952">
        <ele>457</ele>
        <time>2018-04-26T09:41:40.000Z</time>
      </trkpt>
      <trkpt lat="43.82311" lon="7.24954">
        <ele>457</ele>
        <time>2018-04-26T09:41:46.000Z</time>
      </trkpt>
      <trkpt lat="43.82318" lon="7.24956">
        <ele>458</ele>
        <time>2018-04-26T09:41:50.000Z</time>
      </trkpt>
      <trkpt lat="43.82324" lon="7.24956">
        <ele>458</ele>
        <time>2018-04-26T09:41:53.000Z</time>
      </trkpt>
      <trkpt lat="43.82334" lon="7.24957">
        <ele>463</ele>
        <time>2018-04-26T09:41:59.000Z</time>
      </trkpt>
      <trkpt lat="43.82336" lon="7.24957">
        <ele>463</ele>
        <time>2018-04-26T09:42:00.000Z</time>
      </trkpt>
      <trkpt lat="43.8235" lon="7.24957">
        <ele>464</ele>
        <time>2018-04-26T09:42:08.000Z</time>
      </trkpt>
      <trkpt lat="43.82362" lon="7.24955">
        <ele>464</ele>
        <time>2018-04-26T09:42:15.000Z</time>
      </trkpt>
      <trkpt lat="43.82366" lon="7.24955">
        <ele>464</ele>
        <time>2018-04-26T09:42:17.000Z</time>
      </trkpt>
      <trkpt lat="43.82374" lon="7.24955">
        <ele>465</ele>
        <time>2018-04-26T09:42:22.000Z</time>
      </trkpt>
      <trkpt lat="43.82379" lon="7.24953">
        <ele>465</ele>
        <time>2018-04-26T09:42:25.000Z</time>
      </trkpt>
      <trkpt lat="43.82386" lon="7.24953">
        <ele>465</ele>
        <time>2018-04-26T09:42:29.000Z</time>
      </trkpt>
      <trkpt lat="43.82391" lon="7.24953">
        <ele>465</ele>
        <time>2018-04-26T09:42:32.000Z</time>
      </trkpt>
      <trkpt lat="43.82398" lon="7.24958">
        <ele>466</ele>
        <time>2018-04-26T09:42:37.000Z</time>
      </trkpt>
      <trkpt lat="43.82398" lon="7.24962">
        <ele>467</ele>
        <time>2018-04-26T09:42:39.000Z</time>
      </trkpt>
      <trkpt lat="43.82395" lon="7.24965">
        <ele>467</ele>
        <time>2018-04-26T09:42:41.000Z</time>
      </trkpt>
      <trkpt lat="43.82394" lon="7.24965">
        <ele>467</ele>
        <time>2018-04-26T09:42:42.000Z</time>
      </trkpt>
      <trkpt lat="43.82391" lon="7.24968">
        <ele>468</ele>
        <time>2018-04-26T09:42:44.000Z</time>
      </trkpt>
      <trkpt lat="43.82389" lon="7.24969">
        <ele>468</ele>
        <time>2018-04-26T09:42:46.000Z</time>
      </trkpt>
      <trkpt lat="43.82381" lon="7.24973">
        <ele>468</ele>
        <time>2018-04-26T09:42:51.000Z</time>
      </trkpt>
      <trkpt lat="43.82378" lon="7.24974">
        <ele>468</ele>
        <time>2018-04-26T09:42:53.000Z</time>
      </trkpt>
      <trkpt lat="43.82373" lon="7.24976">
        <ele>468</ele>
        <time>2018-04-26T09:42:57.000Z</time>
      </trkpt>
      <trkpt lat="43.82368" lon="7.24978">
        <ele>468</ele>
        <time>2018-04-26T09:43:01.000Z</time>
      </trkpt>
      <trkpt lat="43.82365" lon="7.24979">
        <ele>468</ele>
        <time>2018-04-26T09:43:03.000Z</time>
      </trkpt>
      <trkpt lat="43.82357" lon="7.24984">
        <ele>469</ele>
        <time>2018-04-26T09:43:09.000Z</time>
      </trkpt>
      <trkpt lat="43.82353" lon="7.24986">
        <ele>469</ele>
        <time>2018-04-26T09:43:12.000Z</time>
      </trkpt>
      <trkpt lat="43.82347" lon="7.24988">
        <ele>470</ele>
        <time>2018-04-26T09:43:16.000Z</time>
      </trkpt>
      <trkpt lat="43.82339" lon="7.24991">
        <ele>471</ele>
        <time>2018-04-26T09:43:22.000Z</time>
      </trkpt>
      <trkpt lat="43.82336" lon="7.24992">
        <ele>472</ele>
        <time>2018-04-26T09:43:24.000Z</time>
      </trkpt>
      <trkpt lat="43.82331" lon="7.24994">
        <ele>471</ele>
        <time>2018-04-26T09:43:28.000Z</time>
      </trkpt>
      <trkpt lat="43.82325" lon="7.24996">
        <ele>469</ele>
        <time>2018-04-26T09:43:33.000Z</time>
      </trkpt>
      <trkpt lat="43.82323" lon="7.24997">
        <ele>469</ele>
        <time>2018-04-26T09:43:34.000Z</time>
      </trkpt>
      <trkpt lat="43.82315" lon="7.25002">
        <ele>480</ele>
        <time>2018-04-26T09:43:41.000Z</time>
      </trkpt>
      <trkpt lat="43.82313" lon="7.25002">
        <ele>480</ele>
        <time>2018-04-26T09:43:42.000Z</time>
      </trkpt>
      <trkpt lat="43.82307" lon="7.25006">
        <ele>481</ele>
        <time>2018-04-26T09:43:47.000Z</time>
      </trkpt>
      <trkpt lat="43.82302" lon="7.25009">
        <ele>481</ele>
        <time>2018-04-26T09:43:51.000Z</time>
      </trkpt>
      <trkpt lat="43.82299" lon="7.25011">
        <ele>481</ele>
        <time>2018-04-26T09:43:53.000Z</time>
      </trkpt>
      <trkpt lat="43.8229" lon="7.25017">
        <ele>482</ele>
        <time>2018-04-26T09:44:00.000Z</time>
      </trkpt>
      <trkpt lat="43.82281" lon="7.25025">
        <ele>482</ele>
        <time>2018-04-26T09:44:07.000Z</time>
      </trkpt>
      <trkpt lat="43.8228" lon="7.25026">
        <ele>482</ele>
        <time>2018-04-26T09:44:08.000Z</time>
      </trkpt>
      <trkpt lat="43.82274" lon="7.2503">
        <ele>482</ele>
        <time>2018-04-26T09:44:13.000Z</time>
      </trkpt>
      <trkpt lat="43.82269" lon="7.25035">
        <ele>483</ele>
        <time>2018-04-26T09:44:18.000Z</time>
      </trkpt>
      <trkpt lat="43.82265" lon="7.25038">
        <ele>484</ele>
        <time>2018-04-26T09:44:21.000Z</time>
      </trkpt>
      <trkpt lat="43.82259" lon="7.25043">
        <ele>485</ele>
        <time>2018-04-26T09:44:26.000Z</time>
      </trkpt>
      <trkpt lat="43.82257" lon="7.25045">
        <ele>485</ele>
        <time>2018-04-26T09:44:28.000Z</time>
      </trkpt>
      <trkpt lat="43.82251" lon="7.25052">
        <ele>487</ele>
        <time>2018-04-26T09:44:34.000Z</time>
      </trkpt>
      <trkpt lat="43.82248" lon="7.25054">
        <ele>480</ele>
        <time>2018-04-26T09:44:36.000Z</time>
      </trkpt>
      <trkpt lat="43.82243" lon="7.25058">
        <ele>481</ele>
        <time>2018-04-26T09:44:40.000Z</time>
      </trkpt>
      <trkpt lat="43.82242" lon="7.25059">
        <ele>481</ele>
        <time>2018-04-26T09:44:41.000Z</time>
      </trkpt>
      <trkpt lat="43.82241" lon="7.2506">
        <ele>481</ele>
        <time>2018-04-26T09:44:42.000Z</time>
      </trkpt>
      <trkpt lat="43.82235" lon="7.25065">
        <ele>482</ele>
        <time>2018-04-26T09:44:47.000Z</time>
      </trkpt>
      <trkpt lat="43.8223" lon="7.25069">
        <ele>482</ele>
        <time>2018-04-26T09:44:51.000Z</time>
      </trkpt>
      <trkpt lat="43.82227" lon="7.25072">
        <ele>482</ele>
        <time>2018-04-26T09:44:54.000Z</time>
      </trkpt>
      <trkpt lat="43.82223" lon="7.25075">
        <ele>481</ele>
        <time>2018-04-26T09:44:57.000Z</time>
      </trkpt>
      <trkpt lat="43.82218" lon="7.2508">
        <ele>480</ele>
        <time>2018-04-26T09:45:02.000Z</time>
      </trkpt>
      <trkpt lat="43.82215" lon="7.25082">
        <ele>480</ele>
        <time>2018-04-26T09:45:04.000Z</time>
      </trkpt>
      <trkpt lat="43.82208" lon="7.25088">
        <ele>496</ele>
        <time>2018-04-26T09:45:10.000Z</time>
      </trkpt>
      <trkpt lat="43.82206" lon="7.2509">
        <ele>496</ele>
        <time>2018-04-26T09:45:12.000Z</time>
      </trkpt>
      <trkpt lat="43.82199" lon="7.25096">
        <ele>496</ele>
        <time>2018-04-26T09:45:17.000Z</time>
      </trkpt>
      <trkpt lat="43.82193" lon="7.25101">
        <ele>495</ele>
        <time>2018-04-26T09:45:21.000Z</time>
      </trkpt>
      <trkpt lat="43.82189" lon="7.25104">
        <ele>495</ele>
        <time>2018-04-26T09:45:24.000Z</time>
      </trkpt>
      <trkpt lat="43.82181" lon="7.2511">
        <ele>495</ele>
        <time>2018-04-26T09:45:29.000Z</time>
      </trkpt>
      <trkpt lat="43.82178" lon="7.25113">
        <ele>496</ele>
        <time>2018-04-26T09:45:31.000Z</time>
      </trkpt>
      <trkpt lat="43.82166" lon="7.25124">
        <ele>489</ele>
        <time>2018-04-26T09:45:39.000Z</time>
      </trkpt>
      <trkpt lat="43.82154" lon="7.25132">
        <ele>491</ele>
        <time>2018-04-26T09:45:46.000Z</time>
      </trkpt>
      <trkpt lat="43.82149" lon="7.25136">
        <ele>491</ele>
        <time>2018-04-26T09:45:49.000Z</time>
      </trkpt>
      <trkpt lat="43.82145" lon="7.25144">
        <ele>493</ele>
        <time>2018-04-26T09:45:53.000Z</time>
      </trkpt>
      <trkpt lat="43.82144" lon="7.25146">
        <ele>493</ele>
        <time>2018-04-26T09:45:54.000Z</time>
      </trkpt>
      <trkpt lat="43.82144" lon="7.25147">
        <ele>493</ele>
        <time>2018-04-26T09:45:55.000Z</time>
      </trkpt>
      <trkpt lat="43.8215" lon="7.25151">
        <ele>495</ele>
        <time>2018-04-26T09:45:59.000Z</time>
      </trkpt>
      <trkpt lat="43.82158" lon="7.2515">
        <ele>497</ele>
        <time>2018-04-26T09:46:03.000Z</time>
      </trkpt>
      <trkpt lat="43.82165" lon="7.25148">
        <ele>496</ele>
        <time>2018-04-26T09:46:07.000Z</time>
      </trkpt>
      <trkpt lat="43.82173" lon="7.25146">
        <ele>503</ele>
        <time>2018-04-26T09:46:12.000Z</time>
      </trkpt>
      <trkpt lat="43.82178" lon="7.25145">
        <ele>502</ele>
        <time>2018-04-26T09:46:15.000Z</time>
      </trkpt>
      <trkpt lat="43.82184" lon="7.25143">
        <ele>502</ele>
        <time>2018-04-26T09:46:19.000Z</time>
      </trkpt>
      <trkpt lat="43.82188" lon="7.25142">
        <ele>502</ele>
        <time>2018-04-26T09:46:22.000Z</time>
      </trkpt>
      <trkpt lat="43.82195" lon="7.25141">
        <ele>502</ele>
        <time>2018-04-26T09:46:26.000Z</time>
      </trkpt>
      <trkpt lat="43.82199" lon="7.2514">
        <ele>503</ele>
        <time>2018-04-26T09:46:29.000Z</time>
      </trkpt>
      <trkpt lat="43.82207" lon="7.2514">
        <ele>503</ele>
        <time>2018-04-26T09:46:34.000Z</time>
      </trkpt>
      <trkpt lat="43.82211" lon="7.25139">
        <ele>503</ele>
        <time>2018-04-26T09:46:37.000Z</time>
      </trkpt>
      <trkpt lat="43.82217" lon="7.25137">
        <ele>504</ele>
        <time>2018-04-26T09:46:41.000Z</time>
      </trkpt>
      <trkpt lat="43.82223" lon="7.25136">
        <ele>504</ele>
        <time>2018-04-26T09:46:45.000Z</time>
      </trkpt>
      <trkpt lat="43.82228" lon="7.25134">
        <ele>504</ele>
        <time>2018-04-26T09:46:48.000Z</time>
      </trkpt>
      <trkpt lat="43.82234" lon="7.25133">
        <ele>505</ele>
        <time>2018-04-26T09:46:52.000Z</time>
      </trkpt>
      <trkpt lat="43.82238" lon="7.25132">
        <ele>505</ele>
        <time>2018-04-26T09:46:55.000Z</time>
      </trkpt>
      <trkpt lat="43.82247" lon="7.2513">
        <ele>505</ele>
        <time>2018-04-26T09:47:01.000Z</time>
      </trkpt>
      <trkpt lat="43.82256" lon="7.25128">
        <ele>513</ele>
        <time>2018-04-26T09:47:07.000Z</time>
      </trkpt>
      <trkpt lat="43.82264" lon="7.25127">
        <ele>513</ele>
        <time>2018-04-26T09:47:12.000Z</time>
      </trkpt>
      <trkpt lat="43.82265" lon="7.25127">
        <ele>513</ele>
        <time>2018-04-26T09:47:13.000Z</time>
      </trkpt>
      <trkpt lat="43.82273" lon="7.25127">
        <ele>513</ele>
        <time>2018-04-26T09:47:18.000Z</time>
      </trkpt>
      <trkpt lat="43.82274" lon="7.25127">
        <ele>513</ele>
        <time>2018-04-26T09:47:19.000Z</time>
      </trkpt>
      <trkpt lat="43.82279" lon="7.25127">
        <ele>513</ele>
        <time>2018-04-26T09:47:23.000Z</time>
      </trkpt>
      <trkpt lat="43.82283" lon="7.25126">
        <ele>513</ele>
        <time>2018-04-26T09:47:26.000Z</time>
      </trkpt>
      <trkpt lat="43.82287" lon="7.25126">
        <ele>514</ele>
        <time>2018-04-26T09:47:29.000Z</time>
      </trkpt>
      <trkpt lat="43.82293" lon="7.25125">
        <ele>514</ele>
        <time>2018-04-26T09:47:34.000Z</time>
      </trkpt>
      <trkpt lat="43.823" lon="7.25124">
        <ele>514</ele>
        <time>2018-04-26T09:47:40.000Z</time>
      </trkpt>
      <trkpt lat="43.82301" lon="7.25125">
        <ele>514</ele>
        <time>2018-04-26T09:47:41.000Z</time>
      </trkpt>
      <trkpt lat="43.82308" lon="7.25127">
        <ele>515</ele>
        <time>2018-04-26T09:47:46.000Z</time>
      </trkpt>
      <trkpt lat="43.82308" lon="7.25129">
        <ele>516</ele>
        <time>2018-04-26T09:47:47.000Z</time>
      </trkpt>
      <trkpt lat="43.82309" lon="7.25133">
        <ele>516</ele>
        <time>2018-04-26T09:47:50.000Z</time>
      </trkpt>
      <trkpt lat="43.82309" lon="7.25133">
        <ele>516</ele>
        <time>2018-04-26T09:47:51.000Z</time>
      </trkpt>
      <trkpt lat="43.82314" lon="7.25134">
        <ele>517</ele>
        <time>2018-04-26T09:47:55.000Z</time>
      </trkpt>
      <trkpt lat="43.82319" lon="7.25135">
        <ele>517</ele>
        <time>2018-04-26T09:48:02.000Z</time>
      </trkpt>
      <trkpt lat="43.82319" lon="7.25133">
        <ele>517</ele>
        <time>2018-04-26T09:48:11.000Z</time>
      </trkpt>
      <trkpt lat="43.82319" lon="7.25133">
        <ele>517</ele>
        <time>2018-04-26T09:48:15.000Z</time>
      </trkpt>
      <trkpt lat="43.82318" lon="7.25131">
        <ele>517</ele>
        <time>2018-04-26T09:48:35.000Z</time>
      </trkpt>
      <trkpt lat="43.82319" lon="7.25126">
        <ele>516</ele>
        <time>2018-04-26T09:48:51.000Z</time>
      </trkpt>
      <trkpt lat="43.82328" lon="7.25125">
        <ele>516</ele>
        <time>2018-04-26T09:48:56.000Z</time>
      </trkpt>
      <trkpt lat="43.8233" lon="7.25125">
        <ele>516</ele>
        <time>2018-04-26T09:48:57.000Z</time>
      </trkpt>
      <trkpt lat="43.82348" lon="7.25123">
        <ele>521</ele>
        <time>2018-04-26T09:49:05.000Z</time>
      </trkpt>
      <trkpt lat="43.82369" lon="7.25121">
        <ele>522</ele>
        <time>2018-04-26T09:49:14.000Z</time>
      </trkpt>
      <trkpt lat="43.82374" lon="7.2512">
        <ele>522</ele>
        <time>2018-04-26T09:49:16.000Z</time>
      </trkpt>
      <trkpt lat="43.82389" lon="7.25118">
        <ele>522</ele>
        <time>2018-04-26T09:49:22.000Z</time>
      </trkpt>
      <trkpt lat="43.824" lon="7.25115">
        <ele>522</ele>
        <time>2018-04-26T09:49:27.000Z</time>
      </trkpt>
      <trkpt lat="43.82403" lon="7.25114">
        <ele>522</ele>
        <time>2018-04-26T09:49:28.000Z</time>
      </trkpt>
      <trkpt lat="43.8242" lon="7.2511">
        <ele>526</ele>
        <time>2018-04-26T09:49:35.000Z</time>
      </trkpt>
      <trkpt lat="43.82435" lon="7.25106">
        <ele>527</ele>
        <time>2018-04-26T09:49:41.000Z</time>
      </trkpt>
      <trkpt lat="43.82438" lon="7.25105">
        <ele>527</ele>
        <time>2018-04-26T09:49:42.000Z</time>
      </trkpt>
      <trkpt lat="43.82453" lon="7.25102">
        <ele>528</ele>
        <time>2018-04-26T09:49:48.000Z</time>
      </trkpt>
      <trkpt lat="43.82472" lon="7.25097">
        <ele>529</ele>
        <time>2018-04-26T09:49:55.000Z</time>
      </trkpt>
      <trkpt lat="43.82494" lon="7.25093">
        <ele>527</ele>
        <time>2018-04-26T09:50:02.000Z</time>
      </trkpt>
      <trkpt lat="43.82522" lon="7.25086">
        <ele>534</ele>
        <time>2018-04-26T09:50:10.000Z</time>
      </trkpt>
      <trkpt lat="43.82544" lon="7.25077">
        <ele>519</ele>
        <time>2018-04-26T09:50:16.000Z</time>
      </trkpt>
      <trkpt lat="43.82581" lon="7.25054">
        <ele>519</ele>
        <time>2018-04-26T09:50:25.000Z</time>
      </trkpt>
      <trkpt lat="43.82619" lon="7.25036">
        <ele>525</ele>
        <time>2018-04-26T09:50:33.000Z</time>
      </trkpt>
      <trkpt lat="43.82623" lon="7.25033">
        <ele>525</ele>
        <time>2018-04-26T09:50:34.000Z</time>
      </trkpt>
      <trkpt lat="43.8264" lon="7.25019">
        <ele>524</ele>
        <time>2018-04-26T09:50:38.000Z</time>
      </trkpt>
      <trkpt lat="43.82645" lon="7.25015">
        <ele>524</ele>
        <time>2018-04-26T09:50:39.000Z</time>
      </trkpt>
      <trkpt lat="43.8265" lon="7.25012">
        <ele>524</ele>
        <time>2018-04-26T09:50:40.000Z</time>
      </trkpt>
      <trkpt lat="43.8266" lon="7.25004">
        <ele>523</ele>
        <time>2018-04-26T09:50:42.000Z</time>
      </trkpt>
      <trkpt lat="43.82677" lon="7.24994">
        <ele>520</ele>
        <time>2018-04-26T09:50:45.000Z</time>
      </trkpt>
      <trkpt lat="43.82713" lon="7.24977">
        <ele>519</ele>
        <time>2018-04-26T09:50:51.000Z</time>
      </trkpt>
      <trkpt lat="43.82718" lon="7.24975">
        <ele>519</ele>
        <time>2018-04-26T09:50:52.000Z</time>
      </trkpt>
      <trkpt lat="43.82722" lon="7.24973">
        <ele>519</ele>
        <time>2018-04-26T09:50:53.000Z</time>
      </trkpt>
      <trkpt lat="43.82739" lon="7.24966">
        <ele>520</ele>
        <time>2018-04-26T09:50:57.000Z</time>
      </trkpt>
      <trkpt lat="43.82753" lon="7.24963">
        <ele>525</ele>
        <time>2018-04-26T09:51:02.000Z</time>
      </trkpt>
      <trkpt lat="43.82767" lon="7.24963">
        <ele>524</ele>
        <time>2018-04-26T09:51:08.000Z</time>
      </trkpt>
      <trkpt lat="43.82773" lon="7.24962">
        <ele>524</ele>
        <time>2018-04-26T09:51:11.000Z</time>
      </trkpt>
      <trkpt lat="43.82777" lon="7.24962">
        <ele>524</ele>
        <time>2018-04-26T09:51:13.000Z</time>
      </trkpt>
      <trkpt lat="43.82784" lon="7.24962">
        <ele>524</ele>
        <time>2018-04-26T09:51:16.000Z</time>
      </trkpt>
      <trkpt lat="43.82791" lon="7.24964">
        <ele>525</ele>
        <time>2018-04-26T09:51:19.000Z</time>
      </trkpt>
      <trkpt lat="43.82795" lon="7.24966">
        <ele>525</ele>
        <time>2018-04-26T09:51:21.000Z</time>
      </trkpt>
      <trkpt lat="43.82807" lon="7.24971">
        <ele>526</ele>
        <time>2018-04-26T09:51:26.000Z</time>
      </trkpt>
      <trkpt lat="43.82815" lon="7.24975">
        <ele>526</ele>
        <time>2018-04-26T09:51:29.000Z</time>
      </trkpt>
      <trkpt lat="43.82823" lon="7.24978">
        <ele>527</ele>
        <time>2018-04-26T09:51:32.000Z</time>
      </trkpt>
      <trkpt lat="43.82839" lon="7.24974">
        <ele>532</ele>
        <time>2018-04-26T09:51:37.000Z</time>
      </trkpt>
      <trkpt lat="43.82852" lon="7.24958">
        <ele>531</ele>
        <time>2018-04-26T09:51:42.000Z</time>
      </trkpt>
      <trkpt lat="43.82861" lon="7.24937">
        <ele>530</ele>
        <time>2018-04-26T09:51:47.000Z</time>
      </trkpt>
      <trkpt lat="43.82867" lon="7.24925">
        <ele>530</ele>
        <time>2018-04-26T09:51:50.000Z</time>
      </trkpt>
      <trkpt lat="43.82875" lon="7.24916">
        <ele>519</ele>
        <time>2018-04-26T09:51:53.000Z</time>
      </trkpt>
      <trkpt lat="43.82885" lon="7.24904">
        <ele>521</ele>
        <time>2018-04-26T09:51:57.000Z</time>
      </trkpt>
      <trkpt lat="43.82894" lon="7.24896">
        <ele>521</ele>
        <time>2018-04-26T09:52:00.000Z</time>
      </trkpt>
      <trkpt lat="43.82914" lon="7.24877">
        <ele>519</ele>
        <time>2018-04-26T09:52:07.000Z</time>
      </trkpt>
      <trkpt lat="43.82918" lon="7.24876">
        <ele>525</ele>
        <time>2018-04-26T09:52:08.000Z</time>
      </trkpt>
      <trkpt lat="43.82935" lon="7.24869">
        <ele>524</ele>
        <time>2018-04-26T09:52:13.000Z</time>
      </trkpt>
      <trkpt lat="43.82963" lon="7.24866">
        <ele>525</ele>
        <time>2018-04-26T09:52:20.000Z</time>
      </trkpt>
      <trkpt lat="43.82967" lon="7.24866">
        <ele>525</ele>
        <time>2018-04-26T09:52:21.000Z</time>
      </trkpt>
      <trkpt lat="43.82977" lon="7.24868">
        <ele>526</ele>
        <time>2018-04-26T09:52:23.000Z</time>
      </trkpt>
      <trkpt lat="43.82989" lon="7.24874">
        <ele>527</ele>
        <time>2018-04-26T09:52:25.000Z</time>
      </trkpt>
      <trkpt lat="43.82995" lon="7.24877">
        <ele>527</ele>
        <time>2018-04-26T09:52:26.000Z</time>
      </trkpt>
      <trkpt lat="43.83007" lon="7.24888">
        <ele>533</ele>
        <time>2018-04-26T09:52:28.000Z</time>
      </trkpt>
      <trkpt lat="43.83021" lon="7.24896">
        <ele>534</ele>
        <time>2018-04-26T09:52:30.000Z</time>
      </trkpt>
      <trkpt lat="43.83034" lon="7.24891">
        <ele>534</ele>
        <time>2018-04-26T09:52:32.000Z</time>
      </trkpt>
      <trkpt lat="43.83045" lon="7.24875">
        <ele>533</ele>
        <time>2018-04-26T09:52:35.000Z</time>
      </trkpt>
      <trkpt lat="43.83048" lon="7.24871">
        <ele>532</ele>
        <time>2018-04-26T09:52:36.000Z</time>
      </trkpt>
      <trkpt lat="43.83058" lon="7.24861">
        <ele>531</ele>
        <time>2018-04-26T09:52:39.000Z</time>
      </trkpt>
      <trkpt lat="43.8306" lon="7.24859">
        <ele>531</ele>
        <time>2018-04-26T09:52:40.000Z</time>
      </trkpt>
      <trkpt lat="43.83063" lon="7.24858">
        <ele>531</ele>
        <time>2018-04-26T09:52:41.000Z</time>
      </trkpt>
      <trkpt lat="43.83073" lon="7.24856">
        <ele>530</ele>
        <time>2018-04-26T09:52:44.000Z</time>
      </trkpt>
      <trkpt lat="43.8308" lon="7.24856">
        <ele>530</ele>
        <time>2018-04-26T09:52:46.000Z</time>
      </trkpt>
      <trkpt lat="43.83106" lon="7.2485">
        <ele>536</ele>
        <time>2018-04-26T09:52:53.000Z</time>
      </trkpt>
      <trkpt lat="43.83126" lon="7.24841">
        <ele>538</ele>
        <time>2018-04-26T09:52:58.000Z</time>
      </trkpt>
      <trkpt lat="43.83131" lon="7.24838">
        <ele>538</ele>
        <time>2018-04-26T09:52:59.000Z</time>
      </trkpt>
      <trkpt lat="43.83146" lon="7.24823">
        <ele>523</ele>
        <time>2018-04-26T09:53:02.000Z</time>
      </trkpt>
      <trkpt lat="43.83151" lon="7.24818">
        <ele>523</ele>
        <time>2018-04-26T09:53:03.000Z</time>
      </trkpt>
      <trkpt lat="43.83162" lon="7.24808">
        <ele>521</ele>
        <time>2018-04-26T09:53:05.000Z</time>
      </trkpt>
      <trkpt lat="43.83176" lon="7.24798">
        <ele>523</ele>
        <time>2018-04-26T09:53:07.000Z</time>
      </trkpt>
      <trkpt lat="43.83183" lon="7.24794">
        <ele>521</ele>
        <time>2018-04-26T09:53:08.000Z</time>
      </trkpt>
      <trkpt lat="43.83191" lon="7.2479">
        <ele>521</ele>
        <time>2018-04-26T09:53:09.000Z</time>
      </trkpt>
      <trkpt lat="43.83213" lon="7.24782">
        <ele>520</ele>
        <time>2018-04-26T09:53:12.000Z</time>
      </trkpt>
      <trkpt lat="43.83221" lon="7.2478">
        <ele>520</ele>
        <time>2018-04-26T09:53:13.000Z</time>
      </trkpt>
      <trkpt lat="43.83229" lon="7.24778">
        <ele>519</ele>
        <time>2018-04-26T09:53:14.000Z</time>
      </trkpt>
      <trkpt lat="43.83244" lon="7.24775">
        <ele>518</ele>
        <time>2018-04-26T09:53:16.000Z</time>
      </trkpt>
      <trkpt lat="43.83262" lon="7.24771">
        <ele>520</ele>
        <time>2018-04-26T09:53:18.000Z</time>
      </trkpt>
      <trkpt lat="43.83271" lon="7.24768">
        <ele>521</ele>
        <time>2018-04-26T09:53:19.000Z</time>
      </trkpt>
      <trkpt lat="43.8328" lon="7.24765">
        <ele>521</ele>
        <time>2018-04-26T09:53:20.000Z</time>
      </trkpt>
      <trkpt lat="43.83298" lon="7.24759">
        <ele>522</ele>
        <time>2018-04-26T09:53:22.000Z</time>
      </trkpt>
      <trkpt lat="43.83314" lon="7.24752">
        <ele>519</ele>
        <time>2018-04-26T09:53:24.000Z</time>
      </trkpt>
      <trkpt lat="43.83322" lon="7.24748">
        <ele>506</ele>
        <time>2018-04-26T09:53:25.000Z</time>
      </trkpt>
      <trkpt lat="43.83369" lon="7.24732">
        <ele>508</ele>
        <time>2018-04-26T09:53:31.000Z</time>
      </trkpt>
      <trkpt lat="43.83378" lon="7.24732">
        <ele>509</ele>
        <time>2018-04-26T09:53:32.000Z</time>
      </trkpt>
      <trkpt lat="43.83395" lon="7.24734">
        <ele>512</ele>
        <time>2018-04-26T09:53:34.000Z</time>
      </trkpt>
      <trkpt lat="43.83403" lon="7.24732">
        <ele>513</ele>
        <time>2018-04-26T09:53:35.000Z</time>
      </trkpt>
      <trkpt lat="43.83417" lon="7.24727">
        <ele>518</ele>
        <time>2018-04-26T09:53:37.000Z</time>
      </trkpt>
      <trkpt lat="43.83429" lon="7.24723">
        <ele>517</ele>
        <time>2018-04-26T09:53:39.000Z</time>
      </trkpt>
      <trkpt lat="43.83457" lon="7.2471">
        <ele>515</ele>
        <time>2018-04-26T09:53:45.000Z</time>
      </trkpt>
      <trkpt lat="43.83465" lon="7.24705">
        <ele>514</ele>
        <time>2018-04-26T09:53:47.000Z</time>
      </trkpt>
      <trkpt lat="43.83481" lon="7.24692">
        <ele>514</ele>
        <time>2018-04-26T09:53:51.000Z</time>
      </trkpt>
      <trkpt lat="43.8349" lon="7.24685">
        <ele>515</ele>
        <time>2018-04-26T09:53:53.000Z</time>
      </trkpt>
      <trkpt lat="43.83501" lon="7.2468">
        <ele>516</ele>
        <time>2018-04-26T09:53:56.000Z</time>
      </trkpt>
      <trkpt lat="43.83507" lon="7.24678">
        <ele>516</ele>
        <time>2018-04-26T09:53:58.000Z</time>
      </trkpt>
      <trkpt lat="43.83514" lon="7.24674">
        <ele>516</ele>
        <time>2018-04-26T09:54:01.000Z</time>
      </trkpt>
      <trkpt lat="43.8352" lon="7.24669">
        <ele>516</ele>
        <time>2018-04-26T09:54:04.000Z</time>
      </trkpt>
      <trkpt lat="43.83528" lon="7.24665">
        <ele>519</ele>
        <time>2018-04-26T09:54:07.000Z</time>
      </trkpt>
      <trkpt lat="43.83532" lon="7.24661">
        <ele>519</ele>
        <time>2018-04-26T09:54:09.000Z</time>
      </trkpt>
      <trkpt lat="43.8354" lon="7.24656">
        <ele>520</ele>
        <time>2018-04-26T09:54:12.000Z</time>
      </trkpt>
      <trkpt lat="43.83559" lon="7.24647">
        <ele>520</ele>
        <time>2018-04-26T09:54:18.000Z</time>
      </trkpt>
      <trkpt lat="43.83564" lon="7.24646">
        <ele>520</ele>
        <time>2018-04-26T09:54:19.000Z</time>
      </trkpt>
      <trkpt lat="43.83583" lon="7.24644">
        <ele>520</ele>
        <time>2018-04-26T09:54:23.000Z</time>
      </trkpt>
      <trkpt lat="43.83592" lon="7.24643">
        <ele>520</ele>
        <time>2018-04-26T09:54:25.000Z</time>
      </trkpt>
      <trkpt lat="43.83599" lon="7.24651">
        <ele>519</ele>
        <time>2018-04-26T09:54:27.000Z</time>
      </trkpt>
      <trkpt lat="43.83608" lon="7.24668">
        <ele>516</ele>
        <time>2018-04-26T09:54:31.000Z</time>
      </trkpt>
      <trkpt lat="43.83616" lon="7.2467">
        <ele>516</ele>
        <time>2018-04-26T09:54:34.000Z</time>
      </trkpt>
      <trkpt lat="43.83623" lon="7.24668">
        <ele>516</ele>
        <time>2018-04-26T09:54:36.000Z</time>
      </trkpt>
      <trkpt lat="43.83633" lon="7.24661">
        <ele>519</ele>
        <time>2018-04-26T09:54:39.000Z</time>
      </trkpt>
      <trkpt lat="43.83655" lon="7.24648">
        <ele>519</ele>
        <time>2018-04-26T09:54:45.000Z</time>
      </trkpt>
      <trkpt lat="43.83671" lon="7.24644">
        <ele>518</ele>
        <time>2018-04-26T09:54:49.000Z</time>
      </trkpt>
      <trkpt lat="43.83679" lon="7.24641">
        <ele>518</ele>
        <time>2018-04-26T09:54:51.000Z</time>
      </trkpt>
      <trkpt lat="43.83695" lon="7.24636">
        <ele>518</ele>
        <time>2018-04-26T09:54:55.000Z</time>
      </trkpt>
      <trkpt lat="43.83708" lon="7.24633">
        <ele>518</ele>
        <time>2018-04-26T09:54:58.000Z</time>
      </trkpt>
      <trkpt lat="43.83717" lon="7.24632">
        <ele>518</ele>
        <time>2018-04-26T09:55:00.000Z</time>
      </trkpt>
      <trkpt lat="43.83721" lon="7.24632">
        <ele>518</ele>
        <time>2018-04-26T09:55:01.000Z</time>
      </trkpt>
      <trkpt lat="43.83739" lon="7.24633">
        <ele>518</ele>
        <time>2018-04-26T09:55:05.000Z</time>
      </trkpt>
      <trkpt lat="43.8377" lon="7.24637">
        <ele>520</ele>
        <time>2018-04-26T09:55:12.000Z</time>
      </trkpt>
      <trkpt lat="43.83779" lon="7.24639">
        <ele>520</ele>
        <time>2018-04-26T09:55:14.000Z</time>
      </trkpt>
      <trkpt lat="43.83793" lon="7.2464">
        <ele>521</ele>
        <time>2018-04-26T09:55:17.000Z</time>
      </trkpt>
      <trkpt lat="43.83815" lon="7.24643">
        <ele>521</ele>
        <time>2018-04-26T09:55:22.000Z</time>
      </trkpt>
      <trkpt lat="43.83824" lon="7.24643">
        <ele>521</ele>
        <time>2018-04-26T09:55:24.000Z</time>
      </trkpt>
      <trkpt lat="43.83832" lon="7.24642">
        <ele>522</ele>
        <time>2018-04-26T09:55:26.000Z</time>
      </trkpt>
      <trkpt lat="43.83844" lon="7.24636">
        <ele>523</ele>
        <time>2018-04-26T09:55:29.000Z</time>
      </trkpt>
      <trkpt lat="43.83863" lon="7.2462">
        <ele>523</ele>
        <time>2018-04-26T09:55:34.000Z</time>
      </trkpt>
      <trkpt lat="43.83867" lon="7.24616">
        <ele>523</ele>
        <time>2018-04-26T09:55:35.000Z</time>
      </trkpt>
      <trkpt lat="43.83897" lon="7.24587">
        <ele>522</ele>
        <time>2018-04-26T09:55:43.000Z</time>
      </trkpt>
      <trkpt lat="43.83905" lon="7.2458">
        <ele>525</ele>
        <time>2018-04-26T09:55:45.000Z</time>
      </trkpt>
      <trkpt lat="43.83936" lon="7.24551">
        <ele>530</ele>
        <time>2018-04-26T09:55:53.000Z</time>
      </trkpt>
      <trkpt lat="43.83956" lon="7.24537">
        <ele>533</ele>
        <time>2018-04-26T09:55:58.000Z</time>
      </trkpt>
      <trkpt lat="43.83961" lon="7.24536">
        <ele>533</ele>
        <time>2018-04-26T09:55:59.000Z</time>
      </trkpt>
      <trkpt lat="43.8397" lon="7.24536">
        <ele>533</ele>
        <time>2018-04-26T09:56:01.000Z</time>
      </trkpt>
      <trkpt lat="43.8398" lon="7.24538">
        <ele>533</ele>
        <time>2018-04-26T09:56:03.000Z</time>
      </trkpt>
      <trkpt lat="43.83984" lon="7.24539">
        <ele>532</ele>
        <time>2018-04-26T09:56:04.000Z</time>
      </trkpt>
      <trkpt lat="43.84002" lon="7.24542">
        <ele>532</ele>
        <time>2018-04-26T09:56:08.000Z</time>
      </trkpt>
      <trkpt lat="43.8401" lon="7.24544">
        <ele>531</ele>
        <time>2018-04-26T09:56:10.000Z</time>
      </trkpt>
      <trkpt lat="43.84014" lon="7.24545">
        <ele>531</ele>
        <time>2018-04-26T09:56:11.000Z</time>
      </trkpt>
      <trkpt lat="43.84043" lon="7.24552">
        <ele>531</ele>
        <time>2018-04-26T09:56:18.000Z</time>
      </trkpt>
      <trkpt lat="43.84059" lon="7.24549">
        <ele>531</ele>
        <time>2018-04-26T09:56:22.000Z</time>
      </trkpt>
      <trkpt lat="43.84066" lon="7.24544">
        <ele>531</ele>
        <time>2018-04-26T09:56:24.000Z</time>
      </trkpt>
      <trkpt lat="43.8407" lon="7.24541">
        <ele>531</ele>
        <time>2018-04-26T09:56:25.000Z</time>
      </trkpt>
      <trkpt lat="43.84094" lon="7.24517">
        <ele>533</ele>
        <time>2018-04-26T09:56:32.000Z</time>
      </trkpt>
      <trkpt lat="43.84104" lon="7.24507">
        <ele>534</ele>
        <time>2018-04-26T09:56:35.000Z</time>
      </trkpt>
      <trkpt lat="43.84126" lon="7.24486">
        <ele>536</ele>
        <time>2018-04-26T09:56:42.000Z</time>
      </trkpt>
      <trkpt lat="43.84129" lon="7.24483">
        <ele>536</ele>
        <time>2018-04-26T09:56:43.000Z</time>
      </trkpt>
      <trkpt lat="43.84161" lon="7.24452">
        <ele>536</ele>
        <time>2018-04-26T09:56:52.000Z</time>
      </trkpt>
      <trkpt lat="43.84164" lon="7.24449">
        <ele>536</ele>
        <time>2018-04-26T09:56:53.000Z</time>
      </trkpt>
      <trkpt lat="43.84191" lon="7.24422">
        <ele>536</ele>
        <time>2018-04-26T09:57:01.000Z</time>
      </trkpt>
      <trkpt lat="43.84195" lon="7.24418">
        <ele>537</ele>
        <time>2018-04-26T09:57:02.000Z</time>
      </trkpt>
      <trkpt lat="43.8422" lon="7.24393">
        <ele>535</ele>
        <time>2018-04-26T09:57:10.000Z</time>
      </trkpt>
      <trkpt lat="43.84223" lon="7.2439">
        <ele>535</ele>
        <time>2018-04-26T09:57:11.000Z</time>
      </trkpt>
      <trkpt lat="43.84246" lon="7.24369">
        <ele>536</ele>
        <time>2018-04-26T09:57:18.000Z</time>
      </trkpt>
      <trkpt lat="43.84269" lon="7.24348">
        <ele>538</ele>
        <time>2018-04-26T09:57:25.000Z</time>
      </trkpt>
      <trkpt lat="43.84272" lon="7.24346">
        <ele>538</ele>
        <time>2018-04-26T09:57:26.000Z</time>
      </trkpt>
      <trkpt lat="43.84291" lon="7.24336">
        <ele>538</ele>
        <time>2018-04-26T09:57:31.000Z</time>
      </trkpt>
      <trkpt lat="43.84305" lon="7.24328">
        <ele>541</ele>
        <time>2018-04-26T09:57:35.000Z</time>
      </trkpt>
      <trkpt lat="43.84312" lon="7.24323">
        <ele>541</ele>
        <time>2018-04-26T09:57:37.000Z</time>
      </trkpt>
      <trkpt lat="43.84331" lon="7.24304">
        <ele>542</ele>
        <time>2018-04-26T09:57:43.000Z</time>
      </trkpt>
      <trkpt lat="43.84343" lon="7.24283">
        <ele>542</ele>
        <time>2018-04-26T09:57:48.000Z</time>
      </trkpt>
      <trkpt lat="43.8435" lon="7.2427">
        <ele>543</ele>
        <time>2018-04-26T09:57:51.000Z</time>
      </trkpt>
      <trkpt lat="43.84353" lon="7.24259">
        <ele>543</ele>
        <time>2018-04-26T09:57:53.000Z</time>
      </trkpt>
      <trkpt lat="43.84355" lon="7.24254">
        <ele>543</ele>
        <time>2018-04-26T09:57:54.000Z</time>
      </trkpt>
      <trkpt lat="43.84367" lon="7.24228">
        <ele>547</ele>
        <time>2018-04-26T09:58:00.000Z</time>
      </trkpt>
      <trkpt lat="43.84377" lon="7.24209">
        <ele>547</ele>
        <time>2018-04-26T09:58:05.000Z</time>
      </trkpt>
      <trkpt lat="43.84383" lon="7.24197">
        <ele>546</ele>
        <time>2018-04-26T09:58:08.000Z</time>
      </trkpt>
      <trkpt lat="43.84387" lon="7.24185">
        <ele>546</ele>
        <time>2018-04-26T09:58:11.000Z</time>
      </trkpt>
      <trkpt lat="43.844" lon="7.24164">
        <ele>545</ele>
        <time>2018-04-26T09:58:17.000Z</time>
      </trkpt>
      <trkpt lat="43.84405" lon="7.24155">
        <ele>545</ele>
        <time>2018-04-26T09:58:19.000Z</time>
      </trkpt>
      <trkpt lat="43.8442" lon="7.24136">
        <ele>540</ele>
        <time>2018-04-26T09:58:25.000Z</time>
      </trkpt>
      <trkpt lat="43.84434" lon="7.24126">
        <ele>540</ele>
        <time>2018-04-26T09:58:30.000Z</time>
      </trkpt>
      <trkpt lat="43.84436" lon="7.24123">
        <ele>540</ele>
        <time>2018-04-26T09:58:31.000Z</time>
      </trkpt>
      <trkpt lat="43.84448" lon="7.24115">
        <ele>540</ele>
        <time>2018-04-26T09:58:35.000Z</time>
      </trkpt>
      <trkpt lat="43.84455" lon="7.24112">
        <ele>540</ele>
        <time>2018-04-26T09:58:37.000Z</time>
      </trkpt>
      <trkpt lat="43.84478" lon="7.24099">
        <ele>540</ele>
        <time>2018-04-26T09:58:44.000Z</time>
      </trkpt>
      <trkpt lat="43.84493" lon="7.24088">
        <ele>540</ele>
        <time>2018-04-26T09:58:49.000Z</time>
      </trkpt>
      <trkpt lat="43.84511" lon="7.24078">
        <ele>540</ele>
        <time>2018-04-26T09:58:55.000Z</time>
      </trkpt>
      <trkpt lat="43.84518" lon="7.24074">
        <ele>541</ele>
        <time>2018-04-26T09:58:57.000Z</time>
      </trkpt>
      <trkpt lat="43.84523" lon="7.24071">
        <ele>541</ele>
        <time>2018-04-26T09:58:59.000Z</time>
      </trkpt>
      <trkpt lat="43.84527" lon="7.24069">
        <ele>541</ele>
        <time>2018-04-26T09:59:00.000Z</time>
      </trkpt>
      <trkpt lat="43.84542" lon="7.24055">
        <ele>541</ele>
        <time>2018-04-26T09:59:05.000Z</time>
      </trkpt>
      <trkpt lat="43.84561" lon="7.24038">
        <ele>541</ele>
        <time>2018-04-26T09:59:11.000Z</time>
      </trkpt>
      <trkpt lat="43.84568" lon="7.24032">
        <ele>541</ele>
        <time>2018-04-26T09:59:13.000Z</time>
      </trkpt>
      <trkpt lat="43.84582" lon="7.24022">
        <ele>541</ele>
        <time>2018-04-26T09:59:17.000Z</time>
      </trkpt>
      <trkpt lat="43.84599" lon="7.24009">
        <ele>542</ele>
        <time>2018-04-26T09:59:22.000Z</time>
      </trkpt>
      <trkpt lat="43.84602" lon="7.24006">
        <ele>543</ele>
        <time>2018-04-26T09:59:23.000Z</time>
      </trkpt>
      <trkpt lat="43.84627" lon="7.23985">
        <ele>543</ele>
        <time>2018-04-26T09:59:30.000Z</time>
      </trkpt>
      <trkpt lat="43.84646" lon="7.23971">
        <ele>543</ele>
        <time>2018-04-26T09:59:35.000Z</time>
      </trkpt>
      <trkpt lat="43.84657" lon="7.23963">
        <ele>543</ele>
        <time>2018-04-26T09:59:38.000Z</time>
      </trkpt>
      <trkpt lat="43.84678" lon="7.23945">
        <ele>545</ele>
        <time>2018-04-26T09:59:44.000Z</time>
      </trkpt>
      <trkpt lat="43.84693" lon="7.23935">
        <ele>545</ele>
        <time>2018-04-26T09:59:48.000Z</time>
      </trkpt>
      <trkpt lat="43.84707" lon="7.23924">
        <ele>546</ele>
        <time>2018-04-26T09:59:52.000Z</time>
      </trkpt>
      <trkpt lat="43.84729" lon="7.23907">
        <ele>545</ele>
        <time>2018-04-26T09:59:58.000Z</time>
      </trkpt>
      <trkpt lat="43.84736" lon="7.23902">
        <ele>545</ele>
        <time>2018-04-26T10:00:00.000Z</time>
      </trkpt>
      <trkpt lat="43.8474" lon="7.23899">
        <ele>545</ele>
        <time>2018-04-26T10:00:01.000Z</time>
      </trkpt>
      <trkpt lat="43.8476" lon="7.23884">
        <ele>546</ele>
        <time>2018-04-26T10:00:06.000Z</time>
      </trkpt>
      <trkpt lat="43.84793" lon="7.23858">
        <ele>546</ele>
        <time>2018-04-26T10:00:14.000Z</time>
      </trkpt>
      <trkpt lat="43.84828" lon="7.23831">
        <ele>545</ele>
        <time>2018-04-26T10:00:23.000Z</time>
      </trkpt>
      <trkpt lat="43.84839" lon="7.23822">
        <ele>546</ele>
        <time>2018-04-26T10:00:26.000Z</time>
      </trkpt>
      <trkpt lat="43.84849" lon="7.23813">
        <ele>545</ele>
        <time>2018-04-26T10:00:29.000Z</time>
      </trkpt>
      <trkpt lat="43.84865" lon="7.23801">
        <ele>545</ele>
        <time>2018-04-26T10:00:34.000Z</time>
      </trkpt>
      <trkpt lat="43.84883" lon="7.23787">
        <ele>545</ele>
        <time>2018-04-26T10:00:41.000Z</time>
      </trkpt>
      <trkpt lat="43.84907" lon="7.23772">
        <ele>545</ele>
        <time>2018-04-26T10:00:48.000Z</time>
      </trkpt>
      <trkpt lat="43.84924" lon="7.23761">
        <ele>544</ele>
        <time>2018-04-26T10:00:53.000Z</time>
      </trkpt>
      <trkpt lat="43.84927" lon="7.23758">
        <ele>544</ele>
        <time>2018-04-26T10:00:54.000Z</time>
      </trkpt>
      <trkpt lat="43.84933" lon="7.2375">
        <ele>544</ele>
        <time>2018-04-26T10:00:56.000Z</time>
      </trkpt>
      <trkpt lat="43.84941" lon="7.23743">
        <ele>543</ele>
        <time>2018-04-26T10:00:59.000Z</time>
      </trkpt>
      <trkpt lat="43.84964" lon="7.23727">
        <ele>543</ele>
        <time>2018-04-26T10:01:05.000Z</time>
      </trkpt>
      <trkpt lat="43.84974" lon="7.23718">
        <ele>543</ele>
        <time>2018-04-26T10:01:08.000Z</time>
      </trkpt>
      <trkpt lat="43.84978" lon="7.23715">
        <ele>543</ele>
        <time>2018-04-26T10:01:09.000Z</time>
      </trkpt>
      <trkpt lat="43.85" lon="7.23698">
        <ele>543</ele>
        <time>2018-04-26T10:01:14.000Z</time>
      </trkpt>
      <trkpt lat="43.85005" lon="7.23695">
        <ele>543</ele>
        <time>2018-04-26T10:01:15.000Z</time>
      </trkpt>
      <trkpt lat="43.8502" lon="7.23684">
        <ele>543</ele>
        <time>2018-04-26T10:01:18.000Z</time>
      </trkpt>
      <trkpt lat="43.8503" lon="7.23676">
        <ele>542</ele>
        <time>2018-04-26T10:01:20.000Z</time>
      </trkpt>
      <trkpt lat="43.85035" lon="7.23672">
        <ele>542</ele>
        <time>2018-04-26T10:01:21.000Z</time>
      </trkpt>
      <trkpt lat="43.85052" lon="7.2366">
        <ele>541</ele>
        <time>2018-04-26T10:01:24.000Z</time>
      </trkpt>
      <trkpt lat="43.85062" lon="7.23652">
        <ele>540</ele>
        <time>2018-04-26T10:01:26.000Z</time>
      </trkpt>
      <trkpt lat="43.85068" lon="7.23647">
        <ele>540</ele>
        <time>2018-04-26T10:01:27.000Z</time>
      </trkpt>
      <trkpt lat="43.85085" lon="7.23635">
        <ele>539</ele>
        <time>2018-04-26T10:01:30.000Z</time>
      </trkpt>
      <trkpt lat="43.85097" lon="7.23628">
        <ele>538</ele>
        <time>2018-04-26T10:01:32.000Z</time>
      </trkpt>
      <trkpt lat="43.85104" lon="7.23624">
        <ele>538</ele>
        <time>2018-04-26T10:01:33.000Z</time>
      </trkpt>
      <trkpt lat="43.85117" lon="7.23618">
        <ele>538</ele>
        <time>2018-04-26T10:01:35.000Z</time>
      </trkpt>
      <trkpt lat="43.85132" lon="7.23611">
        <ele>538</ele>
        <time>2018-04-26T10:01:37.000Z</time>
      </trkpt>
      <trkpt lat="43.8514" lon="7.23607">
        <ele>538</ele>
        <time>2018-04-26T10:01:38.000Z</time>
      </trkpt>
      <trkpt lat="43.85147" lon="7.23603">
        <ele>538</ele>
        <time>2018-04-26T10:01:39.000Z</time>
      </trkpt>
      <trkpt lat="43.85154" lon="7.23598">
        <ele>537</ele>
        <time>2018-04-26T10:01:40.000Z</time>
      </trkpt>
      <trkpt lat="43.85166" lon="7.23584">
        <ele>536</ele>
        <time>2018-04-26T10:01:42.000Z</time>
      </trkpt>
      <trkpt lat="43.85183" lon="7.23559">
        <ele>532</ele>
        <time>2018-04-26T10:01:45.000Z</time>
      </trkpt>
      <trkpt lat="43.85188" lon="7.2355">
        <ele>532</ele>
        <time>2018-04-26T10:01:46.000Z</time>
      </trkpt>
      <trkpt lat="43.85194" lon="7.2354">
        <ele>531</ele>
        <time>2018-04-26T10:01:47.000Z</time>
      </trkpt>
      <trkpt lat="43.85205" lon="7.23519">
        <ele>530</ele>
        <time>2018-04-26T10:01:49.000Z</time>
      </trkpt>
      <trkpt lat="43.85217" lon="7.23497">
        <ele>529</ele>
        <time>2018-04-26T10:01:51.000Z</time>
      </trkpt>
      <trkpt lat="43.85229" lon="7.23477">
        <ele>529</ele>
        <time>2018-04-26T10:01:53.000Z</time>
      </trkpt>
      <trkpt lat="43.85246" lon="7.2346">
        <ele>528</ele>
        <time>2018-04-26T10:01:55.000Z</time>
      </trkpt>
      <trkpt lat="43.85263" lon="7.23448">
        <ele>526</ele>
        <time>2018-04-26T10:01:57.000Z</time>
      </trkpt>
      <trkpt lat="43.85279" lon="7.23438">
        <ele>527</ele>
        <time>2018-04-26T10:01:59.000Z</time>
      </trkpt>
      <trkpt lat="43.85286" lon="7.23431">
        <ele>527</ele>
        <time>2018-04-26T10:02:00.000Z</time>
      </trkpt>
      <trkpt lat="43.85292" lon="7.23425">
        <ele>527</ele>
        <time>2018-04-26T10:02:01.000Z</time>
      </trkpt>
      <trkpt lat="43.85298" lon="7.23417">
        <ele>525</ele>
        <time>2018-04-26T10:02:02.000Z</time>
      </trkpt>
      <trkpt lat="43.85303" lon="7.23408">
        <ele>526</ele>
        <time>2018-04-26T10:02:03.000Z</time>
      </trkpt>
      <trkpt lat="43.85327" lon="7.23373">
        <ele>525</ele>
        <time>2018-04-26T10:02:08.000Z</time>
      </trkpt>
      <trkpt lat="43.85331" lon="7.23367">
        <ele>525</ele>
        <time>2018-04-26T10:02:09.000Z</time>
      </trkpt>
      <trkpt lat="43.85354" lon="7.23332">
        <ele>523</ele>
        <time>2018-04-26T10:02:15.000Z</time>
      </trkpt>
      <trkpt lat="43.85357" lon="7.23327">
        <ele>523</ele>
        <time>2018-04-26T10:02:16.000Z</time>
      </trkpt>
      <trkpt lat="43.8537" lon="7.23306">
        <ele>523</ele>
        <time>2018-04-26T10:02:20.000Z</time>
      </trkpt>
      <trkpt lat="43.85373" lon="7.23301">
        <ele>523</ele>
        <time>2018-04-26T10:02:22.000Z</time>
      </trkpt>
      <trkpt lat="43.85381" lon="7.23292">
        <ele>522</ele>
        <time>2018-04-26T10:02:23.000Z</time>
      </trkpt>
      <trkpt lat="43.85399" lon="7.23275">
        <ele>522</ele>
        <time>2018-04-26T10:02:27.000Z</time>
      </trkpt>
      <trkpt lat="43.85432" lon="7.23251">
        <ele>522</ele>
        <time>2018-04-26T10:02:34.000Z</time>
      </trkpt>
      <trkpt lat="43.85459" lon="7.23228">
        <ele>518</ele>
        <time>2018-04-26T10:02:40.000Z</time>
      </trkpt>
      <trkpt lat="43.85498" lon="7.23202">
        <ele>518</ele>
        <time>2018-04-26T10:02:48.000Z</time>
      </trkpt>
      <trkpt lat="43.85502" lon="7.23199">
        <ele>522</ele>
        <time>2018-04-26T10:02:49.000Z</time>
      </trkpt>
      <trkpt lat="43.8554" lon="7.23173">
        <ele>522</ele>
        <time>2018-04-26T10:02:57.000Z</time>
      </trkpt>
      <trkpt lat="43.85548" lon="7.23166">
        <ele>517</ele>
        <time>2018-04-26T10:02:59.000Z</time>
      </trkpt>
      <trkpt lat="43.8557" lon="7.23147">
        <ele>518</ele>
        <time>2018-04-26T10:03:04.000Z</time>
      </trkpt>
      <trkpt lat="43.85612" lon="7.23123">
        <ele>520</ele>
        <time>2018-04-26T10:03:13.000Z</time>
      </trkpt>
      <trkpt lat="43.85623" lon="7.23117">
        <ele>520</ele>
        <time>2018-04-26T10:03:18.000Z</time>
      </trkpt>
      <trkpt lat="43.85624" lon="7.23116">
        <ele>520</ele>
        <time>2018-04-26T10:03:26.000Z</time>
      </trkpt>
      <trkpt lat="43.85624" lon="7.23116">
        <ele>520</ele>
        <time>2018-04-26T10:03:34.000Z</time>
      </trkpt>
      <trkpt lat="43.85622" lon="7.23116">
        <ele>520</ele>
        <time>2018-04-26T10:03:40.000Z</time>
      </trkpt>
      <trkpt lat="43.85622" lon="7.23115">
        <ele>520</ele>
        <time>2018-04-26T10:03:42.000Z</time>
      </trkpt>
      <trkpt lat="43.85622" lon="7.23116">
        <ele>520</ele>
        <time>2018-04-26T10:03:49.000Z</time>
      </trkpt>
      <trkpt lat="43.85622" lon="7.23118">
        <ele>520</ele>
        <time>2018-04-26T10:04:02.000Z</time>
      </trkpt>
      <trkpt lat="43.85623" lon="7.23118">
        <ele>520</ele>
        <time>2018-04-26T10:04:08.000Z</time>
      </trkpt>
      <trkpt lat="43.85624" lon="7.23118">
        <ele>520</ele>
        <time>2018-04-26T10:04:14.000Z</time>
      </trkpt>
      <trkpt lat="43.85624" lon="7.23119">
        <ele>520</ele>
        <time>2018-04-26T10:04:18.000Z</time>
      </trkpt>
      <trkpt lat="43.85622" lon="7.2312">
        <ele>520</ele>
        <time>2018-04-26T10:04:25.000Z</time>
      </trkpt>
      <trkpt lat="43.8562" lon="7.23119">
        <ele>520</ele>
        <time>2018-04-26T10:04:33.000Z</time>
      </trkpt>
      <trkpt lat="43.85618" lon="7.23117">
        <ele>520</ele>
        <time>2018-04-26T10:04:40.000Z</time>
      </trkpt>
      <trkpt lat="43.85618" lon="7.23119">
        <ele>520</ele>
        <time>2018-04-26T10:04:46.000Z</time>
      </trkpt>
      <trkpt lat="43.85617" lon="7.23118">
        <ele>520</ele>
        <time>2018-04-26T10:04:52.000Z</time>
      </trkpt>
      <trkpt lat="43.85618" lon="7.23116">
        <ele>520</ele>
        <time>2018-04-26T10:04:58.000Z</time>
      </trkpt>
      <trkpt lat="43.85618" lon="7.23115">
        <ele>520</ele>
        <time>2018-04-26T10:05:06.000Z</time>
      </trkpt>
      <trkpt lat="43.85619" lon="7.23115">
        <ele>520</ele>
        <time>2018-04-26T10:05:13.000Z</time>
      </trkpt>
      <trkpt lat="43.85617" lon="7.23115">
        <ele>520</ele>
        <time>2018-04-26T10:05:19.000Z</time>
      </trkpt>
      <trkpt lat="43.85618" lon="7.23114">
        <ele>520</ele>
        <time>2018-04-26T10:05:25.000Z</time>
      </trkpt>
      <trkpt lat="43.85619" lon="7.23112">
        <ele>520</ele>
        <time>2018-04-26T10:05:31.000Z</time>
      </trkpt>
      <trkpt lat="43.85619" lon="7.23112">
        <ele>520</ele>
        <time>2018-04-26T10:05:37.000Z</time>
      </trkpt>
      <trkpt lat="43.85617" lon="7.23111">
        <ele>520</ele>
        <time>2018-04-26T10:05:43.000Z</time>
      </trkpt>
      <trkpt lat="43.85618" lon="7.23108">
        <ele>519</ele>
        <time>2018-04-26T10:05:52.000Z</time>
      </trkpt>
      <trkpt lat="43.85617" lon="7.23109">
        <ele>519</ele>
        <time>2018-04-26T10:05:58.000Z</time>
      </trkpt>
      <trkpt lat="43.85616" lon="7.23108">
        <ele>519</ele>
        <time>2018-04-26T10:06:05.000Z</time>
      </trkpt>
      <trkpt lat="43.85616" lon="7.23105">
        <ele>519</ele>
        <time>2018-04-26T10:06:12.000Z</time>
      </trkpt>
      <trkpt lat="43.85617" lon="7.23105">
        <ele>519</ele>
        <time>2018-04-26T10:06:18.000Z</time>
      </trkpt>
      <trkpt lat="43.85618" lon="7.23107">
        <ele>519</ele>
        <time>2018-04-26T10:06:25.000Z</time>
      </trkpt>
      <trkpt lat="43.85617" lon="7.23105">
        <ele>519</ele>
        <time>2018-04-26T10:06:33.000Z</time>
      </trkpt>
      <trkpt lat="43.85616" lon="7.23107">
        <ele>519</ele>
        <time>2018-04-26T10:06:39.000Z</time>
      </trkpt>
      <trkpt lat="43.85616" lon="7.23106">
        <ele>519</ele>
        <time>2018-04-26T10:06:47.000Z</time>
      </trkpt>
      <trkpt lat="43.85616" lon="7.23107">
        <ele>519</ele>
        <time>2018-04-26T10:06:49.000Z</time>
      </trkpt>
      <trkpt lat="43.85616" lon="7.23108">
        <ele>519</ele>
        <time>2018-04-26T10:06:51.000Z</time>
      </trkpt>
      <trkpt lat="43.85616" lon="7.23108">
        <ele>519</ele>
        <time>2018-04-26T10:06:56.000Z</time>
      </trkpt>
      <trkpt lat="43.85617" lon="7.23109">
        <ele>519</ele>
        <time>2018-04-26T10:07:02.000Z</time>
      </trkpt>
      <trkpt lat="43.85618" lon="7.2311">
        <ele>520</ele>
        <time>2018-04-26T10:07:06.000Z</time>
      </trkpt>
      <trkpt lat="43.85619" lon="7.23111">
        <ele>520</ele>
        <time>2018-04-26T10:07:08.000Z</time>
      </trkpt>
      <trkpt lat="43.85618" lon="7.23111">
        <ele>520</ele>
        <time>2018-04-26T10:07:13.000Z</time>
      </trkpt>
      <trkpt lat="43.85616" lon="7.23111">
        <ele>520</ele>
        <time>2018-04-26T10:07:15.000Z</time>
      </trkpt>
      <trkpt lat="43.85613" lon="7.23112">
        <ele>519</ele>
        <time>2018-04-26T10:07:19.000Z</time>
      </trkpt>
      <trkpt lat="43.85616" lon="7.23112">
        <ele>520</ele>
        <time>2018-04-26T10:07:22.000Z</time>
      </trkpt>
      <trkpt lat="43.85616" lon="7.23111">
        <ele>520</ele>
        <time>2018-04-26T10:07:24.000Z</time>
      </trkpt>
      <trkpt lat="43.85617" lon="7.23111">
        <ele>520</ele>
        <time>2018-04-26T10:07:30.000Z</time>
      </trkpt>
      <trkpt lat="43.85621" lon="7.23109">
        <ele>520</ele>
        <time>2018-04-26T10:07:38.000Z</time>
      </trkpt>
      <trkpt lat="43.85621" lon="7.2311">
        <ele>520</ele>
        <time>2018-04-26T10:07:45.000Z</time>
      </trkpt>
      <trkpt lat="43.85622" lon="7.23109">
        <ele>520</ele>
        <time>2018-04-26T10:07:51.000Z</time>
      </trkpt>
      <trkpt lat="43.85624" lon="7.23107">
        <ele>520</ele>
        <time>2018-04-26T10:07:59.000Z</time>
      </trkpt>
      <trkpt lat="43.85623" lon="7.23108">
        <ele>520</ele>
        <time>2018-04-26T10:08:08.000Z</time>
      </trkpt>
      <trkpt lat="43.85624" lon="7.23106">
        <ele>520</ele>
        <time>2018-04-26T10:08:13.000Z</time>
      </trkpt>
      <trkpt lat="43.85622" lon="7.23106">
        <ele>520</ele>
        <time>2018-04-26T10:08:16.000Z</time>
      </trkpt>
      <trkpt lat="43.85619" lon="7.23106">
        <ele>519</ele>
        <time>2018-04-26T10:08:18.000Z</time>
      </trkpt>
      <trkpt lat="43.85619" lon="7.23109">
        <ele>520</ele>
        <time>2018-04-26T10:08:23.000Z</time>
      </trkpt>
      <trkpt lat="43.85619" lon="7.23111">
        <ele>520</ele>
        <time>2018-04-26T10:08:28.000Z</time>
      </trkpt>
      <trkpt lat="43.85619" lon="7.23112">
        <ele>520</ele>
        <time>2018-04-26T10:08:33.000Z</time>
      </trkpt>
      <trkpt lat="43.8562" lon="7.23111">
        <ele>520</ele>
        <time>2018-04-26T10:08:41.000Z</time>
      </trkpt>
      <trkpt lat="43.85619" lon="7.2311">
        <ele>520</ele>
        <time>2018-04-26T10:08:48.000Z</time>
      </trkpt>
      <trkpt lat="43.85616" lon="7.2311">
        <ele>519</ele>
        <time>2018-04-26T10:08:53.000Z</time>
      </trkpt>
      <trkpt lat="43.85617" lon="7.23111">
        <ele>520</ele>
        <time>2018-04-26T10:08:58.000Z</time>
      </trkpt>
      <trkpt lat="43.85618" lon="7.23115">
        <ele>520</ele>
        <time>2018-04-26T10:09:04.000Z</time>
      </trkpt>
      <trkpt lat="43.85619" lon="7.23117">
        <ele>520</ele>
        <time>2018-04-26T10:09:11.000Z</time>
      </trkpt>
      <trkpt lat="43.85619" lon="7.2312">
        <ele>520</ele>
        <time>2018-04-26T10:09:21.000Z</time>
      </trkpt>
      <trkpt lat="43.85619" lon="7.23122">
        <ele>520</ele>
        <time>2018-04-26T10:09:30.000Z</time>
      </trkpt>
      <trkpt lat="43.85619" lon="7.23123">
        <ele>521</ele>
        <time>2018-04-26T10:09:40.000Z</time>
      </trkpt>
      <trkpt lat="43.85621" lon="7.23123">
        <ele>521</ele>
        <time>2018-04-26T10:09:52.000Z</time>
      </trkpt>
      <trkpt lat="43.85622" lon="7.23124">
        <ele>521</ele>
        <time>2018-04-26T10:10:03.000Z</time>
      </trkpt>
      <trkpt lat="43.85623" lon="7.23124">
        <ele>521</ele>
        <time>2018-04-26T10:10:12.000Z</time>
      </trkpt>
      <trkpt lat="43.85624" lon="7.23125">
        <ele>521</ele>
        <time>2018-04-26T10:10:22.000Z</time>
      </trkpt>
      <trkpt lat="43.85624" lon="7.23126">
        <ele>521</ele>
        <time>2018-04-26T10:10:29.000Z</time>
      </trkpt>
      <trkpt lat="43.85624" lon="7.23127">
        <ele>521</ele>
        <time>2018-04-26T10:10:36.000Z</time>
      </trkpt>
      <trkpt lat="43.85623" lon="7.23126">
        <ele>521</ele>
        <time>2018-04-26T10:10:45.000Z</time>
      </trkpt>
      <trkpt lat="43.85622" lon="7.23127">
        <ele>521</ele>
        <time>2018-04-26T10:10:58.000Z</time>
      </trkpt>
      <trkpt lat="43.85622" lon="7.23126">
        <ele>521</ele>
        <time>2018-04-26T10:11:12.000Z</time>
      </trkpt>
      <trkpt lat="43.85623" lon="7.23125">
        <ele>521</ele>
        <time>2018-04-26T10:11:25.000Z</time>
      </trkpt>
      <trkpt lat="43.85623" lon="7.23124">
        <ele>521</ele>
        <time>2018-04-26T10:11:36.000Z</time>
      </trkpt>
      <trkpt lat="43.85623" lon="7.23124">
        <ele>521</ele>
        <time>2018-04-26T10:11:40.000Z</time>
      </trkpt>
      <trkpt lat="43.85624" lon="7.23124">
        <ele>521</ele>
        <time>2018-04-26T10:11:41.000Z</time>
      </trkpt>
      <trkpt lat="43.85626" lon="7.23124">
        <ele>521</ele>
        <time>2018-04-26T10:11:47.000Z</time>
      </trkpt>
      <trkpt lat="43.85625" lon="7.23124">
        <ele>521</ele>
        <time>2018-04-26T10:11:49.000Z</time>
      </trkpt>
      <trkpt lat="43.85624" lon="7.23124">
        <ele>521</ele>
        <time>2018-04-26T10:11:51.000Z</time>
      </trkpt>
      <trkpt lat="43.85625" lon="7.23123">
        <ele>521</ele>
        <time>2018-04-26T10:12:01.000Z</time>
      </trkpt>
      <trkpt lat="43.85625" lon="7.23123">
        <ele>521</ele>
        <time>2018-04-26T10:12:15.000Z</time>
      </trkpt>
      <trkpt lat="43.85625" lon="7.23124">
        <ele>521</ele>
        <time>2018-04-26T10:12:30.000Z</time>
      </trkpt>
      <trkpt lat="43.85624" lon="7.23126">
        <ele>521</ele>
        <time>2018-04-26T10:12:42.000Z</time>
      </trkpt>
      <trkpt lat="43.85625" lon="7.23127">
        <ele>521</ele>
        <time>2018-04-26T10:12:56.000Z</time>
      </trkpt>
      <trkpt lat="43.85625" lon="7.23127">
        <ele>521</ele>
        <time>2018-04-26T10:13:06.000Z</time>
      </trkpt>
      <trkpt lat="43.85622" lon="7.23129">
        <ele>521</ele>
        <time>2018-04-26T10:13:24.000Z</time>
      </trkpt>
      <trkpt lat="43.85622" lon="7.23129">
        <ele>521</ele>
        <time>2018-04-26T10:13:33.000Z</time>
      </trkpt>
      <trkpt lat="43.85621" lon="7.23129">
        <ele>521</ele>
        <time>2018-04-26T10:13:45.000Z</time>
      </trkpt>
      <trkpt lat="43.85621" lon="7.23128">
        <ele>521</ele>
        <time>2018-04-26T10:13:56.000Z</time>
      </trkpt>
      <trkpt lat="43.85621" lon="7.23128">
        <ele>521</ele>
        <time>2018-04-26T10:14:06.000Z</time>
      </trkpt>
      <trkpt lat="43.85621" lon="7.23128">
        <ele>521</ele>
        <time>2018-04-26T10:14:20.000Z</time>
      </trkpt>
      <trkpt lat="43.85621" lon="7.23129">
        <ele>521</ele>
        <time>2018-04-26T10:14:34.000Z</time>
      </trkpt>
      <trkpt lat="43.85621" lon="7.23129">
        <ele>521</ele>
        <time>2018-04-26T10:14:51.000Z</time>
      </trkpt>
      <trkpt lat="43.85621" lon="7.2313">
        <ele>521</ele>
        <time>2018-04-26T10:15:05.000Z</time>
      </trkpt>
      <trkpt lat="43.85622" lon="7.23132">
        <ele>521</ele>
        <time>2018-04-26T10:15:20.000Z</time>
      </trkpt>
      <trkpt lat="43.85622" lon="7.23132">
        <ele>521</ele>
        <time>2018-04-26T10:15:35.000Z</time>
      </trkpt>
      <trkpt lat="43.85622" lon="7.23132">
        <ele>521</ele>
        <time>2018-04-26T10:15:42.000Z</time>
      </trkpt>
      <trkpt lat="43.85622" lon="7.23134">
        <ele>522</ele>
        <time>2018-04-26T10:15:56.000Z</time>
      </trkpt>
      <trkpt lat="43.85622" lon="7.23133">
        <ele>521</ele>
        <time>2018-04-26T10:16:10.000Z</time>
      </trkpt>
      <trkpt lat="43.85624" lon="7.2313">
        <ele>521</ele>
        <time>2018-04-26T10:16:29.000Z</time>
      </trkpt>
      <trkpt lat="43.85625" lon="7.23131">
        <ele>521</ele>
        <time>2018-04-26T10:16:40.000Z</time>
      </trkpt>
      <trkpt lat="43.85625" lon="7.23131">
        <ele>521</ele>
        <time>2018-04-26T10:16:52.000Z</time>
      </trkpt>
      <trkpt lat="43.85625" lon="7.23131">
        <ele>521</ele>
        <time>2018-04-26T10:17:05.000Z</time>
      </trkpt>
      <trkpt lat="43.85624" lon="7.23132">
        <ele>521</ele>
        <time>2018-04-26T10:17:17.000Z</time>
      </trkpt>
      <trkpt lat="43.85624" lon="7.23133">
        <ele>521</ele>
        <time>2018-04-26T10:17:32.000Z</time>
      </trkpt>
      <trkpt lat="43.85624" lon="7.23132">
        <ele>521</ele>
        <time>2018-04-26T10:17:45.000Z</time>
      </trkpt>
      <trkpt lat="43.85623" lon="7.23133">
        <ele>522</ele>
        <time>2018-04-26T10:17:52.000Z</time>
      </trkpt>
      <trkpt lat="43.85623" lon="7.23134">
        <ele>522</ele>
        <time>2018-04-26T10:18:04.000Z</time>
      </trkpt>
      <trkpt lat="43.85624" lon="7.23136">
        <ele>522</ele>
        <time>2018-04-26T10:18:16.000Z</time>
      </trkpt>
      <trkpt lat="43.85624" lon="7.23135">
        <ele>522</ele>
        <time>2018-04-26T10:18:17.000Z</time>
      </trkpt>
      <trkpt lat="43.85625" lon="7.23135">
        <ele>522</ele>
        <time>2018-04-26T10:18:29.000Z</time>
      </trkpt>
      <trkpt lat="43.85626" lon="7.23132">
        <ele>522</ele>
        <time>2018-04-26T10:18:43.000Z</time>
      </trkpt>
      <trkpt lat="43.85627" lon="7.2313">
        <ele>521</ele>
        <time>2018-04-26T10:19:02.000Z</time>
      </trkpt>
      <trkpt lat="43.85628" lon="7.23128">
        <ele>521</ele>
        <time>2018-04-26T10:19:15.000Z</time>
      </trkpt>
      <trkpt lat="43.85629" lon="7.23126">
        <ele>521</ele>
        <time>2018-04-26T10:19:35.000Z</time>
      </trkpt>
      <trkpt lat="43.85629" lon="7.23126">
        <ele>521</ele>
        <time>2018-04-26T10:19:50.000Z</time>
      </trkpt>
      <trkpt lat="43.8563" lon="7.23126">
        <ele>521</ele>
        <time>2018-04-26T10:20:01.000Z</time>
      </trkpt>
      <trkpt lat="43.85629" lon="7.23128">
        <ele>521</ele>
        <time>2018-04-26T10:20:12.000Z</time>
      </trkpt>
      <trkpt lat="43.85629" lon="7.23127">
        <ele>521</ele>
        <time>2018-04-26T10:20:20.000Z</time>
      </trkpt>
      <trkpt lat="43.85629" lon="7.23125">
        <ele>521</ele>
        <time>2018-04-26T10:20:34.000Z</time>
      </trkpt>
      <trkpt lat="43.85629" lon="7.23122">
        <ele>521</ele>
        <time>2018-04-26T10:20:54.000Z</time>
      </trkpt>
      <trkpt lat="43.85631" lon="7.23121">
        <ele>521</ele>
        <time>2018-04-26T10:21:14.000Z</time>
      </trkpt>
      <trkpt lat="43.85632" lon="7.23121">
        <ele>521</ele>
        <time>2018-04-26T10:21:28.000Z</time>
      </trkpt>
      <trkpt lat="43.85632" lon="7.23122">
        <ele>521</ele>
        <time>2018-04-26T10:21:42.000Z</time>
      </trkpt>
      <trkpt lat="43.85632" lon="7.23124">
        <ele>521</ele>
        <time>2018-04-26T10:21:53.000Z</time>
      </trkpt>
      <trkpt lat="43.85631" lon="7.23125">
        <ele>521</ele>
        <time>2018-04-26T10:22:05.000Z</time>
      </trkpt>
      <trkpt lat="43.85629" lon="7.23125">
        <ele>521</ele>
        <time>2018-04-26T10:22:20.000Z</time>
      </trkpt>
      <trkpt lat="43.8563" lon="7.23127">
        <ele>521</ele>
        <time>2018-04-26T10:22:32.000Z</time>
      </trkpt>
      <trkpt lat="43.85629" lon="7.23127">
        <ele>521</ele>
        <time>2018-04-26T10:22:51.000Z</time>
      </trkpt>
      <trkpt lat="43.85628" lon="7.23127">
        <ele>521</ele>
        <time>2018-04-26T10:23:06.000Z</time>
      </trkpt>
      <trkpt lat="43.85627" lon="7.23126">
        <ele>521</ele>
        <time>2018-04-26T10:23:20.000Z</time>
      </trkpt>
      <trkpt lat="43.85626" lon="7.23127">
        <ele>521</ele>
        <time>2018-04-26T10:23:29.000Z</time>
      </trkpt>
      <trkpt lat="43.85625" lon="7.23126">
        <ele>521</ele>
        <time>2018-04-26T10:23:48.000Z</time>
      </trkpt>
      <trkpt lat="43.85625" lon="7.23125">
        <ele>521</ele>
        <time>2018-04-26T10:24:00.000Z</time>
      </trkpt>
      <trkpt lat="43.85626" lon="7.23128">
        <ele>521</ele>
        <time>2018-04-26T10:24:14.000Z</time>
      </trkpt>
      <trkpt lat="43.85627" lon="7.2313">
        <ele>521</ele>
        <time>2018-04-26T10:24:29.000Z</time>
      </trkpt>
      <trkpt lat="43.85629" lon="7.23133">
        <ele>522</ele>
        <time>2018-04-26T10:24:49.000Z</time>
      </trkpt>
      <trkpt lat="43.85631" lon="7.23134">
        <ele>522</ele>
        <time>2018-04-26T10:25:06.000Z</time>
      </trkpt>
      <trkpt lat="43.85631" lon="7.23133">
        <ele>522</ele>
        <time>2018-04-26T10:25:23.000Z</time>
      </trkpt>
      <trkpt lat="43.8563" lon="7.23132">
        <ele>522</ele>
        <time>2018-04-26T10:25:40.000Z</time>
      </trkpt>
      <trkpt lat="43.8563" lon="7.23132">
        <ele>522</ele>
        <time>2018-04-26T10:25:53.000Z</time>
      </trkpt>
      <trkpt lat="43.85629" lon="7.23132">
        <ele>522</ele>
        <time>2018-04-26T10:26:02.000Z</time>
      </trkpt>
      <trkpt lat="43.85629" lon="7.23132">
        <ele>522</ele>
        <time>2018-04-26T10:26:08.000Z</time>
      </trkpt>
      <trkpt lat="43.85628" lon="7.23132">
        <ele>522</ele>
        <time>2018-04-26T10:26:11.000Z</time>
      </trkpt>
      <trkpt lat="43.8563" lon="7.2313">
        <ele>522</ele>
        <time>2018-04-26T10:26:30.000Z</time>
      </trkpt>
      <trkpt lat="43.85632" lon="7.23128">
        <ele>522</ele>
        <time>2018-04-26T10:26:40.000Z</time>
      </trkpt>
      <trkpt lat="43.85632" lon="7.23128">
        <ele>522</ele>
        <time>2018-04-26T10:26:48.000Z</time>
      </trkpt>
      <trkpt lat="43.85632" lon="7.23127">
        <ele>521</ele>
        <time>2018-04-26T10:26:57.000Z</time>
      </trkpt>
      <trkpt lat="43.85632" lon="7.23126">
        <ele>521</ele>
        <time>2018-04-26T10:27:14.000Z</time>
      </trkpt>
      <trkpt lat="43.85632" lon="7.23127">
        <ele>521</ele>
        <time>2018-04-26T10:27:25.000Z</time>
      </trkpt>
      <trkpt lat="43.85631" lon="7.23127">
        <ele>521</ele>
        <time>2018-04-26T10:27:35.000Z</time>
      </trkpt>
      <trkpt lat="43.8563" lon="7.23127">
        <ele>521</ele>
        <time>2018-04-26T10:27:48.000Z</time>
      </trkpt>
      <trkpt lat="43.85629" lon="7.23127">
        <ele>521</ele>
        <time>2018-04-26T10:28:04.000Z</time>
      </trkpt>
      <trkpt lat="43.85628" lon="7.23129">
        <ele>521</ele>
        <time>2018-04-26T10:28:16.000Z</time>
      </trkpt>
      <trkpt lat="43.85627" lon="7.2313">
        <ele>521</ele>
        <time>2018-04-26T10:28:25.000Z</time>
      </trkpt>
      <trkpt lat="43.85627" lon="7.23131">
        <ele>522</ele>
        <time>2018-04-26T10:28:39.000Z</time>
      </trkpt>
      <trkpt lat="43.85626" lon="7.23131">
        <ele>521</ele>
        <time>2018-04-26T10:28:48.000Z</time>
      </trkpt>
      <trkpt lat="43.85626" lon="7.23131">
        <ele>521</ele>
        <time>2018-04-26T10:29:05.000Z</time>
      </trkpt>
      <trkpt lat="43.85625" lon="7.23131">
        <ele>521</ele>
        <time>2018-04-26T10:29:16.000Z</time>
      </trkpt>
      <trkpt lat="43.85624" lon="7.23131">
        <ele>521</ele>
        <time>2018-04-26T10:29:31.000Z</time>
      </trkpt>
      <trkpt lat="43.85624" lon="7.23132">
        <ele>521</ele>
        <time>2018-04-26T10:29:38.000Z</time>
      </trkpt>
      <trkpt lat="43.85624" lon="7.23132">
        <ele>521</ele>
        <time>2018-04-26T10:29:51.000Z</time>
      </trkpt>
      <trkpt lat="43.85624" lon="7.23132">
        <ele>521</ele>
        <time>2018-04-26T10:30:05.000Z</time>
      </trkpt>
      <trkpt lat="43.85624" lon="7.23131">
        <ele>521</ele>
        <time>2018-04-26T10:30:17.000Z</time>
      </trkpt>
      <trkpt lat="43.85624" lon="7.23131">
        <ele>521</ele>
        <time>2018-04-26T10:30:26.000Z</time>
      </trkpt>
      <trkpt lat="43.85626" lon="7.23131">
        <ele>521</ele>
        <time>2018-04-26T10:30:44.000Z</time>
      </trkpt>
      <trkpt lat="43.85625" lon="7.23132">
        <ele>522</ele>
        <time>2018-04-26T10:30:56.000Z</time>
      </trkpt>
      <trkpt lat="43.85624" lon="7.23133">
        <ele>522</ele>
        <time>2018-04-26T10:31:11.000Z</time>
      </trkpt>
      <trkpt lat="43.85623" lon="7.23133">
        <ele>521</ele>
        <time>2018-04-26T10:31:21.000Z</time>
      </trkpt>
      <trkpt lat="43.85624" lon="7.23132">
        <ele>521</ele>
        <time>2018-04-26T10:31:36.000Z</time>
      </trkpt>
      <trkpt lat="43.85624" lon="7.23132">
        <ele>521</ele>
        <time>2018-04-26T10:31:48.000Z</time>
      </trkpt>
      <trkpt lat="43.85623" lon="7.23133">
        <ele>521</ele>
        <time>2018-04-26T10:32:03.000Z</time>
      </trkpt>
      <trkpt lat="43.85622" lon="7.23133">
        <ele>521</ele>
        <time>2018-04-26T10:32:11.000Z</time>
      </trkpt>
      <trkpt lat="43.85623" lon="7.23132">
        <ele>521</ele>
        <time>2018-04-26T10:32:23.000Z</time>
      </trkpt>
      <trkpt lat="43.85623" lon="7.23132">
        <ele>521</ele>
        <time>2018-04-26T10:32:26.000Z</time>
      </trkpt>
      <trkpt lat="43.85623" lon="7.23133">
        <ele>521</ele>
        <time>2018-04-26T10:32:37.000Z</time>
      </trkpt>
      <trkpt lat="43.85623" lon="7.23132">
        <ele>521</ele>
        <time>2018-04-26T10:32:49.000Z</time>
      </trkpt>
      <trkpt lat="43.85624" lon="7.23133">
        <ele>521</ele>
        <time>2018-04-26T10:32:58.000Z</time>
      </trkpt>
      <trkpt lat="43.85625" lon="7.23133">
        <ele>522</ele>
        <time>2018-04-26T10:33:06.000Z</time>
      </trkpt>
      <trkpt lat="43.85625" lon="7.23132">
        <ele>521</ele>
        <time>2018-04-26T10:33:13.000Z</time>
      </trkpt>
      <trkpt lat="43.85624" lon="7.23132">
        <ele>521</ele>
        <time>2018-04-26T10:33:21.000Z</time>
      </trkpt>
      <trkpt lat="43.85624" lon="7.23132">
        <ele>521</ele>
        <time>2018-04-26T10:33:28.000Z</time>
      </trkpt>
      <trkpt lat="43.85624" lon="7.23132">
        <ele>521</ele>
        <time>2018-04-26T10:33:31.000Z</time>
      </trkpt>
      <trkpt lat="43.85624" lon="7.23131">
        <ele>521</ele>
        <time>2018-04-26T10:33:38.000Z</time>
      </trkpt>
      <trkpt lat="43.85625" lon="7.23131">
        <ele>521</ele>
        <time>2018-04-26T10:33:44.000Z</time>
      </trkpt>
      <trkpt lat="43.85625" lon="7.23131">
        <ele>521</ele>
        <time>2018-04-26T10:33:53.000Z</time>
      </trkpt>
      <trkpt lat="43.85624" lon="7.23131">
        <ele>521</ele>
        <time>2018-04-26T10:34:00.000Z</time>
      </trkpt>
      <trkpt lat="43.85622" lon="7.23131">
        <ele>521</ele>
        <time>2018-04-26T10:34:09.000Z</time>
      </trkpt>
      <trkpt lat="43.85623" lon="7.23131">
        <ele>521</ele>
        <time>2018-04-26T10:34:13.000Z</time>
      </trkpt>
      <trkpt lat="43.85623" lon="7.23133">
        <ele>521</ele>
        <time>2018-04-26T10:34:14.000Z</time>
      </trkpt>
      <trkpt lat="43.85625" lon="7.23133">
        <ele>522</ele>
        <time>2018-04-26T10:34:16.000Z</time>
      </trkpt>
      <trkpt lat="43.8563" lon="7.23134">
        <ele>522</ele>
        <time>2018-04-26T10:34:18.000Z</time>
      </trkpt>
      <trkpt lat="43.8564" lon="7.23132">
        <ele>522</ele>
        <time>2018-04-26T10:34:21.000Z</time>
      </trkpt>
      <trkpt lat="43.85647" lon="7.23131">
        <ele>523</ele>
        <time>2018-04-26T10:34:23.000Z</time>
      </trkpt>
      <trkpt lat="43.85667" lon="7.23122">
        <ele>522</ele>
        <time>2018-04-26T10:34:29.000Z</time>
      </trkpt>
      <trkpt lat="43.85684" lon="7.23105">
        <ele>526</ele>
        <time>2018-04-26T10:34:34.000Z</time>
      </trkpt>
      <trkpt lat="43.85688" lon="7.23101">
        <ele>526</ele>
        <time>2018-04-26T10:34:35.000Z</time>
      </trkpt>
      <trkpt lat="43.85696" lon="7.23092">
        <ele>526</ele>
        <time>2018-04-26T10:34:37.000Z</time>
      </trkpt>
      <trkpt lat="43.85711" lon="7.23075">
        <ele>519</ele>
        <time>2018-04-26T10:34:41.000Z</time>
      </trkpt>
      <trkpt lat="43.85716" lon="7.23071">
        <ele>519</ele>
        <time>2018-04-26T10:34:42.000Z</time>
      </trkpt>
      <trkpt lat="43.85742" lon="7.23051">
        <ele>518</ele>
        <time>2018-04-26T10:34:48.000Z</time>
      </trkpt>
      <trkpt lat="43.85748" lon="7.23049">
        <ele>518</ele>
        <time>2018-04-26T10:34:49.000Z</time>
      </trkpt>
      <trkpt lat="43.85763" lon="7.23042">
        <ele>519</ele>
        <time>2018-04-26T10:34:52.000Z</time>
      </trkpt>
      <trkpt lat="43.8578" lon="7.23039">
        <ele>519</ele>
        <time>2018-04-26T10:34:55.000Z</time>
      </trkpt>
      <trkpt lat="43.8579" lon="7.2304">
        <ele>519</ele>
        <time>2018-04-26T10:34:57.000Z</time>
      </trkpt>
      <trkpt lat="43.85807" lon="7.23043">
        <ele>520</ele>
        <time>2018-04-26T10:35:00.000Z</time>
      </trkpt>
      <trkpt lat="43.8584" lon="7.23043">
        <ele>520</ele>
        <time>2018-04-26T10:35:06.000Z</time>
      </trkpt>
      <trkpt lat="43.85852" lon="7.23043">
        <ele>520</ele>
        <time>2018-04-26T10:35:08.000Z</time>
      </trkpt>
      <trkpt lat="43.85869" lon="7.2304">
        <ele>520</ele>
        <time>2018-04-26T10:35:11.000Z</time>
      </trkpt>
      <trkpt lat="43.85888" lon="7.23035">
        <ele>519</ele>
        <time>2018-04-26T10:35:14.000Z</time>
      </trkpt>
      <trkpt lat="43.85898" lon="7.2303">
        <ele>519</ele>
        <time>2018-04-26T10:35:16.000Z</time>
      </trkpt>
      <trkpt lat="43.85912" lon="7.23022">
        <ele>519</ele>
        <time>2018-04-26T10:35:19.000Z</time>
      </trkpt>
      <trkpt lat="43.85919" lon="7.23013">
        <ele>520</ele>
        <time>2018-04-26T10:35:21.000Z</time>
      </trkpt>
      <trkpt lat="43.85927" lon="7.23004">
        <ele>519</ele>
        <time>2018-04-26T10:35:23.000Z</time>
      </trkpt>
      <trkpt lat="43.85945" lon="7.22983">
        <ele>519</ele>
        <time>2018-04-26T10:35:28.000Z</time>
      </trkpt>
      <trkpt lat="43.85966" lon="7.22959">
        <ele>520</ele>
        <time>2018-04-26T10:35:34.000Z</time>
      </trkpt>
      <trkpt lat="43.85971" lon="7.22951">
        <ele>520</ele>
        <time>2018-04-26T10:35:36.000Z</time>
      </trkpt>
      <trkpt lat="43.85986" lon="7.22931">
        <ele>521</ele>
        <time>2018-04-26T10:35:41.000Z</time>
      </trkpt>
      <trkpt lat="43.8599" lon="7.22927">
        <ele>522</ele>
        <time>2018-04-26T10:35:42.000Z</time>
      </trkpt>
      <trkpt lat="43.8601" lon="7.2291">
        <ele>522</ele>
        <time>2018-04-26T10:35:48.000Z</time>
      </trkpt>
      <trkpt lat="43.86019" lon="7.22911">
        <ele>522</ele>
        <time>2018-04-26T10:35:50.000Z</time>
      </trkpt>
      <trkpt lat="43.86035" lon="7.22911">
        <ele>522</ele>
        <time>2018-04-26T10:35:53.000Z</time>
      </trkpt>
      <trkpt lat="43.86052" lon="7.2291">
        <ele>522</ele>
        <time>2018-04-26T10:35:56.000Z</time>
      </trkpt>
      <trkpt lat="43.86078" lon="7.22911">
        <ele>522</ele>
        <time>2018-04-26T10:36:00.000Z</time>
      </trkpt>
      <trkpt lat="43.86092" lon="7.22911">
        <ele>520</ele>
        <time>2018-04-26T10:36:02.000Z</time>
      </trkpt>
      <trkpt lat="43.86106" lon="7.22912">
        <ele>519</ele>
        <time>2018-04-26T10:36:04.000Z</time>
      </trkpt>
      <trkpt lat="43.86128" lon="7.22913">
        <ele>517</ele>
        <time>2018-04-26T10:36:07.000Z</time>
      </trkpt>
      <trkpt lat="43.8615" lon="7.22915">
        <ele>516</ele>
        <time>2018-04-26T10:36:10.000Z</time>
      </trkpt>
      <trkpt lat="43.86172" lon="7.22915">
        <ele>516</ele>
        <time>2018-04-26T10:36:13.000Z</time>
      </trkpt>
      <trkpt lat="43.86185" lon="7.22914">
        <ele>517</ele>
        <time>2018-04-26T10:36:15.000Z</time>
      </trkpt>
      <trkpt lat="43.86198" lon="7.22911">
        <ele>518</ele>
        <time>2018-04-26T10:36:18.000Z</time>
      </trkpt>
      <trkpt lat="43.86208" lon="7.22908">
        <ele>519</ele>
        <time>2018-04-26T10:36:23.000Z</time>
      </trkpt>
      <trkpt lat="43.86219" lon="7.22903">
        <ele>520</ele>
        <time>2018-04-26T10:36:29.000Z</time>
      </trkpt>
      <trkpt lat="43.86225" lon="7.22901">
        <ele>520</ele>
        <time>2018-04-26T10:36:33.000Z</time>
      </trkpt>
      <trkpt lat="43.86227" lon="7.22899">
        <ele>520</ele>
        <time>2018-04-26T10:36:34.000Z</time>
      </trkpt>
      <trkpt lat="43.8623" lon="7.22897">
        <ele>521</ele>
        <time>2018-04-26T10:36:37.000Z</time>
      </trkpt>
      <trkpt lat="43.86232" lon="7.22896">
        <ele>521</ele>
        <time>2018-04-26T10:36:39.000Z</time>
      </trkpt>
      <trkpt lat="43.86234" lon="7.22894">
        <ele>521</ele>
        <time>2018-04-26T10:36:41.000Z</time>
      </trkpt>
      <trkpt lat="43.86238" lon="7.22891">
        <ele>521</ele>
        <time>2018-04-26T10:36:44.000Z</time>
      </trkpt>
      <trkpt lat="43.86242" lon="7.22886">
        <ele>520</ele>
        <time>2018-04-26T10:36:48.000Z</time>
      </trkpt>
      <trkpt lat="43.86249" lon="7.2288">
        <ele>520</ele>
        <time>2018-04-26T10:36:54.000Z</time>
      </trkpt>
      <trkpt lat="43.8625" lon="7.22878">
        <ele>520</ele>
        <time>2018-04-26T10:36:55.000Z</time>
      </trkpt>
      <trkpt lat="43.86257" lon="7.22875">
        <ele>530</ele>
        <time>2018-04-26T10:37:01.000Z</time>
      </trkpt>
      <trkpt lat="43.86261" lon="7.22873">
        <ele>530</ele>
        <time>2018-04-26T10:37:05.000Z</time>
      </trkpt>
      <trkpt lat="43.86267" lon="7.2287">
        <ele>531</ele>
        <time>2018-04-26T10:37:10.000Z</time>
      </trkpt>
      <trkpt lat="43.86269" lon="7.22869">
        <ele>531</ele>
        <time>2018-04-26T10:37:12.000Z</time>
      </trkpt>
      <trkpt lat="43.86277" lon="7.22866">
        <ele>531</ele>
        <time>2018-04-26T10:37:19.000Z</time>
      </trkpt>
      <trkpt lat="43.86286" lon="7.22862">
        <ele>532</ele>
        <time>2018-04-26T10:37:26.000Z</time>
      </trkpt>
      <trkpt lat="43.86287" lon="7.22861">
        <ele>532</ele>
        <time>2018-04-26T10:37:27.000Z</time>
      </trkpt>
      <trkpt lat="43.86295" lon="7.22854">
        <ele>533</ele>
        <time>2018-04-26T10:37:35.000Z</time>
      </trkpt>
      <trkpt lat="43.86299" lon="7.2285">
        <ele>533</ele>
        <time>2018-04-26T10:37:39.000Z</time>
      </trkpt>
      <trkpt lat="43.86301" lon="7.22849">
        <ele>534</ele>
        <time>2018-04-26T10:37:41.000Z</time>
      </trkpt>
      <trkpt lat="43.86303" lon="7.22849">
        <ele>534</ele>
        <time>2018-04-26T10:37:44.000Z</time>
      </trkpt>
      <trkpt lat="43.86304" lon="7.22849">
        <ele>534</ele>
        <time>2018-04-26T10:37:47.000Z</time>
      </trkpt>
      <trkpt lat="43.86307" lon="7.22849">
        <ele>534</ele>
        <time>2018-04-26T10:37:53.000Z</time>
      </trkpt>
      <trkpt lat="43.86309" lon="7.2285">
        <ele>535</ele>
        <time>2018-04-26T10:37:58.000Z</time>
      </trkpt>
      <trkpt lat="43.86309" lon="7.22849">
        <ele>535</ele>
        <time>2018-04-26T10:37:59.000Z</time>
      </trkpt>
      <trkpt lat="43.86311" lon="7.22851">
        <ele>535</ele>
        <time>2018-04-26T10:38:03.000Z</time>
      </trkpt>
      <trkpt lat="43.86313" lon="7.2285">
        <ele>535</ele>
        <time>2018-04-26T10:38:09.000Z</time>
      </trkpt>
      <trkpt lat="43.86314" lon="7.22849">
        <ele>535</ele>
        <time>2018-04-26T10:38:10.000Z</time>
      </trkpt>
      <trkpt lat="43.86315" lon="7.22847">
        <ele>535</ele>
        <time>2018-04-26T10:38:14.000Z</time>
      </trkpt>
      <trkpt lat="43.86316" lon="7.22846">
        <ele>535</ele>
        <time>2018-04-26T10:38:17.000Z</time>
      </trkpt>
      <trkpt lat="43.86316" lon="7.22845">
        <ele>535</ele>
        <time>2018-04-26T10:38:18.000Z</time>
      </trkpt>
      <trkpt lat="43.86319" lon="7.22843">
        <ele>535</ele>
        <time>2018-04-26T10:38:24.000Z</time>
      </trkpt>
      <trkpt lat="43.8632" lon="7.22843">
        <ele>535</ele>
        <time>2018-04-26T10:38:25.000Z</time>
      </trkpt>
      <trkpt lat="43.86321" lon="7.22842">
        <ele>535</ele>
        <time>2018-04-26T10:38:26.000Z</time>
      </trkpt>
      <trkpt lat="43.86325" lon="7.22838">
        <ele>536</ele>
        <time>2018-04-26T10:38:31.000Z</time>
      </trkpt>
      <trkpt lat="43.86326" lon="7.22837">
        <ele>536</ele>
        <time>2018-04-26T10:38:37.000Z</time>
      </trkpt>
      <trkpt lat="43.86333" lon="7.22835">
        <ele>536</ele>
        <time>2018-04-26T10:38:41.000Z</time>
      </trkpt>
      <trkpt lat="43.86335" lon="7.22835">
        <ele>538</ele>
        <time>2018-04-26T10:38:42.000Z</time>
      </trkpt>
      <trkpt lat="43.8634" lon="7.22833">
        <ele>535</ele>
        <time>2018-04-26T10:38:46.000Z</time>
      </trkpt>
      <trkpt lat="43.8634" lon="7.22832">
        <ele>535</ele>
        <time>2018-04-26T10:38:47.000Z</time>
      </trkpt>
      <trkpt lat="43.86344" lon="7.22829">
        <ele>535</ele>
        <time>2018-04-26T10:38:50.000Z</time>
      </trkpt>
      <trkpt lat="43.86346" lon="7.22829">
        <ele>535</ele>
        <time>2018-04-26T10:38:52.000Z</time>
      </trkpt>
      <trkpt lat="43.86345" lon="7.22828">
        <ele>535</ele>
        <time>2018-04-26T10:38:56.000Z</time>
      </trkpt>
      <trkpt lat="43.86346" lon="7.22825">
        <ele>534</ele>
        <time>2018-04-26T10:39:02.000Z</time>
      </trkpt>
      <trkpt lat="43.86347" lon="7.22818">
        <ele>534</ele>
        <time>2018-04-26T10:39:08.000Z</time>
      </trkpt>
      <trkpt lat="43.86349" lon="7.22814">
        <ele>533</ele>
        <time>2018-04-26T10:39:10.000Z</time>
      </trkpt>
      <trkpt lat="43.86353" lon="7.22808">
        <ele>533</ele>
        <time>2018-04-26T10:39:12.000Z</time>
      </trkpt>
      <trkpt lat="43.86355" lon="7.22808">
        <ele>533</ele>
        <time>2018-04-26T10:39:13.000Z</time>
      </trkpt>
      <trkpt lat="43.86355" lon="7.22808">
        <ele>533</ele>
        <time>2018-04-26T10:39:15.000Z</time>
      </trkpt>
      <trkpt lat="43.86356" lon="7.22807">
        <ele>533</ele>
        <time>2018-04-26T10:39:16.000Z</time>
      </trkpt>
      <trkpt lat="43.86356" lon="7.22807">
        <ele>533</ele>
        <time>2018-04-26T10:39:17.000Z</time>
      </trkpt>
      <trkpt lat="43.8636" lon="7.22806">
        <ele>533</ele>
        <time>2018-04-26T10:39:20.000Z</time>
      </trkpt>
      <trkpt lat="43.86372" lon="7.22802">
        <ele>533</ele>
        <time>2018-04-26T10:39:27.000Z</time>
      </trkpt>
      <trkpt lat="43.86378" lon="7.228">
        <ele>534</ele>
        <time>2018-04-26T10:39:31.000Z</time>
      </trkpt>
      <trkpt lat="43.86381" lon="7.22799">
        <ele>534</ele>
        <time>2018-04-26T10:39:32.000Z</time>
      </trkpt>
      <trkpt lat="43.86397" lon="7.22797">
        <ele>535</ele>
        <time>2018-04-26T10:39:40.000Z</time>
      </trkpt>
      <trkpt lat="43.86406" lon="7.22795">
        <ele>535</ele>
        <time>2018-04-26T10:39:45.000Z</time>
      </trkpt>
      <trkpt lat="43.86407" lon="7.22794">
        <ele>535</ele>
        <time>2018-04-26T10:39:46.000Z</time>
      </trkpt>
      <trkpt lat="43.86418" lon="7.22792">
        <ele>541</ele>
        <time>2018-04-26T10:39:51.000Z</time>
      </trkpt>
      <trkpt lat="43.8644" lon="7.22787">
        <ele>540</ele>
        <time>2018-04-26T10:39:59.000Z</time>
      </trkpt>
      <trkpt lat="43.86457" lon="7.22783">
        <ele>540</ele>
        <time>2018-04-26T10:40:05.000Z</time>
      </trkpt>
      <trkpt lat="43.86464" lon="7.2278">
        <ele>539</ele>
        <time>2018-04-26T10:40:07.000Z</time>
      </trkpt>
      <trkpt lat="43.86479" lon="7.22777">
        <ele>539</ele>
        <time>2018-04-26T10:40:11.000Z</time>
      </trkpt>
      <trkpt lat="43.86495" lon="7.22774">
        <ele>537</ele>
        <time>2018-04-26T10:40:15.000Z</time>
      </trkpt>
      <trkpt lat="43.86508" lon="7.22773">
        <ele>535</ele>
        <time>2018-04-26T10:40:18.000Z</time>
      </trkpt>
      <trkpt lat="43.86536" lon="7.22771">
        <ele>534</ele>
        <time>2018-04-26T10:40:25.000Z</time>
      </trkpt>
      <trkpt lat="43.86562" lon="7.22772">
        <ele>533</ele>
        <time>2018-04-26T10:40:32.000Z</time>
      </trkpt>
      <trkpt lat="43.86566" lon="7.22777">
        <ele>533</ele>
        <time>2018-04-26T10:40:33.000Z</time>
      </trkpt>
      <trkpt lat="43.86572" lon="7.22795">
        <ele>533</ele>
        <time>2018-04-26T10:40:36.000Z</time>
      </trkpt>
      <trkpt lat="43.86571" lon="7.22803">
        <ele>534</ele>
        <time>2018-04-26T10:40:37.000Z</time>
      </trkpt>
      <trkpt lat="43.86569" lon="7.22821">
        <ele>533</ele>
        <time>2018-04-26T10:40:39.000Z</time>
      </trkpt>
      <trkpt lat="43.86568" lon="7.22832">
        <ele>533</ele>
        <time>2018-04-26T10:40:40.000Z</time>
      </trkpt>
      <trkpt lat="43.86567" lon="7.22852">
        <ele>538</ele>
        <time>2018-04-26T10:40:42.000Z</time>
      </trkpt>
      <trkpt lat="43.86567" lon="7.22863">
        <ele>539</ele>
        <time>2018-04-26T10:40:43.000Z</time>
      </trkpt>
      <trkpt lat="43.86568" lon="7.22873">
        <ele>540</ele>
        <time>2018-04-26T10:40:44.000Z</time>
      </trkpt>
      <trkpt lat="43.86567" lon="7.22886">
        <ele>540</ele>
        <time>2018-04-26T10:40:45.000Z</time>
      </trkpt>
      <trkpt lat="43.86568" lon="7.22896">
        <ele>539</ele>
        <time>2018-04-26T10:40:46.000Z</time>
      </trkpt>
      <trkpt lat="43.86567" lon="7.22905">
        <ele>538</ele>
        <time>2018-04-26T10:40:47.000Z</time>
      </trkpt>
      <trkpt lat="43.86566" lon="7.22914">
        <ele>538</ele>
        <time>2018-04-26T10:40:48.000Z</time>
      </trkpt>
      <trkpt lat="43.86566" lon="7.2292">
        <ele>541</ele>
        <time>2018-04-26T10:40:49.000Z</time>
      </trkpt>
      <trkpt lat="43.86569" lon="7.22924">
        <ele>540</ele>
        <time>2018-04-26T10:40:50.000Z</time>
      </trkpt>
      <trkpt lat="43.86578" lon="7.22924">
        <ele>538</ele>
        <time>2018-04-26T10:40:52.000Z</time>
      </trkpt>
      <trkpt lat="43.86581" lon="7.22922">
        <ele>536</ele>
        <time>2018-04-26T10:40:53.000Z</time>
      </trkpt>
      <trkpt lat="43.86593" lon="7.22926">
        <ele>537</ele>
        <time>2018-04-26T10:40:56.000Z</time>
      </trkpt>
      <trkpt lat="43.86596" lon="7.22927">
        <ele>538</ele>
        <time>2018-04-26T10:40:57.000Z</time>
      </trkpt>
      <trkpt lat="43.86598" lon="7.22926">
        <ele>538</ele>
        <time>2018-04-26T10:41:00.000Z</time>
      </trkpt>
      <trkpt lat="43.866" lon="7.22924">
        <ele>538</ele>
        <time>2018-04-26T10:41:08.000Z</time>
      </trkpt>
      <trkpt lat="43.866" lon="7.22921">
        <ele>538</ele>
        <time>2018-04-26T10:41:24.000Z</time>
      </trkpt>
      <trkpt lat="43.86599" lon="7.22919">
        <ele>537</ele>
        <time>2018-04-26T10:41:37.000Z</time>
      </trkpt>
      <trkpt lat="43.86598" lon="7.22919">
        <ele>537</ele>
        <time>2018-04-26T10:41:48.000Z</time>
      </trkpt>
      <trkpt lat="43.86597" lon="7.22916">
        <ele>530</ele>
        <time>2018-04-26T10:42:10.000Z</time>
      </trkpt>
      <trkpt lat="43.86598" lon="7.22914">
        <ele>530</ele>
        <time>2018-04-26T10:42:30.000Z</time>
      </trkpt>
      <trkpt lat="43.86599" lon="7.22915">
        <ele>530</ele>
        <time>2018-04-26T10:42:46.000Z</time>
      </trkpt>
      <trkpt lat="43.86603" lon="7.22899">
        <ele>529</ele>
        <time>2018-04-26T10:42:52.000Z</time>
      </trkpt>
      <trkpt lat="43.86605" lon="7.22895">
        <ele>529</ele>
        <time>2018-04-26T10:42:56.000Z</time>
      </trkpt>
      <trkpt lat="43.86606" lon="7.22895">
        <ele>529</ele>
        <time>2018-04-26T10:43:08.000Z</time>
      </trkpt>
      <trkpt lat="43.86607" lon="7.22892">
        <ele>528</ele>
        <time>2018-04-26T10:43:18.000Z</time>
      </trkpt>
      <trkpt lat="43.8661" lon="7.22885">
        <ele>528</ele>
        <time>2018-04-26T10:43:22.000Z</time>
      </trkpt>
      <trkpt lat="43.86612" lon="7.22886">
        <ele>528</ele>
        <time>2018-04-26T10:43:23.000Z</time>
      </trkpt>
      <trkpt lat="43.86611" lon="7.22889">
        <ele>528</ele>
        <time>2018-04-26T10:43:27.000Z</time>
      </trkpt>
      <trkpt lat="43.86613" lon="7.22891">
        <ele>528</ele>
        <time>2018-04-26T10:43:32.000Z</time>
      </trkpt>
      <trkpt lat="43.86614" lon="7.2289">
        <ele>528</ele>
        <time>2018-04-26T10:43:34.000Z</time>
      </trkpt>
      <trkpt lat="43.86616" lon="7.22888">
        <ele>528</ele>
        <time>2018-04-26T10:43:38.000Z</time>
      </trkpt>
      <trkpt lat="43.86618" lon="7.22887">
        <ele>528</ele>
        <time>2018-04-26T10:43:41.000Z</time>
      </trkpt>
      <trkpt lat="43.8662" lon="7.22885">
        <ele>527</ele>
        <time>2018-04-26T10:43:43.000Z</time>
      </trkpt>
      <trkpt lat="43.86624" lon="7.22883">
        <ele>527</ele>
        <time>2018-04-26T10:43:49.000Z</time>
      </trkpt>
      <trkpt lat="43.86627" lon="7.22882">
        <ele>527</ele>
        <time>2018-04-26T10:43:54.000Z</time>
      </trkpt>
      <trkpt lat="43.86628" lon="7.22882">
        <ele>527</ele>
        <time>2018-04-26T10:43:55.000Z</time>
      </trkpt>
      <trkpt lat="43.86632" lon="7.22882">
        <ele>527</ele>
        <time>2018-04-26T10:44:01.000Z</time>
      </trkpt>
      <trkpt lat="43.86633" lon="7.22882">
        <ele>527</ele>
        <time>2018-04-26T10:44:02.000Z</time>
      </trkpt>
      <trkpt lat="43.86633" lon="7.22883">
        <ele>527</ele>
        <time>2018-04-26T10:44:09.000Z</time>
      </trkpt>
      <trkpt lat="43.86633" lon="7.22883">
        <ele>527</ele>
        <time>2018-04-26T10:44:16.000Z</time>
      </trkpt>
      <trkpt lat="43.86634" lon="7.22883">
        <ele>527</ele>
        <time>2018-04-26T10:44:20.000Z</time>
      </trkpt>
      <trkpt lat="43.86635" lon="7.22883">
        <ele>527</ele>
        <time>2018-04-26T10:44:22.000Z</time>
      </trkpt>
      <trkpt lat="43.86636" lon="7.22883">
        <ele>527</ele>
        <time>2018-04-26T10:44:27.000Z</time>
      </trkpt>
      <trkpt lat="43.86637" lon="7.22883">
        <ele>527</ele>
        <time>2018-04-26T10:44:37.000Z</time>
      </trkpt>
      <trkpt lat="43.86637" lon="7.22883">
        <ele>527</ele>
        <time>2018-04-26T10:44:45.000Z</time>
      </trkpt>
      <trkpt lat="43.86638" lon="7.22884">
        <ele>527</ele>
        <time>2018-04-26T10:44:54.000Z</time>
      </trkpt>
      <trkpt lat="43.86637" lon="7.22882">
        <ele>527</ele>
        <time>2018-04-26T10:45:01.000Z</time>
      </trkpt>
      <trkpt lat="43.86637" lon="7.22878">
        <ele>526</ele>
        <time>2018-04-26T10:45:10.000Z</time>
      </trkpt>
      <trkpt lat="43.86644" lon="7.22877">
        <ele>526</ele>
        <time>2018-04-26T10:45:15.000Z</time>
      </trkpt>
      <trkpt lat="43.86647" lon="7.22877">
        <ele>526</ele>
        <time>2018-04-26T10:45:18.000Z</time>
      </trkpt>
      <trkpt lat="43.86651" lon="7.22878">
        <ele>526</ele>
        <time>2018-04-26T10:45:20.000Z</time>
      </trkpt>
      <trkpt lat="43.86658" lon="7.22882">
        <ele>526</ele>
        <time>2018-04-26T10:45:24.000Z</time>
      </trkpt>
      <trkpt lat="43.86659" lon="7.22882">
        <ele>526</ele>
        <time>2018-04-26T10:45:25.000Z</time>
      </trkpt>
      <trkpt lat="43.86663" lon="7.22885">
        <ele>527</ele>
        <time>2018-04-26T10:45:27.000Z</time>
      </trkpt>
      <trkpt lat="43.86666" lon="7.22887">
        <ele>527</ele>
        <time>2018-04-26T10:45:30.000Z</time>
      </trkpt>
      <trkpt lat="43.86667" lon="7.22888">
        <ele>525</ele>
        <time>2018-04-26T10:45:31.000Z</time>
      </trkpt>
      <trkpt lat="43.86671" lon="7.22891">
        <ele>526</ele>
        <time>2018-04-26T10:45:34.000Z</time>
      </trkpt>
      <trkpt lat="43.86673" lon="7.22894">
        <ele>527</ele>
        <time>2018-04-26T10:45:36.000Z</time>
      </trkpt>
      <trkpt lat="43.86673" lon="7.22896">
        <ele>527</ele>
        <time>2018-04-26T10:45:37.000Z</time>
      </trkpt>
      <trkpt lat="43.86675" lon="7.229">
        <ele>528</ele>
        <time>2018-04-26T10:45:40.000Z</time>
      </trkpt>
      <trkpt lat="43.86677" lon="7.22907">
        <ele>529</ele>
        <time>2018-04-26T10:45:44.000Z</time>
      </trkpt>
      <trkpt lat="43.86678" lon="7.22908">
        <ele>529</ele>
        <time>2018-04-26T10:45:45.000Z</time>
      </trkpt>
      <trkpt lat="43.86679" lon="7.2291">
        <ele>529</ele>
        <time>2018-04-26T10:45:46.000Z</time>
      </trkpt>
      <trkpt lat="43.86682" lon="7.22918">
        <ele>542</ele>
        <time>2018-04-26T10:45:50.000Z</time>
      </trkpt>
      <trkpt lat="43.86684" lon="7.22921">
        <ele>543</ele>
        <time>2018-04-26T10:45:52.000Z</time>
      </trkpt>
      <trkpt lat="43.86689" lon="7.22929">
        <ele>546</ele>
        <time>2018-04-26T10:45:56.000Z</time>
      </trkpt>
      <trkpt lat="43.867" lon="7.22939">
        <ele>550</ele>
        <time>2018-04-26T10:46:00.000Z</time>
      </trkpt>
      <trkpt lat="43.86703" lon="7.22937">
        <ele>550</ele>
        <time>2018-04-26T10:46:02.000Z</time>
      </trkpt>
      <trkpt lat="43.86704" lon="7.22937">
        <ele>550</ele>
        <time>2018-04-26T10:46:03.000Z</time>
      </trkpt>
      <trkpt lat="43.8671" lon="7.22928">
        <ele>549</ele>
        <time>2018-04-26T10:46:08.000Z</time>
      </trkpt>
      <trkpt lat="43.86712" lon="7.22924">
        <ele>548</ele>
        <time>2018-04-26T10:46:11.000Z</time>
      </trkpt>
      <trkpt lat="43.86715" lon="7.2292">
        <ele>548</ele>
        <time>2018-04-26T10:46:14.000Z</time>
      </trkpt>
      <trkpt lat="43.86722" lon="7.22913">
        <ele>530</ele>
        <time>2018-04-26T10:46:20.000Z</time>
      </trkpt>
      <trkpt lat="43.86723" lon="7.22913">
        <ele>530</ele>
        <time>2018-04-26T10:46:21.000Z</time>
      </trkpt>
      <trkpt lat="43.86727" lon="7.22911">
        <ele>531</ele>
        <time>2018-04-26T10:46:25.000Z</time>
      </trkpt>
      <trkpt lat="43.8673" lon="7.2291">
        <ele>531</ele>
        <time>2018-04-26T10:46:27.000Z</time>
      </trkpt>
      <trkpt lat="43.86736" lon="7.22909">
        <ele>533</ele>
        <time>2018-04-26T10:46:31.000Z</time>
      </trkpt>
      <trkpt lat="43.86737" lon="7.2291">
        <ele>533</ele>
        <time>2018-04-26T10:46:32.000Z</time>
      </trkpt>
      <trkpt lat="43.8674" lon="7.22913">
        <ele>535</ele>
        <time>2018-04-26T10:46:36.000Z</time>
      </trkpt>
      <trkpt lat="43.86741" lon="7.22915">
        <ele>535</ele>
        <time>2018-04-26T10:46:37.000Z</time>
      </trkpt>
      <trkpt lat="43.86743" lon="7.22917">
        <ele>544</ele>
        <time>2018-04-26T10:46:39.000Z</time>
      </trkpt>
      <trkpt lat="43.86745" lon="7.22917">
        <ele>543</ele>
        <time>2018-04-26T10:46:42.000Z</time>
      </trkpt>
      <trkpt lat="43.86747" lon="7.22917">
        <ele>542</ele>
        <time>2018-04-26T10:46:45.000Z</time>
      </trkpt>
      <trkpt lat="43.86749" lon="7.22918">
        <ele>542</ele>
        <time>2018-04-26T10:46:46.000Z</time>
      </trkpt>
      <trkpt lat="43.8675" lon="7.22918">
        <ele>542</ele>
        <time>2018-04-26T10:46:52.000Z</time>
      </trkpt>
      <trkpt lat="43.86749" lon="7.22919">
        <ele>542</ele>
        <time>2018-04-26T10:47:02.000Z</time>
      </trkpt>
      <trkpt lat="43.86749" lon="7.22918">
        <ele>542</ele>
        <time>2018-04-26T10:47:14.000Z</time>
      </trkpt>
      <trkpt lat="43.8675" lon="7.22916">
        <ele>540</ele>
        <time>2018-04-26T10:47:25.000Z</time>
      </trkpt>
      <trkpt lat="43.8675" lon="7.22915">
        <ele>540</ele>
        <time>2018-04-26T10:47:27.000Z</time>
      </trkpt>
      <trkpt lat="43.86753" lon="7.22916">
        <ele>539</ele>
        <time>2018-04-26T10:47:35.000Z</time>
      </trkpt>
      <trkpt lat="43.86757" lon="7.22915">
        <ele>538</ele>
        <time>2018-04-26T10:47:39.000Z</time>
      </trkpt>
      <trkpt lat="43.8676" lon="7.22916">
        <ele>537</ele>
        <time>2018-04-26T10:47:41.000Z</time>
      </trkpt>
      <trkpt lat="43.86762" lon="7.22916">
        <ele>537</ele>
        <time>2018-04-26T10:47:42.000Z</time>
      </trkpt>
      <trkpt lat="43.86766" lon="7.22918">
        <ele>551</ele>
        <time>2018-04-26T10:47:45.000Z</time>
      </trkpt>
      <trkpt lat="43.86775" lon="7.22913">
        <ele>534</ele>
        <time>2018-04-26T10:47:50.000Z</time>
      </trkpt>
      <trkpt lat="43.86783" lon="7.22916">
        <ele>535</ele>
        <time>2018-04-26T10:47:54.000Z</time>
      </trkpt>
      <trkpt lat="43.86785" lon="7.22918">
        <ele>557</ele>
        <time>2018-04-26T10:47:55.000Z</time>
      </trkpt>
      <trkpt lat="43.86789" lon="7.22921">
        <ele>558</ele>
        <time>2018-04-26T10:47:59.000Z</time>
      </trkpt>
      <trkpt lat="43.8679" lon="7.22922">
        <ele>558</ele>
        <time>2018-04-26T10:48:00.000Z</time>
      </trkpt>
      <trkpt lat="43.86795" lon="7.22924">
        <ele>558</ele>
        <time>2018-04-26T10:48:03.000Z</time>
      </trkpt>
      <trkpt lat="43.86796" lon="7.22925">
        <ele>559</ele>
        <time>2018-04-26T10:48:04.000Z</time>
      </trkpt>
      <trkpt lat="43.86799" lon="7.22926">
        <ele>559</ele>
        <time>2018-04-26T10:48:07.000Z</time>
      </trkpt>
      <trkpt lat="43.868" lon="7.22927">
        <ele>559</ele>
        <time>2018-04-26T10:48:08.000Z</time>
      </trkpt>
      <trkpt lat="43.868" lon="7.22927">
        <ele>559</ele>
        <time>2018-04-26T10:48:11.000Z</time>
      </trkpt>
      <trkpt lat="43.86802" lon="7.22928">
        <ele>559</ele>
        <time>2018-04-26T10:48:15.000Z</time>
      </trkpt>
      <trkpt lat="43.86802" lon="7.22928">
        <ele>559</ele>
        <time>2018-04-26T10:48:16.000Z</time>
      </trkpt>
      <trkpt lat="43.86803" lon="7.22927">
        <ele>559</ele>
        <time>2018-04-26T10:48:22.000Z</time>
      </trkpt>
      <trkpt lat="43.86809" lon="7.22927">
        <ele>559</ele>
        <time>2018-04-26T10:48:30.000Z</time>
      </trkpt>
      <trkpt lat="43.8681" lon="7.22928">
        <ele>559</ele>
        <time>2018-04-26T10:48:31.000Z</time>
      </trkpt>
      <trkpt lat="43.86813" lon="7.22931">
        <ele>559</ele>
        <time>2018-04-26T10:48:36.000Z</time>
      </trkpt>
      <trkpt lat="43.86814" lon="7.22931">
        <ele>559</ele>
        <time>2018-04-26T10:48:37.000Z</time>
      </trkpt>
      <trkpt lat="43.86817" lon="7.22931">
        <ele>559</ele>
        <time>2018-04-26T10:48:40.000Z</time>
      </trkpt>
      <trkpt lat="43.86818" lon="7.22931">
        <ele>559</ele>
        <time>2018-04-26T10:48:41.000Z</time>
      </trkpt>
      <trkpt lat="43.86822" lon="7.22931">
        <ele>559</ele>
        <time>2018-04-26T10:48:46.000Z</time>
      </trkpt>
      <trkpt lat="43.86823" lon="7.2293">
        <ele>558</ele>
        <time>2018-04-26T10:48:48.000Z</time>
      </trkpt>
      <trkpt lat="43.86825" lon="7.22929">
        <ele>558</ele>
        <time>2018-04-26T10:48:53.000Z</time>
      </trkpt>
      <trkpt lat="43.86829" lon="7.22927">
        <ele>557</ele>
        <time>2018-04-26T10:48:59.000Z</time>
      </trkpt>
      <trkpt lat="43.86831" lon="7.22926">
        <ele>557</ele>
        <time>2018-04-26T10:49:00.000Z</time>
      </trkpt>
      <trkpt lat="43.86842" lon="7.22918">
        <ele>559</ele>
        <time>2018-04-26T10:49:07.000Z</time>
      </trkpt>
      <trkpt lat="43.86847" lon="7.22916">
        <ele>547</ele>
        <time>2018-04-26T10:49:09.000Z</time>
      </trkpt>
      <trkpt lat="43.86853" lon="7.22917">
        <ele>563</ele>
        <time>2018-04-26T10:49:12.000Z</time>
      </trkpt>
      <trkpt lat="43.86857" lon="7.22916">
        <ele>546</ele>
        <time>2018-04-26T10:49:15.000Z</time>
      </trkpt>
      <trkpt lat="43.8686" lon="7.22915">
        <ele>545</ele>
        <time>2018-04-26T10:49:18.000Z</time>
      </trkpt>
      <trkpt lat="43.86863" lon="7.22915">
        <ele>545</ele>
        <time>2018-04-26T10:49:21.000Z</time>
      </trkpt>
      <trkpt lat="43.86866" lon="7.22915">
        <ele>545</ele>
        <time>2018-04-26T10:49:24.000Z</time>
      </trkpt>
      <trkpt lat="43.8687" lon="7.22917">
        <ele>566</ele>
        <time>2018-04-26T10:49:30.000Z</time>
      </trkpt>
      <trkpt lat="43.86872" lon="7.22918">
        <ele>566</ele>
        <time>2018-04-26T10:49:32.000Z</time>
      </trkpt>
      <trkpt lat="43.86878" lon="7.2292">
        <ele>567</ele>
        <time>2018-04-26T10:49:38.000Z</time>
      </trkpt>
      <trkpt lat="43.86883" lon="7.22923">
        <ele>567</ele>
        <time>2018-04-26T10:49:43.000Z</time>
      </trkpt>
      <trkpt lat="43.86884" lon="7.22924">
        <ele>567</ele>
        <time>2018-04-26T10:49:45.000Z</time>
      </trkpt>
      <trkpt lat="43.8689" lon="7.22927">
        <ele>567</ele>
        <time>2018-04-26T10:49:52.000Z</time>
      </trkpt>
      <trkpt lat="43.86891" lon="7.22927">
        <ele>567</ele>
        <time>2018-04-26T10:49:54.000Z</time>
      </trkpt>
      <trkpt lat="43.86893" lon="7.22926">
        <ele>567</ele>
        <time>2018-04-26T10:49:58.000Z</time>
      </trkpt>
      <trkpt lat="43.86893" lon="7.22926">
        <ele>567</ele>
        <time>2018-04-26T10:50:00.000Z</time>
      </trkpt>
      <trkpt lat="43.86896" lon="7.22927">
        <ele>567</ele>
        <time>2018-04-26T10:50:04.000Z</time>
      </trkpt>
      <trkpt lat="43.86897" lon="7.22927">
        <ele>567</ele>
        <time>2018-04-26T10:50:05.000Z</time>
      </trkpt>
      <trkpt lat="43.86905" lon="7.22925">
        <ele>565</ele>
        <time>2018-04-26T10:50:11.000Z</time>
      </trkpt>
      <trkpt lat="43.86907" lon="7.22923">
        <ele>564</ele>
        <time>2018-04-26T10:50:12.000Z</time>
      </trkpt>
      <trkpt lat="43.86909" lon="7.22923">
        <ele>564</ele>
        <time>2018-04-26T10:50:13.000Z</time>
      </trkpt>
      <trkpt lat="43.86912" lon="7.22924">
        <ele>564</ele>
        <time>2018-04-26T10:50:16.000Z</time>
      </trkpt>
      <trkpt lat="43.86914" lon="7.22926">
        <ele>564</ele>
        <time>2018-04-26T10:50:19.000Z</time>
      </trkpt>
      <trkpt lat="43.86914" lon="7.22927">
        <ele>564</ele>
        <time>2018-04-26T10:50:20.000Z</time>
      </trkpt>
      <trkpt lat="43.86915" lon="7.22927">
        <ele>564</ele>
        <time>2018-04-26T10:50:24.000Z</time>
      </trkpt>
      <trkpt lat="43.86917" lon="7.22928">
        <ele>566</ele>
        <time>2018-04-26T10:50:26.000Z</time>
      </trkpt>
      <trkpt lat="43.86921" lon="7.22929">
        <ele>566</ele>
        <time>2018-04-26T10:50:31.000Z</time>
      </trkpt>
      <trkpt lat="43.86921" lon="7.22929">
        <ele>566</ele>
        <time>2018-04-26T10:50:32.000Z</time>
      </trkpt>
      <trkpt lat="43.86923" lon="7.22927">
        <ele>566</ele>
        <time>2018-04-26T10:50:37.000Z</time>
      </trkpt>
      <trkpt lat="43.86925" lon="7.22925">
        <ele>566</ele>
        <time>2018-04-26T10:50:39.000Z</time>
      </trkpt>
      <trkpt lat="43.86931" lon="7.2292">
        <ele>566</ele>
        <time>2018-04-26T10:50:43.000Z</time>
      </trkpt>
      <trkpt lat="43.86934" lon="7.22916">
        <ele>555</ele>
        <time>2018-04-26T10:50:47.000Z</time>
      </trkpt>
      <trkpt lat="43.86935" lon="7.22914">
        <ele>555</ele>
        <time>2018-04-26T10:50:49.000Z</time>
      </trkpt>
      <trkpt lat="43.86938" lon="7.2291">
        <ele>554</ele>
        <time>2018-04-26T10:50:52.000Z</time>
      </trkpt>
      <trkpt lat="43.8694" lon="7.22907">
        <ele>553</ele>
        <time>2018-04-26T10:50:55.000Z</time>
      </trkpt>
      <trkpt lat="43.86942" lon="7.22905">
        <ele>553</ele>
        <time>2018-04-26T10:50:57.000Z</time>
      </trkpt>
      <trkpt lat="43.86944" lon="7.22904">
        <ele>553</ele>
        <time>2018-04-26T10:50:59.000Z</time>
      </trkpt>
      <trkpt lat="43.86946" lon="7.22904">
        <ele>553</ele>
        <time>2018-04-26T10:51:00.000Z</time>
      </trkpt>
      <trkpt lat="43.8695" lon="7.22906">
        <ele>553</ele>
        <time>2018-04-26T10:51:03.000Z</time>
      </trkpt>
      <trkpt lat="43.86953" lon="7.2291">
        <ele>553</ele>
        <time>2018-04-26T10:51:05.000Z</time>
      </trkpt>
      <trkpt lat="43.86952" lon="7.22919">
        <ele>570</ele>
        <time>2018-04-26T10:51:09.000Z</time>
      </trkpt>
      <trkpt lat="43.86952" lon="7.2292">
        <ele>570</ele>
        <time>2018-04-26T10:51:10.000Z</time>
      </trkpt>
      <trkpt lat="43.8695" lon="7.22925">
        <ele>570</ele>
        <time>2018-04-26T10:51:13.000Z</time>
      </trkpt>
      <trkpt lat="43.8695" lon="7.22927">
        <ele>570</ele>
        <time>2018-04-26T10:51:14.000Z</time>
      </trkpt>
      <trkpt lat="43.86949" lon="7.22929">
        <ele>571</ele>
        <time>2018-04-26T10:51:15.000Z</time>
      </trkpt>
      <trkpt lat="43.86949" lon="7.22939">
        <ele>572</ele>
        <time>2018-04-26T10:51:19.000Z</time>
      </trkpt>
      <trkpt lat="43.86949" lon="7.22941">
        <ele>572</ele>
        <time>2018-04-26T10:51:20.000Z</time>
      </trkpt>
      <trkpt lat="43.86948" lon="7.22946">
        <ele>573</ele>
        <time>2018-04-26T10:51:22.000Z</time>
      </trkpt>
      <trkpt lat="43.86947" lon="7.22946">
        <ele>573</ele>
        <time>2018-04-26T10:51:23.000Z</time>
      </trkpt>
      <trkpt lat="43.86948" lon="7.22945">
        <ele>573</ele>
        <time>2018-04-26T10:51:24.000Z</time>
      </trkpt>
      <trkpt lat="43.86947" lon="7.22947">
        <ele>574</ele>
        <time>2018-04-26T10:51:25.000Z</time>
      </trkpt>
      <trkpt lat="43.86946" lon="7.22949">
        <ele>574</ele>
        <time>2018-04-26T10:51:26.000Z</time>
      </trkpt>
      <trkpt lat="43.86945" lon="7.22953">
        <ele>575</ele>
        <time>2018-04-26T10:51:29.000Z</time>
      </trkpt>
      <trkpt lat="43.86942" lon="7.22961">
        <ele>576</ele>
        <time>2018-04-26T10:51:34.000Z</time>
      </trkpt>
      <trkpt lat="43.86941" lon="7.22962">
        <ele>577</ele>
        <time>2018-04-26T10:51:35.000Z</time>
      </trkpt>
      <trkpt lat="43.86939" lon="7.22965">
        <ele>577</ele>
        <time>2018-04-26T10:51:38.000Z</time>
      </trkpt>
      <trkpt lat="43.86933" lon="7.22966">
        <ele>578</ele>
        <time>2018-04-26T10:51:41.000Z</time>
      </trkpt>
      <trkpt lat="43.86924" lon="7.22965">
        <ele>577</ele>
        <time>2018-04-26T10:51:44.000Z</time>
      </trkpt>
      <trkpt lat="43.86922" lon="7.22965">
        <ele>577</ele>
        <time>2018-04-26T10:51:45.000Z</time>
      </trkpt>
      <trkpt lat="43.86914" lon="7.22968">
        <ele>576</ele>
        <time>2018-04-26T10:51:48.000Z</time>
      </trkpt>
      <trkpt lat="43.86913" lon="7.22967">
        <ele>576</ele>
        <time>2018-04-26T10:51:49.000Z</time>
      </trkpt>
      <trkpt lat="43.8691" lon="7.22968">
        <ele>576</ele>
        <time>2018-04-26T10:51:51.000Z</time>
      </trkpt>
      <trkpt lat="43.86901" lon="7.22969">
        <ele>576</ele>
        <time>2018-04-26T10:51:54.000Z</time>
      </trkpt>
      <trkpt lat="43.8689" lon="7.22968">
        <ele>575</ele>
        <time>2018-04-26T10:51:58.000Z</time>
      </trkpt>
      <trkpt lat="43.86889" lon="7.22967">
        <ele>575</ele>
        <time>2018-04-26T10:51:59.000Z</time>
      </trkpt>
      <trkpt lat="43.86883" lon="7.22969">
        <ele>575</ele>
        <time>2018-04-26T10:52:02.000Z</time>
      </trkpt>
      <trkpt lat="43.86879" lon="7.2297">
        <ele>575</ele>
        <time>2018-04-26T10:52:05.000Z</time>
      </trkpt>
      <trkpt lat="43.86875" lon="7.22972">
        <ele>575</ele>
        <time>2018-04-26T10:52:08.000Z</time>
      </trkpt>
      <trkpt lat="43.86874" lon="7.22972">
        <ele>575</ele>
        <time>2018-04-26T10:52:09.000Z</time>
      </trkpt>
      <trkpt lat="43.86872" lon="7.22972">
        <ele>575</ele>
        <time>2018-04-26T10:52:10.000Z</time>
      </trkpt>
      <trkpt lat="43.86867" lon="7.22972">
        <ele>575</ele>
        <time>2018-04-26T10:52:13.000Z</time>
      </trkpt>
      <trkpt lat="43.86862" lon="7.22975">
        <ele>575</ele>
        <time>2018-04-26T10:52:16.000Z</time>
      </trkpt>
      <trkpt lat="43.86857" lon="7.22979">
        <ele>576</ele>
        <time>2018-04-26T10:52:19.000Z</time>
      </trkpt>
      <trkpt lat="43.86854" lon="7.2298">
        <ele>576</ele>
        <time>2018-04-26T10:52:21.000Z</time>
      </trkpt>
      <trkpt lat="43.86846" lon="7.22982">
        <ele>577</ele>
        <time>2018-04-26T10:52:25.000Z</time>
      </trkpt>
      <trkpt lat="43.86838" lon="7.22986">
        <ele>579</ele>
        <time>2018-04-26T10:52:30.000Z</time>
      </trkpt>
      <trkpt lat="43.86834" lon="7.22988">
        <ele>580</ele>
        <time>2018-04-26T10:52:32.000Z</time>
      </trkpt>
      <trkpt lat="43.86833" lon="7.22989">
        <ele>578</ele>
        <time>2018-04-26T10:52:33.000Z</time>
      </trkpt>
      <trkpt lat="43.8683" lon="7.22991">
        <ele>578</ele>
        <time>2018-04-26T10:52:35.000Z</time>
      </trkpt>
      <trkpt lat="43.86822" lon="7.22993">
        <ele>577</ele>
        <time>2018-04-26T10:52:39.000Z</time>
      </trkpt>
      <trkpt lat="43.8682" lon="7.22994">
        <ele>576</ele>
        <time>2018-04-26T10:52:41.000Z</time>
      </trkpt>
      <trkpt lat="43.86813" lon="7.22995">
        <ele>574</ele>
        <time>2018-04-26T10:52:44.000Z</time>
      </trkpt>
      <trkpt lat="43.86807" lon="7.22995">
        <ele>572</ele>
        <time>2018-04-26T10:52:47.000Z</time>
      </trkpt>
      <trkpt lat="43.86795" lon="7.23001">
        <ele>590</ele>
        <time>2018-04-26T10:52:53.000Z</time>
      </trkpt>
      <trkpt lat="43.86787" lon="7.23006">
        <ele>590</ele>
        <time>2018-04-26T10:52:58.000Z</time>
      </trkpt>
      <trkpt lat="43.86784" lon="7.23009">
        <ele>590</ele>
        <time>2018-04-26T10:53:00.000Z</time>
      </trkpt>
      <trkpt lat="43.86782" lon="7.23011">
        <ele>590</ele>
        <time>2018-04-26T10:53:03.000Z</time>
      </trkpt>
      <trkpt lat="43.86778" lon="7.23017">
        <ele>590</ele>
        <time>2018-04-26T10:53:07.000Z</time>
      </trkpt>
      <trkpt lat="43.86776" lon="7.23021">
        <ele>591</ele>
        <time>2018-04-26T10:53:10.000Z</time>
      </trkpt>
      <trkpt lat="43.86775" lon="7.23021">
        <ele>590</ele>
        <time>2018-04-26T10:53:11.000Z</time>
      </trkpt>
      <trkpt lat="43.86773" lon="7.23022">
        <ele>590</ele>
        <time>2018-04-26T10:53:13.000Z</time>
      </trkpt>
      <trkpt lat="43.86766" lon="7.23029">
        <ele>591</ele>
        <time>2018-04-26T10:53:20.000Z</time>
      </trkpt>
      <trkpt lat="43.86764" lon="7.23032">
        <ele>592</ele>
        <time>2018-04-26T10:53:23.000Z</time>
      </trkpt>
      <trkpt lat="43.86761" lon="7.23035">
        <ele>592</ele>
        <time>2018-04-26T10:53:27.000Z</time>
      </trkpt>
      <trkpt lat="43.86758" lon="7.23037">
        <ele>592</ele>
        <time>2018-04-26T10:53:33.000Z</time>
      </trkpt>
      <trkpt lat="43.86758" lon="7.23037">
        <ele>592</ele>
        <time>2018-04-26T10:53:40.000Z</time>
      </trkpt>
      <trkpt lat="43.86754" lon="7.23042">
        <ele>593</ele>
        <time>2018-04-26T10:53:53.000Z</time>
      </trkpt>
      <trkpt lat="43.86753" lon="7.23043">
        <ele>594</ele>
        <time>2018-04-26T10:53:54.000Z</time>
      </trkpt>
      <trkpt lat="43.86752" lon="7.23045">
        <ele>594</ele>
        <time>2018-04-26T10:53:55.000Z</time>
      </trkpt>
      <trkpt lat="43.86748" lon="7.23052">
        <ele>587</ele>
        <time>2018-04-26T10:53:59.000Z</time>
      </trkpt>
      <trkpt lat="43.86745" lon="7.23058">
        <ele>588</ele>
        <time>2018-04-26T10:54:03.000Z</time>
      </trkpt>
      <trkpt lat="43.86744" lon="7.23059">
        <ele>588</ele>
        <time>2018-04-26T10:54:04.000Z</time>
      </trkpt>
      <trkpt lat="43.86739" lon="7.23065">
        <ele>590</ele>
        <time>2018-04-26T10:54:09.000Z</time>
      </trkpt>
      <trkpt lat="43.86738" lon="7.23067">
        <ele>590</ele>
        <time>2018-04-26T10:54:10.000Z</time>
      </trkpt>
      <trkpt lat="43.86734" lon="7.23074">
        <ele>591</ele>
        <time>2018-04-26T10:54:15.000Z</time>
      </trkpt>
      <trkpt lat="43.86722" lon="7.23082">
        <ele>588</ele>
        <time>2018-04-26T10:54:20.000Z</time>
      </trkpt>
      <trkpt lat="43.86707" lon="7.23088">
        <ele>600</ele>
        <time>2018-04-26T10:54:25.000Z</time>
      </trkpt>
      <trkpt lat="43.86696" lon="7.23095">
        <ele>598</ele>
        <time>2018-04-26T10:54:31.000Z</time>
      </trkpt>
      <trkpt lat="43.86687" lon="7.231">
        <ele>597</ele>
        <time>2018-04-26T10:54:36.000Z</time>
      </trkpt>
      <trkpt lat="43.86683" lon="7.23105">
        <ele>597</ele>
        <time>2018-04-26T10:54:40.000Z</time>
      </trkpt>
      <trkpt lat="43.86682" lon="7.23107">
        <ele>597</ele>
        <time>2018-04-26T10:54:41.000Z</time>
      </trkpt>
      <trkpt lat="43.8668" lon="7.23111">
        <ele>598</ele>
        <time>2018-04-26T10:54:42.000Z</time>
      </trkpt>
      <trkpt lat="43.86676" lon="7.23118">
        <ele>599</ele>
        <time>2018-04-26T10:54:44.000Z</time>
      </trkpt>
      <trkpt lat="43.86674" lon="7.23124">
        <ele>600</ele>
        <time>2018-04-26T10:54:45.000Z</time>
      </trkpt>
      <trkpt lat="43.86673" lon="7.2313">
        <ele>601</ele>
        <time>2018-04-26T10:54:46.000Z</time>
      </trkpt>
      <trkpt lat="43.86671" lon="7.23135">
        <ele>601</ele>
        <time>2018-04-26T10:54:47.000Z</time>
      </trkpt>
      <trkpt lat="43.86668" lon="7.23144">
        <ele>602</ele>
        <time>2018-04-26T10:54:49.000Z</time>
      </trkpt>
      <trkpt lat="43.8666" lon="7.23157">
        <ele>596</ele>
        <time>2018-04-26T10:54:54.000Z</time>
      </trkpt>
      <trkpt lat="43.86649" lon="7.23178">
        <ele>606</ele>
        <time>2018-04-26T10:55:00.000Z</time>
      </trkpt>
      <trkpt lat="43.86642" lon="7.23188">
        <ele>608</ele>
        <time>2018-04-26T10:55:04.000Z</time>
      </trkpt>
      <trkpt lat="43.86631" lon="7.23201">
        <ele>609</ele>
        <time>2018-04-26T10:55:09.000Z</time>
      </trkpt>
      <trkpt lat="43.86625" lon="7.23211">
        <ele>610</ele>
        <time>2018-04-26T10:55:14.000Z</time>
      </trkpt>
      <trkpt lat="43.86623" lon="7.2321">
        <ele>610</ele>
        <time>2018-04-26T10:55:15.000Z</time>
      </trkpt>
      <trkpt lat="43.86617" lon="7.23211">
        <ele>610</ele>
        <time>2018-04-26T10:55:18.000Z</time>
      </trkpt>
      <trkpt lat="43.86607" lon="7.23208">
        <ele>609</ele>
        <time>2018-04-26T10:55:21.000Z</time>
      </trkpt>
      <trkpt lat="43.86606" lon="7.23208">
        <ele>609</ele>
        <time>2018-04-26T10:55:22.000Z</time>
      </trkpt>
      <trkpt lat="43.86601" lon="7.23208">
        <ele>609</ele>
        <time>2018-04-26T10:55:25.000Z</time>
      </trkpt>
      <trkpt lat="43.86592" lon="7.23211">
        <ele>609</ele>
        <time>2018-04-26T10:55:30.000Z</time>
      </trkpt>
      <trkpt lat="43.86586" lon="7.23211">
        <ele>609</ele>
        <time>2018-04-26T10:55:34.000Z</time>
      </trkpt>
      <trkpt lat="43.86585" lon="7.23211">
        <ele>609</ele>
        <time>2018-04-26T10:55:35.000Z</time>
      </trkpt>
      <trkpt lat="43.86581" lon="7.23213">
        <ele>606</ele>
        <time>2018-04-26T10:55:38.000Z</time>
      </trkpt>
      <trkpt lat="43.86578" lon="7.23214">
        <ele>606</ele>
        <time>2018-04-26T10:55:41.000Z</time>
      </trkpt>
      <trkpt lat="43.86579" lon="7.23214">
        <ele>606</ele>
        <time>2018-04-26T10:55:42.000Z</time>
      </trkpt>
      <trkpt lat="43.86578" lon="7.23214">
        <ele>606</ele>
        <time>2018-04-26T10:55:46.000Z</time>
      </trkpt>
      <trkpt lat="43.86575" lon="7.23214">
        <ele>606</ele>
        <time>2018-04-26T10:55:51.000Z</time>
      </trkpt>
      <trkpt lat="43.86574" lon="7.23215">
        <ele>606</ele>
        <time>2018-04-26T10:55:52.000Z</time>
      </trkpt>
      <trkpt lat="43.86569" lon="7.23216">
        <ele>606</ele>
        <time>2018-04-26T10:55:59.000Z</time>
      </trkpt>
      <trkpt lat="43.86566" lon="7.23217">
        <ele>606</ele>
        <time>2018-04-26T10:56:04.000Z</time>
      </trkpt>
      <trkpt lat="43.86565" lon="7.23217">
        <ele>606</ele>
        <time>2018-04-26T10:56:07.000Z</time>
      </trkpt>
      <trkpt lat="43.86564" lon="7.23217">
        <ele>606</ele>
        <time>2018-04-26T10:56:11.000Z</time>
      </trkpt>
      <trkpt lat="43.8656" lon="7.23219">
        <ele>606</ele>
        <time>2018-04-26T10:56:15.000Z</time>
      </trkpt>
      <trkpt lat="43.86559" lon="7.2322">
        <ele>606</ele>
        <time>2018-04-26T10:56:18.000Z</time>
      </trkpt>
      <trkpt lat="43.86556" lon="7.23222">
        <ele>606</ele>
        <time>2018-04-26T10:56:22.000Z</time>
      </trkpt>
      <trkpt lat="43.86556" lon="7.23222">
        <ele>606</ele>
        <time>2018-04-26T10:56:23.000Z</time>
      </trkpt>
      <trkpt lat="43.8655" lon="7.23222">
        <ele>606</ele>
        <time>2018-04-26T10:56:29.000Z</time>
      </trkpt>
      <trkpt lat="43.86548" lon="7.23222">
        <ele>606</ele>
        <time>2018-04-26T10:56:32.000Z</time>
      </trkpt>
      <trkpt lat="43.86546" lon="7.23225">
        <ele>606</ele>
        <time>2018-04-26T10:56:36.000Z</time>
      </trkpt>
      <trkpt lat="43.86546" lon="7.23224">
        <ele>606</ele>
        <time>2018-04-26T10:56:37.000Z</time>
      </trkpt>
      <trkpt lat="43.86545" lon="7.23225">
        <ele>606</ele>
        <time>2018-04-26T10:56:45.000Z</time>
      </trkpt>
      <trkpt lat="43.86545" lon="7.23226">
        <ele>606</ele>
        <time>2018-04-26T10:56:51.000Z</time>
      </trkpt>
      <trkpt lat="43.86545" lon="7.23228">
        <ele>606</ele>
        <time>2018-04-26T10:56:54.000Z</time>
      </trkpt>
      <trkpt lat="43.86547" lon="7.23231">
        <ele>606</ele>
        <time>2018-04-26T10:56:57.000Z</time>
      </trkpt>
      <trkpt lat="43.86553" lon="7.23236">
        <ele>607</ele>
        <time>2018-04-26T10:57:03.000Z</time>
      </trkpt>
      <trkpt lat="43.86554" lon="7.23238">
        <ele>607</ele>
        <time>2018-04-26T10:57:04.000Z</time>
      </trkpt>
      <trkpt lat="43.86555" lon="7.23241">
        <ele>608</ele>
        <time>2018-04-26T10:57:06.000Z</time>
      </trkpt>
      <trkpt lat="43.86556" lon="7.23242">
        <ele>608</ele>
        <time>2018-04-26T10:57:07.000Z</time>
      </trkpt>
      <trkpt lat="43.86557" lon="7.23243">
        <ele>608</ele>
        <time>2018-04-26T10:57:08.000Z</time>
      </trkpt>
      <trkpt lat="43.86558" lon="7.23244">
        <ele>608</ele>
        <time>2018-04-26T10:57:09.000Z</time>
      </trkpt>
      <trkpt lat="43.86559" lon="7.23246">
        <ele>608</ele>
        <time>2018-04-26T10:57:11.000Z</time>
      </trkpt>
      <trkpt lat="43.86559" lon="7.23246">
        <ele>609</ele>
        <time>2018-04-26T10:57:12.000Z</time>
      </trkpt>
      <trkpt lat="43.8656" lon="7.23247">
        <ele>609</ele>
        <time>2018-04-26T10:57:14.000Z</time>
      </trkpt>
      <trkpt lat="43.86561" lon="7.23248">
        <ele>609</ele>
        <time>2018-04-26T10:57:17.000Z</time>
      </trkpt>
      <trkpt lat="43.86563" lon="7.2325">
        <ele>609</ele>
        <time>2018-04-26T10:57:20.000Z</time>
      </trkpt>
      <trkpt lat="43.86564" lon="7.23254">
        <ele>617</ele>
        <time>2018-04-26T10:57:24.000Z</time>
      </trkpt>
      <trkpt lat="43.86563" lon="7.23255">
        <ele>617</ele>
        <time>2018-04-26T10:57:25.000Z</time>
      </trkpt>
      <trkpt lat="43.86562" lon="7.23256">
        <ele>618</ele>
        <time>2018-04-26T10:57:27.000Z</time>
      </trkpt>
      <trkpt lat="43.86563" lon="7.23257">
        <ele>618</ele>
        <time>2018-04-26T10:57:29.000Z</time>
      </trkpt>
      <trkpt lat="43.86564" lon="7.2326">
        <ele>618</ele>
        <time>2018-04-26T10:57:34.000Z</time>
      </trkpt>
      <trkpt lat="43.86566" lon="7.23264">
        <ele>618</ele>
        <time>2018-04-26T10:57:39.000Z</time>
      </trkpt>
      <trkpt lat="43.86567" lon="7.23266">
        <ele>618</ele>
        <time>2018-04-26T10:57:42.000Z</time>
      </trkpt>
      <trkpt lat="43.86569" lon="7.23268">
        <ele>619</ele>
        <time>2018-04-26T10:57:44.000Z</time>
      </trkpt>
      <trkpt lat="43.8657" lon="7.2327">
        <ele>619</ele>
        <time>2018-04-26T10:57:48.000Z</time>
      </trkpt>
      <trkpt lat="43.86571" lon="7.2327">
        <ele>619</ele>
        <time>2018-04-26T10:57:50.000Z</time>
      </trkpt>
      <trkpt lat="43.86574" lon="7.23272">
        <ele>619</ele>
        <time>2018-04-26T10:57:55.000Z</time>
      </trkpt>
      <trkpt lat="43.86576" lon="7.23272">
        <ele>619</ele>
        <time>2018-04-26T10:57:57.000Z</time>
      </trkpt>
      <trkpt lat="43.8658" lon="7.23276">
        <ele>620</ele>
        <time>2018-04-26T10:58:04.000Z</time>
      </trkpt>
      <trkpt lat="43.86584" lon="7.23279">
        <ele>630</ele>
        <time>2018-04-26T10:58:12.000Z</time>
      </trkpt>
      <trkpt lat="43.86586" lon="7.23281">
        <ele>630</ele>
        <time>2018-04-26T10:58:16.000Z</time>
      </trkpt>
      <trkpt lat="43.86588" lon="7.23283">
        <ele>631</ele>
        <time>2018-04-26T10:58:20.000Z</time>
      </trkpt>
      <trkpt lat="43.86588" lon="7.23283">
        <ele>631</ele>
        <time>2018-04-26T10:58:21.000Z</time>
      </trkpt>
      <trkpt lat="43.86589" lon="7.23283">
        <ele>631</ele>
        <time>2018-04-26T10:58:28.000Z</time>
      </trkpt>
      <trkpt lat="43.86593" lon="7.23287">
        <ele>632</ele>
        <time>2018-04-26T10:58:36.000Z</time>
      </trkpt>
      <trkpt lat="43.86594" lon="7.23288">
        <ele>632</ele>
        <time>2018-04-26T10:58:39.000Z</time>
      </trkpt>
      <trkpt lat="43.86597" lon="7.2329">
        <ele>633</ele>
        <time>2018-04-26T10:58:44.000Z</time>
      </trkpt>
      <trkpt lat="43.86597" lon="7.2329">
        <ele>633</ele>
        <time>2018-04-26T10:58:45.000Z</time>
      </trkpt>
      <trkpt lat="43.86601" lon="7.23294">
        <ele>634</ele>
        <time>2018-04-26T10:58:51.000Z</time>
      </trkpt>
      <trkpt lat="43.86602" lon="7.23296">
        <ele>635</ele>
        <time>2018-04-26T10:58:57.000Z</time>
      </trkpt>
      <trkpt lat="43.86602" lon="7.23296">
        <ele>635</ele>
        <time>2018-04-26T10:58:58.000Z</time>
      </trkpt>
      <trkpt lat="43.86604" lon="7.23298">
        <ele>635</ele>
        <time>2018-04-26T10:59:02.000Z</time>
      </trkpt>
      <trkpt lat="43.86604" lon="7.23298">
        <ele>635</ele>
        <time>2018-04-26T10:59:04.000Z</time>
      </trkpt>
      <trkpt lat="43.86605" lon="7.23299">
        <ele>635</ele>
        <time>2018-04-26T10:59:09.000Z</time>
      </trkpt>
      <trkpt lat="43.86606" lon="7.23299">
        <ele>636</ele>
        <time>2018-04-26T10:59:11.000Z</time>
      </trkpt>
      <trkpt lat="43.8661" lon="7.233">
        <ele>636</ele>
        <time>2018-04-26T10:59:16.000Z</time>
      </trkpt>
      <trkpt lat="43.86612" lon="7.233">
        <ele>636</ele>
        <time>2018-04-26T10:59:18.000Z</time>
      </trkpt>
      <trkpt lat="43.86616" lon="7.23302">
        <ele>637</ele>
        <time>2018-04-26T10:59:25.000Z</time>
      </trkpt>
      <trkpt lat="43.86615" lon="7.23303">
        <ele>637</ele>
        <time>2018-04-26T10:59:26.000Z</time>
      </trkpt>
      <trkpt lat="43.86614" lon="7.23304">
        <ele>637</ele>
        <time>2018-04-26T10:59:27.000Z</time>
      </trkpt>
      <trkpt lat="43.86614" lon="7.23304">
        <ele>637</ele>
        <time>2018-04-26T10:59:29.000Z</time>
      </trkpt>
      <trkpt lat="43.86611" lon="7.23306">
        <ele>637</ele>
        <time>2018-04-26T10:59:35.000Z</time>
      </trkpt>
      <trkpt lat="43.86611" lon="7.23306">
        <ele>637</ele>
        <time>2018-04-26T10:59:36.000Z</time>
      </trkpt>
      <trkpt lat="43.86612" lon="7.23309">
        <ele>637</ele>
        <time>2018-04-26T10:59:42.000Z</time>
      </trkpt>
      <trkpt lat="43.86613" lon="7.2331">
        <ele>638</ele>
        <time>2018-04-26T10:59:45.000Z</time>
      </trkpt>
      <trkpt lat="43.86616" lon="7.23311">
        <ele>638</ele>
        <time>2018-04-26T10:59:50.000Z</time>
      </trkpt>
      <trkpt lat="43.86622" lon="7.23313">
        <ele>639</ele>
        <time>2018-04-26T10:59:58.000Z</time>
      </trkpt>
      <trkpt lat="43.86622" lon="7.23314">
        <ele>639</ele>
        <time>2018-04-26T10:59:59.000Z</time>
      </trkpt>
      <trkpt lat="43.86627" lon="7.23314">
        <ele>639</ele>
        <time>2018-04-26T11:00:06.000Z</time>
      </trkpt>
      <trkpt lat="43.86629" lon="7.23314">
        <ele>639</ele>
        <time>2018-04-26T11:00:14.000Z</time>
      </trkpt>
      <trkpt lat="43.8663" lon="7.23314">
        <ele>640</ele>
        <time>2018-04-26T11:00:26.000Z</time>
      </trkpt>
      <trkpt lat="43.86635" lon="7.23314">
        <ele>640</ele>
        <time>2018-04-26T11:00:32.000Z</time>
      </trkpt>
      <trkpt lat="43.86638" lon="7.23313">
        <ele>640</ele>
        <time>2018-04-26T11:00:35.000Z</time>
      </trkpt>
      <trkpt lat="43.86642" lon="7.23311">
        <ele>641</ele>
        <time>2018-04-26T11:00:37.000Z</time>
      </trkpt>
      <trkpt lat="43.86651" lon="7.23308">
        <ele>641</ele>
        <time>2018-04-26T11:00:43.000Z</time>
      </trkpt>
      <trkpt lat="43.86653" lon="7.23308">
        <ele>642</ele>
        <time>2018-04-26T11:00:44.000Z</time>
      </trkpt>
      <trkpt lat="43.8666" lon="7.23308">
        <ele>642</ele>
        <time>2018-04-26T11:00:49.000Z</time>
      </trkpt>
      <trkpt lat="43.86664" lon="7.23306">
        <ele>642</ele>
        <time>2018-04-26T11:00:53.000Z</time>
      </trkpt>
      <trkpt lat="43.86666" lon="7.23305">
        <ele>642</ele>
        <time>2018-04-26T11:00:55.000Z</time>
      </trkpt>
      <trkpt lat="43.86666" lon="7.23305">
        <ele>642</ele>
        <time>2018-04-26T11:00:57.000Z</time>
      </trkpt>
      <trkpt lat="43.86669" lon="7.23304">
        <ele>651</ele>
        <time>2018-04-26T11:01:00.000Z</time>
      </trkpt>
      <trkpt lat="43.86671" lon="7.23302">
        <ele>651</ele>
        <time>2018-04-26T11:01:03.000Z</time>
      </trkpt>
      <trkpt lat="43.86674" lon="7.23301">
        <ele>651</ele>
        <time>2018-04-26T11:01:08.000Z</time>
      </trkpt>
      <trkpt lat="43.86675" lon="7.23301">
        <ele>651</ele>
        <time>2018-04-26T11:01:09.000Z</time>
      </trkpt>
      <trkpt lat="43.86679" lon="7.23299">
        <ele>651</ele>
        <time>2018-04-26T11:01:15.000Z</time>
      </trkpt>
      <trkpt lat="43.86679" lon="7.23299">
        <ele>651</ele>
        <time>2018-04-26T11:01:16.000Z</time>
      </trkpt>
      <trkpt lat="43.8668" lon="7.233">
        <ele>651</ele>
        <time>2018-04-26T11:01:21.000Z</time>
      </trkpt>
      <trkpt lat="43.8668" lon="7.23299">
        <ele>651</ele>
        <time>2018-04-26T11:01:23.000Z</time>
      </trkpt>
      <trkpt lat="43.86684" lon="7.23299">
        <ele>651</ele>
        <time>2018-04-26T11:01:29.000Z</time>
      </trkpt>
      <trkpt lat="43.86686" lon="7.23298">
        <ele>651</ele>
        <time>2018-04-26T11:01:32.000Z</time>
      </trkpt>
      <trkpt lat="43.86687" lon="7.23297">
        <ele>651</ele>
        <time>2018-04-26T11:01:35.000Z</time>
      </trkpt>
      <trkpt lat="43.86689" lon="7.23296">
        <ele>651</ele>
        <time>2018-04-26T11:01:37.000Z</time>
      </trkpt>
      <trkpt lat="43.86691" lon="7.23295">
        <ele>651</ele>
        <time>2018-04-26T11:01:41.000Z</time>
      </trkpt>
      <trkpt lat="43.86692" lon="7.23295">
        <ele>652</ele>
        <time>2018-04-26T11:01:42.000Z</time>
      </trkpt>
      <trkpt lat="43.86694" lon="7.23294">
        <ele>652</ele>
        <time>2018-04-26T11:01:46.000Z</time>
      </trkpt>
      <trkpt lat="43.86696" lon="7.23292">
        <ele>651</ele>
        <time>2018-04-26T11:01:48.000Z</time>
      </trkpt>
      <trkpt lat="43.86697" lon="7.23291">
        <ele>651</ele>
        <time>2018-04-26T11:01:49.000Z</time>
      </trkpt>
      <trkpt lat="43.86699" lon="7.23289">
        <ele>651</ele>
        <time>2018-04-26T11:01:52.000Z</time>
      </trkpt>
      <trkpt lat="43.86702" lon="7.23288">
        <ele>652</ele>
        <time>2018-04-26T11:01:56.000Z</time>
      </trkpt>
      <trkpt lat="43.86705" lon="7.23287">
        <ele>652</ele>
        <time>2018-04-26T11:02:00.000Z</time>
      </trkpt>
      <trkpt lat="43.86708" lon="7.23287">
        <ele>652</ele>
        <time>2018-04-26T11:02:05.000Z</time>
      </trkpt>
      <trkpt lat="43.86709" lon="7.23287">
        <ele>652</ele>
        <time>2018-04-26T11:02:06.000Z</time>
      </trkpt>
      <trkpt lat="43.86711" lon="7.23287">
        <ele>653</ele>
        <time>2018-04-26T11:02:10.000Z</time>
      </trkpt>
      <trkpt lat="43.86714" lon="7.23285">
        <ele>653</ele>
        <time>2018-04-26T11:02:14.000Z</time>
      </trkpt>
      <trkpt lat="43.86715" lon="7.23285">
        <ele>653</ele>
        <time>2018-04-26T11:02:17.000Z</time>
      </trkpt>
      <trkpt lat="43.86718" lon="7.23283">
        <ele>653</ele>
        <time>2018-04-26T11:02:21.000Z</time>
      </trkpt>
      <trkpt lat="43.86721" lon="7.23282">
        <ele>654</ele>
        <time>2018-04-26T11:02:25.000Z</time>
      </trkpt>
      <trkpt lat="43.86724" lon="7.23281">
        <ele>654</ele>
        <time>2018-04-26T11:02:30.000Z</time>
      </trkpt>
      <trkpt lat="43.86729" lon="7.23281">
        <ele>655</ele>
        <time>2018-04-26T11:02:36.000Z</time>
      </trkpt>
      <trkpt lat="43.86733" lon="7.23279">
        <ele>655</ele>
        <time>2018-04-26T11:02:42.000Z</time>
      </trkpt>
      <trkpt lat="43.86733" lon="7.23278">
        <ele>655</ele>
        <time>2018-04-26T11:02:43.000Z</time>
      </trkpt>
      <trkpt lat="43.86737" lon="7.23276">
        <ele>655</ele>
        <time>2018-04-26T11:02:48.000Z</time>
      </trkpt>
      <trkpt lat="43.86738" lon="7.23276">
        <ele>655</ele>
        <time>2018-04-26T11:02:50.000Z</time>
      </trkpt>
      <trkpt lat="43.86743" lon="7.23274">
        <ele>656</ele>
        <time>2018-04-26T11:02:57.000Z</time>
      </trkpt>
      <trkpt lat="43.86744" lon="7.23275">
        <ele>656</ele>
        <time>2018-04-26T11:02:59.000Z</time>
      </trkpt>
      <trkpt lat="43.86747" lon="7.23277">
        <ele>656</ele>
        <time>2018-04-26T11:03:04.000Z</time>
      </trkpt>
      <trkpt lat="43.86747" lon="7.2328">
        <ele>656</ele>
        <time>2018-04-26T11:03:08.000Z</time>
      </trkpt>
      <trkpt lat="43.86746" lon="7.2328">
        <ele>656</ele>
        <time>2018-04-26T11:03:11.000Z</time>
      </trkpt>
      <trkpt lat="43.86746" lon="7.23281">
        <ele>656</ele>
        <time>2018-04-26T11:03:14.000Z</time>
      </trkpt>
      <trkpt lat="43.86744" lon="7.23283">
        <ele>656</ele>
        <time>2018-04-26T11:03:21.000Z</time>
      </trkpt>
      <trkpt lat="43.86736" lon="7.23289">
        <ele>656</ele>
        <time>2018-04-26T11:03:27.000Z</time>
      </trkpt>
      <trkpt lat="43.86725" lon="7.23299">
        <ele>656</ele>
        <time>2018-04-26T11:03:34.000Z</time>
      </trkpt>
      <trkpt lat="43.86713" lon="7.23312">
        <ele>656</ele>
        <time>2018-04-26T11:03:40.000Z</time>
      </trkpt>
      <trkpt lat="43.86706" lon="7.23321">
        <ele>656</ele>
        <time>2018-04-26T11:03:44.000Z</time>
      </trkpt>
      <trkpt lat="43.86704" lon="7.23323">
        <ele>656</ele>
        <time>2018-04-26T11:03:45.000Z</time>
      </trkpt>
      <trkpt lat="43.86693" lon="7.23339">
        <ele>665</ele>
        <time>2018-04-26T11:03:51.000Z</time>
      </trkpt>
      <trkpt lat="43.86679" lon="7.23354">
        <ele>665</ele>
        <time>2018-04-26T11:03:58.000Z</time>
      </trkpt>
      <trkpt lat="43.86667" lon="7.23366">
        <ele>664</ele>
        <time>2018-04-26T11:04:04.000Z</time>
      </trkpt>
      <trkpt lat="43.86646" lon="7.23376">
        <ele>665</ele>
        <time>2018-04-26T11:04:12.000Z</time>
      </trkpt>
      <trkpt lat="43.86628" lon="7.23379">
        <ele>665</ele>
        <time>2018-04-26T11:04:18.000Z</time>
      </trkpt>
      <trkpt lat="43.86621" lon="7.2338">
        <ele>664</ele>
        <time>2018-04-26T11:04:20.000Z</time>
      </trkpt>
      <trkpt lat="43.86601" lon="7.2338">
        <ele>664</ele>
        <time>2018-04-26T11:04:26.000Z</time>
      </trkpt>
      <trkpt lat="43.86577" lon="7.23383">
        <ele>653</ele>
        <time>2018-04-26T11:04:33.000Z</time>
      </trkpt>
      <trkpt lat="43.86564" lon="7.23391">
        <ele>653</ele>
        <time>2018-04-26T11:04:37.000Z</time>
      </trkpt>
      <trkpt lat="43.86558" lon="7.23395">
        <ele>653</ele>
        <time>2018-04-26T11:04:39.000Z</time>
      </trkpt>
      <trkpt lat="43.86538" lon="7.23414">
        <ele>650</ele>
        <time>2018-04-26T11:04:46.000Z</time>
      </trkpt>
      <trkpt lat="43.86516" lon="7.23445">
        <ele>663</ele>
        <time>2018-04-26T11:04:54.000Z</time>
      </trkpt>
      <trkpt lat="43.86498" lon="7.23473">
        <ele>645</ele>
        <time>2018-04-26T11:05:01.000Z</time>
      </trkpt>
      <trkpt lat="43.86489" lon="7.23494">
        <ele>653</ele>
        <time>2018-04-26T11:05:06.000Z</time>
      </trkpt>
      <trkpt lat="43.86481" lon="7.23522">
        <ele>653</ele>
        <time>2018-04-26T11:05:11.000Z</time>
      </trkpt>
      <trkpt lat="43.8648" lon="7.23534">
        <ele>653</ele>
        <time>2018-04-26T11:05:13.000Z</time>
      </trkpt>
      <trkpt lat="43.86481" lon="7.23546">
        <ele>654</ele>
        <time>2018-04-26T11:05:15.000Z</time>
      </trkpt>
      <trkpt lat="43.8648" lon="7.23562">
        <ele>657</ele>
        <time>2018-04-26T11:05:18.000Z</time>
      </trkpt>
      <trkpt lat="43.86479" lon="7.23567">
        <ele>657</ele>
        <time>2018-04-26T11:05:19.000Z</time>
      </trkpt>
      <trkpt lat="43.86476" lon="7.23585">
        <ele>666</ele>
        <time>2018-04-26T11:05:22.000Z</time>
      </trkpt>
      <trkpt lat="43.86474" lon="7.23595">
        <ele>665</ele>
        <time>2018-04-26T11:05:24.000Z</time>
      </trkpt>
      <trkpt lat="43.86471" lon="7.23598">
        <ele>665</ele>
        <time>2018-04-26T11:05:25.000Z</time>
      </trkpt>
      <trkpt lat="43.86463" lon="7.23609">
        <ele>663</ele>
        <time>2018-04-26T11:05:28.000Z</time>
      </trkpt>
      <trkpt lat="43.86445" lon="7.23648">
        <ele>662</ele>
        <time>2018-04-26T11:05:36.000Z</time>
      </trkpt>
      <trkpt lat="43.86439" lon="7.23659">
        <ele>661</ele>
        <time>2018-04-26T11:05:38.000Z</time>
      </trkpt>
      <trkpt lat="43.86433" lon="7.2367">
        <ele>668</ele>
        <time>2018-04-26T11:05:40.000Z</time>
      </trkpt>
      <trkpt lat="43.86428" lon="7.2368">
        <ele>668</ele>
        <time>2018-04-26T11:05:42.000Z</time>
      </trkpt>
      <trkpt lat="43.86412" lon="7.2371">
        <ele>660</ele>
        <time>2018-04-26T11:05:49.000Z</time>
      </trkpt>
      <trkpt lat="43.86407" lon="7.2372">
        <ele>662</ele>
        <time>2018-04-26T11:05:51.000Z</time>
      </trkpt>
      <trkpt lat="43.86401" lon="7.2374">
        <ele>665</ele>
        <time>2018-04-26T11:05:54.000Z</time>
      </trkpt>
      <trkpt lat="43.86396" lon="7.23757">
        <ele>674</ele>
        <time>2018-04-26T11:05:57.000Z</time>
      </trkpt>
      <trkpt lat="43.8639" lon="7.23765">
        <ele>675</ele>
        <time>2018-04-26T11:05:59.000Z</time>
      </trkpt>
      <trkpt lat="43.86377" lon="7.23765">
        <ele>675</ele>
        <time>2018-04-26T11:06:02.000Z</time>
      </trkpt>
      <trkpt lat="43.86369" lon="7.2376">
        <ele>674</ele>
        <time>2018-04-26T11:06:04.000Z</time>
      </trkpt>
      <trkpt lat="43.86362" lon="7.23754">
        <ele>673</ele>
        <time>2018-04-26T11:06:06.000Z</time>
      </trkpt>
      <trkpt lat="43.86359" lon="7.2375">
        <ele>662</ele>
        <time>2018-04-26T11:06:07.000Z</time>
      </trkpt>
      <trkpt lat="43.86351" lon="7.23735">
        <ele>661</ele>
        <time>2018-04-26T11:06:11.000Z</time>
      </trkpt>
      <trkpt lat="43.86332" lon="7.2372">
        <ele>650</ele>
        <time>2018-04-26T11:06:17.000Z</time>
      </trkpt>
      <trkpt lat="43.86317" lon="7.23726">
        <ele>651</ele>
        <time>2018-04-26T11:06:21.000Z</time>
      </trkpt>
      <trkpt lat="43.86291" lon="7.23743">
        <ele>649</ele>
        <time>2018-04-26T11:06:28.000Z</time>
      </trkpt>
      <trkpt lat="43.86276" lon="7.23753">
        <ele>664</ele>
        <time>2018-04-26T11:06:32.000Z</time>
      </trkpt>
      <trkpt lat="43.86265" lon="7.23762">
        <ele>662</ele>
        <time>2018-04-26T11:06:35.000Z</time>
      </trkpt>
      <trkpt lat="43.86231" lon="7.23779">
        <ele>664</ele>
        <time>2018-04-26T11:06:43.000Z</time>
      </trkpt>
      <trkpt lat="43.86202" lon="7.2379">
        <ele>666</ele>
        <time>2018-04-26T11:06:50.000Z</time>
      </trkpt>
      <trkpt lat="43.86182" lon="7.23796">
        <ele>667</ele>
        <time>2018-04-26T11:06:55.000Z</time>
      </trkpt>
      <trkpt lat="43.86173" lon="7.23794">
        <ele>667</ele>
        <time>2018-04-26T11:06:57.000Z</time>
      </trkpt>
      <trkpt lat="43.86165" lon="7.23782">
        <ele>672</ele>
        <time>2018-04-26T11:07:00.000Z</time>
      </trkpt>
      <trkpt lat="43.86166" lon="7.23764">
        <ele>668</ele>
        <time>2018-04-26T11:07:04.000Z</time>
      </trkpt>
      <trkpt lat="43.86166" lon="7.23758">
        <ele>666</ele>
        <time>2018-04-26T11:07:05.000Z</time>
      </trkpt>
      <trkpt lat="43.86169" lon="7.23729">
        <ele>654</ele>
        <time>2018-04-26T11:07:10.000Z</time>
      </trkpt>
      <trkpt lat="43.8617" lon="7.23719">
        <ele>652</ele>
        <time>2018-04-26T11:07:12.000Z</time>
      </trkpt>
      <trkpt lat="43.8617" lon="7.23699">
        <ele>650</ele>
        <time>2018-04-26T11:07:16.000Z</time>
      </trkpt>
      <trkpt lat="43.86168" lon="7.23678">
        <ele>650</ele>
        <time>2018-04-26T11:07:21.000Z</time>
      </trkpt>
      <trkpt lat="43.86164" lon="7.23672">
        <ele>655</ele>
        <time>2018-04-26T11:07:25.000Z</time>
      </trkpt>
      <trkpt lat="43.86163" lon="7.23671">
        <ele>655</ele>
        <time>2018-04-26T11:07:26.000Z</time>
      </trkpt>
      <trkpt lat="43.86161" lon="7.23668">
        <ele>655</ele>
        <time>2018-04-26T11:07:28.000Z</time>
      </trkpt>
      <trkpt lat="43.86155" lon="7.23664">
        <ele>651</ele>
        <time>2018-04-26T11:07:32.000Z</time>
      </trkpt>
      <trkpt lat="43.86151" lon="7.23663">
        <ele>650</ele>
        <time>2018-04-26T11:07:36.000Z</time>
      </trkpt>
      <trkpt lat="43.86149" lon="7.23665">
        <ele>650</ele>
        <time>2018-04-26T11:07:38.000Z</time>
      </trkpt>
      <trkpt lat="43.86149" lon="7.23666">
        <ele>651</ele>
        <time>2018-04-26T11:07:39.000Z</time>
      </trkpt>
      <trkpt lat="43.86148" lon="7.2367">
        <ele>658</ele>
        <time>2018-04-26T11:07:41.000Z</time>
      </trkpt>
      <trkpt lat="43.86149" lon="7.23674">
        <ele>659</ele>
        <time>2018-04-26T11:07:43.000Z</time>
      </trkpt>
      <trkpt lat="43.86152" lon="7.2368">
        <ele>659</ele>
        <time>2018-04-26T11:07:47.000Z</time>
      </trkpt>
      <trkpt lat="43.86153" lon="7.23685">
        <ele>659</ele>
        <time>2018-04-26T11:07:50.000Z</time>
      </trkpt>
      <trkpt lat="43.86153" lon="7.23692">
        <ele>660</ele>
        <time>2018-04-26T11:07:54.000Z</time>
      </trkpt>
      <trkpt lat="43.86154" lon="7.23698">
        <ele>661</ele>
        <time>2018-04-26T11:07:57.000Z</time>
      </trkpt>
      <trkpt lat="43.86154" lon="7.23719">
        <ele>663</ele>
        <time>2018-04-26T11:08:06.000Z</time>
      </trkpt>
      <trkpt lat="43.86151" lon="7.2374">
        <ele>664</ele>
        <time>2018-04-26T11:08:13.000Z</time>
      </trkpt>
      <trkpt lat="43.86147" lon="7.23758">
        <ele>670</ele>
        <time>2018-04-26T11:08:20.000Z</time>
      </trkpt>
      <trkpt lat="43.86146" lon="7.2376">
        <ele>671</ele>
        <time>2018-04-26T11:08:21.000Z</time>
      </trkpt>
      <trkpt lat="43.86143" lon="7.23774">
        <ele>673</ele>
        <time>2018-04-26T11:08:27.000Z</time>
      </trkpt>
      <trkpt lat="43.8614" lon="7.23785">
        <ele>674</ele>
        <time>2018-04-26T11:08:31.000Z</time>
      </trkpt>
      <trkpt lat="43.86139" lon="7.23791">
        <ele>675</ele>
        <time>2018-04-26T11:08:33.000Z</time>
      </trkpt>
      <trkpt lat="43.86136" lon="7.238">
        <ele>676</ele>
        <time>2018-04-26T11:08:36.000Z</time>
      </trkpt>
      <trkpt lat="43.86133" lon="7.23811">
        <ele>676</ele>
        <time>2018-04-26T11:08:40.000Z</time>
      </trkpt>
      <trkpt lat="43.8613" lon="7.23821">
        <ele>677</ele>
        <time>2018-04-26T11:08:44.000Z</time>
      </trkpt>
      <trkpt lat="43.86128" lon="7.23831">
        <ele>678</ele>
        <time>2018-04-26T11:08:48.000Z</time>
      </trkpt>
      <trkpt lat="43.86127" lon="7.23835">
        <ele>681</ele>
        <time>2018-04-26T11:08:50.000Z</time>
      </trkpt>
      <trkpt lat="43.86126" lon="7.23846">
        <ele>682</ele>
        <time>2018-04-26T11:08:54.000Z</time>
      </trkpt>
      <trkpt lat="43.86126" lon="7.23848">
        <ele>682</ele>
        <time>2018-04-26T11:08:55.000Z</time>
      </trkpt>
      <trkpt lat="43.86128" lon="7.23859">
        <ele>682</ele>
        <time>2018-04-26T11:09:00.000Z</time>
      </trkpt>
      <trkpt lat="43.86128" lon="7.23861">
        <ele>682</ele>
        <time>2018-04-26T11:09:01.000Z</time>
      </trkpt>
      <trkpt lat="43.8613" lon="7.2387">
        <ele>682</ele>
        <time>2018-04-26T11:09:06.000Z</time>
      </trkpt>
      <trkpt lat="43.86131" lon="7.23872">
        <ele>682</ele>
        <time>2018-04-26T11:09:07.000Z</time>
      </trkpt>
      <trkpt lat="43.86131" lon="7.23879">
        <ele>682</ele>
        <time>2018-04-26T11:09:11.000Z</time>
      </trkpt>
      <trkpt lat="43.86131" lon="7.23881">
        <ele>682</ele>
        <time>2018-04-26T11:09:12.000Z</time>
      </trkpt>
      <trkpt lat="43.86131" lon="7.23883">
        <ele>682</ele>
        <time>2018-04-26T11:09:13.000Z</time>
      </trkpt>
      <trkpt lat="43.86132" lon="7.23886">
        <ele>682</ele>
        <time>2018-04-26T11:09:15.000Z</time>
      </trkpt>
      <trkpt lat="43.86133" lon="7.23891">
        <ele>682</ele>
        <time>2018-04-26T11:09:18.000Z</time>
      </trkpt>
      <trkpt lat="43.86133" lon="7.23892">
        <ele>682</ele>
        <time>2018-04-26T11:09:19.000Z</time>
      </trkpt>
      <trkpt lat="43.86133" lon="7.23894">
        <ele>682</ele>
        <time>2018-04-26T11:09:20.000Z</time>
      </trkpt>
      <trkpt lat="43.86134" lon="7.23901">
        <ele>682</ele>
        <time>2018-04-26T11:09:25.000Z</time>
      </trkpt>
      <trkpt lat="43.86134" lon="7.23902">
        <ele>682</ele>
        <time>2018-04-26T11:09:26.000Z</time>
      </trkpt>
      <trkpt lat="43.86134" lon="7.23904">
        <ele>682</ele>
        <time>2018-04-26T11:09:27.000Z</time>
      </trkpt>
      <trkpt lat="43.86133" lon="7.23908">
        <ele>682</ele>
        <time>2018-04-26T11:09:30.000Z</time>
      </trkpt>
      <trkpt lat="43.86133" lon="7.23911">
        <ele>682</ele>
        <time>2018-04-26T11:09:32.000Z</time>
      </trkpt>
      <trkpt lat="43.86132" lon="7.23915">
        <ele>682</ele>
        <time>2018-04-26T11:09:36.000Z</time>
      </trkpt>
      <trkpt lat="43.86129" lon="7.23921">
        <ele>683</ele>
        <time>2018-04-26T11:09:41.000Z</time>
      </trkpt>
      <trkpt lat="43.86129" lon="7.23922">
        <ele>683</ele>
        <time>2018-04-26T11:09:42.000Z</time>
      </trkpt>
      <trkpt lat="43.86127" lon="7.23922">
        <ele>683</ele>
        <time>2018-04-26T11:09:43.000Z</time>
      </trkpt>
      <trkpt lat="43.8612" lon="7.2392">
        <ele>683</ele>
        <time>2018-04-26T11:09:45.000Z</time>
      </trkpt>
      <trkpt lat="43.86112" lon="7.23916">
        <ele>683</ele>
        <time>2018-04-26T11:09:47.000Z</time>
      </trkpt>
      <trkpt lat="43.86105" lon="7.23915">
        <ele>683</ele>
        <time>2018-04-26T11:09:49.000Z</time>
      </trkpt>
      <trkpt lat="43.86103" lon="7.23912">
        <ele>684</ele>
        <time>2018-04-26T11:09:50.000Z</time>
      </trkpt>
      <trkpt lat="43.86101" lon="7.23911">
        <ele>684</ele>
        <time>2018-04-26T11:09:51.000Z</time>
      </trkpt>
      <trkpt lat="43.86096" lon="7.23909">
        <ele>684</ele>
        <time>2018-04-26T11:09:53.000Z</time>
      </trkpt>
      <trkpt lat="43.86091" lon="7.23902">
        <ele>684</ele>
        <time>2018-04-26T11:09:58.000Z</time>
      </trkpt>
      <trkpt lat="43.86083" lon="7.23889">
        <ele>690</ele>
        <time>2018-04-26T11:10:06.000Z</time>
      </trkpt>
      <trkpt lat="43.8608" lon="7.23883">
        <ele>690</ele>
        <time>2018-04-26T11:10:09.000Z</time>
      </trkpt>
      <trkpt lat="43.86077" lon="7.23878">
        <ele>690</ele>
        <time>2018-04-26T11:10:13.000Z</time>
      </trkpt>
      <trkpt lat="43.86076" lon="7.23876">
        <ele>691</ele>
        <time>2018-04-26T11:10:14.000Z</time>
      </trkpt>
      <trkpt lat="43.86073" lon="7.23871">
        <ele>691</ele>
        <time>2018-04-26T11:10:18.000Z</time>
      </trkpt>
      <trkpt lat="43.86073" lon="7.2387">
        <ele>691</ele>
        <time>2018-04-26T11:10:19.000Z</time>
      </trkpt>
      <trkpt lat="43.86071" lon="7.23867">
        <ele>691</ele>
        <time>2018-04-26T11:10:22.000Z</time>
      </trkpt>
      <trkpt lat="43.86068" lon="7.23864">
        <ele>691</ele>
        <time>2018-04-26T11:10:26.000Z</time>
      </trkpt>
      <trkpt lat="43.86067" lon="7.23863">
        <ele>691</ele>
        <time>2018-04-26T11:10:27.000Z</time>
      </trkpt>
      <trkpt lat="43.86067" lon="7.23862">
        <ele>691</ele>
        <time>2018-04-26T11:10:28.000Z</time>
      </trkpt>
      <trkpt lat="43.86066" lon="7.23859">
        <ele>691</ele>
        <time>2018-04-26T11:10:31.000Z</time>
      </trkpt>
      <trkpt lat="43.86066" lon="7.23859">
        <ele>691</ele>
        <time>2018-04-26T11:10:33.000Z</time>
      </trkpt>
      <trkpt lat="43.86066" lon="7.23859">
        <ele>691</ele>
        <time>2018-04-26T11:10:36.000Z</time>
      </trkpt>
      <trkpt lat="43.86065" lon="7.23858">
        <ele>691</ele>
        <time>2018-04-26T11:10:41.000Z</time>
      </trkpt>
      <trkpt lat="43.86063" lon="7.23857">
        <ele>691</ele>
        <time>2018-04-26T11:10:47.000Z</time>
      </trkpt>
      <trkpt lat="43.8606" lon="7.23853">
        <ele>691</ele>
        <time>2018-04-26T11:10:52.000Z</time>
      </trkpt>
      <trkpt lat="43.86058" lon="7.2385">
        <ele>692</ele>
        <time>2018-04-26T11:10:57.000Z</time>
      </trkpt>
      <trkpt lat="43.86058" lon="7.23849">
        <ele>692</ele>
        <time>2018-04-26T11:10:58.000Z</time>
      </trkpt>
      <trkpt lat="43.86055" lon="7.23845">
        <ele>692</ele>
        <time>2018-04-26T11:11:04.000Z</time>
      </trkpt>
      <trkpt lat="43.86055" lon="7.23845">
        <ele>692</ele>
        <time>2018-04-26T11:11:05.000Z</time>
      </trkpt>
      <trkpt lat="43.86052" lon="7.2384">
        <ele>692</ele>
        <time>2018-04-26T11:11:11.000Z</time>
      </trkpt>
      <trkpt lat="43.86051" lon="7.23838">
        <ele>692</ele>
        <time>2018-04-26T11:11:14.000Z</time>
      </trkpt>
      <trkpt lat="43.8605" lon="7.23835">
        <ele>692</ele>
        <time>2018-04-26T11:11:18.000Z</time>
      </trkpt>
      <trkpt lat="43.86048" lon="7.23831">
        <ele>689</ele>
        <time>2018-04-26T11:11:23.000Z</time>
      </trkpt>
      <trkpt lat="43.86046" lon="7.23827">
        <ele>689</ele>
        <time>2018-04-26T11:11:28.000Z</time>
      </trkpt>
      <trkpt lat="43.86043" lon="7.23824">
        <ele>689</ele>
        <time>2018-04-26T11:11:32.000Z</time>
      </trkpt>
      <trkpt lat="43.86042" lon="7.23824">
        <ele>689</ele>
        <time>2018-04-26T11:11:33.000Z</time>
      </trkpt>
      <trkpt lat="43.86036" lon="7.23824">
        <ele>690</ele>
        <time>2018-04-26T11:11:38.000Z</time>
      </trkpt>
      <trkpt lat="43.86034" lon="7.23826">
        <ele>690</ele>
        <time>2018-04-26T11:11:40.000Z</time>
      </trkpt>
      <trkpt lat="43.86029" lon="7.2383">
        <ele>691</ele>
        <time>2018-04-26T11:11:45.000Z</time>
      </trkpt>
      <trkpt lat="43.86021" lon="7.23834">
        <ele>695</ele>
        <time>2018-04-26T11:11:52.000Z</time>
      </trkpt>
      <trkpt lat="43.8602" lon="7.23835">
        <ele>695</ele>
        <time>2018-04-26T11:11:53.000Z</time>
      </trkpt>
      <trkpt lat="43.86015" lon="7.23838">
        <ele>695</ele>
        <time>2018-04-26T11:11:58.000Z</time>
      </trkpt>
      <trkpt lat="43.86014" lon="7.23839">
        <ele>696</ele>
        <time>2018-04-26T11:11:59.000Z</time>
      </trkpt>
      <trkpt lat="43.86007" lon="7.23845">
        <ele>696</ele>
        <time>2018-04-26T11:12:05.000Z</time>
      </trkpt>
      <trkpt lat="43.86004" lon="7.23847">
        <ele>696</ele>
        <time>2018-04-26T11:12:08.000Z</time>
      </trkpt>
      <trkpt lat="43.85998" lon="7.2385">
        <ele>699</ele>
        <time>2018-04-26T11:12:12.000Z</time>
      </trkpt>
      <trkpt lat="43.8599" lon="7.23855">
        <ele>700</ele>
        <time>2018-04-26T11:12:18.000Z</time>
      </trkpt>
      <trkpt lat="43.85986" lon="7.23857">
        <ele>700</ele>
        <time>2018-04-26T11:12:21.000Z</time>
      </trkpt>
      <trkpt lat="43.85981" lon="7.23861">
        <ele>700</ele>
        <time>2018-04-26T11:12:25.000Z</time>
      </trkpt>
      <trkpt lat="43.85976" lon="7.23865">
        <ele>700</ele>
        <time>2018-04-26T11:12:29.000Z</time>
      </trkpt>
      <trkpt lat="43.85969" lon="7.23872">
        <ele>701</ele>
        <time>2018-04-26T11:12:35.000Z</time>
      </trkpt>
      <trkpt lat="43.85965" lon="7.23875">
        <ele>701</ele>
        <time>2018-04-26T11:12:38.000Z</time>
      </trkpt>
      <trkpt lat="43.85959" lon="7.23879">
        <ele>701</ele>
        <time>2018-04-26T11:12:42.000Z</time>
      </trkpt>
      <trkpt lat="43.85956" lon="7.23883">
        <ele>701</ele>
        <time>2018-04-26T11:12:45.000Z</time>
      </trkpt>
      <trkpt lat="43.85949" lon="7.23889">
        <ele>702</ele>
        <time>2018-04-26T11:12:50.000Z</time>
      </trkpt>
      <trkpt lat="43.85945" lon="7.23892">
        <ele>702</ele>
        <time>2018-04-26T11:12:53.000Z</time>
      </trkpt>
      <trkpt lat="43.85939" lon="7.23895">
        <ele>703</ele>
        <time>2018-04-26T11:12:57.000Z</time>
      </trkpt>
      <trkpt lat="43.85938" lon="7.23895">
        <ele>703</ele>
        <time>2018-04-26T11:12:58.000Z</time>
      </trkpt>
      <trkpt lat="43.85933" lon="7.23898">
        <ele>704</ele>
        <time>2018-04-26T11:13:03.000Z</time>
      </trkpt>
      <trkpt lat="43.85932" lon="7.23899">
        <ele>704</ele>
        <time>2018-04-26T11:13:04.000Z</time>
      </trkpt>
      <trkpt lat="43.85926" lon="7.23904">
        <ele>705</ele>
        <time>2018-04-26T11:13:10.000Z</time>
      </trkpt>
      <trkpt lat="43.85924" lon="7.23906">
        <ele>706</ele>
        <time>2018-04-26T11:13:12.000Z</time>
      </trkpt>
      <trkpt lat="43.8592" lon="7.23908">
        <ele>706</ele>
        <time>2018-04-26T11:13:16.000Z</time>
      </trkpt>
      <trkpt lat="43.85919" lon="7.23908">
        <ele>706</ele>
        <time>2018-04-26T11:13:17.000Z</time>
      </trkpt>
      <trkpt lat="43.85914" lon="7.23904">
        <ele>707</ele>
        <time>2018-04-26T11:13:22.000Z</time>
      </trkpt>
      <trkpt lat="43.85913" lon="7.23903">
        <ele>707</ele>
        <time>2018-04-26T11:13:23.000Z</time>
      </trkpt>
      <trkpt lat="43.85906" lon="7.23898">
        <ele>706</ele>
        <time>2018-04-26T11:13:29.000Z</time>
      </trkpt>
      <trkpt lat="43.85903" lon="7.23897">
        <ele>706</ele>
        <time>2018-04-26T11:13:31.000Z</time>
      </trkpt>
      <trkpt lat="43.85898" lon="7.239">
        <ele>706</ele>
        <time>2018-04-26T11:13:34.000Z</time>
      </trkpt>
      <trkpt lat="43.85894" lon="7.23903">
        <ele>706</ele>
        <time>2018-04-26T11:13:37.000Z</time>
      </trkpt>
      <trkpt lat="43.85888" lon="7.23907">
        <ele>707</ele>
        <time>2018-04-26T11:13:42.000Z</time>
      </trkpt>
      <trkpt lat="43.85884" lon="7.2391">
        <ele>707</ele>
        <time>2018-04-26T11:13:45.000Z</time>
      </trkpt>
      <trkpt lat="43.85875" lon="7.23916">
        <ele>707</ele>
        <time>2018-04-26T11:13:51.000Z</time>
      </trkpt>
      <trkpt lat="43.8587" lon="7.23917">
        <ele>709</ele>
        <time>2018-04-26T11:13:54.000Z</time>
      </trkpt>
      <trkpt lat="43.85863" lon="7.23915">
        <ele>708</ele>
        <time>2018-04-26T11:13:58.000Z</time>
      </trkpt>
      <trkpt lat="43.8585" lon="7.23914">
        <ele>709</ele>
        <time>2018-04-26T11:14:05.000Z</time>
      </trkpt>
      <trkpt lat="43.85833" lon="7.23919">
        <ele>713</ele>
        <time>2018-04-26T11:14:11.000Z</time>
      </trkpt>
      <trkpt lat="43.85829" lon="7.2392">
        <ele>711</ele>
        <time>2018-04-26T11:14:12.000Z</time>
      </trkpt>
      <trkpt lat="43.85808" lon="7.23927">
        <ele>707</ele>
        <time>2018-04-26T11:14:17.000Z</time>
      </trkpt>
      <trkpt lat="43.85793" lon="7.2393">
        <ele>706</ele>
        <time>2018-04-26T11:14:20.000Z</time>
      </trkpt>
      <trkpt lat="43.85782" lon="7.23932">
        <ele>705</ele>
        <time>2018-04-26T11:14:22.000Z</time>
      </trkpt>
      <trkpt lat="43.85777" lon="7.23934">
        <ele>705</ele>
        <time>2018-04-26T11:14:23.000Z</time>
      </trkpt>
      <trkpt lat="43.85771" lon="7.23936">
        <ele>704</ele>
        <time>2018-04-26T11:14:24.000Z</time>
      </trkpt>
      <trkpt lat="43.85761" lon="7.23939">
        <ele>704</ele>
        <time>2018-04-26T11:14:26.000Z</time>
      </trkpt>
      <trkpt lat="43.8575" lon="7.23942">
        <ele>704</ele>
        <time>2018-04-26T11:14:28.000Z</time>
      </trkpt>
      <trkpt lat="43.85746" lon="7.23943">
        <ele>697</ele>
        <time>2018-04-26T11:14:29.000Z</time>
      </trkpt>
      <trkpt lat="43.85741" lon="7.23941">
        <ele>697</ele>
        <time>2018-04-26T11:14:30.000Z</time>
      </trkpt>
      <trkpt lat="43.85737" lon="7.23939">
        <ele>697</ele>
        <time>2018-04-26T11:14:31.000Z</time>
      </trkpt>
      <trkpt lat="43.85733" lon="7.23935">
        <ele>697</ele>
        <time>2018-04-26T11:14:33.000Z</time>
      </trkpt>
      <trkpt lat="43.85731" lon="7.23933">
        <ele>697</ele>
        <time>2018-04-26T11:14:36.000Z</time>
      </trkpt>
      <trkpt lat="43.85731" lon="7.23933">
        <ele>697</ele>
        <time>2018-04-26T11:14:37.000Z</time>
      </trkpt>
      <trkpt lat="43.85731" lon="7.23933">
        <ele>697</ele>
        <time>2018-04-26T11:14:44.000Z</time>
      </trkpt>
      <trkpt lat="43.8573" lon="7.23933">
        <ele>697</ele>
        <time>2018-04-26T11:14:53.000Z</time>
      </trkpt>
      <trkpt lat="43.85721" lon="7.23931">
        <ele>696</ele>
        <time>2018-04-26T11:14:58.000Z</time>
      </trkpt>
      <trkpt lat="43.85719" lon="7.23932">
        <ele>695</ele>
        <time>2018-04-26T11:15:00.000Z</time>
      </trkpt>
      <trkpt lat="43.85718" lon="7.23932">
        <ele>695</ele>
        <time>2018-04-26T11:15:03.000Z</time>
      </trkpt>
      <trkpt lat="43.85718" lon="7.23932">
        <ele>695</ele>
        <time>2018-04-26T11:15:04.000Z</time>
      </trkpt>
      <trkpt lat="43.85721" lon="7.23931">
        <ele>696</ele>
        <time>2018-04-26T11:15:08.000Z</time>
      </trkpt>
      <trkpt lat="43.85723" lon="7.2393">
        <ele>696</ele>
        <time>2018-04-26T11:15:10.000Z</time>
      </trkpt>
      <trkpt lat="43.85724" lon="7.23929">
        <ele>696</ele>
        <time>2018-04-26T11:15:16.000Z</time>
      </trkpt>
      <trkpt lat="43.85724" lon="7.23927">
        <ele>696</ele>
        <time>2018-04-26T11:15:19.000Z</time>
      </trkpt>
      <trkpt lat="43.85722" lon="7.2392">
        <ele>696</ele>
        <time>2018-04-26T11:15:22.000Z</time>
      </trkpt>
      <trkpt lat="43.85719" lon="7.23917">
        <ele>696</ele>
        <time>2018-04-26T11:15:24.000Z</time>
      </trkpt>
      <trkpt lat="43.85717" lon="7.23915">
        <ele>690</ele>
        <time>2018-04-26T11:15:26.000Z</time>
      </trkpt>
      <trkpt lat="43.85717" lon="7.23915">
        <ele>690</ele>
        <time>2018-04-26T11:15:28.000Z</time>
      </trkpt>
      <trkpt lat="43.85717" lon="7.23915">
        <ele>690</ele>
        <time>2018-04-26T11:15:31.000Z</time>
      </trkpt>
      <trkpt lat="43.85715" lon="7.23916">
        <ele>690</ele>
        <time>2018-04-26T11:15:38.000Z</time>
      </trkpt>
      <trkpt lat="43.85713" lon="7.23917">
        <ele>695</ele>
        <time>2018-04-26T11:15:46.000Z</time>
      </trkpt>
      <trkpt lat="43.85711" lon="7.23922">
        <ele>695</ele>
        <time>2018-04-26T11:15:52.000Z</time>
      </trkpt>
      <trkpt lat="43.85705" lon="7.23925">
        <ele>694</ele>
        <time>2018-04-26T11:15:58.000Z</time>
      </trkpt>
      <trkpt lat="43.85703" lon="7.23925">
        <ele>693</ele>
        <time>2018-04-26T11:16:03.000Z</time>
      </trkpt>
      <trkpt lat="43.85704" lon="7.23925">
        <ele>694</ele>
        <time>2018-04-26T11:16:10.000Z</time>
      </trkpt>
      <trkpt lat="43.85704" lon="7.23925">
        <ele>694</ele>
        <time>2018-04-26T11:16:11.000Z</time>
      </trkpt>
      <trkpt lat="43.85708" lon="7.23922">
        <ele>694</ele>
        <time>2018-04-26T11:16:17.000Z</time>
      </trkpt>
      <trkpt lat="43.85708" lon="7.23921">
        <ele>694</ele>
        <time>2018-04-26T11:16:18.000Z</time>
      </trkpt>
      <trkpt lat="43.85708" lon="7.2392">
        <ele>694</ele>
        <time>2018-04-26T11:16:25.000Z</time>
      </trkpt>
      <trkpt lat="43.85707" lon="7.23921">
        <ele>694</ele>
        <time>2018-04-26T11:16:49.000Z</time>
      </trkpt>
      <trkpt lat="43.85708" lon="7.23921">
        <ele>694</ele>
        <time>2018-04-26T11:17:00.000Z</time>
      </trkpt>
      <trkpt lat="43.85708" lon="7.23921">
        <ele>694</ele>
        <time>2018-04-26T11:17:07.000Z</time>
      </trkpt>
      <trkpt lat="43.85708" lon="7.23921">
        <ele>694</ele>
        <time>2018-04-26T11:17:17.000Z</time>
      </trkpt>
      <trkpt lat="43.85708" lon="7.23921">
        <ele>694</ele>
        <time>2018-04-26T11:17:31.000Z</time>
      </trkpt>
      <trkpt lat="43.85708" lon="7.23921">
        <ele>694</ele>
        <time>2018-04-26T11:17:39.000Z</time>
      </trkpt>
      <trkpt lat="43.85707" lon="7.23922">
        <ele>694</ele>
        <time>2018-04-26T11:17:54.000Z</time>
      </trkpt>
      <trkpt lat="43.85706" lon="7.23924">
        <ele>694</ele>
        <time>2018-04-26T11:18:17.000Z</time>
      </trkpt>
      <trkpt lat="43.85707" lon="7.23925">
        <ele>694</ele>
        <time>2018-04-26T11:18:45.000Z</time>
      </trkpt>
      <trkpt lat="43.85706" lon="7.23924">
        <ele>694</ele>
        <time>2018-04-26T11:19:08.000Z</time>
      </trkpt>
      <trkpt lat="43.85707" lon="7.23924">
        <ele>694</ele>
        <time>2018-04-26T11:19:32.000Z</time>
      </trkpt>
      <trkpt lat="43.85706" lon="7.23923">
        <ele>694</ele>
        <time>2018-04-26T11:19:50.000Z</time>
      </trkpt>
      <trkpt lat="43.85707" lon="7.23922">
        <ele>694</ele>
        <time>2018-04-26T11:20:05.000Z</time>
      </trkpt>
      <trkpt lat="43.85708" lon="7.23923">
        <ele>694</ele>
        <time>2018-04-26T11:20:11.000Z</time>
      </trkpt>
      <trkpt lat="43.85708" lon="7.23923">
        <ele>694</ele>
        <time>2018-04-26T11:20:16.000Z</time>
      </trkpt>
      <trkpt lat="43.85705" lon="7.23923">
        <ele>694</ele>
        <time>2018-04-26T11:20:22.000Z</time>
      </trkpt>
      <trkpt lat="43.857" lon="7.23923">
        <ele>693</ele>
        <time>2018-04-26T11:20:29.000Z</time>
      </trkpt>
      <trkpt lat="43.85696" lon="7.23921">
        <ele>693</ele>
        <time>2018-04-26T11:20:32.000Z</time>
      </trkpt>
      <trkpt lat="43.85695" lon="7.2392">
        <ele>692</ele>
        <time>2018-04-26T11:20:33.000Z</time>
      </trkpt>
      <trkpt lat="43.85694" lon="7.23919">
        <ele>692</ele>
        <time>2018-04-26T11:20:35.000Z</time>
      </trkpt>
      <trkpt lat="43.85693" lon="7.23918">
        <ele>692</ele>
        <time>2018-04-26T11:20:37.000Z</time>
      </trkpt>
      <trkpt lat="43.85689" lon="7.23917">
        <ele>687</ele>
        <time>2018-04-26T11:20:40.000Z</time>
      </trkpt>
      <trkpt lat="43.85687" lon="7.23915">
        <ele>687</ele>
        <time>2018-04-26T11:20:42.000Z</time>
      </trkpt>
      <trkpt lat="43.85686" lon="7.23915">
        <ele>687</ele>
        <time>2018-04-26T11:20:43.000Z</time>
      </trkpt>
      <trkpt lat="43.85685" lon="7.23915">
        <ele>687</ele>
        <time>2018-04-26T11:20:44.000Z</time>
      </trkpt>
      <trkpt lat="43.85684" lon="7.23916">
        <ele>687</ele>
        <time>2018-04-26T11:20:45.000Z</time>
      </trkpt>
      <trkpt lat="43.85682" lon="7.23916">
        <ele>687</ele>
        <time>2018-04-26T11:20:47.000Z</time>
      </trkpt>
      <trkpt lat="43.85681" lon="7.23916">
        <ele>687</ele>
        <time>2018-04-26T11:20:48.000Z</time>
      </trkpt>
      <trkpt lat="43.85675" lon="7.23917">
        <ele>689</ele>
        <time>2018-04-26T11:20:53.000Z</time>
      </trkpt>
      <trkpt lat="43.85671" lon="7.23916">
        <ele>687</ele>
        <time>2018-04-26T11:20:56.000Z</time>
      </trkpt>
      <trkpt lat="43.85669" lon="7.23916">
        <ele>687</ele>
        <time>2018-04-26T11:20:58.000Z</time>
      </trkpt>
      <trkpt lat="43.85668" lon="7.23917">
        <ele>687</ele>
        <time>2018-04-26T11:21:00.000Z</time>
      </trkpt>
      <trkpt lat="43.85667" lon="7.23917">
        <ele>687</ele>
        <time>2018-04-26T11:21:01.000Z</time>
      </trkpt>
      <trkpt lat="43.85667" lon="7.23916">
        <ele>687</ele>
        <time>2018-04-26T11:21:04.000Z</time>
      </trkpt>
      <trkpt lat="43.85669" lon="7.23915">
        <ele>687</ele>
        <time>2018-04-26T11:21:06.000Z</time>
      </trkpt>
      <trkpt lat="43.85671" lon="7.23915">
        <ele>687</ele>
        <time>2018-04-26T11:21:08.000Z</time>
      </trkpt>
      <trkpt lat="43.85673" lon="7.23916">
        <ele>687</ele>
        <time>2018-04-26T11:21:11.000Z</time>
      </trkpt>
      <trkpt lat="43.85678" lon="7.23916">
        <ele>687</ele>
        <time>2018-04-26T11:21:16.000Z</time>
      </trkpt>
      <trkpt lat="43.85679" lon="7.23916">
        <ele>687</ele>
        <time>2018-04-26T11:21:17.000Z</time>
      </trkpt>
      <trkpt lat="43.8568" lon="7.23916">
        <ele>687</ele>
        <time>2018-04-26T11:21:18.000Z</time>
      </trkpt>
      <trkpt lat="43.85684" lon="7.23913">
        <ele>687</ele>
        <time>2018-04-26T11:21:21.000Z</time>
      </trkpt>
      <trkpt lat="43.85685" lon="7.23913">
        <ele>687</ele>
        <time>2018-04-26T11:21:22.000Z</time>
      </trkpt>
      <trkpt lat="43.85686" lon="7.23912">
        <ele>687</ele>
        <time>2018-04-26T11:21:23.000Z</time>
      </trkpt>
      <trkpt lat="43.85687" lon="7.23914">
        <ele>687</ele>
        <time>2018-04-26T11:21:24.000Z</time>
      </trkpt>
      <trkpt lat="43.8569" lon="7.23915">
        <ele>687</ele>
        <time>2018-04-26T11:21:28.000Z</time>
      </trkpt>
      <trkpt lat="43.85691" lon="7.23916">
        <ele>687</ele>
        <time>2018-04-26T11:21:29.000Z</time>
      </trkpt>
      <trkpt lat="43.85693" lon="7.23917">
        <ele>692</ele>
        <time>2018-04-26T11:21:32.000Z</time>
      </trkpt>
      <trkpt lat="43.85694" lon="7.23917">
        <ele>692</ele>
        <time>2018-04-26T11:21:33.000Z</time>
      </trkpt>
      <trkpt lat="43.85696" lon="7.23919">
        <ele>693</ele>
        <time>2018-04-26T11:21:36.000Z</time>
      </trkpt>
      <trkpt lat="43.85696" lon="7.23919">
        <ele>693</ele>
        <time>2018-04-26T11:21:37.000Z</time>
      </trkpt>
      <trkpt lat="43.85698" lon="7.2392">
        <ele>693</ele>
        <time>2018-04-26T11:21:39.000Z</time>
      </trkpt>
      <trkpt lat="43.85699" lon="7.2392">
        <ele>693</ele>
        <time>2018-04-26T11:21:40.000Z</time>
      </trkpt>
      <trkpt lat="43.85701" lon="7.23921">
        <ele>693</ele>
        <time>2018-04-26T11:21:42.000Z</time>
      </trkpt>
      <trkpt lat="43.85701" lon="7.23921">
        <ele>693</ele>
        <time>2018-04-26T11:21:46.000Z</time>
      </trkpt>
      <trkpt lat="43.85701" lon="7.23921">
        <ele>693</ele>
        <time>2018-04-26T11:21:47.000Z</time>
      </trkpt>
      <trkpt lat="43.85702" lon="7.23921">
        <ele>693</ele>
        <time>2018-04-26T11:21:48.000Z</time>
      </trkpt>
      <trkpt lat="43.85702" lon="7.23921">
        <ele>693</ele>
        <time>2018-04-26T11:21:50.000Z</time>
      </trkpt>
      <trkpt lat="43.85702" lon="7.23921">
        <ele>693</ele>
        <time>2018-04-26T11:21:57.000Z</time>
      </trkpt>
      <trkpt lat="43.85702" lon="7.23922">
        <ele>693</ele>
        <time>2018-04-26T11:22:04.000Z</time>
      </trkpt>
      <trkpt lat="43.85702" lon="7.23922">
        <ele>693</ele>
        <time>2018-04-26T11:22:06.000Z</time>
      </trkpt>
      <trkpt lat="43.85702" lon="7.23922">
        <ele>693</ele>
        <time>2018-04-26T11:22:14.000Z</time>
      </trkpt>
      <trkpt lat="43.85705" lon="7.23921">
        <ele>694</ele>
        <time>2018-04-26T11:22:21.000Z</time>
      </trkpt>
      <trkpt lat="43.85707" lon="7.23924">
        <ele>694</ele>
        <time>2018-04-26T11:22:27.000Z</time>
      </trkpt>
      <trkpt lat="43.85708" lon="7.23923">
        <ele>694</ele>
        <time>2018-04-26T11:22:32.000Z</time>
      </trkpt>
      <trkpt lat="43.85708" lon="7.23923">
        <ele>694</ele>
        <time>2018-04-26T11:22:33.000Z</time>
      </trkpt>
      <trkpt lat="43.85708" lon="7.23922">
        <ele>694</ele>
        <time>2018-04-26T11:22:40.000Z</time>
      </trkpt>
      <trkpt lat="43.85709" lon="7.23922">
        <ele>694</ele>
        <time>2018-04-26T11:23:06.000Z</time>
      </trkpt>
      <trkpt lat="43.85709" lon="7.23921">
        <ele>694</ele>
        <time>2018-04-26T11:23:25.000Z</time>
      </trkpt>
      <trkpt lat="43.85709" lon="7.23921">
        <ele>694</ele>
        <time>2018-04-26T11:23:33.000Z</time>
      </trkpt>
      <trkpt lat="43.85709" lon="7.23921">
        <ele>694</ele>
        <time>2018-04-26T11:23:42.000Z</time>
      </trkpt>
      <trkpt lat="43.85708" lon="7.23921">
        <ele>694</ele>
        <time>2018-04-26T11:23:48.000Z</time>
      </trkpt>
      <trkpt lat="43.85706" lon="7.23921">
        <ele>694</ele>
        <time>2018-04-26T11:23:52.000Z</time>
      </trkpt>
      <trkpt lat="43.85702" lon="7.23922">
        <ele>693</ele>
        <time>2018-04-26T11:23:54.000Z</time>
      </trkpt>
      <trkpt lat="43.85699" lon="7.2392">
        <ele>693</ele>
        <time>2018-04-26T11:23:55.000Z</time>
      </trkpt>
      <trkpt lat="43.85694" lon="7.23917">
        <ele>692</ele>
        <time>2018-04-26T11:23:57.000Z</time>
      </trkpt>
      <trkpt lat="43.85692" lon="7.23915">
        <ele>687</ele>
        <time>2018-04-26T11:23:58.000Z</time>
      </trkpt>
      <trkpt lat="43.85686" lon="7.23913">
        <ele>687</ele>
        <time>2018-04-26T11:24:00.000Z</time>
      </trkpt>
      <trkpt lat="43.85682" lon="7.23915">
        <ele>687</ele>
        <time>2018-04-26T11:24:02.000Z</time>
      </trkpt>
      <trkpt lat="43.8568" lon="7.23916">
        <ele>687</ele>
        <time>2018-04-26T11:24:03.000Z</time>
      </trkpt>
      <trkpt lat="43.85676" lon="7.23916">
        <ele>687</ele>
        <time>2018-04-26T11:24:04.000Z</time>
      </trkpt>
      <trkpt lat="43.85667" lon="7.23917">
        <ele>687</ele>
        <time>2018-04-26T11:24:07.000Z</time>
      </trkpt>
      <trkpt lat="43.85664" lon="7.23917">
        <ele>686</ele>
        <time>2018-04-26T11:24:08.000Z</time>
      </trkpt>
      <trkpt lat="43.85662" lon="7.23916">
        <ele>683</ele>
        <time>2018-04-26T11:24:09.000Z</time>
      </trkpt>
      <trkpt lat="43.85658" lon="7.23912">
        <ele>680</ele>
        <time>2018-04-26T11:24:11.000Z</time>
      </trkpt>
      <trkpt lat="43.85656" lon="7.23913">
        <ele>680</ele>
        <time>2018-04-26T11:24:12.000Z</time>
      </trkpt>
      <trkpt lat="43.85652" lon="7.23916">
        <ele>678</ele>
        <time>2018-04-26T11:24:14.000Z</time>
      </trkpt>
      <trkpt lat="43.85646" lon="7.23915">
        <ele>676</ele>
        <time>2018-04-26T11:24:16.000Z</time>
      </trkpt>
      <trkpt lat="43.85641" lon="7.23913">
        <ele>674</ele>
        <time>2018-04-26T11:24:17.000Z</time>
      </trkpt>
      <trkpt lat="43.85637" lon="7.23913">
        <ele>673</ele>
        <time>2018-04-26T11:24:18.000Z</time>
      </trkpt>
      <trkpt lat="43.85637" lon="7.23913">
        <ele>673</ele>
        <time>2018-04-26T11:24:19.000Z</time>
      </trkpt>
      <trkpt lat="43.85635" lon="7.23914">
        <ele>672</ele>
        <time>2018-04-26T11:24:20.000Z</time>
      </trkpt>
      <trkpt lat="43.85633" lon="7.23916">
        <ele>672</ele>
        <time>2018-04-26T11:24:22.000Z</time>
      </trkpt>
      <trkpt lat="43.85628" lon="7.23918">
        <ele>675</ele>
        <time>2018-04-26T11:24:24.000Z</time>
      </trkpt>
      <trkpt lat="43.85622" lon="7.2392">
        <ele>674</ele>
        <time>2018-04-26T11:24:26.000Z</time>
      </trkpt>
      <trkpt lat="43.85618" lon="7.23924">
        <ele>673</ele>
        <time>2018-04-26T11:24:27.000Z</time>
      </trkpt>
      <trkpt lat="43.85615" lon="7.23927">
        <ele>673</ele>
        <time>2018-04-26T11:24:28.000Z</time>
      </trkpt>
      <trkpt lat="43.85608" lon="7.2393">
        <ele>671</ele>
        <time>2018-04-26T11:24:30.000Z</time>
      </trkpt>
      <trkpt lat="43.85602" lon="7.2393">
        <ele>670</ele>
        <time>2018-04-26T11:24:32.000Z</time>
      </trkpt>
      <trkpt lat="43.85598" lon="7.23931">
        <ele>670</ele>
        <time>2018-04-26T11:24:34.000Z</time>
      </trkpt>
      <trkpt lat="43.85593" lon="7.23933">
        <ele>669</ele>
        <time>2018-04-26T11:24:36.000Z</time>
      </trkpt>
      <trkpt lat="43.85591" lon="7.23934">
        <ele>669</ele>
        <time>2018-04-26T11:24:37.000Z</time>
      </trkpt>
      <trkpt lat="43.85585" lon="7.23937">
        <ele>669</ele>
        <time>2018-04-26T11:24:39.000Z</time>
      </trkpt>
      <trkpt lat="43.85578" lon="7.2394">
        <ele>653</ele>
        <time>2018-04-26T11:24:41.000Z</time>
      </trkpt>
      <trkpt lat="43.85575" lon="7.23941">
        <ele>652</ele>
        <time>2018-04-26T11:24:42.000Z</time>
      </trkpt>
      <trkpt lat="43.85564" lon="7.23942">
        <ele>650</ele>
        <time>2018-04-26T11:24:45.000Z</time>
      </trkpt>
      <trkpt lat="43.85561" lon="7.23943">
        <ele>650</ele>
        <time>2018-04-26T11:24:46.000Z</time>
      </trkpt>
      <trkpt lat="43.85558" lon="7.23945">
        <ele>649</ele>
        <time>2018-04-26T11:24:47.000Z</time>
      </trkpt>
      <trkpt lat="43.85555" lon="7.23946">
        <ele>648</ele>
        <time>2018-04-26T11:24:48.000Z</time>
      </trkpt>
      <trkpt lat="43.85551" lon="7.23946">
        <ele>647</ele>
        <time>2018-04-26T11:24:49.000Z</time>
      </trkpt>
      <trkpt lat="43.85548" lon="7.23948">
        <ele>646</ele>
        <time>2018-04-26T11:24:50.000Z</time>
      </trkpt>
      <trkpt lat="43.85546" lon="7.23949">
        <ele>646</ele>
        <time>2018-04-26T11:24:51.000Z</time>
      </trkpt>
      <trkpt lat="43.85545" lon="7.2395">
        <ele>646</ele>
        <time>2018-04-26T11:24:52.000Z</time>
      </trkpt>
      <trkpt lat="43.85545" lon="7.23952">
        <ele>646</ele>
        <time>2018-04-26T11:24:53.000Z</time>
      </trkpt>
      <trkpt lat="43.85546" lon="7.23954">
        <ele>646</ele>
        <time>2018-04-26T11:24:54.000Z</time>
      </trkpt>
      <trkpt lat="43.85547" lon="7.23964">
        <ele>646</ele>
        <time>2018-04-26T11:24:57.000Z</time>
      </trkpt>
      <trkpt lat="43.85548" lon="7.23971">
        <ele>646</ele>
        <time>2018-04-26T11:24:59.000Z</time>
      </trkpt>
      <trkpt lat="43.85547" lon="7.23982">
        <ele>645</ele>
        <time>2018-04-26T11:25:02.000Z</time>
      </trkpt>
      <trkpt lat="43.85546" lon="7.23985">
        <ele>645</ele>
        <time>2018-04-26T11:25:03.000Z</time>
      </trkpt>
      <trkpt lat="43.85545" lon="7.23987">
        <ele>645</ele>
        <time>2018-04-26T11:25:04.000Z</time>
      </trkpt>
      <trkpt lat="43.85544" lon="7.23989">
        <ele>644</ele>
        <time>2018-04-26T11:25:05.000Z</time>
      </trkpt>
      <trkpt lat="43.85543" lon="7.2399">
        <ele>644</ele>
        <time>2018-04-26T11:25:06.000Z</time>
      </trkpt>
      <trkpt lat="43.85543" lon="7.2399">
        <ele>644</ele>
        <time>2018-04-26T11:25:07.000Z</time>
      </trkpt>
      <trkpt lat="43.85542" lon="7.23991">
        <ele>644</ele>
        <time>2018-04-26T11:25:08.000Z</time>
      </trkpt>
      <trkpt lat="43.85542" lon="7.2399">
        <ele>644</ele>
        <time>2018-04-26T11:25:09.000Z</time>
      </trkpt>
      <trkpt lat="43.85542" lon="7.2399">
        <ele>644</ele>
        <time>2018-04-26T11:25:10.000Z</time>
      </trkpt>
      <trkpt lat="43.85542" lon="7.2399">
        <ele>644</ele>
        <time>2018-04-26T11:25:11.000Z</time>
      </trkpt>
      <trkpt lat="43.85541" lon="7.23992">
        <ele>643</ele>
        <time>2018-04-26T11:25:21.000Z</time>
      </trkpt>
      <trkpt lat="43.8554" lon="7.23991">
        <ele>643</ele>
        <time>2018-04-26T11:25:31.000Z</time>
      </trkpt>
      <trkpt lat="43.85539" lon="7.2399">
        <ele>643</ele>
        <time>2018-04-26T11:25:36.000Z</time>
      </trkpt>
      <trkpt lat="43.85539" lon="7.2399">
        <ele>643</ele>
        <time>2018-04-26T11:25:42.000Z</time>
      </trkpt>
      <trkpt lat="43.85539" lon="7.23992">
        <ele>643</ele>
        <time>2018-04-26T11:25:48.000Z</time>
      </trkpt>
      <trkpt lat="43.85538" lon="7.23992">
        <ele>643</ele>
        <time>2018-04-26T11:25:53.000Z</time>
      </trkpt>
      <trkpt lat="43.85535" lon="7.23992">
        <ele>641</ele>
        <time>2018-04-26T11:26:00.000Z</time>
      </trkpt>
      <trkpt lat="43.85535" lon="7.23992">
        <ele>641</ele>
        <time>2018-04-26T11:26:01.000Z</time>
      </trkpt>
      <trkpt lat="43.85533" lon="7.23994">
        <ele>641</ele>
        <time>2018-04-26T11:26:03.000Z</time>
      </trkpt>
      <trkpt lat="43.8553" lon="7.23997">
        <ele>640</ele>
        <time>2018-04-26T11:26:05.000Z</time>
      </trkpt>
      <trkpt lat="43.85529" lon="7.23998">
        <ele>639</ele>
        <time>2018-04-26T11:26:06.000Z</time>
      </trkpt>
      <trkpt lat="43.85524" lon="7.24">
        <ele>631</ele>
        <time>2018-04-26T11:26:08.000Z</time>
      </trkpt>
      <trkpt lat="43.85519" lon="7.24001">
        <ele>630</ele>
        <time>2018-04-26T11:26:10.000Z</time>
      </trkpt>
      <trkpt lat="43.85515" lon="7.24001">
        <ele>629</ele>
        <time>2018-04-26T11:26:12.000Z</time>
      </trkpt>
      <trkpt lat="43.85514" lon="7.24003">
        <ele>629</ele>
        <time>2018-04-26T11:26:13.000Z</time>
      </trkpt>
      <trkpt lat="43.85512" lon="7.24008">
        <ele>628</ele>
        <time>2018-04-26T11:26:15.000Z</time>
      </trkpt>
      <trkpt lat="43.85509" lon="7.24008">
        <ele>628</ele>
        <time>2018-04-26T11:26:17.000Z</time>
      </trkpt>
      <trkpt lat="43.85507" lon="7.24005">
        <ele>627</ele>
        <time>2018-04-26T11:26:19.000Z</time>
      </trkpt>
      <trkpt lat="43.85504" lon="7.24001">
        <ele>626</ele>
        <time>2018-04-26T11:26:22.000Z</time>
      </trkpt>
      <trkpt lat="43.85501" lon="7.24001">
        <ele>625</ele>
        <time>2018-04-26T11:26:24.000Z</time>
      </trkpt>
      <trkpt lat="43.85496" lon="7.23996">
        <ele>621</ele>
        <time>2018-04-26T11:26:27.000Z</time>
      </trkpt>
      <trkpt lat="43.85495" lon="7.23993">
        <ele>620</ele>
        <time>2018-04-26T11:26:28.000Z</time>
      </trkpt>
      <trkpt lat="43.85494" lon="7.2399">
        <ele>618</ele>
        <time>2018-04-26T11:26:30.000Z</time>
      </trkpt>
      <trkpt lat="43.85493" lon="7.2399">
        <ele>618</ele>
        <time>2018-04-26T11:26:32.000Z</time>
      </trkpt>
      <trkpt lat="43.85492" lon="7.2399">
        <ele>618</ele>
        <time>2018-04-26T11:26:33.000Z</time>
      </trkpt>
      <trkpt lat="43.85492" lon="7.2399">
        <ele>618</ele>
        <time>2018-04-26T11:26:37.000Z</time>
      </trkpt>
      <trkpt lat="43.85492" lon="7.2399">
        <ele>618</ele>
        <time>2018-04-26T11:26:39.000Z</time>
      </trkpt>
      <trkpt lat="43.85489" lon="7.23989">
        <ele>617</ele>
        <time>2018-04-26T11:26:48.000Z</time>
      </trkpt>
      <trkpt lat="43.85487" lon="7.23979">
        <ele>615</ele>
        <time>2018-04-26T11:26:55.000Z</time>
      </trkpt>
      <trkpt lat="43.85482" lon="7.23956">
        <ele>614</ele>
        <time>2018-04-26T11:27:02.000Z</time>
      </trkpt>
      <trkpt lat="43.85482" lon="7.23953">
        <ele>614</ele>
        <time>2018-04-26T11:27:03.000Z</time>
      </trkpt>
      <trkpt lat="43.85481" lon="7.23951">
        <ele>614</ele>
        <time>2018-04-26T11:27:05.000Z</time>
      </trkpt>
      <trkpt lat="43.8548" lon="7.23952">
        <ele>614</ele>
        <time>2018-04-26T11:27:07.000Z</time>
      </trkpt>
      <trkpt lat="43.85478" lon="7.23953">
        <ele>613</ele>
        <time>2018-04-26T11:27:10.000Z</time>
      </trkpt>
      <trkpt lat="43.85478" lon="7.23953">
        <ele>613</ele>
        <time>2018-04-26T11:27:12.000Z</time>
      </trkpt>
      <trkpt lat="43.85476" lon="7.23953">
        <ele>613</ele>
        <time>2018-04-26T11:27:19.000Z</time>
      </trkpt>
      <trkpt lat="43.85475" lon="7.23954">
        <ele>613</ele>
        <time>2018-04-26T11:27:21.000Z</time>
      </trkpt>
      <trkpt lat="43.85473" lon="7.23954">
        <ele>612</ele>
        <time>2018-04-26T11:27:26.000Z</time>
      </trkpt>
      <trkpt lat="43.85473" lon="7.23954">
        <ele>612</ele>
        <time>2018-04-26T11:27:29.000Z</time>
      </trkpt>
      <trkpt lat="43.8547" lon="7.23955">
        <ele>611</ele>
        <time>2018-04-26T11:27:32.000Z</time>
      </trkpt>
      <trkpt lat="43.8547" lon="7.23955">
        <ele>611</ele>
        <time>2018-04-26T11:27:33.000Z</time>
      </trkpt>
      <trkpt lat="43.85466" lon="7.23956">
        <ele>610</ele>
        <time>2018-04-26T11:27:38.000Z</time>
      </trkpt>
      <trkpt lat="43.85465" lon="7.23956">
        <ele>610</ele>
        <time>2018-04-26T11:27:40.000Z</time>
      </trkpt>
      <trkpt lat="43.85463" lon="7.23956">
        <ele>610</ele>
        <time>2018-04-26T11:27:42.000Z</time>
      </trkpt>
      <trkpt lat="43.85462" lon="7.23956">
        <ele>609</ele>
        <time>2018-04-26T11:27:45.000Z</time>
      </trkpt>
      <trkpt lat="43.85462" lon="7.23956">
        <ele>609</ele>
        <time>2018-04-26T11:27:48.000Z</time>
      </trkpt>
      <trkpt lat="43.85461" lon="7.23957">
        <ele>609</ele>
        <time>2018-04-26T11:27:54.000Z</time>
      </trkpt>
      <trkpt lat="43.85459" lon="7.23956">
        <ele>609</ele>
        <time>2018-04-26T11:27:59.000Z</time>
      </trkpt>
      <trkpt lat="43.85458" lon="7.23956">
        <ele>608</ele>
        <time>2018-04-26T11:28:02.000Z</time>
      </trkpt>
      <trkpt lat="43.85455" lon="7.23958">
        <ele>608</ele>
        <time>2018-04-26T11:28:07.000Z</time>
      </trkpt>
      <trkpt lat="43.85451" lon="7.23959">
        <ele>607</ele>
        <time>2018-04-26T11:28:12.000Z</time>
      </trkpt>
      <trkpt lat="43.85451" lon="7.23959">
        <ele>607</ele>
        <time>2018-04-26T11:28:14.000Z</time>
      </trkpt>
      <trkpt lat="43.85451" lon="7.2396">
        <ele>607</ele>
        <time>2018-04-26T11:28:17.000Z</time>
      </trkpt>
      <trkpt lat="43.8545" lon="7.2396">
        <ele>607</ele>
        <time>2018-04-26T11:28:18.000Z</time>
      </trkpt>
      <trkpt lat="43.85449" lon="7.23962">
        <ele>606</ele>
        <time>2018-04-26T11:28:20.000Z</time>
      </trkpt>
      <trkpt lat="43.85448" lon="7.23962">
        <ele>606</ele>
        <time>2018-04-26T11:28:23.000Z</time>
      </trkpt>
      <trkpt lat="43.85447" lon="7.23961">
        <ele>606</ele>
        <time>2018-04-26T11:28:26.000Z</time>
      </trkpt>
      <trkpt lat="43.85447" lon="7.23961">
        <ele>606</ele>
        <time>2018-04-26T11:28:29.000Z</time>
      </trkpt>
      <trkpt lat="43.85446" lon="7.23961">
        <ele>606</ele>
        <time>2018-04-26T11:28:35.000Z</time>
      </trkpt>
      <trkpt lat="43.85444" lon="7.23964">
        <ele>605</ele>
        <time>2018-04-26T11:28:41.000Z</time>
      </trkpt>
      <trkpt lat="43.85443" lon="7.23965">
        <ele>605</ele>
        <time>2018-04-26T11:28:42.000Z</time>
      </trkpt>
      <trkpt lat="43.8544" lon="7.23968">
        <ele>604</ele>
        <time>2018-04-26T11:28:46.000Z</time>
      </trkpt>
      <trkpt lat="43.85439" lon="7.23968">
        <ele>604</ele>
        <time>2018-04-26T11:28:47.000Z</time>
      </trkpt>
      <trkpt lat="43.85438" lon="7.23968">
        <ele>604</ele>
        <time>2018-04-26T11:28:50.000Z</time>
      </trkpt>
      <trkpt lat="43.85438" lon="7.23968">
        <ele>604</ele>
        <time>2018-04-26T11:28:54.000Z</time>
      </trkpt>
      <trkpt lat="43.85436" lon="7.23969">
        <ele>603</ele>
        <time>2018-04-26T11:28:56.000Z</time>
      </trkpt>
      <trkpt lat="43.85431" lon="7.23971">
        <ele>602</ele>
        <time>2018-04-26T11:29:00.000Z</time>
      </trkpt>
      <trkpt lat="43.85429" lon="7.23972">
        <ele>601</ele>
        <time>2018-04-26T11:29:01.000Z</time>
      </trkpt>
      <trkpt lat="43.85428" lon="7.23973">
        <ele>601</ele>
        <time>2018-04-26T11:29:02.000Z</time>
      </trkpt>
      <trkpt lat="43.85426" lon="7.23974">
        <ele>601</ele>
        <time>2018-04-26T11:29:04.000Z</time>
      </trkpt>
      <trkpt lat="43.85424" lon="7.23976">
        <ele>600</ele>
        <time>2018-04-26T11:29:06.000Z</time>
      </trkpt>
      <trkpt lat="43.85423" lon="7.23977">
        <ele>599</ele>
        <time>2018-04-26T11:29:07.000Z</time>
      </trkpt>
      <trkpt lat="43.85423" lon="7.23978">
        <ele>599</ele>
        <time>2018-04-26T11:29:09.000Z</time>
      </trkpt>
      <trkpt lat="43.85423" lon="7.23978">
        <ele>599</ele>
        <time>2018-04-26T11:29:10.000Z</time>
      </trkpt>
      <trkpt lat="43.85423" lon="7.23978">
        <ele>599</ele>
        <time>2018-04-26T11:29:12.000Z</time>
      </trkpt>
      <trkpt lat="43.85421" lon="7.23979">
        <ele>599</ele>
        <time>2018-04-26T11:29:27.000Z</time>
      </trkpt>
      <trkpt lat="43.85419" lon="7.23981">
        <ele>598</ele>
        <time>2018-04-26T11:29:31.000Z</time>
      </trkpt>
      <trkpt lat="43.85417" lon="7.23982">
        <ele>597</ele>
        <time>2018-04-26T11:29:34.000Z</time>
      </trkpt>
      <trkpt lat="43.85416" lon="7.23983">
        <ele>582</ele>
        <time>2018-04-26T11:29:38.000Z</time>
      </trkpt>
      <trkpt lat="43.85416" lon="7.23983">
        <ele>582</ele>
        <time>2018-04-26T11:29:39.000Z</time>
      </trkpt>
      <trkpt lat="43.85414" lon="7.23984">
        <ele>582</ele>
        <time>2018-04-26T11:29:46.000Z</time>
      </trkpt>
      <trkpt lat="43.85413" lon="7.23985">
        <ele>582</ele>
        <time>2018-04-26T11:29:48.000Z</time>
      </trkpt>
      <trkpt lat="43.8541" lon="7.23986">
        <ele>582</ele>
        <time>2018-04-26T11:29:52.000Z</time>
      </trkpt>
      <trkpt lat="43.85408" lon="7.23987">
        <ele>582</ele>
        <time>2018-04-26T11:29:55.000Z</time>
      </trkpt>
      <trkpt lat="43.85408" lon="7.23987">
        <ele>581</ele>
        <time>2018-04-26T11:29:56.000Z</time>
      </trkpt>
      <trkpt lat="43.85405" lon="7.23988">
        <ele>581</ele>
        <time>2018-04-26T11:30:00.000Z</time>
      </trkpt>
      <trkpt lat="43.85402" lon="7.2399">
        <ele>581</ele>
        <time>2018-04-26T11:30:04.000Z</time>
      </trkpt>
      <trkpt lat="43.85401" lon="7.2399">
        <ele>580</ele>
        <time>2018-04-26T11:30:06.000Z</time>
      </trkpt>
      <trkpt lat="43.85401" lon="7.23991">
        <ele>580</ele>
        <time>2018-04-26T11:30:07.000Z</time>
      </trkpt>
      <trkpt lat="43.854" lon="7.23991">
        <ele>580</ele>
        <time>2018-04-26T11:30:08.000Z</time>
      </trkpt>
      <trkpt lat="43.85399" lon="7.23991">
        <ele>580</ele>
        <time>2018-04-26T11:30:12.000Z</time>
      </trkpt>
      <trkpt lat="43.85399" lon="7.23991">
        <ele>580</ele>
        <time>2018-04-26T11:30:15.000Z</time>
      </trkpt>
      <trkpt lat="43.85398" lon="7.23991">
        <ele>579</ele>
        <time>2018-04-26T11:30:20.000Z</time>
      </trkpt>
      <trkpt lat="43.85398" lon="7.23991">
        <ele>579</ele>
        <time>2018-04-26T11:30:21.000Z</time>
      </trkpt>
      <trkpt lat="43.85392" lon="7.23994">
        <ele>578</ele>
        <time>2018-04-26T11:30:27.000Z</time>
      </trkpt>
      <trkpt lat="43.85388" lon="7.23995">
        <ele>577</ele>
        <time>2018-04-26T11:30:32.000Z</time>
      </trkpt>
      <trkpt lat="43.85386" lon="7.23998">
        <ele>576</ele>
        <time>2018-04-26T11:30:36.000Z</time>
      </trkpt>
      <trkpt lat="43.85385" lon="7.23999">
        <ele>576</ele>
        <time>2018-04-26T11:30:37.000Z</time>
      </trkpt>
      <trkpt lat="43.85384" lon="7.24">
        <ele>574</ele>
        <time>2018-04-26T11:30:38.000Z</time>
      </trkpt>
      <trkpt lat="43.85381" lon="7.24">
        <ele>574</ele>
        <time>2018-04-26T11:30:41.000Z</time>
      </trkpt>
      <trkpt lat="43.8538" lon="7.24001">
        <ele>573</ele>
        <time>2018-04-26T11:30:43.000Z</time>
      </trkpt>
      <trkpt lat="43.85381" lon="7.24004">
        <ele>574</ele>
        <time>2018-04-26T11:30:45.000Z</time>
      </trkpt>
      <trkpt lat="43.85381" lon="7.24006">
        <ele>573</ele>
        <time>2018-04-26T11:30:46.000Z</time>
      </trkpt>
      <trkpt lat="43.8538" lon="7.24008">
        <ele>573</ele>
        <time>2018-04-26T11:30:48.000Z</time>
      </trkpt>
      <trkpt lat="43.85379" lon="7.24008">
        <ele>573</ele>
        <time>2018-04-26T11:30:49.000Z</time>
      </trkpt>
      <trkpt lat="43.85378" lon="7.24009">
        <ele>573</ele>
        <time>2018-04-26T11:30:51.000Z</time>
      </trkpt>
      <trkpt lat="43.85375" lon="7.24007">
        <ele>572</ele>
        <time>2018-04-26T11:30:54.000Z</time>
      </trkpt>
      <trkpt lat="43.85374" lon="7.24006">
        <ele>572</ele>
        <time>2018-04-26T11:30:56.000Z</time>
      </trkpt>
      <trkpt lat="43.85373" lon="7.24004">
        <ele>572</ele>
        <time>2018-04-26T11:30:58.000Z</time>
      </trkpt>
      <trkpt lat="43.85371" lon="7.24001">
        <ele>571</ele>
        <time>2018-04-26T11:31:03.000Z</time>
      </trkpt>
      <trkpt lat="43.85371" lon="7.24">
        <ele>571</ele>
        <time>2018-04-26T11:31:21.000Z</time>
      </trkpt>
      <trkpt lat="43.85371" lon="7.24">
        <ele>572</ele>
        <time>2018-04-26T11:31:43.000Z</time>
      </trkpt>
      <trkpt lat="43.8537" lon="7.23997">
        <ele>572</ele>
        <time>2018-04-26T11:31:54.000Z</time>
      </trkpt>
      <trkpt lat="43.85369" lon="7.23992">
        <ele>572</ele>
        <time>2018-04-26T11:31:57.000Z</time>
      </trkpt>
      <trkpt lat="43.85369" lon="7.23991">
        <ele>572</ele>
        <time>2018-04-26T11:31:58.000Z</time>
      </trkpt>
      <trkpt lat="43.85369" lon="7.23991">
        <ele>572</ele>
        <time>2018-04-26T11:32:00.000Z</time>
      </trkpt>
      <trkpt lat="43.85369" lon="7.23991">
        <ele>572</ele>
        <time>2018-04-26T11:32:30.000Z</time>
      </trkpt>
      <trkpt lat="43.85369" lon="7.23992">
        <ele>572</ele>
        <time>2018-04-26T11:32:48.000Z</time>
      </trkpt>
      <trkpt lat="43.85369" lon="7.23991">
        <ele>572</ele>
        <time>2018-04-26T11:32:59.000Z</time>
      </trkpt>
      <trkpt lat="43.85369" lon="7.23991">
        <ele>572</ele>
        <time>2018-04-26T11:33:16.000Z</time>
      </trkpt>
      <trkpt lat="43.85369" lon="7.23993">
        <ele>572</ele>
        <time>2018-04-26T11:33:28.000Z</time>
      </trkpt>
      <trkpt lat="43.85368" lon="7.23994">
        <ele>572</ele>
        <time>2018-04-26T11:33:45.000Z</time>
      </trkpt>
      <trkpt lat="43.85368" lon="7.23994">
        <ele>572</ele>
        <time>2018-04-26T11:33:53.000Z</time>
      </trkpt>
      <trkpt lat="43.85368" lon="7.23994">
        <ele>572</ele>
        <time>2018-04-26T11:34:00.000Z</time>
      </trkpt>
      <trkpt lat="43.85368" lon="7.23994">
        <ele>572</ele>
        <time>2018-04-26T11:34:14.000Z</time>
      </trkpt>
      <trkpt lat="43.85369" lon="7.23993">
        <ele>572</ele>
        <time>2018-04-26T11:34:35.000Z</time>
      </trkpt>
      <trkpt lat="43.85369" lon="7.23992">
        <ele>572</ele>
        <time>2018-04-26T11:34:52.000Z</time>
      </trkpt>
      <trkpt lat="43.8537" lon="7.23991">
        <ele>572</ele>
        <time>2018-04-26T11:35:12.000Z</time>
      </trkpt>
      <trkpt lat="43.85369" lon="7.23992">
        <ele>572</ele>
        <time>2018-04-26T11:35:21.000Z</time>
      </trkpt>
      <trkpt lat="43.85369" lon="7.23992">
        <ele>572</ele>
        <time>2018-04-26T11:35:29.000Z</time>
      </trkpt>
      <trkpt lat="43.8537" lon="7.23992">
        <ele>572</ele>
        <time>2018-04-26T11:35:43.000Z</time>
      </trkpt>
      <trkpt lat="43.8537" lon="7.23992">
        <ele>572</ele>
        <time>2018-04-26T11:35:50.000Z</time>
      </trkpt>
      <trkpt lat="43.8537" lon="7.23992">
        <ele>572</ele>
        <time>2018-04-26T11:35:56.000Z</time>
      </trkpt>
      <trkpt lat="43.85371" lon="7.23991">
        <ele>572</ele>
        <time>2018-04-26T11:36:03.000Z</time>
      </trkpt>
      <trkpt lat="43.85371" lon="7.23995">
        <ele>572</ele>
        <time>2018-04-26T11:36:07.000Z</time>
      </trkpt>
      <trkpt lat="43.85371" lon="7.23997">
        <ele>572</ele>
        <time>2018-04-26T11:36:08.000Z</time>
      </trkpt>
      <trkpt lat="43.85371" lon="7.24">
        <ele>572</ele>
        <time>2018-04-26T11:36:10.000Z</time>
      </trkpt>
      <trkpt lat="43.85374" lon="7.24003">
        <ele>572</ele>
        <time>2018-04-26T11:36:13.000Z</time>
      </trkpt>
      <trkpt lat="43.85379" lon="7.2401">
        <ele>573</ele>
        <time>2018-04-26T11:36:18.000Z</time>
      </trkpt>
      <trkpt lat="43.85384" lon="7.24017">
        <ele>574</ele>
        <time>2018-04-26T11:36:22.000Z</time>
      </trkpt>
      <trkpt lat="43.85384" lon="7.24019">
        <ele>574</ele>
        <time>2018-04-26T11:36:23.000Z</time>
      </trkpt>
      <trkpt lat="43.85381" lon="7.24016">
        <ele>573</ele>
        <time>2018-04-26T11:36:25.000Z</time>
      </trkpt>
      <trkpt lat="43.8538" lon="7.24013">
        <ele>573</ele>
        <time>2018-04-26T11:36:26.000Z</time>
      </trkpt>
      <trkpt lat="43.85379" lon="7.2401">
        <ele>573</ele>
        <time>2018-04-26T11:36:27.000Z</time>
      </trkpt>
      <trkpt lat="43.85371" lon="7.23999">
        <ele>573</ele>
        <time>2018-04-26T11:36:32.000Z</time>
      </trkpt>
      <trkpt lat="43.8537" lon="7.23998">
        <ele>572</ele>
        <time>2018-04-26T11:36:33.000Z</time>
      </trkpt>
      <trkpt lat="43.8537" lon="7.23996">
        <ele>572</ele>
        <time>2018-04-26T11:36:36.000Z</time>
      </trkpt>
      <trkpt lat="43.8537" lon="7.23996">
        <ele>572</ele>
        <time>2018-04-26T11:36:38.000Z</time>
      </trkpt>
      <trkpt lat="43.85369" lon="7.2399">
        <ele>572</ele>
        <time>2018-04-26T11:36:48.000Z</time>
      </trkpt>
      <trkpt lat="43.85368" lon="7.23967">
        <ele>572</ele>
        <time>2018-04-26T11:36:53.000Z</time>
      </trkpt>
      <trkpt lat="43.85367" lon="7.23948">
        <ele>572</ele>
        <time>2018-04-26T11:36:56.000Z</time>
      </trkpt>
      <trkpt lat="43.85365" lon="7.23926">
        <ele>571</ele>
        <time>2018-04-26T11:36:59.000Z</time>
      </trkpt>
      <trkpt lat="43.85365" lon="7.23918">
        <ele>570</ele>
        <time>2018-04-26T11:37:00.000Z</time>
      </trkpt>
      <trkpt lat="43.85363" lon="7.23894">
        <ele>571</ele>
        <time>2018-04-26T11:37:03.000Z</time>
      </trkpt>
      <trkpt lat="43.85363" lon="7.23861">
        <ele>572</ele>
        <time>2018-04-26T11:37:07.000Z</time>
      </trkpt>
      <trkpt lat="43.85362" lon="7.23853">
        <ele>571</ele>
        <time>2018-04-26T11:37:08.000Z</time>
      </trkpt>
      <trkpt lat="43.85361" lon="7.23815">
        <ele>571</ele>
        <time>2018-04-26T11:37:13.000Z</time>
      </trkpt>
      <trkpt lat="43.85359" lon="7.23792">
        <ele>571</ele>
        <time>2018-04-26T11:37:16.000Z</time>
      </trkpt>
      <trkpt lat="43.85357" lon="7.23756">
        <ele>568</ele>
        <time>2018-04-26T11:37:20.000Z</time>
      </trkpt>
      <trkpt lat="43.85355" lon="7.23727">
        <ele>565</ele>
        <time>2018-04-26T11:37:23.000Z</time>
      </trkpt>
      <trkpt lat="43.85355" lon="7.23715">
        <ele>566</ele>
        <time>2018-04-26T11:37:24.000Z</time>
      </trkpt>
      <trkpt lat="43.85354" lon="7.23703">
        <ele>565</ele>
        <time>2018-04-26T11:37:25.000Z</time>
      </trkpt>
      <trkpt lat="43.85352" lon="7.23679">
        <ele>562</ele>
        <time>2018-04-26T11:37:27.000Z</time>
      </trkpt>
      <trkpt lat="43.85351" lon="7.23656">
        <ele>557</ele>
        <time>2018-04-26T11:37:29.000Z</time>
      </trkpt>
      <trkpt lat="43.8535" lon="7.23631">
        <ele>557</ele>
        <time>2018-04-26T11:37:31.000Z</time>
      </trkpt>
      <trkpt lat="43.85351" lon="7.23618">
        <ele>556</ele>
        <time>2018-04-26T11:37:32.000Z</time>
      </trkpt>
      <trkpt lat="43.85356" lon="7.23594">
        <ele>554</ele>
        <time>2018-04-26T11:37:34.000Z</time>
      </trkpt>
      <trkpt lat="43.85359" lon="7.23582">
        <ele>548</ele>
        <time>2018-04-26T11:37:35.000Z</time>
      </trkpt>
      <trkpt lat="43.85367" lon="7.23558">
        <ele>549</ele>
        <time>2018-04-26T11:37:37.000Z</time>
      </trkpt>
      <trkpt lat="43.85377" lon="7.23534">
        <ele>548</ele>
        <time>2018-04-26T11:37:39.000Z</time>
      </trkpt>
      <trkpt lat="43.85381" lon="7.23523">
        <ele>548</ele>
        <time>2018-04-26T11:37:40.000Z</time>
      </trkpt>
      <trkpt lat="43.85384" lon="7.23515">
        <ele>548</ele>
        <time>2018-04-26T11:37:41.000Z</time>
      </trkpt>
      <trkpt lat="43.85393" lon="7.23497">
        <ele>542</ele>
        <time>2018-04-26T11:37:43.000Z</time>
      </trkpt>
      <trkpt lat="43.85398" lon="7.2349">
        <ele>543</ele>
        <time>2018-04-26T11:37:44.000Z</time>
      </trkpt>
      <trkpt lat="43.85413" lon="7.23465">
        <ele>541</ele>
        <time>2018-04-26T11:37:47.000Z</time>
      </trkpt>
      <trkpt lat="43.85429" lon="7.23443">
        <ele>546</ele>
        <time>2018-04-26T11:37:50.000Z</time>
      </trkpt>
      <trkpt lat="43.8544" lon="7.23431">
        <ele>546</ele>
        <time>2018-04-26T11:37:52.000Z</time>
      </trkpt>
      <trkpt lat="43.85446" lon="7.23427">
        <ele>546</ele>
        <time>2018-04-26T11:37:53.000Z</time>
      </trkpt>
      <trkpt lat="43.85453" lon="7.23424">
        <ele>547</ele>
        <time>2018-04-26T11:37:54.000Z</time>
      </trkpt>
      <trkpt lat="43.85481" lon="7.23411">
        <ele>541</ele>
        <time>2018-04-26T11:37:58.000Z</time>
      </trkpt>
      <trkpt lat="43.85486" lon="7.23406">
        <ele>542</ele>
        <time>2018-04-26T11:37:59.000Z</time>
      </trkpt>
      <trkpt lat="43.85492" lon="7.2339">
        <ele>540</ele>
        <time>2018-04-26T11:38:01.000Z</time>
      </trkpt>
      <trkpt lat="43.85498" lon="7.23373">
        <ele>538</ele>
        <time>2018-04-26T11:38:03.000Z</time>
      </trkpt>
      <trkpt lat="43.85502" lon="7.23366">
        <ele>542</ele>
        <time>2018-04-26T11:38:04.000Z</time>
      </trkpt>
      <trkpt lat="43.85515" lon="7.23357">
        <ele>541</ele>
        <time>2018-04-26T11:38:06.000Z</time>
      </trkpt>
      <trkpt lat="43.85525" lon="7.23346">
        <ele>541</ele>
        <time>2018-04-26T11:38:08.000Z</time>
      </trkpt>
      <trkpt lat="43.8553" lon="7.23329">
        <ele>534</ele>
        <time>2018-04-26T11:38:10.000Z</time>
      </trkpt>
      <trkpt lat="43.85531" lon="7.2332">
        <ele>534</ele>
        <time>2018-04-26T11:38:11.000Z</time>
      </trkpt>
      <trkpt lat="43.85532" lon="7.23309">
        <ele>533</ele>
        <time>2018-04-26T11:38:12.000Z</time>
      </trkpt>
      <trkpt lat="43.85533" lon="7.233">
        <ele>533</ele>
        <time>2018-04-26T11:38:13.000Z</time>
      </trkpt>
      <trkpt lat="43.85536" lon="7.23284">
        <ele>532</ele>
        <time>2018-04-26T11:38:15.000Z</time>
      </trkpt>
      <trkpt lat="43.8554" lon="7.23279">
        <ele>532</ele>
        <time>2018-04-26T11:38:16.000Z</time>
      </trkpt>
      <trkpt lat="43.8555" lon="7.23269">
        <ele>531</ele>
        <time>2018-04-26T11:38:18.000Z</time>
      </trkpt>
      <trkpt lat="43.8556" lon="7.2326">
        <ele>531</ele>
        <time>2018-04-26T11:38:20.000Z</time>
      </trkpt>
      <trkpt lat="43.85565" lon="7.23255">
        <ele>531</ele>
        <time>2018-04-26T11:38:21.000Z</time>
      </trkpt>
      <trkpt lat="43.85581" lon="7.23241">
        <ele>527</ele>
        <time>2018-04-26T11:38:24.000Z</time>
      </trkpt>
      <trkpt lat="43.85585" lon="7.23235">
        <ele>529</ele>
        <time>2018-04-26T11:38:25.000Z</time>
      </trkpt>
      <trkpt lat="43.85593" lon="7.23223">
        <ele>530</ele>
        <time>2018-04-26T11:38:27.000Z</time>
      </trkpt>
      <trkpt lat="43.85626" lon="7.23171">
        <ele>529</ele>
        <time>2018-04-26T11:38:35.000Z</time>
      </trkpt>
      <trkpt lat="43.85647" lon="7.23159">
        <ele>525</ele>
        <time>2018-04-26T11:38:38.000Z</time>
      </trkpt>
      <trkpt lat="43.85655" lon="7.23153">
        <ele>526</ele>
        <time>2018-04-26T11:38:39.000Z</time>
      </trkpt>
      <trkpt lat="43.85663" lon="7.23148">
        <ele>526</ele>
        <time>2018-04-26T11:38:40.000Z</time>
      </trkpt>
      <trkpt lat="43.85668" lon="7.23143">
        <ele>529</ele>
        <time>2018-04-26T11:38:41.000Z</time>
      </trkpt>
      <trkpt lat="43.85675" lon="7.23137">
        <ele>529</ele>
        <time>2018-04-26T11:38:42.000Z</time>
      </trkpt>
      <trkpt lat="43.85681" lon="7.23132">
        <ele>529</ele>
        <time>2018-04-26T11:38:43.000Z</time>
      </trkpt>
      <trkpt lat="43.85684" lon="7.23121">
        <ele>528</ele>
        <time>2018-04-26T11:38:45.000Z</time>
      </trkpt>
      <trkpt lat="43.85677" lon="7.23111">
        <ele>526</ele>
        <time>2018-04-26T11:38:48.000Z</time>
      </trkpt>
      <trkpt lat="43.85673" lon="7.23111">
        <ele>526</ele>
        <time>2018-04-26T11:38:49.000Z</time>
      </trkpt>
      <trkpt lat="43.85669" lon="7.23112">
        <ele>526</ele>
        <time>2018-04-26T11:38:50.000Z</time>
      </trkpt>
      <trkpt lat="43.85665" lon="7.23113">
        <ele>521</ele>
        <time>2018-04-26T11:38:51.000Z</time>
      </trkpt>
      <trkpt lat="43.8566" lon="7.23115">
        <ele>521</ele>
        <time>2018-04-26T11:38:52.000Z</time>
      </trkpt>
      <trkpt lat="43.85637" lon="7.23115">
        <ele>521</ele>
        <time>2018-04-26T11:38:57.000Z</time>
      </trkpt>
      <trkpt lat="43.85632" lon="7.23116">
        <ele>521</ele>
        <time>2018-04-26T11:38:58.000Z</time>
      </trkpt>
      <trkpt lat="43.85613" lon="7.23122">
        <ele>520</ele>
        <time>2018-04-26T11:39:02.000Z</time>
      </trkpt>
      <trkpt lat="43.8559" lon="7.23134">
        <ele>520</ele>
        <time>2018-04-26T11:39:07.000Z</time>
      </trkpt>
      <trkpt lat="43.85581" lon="7.23138">
        <ele>517</ele>
        <time>2018-04-26T11:39:09.000Z</time>
      </trkpt>
      <trkpt lat="43.85572" lon="7.23145">
        <ele>518</ele>
        <time>2018-04-26T11:39:11.000Z</time>
      </trkpt>
      <trkpt lat="43.8555" lon="7.23161">
        <ele>517</ele>
        <time>2018-04-26T11:39:16.000Z</time>
      </trkpt>
      <trkpt lat="43.85522" lon="7.23181">
        <ele>521</ele>
        <time>2018-04-26T11:39:22.000Z</time>
      </trkpt>
      <trkpt lat="43.85518" lon="7.23184">
        <ele>521</ele>
        <time>2018-04-26T11:39:23.000Z</time>
      </trkpt>
      <trkpt lat="43.85486" lon="7.23205">
        <ele>518</ele>
        <time>2018-04-26T11:39:30.000Z</time>
      </trkpt>
      <trkpt lat="43.85482" lon="7.23208">
        <ele>518</ele>
        <time>2018-04-26T11:39:31.000Z</time>
      </trkpt>
      <trkpt lat="43.85462" lon="7.23222">
        <ele>518</ele>
        <time>2018-04-26T11:39:36.000Z</time>
      </trkpt>
      <trkpt lat="43.85458" lon="7.23224">
        <ele>518</ele>
        <time>2018-04-26T11:39:37.000Z</time>
      </trkpt>
      <trkpt lat="43.85439" lon="7.23237">
        <ele>518</ele>
        <time>2018-04-26T11:39:42.000Z</time>
      </trkpt>
      <trkpt lat="43.85427" lon="7.23246">
        <ele>518</ele>
        <time>2018-04-26T11:39:45.000Z</time>
      </trkpt>
      <trkpt lat="43.8542" lon="7.23252">
        <ele>520</ele>
        <time>2018-04-26T11:39:47.000Z</time>
      </trkpt>
      <trkpt lat="43.85397" lon="7.2327">
        <ele>521</ele>
        <time>2018-04-26T11:39:53.000Z</time>
      </trkpt>
      <trkpt lat="43.85393" lon="7.23272">
        <ele>522</ele>
        <time>2018-04-26T11:39:54.000Z</time>
      </trkpt>
      <trkpt lat="43.85386" lon="7.23279">
        <ele>522</ele>
        <time>2018-04-26T11:39:56.000Z</time>
      </trkpt>
      <trkpt lat="43.85379" lon="7.23289">
        <ele>522</ele>
        <time>2018-04-26T11:39:58.000Z</time>
      </trkpt>
      <trkpt lat="43.8537" lon="7.23302">
        <ele>523</ele>
        <time>2018-04-26T11:40:01.000Z</time>
      </trkpt>
      <trkpt lat="43.85346" lon="7.2334">
        <ele>526</ele>
        <time>2018-04-26T11:40:08.000Z</time>
      </trkpt>
      <trkpt lat="43.85312" lon="7.23393">
        <ele>526</ele>
        <time>2018-04-26T11:40:18.000Z</time>
      </trkpt>
      <trkpt lat="43.85288" lon="7.23427">
        <ele>527</ele>
        <time>2018-04-26T11:40:25.000Z</time>
      </trkpt>
      <trkpt lat="43.85285" lon="7.2343">
        <ele>527</ele>
        <time>2018-04-26T11:40:26.000Z</time>
      </trkpt>
      <trkpt lat="43.85271" lon="7.23438">
        <ele>526</ele>
        <time>2018-04-26T11:40:29.000Z</time>
      </trkpt>
      <trkpt lat="43.8526" lon="7.23442">
        <ele>526</ele>
        <time>2018-04-26T11:40:31.000Z</time>
      </trkpt>
      <trkpt lat="43.85241" lon="7.23455">
        <ele>528</ele>
        <time>2018-04-26T11:40:35.000Z</time>
      </trkpt>
      <trkpt lat="43.85238" lon="7.23459">
        <ele>529</ele>
        <time>2018-04-26T11:40:36.000Z</time>
      </trkpt>
      <trkpt lat="43.85225" lon="7.23475">
        <ele>529</ele>
        <time>2018-04-26T11:40:40.000Z</time>
      </trkpt>
      <trkpt lat="43.85221" lon="7.23483">
        <ele>529</ele>
        <time>2018-04-26T11:40:42.000Z</time>
      </trkpt>
      <trkpt lat="43.85218" lon="7.23487">
        <ele>529</ele>
        <time>2018-04-26T11:40:43.000Z</time>
      </trkpt>
      <trkpt lat="43.85212" lon="7.23499">
        <ele>530</ele>
        <time>2018-04-26T11:40:46.000Z</time>
      </trkpt>
      <trkpt lat="43.85206" lon="7.23512">
        <ele>530</ele>
        <time>2018-04-26T11:40:49.000Z</time>
      </trkpt>
      <trkpt lat="43.85203" lon="7.23518">
        <ele>531</ele>
        <time>2018-04-26T11:40:51.000Z</time>
      </trkpt>
      <trkpt lat="43.85196" lon="7.2353">
        <ele>531</ele>
        <time>2018-04-26T11:40:55.000Z</time>
      </trkpt>
      <trkpt lat="43.85192" lon="7.23534">
        <ele>531</ele>
        <time>2018-04-26T11:40:57.000Z</time>
      </trkpt>
      <trkpt lat="43.85186" lon="7.23543">
        <ele>532</ele>
        <time>2018-04-26T11:41:00.000Z</time>
      </trkpt>
      <trkpt lat="43.85185" lon="7.23545">
        <ele>532</ele>
        <time>2018-04-26T11:41:01.000Z</time>
      </trkpt>
      <trkpt lat="43.85177" lon="7.23555">
        <ele>532</ele>
        <time>2018-04-26T11:41:05.000Z</time>
      </trkpt>
      <trkpt lat="43.85174" lon="7.23557">
        <ele>533</ele>
        <time>2018-04-26T11:41:06.000Z</time>
      </trkpt>
      <trkpt lat="43.85173" lon="7.2356">
        <ele>533</ele>
        <time>2018-04-26T11:41:07.000Z</time>
      </trkpt>
      <trkpt lat="43.85167" lon="7.23567">
        <ele>534</ele>
        <time>2018-04-26T11:41:10.000Z</time>
      </trkpt>
      <trkpt lat="43.85162" lon="7.23572">
        <ele>536</ele>
        <time>2018-04-26T11:41:13.000Z</time>
      </trkpt>
      <trkpt lat="43.85156" lon="7.23578">
        <ele>536</ele>
        <time>2018-04-26T11:41:16.000Z</time>
      </trkpt>
      <trkpt lat="43.85149" lon="7.23582">
        <ele>536</ele>
        <time>2018-04-26T11:41:19.000Z</time>
      </trkpt>
      <trkpt lat="43.8514" lon="7.23588">
        <ele>538</ele>
        <time>2018-04-26T11:41:23.000Z</time>
      </trkpt>
      <trkpt lat="43.85135" lon="7.23591">
        <ele>538</ele>
        <time>2018-04-26T11:41:25.000Z</time>
      </trkpt>
      <trkpt lat="43.85121" lon="7.23598">
        <ele>538</ele>
        <time>2018-04-26T11:41:31.000Z</time>
      </trkpt>
      <trkpt lat="43.85116" lon="7.236">
        <ele>538</ele>
        <time>2018-04-26T11:41:33.000Z</time>
      </trkpt>
      <trkpt lat="43.85108" lon="7.23604">
        <ele>538</ele>
        <time>2018-04-26T11:41:36.000Z</time>
      </trkpt>
      <trkpt lat="43.85103" lon="7.23607">
        <ele>538</ele>
        <time>2018-04-26T11:41:38.000Z</time>
      </trkpt>
      <trkpt lat="43.85093" lon="7.23613">
        <ele>538</ele>
        <time>2018-04-26T11:41:42.000Z</time>
      </trkpt>
      <trkpt lat="43.85088" lon="7.23617">
        <ele>538</ele>
        <time>2018-04-26T11:41:44.000Z</time>
      </trkpt>
      <trkpt lat="43.85074" lon="7.23629">
        <ele>540</ele>
        <time>2018-04-26T11:41:50.000Z</time>
      </trkpt>
      <trkpt lat="43.85072" lon="7.23631">
        <ele>540</ele>
        <time>2018-04-26T11:41:51.000Z</time>
      </trkpt>
      <trkpt lat="43.85064" lon="7.23636">
        <ele>540</ele>
        <time>2018-04-26T11:41:55.000Z</time>
      </trkpt>
      <trkpt lat="43.85062" lon="7.23637">
        <ele>540</ele>
        <time>2018-04-26T11:41:56.000Z</time>
      </trkpt>
      <trkpt lat="43.8506" lon="7.23638">
        <ele>540</ele>
        <time>2018-04-26T11:41:57.000Z</time>
      </trkpt>
      <trkpt lat="43.85055" lon="7.23643">
        <ele>541</ele>
        <time>2018-04-26T11:42:00.000Z</time>
      </trkpt>
      <trkpt lat="43.85054" lon="7.23644">
        <ele>541</ele>
        <time>2018-04-26T11:42:01.000Z</time>
      </trkpt>
      <trkpt lat="43.85047" lon="7.23648">
        <ele>541</ele>
        <time>2018-04-26T11:42:04.000Z</time>
      </trkpt>
      <trkpt lat="43.85043" lon="7.23652">
        <ele>541</ele>
        <time>2018-04-26T11:42:06.000Z</time>
      </trkpt>
      <trkpt lat="43.85037" lon="7.23657">
        <ele>541</ele>
        <time>2018-04-26T11:42:09.000Z</time>
      </trkpt>
      <trkpt lat="43.8503" lon="7.23663">
        <ele>542</ele>
        <time>2018-04-26T11:42:12.000Z</time>
      </trkpt>
      <trkpt lat="43.85025" lon="7.23666">
        <ele>542</ele>
        <time>2018-04-26T11:42:14.000Z</time>
      </trkpt>
      <trkpt lat="43.85016" lon="7.23673">
        <ele>543</ele>
        <time>2018-04-26T11:42:18.000Z</time>
      </trkpt>
      <trkpt lat="43.85006" lon="7.23681">
        <ele>543</ele>
        <time>2018-04-26T11:42:22.000Z</time>
      </trkpt>
      <trkpt lat="43.85001" lon="7.23684">
        <ele>543</ele>
        <time>2018-04-26T11:42:24.000Z</time>
      </trkpt>
      <trkpt lat="43.84991" lon="7.23692">
        <ele>543</ele>
        <time>2018-04-26T11:42:28.000Z</time>
      </trkpt>
      <trkpt lat="43.84981" lon="7.23699">
        <ele>543</ele>
        <time>2018-04-26T11:42:32.000Z</time>
      </trkpt>
      <trkpt lat="43.84963" lon="7.23713">
        <ele>543</ele>
        <time>2018-04-26T11:42:39.000Z</time>
      </trkpt>
      <trkpt lat="43.84955" lon="7.2372">
        <ele>543</ele>
        <time>2018-04-26T11:42:42.000Z</time>
      </trkpt>
      <trkpt lat="43.84943" lon="7.23729">
        <ele>543</ele>
        <time>2018-04-26T11:42:46.000Z</time>
      </trkpt>
      <trkpt lat="43.8492" lon="7.23741">
        <ele>544</ele>
        <time>2018-04-26T11:42:53.000Z</time>
      </trkpt>
      <trkpt lat="43.84909" lon="7.23744">
        <ele>544</ele>
        <time>2018-04-26T11:42:56.000Z</time>
      </trkpt>
      <trkpt lat="43.84902" lon="7.23742">
        <ele>544</ele>
        <time>2018-04-26T11:42:58.000Z</time>
      </trkpt>
      <trkpt lat="43.84872" lon="7.23738">
        <ele>543</ele>
        <time>2018-04-26T11:43:06.000Z</time>
      </trkpt>
      <trkpt lat="43.84868" lon="7.23737">
        <ele>543</ele>
        <time>2018-04-26T11:43:07.000Z</time>
      </trkpt>
      <trkpt lat="43.84836" lon="7.23724">
        <ele>543</ele>
        <time>2018-04-26T11:43:16.000Z</time>
      </trkpt>
      <trkpt lat="43.84808" lon="7.23712">
        <ele>541</ele>
        <time>2018-04-26T11:43:24.000Z</time>
      </trkpt>
      <trkpt lat="43.84797" lon="7.23708">
        <ele>541</ele>
        <time>2018-04-26T11:43:27.000Z</time>
      </trkpt>
      <trkpt lat="43.84783" lon="7.23702">
        <ele>541</ele>
        <time>2018-04-26T11:43:31.000Z</time>
      </trkpt>
      <trkpt lat="43.84759" lon="7.23691">
        <ele>540</ele>
        <time>2018-04-26T11:43:39.000Z</time>
      </trkpt>
      <trkpt lat="43.84748" lon="7.23678">
        <ele>539</ele>
        <time>2018-04-26T11:43:44.000Z</time>
      </trkpt>
      <trkpt lat="43.84738" lon="7.23646">
        <ele>541</ele>
        <time>2018-04-26T11:43:52.000Z</time>
      </trkpt>
      <trkpt lat="43.84732" lon="7.23632">
        <ele>542</ele>
        <time>2018-04-26T11:43:56.000Z</time>
      </trkpt>
      <trkpt lat="43.84726" lon="7.23614">
        <ele>542</ele>
        <time>2018-04-26T11:44:01.000Z</time>
      </trkpt>
      <trkpt lat="43.84717" lon="7.23593">
        <ele>543</ele>
        <time>2018-04-26T11:44:08.000Z</time>
      </trkpt>
      <trkpt lat="43.84709" lon="7.23568">
        <ele>546</ele>
        <time>2018-04-26T11:44:16.000Z</time>
      </trkpt>
      <trkpt lat="43.84704" lon="7.2356">
        <ele>546</ele>
        <time>2018-04-26T11:44:22.000Z</time>
      </trkpt>
      <trkpt lat="43.84704" lon="7.2356">
        <ele>546</ele>
        <time>2018-04-26T11:44:24.000Z</time>
      </trkpt>
      <trkpt lat="43.84705" lon="7.23557">
        <ele>546</ele>
        <time>2018-04-26T11:44:32.000Z</time>
      </trkpt>
      <trkpt lat="43.84706" lon="7.23556">
        <ele>546</ele>
        <time>2018-04-26T11:44:33.000Z</time>
      </trkpt>
      <trkpt lat="43.84703" lon="7.23553">
        <ele>546</ele>
        <time>2018-04-26T11:44:36.000Z</time>
      </trkpt>
      <trkpt lat="43.847" lon="7.23553">
        <ele>546</ele>
        <time>2018-04-26T11:44:38.000Z</time>
      </trkpt>
      <trkpt lat="43.84694" lon="7.23557">
        <ele>546</ele>
        <time>2018-04-26T11:44:41.000Z</time>
      </trkpt>
      <trkpt lat="43.84679" lon="7.23558">
        <ele>546</ele>
        <time>2018-04-26T11:44:48.000Z</time>
      </trkpt>
      <trkpt lat="43.84677" lon="7.23556">
        <ele>546</ele>
        <time>2018-04-26T11:44:49.000Z</time>
      </trkpt>
      <trkpt lat="43.84675" lon="7.23551">
        <ele>547</ele>
        <time>2018-04-26T11:44:52.000Z</time>
      </trkpt>
      <trkpt lat="43.84674" lon="7.23549">
        <ele>547</ele>
        <time>2018-04-26T11:44:53.000Z</time>
      </trkpt>
      <trkpt lat="43.84673" lon="7.23547">
        <ele>547</ele>
        <time>2018-04-26T11:44:54.000Z</time>
      </trkpt>
      <trkpt lat="43.8467" lon="7.2354">
        <ele>547</ele>
        <time>2018-04-26T11:44:58.000Z</time>
      </trkpt>
      <trkpt lat="43.84666" lon="7.23531">
        <ele>553</ele>
        <time>2018-04-26T11:45:03.000Z</time>
      </trkpt>
      <trkpt lat="43.84666" lon="7.23529">
        <ele>553</ele>
        <time>2018-04-26T11:45:04.000Z</time>
      </trkpt>
      <trkpt lat="43.84665" lon="7.23528">
        <ele>553</ele>
        <time>2018-04-26T11:45:05.000Z</time>
      </trkpt>
      <trkpt lat="43.84662" lon="7.23522">
        <ele>553</ele>
        <time>2018-04-26T11:45:09.000Z</time>
      </trkpt>
      <trkpt lat="43.84661" lon="7.23521">
        <ele>553</ele>
        <time>2018-04-26T11:45:10.000Z</time>
      </trkpt>
      <trkpt lat="43.84658" lon="7.23514">
        <ele>553</ele>
        <time>2018-04-26T11:45:15.000Z</time>
      </trkpt>
      <trkpt lat="43.84656" lon="7.23506">
        <ele>553</ele>
        <time>2018-04-26T11:45:20.000Z</time>
      </trkpt>
      <trkpt lat="43.84656" lon="7.23505">
        <ele>553</ele>
        <time>2018-04-26T11:45:21.000Z</time>
      </trkpt>
      <trkpt lat="43.84653" lon="7.235">
        <ele>553</ele>
        <time>2018-04-26T11:45:26.000Z</time>
      </trkpt>
      <trkpt lat="43.84652" lon="7.23499">
        <ele>558</ele>
        <time>2018-04-26T11:45:27.000Z</time>
      </trkpt>
      <trkpt lat="43.84651" lon="7.23496">
        <ele>558</ele>
        <time>2018-04-26T11:45:30.000Z</time>
      </trkpt>
      <trkpt lat="43.8465" lon="7.23494">
        <ele>558</ele>
        <time>2018-04-26T11:45:34.000Z</time>
      </trkpt>
      <trkpt lat="43.84651" lon="7.23494">
        <ele>558</ele>
        <time>2018-04-26T11:45:39.000Z</time>
      </trkpt>
      <trkpt lat="43.84652" lon="7.23495">
        <ele>558</ele>
        <time>2018-04-26T11:45:45.000Z</time>
      </trkpt>
      <trkpt lat="43.84653" lon="7.23496">
        <ele>558</ele>
        <time>2018-04-26T11:45:47.000Z</time>
      </trkpt>
      <trkpt lat="43.84656" lon="7.23503">
        <ele>553</ele>
        <time>2018-04-26T11:45:49.000Z</time>
      </trkpt>
      <trkpt lat="43.84661" lon="7.23517">
        <ele>553</ele>
        <time>2018-04-26T11:45:53.000Z</time>
      </trkpt>
      <trkpt lat="43.84664" lon="7.23525">
        <ele>553</ele>
        <time>2018-04-26T11:45:55.000Z</time>
      </trkpt>
      <trkpt lat="43.84666" lon="7.23529">
        <ele>553</ele>
        <time>2018-04-26T11:45:56.000Z</time>
      </trkpt>
      <trkpt lat="43.84671" lon="7.23538">
        <ele>547</ele>
        <time>2018-04-26T11:45:58.000Z</time>
      </trkpt>
      <trkpt lat="43.84676" lon="7.23549">
        <ele>547</ele>
        <time>2018-04-26T11:46:01.000Z</time>
      </trkpt>
      <trkpt lat="43.84683" lon="7.23561">
        <ele>546</ele>
        <time>2018-04-26T11:46:06.000Z</time>
      </trkpt>
      <trkpt lat="43.84686" lon="7.23566">
        <ele>546</ele>
        <time>2018-04-26T11:46:07.000Z</time>
      </trkpt>
      <trkpt lat="43.84687" lon="7.2357">
        <ele>546</ele>
        <time>2018-04-26T11:46:08.000Z</time>
      </trkpt>
      <trkpt lat="43.84686" lon="7.23574">
        <ele>546</ele>
        <time>2018-04-26T11:46:09.000Z</time>
      </trkpt>
      <trkpt lat="43.84682" lon="7.2358">
        <ele>546</ele>
        <time>2018-04-26T11:46:11.000Z</time>
      </trkpt>
      <trkpt lat="43.84673" lon="7.23592">
        <ele>544</ele>
        <time>2018-04-26T11:46:15.000Z</time>
      </trkpt>
      <trkpt lat="43.84668" lon="7.23598">
        <ele>544</ele>
        <time>2018-04-26T11:46:17.000Z</time>
      </trkpt>
      <trkpt lat="43.84647" lon="7.23625">
        <ele>545</ele>
        <time>2018-04-26T11:46:24.000Z</time>
      </trkpt>
      <trkpt lat="43.84623" lon="7.23659">
        <ele>544</ele>
        <time>2018-04-26T11:46:33.000Z</time>
      </trkpt>
      <trkpt lat="43.84617" lon="7.23664">
        <ele>544</ele>
        <time>2018-04-26T11:46:37.000Z</time>
      </trkpt>
      <trkpt lat="43.84612" lon="7.23673">
        <ele>542</ele>
        <time>2018-04-26T11:46:41.000Z</time>
      </trkpt>
      <trkpt lat="43.84606" lon="7.23681">
        <ele>542</ele>
        <time>2018-04-26T11:46:47.000Z</time>
      </trkpt>
      <trkpt lat="43.84603" lon="7.23683">
        <ele>542</ele>
        <time>2018-04-26T11:46:58.000Z</time>
      </trkpt>
      <trkpt lat="43.84596" lon="7.23695">
        <ele>542</ele>
        <time>2018-04-26T11:47:03.000Z</time>
      </trkpt>
      <trkpt lat="43.84579" lon="7.23723">
        <ele>543</ele>
        <time>2018-04-26T11:47:11.000Z</time>
      </trkpt>
      <trkpt lat="43.84556" lon="7.23751">
        <ele>542</ele>
        <time>2018-04-26T11:47:20.000Z</time>
      </trkpt>
      <trkpt lat="43.84542" lon="7.2377">
        <ele>542</ele>
        <time>2018-04-26T11:47:27.000Z</time>
      </trkpt>
      <trkpt lat="43.84539" lon="7.23774">
        <ele>542</ele>
        <time>2018-04-26T11:47:31.000Z</time>
      </trkpt>
      <trkpt lat="43.84538" lon="7.23774">
        <ele>543</ele>
        <time>2018-04-26T11:47:33.000Z</time>
      </trkpt>
      <trkpt lat="43.84537" lon="7.23774">
        <ele>543</ele>
        <time>2018-04-26T11:47:34.000Z</time>
      </trkpt>
      <trkpt lat="43.84536" lon="7.23774">
        <ele>543</ele>
        <time>2018-04-26T11:47:36.000Z</time>
      </trkpt>
      <trkpt lat="43.84536" lon="7.23771">
        <ele>543</ele>
        <time>2018-04-26T11:47:38.000Z</time>
      </trkpt>
      <trkpt lat="43.8454" lon="7.2377">
        <ele>543</ele>
        <time>2018-04-26T11:47:41.000Z</time>
      </trkpt>
      <trkpt lat="43.8454" lon="7.23772">
        <ele>542</ele>
        <time>2018-04-26T11:47:42.000Z</time>
      </trkpt>
      <trkpt lat="43.8454" lon="7.23772">
        <ele>542</ele>
        <time>2018-04-26T11:47:43.000Z</time>
      </trkpt>
      <trkpt lat="43.8454" lon="7.23773">
        <ele>542</ele>
        <time>2018-04-26T11:47:53.000Z</time>
      </trkpt>
      <trkpt lat="43.84539" lon="7.23773">
        <ele>542</ele>
        <time>2018-04-26T11:48:05.000Z</time>
      </trkpt>
      <trkpt lat="43.84537" lon="7.23774">
        <ele>543</ele>
        <time>2018-04-26T11:48:07.000Z</time>
      </trkpt>
      <trkpt lat="43.84534" lon="7.23778">
        <ele>543</ele>
        <time>2018-04-26T11:48:12.000Z</time>
      </trkpt>
      <trkpt lat="43.84533" lon="7.23779">
        <ele>543</ele>
        <time>2018-04-26T11:48:13.000Z</time>
      </trkpt>
      <trkpt lat="43.84531" lon="7.23783">
        <ele>543</ele>
        <time>2018-04-26T11:48:15.000Z</time>
      </trkpt>
      <trkpt lat="43.84533" lon="7.23783">
        <ele>543</ele>
        <time>2018-04-26T11:48:17.000Z</time>
      </trkpt>
      <trkpt lat="43.84537" lon="7.23776">
        <ele>543</ele>
        <time>2018-04-26T11:48:21.000Z</time>
      </trkpt>
      <trkpt lat="43.84536" lon="7.23774">
        <ele>543</ele>
        <time>2018-04-26T11:48:23.000Z</time>
      </trkpt>
      <trkpt lat="43.84534" lon="7.23776">
        <ele>543</ele>
        <time>2018-04-26T11:48:25.000Z</time>
      </trkpt>
      <trkpt lat="43.84532" lon="7.23781">
        <ele>543</ele>
        <time>2018-04-26T11:48:27.000Z</time>
      </trkpt>
      <trkpt lat="43.84524" lon="7.23791">
        <ele>543</ele>
        <time>2018-04-26T11:48:31.000Z</time>
      </trkpt>
      <trkpt lat="43.84504" lon="7.23817">
        <ele>543</ele>
        <time>2018-04-26T11:48:39.000Z</time>
      </trkpt>
      <trkpt lat="43.84487" lon="7.23842">
        <ele>546</ele>
        <time>2018-04-26T11:48:47.000Z</time>
      </trkpt>
      <trkpt lat="43.84482" lon="7.23846">
        <ele>546</ele>
        <time>2018-04-26T11:48:51.000Z</time>
      </trkpt>
      <trkpt lat="43.8448" lon="7.23846">
        <ele>546</ele>
        <time>2018-04-26T11:48:53.000Z</time>
      </trkpt>
      <trkpt lat="43.84479" lon="7.23847">
        <ele>546</ele>
        <time>2018-04-26T11:48:54.000Z</time>
      </trkpt>
      <trkpt lat="43.84475" lon="7.23853">
        <ele>547</ele>
        <time>2018-04-26T11:48:57.000Z</time>
      </trkpt>
      <trkpt lat="43.84467" lon="7.23865">
        <ele>547</ele>
        <time>2018-04-26T11:49:01.000Z</time>
      </trkpt>
      <trkpt lat="43.84462" lon="7.23872">
        <ele>547</ele>
        <time>2018-04-26T11:49:03.000Z</time>
      </trkpt>
      <trkpt lat="43.84446" lon="7.23892">
        <ele>548</ele>
        <time>2018-04-26T11:49:09.000Z</time>
      </trkpt>
      <trkpt lat="43.84444" lon="7.23896">
        <ele>548</ele>
        <time>2018-04-26T11:49:10.000Z</time>
      </trkpt>
      <trkpt lat="43.8444" lon="7.23902">
        <ele>548</ele>
        <time>2018-04-26T11:49:12.000Z</time>
      </trkpt>
      <trkpt lat="43.84436" lon="7.23904">
        <ele>548</ele>
        <time>2018-04-26T11:49:14.000Z</time>
      </trkpt>
      <trkpt lat="43.84434" lon="7.23904">
        <ele>548</ele>
        <time>2018-04-26T11:49:19.000Z</time>
      </trkpt>
      <trkpt lat="43.84435" lon="7.23904">
        <ele>548</ele>
        <time>2018-04-26T11:49:23.000Z</time>
      </trkpt>
      <trkpt lat="43.84433" lon="7.23902">
        <ele>548</ele>
        <time>2018-04-26T11:49:27.000Z</time>
      </trkpt>
      <trkpt lat="43.84431" lon="7.239">
        <ele>548</ele>
        <time>2018-04-26T11:49:30.000Z</time>
      </trkpt>
      <trkpt lat="43.84429" lon="7.23896">
        <ele>548</ele>
        <time>2018-04-26T11:49:35.000Z</time>
      </trkpt>
      <trkpt lat="43.84428" lon="7.23895">
        <ele>548</ele>
        <time>2018-04-26T11:49:36.000Z</time>
      </trkpt>
      <trkpt lat="43.84425" lon="7.23892">
        <ele>549</ele>
        <time>2018-04-26T11:49:43.000Z</time>
      </trkpt>
      <trkpt lat="43.84421" lon="7.23888">
        <ele>549</ele>
        <time>2018-04-26T11:49:50.000Z</time>
      </trkpt>
      <trkpt lat="43.84417" lon="7.23882">
        <ele>549</ele>
        <time>2018-04-26T11:49:57.000Z</time>
      </trkpt>
      <trkpt lat="43.84416" lon="7.23879">
        <ele>556</ele>
        <time>2018-04-26T11:49:59.000Z</time>
      </trkpt>
      <trkpt lat="43.84415" lon="7.23875">
        <ele>556</ele>
        <time>2018-04-26T11:50:03.000Z</time>
      </trkpt>
      <trkpt lat="43.84415" lon="7.23874">
        <ele>556</ele>
        <time>2018-04-26T11:50:04.000Z</time>
      </trkpt>
      <trkpt lat="43.84413" lon="7.23871">
        <ele>556</ele>
        <time>2018-04-26T11:50:09.000Z</time>
      </trkpt>
      <trkpt lat="43.84412" lon="7.23869">
        <ele>556</ele>
        <time>2018-04-26T11:50:11.000Z</time>
      </trkpt>
      <trkpt lat="43.84411" lon="7.23867">
        <ele>556</ele>
        <time>2018-04-26T11:50:14.000Z</time>
      </trkpt>
      <trkpt lat="43.8441" lon="7.23864">
        <ele>556</ele>
        <time>2018-04-26T11:50:18.000Z</time>
      </trkpt>
      <trkpt lat="43.84409" lon="7.23864">
        <ele>556</ele>
        <time>2018-04-26T11:50:19.000Z</time>
      </trkpt>
      <trkpt lat="43.84405" lon="7.23864">
        <ele>556</ele>
        <time>2018-04-26T11:50:25.000Z</time>
      </trkpt>
      <trkpt lat="43.84404" lon="7.23865">
        <ele>556</ele>
        <time>2018-04-26T11:50:28.000Z</time>
      </trkpt>
      <trkpt lat="43.84403" lon="7.23864">
        <ele>556</ele>
        <time>2018-04-26T11:50:30.000Z</time>
      </trkpt>
      <trkpt lat="43.84402" lon="7.23861">
        <ele>557</ele>
        <time>2018-04-26T11:50:34.000Z</time>
      </trkpt>
      <trkpt lat="43.84401" lon="7.23861">
        <ele>557</ele>
        <time>2018-04-26T11:50:35.000Z</time>
      </trkpt>
      <trkpt lat="43.84398" lon="7.23859">
        <ele>557</ele>
        <time>2018-04-26T11:50:41.000Z</time>
      </trkpt>
      <trkpt lat="43.84396" lon="7.23858">
        <ele>557</ele>
        <time>2018-04-26T11:50:44.000Z</time>
      </trkpt>
      <trkpt lat="43.84394" lon="7.23857">
        <ele>557</ele>
        <time>2018-04-26T11:50:47.000Z</time>
      </trkpt>
      <trkpt lat="43.84394" lon="7.23856">
        <ele>557</ele>
        <time>2018-04-26T11:50:50.000Z</time>
      </trkpt>
      <trkpt lat="43.84394" lon="7.23854">
        <ele>557</ele>
        <time>2018-04-26T11:50:54.000Z</time>
      </trkpt>
      <trkpt lat="43.84394" lon="7.2385">
        <ele>557</ele>
        <time>2018-04-26T11:50:57.000Z</time>
      </trkpt>
      <trkpt lat="43.84392" lon="7.23846">
        <ele>557</ele>
        <time>2018-04-26T11:51:02.000Z</time>
      </trkpt>
      <trkpt lat="43.8439" lon="7.23843">
        <ele>557</ele>
        <time>2018-04-26T11:51:05.000Z</time>
      </trkpt>
      <trkpt lat="43.84387" lon="7.23842">
        <ele>558</ele>
        <time>2018-04-26T11:51:09.000Z</time>
      </trkpt>
      <trkpt lat="43.84387" lon="7.23841">
        <ele>558</ele>
        <time>2018-04-26T11:51:11.000Z</time>
      </trkpt>
      <trkpt lat="43.84387" lon="7.23841">
        <ele>558</ele>
        <time>2018-04-26T11:51:17.000Z</time>
      </trkpt>
      <trkpt lat="43.84386" lon="7.23843">
        <ele>558</ele>
        <time>2018-04-26T11:51:23.000Z</time>
      </trkpt>
      <trkpt lat="43.84385" lon="7.23844">
        <ele>558</ele>
        <time>2018-04-26T11:51:24.000Z</time>
      </trkpt>
      <trkpt lat="43.8438" lon="7.23858">
        <ele>558</ele>
        <time>2018-04-26T11:51:30.000Z</time>
      </trkpt>
      <trkpt lat="43.84372" lon="7.23869">
        <ele>559</ele>
        <time>2018-04-26T11:51:36.000Z</time>
      </trkpt>
      <trkpt lat="43.84369" lon="7.23867">
        <ele>559</ele>
        <time>2018-04-26T11:51:38.000Z</time>
      </trkpt>
      <trkpt lat="43.84367" lon="7.23864">
        <ele>559</ele>
        <time>2018-04-26T11:51:40.000Z</time>
      </trkpt>
      <trkpt lat="43.84366" lon="7.23863">
        <ele>560</ele>
        <time>2018-04-26T11:51:41.000Z</time>
      </trkpt>
      <trkpt lat="43.84363" lon="7.23859">
        <ele>560</ele>
        <time>2018-04-26T11:51:44.000Z</time>
      </trkpt>
      <trkpt lat="43.84358" lon="7.23853">
        <ele>561</ele>
        <time>2018-04-26T11:51:48.000Z</time>
      </trkpt>
      <trkpt lat="43.84349" lon="7.23847">
        <ele>562</ele>
        <time>2018-04-26T11:51:53.000Z</time>
      </trkpt>
      <trkpt lat="43.84341" lon="7.23843">
        <ele>564</ele>
        <time>2018-04-26T11:51:58.000Z</time>
      </trkpt>
      <trkpt lat="43.84337" lon="7.2384">
        <ele>565</ele>
        <time>2018-04-26T11:52:01.000Z</time>
      </trkpt>
      <trkpt lat="43.84334" lon="7.23838">
        <ele>565</ele>
        <time>2018-04-26T11:52:03.000Z</time>
      </trkpt>
      <trkpt lat="43.84333" lon="7.23838">
        <ele>567</ele>
        <time>2018-04-26T11:52:04.000Z</time>
      </trkpt>
      <trkpt lat="43.84324" lon="7.23841">
        <ele>566</ele>
        <time>2018-04-26T11:52:09.000Z</time>
      </trkpt>
      <trkpt lat="43.84318" lon="7.23841">
        <ele>566</ele>
        <time>2018-04-26T11:52:12.000Z</time>
      </trkpt>
      <trkpt lat="43.84315" lon="7.23843">
        <ele>566</ele>
        <time>2018-04-26T11:52:14.000Z</time>
      </trkpt>
      <trkpt lat="43.84314" lon="7.23844">
        <ele>566</ele>
        <time>2018-04-26T11:52:15.000Z</time>
      </trkpt>
      <trkpt lat="43.84309" lon="7.23846">
        <ele>566</ele>
        <time>2018-04-26T11:52:18.000Z</time>
      </trkpt>
      <trkpt lat="43.84306" lon="7.23847">
        <ele>566</ele>
        <time>2018-04-26T11:52:20.000Z</time>
      </trkpt>
      <trkpt lat="43.84302" lon="7.23851">
        <ele>566</ele>
        <time>2018-04-26T11:52:23.000Z</time>
      </trkpt>
      <trkpt lat="43.84299" lon="7.23857">
        <ele>566</ele>
        <time>2018-04-26T11:52:26.000Z</time>
      </trkpt>
      <trkpt lat="43.84291" lon="7.23866">
        <ele>566</ele>
        <time>2018-04-26T11:52:32.000Z</time>
      </trkpt>
      <trkpt lat="43.84279" lon="7.23869">
        <ele>566</ele>
        <time>2018-04-26T11:52:38.000Z</time>
      </trkpt>
      <trkpt lat="43.8427" lon="7.23873">
        <ele>565</ele>
        <time>2018-04-26T11:52:44.000Z</time>
      </trkpt>
      <trkpt lat="43.84267" lon="7.23873">
        <ele>565</ele>
        <time>2018-04-26T11:52:49.000Z</time>
      </trkpt>
      <trkpt lat="43.84266" lon="7.23873">
        <ele>565</ele>
        <time>2018-04-26T11:53:03.000Z</time>
      </trkpt>
      <trkpt lat="43.84265" lon="7.23874">
        <ele>565</ele>
        <time>2018-04-26T11:53:28.000Z</time>
      </trkpt>
      <trkpt lat="43.84263" lon="7.23874">
        <ele>565</ele>
        <time>2018-04-26T11:53:33.000Z</time>
      </trkpt>
      <trkpt lat="43.84261" lon="7.23875">
        <ele>566</ele>
        <time>2018-04-26T11:53:35.000Z</time>
      </trkpt>
      <trkpt lat="43.84253" lon="7.23879">
        <ele>566</ele>
        <time>2018-04-26T11:53:39.000Z</time>
      </trkpt>
      <trkpt lat="43.84251" lon="7.23878">
        <ele>566</ele>
        <time>2018-04-26T11:53:40.000Z</time>
      </trkpt>
      <trkpt lat="43.84247" lon="7.23872">
        <ele>561</ele>
        <time>2018-04-26T11:53:42.000Z</time>
      </trkpt>
      <trkpt lat="43.84246" lon="7.23869">
        <ele>561</ele>
        <time>2018-04-26T11:53:43.000Z</time>
      </trkpt>
      <trkpt lat="43.8424" lon="7.23862">
        <ele>561</ele>
        <time>2018-04-26T11:53:46.000Z</time>
      </trkpt>
      <trkpt lat="43.84239" lon="7.23858">
        <ele>561</ele>
        <time>2018-04-26T11:53:47.000Z</time>
      </trkpt>
      <trkpt lat="43.84242" lon="7.23851">
        <ele>562</ele>
        <time>2018-04-26T11:53:49.000Z</time>
      </trkpt>
      <trkpt lat="43.84244" lon="7.23847">
        <ele>562</ele>
        <time>2018-04-26T11:53:50.000Z</time>
      </trkpt>
      <trkpt lat="43.84247" lon="7.23844">
        <ele>563</ele>
        <time>2018-04-26T11:53:51.000Z</time>
      </trkpt>
      <trkpt lat="43.84257" lon="7.23828">
        <ele>566</ele>
        <time>2018-04-26T11:53:55.000Z</time>
      </trkpt>
      <trkpt lat="43.84259" lon="7.23824">
        <ele>566</ele>
        <time>2018-04-26T11:53:56.000Z</time>
      </trkpt>
      <trkpt lat="43.84268" lon="7.23806">
        <ele>567</ele>
        <time>2018-04-26T11:53:59.000Z</time>
      </trkpt>
      <trkpt lat="43.84271" lon="7.238">
        <ele>567</ele>
        <time>2018-04-26T11:54:00.000Z</time>
      </trkpt>
      <trkpt lat="43.84274" lon="7.23795">
        <ele>567</ele>
        <time>2018-04-26T11:54:01.000Z</time>
      </trkpt>
      <trkpt lat="43.84275" lon="7.23788">
        <ele>567</ele>
        <time>2018-04-26T11:54:02.000Z</time>
      </trkpt>
      <trkpt lat="43.84274" lon="7.23783">
        <ele>567</ele>
        <time>2018-04-26T11:54:03.000Z</time>
      </trkpt>
      <trkpt lat="43.84272" lon="7.23773">
        <ele>567</ele>
        <time>2018-04-26T11:54:05.000Z</time>
      </trkpt>
      <trkpt lat="43.84272" lon="7.23765">
        <ele>567</ele>
        <time>2018-04-26T11:54:07.000Z</time>
      </trkpt>
      <trkpt lat="43.8427" lon="7.2376">
        <ele>567</ele>
        <time>2018-04-26T11:54:11.000Z</time>
      </trkpt>
      <trkpt lat="43.8427" lon="7.2376">
        <ele>567</ele>
        <time>2018-04-26T11:54:13.000Z</time>
      </trkpt>
      <trkpt lat="43.84269" lon="7.2376">
        <ele>567</ele>
        <time>2018-04-26T11:54:16.000Z</time>
      </trkpt>
      <trkpt lat="43.84265" lon="7.23756">
        <ele>567</ele>
        <time>2018-04-26T11:54:19.000Z</time>
      </trkpt>
      <trkpt lat="43.84251" lon="7.23744">
        <ele>567</ele>
        <time>2018-04-26T11:54:24.000Z</time>
      </trkpt>
      <trkpt lat="43.8424" lon="7.23734">
        <ele>564</ele>
        <time>2018-04-26T11:54:27.000Z</time>
      </trkpt>
      <trkpt lat="43.84229" lon="7.2372">
        <ele>563</ele>
        <time>2018-04-26T11:54:31.000Z</time>
      </trkpt>
      <trkpt lat="43.84226" lon="7.23716">
        <ele>563</ele>
        <time>2018-04-26T11:54:32.000Z</time>
      </trkpt>
      <trkpt lat="43.84222" lon="7.23713">
        <ele>563</ele>
        <time>2018-04-26T11:54:33.000Z</time>
      </trkpt>
      <trkpt lat="43.84216" lon="7.23705">
        <ele>563</ele>
        <time>2018-04-26T11:54:35.000Z</time>
      </trkpt>
      <trkpt lat="43.84208" lon="7.23698">
        <ele>562</ele>
        <time>2018-04-26T11:54:37.000Z</time>
      </trkpt>
      <trkpt lat="43.842" lon="7.23691">
        <ele>562</ele>
        <time>2018-04-26T11:54:39.000Z</time>
      </trkpt>
      <trkpt lat="43.8419" lon="7.23684">
        <ele>561</ele>
        <time>2018-04-26T11:54:41.000Z</time>
      </trkpt>
      <trkpt lat="43.84185" lon="7.2368">
        <ele>561</ele>
        <time>2018-04-26T11:54:42.000Z</time>
      </trkpt>
      <trkpt lat="43.84179" lon="7.23677">
        <ele>560</ele>
        <time>2018-04-26T11:54:43.000Z</time>
      </trkpt>
      <trkpt lat="43.84172" lon="7.23674">
        <ele>559</ele>
        <time>2018-04-26T11:54:44.000Z</time>
      </trkpt>
      <trkpt lat="43.84166" lon="7.2367">
        <ele>559</ele>
        <time>2018-04-26T11:54:45.000Z</time>
      </trkpt>
      <trkpt lat="43.8416" lon="7.23666">
        <ele>560</ele>
        <time>2018-04-26T11:54:46.000Z</time>
      </trkpt>
      <trkpt lat="43.84155" lon="7.23663">
        <ele>561</ele>
        <time>2018-04-26T11:54:47.000Z</time>
      </trkpt>
      <trkpt lat="43.84147" lon="7.23659">
        <ele>563</ele>
        <time>2018-04-26T11:54:49.000Z</time>
      </trkpt>
      <trkpt lat="43.84136" lon="7.23656">
        <ele>564</ele>
        <time>2018-04-26T11:54:54.000Z</time>
      </trkpt>
      <trkpt lat="43.8413" lon="7.23656">
        <ele>565</ele>
        <time>2018-04-26T11:54:56.000Z</time>
      </trkpt>
      <trkpt lat="43.84121" lon="7.23653">
        <ele>565</ele>
        <time>2018-04-26T11:54:59.000Z</time>
      </trkpt>
      <trkpt lat="43.8411" lon="7.23649">
        <ele>566</ele>
        <time>2018-04-26T11:55:03.000Z</time>
      </trkpt>
      <trkpt lat="43.84107" lon="7.2365">
        <ele>566</ele>
        <time>2018-04-26T11:55:04.000Z</time>
      </trkpt>
      <trkpt lat="43.84104" lon="7.23657">
        <ele>566</ele>
        <time>2018-04-26T11:55:06.000Z</time>
      </trkpt>
      <trkpt lat="43.84103" lon="7.2366">
        <ele>567</ele>
        <time>2018-04-26T11:55:07.000Z</time>
      </trkpt>
      <trkpt lat="43.841" lon="7.23674">
        <ele>565</ele>
        <time>2018-04-26T11:55:11.000Z</time>
      </trkpt>
      <trkpt lat="43.841" lon="7.23678">
        <ele>565</ele>
        <time>2018-04-26T11:55:12.000Z</time>
      </trkpt>
      <trkpt lat="43.841" lon="7.23689">
        <ele>564</ele>
        <time>2018-04-26T11:55:16.000Z</time>
      </trkpt>
      <trkpt lat="43.841" lon="7.23697">
        <ele>564</ele>
        <time>2018-04-26T11:55:19.000Z</time>
      </trkpt>
      <trkpt lat="43.841" lon="7.23704">
        <ele>564</ele>
        <time>2018-04-26T11:55:22.000Z</time>
      </trkpt>
      <trkpt lat="43.841" lon="7.23712">
        <ele>564</ele>
        <time>2018-04-26T11:55:26.000Z</time>
      </trkpt>
      <trkpt lat="43.84099" lon="7.23714">
        <ele>564</ele>
        <time>2018-04-26T11:55:27.000Z</time>
      </trkpt>
      <trkpt lat="43.84098" lon="7.2372">
        <ele>564</ele>
        <time>2018-04-26T11:55:31.000Z</time>
      </trkpt>
      <trkpt lat="43.84098" lon="7.23721">
        <ele>564</ele>
        <time>2018-04-26T11:55:35.000Z</time>
      </trkpt>
      <trkpt lat="43.84098" lon="7.23722">
        <ele>564</ele>
        <time>2018-04-26T11:55:36.000Z</time>
      </trkpt>
      <trkpt lat="43.84097" lon="7.23724">
        <ele>564</ele>
        <time>2018-04-26T11:55:39.000Z</time>
      </trkpt>
      <trkpt lat="43.84097" lon="7.23729">
        <ele>565</ele>
        <time>2018-04-26T11:55:41.000Z</time>
      </trkpt>
      <trkpt lat="43.84098" lon="7.23744">
        <ele>566</ele>
        <time>2018-04-26T11:55:46.000Z</time>
      </trkpt>
      <trkpt lat="43.84098" lon="7.23747">
        <ele>566</ele>
        <time>2018-04-26T11:55:47.000Z</time>
      </trkpt>
      <trkpt lat="43.84097" lon="7.23763">
        <ele>564</ele>
        <time>2018-04-26T11:55:52.000Z</time>
      </trkpt>
      <trkpt lat="43.84095" lon="7.23767">
        <ele>564</ele>
        <time>2018-04-26T11:55:54.000Z</time>
      </trkpt>
      <trkpt lat="43.84094" lon="7.23773">
        <ele>563</ele>
        <time>2018-04-26T11:55:57.000Z</time>
      </trkpt>
      <trkpt lat="43.84093" lon="7.23776">
        <ele>563</ele>
        <time>2018-04-26T11:55:58.000Z</time>
      </trkpt>
      <trkpt lat="43.84092" lon="7.23782">
        <ele>563</ele>
        <time>2018-04-26T11:56:01.000Z</time>
      </trkpt>
      <trkpt lat="43.84092" lon="7.23788">
        <ele>563</ele>
        <time>2018-04-26T11:56:04.000Z</time>
      </trkpt>
      <trkpt lat="43.84092" lon="7.23792">
        <ele>562</ele>
        <time>2018-04-26T11:56:06.000Z</time>
      </trkpt>
      <trkpt lat="43.84094" lon="7.23801">
        <ele>562</ele>
        <time>2018-04-26T11:56:09.000Z</time>
      </trkpt>
      <trkpt lat="43.84092" lon="7.23819">
        <ele>563</ele>
        <time>2018-04-26T11:56:14.000Z</time>
      </trkpt>
      <trkpt lat="43.8409" lon="7.23821">
        <ele>563</ele>
        <time>2018-04-26T11:56:15.000Z</time>
      </trkpt>
      <trkpt lat="43.84086" lon="7.23821">
        <ele>563</ele>
        <time>2018-04-26T11:56:18.000Z</time>
      </trkpt>
      <trkpt lat="43.84085" lon="7.2382">
        <ele>563</ele>
        <time>2018-04-26T11:56:19.000Z</time>
      </trkpt>
      <trkpt lat="43.84084" lon="7.23819">
        <ele>563</ele>
        <time>2018-04-26T11:56:20.000Z</time>
      </trkpt>
      <trkpt lat="43.84082" lon="7.23816">
        <ele>569</ele>
        <time>2018-04-26T11:56:23.000Z</time>
      </trkpt>
      <trkpt lat="43.8408" lon="7.23814">
        <ele>569</ele>
        <time>2018-04-26T11:56:24.000Z</time>
      </trkpt>
      <trkpt lat="43.84073" lon="7.2381">
        <ele>570</ele>
        <time>2018-04-26T11:56:28.000Z</time>
      </trkpt>
      <trkpt lat="43.8407" lon="7.23807">
        <ele>571</ele>
        <time>2018-04-26T11:56:31.000Z</time>
      </trkpt>
      <trkpt lat="43.84068" lon="7.23806">
        <ele>571</ele>
        <time>2018-04-26T11:56:32.000Z</time>
      </trkpt>
      <trkpt lat="43.84067" lon="7.23806">
        <ele>571</ele>
        <time>2018-04-26T11:56:33.000Z</time>
      </trkpt>
      <trkpt lat="43.84062" lon="7.23798">
        <ele>572</ele>
        <time>2018-04-26T11:56:38.000Z</time>
      </trkpt>
      <trkpt lat="43.84061" lon="7.23797">
        <ele>572</ele>
        <time>2018-04-26T11:56:39.000Z</time>
      </trkpt>
      <trkpt lat="43.84058" lon="7.23793">
        <ele>572</ele>
        <time>2018-04-26T11:56:42.000Z</time>
      </trkpt>
      <trkpt lat="43.84057" lon="7.23793">
        <ele>572</ele>
        <time>2018-04-26T11:56:43.000Z</time>
      </trkpt>
      <trkpt lat="43.84056" lon="7.23794">
        <ele>572</ele>
        <time>2018-04-26T11:56:44.000Z</time>
      </trkpt>
      <trkpt lat="43.84051" lon="7.23799">
        <ele>572</ele>
        <time>2018-04-26T11:56:47.000Z</time>
      </trkpt>
      <trkpt lat="43.84047" lon="7.238">
        <ele>573</ele>
        <time>2018-04-26T11:56:48.000Z</time>
      </trkpt>
      <trkpt lat="43.84033" lon="7.23797">
        <ele>574</ele>
        <time>2018-04-26T11:56:53.000Z</time>
      </trkpt>
      <trkpt lat="43.8402" lon="7.23793">
        <ele>575</ele>
        <time>2018-04-26T11:56:58.000Z</time>
      </trkpt>
      <trkpt lat="43.84006" lon="7.23793">
        <ele>576</ele>
        <time>2018-04-26T11:57:03.000Z</time>
      </trkpt>
      <trkpt lat="43.83977" lon="7.23799">
        <ele>581</ele>
        <time>2018-04-26T11:57:12.000Z</time>
      </trkpt>
      <trkpt lat="43.83964" lon="7.23806">
        <ele>582</ele>
        <time>2018-04-26T11:57:17.000Z</time>
      </trkpt>
      <trkpt lat="43.83958" lon="7.23805">
        <ele>582</ele>
        <time>2018-04-26T11:57:20.000Z</time>
      </trkpt>
      <trkpt lat="43.83957" lon="7.23806">
        <ele>582</ele>
        <time>2018-04-26T11:57:21.000Z</time>
      </trkpt>
      <trkpt lat="43.83955" lon="7.23806">
        <ele>582</ele>
        <time>2018-04-26T11:57:22.000Z</time>
      </trkpt>
      <trkpt lat="43.83952" lon="7.23806">
        <ele>582</ele>
        <time>2018-04-26T11:57:24.000Z</time>
      </trkpt>
      <trkpt lat="43.83949" lon="7.23804">
        <ele>582</ele>
        <time>2018-04-26T11:57:26.000Z</time>
      </trkpt>
      <trkpt lat="43.83946" lon="7.23804">
        <ele>582</ele>
        <time>2018-04-26T11:57:28.000Z</time>
      </trkpt>
      <trkpt lat="43.83944" lon="7.23804">
        <ele>583</ele>
        <time>2018-04-26T11:57:30.000Z</time>
      </trkpt>
      <trkpt lat="43.83939" lon="7.23804">
        <ele>583</ele>
        <time>2018-04-26T11:57:33.000Z</time>
      </trkpt>
      <trkpt lat="43.83938" lon="7.23803">
        <ele>583</ele>
        <time>2018-04-26T11:57:34.000Z</time>
      </trkpt>
      <trkpt lat="43.83936" lon="7.238">
        <ele>583</ele>
        <time>2018-04-26T11:57:37.000Z</time>
      </trkpt>
      <trkpt lat="43.83935" lon="7.23799">
        <ele>583</ele>
        <time>2018-04-26T11:57:38.000Z</time>
      </trkpt>
      <trkpt lat="43.8393" lon="7.23793">
        <ele>583</ele>
        <time>2018-04-26T11:57:43.000Z</time>
      </trkpt>
      <trkpt lat="43.83929" lon="7.23791">
        <ele>583</ele>
        <time>2018-04-26T11:57:44.000Z</time>
      </trkpt>
      <trkpt lat="43.83926" lon="7.23789">
        <ele>583</ele>
        <time>2018-04-26T11:57:47.000Z</time>
      </trkpt>
      <trkpt lat="43.83925" lon="7.23787">
        <ele>583</ele>
        <time>2018-04-26T11:57:48.000Z</time>
      </trkpt>
      <trkpt lat="43.83924" lon="7.23786">
        <ele>582</ele>
        <time>2018-04-26T11:57:49.000Z</time>
      </trkpt>
      <trkpt lat="43.83922" lon="7.23784">
        <ele>582</ele>
        <time>2018-04-26T11:57:51.000Z</time>
      </trkpt>
      <trkpt lat="43.8392" lon="7.2378">
        <ele>582</ele>
        <time>2018-04-26T11:57:54.000Z</time>
      </trkpt>
      <trkpt lat="43.8392" lon="7.23777">
        <ele>582</ele>
        <time>2018-04-26T11:57:56.000Z</time>
      </trkpt>
      <trkpt lat="43.8392" lon="7.23775">
        <ele>582</ele>
        <time>2018-04-26T11:57:57.000Z</time>
      </trkpt>
      <trkpt lat="43.83922" lon="7.23771">
        <ele>582</ele>
        <time>2018-04-26T11:57:59.000Z</time>
      </trkpt>
      <trkpt lat="43.83927" lon="7.23756">
        <ele>582</ele>
        <time>2018-04-26T11:58:04.000Z</time>
      </trkpt>
      <trkpt lat="43.83928" lon="7.23754">
        <ele>582</ele>
        <time>2018-04-26T11:58:05.000Z</time>
      </trkpt>
      <trkpt lat="43.83935" lon="7.23738">
        <ele>583</ele>
        <time>2018-04-26T11:58:12.000Z</time>
      </trkpt>
      <trkpt lat="43.83935" lon="7.23737">
        <ele>583</ele>
        <time>2018-04-26T11:58:13.000Z</time>
      </trkpt>
      <trkpt lat="43.83936" lon="7.23735">
        <ele>583</ele>
        <time>2018-04-26T11:58:16.000Z</time>
      </trkpt>
      <trkpt lat="43.83935" lon="7.23735">
        <ele>583</ele>
        <time>2018-04-26T11:58:21.000Z</time>
      </trkpt>
      <trkpt lat="43.83934" lon="7.23734">
        <ele>583</ele>
        <time>2018-04-26T11:58:31.000Z</time>
      </trkpt>
      <trkpt lat="43.83933" lon="7.23734">
        <ele>583</ele>
        <time>2018-04-26T11:58:40.000Z</time>
      </trkpt>
      <trkpt lat="43.83932" lon="7.23734">
        <ele>583</ele>
        <time>2018-04-26T11:58:43.000Z</time>
      </trkpt>
      <trkpt lat="43.83929" lon="7.23734">
        <ele>582</ele>
        <time>2018-04-26T11:58:45.000Z</time>
      </trkpt>
      <trkpt lat="43.83917" lon="7.23737">
        <ele>582</ele>
        <time>2018-04-26T11:58:50.000Z</time>
      </trkpt>
      <trkpt lat="43.83915" lon="7.23737">
        <ele>575</ele>
        <time>2018-04-26T11:58:51.000Z</time>
      </trkpt>
      <trkpt lat="43.83911" lon="7.23736">
        <ele>574</ele>
        <time>2018-04-26T11:58:52.000Z</time>
      </trkpt>
      <trkpt lat="43.83908" lon="7.23729">
        <ele>572</ele>
        <time>2018-04-26T11:58:54.000Z</time>
      </trkpt>
      <trkpt lat="43.83906" lon="7.23722">
        <ele>571</ele>
        <time>2018-04-26T11:58:56.000Z</time>
      </trkpt>
      <trkpt lat="43.83903" lon="7.2372">
        <ele>570</ele>
        <time>2018-04-26T11:58:58.000Z</time>
      </trkpt>
      <trkpt lat="43.83901" lon="7.23721">
        <ele>570</ele>
        <time>2018-04-26T11:58:59.000Z</time>
      </trkpt>
      <trkpt lat="43.83896" lon="7.23723">
        <ele>570</ele>
        <time>2018-04-26T11:59:01.000Z</time>
      </trkpt>
      <trkpt lat="43.8389" lon="7.23726">
        <ele>569</ele>
        <time>2018-04-26T11:59:03.000Z</time>
      </trkpt>
      <trkpt lat="43.83888" lon="7.23727">
        <ele>568</ele>
        <time>2018-04-26T11:59:04.000Z</time>
      </trkpt>
      <trkpt lat="43.83884" lon="7.23729">
        <ele>568</ele>
        <time>2018-04-26T11:59:06.000Z</time>
      </trkpt>
      <trkpt lat="43.83882" lon="7.23731">
        <ele>567</ele>
        <time>2018-04-26T11:59:07.000Z</time>
      </trkpt>
      <trkpt lat="43.8388" lon="7.23732">
        <ele>567</ele>
        <time>2018-04-26T11:59:08.000Z</time>
      </trkpt>
      <trkpt lat="43.83872" lon="7.23731">
        <ele>565</ele>
        <time>2018-04-26T11:59:12.000Z</time>
      </trkpt>
      <trkpt lat="43.83868" lon="7.23731">
        <ele>564</ele>
        <time>2018-04-26T11:59:14.000Z</time>
      </trkpt>
      <trkpt lat="43.83864" lon="7.23733">
        <ele>563</ele>
        <time>2018-04-26T11:59:16.000Z</time>
      </trkpt>
      <trkpt lat="43.83862" lon="7.23735">
        <ele>563</ele>
        <time>2018-04-26T11:59:17.000Z</time>
      </trkpt>
      <trkpt lat="43.8386" lon="7.23735">
        <ele>562</ele>
        <time>2018-04-26T11:59:18.000Z</time>
      </trkpt>
      <trkpt lat="43.83853" lon="7.23734">
        <ele>560</ele>
        <time>2018-04-26T11:59:21.000Z</time>
      </trkpt>
      <trkpt lat="43.83847" lon="7.23736">
        <ele>559</ele>
        <time>2018-04-26T11:59:23.000Z</time>
      </trkpt>
      <trkpt lat="43.83845" lon="7.23738">
        <ele>558</ele>
        <time>2018-04-26T11:59:24.000Z</time>
      </trkpt>
      <trkpt lat="43.83843" lon="7.2374">
        <ele>557</ele>
        <time>2018-04-26T11:59:25.000Z</time>
      </trkpt>
      <trkpt lat="43.83831" lon="7.23748">
        <ele>549</ele>
        <time>2018-04-26T11:59:28.000Z</time>
      </trkpt>
      <trkpt lat="43.83826" lon="7.23751">
        <ele>549</ele>
        <time>2018-04-26T11:59:29.000Z</time>
      </trkpt>
      <trkpt lat="43.83821" lon="7.23756">
        <ele>548</ele>
        <time>2018-04-26T11:59:30.000Z</time>
      </trkpt>
      <trkpt lat="43.83816" lon="7.23761">
        <ele>547</ele>
        <time>2018-04-26T11:59:31.000Z</time>
      </trkpt>
      <trkpt lat="43.83811" lon="7.23768">
        <ele>546</ele>
        <time>2018-04-26T11:59:32.000Z</time>
      </trkpt>
      <trkpt lat="43.83807" lon="7.23773">
        <ele>546</ele>
        <time>2018-04-26T11:59:33.000Z</time>
      </trkpt>
      <trkpt lat="43.83804" lon="7.23779">
        <ele>546</ele>
        <time>2018-04-26T11:59:34.000Z</time>
      </trkpt>
      <trkpt lat="43.83799" lon="7.23789">
        <ele>546</ele>
        <time>2018-04-26T11:59:36.000Z</time>
      </trkpt>
      <trkpt lat="43.83796" lon="7.23794">
        <ele>546</ele>
        <time>2018-04-26T11:59:37.000Z</time>
      </trkpt>
      <trkpt lat="43.83789" lon="7.23806">
        <ele>546</ele>
        <time>2018-04-26T11:59:40.000Z</time>
      </trkpt>
      <trkpt lat="43.83783" lon="7.23819">
        <ele>546</ele>
        <time>2018-04-26T11:59:42.000Z</time>
      </trkpt>
      <trkpt lat="43.8378" lon="7.23827">
        <ele>545</ele>
        <time>2018-04-26T11:59:43.000Z</time>
      </trkpt>
      <trkpt lat="43.83776" lon="7.23833">
        <ele>545</ele>
        <time>2018-04-26T11:59:44.000Z</time>
      </trkpt>
      <trkpt lat="43.83772" lon="7.23837">
        <ele>555</ele>
        <time>2018-04-26T11:59:45.000Z</time>
      </trkpt>
      <trkpt lat="43.83768" lon="7.23839">
        <ele>554</ele>
        <time>2018-04-26T11:59:46.000Z</time>
      </trkpt>
      <trkpt lat="43.83753" lon="7.23841">
        <ele>547</ele>
        <time>2018-04-26T11:59:49.000Z</time>
      </trkpt>
      <trkpt lat="43.83748" lon="7.23841">
        <ele>541</ele>
        <time>2018-04-26T11:59:50.000Z</time>
      </trkpt>
      <trkpt lat="43.83744" lon="7.23841">
        <ele>541</ele>
        <time>2018-04-26T11:59:51.000Z</time>
      </trkpt>
      <trkpt lat="43.83735" lon="7.2384">
        <ele>541</ele>
        <time>2018-04-26T11:59:53.000Z</time>
      </trkpt>
      <trkpt lat="43.83727" lon="7.2384">
        <ele>541</ele>
        <time>2018-04-26T11:59:55.000Z</time>
      </trkpt>
      <trkpt lat="43.83721" lon="7.23841">
        <ele>540</ele>
        <time>2018-04-26T11:59:57.000Z</time>
      </trkpt>
      <trkpt lat="43.83717" lon="7.2384">
        <ele>540</ele>
        <time>2018-04-26T11:59:58.000Z</time>
      </trkpt>
      <trkpt lat="43.83715" lon="7.2384">
        <ele>539</ele>
        <time>2018-04-26T11:59:59.000Z</time>
      </trkpt>
      <trkpt lat="43.83713" lon="7.23841">
        <ele>539</ele>
        <time>2018-04-26T12:00:00.000Z</time>
      </trkpt>
      <trkpt lat="43.83712" lon="7.23841">
        <ele>539</ele>
        <time>2018-04-26T12:00:02.000Z</time>
      </trkpt>
      <trkpt lat="43.83711" lon="7.23841">
        <ele>539</ele>
        <time>2018-04-26T12:00:03.000Z</time>
      </trkpt>
      <trkpt lat="43.83711" lon="7.2384">
        <ele>539</ele>
        <time>2018-04-26T12:00:06.000Z</time>
      </trkpt>
      <trkpt lat="43.8371" lon="7.2384">
        <ele>539</ele>
        <time>2018-04-26T12:00:09.000Z</time>
      </trkpt>
      <trkpt lat="43.8371" lon="7.2384">
        <ele>539</ele>
        <time>2018-04-26T12:00:16.000Z</time>
      </trkpt>
      <trkpt lat="43.8371" lon="7.23839">
        <ele>538</ele>
        <time>2018-04-26T12:00:17.000Z</time>
      </trkpt>
      <trkpt lat="43.8371" lon="7.23838">
        <ele>538</ele>
        <time>2018-04-26T12:00:21.000Z</time>
      </trkpt>
      <trkpt lat="43.8371" lon="7.23838">
        <ele>538</ele>
        <time>2018-04-26T12:00:23.000Z</time>
      </trkpt>
      <trkpt lat="43.8371" lon="7.23836">
        <ele>538</ele>
        <time>2018-04-26T12:00:25.000Z</time>
      </trkpt>
      <trkpt lat="43.83709" lon="7.23833">
        <ele>538</ele>
        <time>2018-04-26T12:00:27.000Z</time>
      </trkpt>
      <trkpt lat="43.83709" lon="7.23832">
        <ele>523</ele>
        <time>2018-04-26T12:00:32.000Z</time>
      </trkpt>
      <trkpt lat="43.8371" lon="7.23832">
        <ele>523</ele>
        <time>2018-04-26T12:00:34.000Z</time>
      </trkpt>
      <trkpt lat="43.83711" lon="7.23829">
        <ele>523</ele>
        <time>2018-04-26T12:00:40.000Z</time>
      </trkpt>
      <trkpt lat="43.83711" lon="7.23829">
        <ele>523</ele>
        <time>2018-04-26T12:00:42.000Z</time>
      </trkpt>
      <trkpt lat="43.83711" lon="7.2383">
        <ele>523</ele>
        <time>2018-04-26T12:00:52.000Z</time>
      </trkpt>
      <trkpt lat="43.83711" lon="7.2383">
        <ele>523</ele>
        <time>2018-04-26T12:01:00.000Z</time>
      </trkpt>
      <trkpt lat="43.83705" lon="7.23829">
        <ele>522</ele>
        <time>2018-04-26T12:01:05.000Z</time>
      </trkpt>
      <trkpt lat="43.83706" lon="7.23829">
        <ele>522</ele>
        <time>2018-04-26T12:01:06.000Z</time>
      </trkpt>
      <trkpt lat="43.83702" lon="7.2383">
        <ele>522</ele>
        <time>2018-04-26T12:01:07.000Z</time>
      </trkpt>
      <trkpt lat="43.83701" lon="7.23825">
        <ele>521</ele>
        <time>2018-04-26T12:01:09.000Z</time>
      </trkpt>
      <trkpt lat="43.83702" lon="7.23822">
        <ele>521</ele>
        <time>2018-04-26T12:01:10.000Z</time>
      </trkpt>
      <trkpt lat="43.83705" lon="7.23816">
        <ele>521</ele>
        <time>2018-04-26T12:01:12.000Z</time>
      </trkpt>
      <trkpt lat="43.83702" lon="7.23818">
        <ele>521</ele>
        <time>2018-04-26T12:01:14.000Z</time>
      </trkpt>
      <trkpt lat="43.837" lon="7.23819">
        <ele>521</ele>
        <time>2018-04-26T12:01:15.000Z</time>
      </trkpt>
      <trkpt lat="43.83698" lon="7.2382">
        <ele>521</ele>
        <time>2018-04-26T12:01:16.000Z</time>
      </trkpt>
      <trkpt lat="43.83696" lon="7.23817">
        <ele>520</ele>
        <time>2018-04-26T12:01:18.000Z</time>
      </trkpt>
      <trkpt lat="43.83695" lon="7.2381">
        <ele>519</ele>
        <time>2018-04-26T12:01:20.000Z</time>
      </trkpt>
      <trkpt lat="43.83693" lon="7.23808">
        <ele>519</ele>
        <time>2018-04-26T12:01:21.000Z</time>
      </trkpt>
      <trkpt lat="43.83693" lon="7.23804">
        <ele>519</ele>
        <time>2018-04-26T12:01:22.000Z</time>
      </trkpt>
      <trkpt lat="43.83696" lon="7.238">
        <ele>519</ele>
        <time>2018-04-26T12:01:24.000Z</time>
      </trkpt>
      <trkpt lat="43.837" lon="7.23799">
        <ele>519</ele>
        <time>2018-04-26T12:01:26.000Z</time>
      </trkpt>
      <trkpt lat="43.83702" lon="7.23799">
        <ele>519</ele>
        <time>2018-04-26T12:01:27.000Z</time>
      </trkpt>
      <trkpt lat="43.83702" lon="7.23796">
        <ele>519</ele>
        <time>2018-04-26T12:01:31.000Z</time>
      </trkpt>
      <trkpt lat="43.83702" lon="7.23796">
        <ele>519</ele>
        <time>2018-04-26T12:01:40.000Z</time>
      </trkpt>
      <trkpt lat="43.83702" lon="7.23797">
        <ele>519</ele>
        <time>2018-04-26T12:01:48.000Z</time>
      </trkpt>
      <trkpt lat="43.83702" lon="7.23797">
        <ele>519</ele>
        <time>2018-04-26T12:01:49.000Z</time>
      </trkpt>
      <trkpt lat="43.83701" lon="7.23797">
        <ele>519</ele>
        <time>2018-04-26T12:01:50.000Z</time>
      </trkpt>
      <trkpt lat="43.83699" lon="7.23794">
        <ele>518</ele>
        <time>2018-04-26T12:01:55.000Z</time>
      </trkpt>
      <trkpt lat="43.83697" lon="7.23792">
        <ele>518</ele>
        <time>2018-04-26T12:01:58.000Z</time>
      </trkpt>
      <trkpt lat="43.83697" lon="7.23792">
        <ele>518</ele>
        <time>2018-04-26T12:02:01.000Z</time>
      </trkpt>
      <trkpt lat="43.83697" lon="7.23788">
        <ele>518</ele>
        <time>2018-04-26T12:02:03.000Z</time>
      </trkpt>
      <trkpt lat="43.83697" lon="7.23788">
        <ele>518</ele>
        <time>2018-04-26T12:02:04.000Z</time>
      </trkpt>
      <trkpt lat="43.8369" lon="7.23785">
        <ele>516</ele>
        <time>2018-04-26T12:02:09.000Z</time>
      </trkpt>
      <trkpt lat="43.83689" lon="7.23783">
        <ele>516</ele>
        <time>2018-04-26T12:02:10.000Z</time>
      </trkpt>
      <trkpt lat="43.83686" lon="7.23782">
        <ele>515</ele>
        <time>2018-04-26T12:02:12.000Z</time>
      </trkpt>
      <trkpt lat="43.8368" lon="7.23787">
        <ele>515</ele>
        <time>2018-04-26T12:02:14.000Z</time>
      </trkpt>
      <trkpt lat="43.83677" lon="7.23791">
        <ele>516</ele>
        <time>2018-04-26T12:02:15.000Z</time>
      </trkpt>
      <trkpt lat="43.83674" lon="7.23792">
        <ele>516</ele>
        <time>2018-04-26T12:02:16.000Z</time>
      </trkpt>
      <trkpt lat="43.83669" lon="7.23792">
        <ele>516</ele>
        <time>2018-04-26T12:02:18.000Z</time>
      </trkpt>
      <trkpt lat="43.83666" lon="7.23792">
        <ele>500</ele>
        <time>2018-04-26T12:02:19.000Z</time>
      </trkpt>
      <trkpt lat="43.8366" lon="7.2379">
        <ele>499</ele>
        <time>2018-04-26T12:02:22.000Z</time>
      </trkpt>
      <trkpt lat="43.83659" lon="7.2379">
        <ele>499</ele>
        <time>2018-04-26T12:02:24.000Z</time>
      </trkpt>
      <trkpt lat="43.83659" lon="7.2379">
        <ele>499</ele>
        <time>2018-04-26T12:02:26.000Z</time>
      </trkpt>
      <trkpt lat="43.83659" lon="7.23789">
        <ele>499</ele>
        <time>2018-04-26T12:02:27.000Z</time>
      </trkpt>
      <trkpt lat="43.83663" lon="7.23789">
        <ele>499</ele>
        <time>2018-04-26T12:02:30.000Z</time>
      </trkpt>
      <trkpt lat="43.83665" lon="7.23792">
        <ele>500</ele>
        <time>2018-04-26T12:02:33.000Z</time>
      </trkpt>
      <trkpt lat="43.83665" lon="7.23792">
        <ele>500</ele>
        <time>2018-04-26T12:02:35.000Z</time>
      </trkpt>
      <trkpt lat="43.83665" lon="7.23792">
        <ele>500</ele>
        <time>2018-04-26T12:02:37.000Z</time>
      </trkpt>
      <trkpt lat="43.83665" lon="7.23792">
        <ele>500</ele>
        <time>2018-04-26T12:02:43.000Z</time>
      </trkpt>
      <trkpt lat="43.83662" lon="7.23789">
        <ele>499</ele>
        <time>2018-04-26T12:02:46.000Z</time>
      </trkpt>
      <trkpt lat="43.83661" lon="7.23783">
        <ele>499</ele>
        <time>2018-04-26T12:02:48.000Z</time>
      </trkpt>
      <trkpt lat="43.83659" lon="7.23778">
        <ele>498</ele>
        <time>2018-04-26T12:02:50.000Z</time>
      </trkpt>
      <trkpt lat="43.83656" lon="7.23771">
        <ele>497</ele>
        <time>2018-04-26T12:02:52.000Z</time>
      </trkpt>
      <trkpt lat="43.83655" lon="7.23768">
        <ele>497</ele>
        <time>2018-04-26T12:02:53.000Z</time>
      </trkpt>
      <trkpt lat="43.83654" lon="7.23766">
        <ele>497</ele>
        <time>2018-04-26T12:02:54.000Z</time>
      </trkpt>
      <trkpt lat="43.83652" lon="7.23761">
        <ele>497</ele>
        <time>2018-04-26T12:02:56.000Z</time>
      </trkpt>
      <trkpt lat="43.83652" lon="7.23758">
        <ele>497</ele>
        <time>2018-04-26T12:02:57.000Z</time>
      </trkpt>
      <trkpt lat="43.83651" lon="7.23756">
        <ele>497</ele>
        <time>2018-04-26T12:02:58.000Z</time>
      </trkpt>
      <trkpt lat="43.83649" lon="7.23753">
        <ele>496</ele>
        <time>2018-04-26T12:03:00.000Z</time>
      </trkpt>
      <trkpt lat="43.83647" lon="7.23754">
        <ele>496</ele>
        <time>2018-04-26T12:03:01.000Z</time>
      </trkpt>
      <trkpt lat="43.83645" lon="7.23756">
        <ele>496</ele>
        <time>2018-04-26T12:03:02.000Z</time>
      </trkpt>
      <trkpt lat="43.83642" lon="7.23759">
        <ele>495</ele>
        <time>2018-04-26T12:03:03.000Z</time>
      </trkpt>
      <trkpt lat="43.83637" lon="7.23763">
        <ele>495</ele>
        <time>2018-04-26T12:03:05.000Z</time>
      </trkpt>
      <trkpt lat="43.83634" lon="7.23765">
        <ele>494</ele>
        <time>2018-04-26T12:03:06.000Z</time>
      </trkpt>
      <trkpt lat="43.83627" lon="7.2377">
        <ele>493</ele>
        <time>2018-04-26T12:03:08.000Z</time>
      </trkpt>
      <trkpt lat="43.83615" lon="7.23775">
        <ele>491</ele>
        <time>2018-04-26T12:03:11.000Z</time>
      </trkpt>
      <trkpt lat="43.8361" lon="7.23778">
        <ele>490</ele>
        <time>2018-04-26T12:03:12.000Z</time>
      </trkpt>
      <trkpt lat="43.83602" lon="7.23785">
        <ele>490</ele>
        <time>2018-04-26T12:03:14.000Z</time>
      </trkpt>
      <trkpt lat="43.83597" lon="7.23789">
        <ele>490</ele>
        <time>2018-04-26T12:03:15.000Z</time>
      </trkpt>
      <trkpt lat="43.8359" lon="7.23798">
        <ele>491</ele>
        <time>2018-04-26T12:03:17.000Z</time>
      </trkpt>
      <trkpt lat="43.83571" lon="7.23829">
        <ele>480</ele>
        <time>2018-04-26T12:03:23.000Z</time>
      </trkpt>
      <trkpt lat="43.8356" lon="7.23848">
        <ele>486</ele>
        <time>2018-04-26T12:03:28.000Z</time>
      </trkpt>
      <trkpt lat="43.83559" lon="7.23851">
        <ele>485</ele>
        <time>2018-04-26T12:03:29.000Z</time>
      </trkpt>
      <trkpt lat="43.83556" lon="7.23857">
        <ele>485</ele>
        <time>2018-04-26T12:03:31.000Z</time>
      </trkpt>
      <trkpt lat="43.83553" lon="7.23865">
        <ele>486</ele>
        <time>2018-04-26T12:03:34.000Z</time>
      </trkpt>
      <trkpt lat="43.83552" lon="7.23867">
        <ele>486</ele>
        <time>2018-04-26T12:03:35.000Z</time>
      </trkpt>
      <trkpt lat="43.83548" lon="7.23876">
        <ele>487</ele>
        <time>2018-04-26T12:03:38.000Z</time>
      </trkpt>
      <trkpt lat="43.83546" lon="7.23882">
        <ele>487</ele>
        <time>2018-04-26T12:03:40.000Z</time>
      </trkpt>
      <trkpt lat="43.8354" lon="7.23891">
        <ele>487</ele>
        <time>2018-04-26T12:03:44.000Z</time>
      </trkpt>
      <trkpt lat="43.83537" lon="7.23896">
        <ele>487</ele>
        <time>2018-04-26T12:03:46.000Z</time>
      </trkpt>
      <trkpt lat="43.83533" lon="7.23905">
        <ele>487</ele>
        <time>2018-04-26T12:03:49.000Z</time>
      </trkpt>
      <trkpt lat="43.8353" lon="7.23915">
        <ele>486</ele>
        <time>2018-04-26T12:03:52.000Z</time>
      </trkpt>
      <trkpt lat="43.83527" lon="7.23923">
        <ele>500</ele>
        <time>2018-04-26T12:03:55.000Z</time>
      </trkpt>
      <trkpt lat="43.83523" lon="7.23932">
        <ele>500</ele>
        <time>2018-04-26T12:03:58.000Z</time>
      </trkpt>
      <trkpt lat="43.83521" lon="7.23937">
        <ele>501</ele>
        <time>2018-04-26T12:04:00.000Z</time>
      </trkpt>
      <trkpt lat="43.83519" lon="7.23941">
        <ele>501</ele>
        <time>2018-04-26T12:04:02.000Z</time>
      </trkpt>
      <trkpt lat="43.83515" lon="7.23948">
        <ele>502</ele>
        <time>2018-04-26T12:04:05.000Z</time>
      </trkpt>
      <trkpt lat="43.835" lon="7.23969">
        <ele>482</ele>
        <time>2018-04-26T12:04:13.000Z</time>
      </trkpt>
      <trkpt lat="43.83495" lon="7.23976">
        <ele>484</ele>
        <time>2018-04-26T12:04:16.000Z</time>
      </trkpt>
      <trkpt lat="43.83489" lon="7.23981">
        <ele>485</ele>
        <time>2018-04-26T12:04:19.000Z</time>
      </trkpt>
      <trkpt lat="43.83477" lon="7.23995">
        <ele>484</ele>
        <time>2018-04-26T12:04:25.000Z</time>
      </trkpt>
      <trkpt lat="43.83466" lon="7.24018">
        <ele>487</ele>
        <time>2018-04-26T12:04:31.000Z</time>
      </trkpt>
      <trkpt lat="43.83465" lon="7.24029">
        <ele>486</ele>
        <time>2018-04-26T12:04:33.000Z</time>
      </trkpt>
      <trkpt lat="43.83467" lon="7.24039">
        <ele>486</ele>
        <time>2018-04-26T12:04:35.000Z</time>
      </trkpt>
      <trkpt lat="43.83468" lon="7.24048">
        <ele>487</ele>
        <time>2018-04-26T12:04:37.000Z</time>
      </trkpt>
      <trkpt lat="43.83475" lon="7.24068">
        <ele>491</ele>
        <time>2018-04-26T12:04:42.000Z</time>
      </trkpt>
      <trkpt lat="43.83477" lon="7.24073">
        <ele>492</ele>
        <time>2018-04-26T12:04:44.000Z</time>
      </trkpt>
      <trkpt lat="43.8348" lon="7.24082">
        <ele>494</ele>
        <time>2018-04-26T12:04:48.000Z</time>
      </trkpt>
      <trkpt lat="43.83485" lon="7.24088">
        <ele>493</ele>
        <time>2018-04-26T12:04:52.000Z</time>
      </trkpt>
      <trkpt lat="43.83488" lon="7.24093">
        <ele>493</ele>
        <time>2018-04-26T12:04:55.000Z</time>
      </trkpt>
      <trkpt lat="43.83488" lon="7.24094">
        <ele>493</ele>
        <time>2018-04-26T12:04:56.000Z</time>
      </trkpt>
      <trkpt lat="43.83489" lon="7.24097">
        <ele>492</ele>
        <time>2018-04-26T12:04:58.000Z</time>
      </trkpt>
      <trkpt lat="43.8349" lon="7.24098">
        <ele>492</ele>
        <time>2018-04-26T12:04:59.000Z</time>
      </trkpt>
      <trkpt lat="43.83492" lon="7.24101">
        <ele>491</ele>
        <time>2018-04-26T12:05:02.000Z</time>
      </trkpt>
      <trkpt lat="43.83493" lon="7.24102">
        <ele>491</ele>
        <time>2018-04-26T12:05:03.000Z</time>
      </trkpt>
      <trkpt lat="43.83494" lon="7.24103">
        <ele>491</ele>
        <time>2018-04-26T12:05:04.000Z</time>
      </trkpt>
      <trkpt lat="43.83496" lon="7.24107">
        <ele>490</ele>
        <time>2018-04-26T12:05:07.000Z</time>
      </trkpt>
      <trkpt lat="43.835" lon="7.24112">
        <ele>513</ele>
        <time>2018-04-26T12:05:11.000Z</time>
      </trkpt>
      <trkpt lat="43.83501" lon="7.24114">
        <ele>513</ele>
        <time>2018-04-26T12:05:12.000Z</time>
      </trkpt>
      <trkpt lat="43.83502" lon="7.24116">
        <ele>513</ele>
        <time>2018-04-26T12:05:13.000Z</time>
      </trkpt>
      <trkpt lat="43.83503" lon="7.24118">
        <ele>513</ele>
        <time>2018-04-26T12:05:15.000Z</time>
      </trkpt>
      <trkpt lat="43.83505" lon="7.2412">
        <ele>513</ele>
        <time>2018-04-26T12:05:18.000Z</time>
      </trkpt>
      <trkpt lat="43.83505" lon="7.2412">
        <ele>513</ele>
        <time>2018-04-26T12:05:19.000Z</time>
      </trkpt>
      <trkpt lat="43.83505" lon="7.24122">
        <ele>512</ele>
        <time>2018-04-26T12:05:28.000Z</time>
      </trkpt>
      <trkpt lat="43.83504" lon="7.24121">
        <ele>513</ele>
        <time>2018-04-26T12:05:35.000Z</time>
      </trkpt>
      <trkpt lat="43.83505" lon="7.2412">
        <ele>513</ele>
        <time>2018-04-26T12:05:41.000Z</time>
      </trkpt>
      <trkpt lat="43.83505" lon="7.24121">
        <ele>512</ele>
        <time>2018-04-26T12:05:54.000Z</time>
      </trkpt>
      <trkpt lat="43.83506" lon="7.24124">
        <ele>512</ele>
        <time>2018-04-26T12:06:05.000Z</time>
      </trkpt>
      <trkpt lat="43.83508" lon="7.24126">
        <ele>512</ele>
        <time>2018-04-26T12:06:08.000Z</time>
      </trkpt>
      <trkpt lat="43.83512" lon="7.24131">
        <ele>512</ele>
        <time>2018-04-26T12:06:15.000Z</time>
      </trkpt>
      <trkpt lat="43.83513" lon="7.24132">
        <ele>512</ele>
        <time>2018-04-26T12:06:17.000Z</time>
      </trkpt>
      <trkpt lat="43.83515" lon="7.24136">
        <ele>512</ele>
        <time>2018-04-26T12:06:23.000Z</time>
      </trkpt>
      <trkpt lat="43.83516" lon="7.24136">
        <ele>512</ele>
        <time>2018-04-26T12:06:24.000Z</time>
      </trkpt>
      <trkpt lat="43.83516" lon="7.24137">
        <ele>512</ele>
        <time>2018-04-26T12:06:32.000Z</time>
      </trkpt>
      <trkpt lat="43.8352" lon="7.24142">
        <ele>511</ele>
        <time>2018-04-26T12:06:38.000Z</time>
      </trkpt>
      <trkpt lat="43.83523" lon="7.24147">
        <ele>511</ele>
        <time>2018-04-26T12:06:41.000Z</time>
      </trkpt>
      <trkpt lat="43.83529" lon="7.24155">
        <ele>512</ele>
        <time>2018-04-26T12:06:46.000Z</time>
      </trkpt>
      <trkpt lat="43.83533" lon="7.24159">
        <ele>513</ele>
        <time>2018-04-26T12:06:49.000Z</time>
      </trkpt>
      <trkpt lat="43.83536" lon="7.24161">
        <ele>514</ele>
        <time>2018-04-26T12:06:51.000Z</time>
      </trkpt>
      <trkpt lat="43.83538" lon="7.24163">
        <ele>515</ele>
        <time>2018-04-26T12:06:53.000Z</time>
      </trkpt>
      <trkpt lat="43.83544" lon="7.24167">
        <ele>509</ele>
        <time>2018-04-26T12:06:57.000Z</time>
      </trkpt>
      <trkpt lat="43.83547" lon="7.24168">
        <ele>510</ele>
        <time>2018-04-26T12:06:59.000Z</time>
      </trkpt>
      <trkpt lat="43.83553" lon="7.24171">
        <ele>512</ele>
        <time>2018-04-26T12:07:03.000Z</time>
      </trkpt>
      <trkpt lat="43.8356" lon="7.24174">
        <ele>515</ele>
        <time>2018-04-26T12:07:08.000Z</time>
      </trkpt>
      <trkpt lat="43.83562" lon="7.24175">
        <ele>516</ele>
        <time>2018-04-26T12:07:10.000Z</time>
      </trkpt>
      <trkpt lat="43.83566" lon="7.24177">
        <ele>517</ele>
        <time>2018-04-26T12:07:13.000Z</time>
      </trkpt>
      <trkpt lat="43.8357" lon="7.24178">
        <ele>519</ele>
        <time>2018-04-26T12:07:16.000Z</time>
      </trkpt>
      <trkpt lat="43.83576" lon="7.24179">
        <ele>521</ele>
        <time>2018-04-26T12:07:20.000Z</time>
      </trkpt>
      <trkpt lat="43.83581" lon="7.24178">
        <ele>522</ele>
        <time>2018-04-26T12:07:23.000Z</time>
      </trkpt>
      <trkpt lat="43.83584" lon="7.24179">
        <ele>539</ele>
        <time>2018-04-26T12:07:25.000Z</time>
      </trkpt>
      <trkpt lat="43.83587" lon="7.2418">
        <ele>539</ele>
        <time>2018-04-26T12:07:28.000Z</time>
      </trkpt>
      <trkpt lat="43.83588" lon="7.24181">
        <ele>540</ele>
        <time>2018-04-26T12:07:29.000Z</time>
      </trkpt>
      <trkpt lat="43.83591" lon="7.24183">
        <ele>541</ele>
        <time>2018-04-26T12:07:32.000Z</time>
      </trkpt>
      <trkpt lat="43.83593" lon="7.24184">
        <ele>542</ele>
        <time>2018-04-26T12:07:35.000Z</time>
      </trkpt>
      <trkpt lat="43.83595" lon="7.24186">
        <ele>542</ele>
        <time>2018-04-26T12:07:37.000Z</time>
      </trkpt>
      <trkpt lat="43.83595" lon="7.24192">
        <ele>543</ele>
        <time>2018-04-26T12:07:40.000Z</time>
      </trkpt>
      <trkpt lat="43.8359" lon="7.24204">
        <ele>543</ele>
        <time>2018-04-26T12:07:46.000Z</time>
      </trkpt>
      <trkpt lat="43.83586" lon="7.24208">
        <ele>543</ele>
        <time>2018-04-26T12:07:50.000Z</time>
      </trkpt>
      <trkpt lat="43.83585" lon="7.24209">
        <ele>542</ele>
        <time>2018-04-26T12:07:51.000Z</time>
      </trkpt>
      <trkpt lat="43.83578" lon="7.24227">
        <ele>514</ele>
        <time>2018-04-26T12:08:00.000Z</time>
      </trkpt>
      <trkpt lat="43.83576" lon="7.24242">
        <ele>518</ele>
        <time>2018-04-26T12:08:06.000Z</time>
      </trkpt>
      <trkpt lat="43.83575" lon="7.24258">
        <ele>516</ele>
        <time>2018-04-26T12:08:12.000Z</time>
      </trkpt>
      <trkpt lat="43.83575" lon="7.2426">
        <ele>515</ele>
        <time>2018-04-26T12:08:13.000Z</time>
      </trkpt>
      <trkpt lat="43.83575" lon="7.24263">
        <ele>515</ele>
        <time>2018-04-26T12:08:16.000Z</time>
      </trkpt>
      <trkpt lat="43.83575" lon="7.24265">
        <ele>514</ele>
        <time>2018-04-26T12:08:17.000Z</time>
      </trkpt>
      <trkpt lat="43.83575" lon="7.2427">
        <ele>513</ele>
        <time>2018-04-26T12:08:20.000Z</time>
      </trkpt>
      <trkpt lat="43.83575" lon="7.24275">
        <ele>512</ele>
        <time>2018-04-26T12:08:23.000Z</time>
      </trkpt>
      <trkpt lat="43.83576" lon="7.24276">
        <ele>512</ele>
        <time>2018-04-26T12:08:24.000Z</time>
      </trkpt>
      <trkpt lat="43.83576" lon="7.24277">
        <ele>512</ele>
        <time>2018-04-26T12:08:25.000Z</time>
      </trkpt>
      <trkpt lat="43.83577" lon="7.24279">
        <ele>512</ele>
        <time>2018-04-26T12:08:27.000Z</time>
      </trkpt>
      <trkpt lat="43.83577" lon="7.2428">
        <ele>512</ele>
        <time>2018-04-26T12:08:29.000Z</time>
      </trkpt>
      <trkpt lat="43.83578" lon="7.24284">
        <ele>511</ele>
        <time>2018-04-26T12:08:40.000Z</time>
      </trkpt>
      <trkpt lat="43.83579" lon="7.24285">
        <ele>511</ele>
        <time>2018-04-26T12:08:41.000Z</time>
      </trkpt>
      <trkpt lat="43.8358" lon="7.24286">
        <ele>511</ele>
        <time>2018-04-26T12:08:42.000Z</time>
      </trkpt>
      <trkpt lat="43.8358" lon="7.24292">
        <ele>512</ele>
        <time>2018-04-26T12:08:45.000Z</time>
      </trkpt>
      <trkpt lat="43.8358" lon="7.24295">
        <ele>512</ele>
        <time>2018-04-26T12:08:47.000Z</time>
      </trkpt>
      <trkpt lat="43.83581" lon="7.24299">
        <ele>512</ele>
        <time>2018-04-26T12:08:50.000Z</time>
      </trkpt>
      <trkpt lat="43.83582" lon="7.24301">
        <ele>513</ele>
        <time>2018-04-26T12:08:51.000Z</time>
      </trkpt>
      <trkpt lat="43.83585" lon="7.24309">
        <ele>539</ele>
        <time>2018-04-26T12:08:56.000Z</time>
      </trkpt>
      <trkpt lat="43.83589" lon="7.24319">
        <ele>537</ele>
        <time>2018-04-26T12:09:02.000Z</time>
      </trkpt>
      <trkpt lat="43.83592" lon="7.24324">
        <ele>537</ele>
        <time>2018-04-26T12:09:05.000Z</time>
      </trkpt>
      <trkpt lat="43.83594" lon="7.24327">
        <ele>537</ele>
        <time>2018-04-26T12:09:08.000Z</time>
      </trkpt>
      <trkpt lat="43.83598" lon="7.24336">
        <ele>538</ele>
        <time>2018-04-26T12:09:13.000Z</time>
      </trkpt>
      <trkpt lat="43.83598" lon="7.24341">
        <ele>539</ele>
        <time>2018-04-26T12:09:16.000Z</time>
      </trkpt>
      <trkpt lat="43.83597" lon="7.24345">
        <ele>539</ele>
        <time>2018-04-26T12:09:18.000Z</time>
      </trkpt>
      <trkpt lat="43.83596" lon="7.24347">
        <ele>540</ele>
        <time>2018-04-26T12:09:19.000Z</time>
      </trkpt>
      <trkpt lat="43.83592" lon="7.24356">
        <ele>541</ele>
        <time>2018-04-26T12:09:24.000Z</time>
      </trkpt>
      <trkpt lat="43.83592" lon="7.24358">
        <ele>541</ele>
        <time>2018-04-26T12:09:25.000Z</time>
      </trkpt>
      <trkpt lat="43.83591" lon="7.24365">
        <ele>542</ele>
        <time>2018-04-26T12:09:28.000Z</time>
      </trkpt>
      <trkpt lat="43.8359" lon="7.2437">
        <ele>543</ele>
        <time>2018-04-26T12:09:30.000Z</time>
      </trkpt>
      <trkpt lat="43.83589" lon="7.24375">
        <ele>543</ele>
        <time>2018-04-26T12:09:32.000Z</time>
      </trkpt>
      <trkpt lat="43.83585" lon="7.24388">
        <ele>543</ele>
        <time>2018-04-26T12:09:37.000Z</time>
      </trkpt>
      <trkpt lat="43.83585" lon="7.2439">
        <ele>542</ele>
        <time>2018-04-26T12:09:38.000Z</time>
      </trkpt>
      <trkpt lat="43.83579" lon="7.24405">
        <ele>525</ele>
        <time>2018-04-26T12:09:44.000Z</time>
      </trkpt>
      <trkpt lat="43.83578" lon="7.24408">
        <ele>526</ele>
        <time>2018-04-26T12:09:45.000Z</time>
      </trkpt>
      <trkpt lat="43.83578" lon="7.24412">
        <ele>528</ele>
        <time>2018-04-26T12:09:47.000Z</time>
      </trkpt>
      <trkpt lat="43.83578" lon="7.24418">
        <ele>531</ele>
        <time>2018-04-26T12:09:50.000Z</time>
      </trkpt>
      <trkpt lat="43.83581" lon="7.24431">
        <ele>527</ele>
        <time>2018-04-26T12:09:56.000Z</time>
      </trkpt>
      <trkpt lat="43.83587" lon="7.24446">
        <ele>541</ele>
        <time>2018-04-26T12:10:02.000Z</time>
      </trkpt>
      <trkpt lat="43.83589" lon="7.2445">
        <ele>541</ele>
        <time>2018-04-26T12:10:04.000Z</time>
      </trkpt>
      <trkpt lat="43.8359" lon="7.24452">
        <ele>541</ele>
        <time>2018-04-26T12:10:05.000Z</time>
      </trkpt>
      <trkpt lat="43.83591" lon="7.24454">
        <ele>541</ele>
        <time>2018-04-26T12:10:06.000Z</time>
      </trkpt>
      <trkpt lat="43.83592" lon="7.24457">
        <ele>541</ele>
        <time>2018-04-26T12:10:07.000Z</time>
      </trkpt>
      <trkpt lat="43.83594" lon="7.24482">
        <ele>540</ele>
        <time>2018-04-26T12:10:11.000Z</time>
      </trkpt>
      <trkpt lat="43.8359" lon="7.24497">
        <ele>537</ele>
        <time>2018-04-26T12:10:13.000Z</time>
      </trkpt>
      <trkpt lat="43.83588" lon="7.24503">
        <ele>534</ele>
        <time>2018-04-26T12:10:14.000Z</time>
      </trkpt>
      <trkpt lat="43.83588" lon="7.24514">
        <ele>534</ele>
        <time>2018-04-26T12:10:16.000Z</time>
      </trkpt>
      <trkpt lat="43.83588" lon="7.24521">
        <ele>533</ele>
        <time>2018-04-26T12:10:17.000Z</time>
      </trkpt>
      <trkpt lat="43.83588" lon="7.24529">
        <ele>533</ele>
        <time>2018-04-26T12:10:18.000Z</time>
      </trkpt>
      <trkpt lat="43.83584" lon="7.2455">
        <ele>532</ele>
        <time>2018-04-26T12:10:21.000Z</time>
      </trkpt>
      <trkpt lat="43.83581" lon="7.24556">
        <ele>527</ele>
        <time>2018-04-26T12:10:22.000Z</time>
      </trkpt>
      <trkpt lat="43.83579" lon="7.2456">
        <ele>527</ele>
        <time>2018-04-26T12:10:23.000Z</time>
      </trkpt>
      <trkpt lat="43.83577" lon="7.2457">
        <ele>527</ele>
        <time>2018-04-26T12:10:25.000Z</time>
      </trkpt>
      <trkpt lat="43.83576" lon="7.24574">
        <ele>528</ele>
        <time>2018-04-26T12:10:26.000Z</time>
      </trkpt>
      <trkpt lat="43.83573" lon="7.2459">
        <ele>526</ele>
        <time>2018-04-26T12:10:29.000Z</time>
      </trkpt>
      <trkpt lat="43.83571" lon="7.24596">
        <ele>525</ele>
        <time>2018-04-26T12:10:30.000Z</time>
      </trkpt>
      <trkpt lat="43.83568" lon="7.24601">
        <ele>524</ele>
        <time>2018-04-26T12:10:31.000Z</time>
      </trkpt>
      <trkpt lat="43.83565" lon="7.24605">
        <ele>524</ele>
        <time>2018-04-26T12:10:32.000Z</time>
      </trkpt>
      <trkpt lat="43.83562" lon="7.24609">
        <ele>523</ele>
        <time>2018-04-26T12:10:33.000Z</time>
      </trkpt>
      <trkpt lat="43.83559" lon="7.24613">
        <ele>523</ele>
        <time>2018-04-26T12:10:34.000Z</time>
      </trkpt>
      <trkpt lat="43.83556" lon="7.24617">
        <ele>522</ele>
        <time>2018-04-26T12:10:36.000Z</time>
      </trkpt>
      <trkpt lat="43.83555" lon="7.2462">
        <ele>522</ele>
        <time>2018-04-26T12:10:38.000Z</time>
      </trkpt>
      <trkpt lat="43.83554" lon="7.24626">
        <ele>522</ele>
        <time>2018-04-26T12:10:41.000Z</time>
      </trkpt>
      <trkpt lat="43.83551" lon="7.24631">
        <ele>521</ele>
        <time>2018-04-26T12:10:44.000Z</time>
      </trkpt>
      <trkpt lat="43.83548" lon="7.24637">
        <ele>521</ele>
        <time>2018-04-26T12:10:46.000Z</time>
      </trkpt>
      <trkpt lat="43.83545" lon="7.24641">
        <ele>521</ele>
        <time>2018-04-26T12:10:47.000Z</time>
      </trkpt>
      <trkpt lat="43.83542" lon="7.24644">
        <ele>520</ele>
        <time>2018-04-26T12:10:48.000Z</time>
      </trkpt>
      <trkpt lat="43.83539" lon="7.24645">
        <ele>520</ele>
        <time>2018-04-26T12:10:49.000Z</time>
      </trkpt>
      <trkpt lat="43.83532" lon="7.24651">
        <ele>520</ele>
        <time>2018-04-26T12:10:52.000Z</time>
      </trkpt>
      <trkpt lat="43.83523" lon="7.24655">
        <ele>519</ele>
        <time>2018-04-26T12:10:55.000Z</time>
      </trkpt>
      <trkpt lat="43.83519" lon="7.24657">
        <ele>519</ele>
        <time>2018-04-26T12:10:58.000Z</time>
      </trkpt>
      <trkpt lat="43.83511" lon="7.24663">
        <ele>518</ele>
        <time>2018-04-26T12:11:02.000Z</time>
      </trkpt>
      <trkpt lat="43.83507" lon="7.24665">
        <ele>517</ele>
        <time>2018-04-26T12:11:03.000Z</time>
      </trkpt>
      <trkpt lat="43.83492" lon="7.24674">
        <ele>515</ele>
        <time>2018-04-26T12:11:06.000Z</time>
      </trkpt>
      <trkpt lat="43.8348" lon="7.24683">
        <ele>514</ele>
        <time>2018-04-26T12:11:08.000Z</time>
      </trkpt>
      <trkpt lat="43.83469" lon="7.24692">
        <ele>514</ele>
        <time>2018-04-26T12:11:10.000Z</time>
      </trkpt>
      <trkpt lat="43.83465" lon="7.24695">
        <ele>514</ele>
        <time>2018-04-26T12:11:11.000Z</time>
      </trkpt>
      <trkpt lat="43.83429" lon="7.24714">
        <ele>515</ele>
        <time>2018-04-26T12:11:18.000Z</time>
      </trkpt>
      <trkpt lat="43.83392" lon="7.24724">
        <ele>509</ele>
        <time>2018-04-26T12:11:25.000Z</time>
      </trkpt>
      <trkpt lat="43.83364" lon="7.24726">
        <ele>507</ele>
        <time>2018-04-26T12:11:31.000Z</time>
      </trkpt>
      <trkpt lat="43.83349" lon="7.24732">
        <ele>507</ele>
        <time>2018-04-26T12:11:36.000Z</time>
      </trkpt>
      <trkpt lat="43.83345" lon="7.24734">
        <ele>508</ele>
        <time>2018-04-26T12:11:37.000Z</time>
      </trkpt>
      <trkpt lat="43.83336" lon="7.24737">
        <ele>509</ele>
        <time>2018-04-26T12:11:40.000Z</time>
      </trkpt>
      <trkpt lat="43.83325" lon="7.24744">
        <ele>506</ele>
        <time>2018-04-26T12:11:44.000Z</time>
      </trkpt>
      <trkpt lat="43.8331" lon="7.24752">
        <ele>520</ele>
        <time>2018-04-26T12:11:49.000Z</time>
      </trkpt>
      <trkpt lat="43.833" lon="7.24757">
        <ele>521</ele>
        <time>2018-04-26T12:11:52.000Z</time>
      </trkpt>
      <trkpt lat="43.83275" lon="7.24766">
        <ele>521</ele>
        <time>2018-04-26T12:12:00.000Z</time>
      </trkpt>
      <trkpt lat="43.83263" lon="7.2477">
        <ele>520</ele>
        <time>2018-04-26T12:12:05.000Z</time>
      </trkpt>
      <trkpt lat="43.83256" lon="7.24772">
        <ele>520</ele>
        <time>2018-04-26T12:12:08.000Z</time>
      </trkpt>
      <trkpt lat="43.83251" lon="7.24773">
        <ele>520</ele>
        <time>2018-04-26T12:12:10.000Z</time>
      </trkpt>
      <trkpt lat="43.83237" lon="7.24775">
        <ele>518</ele>
        <time>2018-04-26T12:12:16.000Z</time>
      </trkpt>
      <trkpt lat="43.83219" lon="7.2478">
        <ele>520</ele>
        <time>2018-04-26T12:12:23.000Z</time>
      </trkpt>
      <trkpt lat="43.83216" lon="7.24781">
        <ele>520</ele>
        <time>2018-04-26T12:12:24.000Z</time>
      </trkpt>
      <trkpt lat="43.832" lon="7.24786">
        <ele>520</ele>
        <time>2018-04-26T12:12:30.000Z</time>
      </trkpt>
      <trkpt lat="43.83193" lon="7.24789">
        <ele>521</ele>
        <time>2018-04-26T12:12:33.000Z</time>
      </trkpt>
      <trkpt lat="43.83188" lon="7.24791">
        <ele>521</ele>
        <time>2018-04-26T12:12:35.000Z</time>
      </trkpt>
      <trkpt lat="43.83178" lon="7.24797">
        <ele>522</ele>
        <time>2018-04-26T12:12:40.000Z</time>
      </trkpt>
      <trkpt lat="43.83166" lon="7.24806">
        <ele>521</ele>
        <time>2018-04-26T12:12:46.000Z</time>
      </trkpt>
      <trkpt lat="43.83158" lon="7.24813">
        <ele>523</ele>
        <time>2018-04-26T12:12:50.000Z</time>
      </trkpt>
      <trkpt lat="43.83156" lon="7.24815">
        <ele>523</ele>
        <time>2018-04-26T12:12:51.000Z</time>
      </trkpt>
      <trkpt lat="43.83147" lon="7.24824">
        <ele>524</ele>
        <time>2018-04-26T12:12:56.000Z</time>
      </trkpt>
      <trkpt lat="43.83138" lon="7.24832">
        <ele>522</ele>
        <time>2018-04-26T12:13:01.000Z</time>
      </trkpt>
      <trkpt lat="43.83129" lon="7.24837">
        <ele>538</ele>
        <time>2018-04-26T12:13:05.000Z</time>
      </trkpt>
      <trkpt lat="43.83127" lon="7.24838">
        <ele>538</ele>
        <time>2018-04-26T12:13:06.000Z</time>
      </trkpt>
      <trkpt lat="43.83112" lon="7.24842">
        <ele>536</ele>
        <time>2018-04-26T12:13:12.000Z</time>
      </trkpt>
      <trkpt lat="43.8311" lon="7.24843">
        <ele>536</ele>
        <time>2018-04-26T12:13:13.000Z</time>
      </trkpt>
      <trkpt lat="43.83091" lon="7.24848">
        <ele>533</ele>
        <time>2018-04-26T12:13:19.000Z</time>
      </trkpt>
      <trkpt lat="43.83065" lon="7.24853">
        <ele>530</ele>
        <time>2018-04-26T12:13:26.000Z</time>
      </trkpt>
      <trkpt lat="43.83061" lon="7.24856">
        <ele>530</ele>
        <time>2018-04-26T12:13:27.000Z</time>
      </trkpt>
      <trkpt lat="43.83045" lon="7.24876">
        <ele>533</ele>
        <time>2018-04-26T12:13:31.000Z</time>
      </trkpt>
      <trkpt lat="43.8304" lon="7.24884">
        <ele>534</ele>
        <time>2018-04-26T12:13:32.000Z</time>
      </trkpt>
      <trkpt lat="43.83034" lon="7.24889">
        <ele>534</ele>
        <time>2018-04-26T12:13:33.000Z</time>
      </trkpt>
      <trkpt lat="43.83028" lon="7.24891">
        <ele>534</ele>
        <time>2018-04-26T12:13:34.000Z</time>
      </trkpt>
      <trkpt lat="43.83016" lon="7.24886">
        <ele>533</ele>
        <time>2018-04-26T12:13:36.000Z</time>
      </trkpt>
      <trkpt lat="43.83012" lon="7.24882">
        <ele>532</ele>
        <time>2018-04-26T12:13:37.000Z</time>
      </trkpt>
      <trkpt lat="43.83008" lon="7.24878">
        <ele>532</ele>
        <time>2018-04-26T12:13:38.000Z</time>
      </trkpt>
      <trkpt lat="43.83001" lon="7.24872">
        <ele>530</ele>
        <time>2018-04-26T12:13:40.000Z</time>
      </trkpt>
      <trkpt lat="43.82988" lon="7.24863">
        <ele>525</ele>
        <time>2018-04-26T12:13:44.000Z</time>
      </trkpt>
      <trkpt lat="43.82982" lon="7.2486">
        <ele>524</ele>
        <time>2018-04-26T12:13:46.000Z</time>
      </trkpt>
      <trkpt lat="43.82979" lon="7.24859">
        <ele>524</ele>
        <time>2018-04-26T12:13:47.000Z</time>
      </trkpt>
      <trkpt lat="43.82973" lon="7.24859">
        <ele>524</ele>
        <time>2018-04-26T12:13:49.000Z</time>
      </trkpt>
      <trkpt lat="43.82962" lon="7.24859">
        <ele>524</ele>
        <time>2018-04-26T12:13:53.000Z</time>
      </trkpt>
      <trkpt lat="43.82955" lon="7.2486">
        <ele>524</ele>
        <time>2018-04-26T12:13:55.000Z</time>
      </trkpt>
      <trkpt lat="43.82932" lon="7.24866">
        <ele>523</ele>
        <time>2018-04-26T12:14:02.000Z</time>
      </trkpt>
      <trkpt lat="43.82908" lon="7.24881">
        <ele>519</ele>
        <time>2018-04-26T12:14:09.000Z</time>
      </trkpt>
      <trkpt lat="43.82881" lon="7.24909">
        <ele>520</ele>
        <time>2018-04-26T12:14:17.000Z</time>
      </trkpt>
      <trkpt lat="43.82874" lon="7.24919">
        <ele>530</ele>
        <time>2018-04-26T12:14:19.000Z</time>
      </trkpt>
      <trkpt lat="43.82868" lon="7.24932">
        <ele>530</ele>
        <time>2018-04-26T12:14:21.000Z</time>
      </trkpt>
      <trkpt lat="43.82864" lon="7.24939">
        <ele>530</ele>
        <time>2018-04-26T12:14:22.000Z</time>
      </trkpt>
      <trkpt lat="43.82861" lon="7.24945">
        <ele>531</ele>
        <time>2018-04-26T12:14:23.000Z</time>
      </trkpt>
      <trkpt lat="43.82853" lon="7.24957">
        <ele>531</ele>
        <time>2018-04-26T12:14:25.000Z</time>
      </trkpt>
      <trkpt lat="43.82849" lon="7.24963">
        <ele>531</ele>
        <time>2018-04-26T12:14:26.000Z</time>
      </trkpt>
      <trkpt lat="43.82843" lon="7.24968">
        <ele>532</ele>
        <time>2018-04-26T12:14:27.000Z</time>
      </trkpt>
      <trkpt lat="43.82829" lon="7.24971">
        <ele>526</ele>
        <time>2018-04-26T12:14:29.000Z</time>
      </trkpt>
      <trkpt lat="43.82814" lon="7.24965">
        <ele>525</ele>
        <time>2018-04-26T12:14:32.000Z</time>
      </trkpt>
      <trkpt lat="43.82809" lon="7.24963">
        <ele>525</ele>
        <time>2018-04-26T12:14:33.000Z</time>
      </trkpt>
      <trkpt lat="43.82784" lon="7.24957">
        <ele>524</ele>
        <time>2018-04-26T12:14:37.000Z</time>
      </trkpt>
      <trkpt lat="43.82777" lon="7.24956">
        <ele>524</ele>
        <time>2018-04-26T12:14:38.000Z</time>
      </trkpt>
      <trkpt lat="43.8277" lon="7.24956">
        <ele>523</ele>
        <time>2018-04-26T12:14:39.000Z</time>
      </trkpt>
      <trkpt lat="43.82756" lon="7.24959">
        <ele>524</ele>
        <time>2018-04-26T12:14:41.000Z</time>
      </trkpt>
      <trkpt lat="43.82748" lon="7.24965">
        <ele>520</ele>
        <time>2018-04-26T12:14:42.000Z</time>
      </trkpt>
      <trkpt lat="43.8274" lon="7.24973">
        <ele>521</ele>
        <time>2018-04-26T12:14:44.000Z</time>
      </trkpt>
      <trkpt lat="43.82736" lon="7.24977">
        <ele>522</ele>
        <time>2018-04-26T12:14:45.000Z</time>
      </trkpt>
      <trkpt lat="43.82727" lon="7.24984">
        <ele>522</ele>
        <time>2018-04-26T12:14:49.000Z</time>
      </trkpt>
      <trkpt lat="43.82727" lon="7.24985">
        <ele>522</ele>
        <time>2018-04-26T12:14:52.000Z</time>
      </trkpt>
      <trkpt lat="43.82727" lon="7.24985">
        <ele>522</ele>
        <time>2018-04-26T12:14:54.000Z</time>
      </trkpt>
      <trkpt lat="43.82726" lon="7.24985">
        <ele>522</ele>
        <time>2018-04-26T12:15:03.000Z</time>
      </trkpt>
      <trkpt lat="43.82724" lon="7.24984">
        <ele>521</ele>
        <time>2018-04-26T12:15:04.000Z</time>
      </trkpt>
      <trkpt lat="43.82724" lon="7.24985">
        <ele>521</ele>
        <time>2018-04-26T12:15:07.000Z</time>
      </trkpt>
      <trkpt lat="43.82724" lon="7.24985">
        <ele>521</ele>
        <time>2018-04-26T12:15:13.000Z</time>
      </trkpt>
      <trkpt lat="43.82723" lon="7.24985">
        <ele>521</ele>
        <time>2018-04-26T12:15:20.000Z</time>
      </trkpt>
      <trkpt lat="43.82723" lon="7.24984">
        <ele>521</ele>
        <time>2018-04-26T12:15:30.000Z</time>
      </trkpt>
      <trkpt lat="43.82723" lon="7.24984">
        <ele>521</ele>
        <time>2018-04-26T12:15:40.000Z</time>
      </trkpt>
      <trkpt lat="43.82723" lon="7.24983">
        <ele>521</ele>
        <time>2018-04-26T12:15:51.000Z</time>
      </trkpt>
      <trkpt lat="43.82723" lon="7.24984">
        <ele>521</ele>
        <time>2018-04-26T12:16:01.000Z</time>
      </trkpt>
      <trkpt lat="43.82722" lon="7.24983">
        <ele>521</ele>
        <time>2018-04-26T12:16:03.000Z</time>
      </trkpt>
      <trkpt lat="43.82721" lon="7.24982">
        <ele>520</ele>
        <time>2018-04-26T12:16:06.000Z</time>
      </trkpt>
      <trkpt lat="43.82721" lon="7.24982">
        <ele>520</ele>
        <time>2018-04-26T12:16:14.000Z</time>
      </trkpt>
      <trkpt lat="43.82717" lon="7.24986">
        <ele>520</ele>
        <time>2018-04-26T12:16:23.000Z</time>
      </trkpt>
      <trkpt lat="43.82711" lon="7.24993">
        <ele>520</ele>
        <time>2018-04-26T12:16:29.000Z</time>
      </trkpt>
      <trkpt lat="43.82707" lon="7.24997">
        <ele>520</ele>
        <time>2018-04-26T12:16:32.000Z</time>
      </trkpt>
      <trkpt lat="43.82701" lon="7.25003">
        <ele>533</ele>
        <time>2018-04-26T12:16:36.000Z</time>
      </trkpt>
      <trkpt lat="43.827" lon="7.25005">
        <ele>533</ele>
        <time>2018-04-26T12:16:37.000Z</time>
      </trkpt>
      <trkpt lat="43.82693" lon="7.25012">
        <ele>532</ele>
        <time>2018-04-26T12:16:42.000Z</time>
      </trkpt>
      <trkpt lat="43.82692" lon="7.25013">
        <ele>532</ele>
        <time>2018-04-26T12:16:43.000Z</time>
      </trkpt>
      <trkpt lat="43.82685" lon="7.25019">
        <ele>532</ele>
        <time>2018-04-26T12:16:48.000Z</time>
      </trkpt>
      <trkpt lat="43.82681" lon="7.25022">
        <ele>532</ele>
        <time>2018-04-26T12:16:51.000Z</time>
      </trkpt>
      <trkpt lat="43.82678" lon="7.25023">
        <ele>532</ele>
        <time>2018-04-26T12:16:53.000Z</time>
      </trkpt>
      <trkpt lat="43.8267" lon="7.25029">
        <ele>533</ele>
        <time>2018-04-26T12:16:58.000Z</time>
      </trkpt>
      <trkpt lat="43.82669" lon="7.2503">
        <ele>533</ele>
        <time>2018-04-26T12:16:59.000Z</time>
      </trkpt>
      <trkpt lat="43.82661" lon="7.25038">
        <ele>528</ele>
        <time>2018-04-26T12:17:05.000Z</time>
      </trkpt>
      <trkpt lat="43.82658" lon="7.25042">
        <ele>529</ele>
        <time>2018-04-26T12:17:07.000Z</time>
      </trkpt>
      <trkpt lat="43.82654" lon="7.25047">
        <ele>529</ele>
        <time>2018-04-26T12:17:11.000Z</time>
      </trkpt>
      <trkpt lat="43.82649" lon="7.25055">
        <ele>531</ele>
        <time>2018-04-26T12:17:16.000Z</time>
      </trkpt>
      <trkpt lat="43.82641" lon="7.25065">
        <ele>531</ele>
        <time>2018-04-26T12:17:23.000Z</time>
      </trkpt>
      <trkpt lat="43.8264" lon="7.25066">
        <ele>531</ele>
        <time>2018-04-26T12:17:24.000Z</time>
      </trkpt>
      <trkpt lat="43.82634" lon="7.25073">
        <ele>531</ele>
        <time>2018-04-26T12:17:29.000Z</time>
      </trkpt>
      <trkpt lat="43.8263" lon="7.25077">
        <ele>531</ele>
        <time>2018-04-26T12:17:32.000Z</time>
      </trkpt>
      <trkpt lat="43.82627" lon="7.25081">
        <ele>531</ele>
        <time>2018-04-26T12:17:35.000Z</time>
      </trkpt>
      <trkpt lat="43.8262" lon="7.25087">
        <ele>546</ele>
        <time>2018-04-26T12:17:40.000Z</time>
      </trkpt>
      <trkpt lat="43.82613" lon="7.25093">
        <ele>545</ele>
        <time>2018-04-26T12:17:46.000Z</time>
      </trkpt>
      <trkpt lat="43.82609" lon="7.25097">
        <ele>545</ele>
        <time>2018-04-26T12:17:49.000Z</time>
      </trkpt>
      <trkpt lat="43.82607" lon="7.25099">
        <ele>545</ele>
        <time>2018-04-26T12:17:51.000Z</time>
      </trkpt>
      <trkpt lat="43.82597" lon="7.25108">
        <ele>545</ele>
        <time>2018-04-26T12:17:58.000Z</time>
      </trkpt>
      <trkpt lat="43.82596" lon="7.25109">
        <ele>546</ele>
        <time>2018-04-26T12:17:59.000Z</time>
      </trkpt>
      <trkpt lat="43.8259" lon="7.25115">
        <ele>547</ele>
        <time>2018-04-26T12:18:04.000Z</time>
      </trkpt>
      <trkpt lat="43.82587" lon="7.25117">
        <ele>547</ele>
        <time>2018-04-26T12:18:06.000Z</time>
      </trkpt>
      <trkpt lat="43.82583" lon="7.2512">
        <ele>542</ele>
        <time>2018-04-26T12:18:09.000Z</time>
      </trkpt>
      <trkpt lat="43.82576" lon="7.25127">
        <ele>544</ele>
        <time>2018-04-26T12:18:15.000Z</time>
      </trkpt>
      <trkpt lat="43.82575" lon="7.25128">
        <ele>544</ele>
        <time>2018-04-26T12:18:16.000Z</time>
      </trkpt>
      <trkpt lat="43.82568" lon="7.25136">
        <ele>545</ele>
        <time>2018-04-26T12:18:22.000Z</time>
      </trkpt>
      <trkpt lat="43.82564" lon="7.2514">
        <ele>546</ele>
        <time>2018-04-26T12:18:25.000Z</time>
      </trkpt>
      <trkpt lat="43.82559" lon="7.25144">
        <ele>546</ele>
        <time>2018-04-26T12:18:29.000Z</time>
      </trkpt>
      <trkpt lat="43.82551" lon="7.2515">
        <ele>546</ele>
        <time>2018-04-26T12:18:35.000Z</time>
      </trkpt>
      <trkpt lat="43.82542" lon="7.25157">
        <ele>546</ele>
        <time>2018-04-26T12:18:42.000Z</time>
      </trkpt>
      <trkpt lat="43.82537" lon="7.25159">
        <ele>546</ele>
        <time>2018-04-26T12:18:45.000Z</time>
      </trkpt>
      <trkpt lat="43.82531" lon="7.25162">
        <ele>547</ele>
        <time>2018-04-26T12:18:49.000Z</time>
      </trkpt>
      <trkpt lat="43.82523" lon="7.25167">
        <ele>547</ele>
        <time>2018-04-26T12:18:54.000Z</time>
      </trkpt>
      <trkpt lat="43.82522" lon="7.25168">
        <ele>561</ele>
        <time>2018-04-26T12:18:55.000Z</time>
      </trkpt>
      <trkpt lat="43.82513" lon="7.25173">
        <ele>559</ele>
        <time>2018-04-26T12:19:01.000Z</time>
      </trkpt>
      <trkpt lat="43.82512" lon="7.25175">
        <ele>559</ele>
        <time>2018-04-26T12:19:02.000Z</time>
      </trkpt>
      <trkpt lat="43.82505" lon="7.2518">
        <ele>559</ele>
        <time>2018-04-26T12:19:07.000Z</time>
      </trkpt>
      <trkpt lat="43.825" lon="7.25184">
        <ele>560</ele>
        <time>2018-04-26T12:19:10.000Z</time>
      </trkpt>
      <trkpt lat="43.82495" lon="7.25189">
        <ele>557</ele>
        <time>2018-04-26T12:19:14.000Z</time>
      </trkpt>
      <trkpt lat="43.82491" lon="7.25193">
        <ele>558</ele>
        <time>2018-04-26T12:19:17.000Z</time>
      </trkpt>
      <trkpt lat="43.82485" lon="7.25197">
        <ele>559</ele>
        <time>2018-04-26T12:19:21.000Z</time>
      </trkpt>
      <trkpt lat="43.8248" lon="7.25201">
        <ele>560</ele>
        <time>2018-04-26T12:19:24.000Z</time>
      </trkpt>
      <trkpt lat="43.82476" lon="7.25203">
        <ele>560</ele>
        <time>2018-04-26T12:19:27.000Z</time>
      </trkpt>
      <trkpt lat="43.82467" lon="7.25207">
        <ele>560</ele>
        <time>2018-04-26T12:19:33.000Z</time>
      </trkpt>
      <trkpt lat="43.82455" lon="7.25214">
        <ele>560</ele>
        <time>2018-04-26T12:19:40.000Z</time>
      </trkpt>
      <trkpt lat="43.82453" lon="7.25215">
        <ele>560</ele>
        <time>2018-04-26T12:19:41.000Z</time>
      </trkpt>
      <trkpt lat="43.82442" lon="7.2522">
        <ele>561</ele>
        <time>2018-04-26T12:19:47.000Z</time>
      </trkpt>
      <trkpt lat="43.82436" lon="7.25223">
        <ele>561</ele>
        <time>2018-04-26T12:19:50.000Z</time>
      </trkpt>
      <trkpt lat="43.8243" lon="7.25228">
        <ele>562</ele>
        <time>2018-04-26T12:19:54.000Z</time>
      </trkpt>
      <trkpt lat="43.82424" lon="7.25231">
        <ele>563</ele>
        <time>2018-04-26T12:19:57.000Z</time>
      </trkpt>
      <trkpt lat="43.82413" lon="7.25239">
        <ele>561</ele>
        <time>2018-04-26T12:20:03.000Z</time>
      </trkpt>
      <trkpt lat="43.82408" lon="7.25242">
        <ele>561</ele>
        <time>2018-04-26T12:20:06.000Z</time>
      </trkpt>
      <trkpt lat="43.82398" lon="7.25249">
        <ele>559</ele>
        <time>2018-04-26T12:20:11.000Z</time>
      </trkpt>
      <trkpt lat="43.82389" lon="7.25254">
        <ele>571</ele>
        <time>2018-04-26T12:20:15.000Z</time>
      </trkpt>
      <trkpt lat="43.8237" lon="7.25265">
        <ele>571</ele>
        <time>2018-04-26T12:20:22.000Z</time>
      </trkpt>
      <trkpt lat="43.82345" lon="7.25277">
        <ele>570</ele>
        <time>2018-04-26T12:20:30.000Z</time>
      </trkpt>
      <trkpt lat="43.82322" lon="7.2529">
        <ele>563</ele>
        <time>2018-04-26T12:20:37.000Z</time>
      </trkpt>
      <trkpt lat="43.82299" lon="7.25309">
        <ele>563</ele>
        <time>2018-04-26T12:20:44.000Z</time>
      </trkpt>
      <trkpt lat="43.82292" lon="7.25314">
        <ele>563</ele>
        <time>2018-04-26T12:20:46.000Z</time>
      </trkpt>
      <trkpt lat="43.82268" lon="7.25338">
        <ele>571</ele>
        <time>2018-04-26T12:20:53.000Z</time>
      </trkpt>
      <trkpt lat="43.82248" lon="7.25361">
        <ele>561</ele>
        <time>2018-04-26T12:20:59.000Z</time>
      </trkpt>
      <trkpt lat="43.82238" lon="7.25375">
        <ele>563</ele>
        <time>2018-04-26T12:21:02.000Z</time>
      </trkpt>
      <trkpt lat="43.82211" lon="7.25399">
        <ele>563</ele>
        <time>2018-04-26T12:21:09.000Z</time>
      </trkpt>
      <trkpt lat="43.82207" lon="7.25401">
        <ele>562</ele>
        <time>2018-04-26T12:21:10.000Z</time>
      </trkpt>
      <trkpt lat="43.82204" lon="7.25403">
        <ele>562</ele>
        <time>2018-04-26T12:21:11.000Z</time>
      </trkpt>
      <trkpt lat="43.82187" lon="7.25412">
        <ele>560</ele>
        <time>2018-04-26T12:21:15.000Z</time>
      </trkpt>
      <trkpt lat="43.82161" lon="7.25435">
        <ele>561</ele>
        <time>2018-04-26T12:21:22.000Z</time>
      </trkpt>
      <trkpt lat="43.82139" lon="7.25461">
        <ele>564</ele>
        <time>2018-04-26T12:21:28.000Z</time>
      </trkpt>
      <trkpt lat="43.82131" lon="7.25468">
        <ele>564</ele>
        <time>2018-04-26T12:21:30.000Z</time>
      </trkpt>
      <trkpt lat="43.82101" lon="7.25491">
        <ele>564</ele>
        <time>2018-04-26T12:21:38.000Z</time>
      </trkpt>
      <trkpt lat="43.82074" lon="7.25507">
        <ele>566</ele>
        <time>2018-04-26T12:21:45.000Z</time>
      </trkpt>
      <trkpt lat="43.82068" lon="7.25513">
        <ele>566</ele>
        <time>2018-04-26T12:21:47.000Z</time>
      </trkpt>
      <trkpt lat="43.82055" lon="7.25523">
        <ele>565</ele>
        <time>2018-04-26T12:21:51.000Z</time>
      </trkpt>
      <trkpt lat="43.82043" lon="7.25531">
        <ele>565</ele>
        <time>2018-04-26T12:21:54.000Z</time>
      </trkpt>
      <trkpt lat="43.82029" lon="7.2554">
        <ele>564</ele>
        <time>2018-04-26T12:21:58.000Z</time>
      </trkpt>
      <trkpt lat="43.82026" lon="7.25543">
        <ele>564</ele>
        <time>2018-04-26T12:21:59.000Z</time>
      </trkpt>
      <trkpt lat="43.82009" lon="7.25563">
        <ele>565</ele>
        <time>2018-04-26T12:22:05.000Z</time>
      </trkpt>
      <trkpt lat="43.81995" lon="7.25579">
        <ele>566</ele>
        <time>2018-04-26T12:22:11.000Z</time>
      </trkpt>
      <trkpt lat="43.81992" lon="7.25582">
        <ele>566</ele>
        <time>2018-04-26T12:22:12.000Z</time>
      </trkpt>
      <trkpt lat="43.81981" lon="7.25591">
        <ele>568</ele>
        <time>2018-04-26T12:22:17.000Z</time>
      </trkpt>
      <trkpt lat="43.81969" lon="7.25602">
        <ele>570</ele>
        <time>2018-04-26T12:22:24.000Z</time>
      </trkpt>
      <trkpt lat="43.81968" lon="7.25603">
        <ele>570</ele>
        <time>2018-04-26T12:22:25.000Z</time>
      </trkpt>
      <trkpt lat="43.8196" lon="7.25615">
        <ele>571</ele>
        <time>2018-04-26T12:22:31.000Z</time>
      </trkpt>
      <trkpt lat="43.81959" lon="7.25617">
        <ele>571</ele>
        <time>2018-04-26T12:22:32.000Z</time>
      </trkpt>
      <trkpt lat="43.81956" lon="7.25626">
        <ele>571</ele>
        <time>2018-04-26T12:22:36.000Z</time>
      </trkpt>
      <trkpt lat="43.81953" lon="7.25635">
        <ele>571</ele>
        <time>2018-04-26T12:22:40.000Z</time>
      </trkpt>
      <trkpt lat="43.81949" lon="7.25645">
        <ele>571</ele>
        <time>2018-04-26T12:22:45.000Z</time>
      </trkpt>
      <trkpt lat="43.81945" lon="7.25653">
        <ele>572</ele>
        <time>2018-04-26T12:22:49.000Z</time>
      </trkpt>
      <trkpt lat="43.8194" lon="7.25665">
        <ele>574</ele>
        <time>2018-04-26T12:22:54.000Z</time>
      </trkpt>
      <trkpt lat="43.81939" lon="7.25667">
        <ele>568</ele>
        <time>2018-04-26T12:22:55.000Z</time>
      </trkpt>
      <trkpt lat="43.81933" lon="7.25681">
        <ele>569</ele>
        <time>2018-04-26T12:23:02.000Z</time>
      </trkpt>
      <trkpt lat="43.81926" lon="7.25692">
        <ele>567</ele>
        <time>2018-04-26T12:23:08.000Z</time>
      </trkpt>
      <trkpt lat="43.81922" lon="7.25699">
        <ele>566</ele>
        <time>2018-04-26T12:23:11.000Z</time>
      </trkpt>
      <trkpt lat="43.81918" lon="7.25705">
        <ele>565</ele>
        <time>2018-04-26T12:23:14.000Z</time>
      </trkpt>
      <trkpt lat="43.81912" lon="7.25715">
        <ele>579</ele>
        <time>2018-04-26T12:23:19.000Z</time>
      </trkpt>
      <trkpt lat="43.81911" lon="7.25717">
        <ele>579</ele>
        <time>2018-04-26T12:23:20.000Z</time>
      </trkpt>
      <trkpt lat="43.81905" lon="7.25727">
        <ele>577</ele>
        <time>2018-04-26T12:23:25.000Z</time>
      </trkpt>
      <trkpt lat="43.81898" lon="7.25738">
        <ele>576</ele>
        <time>2018-04-26T12:23:31.000Z</time>
      </trkpt>
      <trkpt lat="43.81896" lon="7.2574">
        <ele>576</ele>
        <time>2018-04-26T12:23:32.000Z</time>
      </trkpt>
      <trkpt lat="43.8189" lon="7.25749">
        <ele>577</ele>
        <time>2018-04-26T12:23:37.000Z</time>
      </trkpt>
      <trkpt lat="43.81886" lon="7.25752">
        <ele>568</ele>
        <time>2018-04-26T12:23:40.000Z</time>
      </trkpt>
      <trkpt lat="43.81882" lon="7.25756">
        <ele>568</ele>
        <time>2018-04-26T12:23:43.000Z</time>
      </trkpt>
      <trkpt lat="43.81878" lon="7.25758">
        <ele>568</ele>
        <time>2018-04-26T12:23:45.000Z</time>
      </trkpt>
      <trkpt lat="43.8187" lon="7.25761">
        <ele>569</ele>
        <time>2018-04-26T12:23:50.000Z</time>
      </trkpt>
      <trkpt lat="43.81865" lon="7.25763">
        <ele>570</ele>
        <time>2018-04-26T12:23:53.000Z</time>
      </trkpt>
      <trkpt lat="43.81862" lon="7.25763">
        <ele>570</ele>
        <time>2018-04-26T12:23:57.000Z</time>
      </trkpt>
      <trkpt lat="43.81862" lon="7.25763">
        <ele>570</ele>
        <time>2018-04-26T12:23:59.000Z</time>
      </trkpt>
      <trkpt lat="43.81862" lon="7.25763">
        <ele>570</ele>
        <time>2018-04-26T12:24:04.000Z</time>
      </trkpt>
      <trkpt lat="43.81861" lon="7.25763">
        <ele>570</ele>
        <time>2018-04-26T12:24:13.000Z</time>
      </trkpt>
      <trkpt lat="43.81859" lon="7.25763">
        <ele>571</ele>
        <time>2018-04-26T12:24:14.000Z</time>
      </trkpt>
      <trkpt lat="43.8185" lon="7.25763">
        <ele>573</ele>
        <time>2018-04-26T12:24:19.000Z</time>
      </trkpt>
      <trkpt lat="43.81838" lon="7.25759">
        <ele>576</ele>
        <time>2018-04-26T12:24:25.000Z</time>
      </trkpt>
      <trkpt lat="43.81833" lon="7.25757">
        <ele>577</ele>
        <time>2018-04-26T12:24:28.000Z</time>
      </trkpt>
      <trkpt lat="43.8183" lon="7.25754">
        <ele>578</ele>
        <time>2018-04-26T12:24:30.000Z</time>
      </trkpt>
      <trkpt lat="43.81822" lon="7.25748">
        <ele>581</ele>
        <time>2018-04-26T12:24:35.000Z</time>
      </trkpt>
      <trkpt lat="43.81819" lon="7.25745">
        <ele>581</ele>
        <time>2018-04-26T12:24:37.000Z</time>
      </trkpt>
      <trkpt lat="43.81815" lon="7.25739">
        <ele>580</ele>
        <time>2018-04-26T12:24:40.000Z</time>
      </trkpt>
      <trkpt lat="43.8181" lon="7.2573">
        <ele>580</ele>
        <time>2018-04-26T12:24:44.000Z</time>
      </trkpt>
      <trkpt lat="43.81804" lon="7.25719">
        <ele>580</ele>
        <time>2018-04-26T12:24:49.000Z</time>
      </trkpt>
      <trkpt lat="43.818" lon="7.2571">
        <ele>581</ele>
        <time>2018-04-26T12:24:53.000Z</time>
      </trkpt>
      <trkpt lat="43.81798" lon="7.25706">
        <ele>581</ele>
        <time>2018-04-26T12:24:55.000Z</time>
      </trkpt>
      <trkpt lat="43.81793" lon="7.25691">
        <ele>582</ele>
        <time>2018-04-26T12:25:01.000Z</time>
      </trkpt>
      <trkpt lat="43.8179" lon="7.25679">
        <ele>582</ele>
        <time>2018-04-26T12:25:06.000Z</time>
      </trkpt>
      <trkpt lat="43.81789" lon="7.25674">
        <ele>582</ele>
        <time>2018-04-26T12:25:08.000Z</time>
      </trkpt>
      <trkpt lat="43.81786" lon="7.25664">
        <ele>591</ele>
        <time>2018-04-26T12:25:12.000Z</time>
      </trkpt>
      <trkpt lat="43.81784" lon="7.25653">
        <ele>591</ele>
        <time>2018-04-26T12:25:17.000Z</time>
      </trkpt>
      <trkpt lat="43.81779" lon="7.25633">
        <ele>592</ele>
        <time>2018-04-26T12:25:24.000Z</time>
      </trkpt>
      <trkpt lat="43.81778" lon="7.25625">
        <ele>593</ele>
        <time>2018-04-26T12:25:27.000Z</time>
      </trkpt>
      <trkpt lat="43.81777" lon="7.25614">
        <ele>593</ele>
        <time>2018-04-26T12:25:31.000Z</time>
      </trkpt>
      <trkpt lat="43.81777" lon="7.2561">
        <ele>593</ele>
        <time>2018-04-26T12:25:33.000Z</time>
      </trkpt>
      <trkpt lat="43.81776" lon="7.25603">
        <ele>593</ele>
        <time>2018-04-26T12:25:36.000Z</time>
      </trkpt>
      <trkpt lat="43.81774" lon="7.25586">
        <ele>593</ele>
        <time>2018-04-26T12:25:43.000Z</time>
      </trkpt>
      <trkpt lat="43.81773" lon="7.25584">
        <ele>593</ele>
        <time>2018-04-26T12:25:44.000Z</time>
      </trkpt>
      <trkpt lat="43.81771" lon="7.25569">
        <ele>597</ele>
        <time>2018-04-26T12:25:50.000Z</time>
      </trkpt>
      <trkpt lat="43.81767" lon="7.25555">
        <ele>597</ele>
        <time>2018-04-26T12:25:56.000Z</time>
      </trkpt>
      <trkpt lat="43.81765" lon="7.25545">
        <ele>598</ele>
        <time>2018-04-26T12:26:00.000Z</time>
      </trkpt>
      <trkpt lat="43.81763" lon="7.2554">
        <ele>598</ele>
        <time>2018-04-26T12:26:02.000Z</time>
      </trkpt>
      <trkpt lat="43.81759" lon="7.25529">
        <ele>599</ele>
        <time>2018-04-26T12:26:07.000Z</time>
      </trkpt>
      <trkpt lat="43.81758" lon="7.25524">
        <ele>599</ele>
        <time>2018-04-26T12:26:09.000Z</time>
      </trkpt>
      <trkpt lat="43.81753" lon="7.25514">
        <ele>600</ele>
        <time>2018-04-26T12:26:14.000Z</time>
      </trkpt>
      <trkpt lat="43.8175" lon="7.25508">
        <ele>601</ele>
        <time>2018-04-26T12:26:17.000Z</time>
      </trkpt>
      <trkpt lat="43.81747" lon="7.25503">
        <ele>600</ele>
        <time>2018-04-26T12:26:20.000Z</time>
      </trkpt>
      <trkpt lat="43.81742" lon="7.25496">
        <ele>600</ele>
        <time>2018-04-26T12:26:24.000Z</time>
      </trkpt>
      <trkpt lat="43.81739" lon="7.25493">
        <ele>599</ele>
        <time>2018-04-26T12:26:26.000Z</time>
      </trkpt>
      <trkpt lat="43.81732" lon="7.25485">
        <ele>598</ele>
        <time>2018-04-26T12:26:32.000Z</time>
      </trkpt>
      <trkpt lat="43.8173" lon="7.25482">
        <ele>597</ele>
        <time>2018-04-26T12:26:34.000Z</time>
      </trkpt>
      <trkpt lat="43.81723" lon="7.25474">
        <ele>597</ele>
        <time>2018-04-26T12:26:40.000Z</time>
      </trkpt>
      <trkpt lat="43.8172" lon="7.25471">
        <ele>596</ele>
        <time>2018-04-26T12:26:42.000Z</time>
      </trkpt>
      <trkpt lat="43.81715" lon="7.25466">
        <ele>596</ele>
        <time>2018-04-26T12:26:46.000Z</time>
      </trkpt>
      <trkpt lat="43.81704" lon="7.25456">
        <ele>596</ele>
        <time>2018-04-26T12:26:52.000Z</time>
      </trkpt>
      <trkpt lat="43.81698" lon="7.2545">
        <ele>596</ele>
        <time>2018-04-26T12:26:57.000Z</time>
      </trkpt>
      <trkpt lat="43.81695" lon="7.25448">
        <ele>597</ele>
        <time>2018-04-26T12:26:59.000Z</time>
      </trkpt>
      <trkpt lat="43.81693" lon="7.25446">
        <ele>597</ele>
        <time>2018-04-26T12:27:01.000Z</time>
      </trkpt>
      <trkpt lat="43.81684" lon="7.25437">
        <ele>598</ele>
        <time>2018-04-26T12:27:08.000Z</time>
      </trkpt>
      <trkpt lat="43.81682" lon="7.25436">
        <ele>598</ele>
        <time>2018-04-26T12:27:09.000Z</time>
      </trkpt>
      <trkpt lat="43.81677" lon="7.25429">
        <ele>600</ele>
        <time>2018-04-26T12:27:14.000Z</time>
      </trkpt>
      <trkpt lat="43.81675" lon="7.25428">
        <ele>600</ele>
        <time>2018-04-26T12:27:15.000Z</time>
      </trkpt>
      <trkpt lat="43.81673" lon="7.25425">
        <ele>601</ele>
        <time>2018-04-26T12:27:17.000Z</time>
      </trkpt>
      <trkpt lat="43.81667" lon="7.2542">
        <ele>603</ele>
        <time>2018-04-26T12:27:22.000Z</time>
      </trkpt>
      <trkpt lat="43.81666" lon="7.25418">
        <ele>604</ele>
        <time>2018-04-26T12:27:24.000Z</time>
      </trkpt>
      <trkpt lat="43.81662" lon="7.25414">
        <ele>605</ele>
        <time>2018-04-26T12:27:27.000Z</time>
      </trkpt>
      <trkpt lat="43.81661" lon="7.25413">
        <ele>605</ele>
        <time>2018-04-26T12:27:28.000Z</time>
      </trkpt>
      <trkpt lat="43.81659" lon="7.25411">
        <ele>605</ele>
        <time>2018-04-26T12:27:30.000Z</time>
      </trkpt>
      <trkpt lat="43.81656" lon="7.25408">
        <ele>606</ele>
        <time>2018-04-26T12:27:33.000Z</time>
      </trkpt>
      <trkpt lat="43.81652" lon="7.25404">
        <ele>607</ele>
        <time>2018-04-26T12:27:37.000Z</time>
      </trkpt>
      <trkpt lat="43.81651" lon="7.25403">
        <ele>607</ele>
        <time>2018-04-26T12:27:38.000Z</time>
      </trkpt>
      <trkpt lat="43.81642" lon="7.25395">
        <ele>608</ele>
        <time>2018-04-26T12:27:46.000Z</time>
      </trkpt>
      <trkpt lat="43.81638" lon="7.25392">
        <ele>608</ele>
        <time>2018-04-26T12:27:50.000Z</time>
      </trkpt>
      <trkpt lat="43.81636" lon="7.25391">
        <ele>608</ele>
        <time>2018-04-26T12:27:52.000Z</time>
      </trkpt>
      <trkpt lat="43.81636" lon="7.25392">
        <ele>608</ele>
        <time>2018-04-26T12:27:53.000Z</time>
      </trkpt>
      <trkpt lat="43.81636" lon="7.25391">
        <ele>608</ele>
        <time>2018-04-26T12:27:54.000Z</time>
      </trkpt>
      <trkpt lat="43.81636" lon="7.25392">
        <ele>608</ele>
        <time>2018-04-26T12:27:55.000Z</time>
      </trkpt>
      <trkpt lat="43.81635" lon="7.2539">
        <ele>608</ele>
        <time>2018-04-26T12:28:02.000Z</time>
      </trkpt>
      <trkpt lat="43.8163" lon="7.25385">
        <ele>609</ele>
        <time>2018-04-26T12:28:09.000Z</time>
      </trkpt>
      <trkpt lat="43.81629" lon="7.25385">
        <ele>609</ele>
        <time>2018-04-26T12:28:10.000Z</time>
      </trkpt>
      <trkpt lat="43.81627" lon="7.25383">
        <ele>609</ele>
        <time>2018-04-26T12:28:15.000Z</time>
      </trkpt>
      <trkpt lat="43.81626" lon="7.25382">
        <ele>609</ele>
        <time>2018-04-26T12:28:17.000Z</time>
      </trkpt>
      <trkpt lat="43.81622" lon="7.25378">
        <ele>610</ele>
        <time>2018-04-26T12:28:24.000Z</time>
      </trkpt>
      <trkpt lat="43.81621" lon="7.25377">
        <ele>610</ele>
        <time>2018-04-26T12:28:27.000Z</time>
      </trkpt>
      <trkpt lat="43.81619" lon="7.25375">
        <ele>610</ele>
        <time>2018-04-26T12:28:32.000Z</time>
      </trkpt>
      <trkpt lat="43.81616" lon="7.25372">
        <ele>610</ele>
        <time>2018-04-26T12:28:37.000Z</time>
      </trkpt>
      <trkpt lat="43.81614" lon="7.2537">
        <ele>611</ele>
        <time>2018-04-26T12:28:41.000Z</time>
      </trkpt>
      <trkpt lat="43.81611" lon="7.25368">
        <ele>611</ele>
        <time>2018-04-26T12:28:47.000Z</time>
      </trkpt>
      <trkpt lat="43.81607" lon="7.25364">
        <ele>612</ele>
        <time>2018-04-26T12:28:55.000Z</time>
      </trkpt>
      <trkpt lat="43.81606" lon="7.25363">
        <ele>612</ele>
        <time>2018-04-26T12:28:56.000Z</time>
      </trkpt>
      <trkpt lat="43.81604" lon="7.25361">
        <ele>613</ele>
        <time>2018-04-26T12:29:01.000Z</time>
      </trkpt>
      <trkpt lat="43.81602" lon="7.25359">
        <ele>613</ele>
        <time>2018-04-26T12:29:06.000Z</time>
      </trkpt>
      <trkpt lat="43.81601" lon="7.25359">
        <ele>613</ele>
        <time>2018-04-26T12:29:07.000Z</time>
      </trkpt>
      <trkpt lat="43.81597" lon="7.25356">
        <ele>614</ele>
        <time>2018-04-26T12:29:14.000Z</time>
      </trkpt>
      <trkpt lat="43.81597" lon="7.25355">
        <ele>614</ele>
        <time>2018-04-26T12:29:15.000Z</time>
      </trkpt>
      <trkpt lat="43.81595" lon="7.25354">
        <ele>615</ele>
        <time>2018-04-26T12:29:19.000Z</time>
      </trkpt>
      <trkpt lat="43.81593" lon="7.25353">
        <ele>615</ele>
        <time>2018-04-26T12:29:24.000Z</time>
      </trkpt>
      <trkpt lat="43.81589" lon="7.25353">
        <ele>616</ele>
        <time>2018-04-26T12:29:31.000Z</time>
      </trkpt>
      <trkpt lat="43.81588" lon="7.25353">
        <ele>616</ele>
        <time>2018-04-26T12:29:33.000Z</time>
      </trkpt>
      <trkpt lat="43.81586" lon="7.25353">
        <ele>616</ele>
        <time>2018-04-26T12:29:36.000Z</time>
      </trkpt>
      <trkpt lat="43.81584" lon="7.25352">
        <ele>617</ele>
        <time>2018-04-26T12:29:40.000Z</time>
      </trkpt>
      <trkpt lat="43.81583" lon="7.25352">
        <ele>628</ele>
        <time>2018-04-26T12:29:41.000Z</time>
      </trkpt>
      <trkpt lat="43.81581" lon="7.25352">
        <ele>628</ele>
        <time>2018-04-26T12:29:47.000Z</time>
      </trkpt>
      <trkpt lat="43.8158" lon="7.25351">
        <ele>628</ele>
        <time>2018-04-26T12:29:48.000Z</time>
      </trkpt>
      <trkpt lat="43.81577" lon="7.2535">
        <ele>628</ele>
        <time>2018-04-26T12:29:54.000Z</time>
      </trkpt>
      <trkpt lat="43.81574" lon="7.25347">
        <ele>628</ele>
        <time>2018-04-26T12:29:59.000Z</time>
      </trkpt>
      <trkpt lat="43.81573" lon="7.25346">
        <ele>628</ele>
        <time>2018-04-26T12:30:02.000Z</time>
      </trkpt>
      <trkpt lat="43.81572" lon="7.25345">
        <ele>628</ele>
        <time>2018-04-26T12:30:04.000Z</time>
      </trkpt>
      <trkpt lat="43.8157" lon="7.25342">
        <ele>628</ele>
        <time>2018-04-26T12:30:10.000Z</time>
      </trkpt>
      <trkpt lat="43.81568" lon="7.25342">
        <ele>628</ele>
        <time>2018-04-26T12:30:12.000Z</time>
      </trkpt>
      <trkpt lat="43.81565" lon="7.25341">
        <ele>629</ele>
        <time>2018-04-26T12:30:17.000Z</time>
      </trkpt>
      <trkpt lat="43.81565" lon="7.25341">
        <ele>629</ele>
        <time>2018-04-26T12:30:18.000Z</time>
      </trkpt>
      <trkpt lat="43.81563" lon="7.2534">
        <ele>629</ele>
        <time>2018-04-26T12:30:24.000Z</time>
      </trkpt>
      <trkpt lat="43.81563" lon="7.2534">
        <ele>629</ele>
        <time>2018-04-26T12:30:25.000Z</time>
      </trkpt>
      <trkpt lat="43.81562" lon="7.2534">
        <ele>629</ele>
        <time>2018-04-26T12:30:29.000Z</time>
      </trkpt>
      <trkpt lat="43.8156" lon="7.2534">
        <ele>630</ele>
        <time>2018-04-26T12:30:31.000Z</time>
      </trkpt>
      <trkpt lat="43.81553" lon="7.2534">
        <ele>631</ele>
        <time>2018-04-26T12:30:37.000Z</time>
      </trkpt>
      <trkpt lat="43.8155" lon="7.2534">
        <ele>631</ele>
        <time>2018-04-26T12:30:39.000Z</time>
      </trkpt>
      <trkpt lat="43.81543" lon="7.25342">
        <ele>632</ele>
        <time>2018-04-26T12:30:44.000Z</time>
      </trkpt>
      <trkpt lat="43.81541" lon="7.25343">
        <ele>633</ele>
        <time>2018-04-26T12:30:45.000Z</time>
      </trkpt>
      <trkpt lat="43.81529" lon="7.25348">
        <ele>634</ele>
        <time>2018-04-26T12:30:53.000Z</time>
      </trkpt>
      <trkpt lat="43.81521" lon="7.25356">
        <ele>635</ele>
        <time>2018-04-26T12:30:59.000Z</time>
      </trkpt>
      <trkpt lat="43.81518" lon="7.25357">
        <ele>636</ele>
        <time>2018-04-26T12:31:02.000Z</time>
      </trkpt>
      <trkpt lat="43.81516" lon="7.25358">
        <ele>636</ele>
        <time>2018-04-26T12:31:05.000Z</time>
      </trkpt>
      <trkpt lat="43.81515" lon="7.25358">
        <ele>636</ele>
        <time>2018-04-26T12:31:06.000Z</time>
      </trkpt>
      <trkpt lat="43.81512" lon="7.25358">
        <ele>636</ele>
        <time>2018-04-26T12:31:09.000Z</time>
      </trkpt>
      <trkpt lat="43.81511" lon="7.25357">
        <ele>636</ele>
        <time>2018-04-26T12:31:10.000Z</time>
      </trkpt>
      <trkpt lat="43.81507" lon="7.25359">
        <ele>637</ele>
        <time>2018-04-26T12:31:14.000Z</time>
      </trkpt>
      <trkpt lat="43.81505" lon="7.2536">
        <ele>637</ele>
        <time>2018-04-26T12:31:17.000Z</time>
      </trkpt>
      <trkpt lat="43.81502" lon="7.25362">
        <ele>637</ele>
        <time>2018-04-26T12:31:20.000Z</time>
      </trkpt>
      <trkpt lat="43.81501" lon="7.25362">
        <ele>637</ele>
        <time>2018-04-26T12:31:23.000Z</time>
      </trkpt>
      <trkpt lat="43.81501" lon="7.25363">
        <ele>637</ele>
        <time>2018-04-26T12:31:24.000Z</time>
      </trkpt>
      <trkpt lat="43.815" lon="7.25362">
        <ele>637</ele>
        <time>2018-04-26T12:31:30.000Z</time>
      </trkpt>
      <trkpt lat="43.81498" lon="7.25364">
        <ele>646</ele>
        <time>2018-04-26T12:31:39.000Z</time>
      </trkpt>
      <trkpt lat="43.81497" lon="7.25365">
        <ele>646</ele>
        <time>2018-04-26T12:31:41.000Z</time>
      </trkpt>
      <trkpt lat="43.81496" lon="7.25368">
        <ele>646</ele>
        <time>2018-04-26T12:31:46.000Z</time>
      </trkpt>
      <trkpt lat="43.81495" lon="7.2537">
        <ele>646</ele>
        <time>2018-04-26T12:31:48.000Z</time>
      </trkpt>
      <trkpt lat="43.81493" lon="7.25371">
        <ele>646</ele>
        <time>2018-04-26T12:31:53.000Z</time>
      </trkpt>
      <trkpt lat="43.81491" lon="7.25372">
        <ele>646</ele>
        <time>2018-04-26T12:31:57.000Z</time>
      </trkpt>
      <trkpt lat="43.81489" lon="7.25374">
        <ele>647</ele>
        <time>2018-04-26T12:32:03.000Z</time>
      </trkpt>
      <trkpt lat="43.81489" lon="7.25374">
        <ele>647</ele>
        <time>2018-04-26T12:32:04.000Z</time>
      </trkpt>
      <trkpt lat="43.81487" lon="7.25375">
        <ele>647</ele>
        <time>2018-04-26T12:32:11.000Z</time>
      </trkpt>
      <trkpt lat="43.81484" lon="7.25376">
        <ele>647</ele>
        <time>2018-04-26T12:32:17.000Z</time>
      </trkpt>
      <trkpt lat="43.81482" lon="7.25377">
        <ele>647</ele>
        <time>2018-04-26T12:32:21.000Z</time>
      </trkpt>
      <trkpt lat="43.81481" lon="7.25378">
        <ele>647</ele>
        <time>2018-04-26T12:32:23.000Z</time>
      </trkpt>
      <trkpt lat="43.81477" lon="7.25379">
        <ele>647</ele>
        <time>2018-04-26T12:32:29.000Z</time>
      </trkpt>
      <trkpt lat="43.81475" lon="7.2538">
        <ele>647</ele>
        <time>2018-04-26T12:32:32.000Z</time>
      </trkpt>
      <trkpt lat="43.81472" lon="7.25382">
        <ele>647</ele>
        <time>2018-04-26T12:32:37.000Z</time>
      </trkpt>
      <trkpt lat="43.81471" lon="7.25382">
        <ele>648</ele>
        <time>2018-04-26T12:32:38.000Z</time>
      </trkpt>
      <trkpt lat="43.81469" lon="7.25383">
        <ele>648</ele>
        <time>2018-04-26T12:32:40.000Z</time>
      </trkpt>
      <trkpt lat="43.81467" lon="7.25384">
        <ele>648</ele>
        <time>2018-04-26T12:32:43.000Z</time>
      </trkpt>
      <trkpt lat="43.81467" lon="7.25384">
        <ele>648</ele>
        <time>2018-04-26T12:32:44.000Z</time>
      </trkpt>
      <trkpt lat="43.81462" lon="7.25386">
        <ele>648</ele>
        <time>2018-04-26T12:32:50.000Z</time>
      </trkpt>
      <trkpt lat="43.81461" lon="7.25387">
        <ele>648</ele>
        <time>2018-04-26T12:32:52.000Z</time>
      </trkpt>
      <trkpt lat="43.81457" lon="7.25388">
        <ele>649</ele>
        <time>2018-04-26T12:32:57.000Z</time>
      </trkpt>
      <trkpt lat="43.81455" lon="7.25389">
        <ele>649</ele>
        <time>2018-04-26T12:32:59.000Z</time>
      </trkpt>
      <trkpt lat="43.81448" lon="7.25393">
        <ele>650</ele>
        <time>2018-04-26T12:33:08.000Z</time>
      </trkpt>
      <trkpt lat="43.81444" lon="7.25395">
        <ele>650</ele>
        <time>2018-04-26T12:33:14.000Z</time>
      </trkpt>
      <trkpt lat="43.81444" lon="7.25395">
        <ele>650</ele>
        <time>2018-04-26T12:33:16.000Z</time>
      </trkpt>
      <trkpt lat="43.81443" lon="7.25396">
        <ele>650</ele>
        <time>2018-04-26T12:33:39.000Z</time>
      </trkpt>
      <trkpt lat="43.81443" lon="7.25395">
        <ele>650</ele>
        <time>2018-04-26T12:33:53.000Z</time>
      </trkpt>
      <trkpt lat="43.81443" lon="7.25396">
        <ele>650</ele>
        <time>2018-04-26T12:34:01.000Z</time>
      </trkpt>
      <trkpt lat="43.81439" lon="7.25397">
        <ele>651</ele>
        <time>2018-04-26T12:34:07.000Z</time>
      </trkpt>
      <trkpt lat="43.81426" lon="7.25395">
        <ele>652</ele>
        <time>2018-04-26T12:34:12.000Z</time>
      </trkpt>
      <trkpt lat="43.81412" lon="7.25395">
        <ele>653</ele>
        <time>2018-04-26T12:34:15.000Z</time>
      </trkpt>
      <trkpt lat="43.81407" lon="7.25394">
        <ele>653</ele>
        <time>2018-04-26T12:34:16.000Z</time>
      </trkpt>
      <trkpt lat="43.81401" lon="7.25393">
        <ele>653</ele>
        <time>2018-04-26T12:34:17.000Z</time>
      </trkpt>
      <trkpt lat="43.81387" lon="7.25391">
        <ele>652</ele>
        <time>2018-04-26T12:34:19.000Z</time>
      </trkpt>
      <trkpt lat="43.81374" lon="7.25389">
        <ele>651</ele>
        <time>2018-04-26T12:34:21.000Z</time>
      </trkpt>
      <trkpt lat="43.81361" lon="7.25386">
        <ele>650</ele>
        <time>2018-04-26T12:34:23.000Z</time>
      </trkpt>
      <trkpt lat="43.81335" lon="7.25378">
        <ele>650</ele>
        <time>2018-04-26T12:34:27.000Z</time>
      </trkpt>
      <trkpt lat="43.81329" lon="7.25376">
        <ele>651</ele>
        <time>2018-04-26T12:34:28.000Z</time>
      </trkpt>
      <trkpt lat="43.81324" lon="7.25374">
        <ele>651</ele>
        <time>2018-04-26T12:34:29.000Z</time>
      </trkpt>
      <trkpt lat="43.81311" lon="7.25374">
        <ele>651</ele>
        <time>2018-04-26T12:34:32.000Z</time>
      </trkpt>
      <trkpt lat="43.81309" lon="7.25373">
        <ele>652</ele>
        <time>2018-04-26T12:34:33.000Z</time>
      </trkpt>
      <trkpt lat="43.81301" lon="7.25372">
        <ele>652</ele>
        <time>2018-04-26T12:34:36.000Z</time>
      </trkpt>
      <trkpt lat="43.81297" lon="7.2537">
        <ele>652</ele>
        <time>2018-04-26T12:34:38.000Z</time>
      </trkpt>
      <trkpt lat="43.81295" lon="7.25369">
        <ele>652</ele>
        <time>2018-04-26T12:34:39.000Z</time>
      </trkpt>
      <trkpt lat="43.81289" lon="7.25366">
        <ele>653</ele>
        <time>2018-04-26T12:34:43.000Z</time>
      </trkpt>
      <trkpt lat="43.81285" lon="7.25364">
        <ele>653</ele>
        <time>2018-04-26T12:34:46.000Z</time>
      </trkpt>
      <trkpt lat="43.81284" lon="7.25363">
        <ele>653</ele>
        <time>2018-04-26T12:34:47.000Z</time>
      </trkpt>
      <trkpt lat="43.81281" lon="7.2536">
        <ele>654</ele>
        <time>2018-04-26T12:34:50.000Z</time>
      </trkpt>
      <trkpt lat="43.81278" lon="7.25358">
        <ele>654</ele>
        <time>2018-04-26T12:34:53.000Z</time>
      </trkpt>
      <trkpt lat="43.81276" lon="7.25359">
        <ele>654</ele>
        <time>2018-04-26T12:34:56.000Z</time>
      </trkpt>
      <trkpt lat="43.81276" lon="7.25358">
        <ele>654</ele>
        <time>2018-04-26T12:34:58.000Z</time>
      </trkpt>
      <trkpt lat="43.81273" lon="7.25357">
        <ele>654</ele>
        <time>2018-04-26T12:35:02.000Z</time>
      </trkpt>
      <trkpt lat="43.81273" lon="7.25357">
        <ele>654</ele>
        <time>2018-04-26T12:35:04.000Z</time>
      </trkpt>
      <trkpt lat="43.81273" lon="7.25358">
        <ele>654</ele>
        <time>2018-04-26T12:35:08.000Z</time>
      </trkpt>
      <trkpt lat="43.81273" lon="7.25357">
        <ele>654</ele>
        <time>2018-04-26T12:35:10.000Z</time>
      </trkpt>
      <trkpt lat="43.81273" lon="7.25358">
        <ele>654</ele>
        <time>2018-04-26T12:35:19.000Z</time>
      </trkpt>
      <trkpt lat="43.81273" lon="7.25357">
        <ele>654</ele>
        <time>2018-04-26T12:35:22.000Z</time>
      </trkpt>
      <trkpt lat="43.81271" lon="7.25358">
        <ele>654</ele>
        <time>2018-04-26T12:35:25.000Z</time>
      </trkpt>
      <trkpt lat="43.81265" lon="7.25357">
        <ele>655</ele>
        <time>2018-04-26T12:35:34.000Z</time>
      </trkpt>
      <trkpt lat="43.81264" lon="7.25356">
        <ele>655</ele>
        <time>2018-04-26T12:35:36.000Z</time>
      </trkpt>
      <trkpt lat="43.81262" lon="7.25354">
        <ele>656</ele>
        <time>2018-04-26T12:35:39.000Z</time>
      </trkpt>
      <trkpt lat="43.8126" lon="7.25351">
        <ele>656</ele>
        <time>2018-04-26T12:35:44.000Z</time>
      </trkpt>
      <trkpt lat="43.81259" lon="7.25351">
        <ele>656</ele>
        <time>2018-04-26T12:35:45.000Z</time>
      </trkpt>
      <trkpt lat="43.81256" lon="7.25348">
        <ele>657</ele>
        <time>2018-04-26T12:35:51.000Z</time>
      </trkpt>
      <trkpt lat="43.81255" lon="7.25347">
        <ele>657</ele>
        <time>2018-04-26T12:35:53.000Z</time>
      </trkpt>
      <trkpt lat="43.81253" lon="7.25345">
        <ele>658</ele>
        <time>2018-04-26T12:35:56.000Z</time>
      </trkpt>
      <trkpt lat="43.8125" lon="7.25345">
        <ele>661</ele>
        <time>2018-04-26T12:36:01.000Z</time>
      </trkpt>
      <trkpt lat="43.81248" lon="7.25346">
        <ele>661</ele>
        <time>2018-04-26T12:36:03.000Z</time>
      </trkpt>
      <trkpt lat="43.81244" lon="7.25347">
        <ele>661</ele>
        <time>2018-04-26T12:36:08.000Z</time>
      </trkpt>
      <trkpt lat="43.81241" lon="7.25347">
        <ele>661</ele>
        <time>2018-04-26T12:36:12.000Z</time>
      </trkpt>
      <trkpt lat="43.8124" lon="7.25347">
        <ele>661</ele>
        <time>2018-04-26T12:36:14.000Z</time>
      </trkpt>
      <trkpt lat="43.81235" lon="7.25346">
        <ele>661</ele>
        <time>2018-04-26T12:36:20.000Z</time>
      </trkpt>
      <trkpt lat="43.81234" lon="7.25345">
        <ele>661</ele>
        <time>2018-04-26T12:36:21.000Z</time>
      </trkpt>
      <trkpt lat="43.81231" lon="7.25345">
        <ele>662</ele>
        <time>2018-04-26T12:36:25.000Z</time>
      </trkpt>
      <trkpt lat="43.81228" lon="7.25344">
        <ele>662</ele>
        <time>2018-04-26T12:36:28.000Z</time>
      </trkpt>
      <trkpt lat="43.81225" lon="7.25342">
        <ele>662</ele>
        <time>2018-04-26T12:36:32.000Z</time>
      </trkpt>
      <trkpt lat="43.81222" lon="7.2534">
        <ele>662</ele>
        <time>2018-04-26T12:36:37.000Z</time>
      </trkpt>
      <trkpt lat="43.81221" lon="7.2534">
        <ele>662</ele>
        <time>2018-04-26T12:36:38.000Z</time>
      </trkpt>
      <trkpt lat="43.81217" lon="7.25338">
        <ele>663</ele>
        <time>2018-04-26T12:36:44.000Z</time>
      </trkpt>
      <trkpt lat="43.81217" lon="7.25338">
        <ele>663</ele>
        <time>2018-04-26T12:36:45.000Z</time>
      </trkpt>
      <trkpt lat="43.81215" lon="7.25337">
        <ele>663</ele>
        <time>2018-04-26T12:36:46.000Z</time>
      </trkpt>
      <trkpt lat="43.81212" lon="7.25335">
        <ele>664</ele>
        <time>2018-04-26T12:36:49.000Z</time>
      </trkpt>
      <trkpt lat="43.81202" lon="7.25331">
        <ele>664</ele>
        <time>2018-04-26T12:36:55.000Z</time>
      </trkpt>
      <trkpt lat="43.81193" lon="7.25328">
        <ele>666</ele>
        <time>2018-04-26T12:37:00.000Z</time>
      </trkpt>
      <trkpt lat="43.81189" lon="7.25327">
        <ele>667</ele>
        <time>2018-04-26T12:37:02.000Z</time>
      </trkpt>
      <trkpt lat="43.81178" lon="7.25321">
        <ele>669</ele>
        <time>2018-04-26T12:37:08.000Z</time>
      </trkpt>
      <trkpt lat="43.81172" lon="7.25318">
        <ele>669</ele>
        <time>2018-04-26T12:37:11.000Z</time>
      </trkpt>
      <trkpt lat="43.81165" lon="7.25313">
        <ele>677</ele>
        <time>2018-04-26T12:37:15.000Z</time>
      </trkpt>
      <trkpt lat="43.8116" lon="7.25309">
        <ele>677</ele>
        <time>2018-04-26T12:37:18.000Z</time>
      </trkpt>
      <trkpt lat="43.81154" lon="7.25304">
        <ele>677</ele>
        <time>2018-04-26T12:37:22.000Z</time>
      </trkpt>
      <trkpt lat="43.8115" lon="7.253">
        <ele>677</ele>
        <time>2018-04-26T12:37:25.000Z</time>
      </trkpt>
      <trkpt lat="43.81149" lon="7.25299">
        <ele>677</ele>
        <time>2018-04-26T12:37:26.000Z</time>
      </trkpt>
      <trkpt lat="43.81143" lon="7.25294">
        <ele>677</ele>
        <time>2018-04-26T12:37:31.000Z</time>
      </trkpt>
      <trkpt lat="43.81142" lon="7.25292">
        <ele>678</ele>
        <time>2018-04-26T12:37:32.000Z</time>
      </trkpt>
      <trkpt lat="43.81136" lon="7.25289">
        <ele>678</ele>
        <time>2018-04-26T12:37:36.000Z</time>
      </trkpt>
      <trkpt lat="43.81135" lon="7.25289">
        <ele>678</ele>
        <time>2018-04-26T12:37:37.000Z</time>
      </trkpt>
      <trkpt lat="43.8113" lon="7.25288">
        <ele>678</ele>
        <time>2018-04-26T12:37:41.000Z</time>
      </trkpt>
      <trkpt lat="43.81128" lon="7.25288">
        <ele>679</ele>
        <time>2018-04-26T12:37:43.000Z</time>
      </trkpt>
      <trkpt lat="43.81126" lon="7.25287">
        <ele>679</ele>
        <time>2018-04-26T12:37:45.000Z</time>
      </trkpt>
      <trkpt lat="43.8112" lon="7.25285">
        <ele>680</ele>
        <time>2018-04-26T12:37:50.000Z</time>
      </trkpt>
      <trkpt lat="43.81118" lon="7.25284">
        <ele>680</ele>
        <time>2018-04-26T12:37:52.000Z</time>
      </trkpt>
      <trkpt lat="43.81113" lon="7.25282">
        <ele>681</ele>
        <time>2018-04-26T12:37:56.000Z</time>
      </trkpt>
      <trkpt lat="43.81109" lon="7.25278">
        <ele>682</ele>
        <time>2018-04-26T12:38:00.000Z</time>
      </trkpt>
      <trkpt lat="43.81107" lon="7.25274">
        <ele>682</ele>
        <time>2018-04-26T12:38:03.000Z</time>
      </trkpt>
      <trkpt lat="43.81102" lon="7.25268">
        <ele>684</ele>
        <time>2018-04-26T12:38:09.000Z</time>
      </trkpt>
      <trkpt lat="43.81101" lon="7.25266">
        <ele>685</ele>
        <time>2018-04-26T12:38:10.000Z</time>
      </trkpt>
      <trkpt lat="43.81097" lon="7.25259">
        <ele>687</ele>
        <time>2018-04-26T12:38:16.000Z</time>
      </trkpt>
      <trkpt lat="43.81096" lon="7.25258">
        <ele>688</ele>
        <time>2018-04-26T12:38:17.000Z</time>
      </trkpt>
      <trkpt lat="43.81095" lon="7.25254">
        <ele>689</ele>
        <time>2018-04-26T12:38:20.000Z</time>
      </trkpt>
      <trkpt lat="43.81094" lon="7.25254">
        <ele>689</ele>
        <time>2018-04-26T12:38:21.000Z</time>
      </trkpt>
      <trkpt lat="43.81092" lon="7.25255">
        <ele>690</ele>
        <time>2018-04-26T12:38:23.000Z</time>
      </trkpt>
      <trkpt lat="43.81091" lon="7.25255">
        <ele>690</ele>
        <time>2018-04-26T12:38:24.000Z</time>
      </trkpt>
      <trkpt lat="43.8109" lon="7.25255">
        <ele>691</ele>
        <time>2018-04-26T12:38:27.000Z</time>
      </trkpt>
      <trkpt lat="43.81089" lon="7.25255">
        <ele>691</ele>
        <time>2018-04-26T12:38:35.000Z</time>
      </trkpt>
      <trkpt lat="43.81085" lon="7.25255">
        <ele>692</ele>
        <time>2018-04-26T12:38:39.000Z</time>
      </trkpt>
      <trkpt lat="43.81082" lon="7.25252">
        <ele>695</ele>
        <time>2018-04-26T12:38:44.000Z</time>
      </trkpt>
      <trkpt lat="43.81081" lon="7.25252">
        <ele>694</ele>
        <time>2018-04-26T12:38:45.000Z</time>
      </trkpt>
      <trkpt lat="43.81075" lon="7.25249">
        <ele>696</ele>
        <time>2018-04-26T12:38:51.000Z</time>
      </trkpt>
      <trkpt lat="43.8107" lon="7.25247">
        <ele>696</ele>
        <time>2018-04-26T12:38:56.000Z</time>
      </trkpt>
      <trkpt lat="43.81067" lon="7.25245">
        <ele>696</ele>
        <time>2018-04-26T12:38:58.000Z</time>
      </trkpt>
      <trkpt lat="43.81064" lon="7.25241">
        <ele>696</ele>
        <time>2018-04-26T12:39:02.000Z</time>
      </trkpt>
      <trkpt lat="43.8106" lon="7.25237">
        <ele>696</ele>
        <time>2018-04-26T12:39:06.000Z</time>
      </trkpt>
      <trkpt lat="43.81059" lon="7.25236">
        <ele>696</ele>
        <time>2018-04-26T12:39:07.000Z</time>
      </trkpt>
      <trkpt lat="43.81054" lon="7.25229">
        <ele>696</ele>
        <time>2018-04-26T12:39:12.000Z</time>
      </trkpt>
      <trkpt lat="43.81052" lon="7.25227">
        <ele>696</ele>
        <time>2018-04-26T12:39:14.000Z</time>
      </trkpt>
      <trkpt lat="43.81045" lon="7.25218">
        <ele>696</ele>
        <time>2018-04-26T12:39:20.000Z</time>
      </trkpt>
      <trkpt lat="43.81044" lon="7.25214">
        <ele>697</ele>
        <time>2018-04-26T12:39:22.000Z</time>
      </trkpt>
      <trkpt lat="43.81033" lon="7.25197">
        <ele>698</ele>
        <time>2018-04-26T12:39:30.000Z</time>
      </trkpt>
      <trkpt lat="43.81031" lon="7.25193">
        <ele>699</ele>
        <time>2018-04-26T12:39:32.000Z</time>
      </trkpt>
      <trkpt lat="43.81023" lon="7.25184">
        <ele>701</ele>
        <time>2018-04-26T12:39:37.000Z</time>
      </trkpt>
      <trkpt lat="43.81015" lon="7.25174">
        <ele>703</ele>
        <time>2018-04-26T12:39:42.000Z</time>
      </trkpt>
      <trkpt lat="43.81013" lon="7.25172">
        <ele>704</ele>
        <time>2018-04-26T12:39:43.000Z</time>
      </trkpt>
      <trkpt lat="43.80997" lon="7.25151">
        <ele>712</ele>
        <time>2018-04-26T12:39:51.000Z</time>
      </trkpt>
      <trkpt lat="43.80988" lon="7.25136">
        <ele>714</ele>
        <time>2018-04-26T12:39:57.000Z</time>
      </trkpt>
      <trkpt lat="43.80983" lon="7.25129">
        <ele>715</ele>
        <time>2018-04-26T12:40:01.000Z</time>
      </trkpt>
      <trkpt lat="43.80978" lon="7.25123">
        <ele>716</ele>
        <time>2018-04-26T12:40:05.000Z</time>
      </trkpt>
      <trkpt lat="43.80974" lon="7.25119">
        <ele>717</ele>
        <time>2018-04-26T12:40:08.000Z</time>
      </trkpt>
      <trkpt lat="43.8097" lon="7.25115">
        <ele>717</ele>
        <time>2018-04-26T12:40:12.000Z</time>
      </trkpt>
      <trkpt lat="43.80969" lon="7.25114">
        <ele>717</ele>
        <time>2018-04-26T12:40:13.000Z</time>
      </trkpt>
      <trkpt lat="43.80963" lon="7.25108">
        <ele>718</ele>
        <time>2018-04-26T12:40:18.000Z</time>
      </trkpt>
      <trkpt lat="43.8096" lon="7.25106">
        <ele>718</ele>
        <time>2018-04-26T12:40:22.000Z</time>
      </trkpt>
      <trkpt lat="43.80959" lon="7.25106">
        <ele>718</ele>
        <time>2018-04-26T12:40:24.000Z</time>
      </trkpt>
      <trkpt lat="43.80958" lon="7.25104">
        <ele>718</ele>
        <time>2018-04-26T12:40:25.000Z</time>
      </trkpt>
      <trkpt lat="43.80956" lon="7.25101">
        <ele>718</ele>
        <time>2018-04-26T12:40:28.000Z</time>
      </trkpt>
      <trkpt lat="43.80954" lon="7.251">
        <ele>719</ele>
        <time>2018-04-26T12:40:30.000Z</time>
      </trkpt>
      <trkpt lat="43.80953" lon="7.251">
        <ele>719</ele>
        <time>2018-04-26T12:40:31.000Z</time>
      </trkpt>
      <trkpt lat="43.80948" lon="7.25096">
        <ele>719</ele>
        <time>2018-04-26T12:40:35.000Z</time>
      </trkpt>
      <trkpt lat="43.80945" lon="7.25094">
        <ele>720</ele>
        <time>2018-04-26T12:40:38.000Z</time>
      </trkpt>
      <trkpt lat="43.80939" lon="7.25089">
        <ele>721</ele>
        <time>2018-04-26T12:40:43.000Z</time>
      </trkpt>
      <trkpt lat="43.80938" lon="7.25088">
        <ele>721</ele>
        <time>2018-04-26T12:40:44.000Z</time>
      </trkpt>
      <trkpt lat="43.80932" lon="7.25084">
        <ele>723</ele>
        <time>2018-04-26T12:40:49.000Z</time>
      </trkpt>
      <trkpt lat="43.80931" lon="7.25083">
        <ele>723</ele>
        <time>2018-04-26T12:40:50.000Z</time>
      </trkpt>
      <trkpt lat="43.80917" lon="7.25078">
        <ele>731</ele>
        <time>2018-04-26T12:40:58.000Z</time>
      </trkpt>
      <trkpt lat="43.80914" lon="7.25077">
        <ele>734</ele>
        <time>2018-04-26T12:41:00.000Z</time>
      </trkpt>
      <trkpt lat="43.80903" lon="7.25072">
        <ele>739</ele>
        <time>2018-04-26T12:41:05.000Z</time>
      </trkpt>
      <trkpt lat="43.80894" lon="7.2507">
        <ele>742</ele>
        <time>2018-04-26T12:41:10.000Z</time>
      </trkpt>
      <trkpt lat="43.8089" lon="7.2507">
        <ele>743</ele>
        <time>2018-04-26T12:41:12.000Z</time>
      </trkpt>
      <trkpt lat="43.80874" lon="7.25067">
        <ele>745</ele>
        <time>2018-04-26T12:41:19.000Z</time>
      </trkpt>
      <trkpt lat="43.80868" lon="7.25063">
        <ele>745</ele>
        <time>2018-04-26T12:41:22.000Z</time>
      </trkpt>
      <trkpt lat="43.80864" lon="7.25061">
        <ele>746</ele>
        <time>2018-04-26T12:41:24.000Z</time>
      </trkpt>
      <trkpt lat="43.80851" lon="7.25051">
        <ele>748</ele>
        <time>2018-04-26T12:41:30.000Z</time>
      </trkpt>
      <trkpt lat="43.8085" lon="7.25048">
        <ele>748</ele>
        <time>2018-04-26T12:41:32.000Z</time>
      </trkpt>
      <trkpt lat="43.80848" lon="7.25046">
        <ele>749</ele>
        <time>2018-04-26T12:41:34.000Z</time>
      </trkpt>
      <trkpt lat="43.80847" lon="7.25045">
        <ele>749</ele>
        <time>2018-04-26T12:41:35.000Z</time>
      </trkpt>
      <trkpt lat="43.80845" lon="7.25044">
        <ele>749</ele>
        <time>2018-04-26T12:41:36.000Z</time>
      </trkpt>
      <trkpt lat="43.8084" lon="7.25041">
        <ele>750</ele>
        <time>2018-04-26T12:41:40.000Z</time>
      </trkpt>
      <trkpt lat="43.80838" lon="7.25043">
        <ele>750</ele>
        <time>2018-04-26T12:41:41.000Z</time>
      </trkpt>
      <trkpt lat="43.80836" lon="7.2505">
        <ele>748</ele>
        <time>2018-04-26T12:41:45.000Z</time>
      </trkpt>
      <trkpt lat="43.80835" lon="7.25053">
        <ele>747</ele>
        <time>2018-04-26T12:41:47.000Z</time>
      </trkpt>
      <trkpt lat="43.80834" lon="7.25057">
        <ele>746</ele>
        <time>2018-04-26T12:41:49.000Z</time>
      </trkpt>
      <trkpt lat="43.8083" lon="7.25064">
        <ele>747</ele>
        <time>2018-04-26T12:41:53.000Z</time>
      </trkpt>
      <trkpt lat="43.80829" lon="7.25065">
        <ele>747</ele>
        <time>2018-04-26T12:41:54.000Z</time>
      </trkpt>
      <trkpt lat="43.80821" lon="7.25072">
        <ele>746</ele>
        <time>2018-04-26T12:42:00.000Z</time>
      </trkpt>
      <trkpt lat="43.80819" lon="7.25076">
        <ele>745</ele>
        <time>2018-04-26T12:42:02.000Z</time>
      </trkpt>
      <trkpt lat="43.80811" lon="7.25085">
        <ele>733</ele>
        <time>2018-04-26T12:42:07.000Z</time>
      </trkpt>
      <trkpt lat="43.80806" lon="7.2509">
        <ele>733</ele>
        <time>2018-04-26T12:42:10.000Z</time>
      </trkpt>
      <trkpt lat="43.80797" lon="7.25097">
        <ele>733</ele>
        <time>2018-04-26T12:42:15.000Z</time>
      </trkpt>
      <trkpt lat="43.80789" lon="7.25102">
        <ele>733</ele>
        <time>2018-04-26T12:42:19.000Z</time>
      </trkpt>
      <trkpt lat="43.80782" lon="7.25105">
        <ele>733</ele>
        <time>2018-04-26T12:42:23.000Z</time>
      </trkpt>
      <trkpt lat="43.80766" lon="7.25114">
        <ele>733</ele>
        <time>2018-04-26T12:42:28.000Z</time>
      </trkpt>
      <trkpt lat="43.80752" lon="7.25113">
        <ele>734</ele>
        <time>2018-04-26T12:42:31.000Z</time>
      </trkpt>
      <trkpt lat="43.80746" lon="7.25112">
        <ele>735</ele>
        <time>2018-04-26T12:42:32.000Z</time>
      </trkpt>
      <trkpt lat="43.80739" lon="7.2511">
        <ele>735</ele>
        <time>2018-04-26T12:42:33.000Z</time>
      </trkpt>
      <trkpt lat="43.80726" lon="7.25106">
        <ele>735</ele>
        <time>2018-04-26T12:42:35.000Z</time>
      </trkpt>
      <trkpt lat="43.80719" lon="7.25104">
        <ele>735</ele>
        <time>2018-04-26T12:42:36.000Z</time>
      </trkpt>
      <trkpt lat="43.80711" lon="7.25103">
        <ele>734</ele>
        <time>2018-04-26T12:42:37.000Z</time>
      </trkpt>
      <trkpt lat="43.80704" lon="7.25101">
        <ele>734</ele>
        <time>2018-04-26T12:42:38.000Z</time>
      </trkpt>
      <trkpt lat="43.80699" lon="7.25098">
        <ele>735</ele>
        <time>2018-04-26T12:42:39.000Z</time>
      </trkpt>
      <trkpt lat="43.80695" lon="7.25096">
        <ele>735</ele>
        <time>2018-04-26T12:42:40.000Z</time>
      </trkpt>
      <trkpt lat="43.80693" lon="7.25098">
        <ele>735</ele>
        <time>2018-04-26T12:42:41.000Z</time>
      </trkpt>
      <trkpt lat="43.80688" lon="7.251">
        <ele>735</ele>
        <time>2018-04-26T12:42:42.000Z</time>
      </trkpt>
      <trkpt lat="43.80683" lon="7.251">
        <ele>735</ele>
        <time>2018-04-26T12:42:43.000Z</time>
      </trkpt>
      <trkpt lat="43.80672" lon="7.25101">
        <ele>736</ele>
        <time>2018-04-26T12:42:45.000Z</time>
      </trkpt>
      <trkpt lat="43.80662" lon="7.251">
        <ele>736</ele>
        <time>2018-04-26T12:42:47.000Z</time>
      </trkpt>
      <trkpt lat="43.80655" lon="7.25101">
        <ele>735</ele>
        <time>2018-04-26T12:42:49.000Z</time>
      </trkpt>
      <trkpt lat="43.8065" lon="7.25103">
        <ele>734</ele>
        <time>2018-04-26T12:42:51.000Z</time>
      </trkpt>
      <trkpt lat="43.80646" lon="7.25104">
        <ele>733</ele>
        <time>2018-04-26T12:42:53.000Z</time>
      </trkpt>
      <trkpt lat="43.80643" lon="7.25105">
        <ele>733</ele>
        <time>2018-04-26T12:42:54.000Z</time>
      </trkpt>
      <trkpt lat="43.80637" lon="7.25108">
        <ele>732</ele>
        <time>2018-04-26T12:42:58.000Z</time>
      </trkpt>
      <trkpt lat="43.80632" lon="7.25111">
        <ele>732</ele>
        <time>2018-04-26T12:43:00.000Z</time>
      </trkpt>
      <trkpt lat="43.80621" lon="7.25114">
        <ele>731</ele>
        <time>2018-04-26T12:43:03.000Z</time>
      </trkpt>
      <trkpt lat="43.80596" lon="7.2512">
        <ele>731</ele>
        <time>2018-04-26T12:43:09.000Z</time>
      </trkpt>
      <trkpt lat="43.80592" lon="7.2512">
        <ele>731</ele>
        <time>2018-04-26T12:43:10.000Z</time>
      </trkpt>
      <trkpt lat="43.80568" lon="7.2512">
        <ele>733</ele>
        <time>2018-04-26T12:43:15.000Z</time>
      </trkpt>
      <trkpt lat="43.80558" lon="7.2512">
        <ele>733</ele>
        <time>2018-04-26T12:43:17.000Z</time>
      </trkpt>
      <trkpt lat="43.80551" lon="7.25121">
        <ele>733</ele>
        <time>2018-04-26T12:43:18.000Z</time>
      </trkpt>
      <trkpt lat="43.80545" lon="7.25122">
        <ele>733</ele>
        <time>2018-04-26T12:43:19.000Z</time>
      </trkpt>
      <trkpt lat="43.80533" lon="7.25122">
        <ele>734</ele>
        <time>2018-04-26T12:43:21.000Z</time>
      </trkpt>
      <trkpt lat="43.80526" lon="7.25123">
        <ele>734</ele>
        <time>2018-04-26T12:43:22.000Z</time>
      </trkpt>
      <trkpt lat="43.80521" lon="7.25126">
        <ele>733</ele>
        <time>2018-04-26T12:43:23.000Z</time>
      </trkpt>
      <trkpt lat="43.80512" lon="7.2513">
        <ele>732</ele>
        <time>2018-04-26T12:43:25.000Z</time>
      </trkpt>
      <trkpt lat="43.80508" lon="7.25131">
        <ele>732</ele>
        <time>2018-04-26T12:43:26.000Z</time>
      </trkpt>
      <trkpt lat="43.80504" lon="7.25132">
        <ele>732</ele>
        <time>2018-04-26T12:43:27.000Z</time>
      </trkpt>
      <trkpt lat="43.80496" lon="7.25133">
        <ele>735</ele>
        <time>2018-04-26T12:43:29.000Z</time>
      </trkpt>
      <trkpt lat="43.80484" lon="7.25137">
        <ele>734</ele>
        <time>2018-04-26T12:43:32.000Z</time>
      </trkpt>
      <trkpt lat="43.80464" lon="7.25145">
        <ele>735</ele>
        <time>2018-04-26T12:43:38.000Z</time>
      </trkpt>
      <trkpt lat="43.80442" lon="7.25153">
        <ele>734</ele>
        <time>2018-04-26T12:43:45.000Z</time>
      </trkpt>
      <trkpt lat="43.80421" lon="7.25158">
        <ele>730</ele>
        <time>2018-04-26T12:43:52.000Z</time>
      </trkpt>
      <trkpt lat="43.80411" lon="7.25162">
        <ele>729</ele>
        <time>2018-04-26T12:43:54.000Z</time>
      </trkpt>
      <trkpt lat="43.80399" lon="7.25166">
        <ele>732</ele>
        <time>2018-04-26T12:43:56.000Z</time>
      </trkpt>
      <trkpt lat="43.80386" lon="7.25167">
        <ele>713</ele>
        <time>2018-04-26T12:43:58.000Z</time>
      </trkpt>
      <trkpt lat="43.80375" lon="7.25169">
        <ele>712</ele>
        <time>2018-04-26T12:44:00.000Z</time>
      </trkpt>
      <trkpt lat="43.80369" lon="7.2517">
        <ele>711</ele>
        <time>2018-04-26T12:44:01.000Z</time>
      </trkpt>
      <trkpt lat="43.80354" lon="7.2517">
        <ele>712</ele>
        <time>2018-04-26T12:44:03.000Z</time>
      </trkpt>
      <trkpt lat="43.80345" lon="7.25169">
        <ele>714</ele>
        <time>2018-04-26T12:44:04.000Z</time>
      </trkpt>
      <trkpt lat="43.80337" lon="7.25168">
        <ele>716</ele>
        <time>2018-04-26T12:44:05.000Z</time>
      </trkpt>
      <trkpt lat="43.80328" lon="7.25167">
        <ele>713</ele>
        <time>2018-04-26T12:44:06.000Z</time>
      </trkpt>
      <trkpt lat="43.80319" lon="7.25165">
        <ele>720</ele>
        <time>2018-04-26T12:44:07.000Z</time>
      </trkpt>
      <trkpt lat="43.80311" lon="7.25162">
        <ele>720</ele>
        <time>2018-04-26T12:44:08.000Z</time>
      </trkpt>
      <trkpt lat="43.80304" lon="7.25158">
        <ele>720</ele>
        <time>2018-04-26T12:44:09.000Z</time>
      </trkpt>
      <trkpt lat="43.8029" lon="7.25151">
        <ele>719</ele>
        <time>2018-04-26T12:44:11.000Z</time>
      </trkpt>
      <trkpt lat="43.80271" lon="7.25136">
        <ele>718</ele>
        <time>2018-04-26T12:44:14.000Z</time>
      </trkpt>
      <trkpt lat="43.80268" lon="7.25129">
        <ele>719</ele>
        <time>2018-04-26T12:44:16.000Z</time>
      </trkpt>
      <trkpt lat="43.80264" lon="7.25123">
        <ele>720</ele>
        <time>2018-04-26T12:44:19.000Z</time>
      </trkpt>
      <trkpt lat="43.80259" lon="7.25119">
        <ele>721</ele>
        <time>2018-04-26T12:44:21.000Z</time>
      </trkpt>
      <trkpt lat="43.80252" lon="7.25112">
        <ele>722</ele>
        <time>2018-04-26T12:44:23.000Z</time>
      </trkpt>
      <trkpt lat="43.80244" lon="7.25104">
        <ele>708</ele>
        <time>2018-04-26T12:44:25.000Z</time>
      </trkpt>
      <trkpt lat="43.80235" lon="7.25095">
        <ele>709</ele>
        <time>2018-04-26T12:44:27.000Z</time>
      </trkpt>
      <trkpt lat="43.80225" lon="7.2508">
        <ele>718</ele>
        <time>2018-04-26T12:44:30.000Z</time>
      </trkpt>
      <trkpt lat="43.80218" lon="7.2507">
        <ele>717</ele>
        <time>2018-04-26T12:44:32.000Z</time>
      </trkpt>
      <trkpt lat="43.8021" lon="7.25049">
        <ele>716</ele>
        <time>2018-04-26T12:44:36.000Z</time>
      </trkpt>
      <trkpt lat="43.80202" lon="7.25027">
        <ele>717</ele>
        <time>2018-04-26T12:44:40.000Z</time>
      </trkpt>
      <trkpt lat="43.80198" lon="7.25021">
        <ele>716</ele>
        <time>2018-04-26T12:44:42.000Z</time>
      </trkpt>
      <trkpt lat="43.80186" lon="7.25007">
        <ele>713</ele>
        <time>2018-04-26T12:44:45.000Z</time>
      </trkpt>
      <trkpt lat="43.80181" lon="7.25002">
        <ele>711</ele>
        <time>2018-04-26T12:44:46.000Z</time>
      </trkpt>
      <trkpt lat="43.80176" lon="7.24996">
        <ele>716</ele>
        <time>2018-04-26T12:44:47.000Z</time>
      </trkpt>
      <trkpt lat="43.80171" lon="7.2499">
        <ele>717</ele>
        <time>2018-04-26T12:44:48.000Z</time>
      </trkpt>
      <trkpt lat="43.80167" lon="7.24985">
        <ele>719</ele>
        <time>2018-04-26T12:44:49.000Z</time>
      </trkpt>
      <trkpt lat="43.80164" lon="7.24982">
        <ele>705</ele>
        <time>2018-04-26T12:44:50.000Z</time>
      </trkpt>
      <trkpt lat="43.80161" lon="7.24982">
        <ele>704</ele>
        <time>2018-04-26T12:44:51.000Z</time>
      </trkpt>
      <trkpt lat="43.80157" lon="7.24982">
        <ele>704</ele>
        <time>2018-04-26T12:44:52.000Z</time>
      </trkpt>
      <trkpt lat="43.80154" lon="7.2498">
        <ele>704</ele>
        <time>2018-04-26T12:44:53.000Z</time>
      </trkpt>
      <trkpt lat="43.80146" lon="7.24981">
        <ele>703</ele>
        <time>2018-04-26T12:44:55.000Z</time>
      </trkpt>
      <trkpt lat="43.80143" lon="7.24982">
        <ele>702</ele>
        <time>2018-04-26T12:44:56.000Z</time>
      </trkpt>
      <trkpt lat="43.80138" lon="7.24981">
        <ele>702</ele>
        <time>2018-04-26T12:44:58.000Z</time>
      </trkpt>
      <trkpt lat="43.80135" lon="7.24979">
        <ele>701</ele>
        <time>2018-04-26T12:45:00.000Z</time>
      </trkpt>
      <trkpt lat="43.80124" lon="7.2497">
        <ele>700</ele>
        <time>2018-04-26T12:45:04.000Z</time>
      </trkpt>
      <trkpt lat="43.8012" lon="7.24962">
        <ele>700</ele>
        <time>2018-04-26T12:45:08.000Z</time>
      </trkpt>
      <trkpt lat="43.80113" lon="7.2495">
        <ele>700</ele>
        <time>2018-04-26T12:45:11.000Z</time>
      </trkpt>
      <trkpt lat="43.80103" lon="7.24929">
        <ele>699</ele>
        <time>2018-04-26T12:45:15.000Z</time>
      </trkpt>
      <trkpt lat="43.801" lon="7.24925">
        <ele>698</ele>
        <time>2018-04-26T12:45:16.000Z</time>
      </trkpt>
      <trkpt lat="43.80089" lon="7.24906">
        <ele>702</ele>
        <time>2018-04-26T12:45:20.000Z</time>
      </trkpt>
      <trkpt lat="43.80085" lon="7.24891">
        <ele>707</ele>
        <time>2018-04-26T12:45:23.000Z</time>
      </trkpt>
      <trkpt lat="43.80082" lon="7.24884">
        <ele>682</ele>
        <time>2018-04-26T12:45:24.000Z</time>
      </trkpt>
      <trkpt lat="43.80079" lon="7.24875">
        <ele>682</ele>
        <time>2018-04-26T12:45:25.000Z</time>
      </trkpt>
      <trkpt lat="43.80074" lon="7.24857">
        <ele>684</ele>
        <time>2018-04-26T12:45:27.000Z</time>
      </trkpt>
      <trkpt lat="43.80073" lon="7.24848">
        <ele>687</ele>
        <time>2018-04-26T12:45:28.000Z</time>
      </trkpt>
      <trkpt lat="43.80074" lon="7.24841">
        <ele>690</ele>
        <time>2018-04-26T12:45:29.000Z</time>
      </trkpt>
      <trkpt lat="43.80075" lon="7.24834">
        <ele>693</ele>
        <time>2018-04-26T12:45:30.000Z</time>
      </trkpt>
      <trkpt lat="43.80078" lon="7.2482">
        <ele>692</ele>
        <time>2018-04-26T12:45:32.000Z</time>
      </trkpt>
      <trkpt lat="43.80077" lon="7.24806">
        <ele>689</ele>
        <time>2018-04-26T12:45:34.000Z</time>
      </trkpt>
      <trkpt lat="43.80076" lon="7.24799">
        <ele>688</ele>
        <time>2018-04-26T12:45:35.000Z</time>
      </trkpt>
      <trkpt lat="43.80072" lon="7.24777">
        <ele>689</ele>
        <time>2018-04-26T12:45:38.000Z</time>
      </trkpt>
      <trkpt lat="43.8007" lon="7.24771">
        <ele>690</ele>
        <time>2018-04-26T12:45:39.000Z</time>
      </trkpt>
      <trkpt lat="43.8007" lon="7.24766">
        <ele>691</ele>
        <time>2018-04-26T12:45:40.000Z</time>
      </trkpt>
      <trkpt lat="43.8007" lon="7.24762">
        <ele>692</ele>
        <time>2018-04-26T12:45:41.000Z</time>
      </trkpt>
      <trkpt lat="43.8007" lon="7.2476">
        <ele>693</ele>
        <time>2018-04-26T12:45:42.000Z</time>
      </trkpt>
      <trkpt lat="43.80069" lon="7.24758">
        <ele>693</ele>
        <time>2018-04-26T12:45:43.000Z</time>
      </trkpt>
      <trkpt lat="43.80065" lon="7.24749">
        <ele>697</ele>
        <time>2018-04-26T12:45:45.000Z</time>
      </trkpt>
      <trkpt lat="43.80063" lon="7.24736">
        <ele>696</ele>
        <time>2018-04-26T12:45:47.000Z</time>
      </trkpt>
      <trkpt lat="43.80059" lon="7.24722">
        <ele>695</ele>
        <time>2018-04-26T12:45:49.000Z</time>
      </trkpt>
      <trkpt lat="43.80054" lon="7.24708">
        <ele>695</ele>
        <time>2018-04-26T12:45:51.000Z</time>
      </trkpt>
      <trkpt lat="43.80049" lon="7.24701">
        <ele>695</ele>
        <time>2018-04-26T12:45:52.000Z</time>
      </trkpt>
      <trkpt lat="43.80045" lon="7.24693">
        <ele>695</ele>
        <time>2018-04-26T12:45:53.000Z</time>
      </trkpt>
      <trkpt lat="43.80043" lon="7.24683">
        <ele>695</ele>
        <time>2018-04-26T12:45:54.000Z</time>
      </trkpt>
      <trkpt lat="43.80042" lon="7.24677">
        <ele>695</ele>
        <time>2018-04-26T12:45:55.000Z</time>
      </trkpt>
      <trkpt lat="43.80039" lon="7.24673">
        <ele>695</ele>
        <time>2018-04-26T12:45:56.000Z</time>
      </trkpt>
      <trkpt lat="43.80035" lon="7.24672">
        <ele>694</ele>
        <time>2018-04-26T12:45:57.000Z</time>
      </trkpt>
      <trkpt lat="43.80032" lon="7.24674">
        <ele>694</ele>
        <time>2018-04-26T12:45:58.000Z</time>
      </trkpt>
      <trkpt lat="43.80025" lon="7.24681">
        <ele>692</ele>
        <time>2018-04-26T12:46:01.000Z</time>
      </trkpt>
      <trkpt lat="43.80021" lon="7.24681">
        <ele>692</ele>
        <time>2018-04-26T12:46:04.000Z</time>
      </trkpt>
      <trkpt lat="43.8002" lon="7.2468">
        <ele>691</ele>
        <time>2018-04-26T12:46:05.000Z</time>
      </trkpt>
      <trkpt lat="43.80021" lon="7.2468">
        <ele>692</ele>
        <time>2018-04-26T12:46:10.000Z</time>
      </trkpt>
      <trkpt lat="43.80019" lon="7.2468">
        <ele>691</ele>
        <time>2018-04-26T12:46:20.000Z</time>
      </trkpt>
      <trkpt lat="43.80014" lon="7.24678">
        <ele>691</ele>
        <time>2018-04-26T12:46:27.000Z</time>
      </trkpt>
      <trkpt lat="43.80013" lon="7.24678">
        <ele>691</ele>
        <time>2018-04-26T12:46:28.000Z</time>
      </trkpt>
      <trkpt lat="43.80008" lon="7.24679">
        <ele>690</ele>
        <time>2018-04-26T12:46:34.000Z</time>
      </trkpt>
      <trkpt lat="43.80006" lon="7.2468">
        <ele>690</ele>
        <time>2018-04-26T12:46:36.000Z</time>
      </trkpt>
      <trkpt lat="43.80001" lon="7.24684">
        <ele>690</ele>
        <time>2018-04-26T12:46:43.000Z</time>
      </trkpt>
      <trkpt lat="43.79996" lon="7.24686">
        <ele>686</ele>
        <time>2018-04-26T12:46:50.000Z</time>
      </trkpt>
      <trkpt lat="43.79992" lon="7.24687">
        <ele>686</ele>
        <time>2018-04-26T12:46:56.000Z</time>
      </trkpt>
      <trkpt lat="43.79991" lon="7.24686">
        <ele>686</ele>
        <time>2018-04-26T12:47:00.000Z</time>
      </trkpt>
      <trkpt lat="43.79984" lon="7.24686">
        <ele>686</ele>
        <time>2018-04-26T12:47:05.000Z</time>
      </trkpt>
      <trkpt lat="43.79977" lon="7.24686">
        <ele>686</ele>
        <time>2018-04-26T12:47:09.000Z</time>
      </trkpt>
      <trkpt lat="43.79975" lon="7.24686">
        <ele>686</ele>
        <time>2018-04-26T12:47:10.000Z</time>
      </trkpt>
      <trkpt lat="43.79971" lon="7.24686">
        <ele>686</ele>
        <time>2018-04-26T12:47:12.000Z</time>
      </trkpt>
      <trkpt lat="43.79965" lon="7.24688">
        <ele>686</ele>
        <time>2018-04-26T12:47:16.000Z</time>
      </trkpt>
      <trkpt lat="43.79963" lon="7.24689">
        <ele>686</ele>
        <time>2018-04-26T12:47:17.000Z</time>
      </trkpt>
      <trkpt lat="43.79956" lon="7.2469">
        <ele>687</ele>
        <time>2018-04-26T12:47:21.000Z</time>
      </trkpt>
      <trkpt lat="43.79948" lon="7.24694">
        <ele>687</ele>
        <time>2018-04-26T12:47:26.000Z</time>
      </trkpt>
      <trkpt lat="43.79946" lon="7.24695">
        <ele>687</ele>
        <time>2018-04-26T12:47:27.000Z</time>
      </trkpt>
      <trkpt lat="43.79939" lon="7.24697">
        <ele>688</ele>
        <time>2018-04-26T12:47:32.000Z</time>
      </trkpt>
      <trkpt lat="43.79938" lon="7.24697">
        <ele>688</ele>
        <time>2018-04-26T12:47:33.000Z</time>
      </trkpt>
      <trkpt lat="43.79934" lon="7.24697">
        <ele>688</ele>
        <time>2018-04-26T12:47:36.000Z</time>
      </trkpt>
      <trkpt lat="43.79935" lon="7.24697">
        <ele>688</ele>
        <time>2018-04-26T12:47:38.000Z</time>
      </trkpt>
      <trkpt lat="43.79934" lon="7.24697">
        <ele>688</ele>
        <time>2018-04-26T12:47:45.000Z</time>
      </trkpt>
      <trkpt lat="43.79933" lon="7.24698">
        <ele>688</ele>
        <time>2018-04-26T12:47:55.000Z</time>
      </trkpt>
      <trkpt lat="43.79932" lon="7.24699">
        <ele>688</ele>
        <time>2018-04-26T12:48:01.000Z</time>
      </trkpt>
      <trkpt lat="43.79924" lon="7.24701">
        <ele>688</ele>
        <time>2018-04-26T12:48:07.000Z</time>
      </trkpt>
      <trkpt lat="43.79923" lon="7.24701">
        <ele>688</ele>
        <time>2018-04-26T12:48:09.000Z</time>
      </trkpt>
      <trkpt lat="43.79921" lon="7.24701">
        <ele>688</ele>
        <time>2018-04-26T12:48:11.000Z</time>
      </trkpt>
      <trkpt lat="43.79919" lon="7.24702">
        <ele>688</ele>
        <time>2018-04-26T12:48:17.000Z</time>
      </trkpt>
      <trkpt lat="43.79916" lon="7.24704">
        <ele>699</ele>
        <time>2018-04-26T12:48:20.000Z</time>
      </trkpt>
      <trkpt lat="43.79912" lon="7.24704">
        <ele>699</ele>
        <time>2018-04-26T12:48:22.000Z</time>
      </trkpt>
      <trkpt lat="43.79904" lon="7.24707">
        <ele>699</ele>
        <time>2018-04-26T12:48:27.000Z</time>
      </trkpt>
      <trkpt lat="43.79901" lon="7.24708">
        <ele>699</ele>
        <time>2018-04-26T12:48:29.000Z</time>
      </trkpt>
      <trkpt lat="43.79899" lon="7.24709">
        <ele>699</ele>
        <time>2018-04-26T12:48:30.000Z</time>
      </trkpt>
      <trkpt lat="43.79895" lon="7.2471">
        <ele>699</ele>
        <time>2018-04-26T12:48:33.000Z</time>
      </trkpt>
      <trkpt lat="43.79892" lon="7.24711">
        <ele>699</ele>
        <time>2018-04-26T12:48:37.000Z</time>
      </trkpt>
      <trkpt lat="43.79892" lon="7.24711">
        <ele>699</ele>
        <time>2018-04-26T12:48:38.000Z</time>
      </trkpt>
      <trkpt lat="43.79892" lon="7.24711">
        <ele>699</ele>
        <time>2018-04-26T12:48:46.000Z</time>
      </trkpt>
      <trkpt lat="43.79886" lon="7.24713">
        <ele>700</ele>
        <time>2018-04-26T12:48:52.000Z</time>
      </trkpt>
      <trkpt lat="43.79883" lon="7.24713">
        <ele>700</ele>
        <time>2018-04-26T12:48:54.000Z</time>
      </trkpt>
      <trkpt lat="43.79875" lon="7.24715">
        <ele>701</ele>
        <time>2018-04-26T12:49:00.000Z</time>
      </trkpt>
      <trkpt lat="43.7987" lon="7.24718">
        <ele>701</ele>
        <time>2018-04-26T12:49:05.000Z</time>
      </trkpt>
      <trkpt lat="43.79866" lon="7.24719">
        <ele>701</ele>
        <time>2018-04-26T12:49:08.000Z</time>
      </trkpt>
      <trkpt lat="43.79865" lon="7.2472">
        <ele>701</ele>
        <time>2018-04-26T12:49:09.000Z</time>
      </trkpt>
      <trkpt lat="43.79863" lon="7.24722">
        <ele>701</ele>
        <time>2018-04-26T12:49:11.000Z</time>
      </trkpt>
      <trkpt lat="43.79861" lon="7.24723">
        <ele>701</ele>
        <time>2018-04-26T12:49:13.000Z</time>
      </trkpt>
      <trkpt lat="43.79857" lon="7.24727">
        <ele>701</ele>
        <time>2018-04-26T12:49:16.000Z</time>
      </trkpt>
      <trkpt lat="43.79847" lon="7.2473">
        <ele>702</ele>
        <time>2018-04-26T12:49:22.000Z</time>
      </trkpt>
      <trkpt lat="43.79839" lon="7.24737">
        <ele>702</ele>
        <time>2018-04-26T12:49:28.000Z</time>
      </trkpt>
      <trkpt lat="43.79834" lon="7.24742">
        <ele>701</ele>
        <time>2018-04-26T12:49:33.000Z</time>
      </trkpt>
      <trkpt lat="43.79828" lon="7.24746">
        <ele>706</ele>
        <time>2018-04-26T12:49:37.000Z</time>
      </trkpt>
      <trkpt lat="43.79824" lon="7.2475">
        <ele>699</ele>
        <time>2018-04-26T12:49:41.000Z</time>
      </trkpt>
      <trkpt lat="43.79822" lon="7.24753">
        <ele>699</ele>
        <time>2018-04-26T12:49:43.000Z</time>
      </trkpt>
      <trkpt lat="43.79822" lon="7.24753">
        <ele>699</ele>
        <time>2018-04-26T12:49:47.000Z</time>
      </trkpt>
      <trkpt lat="43.79818" lon="7.24755">
        <ele>698</ele>
        <time>2018-04-26T12:49:53.000Z</time>
      </trkpt>
      <trkpt lat="43.79816" lon="7.24756">
        <ele>698</ele>
        <time>2018-04-26T12:49:56.000Z</time>
      </trkpt>
      <trkpt lat="43.79812" lon="7.24756">
        <ele>698</ele>
        <time>2018-04-26T12:50:02.000Z</time>
      </trkpt>
      <trkpt lat="43.79811" lon="7.24757">
        <ele>698</ele>
        <time>2018-04-26T12:50:04.000Z</time>
      </trkpt>
      <trkpt lat="43.79808" lon="7.24759">
        <ele>698</ele>
        <time>2018-04-26T12:50:09.000Z</time>
      </trkpt>
      <trkpt lat="43.79798" lon="7.24766">
        <ele>697</ele>
        <time>2018-04-26T12:50:15.000Z</time>
      </trkpt>
      <trkpt lat="43.79785" lon="7.24776">
        <ele>697</ele>
        <time>2018-04-26T12:50:22.000Z</time>
      </trkpt>
      <trkpt lat="43.79768" lon="7.24785">
        <ele>698</ele>
        <time>2018-04-26T12:50:29.000Z</time>
      </trkpt>
      <trkpt lat="43.79764" lon="7.24786">
        <ele>698</ele>
        <time>2018-04-26T12:50:30.000Z</time>
      </trkpt>
      <trkpt lat="43.79744" lon="7.24795">
        <ele>709</ele>
        <time>2018-04-26T12:50:34.000Z</time>
      </trkpt>
      <trkpt lat="43.79739" lon="7.24799">
        <ele>708</ele>
        <time>2018-04-26T12:50:35.000Z</time>
      </trkpt>
      <trkpt lat="43.79725" lon="7.24809">
        <ele>708</ele>
        <time>2018-04-26T12:50:37.000Z</time>
      </trkpt>
      <trkpt lat="43.79718" lon="7.24815">
        <ele>708</ele>
        <time>2018-04-26T12:50:38.000Z</time>
      </trkpt>
      <trkpt lat="43.79712" lon="7.24823">
        <ele>708</ele>
        <time>2018-04-26T12:50:39.000Z</time>
      </trkpt>
      <trkpt lat="43.79699" lon="7.24837">
        <ele>690</ele>
        <time>2018-04-26T12:50:41.000Z</time>
      </trkpt>
      <trkpt lat="43.79686" lon="7.24853">
        <ele>691</ele>
        <time>2018-04-26T12:50:43.000Z</time>
      </trkpt>
      <trkpt lat="43.79674" lon="7.24867">
        <ele>688</ele>
        <time>2018-04-26T12:50:45.000Z</time>
      </trkpt>
      <trkpt lat="43.7967" lon="7.24872">
        <ele>687</ele>
        <time>2018-04-26T12:50:46.000Z</time>
      </trkpt>
      <trkpt lat="43.79665" lon="7.24876">
        <ele>694</ele>
        <time>2018-04-26T12:50:47.000Z</time>
      </trkpt>
      <trkpt lat="43.7966" lon="7.2488">
        <ele>692</ele>
        <time>2018-04-26T12:50:48.000Z</time>
      </trkpt>
      <trkpt lat="43.79648" lon="7.24892">
        <ele>690</ele>
        <time>2018-04-26T12:50:50.000Z</time>
      </trkpt>
      <trkpt lat="43.79641" lon="7.24896">
        <ele>690</ele>
        <time>2018-04-26T12:50:51.000Z</time>
      </trkpt>
      <trkpt lat="43.79633" lon="7.24899">
        <ele>690</ele>
        <time>2018-04-26T12:50:52.000Z</time>
      </trkpt>
      <trkpt lat="43.79626" lon="7.24901">
        <ele>690</ele>
        <time>2018-04-26T12:50:53.000Z</time>
      </trkpt>
      <trkpt lat="43.79617" lon="7.24902">
        <ele>690</ele>
        <time>2018-04-26T12:50:54.000Z</time>
      </trkpt>
      <trkpt lat="43.79608" lon="7.24902">
        <ele>690</ele>
        <time>2018-04-26T12:50:55.000Z</time>
      </trkpt>
      <trkpt lat="43.79589" lon="7.24903">
        <ele>687</ele>
        <time>2018-04-26T12:50:57.000Z</time>
      </trkpt>
      <trkpt lat="43.79579" lon="7.24903">
        <ele>686</ele>
        <time>2018-04-26T12:50:58.000Z</time>
      </trkpt>
      <trkpt lat="43.7956" lon="7.24901">
        <ele>687</ele>
        <time>2018-04-26T12:51:00.000Z</time>
      </trkpt>
      <trkpt lat="43.79541" lon="7.249">
        <ele>687</ele>
        <time>2018-04-26T12:51:02.000Z</time>
      </trkpt>
      <trkpt lat="43.79532" lon="7.24899">
        <ele>686</ele>
        <time>2018-04-26T12:51:03.000Z</time>
      </trkpt>
      <trkpt lat="43.79506" lon="7.24895">
        <ele>683</ele>
        <time>2018-04-26T12:51:06.000Z</time>
      </trkpt>
      <trkpt lat="43.79481" lon="7.24886">
        <ele>677</ele>
        <time>2018-04-26T12:51:09.000Z</time>
      </trkpt>
      <trkpt lat="43.79457" lon="7.24877">
        <ele>677</ele>
        <time>2018-04-26T12:51:12.000Z</time>
      </trkpt>
      <trkpt lat="43.79442" lon="7.24869">
        <ele>677</ele>
        <time>2018-04-26T12:51:14.000Z</time>
      </trkpt>
      <trkpt lat="43.7942" lon="7.24857">
        <ele>679</ele>
        <time>2018-04-26T12:51:17.000Z</time>
      </trkpt>
      <trkpt lat="43.794" lon="7.24848">
        <ele>671</ele>
        <time>2018-04-26T12:51:20.000Z</time>
      </trkpt>
      <trkpt lat="43.79373" lon="7.24838">
        <ele>667</ele>
        <time>2018-04-26T12:51:25.000Z</time>
      </trkpt>
      <trkpt lat="43.79362" lon="7.24835">
        <ele>666</ele>
        <time>2018-04-26T12:51:28.000Z</time>
      </trkpt>
      <trkpt lat="43.7936" lon="7.24834">
        <ele>666</ele>
        <time>2018-04-26T12:51:29.000Z</time>
      </trkpt>
      <trkpt lat="43.79355" lon="7.24834">
        <ele>666</ele>
        <time>2018-04-26T12:51:31.000Z</time>
      </trkpt>
      <trkpt lat="43.79349" lon="7.24835">
        <ele>666</ele>
        <time>2018-04-26T12:51:33.000Z</time>
      </trkpt>
      <trkpt lat="43.79338" lon="7.24833">
        <ele>672</ele>
        <time>2018-04-26T12:51:36.000Z</time>
      </trkpt>
      <trkpt lat="43.79333" lon="7.24829">
        <ele>669</ele>
        <time>2018-04-26T12:51:37.000Z</time>
      </trkpt>
      <trkpt lat="43.79331" lon="7.24827">
        <ele>669</ele>
        <time>2018-04-26T12:51:38.000Z</time>
      </trkpt>
      <trkpt lat="43.79328" lon="7.24826">
        <ele>669</ele>
        <time>2018-04-26T12:51:39.000Z</time>
      </trkpt>
      <trkpt lat="43.79324" lon="7.24824">
        <ele>668</ele>
        <time>2018-04-26T12:51:40.000Z</time>
      </trkpt>
      <trkpt lat="43.79303" lon="7.2481">
        <ele>667</ele>
        <time>2018-04-26T12:51:45.000Z</time>
      </trkpt>
      <trkpt lat="43.793" lon="7.24805">
        <ele>667</ele>
        <time>2018-04-26T12:51:46.000Z</time>
      </trkpt>
      <trkpt lat="43.79297" lon="7.248">
        <ele>667</ele>
        <time>2018-04-26T12:51:47.000Z</time>
      </trkpt>
      <trkpt lat="43.79288" lon="7.24789">
        <ele>666</ele>
        <time>2018-04-26T12:51:51.000Z</time>
      </trkpt>
      <trkpt lat="43.79278" lon="7.24785">
        <ele>665</ele>
        <time>2018-04-26T12:51:55.000Z</time>
      </trkpt>
      <trkpt lat="43.79276" lon="7.24784">
        <ele>665</ele>
        <time>2018-04-26T12:51:56.000Z</time>
      </trkpt>
      <trkpt lat="43.79275" lon="7.24784">
        <ele>665</ele>
        <time>2018-04-26T12:51:57.000Z</time>
      </trkpt>
      <trkpt lat="43.79275" lon="7.24785">
        <ele>665</ele>
        <time>2018-04-26T12:51:59.000Z</time>
      </trkpt>
      <trkpt lat="43.79275" lon="7.24785">
        <ele>665</ele>
        <time>2018-04-26T12:52:07.000Z</time>
      </trkpt>
      <trkpt lat="43.79267" lon="7.24782">
        <ele>664</ele>
        <time>2018-04-26T12:52:13.000Z</time>
      </trkpt>
      <trkpt lat="43.79253" lon="7.2478">
        <ele>663</ele>
        <time>2018-04-26T12:52:16.000Z</time>
      </trkpt>
      <trkpt lat="43.79246" lon="7.24779">
        <ele>659</ele>
        <time>2018-04-26T12:52:17.000Z</time>
      </trkpt>
      <trkpt lat="43.79239" lon="7.24779">
        <ele>659</ele>
        <time>2018-04-26T12:52:18.000Z</time>
      </trkpt>
      <trkpt lat="43.79233" lon="7.24777">
        <ele>658</ele>
        <time>2018-04-26T12:52:19.000Z</time>
      </trkpt>
      <trkpt lat="43.79226" lon="7.24776">
        <ele>658</ele>
        <time>2018-04-26T12:52:20.000Z</time>
      </trkpt>
      <trkpt lat="43.79219" lon="7.24773">
        <ele>658</ele>
        <time>2018-04-26T12:52:21.000Z</time>
      </trkpt>
      <trkpt lat="43.79213" lon="7.2477">
        <ele>658</ele>
        <time>2018-04-26T12:52:22.000Z</time>
      </trkpt>
      <trkpt lat="43.79207" lon="7.24765">
        <ele>658</ele>
        <time>2018-04-26T12:52:23.000Z</time>
      </trkpt>
      <trkpt lat="43.79196" lon="7.24758">
        <ele>656</ele>
        <time>2018-04-26T12:52:25.000Z</time>
      </trkpt>
      <trkpt lat="43.79193" lon="7.24755">
        <ele>656</ele>
        <time>2018-04-26T12:52:26.000Z</time>
      </trkpt>
      <trkpt lat="43.79186" lon="7.2475">
        <ele>655</ele>
        <time>2018-04-26T12:52:28.000Z</time>
      </trkpt>
      <trkpt lat="43.79186" lon="7.2475">
        <ele>655</ele>
        <time>2018-04-26T12:52:30.000Z</time>
      </trkpt>
      <trkpt lat="43.79184" lon="7.24751">
        <ele>655</ele>
        <time>2018-04-26T12:52:31.000Z</time>
      </trkpt>
      <trkpt lat="43.79184" lon="7.2475">
        <ele>655</ele>
        <time>2018-04-26T12:52:37.000Z</time>
      </trkpt>
      <trkpt lat="43.79184" lon="7.2475">
        <ele>645</ele>
        <time>2018-04-26T12:52:41.000Z</time>
      </trkpt>
      <trkpt lat="43.79183" lon="7.2475">
        <ele>654</ele>
        <time>2018-04-26T12:52:49.000Z</time>
      </trkpt>
      <trkpt lat="43.79177" lon="7.24749">
        <ele>646</ele>
        <time>2018-04-26T12:52:53.000Z</time>
      </trkpt>
      <trkpt lat="43.79159" lon="7.24747">
        <ele>642</ele>
        <time>2018-04-26T12:53:00.000Z</time>
      </trkpt>
      <trkpt lat="43.79153" lon="7.24747">
        <ele>638</ele>
        <time>2018-04-26T12:53:02.000Z</time>
      </trkpt>
      <trkpt lat="43.79144" lon="7.24748">
        <ele>634</ele>
        <time>2018-04-26T12:53:05.000Z</time>
      </trkpt>
      <trkpt lat="43.79134" lon="7.2475">
        <ele>649</ele>
        <time>2018-04-26T12:53:09.000Z</time>
      </trkpt>
      <trkpt lat="43.7913" lon="7.24751">
        <ele>648</ele>
        <time>2018-04-26T12:53:11.000Z</time>
      </trkpt>
      <trkpt lat="43.79122" lon="7.24752">
        <ele>647</ele>
        <time>2018-04-26T12:53:13.000Z</time>
      </trkpt>
      <trkpt lat="43.79119" lon="7.24753">
        <ele>646</ele>
        <time>2018-04-26T12:53:14.000Z</time>
      </trkpt>
      <trkpt lat="43.79115" lon="7.24754">
        <ele>646</ele>
        <time>2018-04-26T12:53:15.000Z</time>
      </trkpt>
      <trkpt lat="43.79107" lon="7.24756">
        <ele>644</ele>
        <time>2018-04-26T12:53:17.000Z</time>
      </trkpt>
      <trkpt lat="43.791" lon="7.24759">
        <ele>642</ele>
        <time>2018-04-26T12:53:19.000Z</time>
      </trkpt>
      <trkpt lat="43.79097" lon="7.2476">
        <ele>641</ele>
        <time>2018-04-26T12:53:20.000Z</time>
      </trkpt>
      <trkpt lat="43.79093" lon="7.24762">
        <ele>641</ele>
        <time>2018-04-26T12:53:21.000Z</time>
      </trkpt>
      <trkpt lat="43.79085" lon="7.24764">
        <ele>640</ele>
        <time>2018-04-26T12:53:23.000Z</time>
      </trkpt>
      <trkpt lat="43.79082" lon="7.24765">
        <ele>633</ele>
        <time>2018-04-26T12:53:24.000Z</time>
      </trkpt>
      <trkpt lat="43.79078" lon="7.24766">
        <ele>633</ele>
        <time>2018-04-26T12:53:25.000Z</time>
      </trkpt>
      <trkpt lat="43.79071" lon="7.24765">
        <ele>632</ele>
        <time>2018-04-26T12:53:27.000Z</time>
      </trkpt>
      <trkpt lat="43.79064" lon="7.24764">
        <ele>632</ele>
        <time>2018-04-26T12:53:29.000Z</time>
      </trkpt>
      <trkpt lat="43.79057" lon="7.24766">
        <ele>632</ele>
        <time>2018-04-26T12:53:31.000Z</time>
      </trkpt>
      <trkpt lat="43.79049" lon="7.24767">
        <ele>631</ele>
        <time>2018-04-26T12:53:33.000Z</time>
      </trkpt>
      <trkpt lat="43.79045" lon="7.24767">
        <ele>630</ele>
        <time>2018-04-26T12:53:34.000Z</time>
      </trkpt>
      <trkpt lat="43.7904" lon="7.24768">
        <ele>630</ele>
        <time>2018-04-26T12:53:35.000Z</time>
      </trkpt>
      <trkpt lat="43.79035" lon="7.2477">
        <ele>629</ele>
        <time>2018-04-26T12:53:36.000Z</time>
      </trkpt>
      <trkpt lat="43.79026" lon="7.2477">
        <ele>627</ele>
        <time>2018-04-26T12:53:38.000Z</time>
      </trkpt>
      <trkpt lat="43.79021" lon="7.24772">
        <ele>627</ele>
        <time>2018-04-26T12:53:39.000Z</time>
      </trkpt>
      <trkpt lat="43.79013" lon="7.24776">
        <ele>626</ele>
        <time>2018-04-26T12:53:41.000Z</time>
      </trkpt>
      <trkpt lat="43.79005" lon="7.24778">
        <ele>626</ele>
        <time>2018-04-26T12:53:43.000Z</time>
      </trkpt>
      <trkpt lat="43.78997" lon="7.24782">
        <ele>615</ele>
        <time>2018-04-26T12:53:45.000Z</time>
      </trkpt>
      <trkpt lat="43.78995" lon="7.24783">
        <ele>615</ele>
        <time>2018-04-26T12:53:46.000Z</time>
      </trkpt>
      <trkpt lat="43.7899" lon="7.24784">
        <ele>615</ele>
        <time>2018-04-26T12:53:48.000Z</time>
      </trkpt>
      <trkpt lat="43.78984" lon="7.24782">
        <ele>614</ele>
        <time>2018-04-26T12:53:50.000Z</time>
      </trkpt>
      <trkpt lat="43.78976" lon="7.24785">
        <ele>614</ele>
        <time>2018-04-26T12:53:52.000Z</time>
      </trkpt>
      <trkpt lat="43.78971" lon="7.24788">
        <ele>614</ele>
        <time>2018-04-26T12:53:53.000Z</time>
      </trkpt>
      <trkpt lat="43.78965" lon="7.24791">
        <ele>614</ele>
        <time>2018-04-26T12:53:54.000Z</time>
      </trkpt>
      <trkpt lat="43.78954" lon="7.24799">
        <ele>613</ele>
        <time>2018-04-26T12:53:56.000Z</time>
      </trkpt>
      <trkpt lat="43.7895" lon="7.24805">
        <ele>614</ele>
        <time>2018-04-26T12:53:57.000Z</time>
      </trkpt>
      <trkpt lat="43.78947" lon="7.2481">
        <ele>614</ele>
        <time>2018-04-26T12:53:58.000Z</time>
      </trkpt>
      <trkpt lat="43.78942" lon="7.24821">
        <ele>614</ele>
        <time>2018-04-26T12:54:01.000Z</time>
      </trkpt>
      <trkpt lat="43.78937" lon="7.24829">
        <ele>613</ele>
        <time>2018-04-26T12:54:04.000Z</time>
      </trkpt>
      <trkpt lat="43.78932" lon="7.24839">
        <ele>617</ele>
        <time>2018-04-26T12:54:07.000Z</time>
      </trkpt>
      <trkpt lat="43.78931" lon="7.24842">
        <ele>617</ele>
        <time>2018-04-26T12:54:08.000Z</time>
      </trkpt>
      <trkpt lat="43.78923" lon="7.24862">
        <ele>619</ele>
        <time>2018-04-26T12:54:13.000Z</time>
      </trkpt>
      <trkpt lat="43.78914" lon="7.24891">
        <ele>609</ele>
        <time>2018-04-26T12:54:19.000Z</time>
      </trkpt>
      <trkpt lat="43.78914" lon="7.24897">
        <ele>609</ele>
        <time>2018-04-26T12:54:20.000Z</time>
      </trkpt>
      <trkpt lat="43.78917" lon="7.24912">
        <ele>617</ele>
        <time>2018-04-26T12:54:24.000Z</time>
      </trkpt>
      <trkpt lat="43.78922" lon="7.24915">
        <ele>617</ele>
        <time>2018-04-26T12:54:26.000Z</time>
      </trkpt>
      <trkpt lat="43.78926" lon="7.24915">
        <ele>618</ele>
        <time>2018-04-26T12:54:28.000Z</time>
      </trkpt>
      <trkpt lat="43.78929" lon="7.24914">
        <ele>619</ele>
        <time>2018-04-26T12:54:31.000Z</time>
      </trkpt>
      <trkpt lat="43.78933" lon="7.24912">
        <ele>619</ele>
        <time>2018-04-26T12:54:34.000Z</time>
      </trkpt>
      <trkpt lat="43.78934" lon="7.24913">
        <ele>620</ele>
        <time>2018-04-26T12:54:36.000Z</time>
      </trkpt>
      <trkpt lat="43.78939" lon="7.24912">
        <ele>620</ele>
        <time>2018-04-26T12:54:41.000Z</time>
      </trkpt>
      <trkpt lat="43.7894" lon="7.24912">
        <ele>621</ele>
        <time>2018-04-26T12:54:42.000Z</time>
      </trkpt>
      <trkpt lat="43.7894" lon="7.24912">
        <ele>621</ele>
        <time>2018-04-26T12:54:46.000Z</time>
      </trkpt>
      <trkpt lat="43.78936" lon="7.24911">
        <ele>620</ele>
        <time>2018-04-26T12:54:52.000Z</time>
      </trkpt>
      <trkpt lat="43.78933" lon="7.24913">
        <ele>619</ele>
        <time>2018-04-26T12:54:53.000Z</time>
      </trkpt>
      <trkpt lat="43.78921" lon="7.24915">
        <ele>617</ele>
        <time>2018-04-26T12:54:56.000Z</time>
      </trkpt>
      <trkpt lat="43.78916" lon="7.24912">
        <ele>614</ele>
        <time>2018-04-26T12:54:57.000Z</time>
      </trkpt>
      <trkpt lat="43.78913" lon="7.24907">
        <ele>612</ele>
        <time>2018-04-26T12:54:58.000Z</time>
      </trkpt>
      <trkpt lat="43.78913" lon="7.249">
        <ele>610</ele>
        <time>2018-04-26T12:54:59.000Z</time>
      </trkpt>
      <trkpt lat="43.78914" lon="7.24893">
        <ele>609</ele>
        <time>2018-04-26T12:55:00.000Z</time>
      </trkpt>
      <trkpt lat="43.78917" lon="7.24881">
        <ele>619</ele>
        <time>2018-04-26T12:55:02.000Z</time>
      </trkpt>
      <trkpt lat="43.78918" lon="7.24875">
        <ele>619</ele>
        <time>2018-04-26T12:55:03.000Z</time>
      </trkpt>
      <trkpt lat="43.7892" lon="7.24869">
        <ele>619</ele>
        <time>2018-04-26T12:55:04.000Z</time>
      </trkpt>
      <trkpt lat="43.7893" lon="7.24842">
        <ele>617</ele>
        <time>2018-04-26T12:55:08.000Z</time>
      </trkpt>
      <trkpt lat="43.78944" lon="7.24812">
        <ele>613</ele>
        <time>2018-04-26T12:55:12.000Z</time>
      </trkpt>
      <trkpt lat="43.78947" lon="7.24806">
        <ele>613</ele>
        <time>2018-04-26T12:55:13.000Z</time>
      </trkpt>
      <trkpt lat="43.7895" lon="7.24799">
        <ele>613</ele>
        <time>2018-04-26T12:55:15.000Z</time>
      </trkpt>
      <trkpt lat="43.7895" lon="7.24798">
        <ele>613</ele>
        <time>2018-04-26T12:55:16.000Z</time>
      </trkpt>
      <trkpt lat="43.78949" lon="7.24797">
        <ele>613</ele>
        <time>2018-04-26T12:55:17.000Z</time>
      </trkpt>
      <trkpt lat="43.78948" lon="7.24797">
        <ele>613</ele>
        <time>2018-04-26T12:55:20.000Z</time>
      </trkpt>
      <trkpt lat="43.78946" lon="7.24795">
        <ele>612</ele>
        <time>2018-04-26T12:55:31.000Z</time>
      </trkpt>
      <trkpt lat="43.78944" lon="7.24793">
        <ele>612</ele>
        <time>2018-04-26T12:55:34.000Z</time>
      </trkpt>
      <trkpt lat="43.78944" lon="7.24793">
        <ele>612</ele>
        <time>2018-04-26T12:55:35.000Z</time>
      </trkpt>
      <trkpt lat="43.78943" lon="7.24792">
        <ele>612</ele>
        <time>2018-04-26T12:55:36.000Z</time>
      </trkpt>
      <trkpt lat="43.78943" lon="7.2479">
        <ele>611</ele>
        <time>2018-04-26T12:55:40.000Z</time>
      </trkpt>
      <trkpt lat="43.78942" lon="7.24789">
        <ele>611</ele>
        <time>2018-04-26T12:55:43.000Z</time>
      </trkpt>
      <trkpt lat="43.78941" lon="7.24787">
        <ele>611</ele>
        <time>2018-04-26T12:55:45.000Z</time>
      </trkpt>
      <trkpt lat="43.78939" lon="7.24785">
        <ele>611</ele>
        <time>2018-04-26T12:55:50.000Z</time>
      </trkpt>
      <trkpt lat="43.78938" lon="7.24783">
        <ele>610</ele>
        <time>2018-04-26T12:55:52.000Z</time>
      </trkpt>
      <trkpt lat="43.78934" lon="7.2478">
        <ele>609</ele>
        <time>2018-04-26T12:55:58.000Z</time>
      </trkpt>
      <trkpt lat="43.78934" lon="7.24779">
        <ele>609</ele>
        <time>2018-04-26T12:56:01.000Z</time>
      </trkpt>
      <trkpt lat="43.78933" lon="7.24778">
        <ele>609</ele>
        <time>2018-04-26T12:56:04.000Z</time>
      </trkpt>
      <trkpt lat="43.78928" lon="7.24771">
        <ele>607</ele>
        <time>2018-04-26T12:56:08.000Z</time>
      </trkpt>
      <trkpt lat="43.78927" lon="7.2477">
        <ele>607</ele>
        <time>2018-04-26T12:56:09.000Z</time>
      </trkpt>
      <trkpt lat="43.78924" lon="7.24767">
        <ele>606</ele>
        <time>2018-04-26T12:56:10.000Z</time>
      </trkpt>
      <trkpt lat="43.78921" lon="7.24762">
        <ele>604</ele>
        <time>2018-04-26T12:56:12.000Z</time>
      </trkpt>
      <trkpt lat="43.7892" lon="7.24761">
        <ele>603</ele>
        <time>2018-04-26T12:56:13.000Z</time>
      </trkpt>
      <trkpt lat="43.78916" lon="7.24755">
        <ele>598</ele>
        <time>2018-04-26T12:56:15.000Z</time>
      </trkpt>
      <trkpt lat="43.78915" lon="7.24752">
        <ele>598</ele>
        <time>2018-04-26T12:56:16.000Z</time>
      </trkpt>
      <trkpt lat="43.78913" lon="7.24749">
        <ele>596</ele>
        <time>2018-04-26T12:56:17.000Z</time>
      </trkpt>
      <trkpt lat="43.78911" lon="7.24744">
        <ele>594</ele>
        <time>2018-04-26T12:56:19.000Z</time>
      </trkpt>
      <trkpt lat="43.78911" lon="7.24743">
        <ele>594</ele>
        <time>2018-04-26T12:56:21.000Z</time>
      </trkpt>
      <trkpt lat="43.78911" lon="7.24742">
        <ele>594</ele>
        <time>2018-04-26T12:56:22.000Z</time>
      </trkpt>
      <trkpt lat="43.7891" lon="7.24739">
        <ele>593</ele>
        <time>2018-04-26T12:56:24.000Z</time>
      </trkpt>
      <trkpt lat="43.7891" lon="7.24733">
        <ele>591</ele>
        <time>2018-04-26T12:56:26.000Z</time>
      </trkpt>
      <trkpt lat="43.78906" lon="7.24712">
        <ele>588</ele>
        <time>2018-04-26T12:56:32.000Z</time>
      </trkpt>
      <trkpt lat="43.78905" lon="7.24707">
        <ele>587</ele>
        <time>2018-04-26T12:56:33.000Z</time>
      </trkpt>
      <trkpt lat="43.78902" lon="7.24696">
        <ele>586</ele>
        <time>2018-04-26T12:56:35.000Z</time>
      </trkpt>
      <trkpt lat="43.789" lon="7.24689">
        <ele>585</ele>
        <time>2018-04-26T12:56:36.000Z</time>
      </trkpt>
      <trkpt lat="43.78897" lon="7.24683">
        <ele>585</ele>
        <time>2018-04-26T12:56:37.000Z</time>
      </trkpt>
      <trkpt lat="43.78893" lon="7.24678">
        <ele>585</ele>
        <time>2018-04-26T12:56:38.000Z</time>
      </trkpt>
      <trkpt lat="43.7889" lon="7.24675">
        <ele>584</ele>
        <time>2018-04-26T12:56:39.000Z</time>
      </trkpt>
      <trkpt lat="43.78886" lon="7.24672">
        <ele>584</ele>
        <time>2018-04-26T12:56:40.000Z</time>
      </trkpt>
      <trkpt lat="43.78884" lon="7.24671">
        <ele>584</ele>
        <time>2018-04-26T12:56:41.000Z</time>
      </trkpt>
      <trkpt lat="43.78882" lon="7.24669">
        <ele>584</ele>
        <time>2018-04-26T12:56:42.000Z</time>
      </trkpt>
      <trkpt lat="43.7888" lon="7.24667">
        <ele>576</ele>
        <time>2018-04-26T12:56:43.000Z</time>
      </trkpt>
      <trkpt lat="43.78878" lon="7.24661">
        <ele>576</ele>
        <time>2018-04-26T12:56:45.000Z</time>
      </trkpt>
      <trkpt lat="43.7888" lon="7.24658">
        <ele>576</ele>
        <time>2018-04-26T12:56:46.000Z</time>
      </trkpt>
      <trkpt lat="43.78882" lon="7.24657">
        <ele>576</ele>
        <time>2018-04-26T12:56:47.000Z</time>
      </trkpt>
      <trkpt lat="43.78883" lon="7.24652">
        <ele>576</ele>
        <time>2018-04-26T12:56:49.000Z</time>
      </trkpt>
      <trkpt lat="43.78881" lon="7.24652">
        <ele>575</ele>
        <time>2018-04-26T12:56:51.000Z</time>
      </trkpt>
      <trkpt lat="43.78878" lon="7.24654">
        <ele>575</ele>
        <time>2018-04-26T12:56:52.000Z</time>
      </trkpt>
      <trkpt lat="43.78864" lon="7.24654">
        <ele>575</ele>
        <time>2018-04-26T12:56:56.000Z</time>
      </trkpt>
      <trkpt lat="43.7886" lon="7.24652">
        <ele>575</ele>
        <time>2018-04-26T12:56:57.000Z</time>
      </trkpt>
      <trkpt lat="43.78852" lon="7.24646">
        <ele>574</ele>
        <time>2018-04-26T12:56:59.000Z</time>
      </trkpt>
      <trkpt lat="43.78847" lon="7.24642">
        <ele>574</ele>
        <time>2018-04-26T12:57:00.000Z</time>
      </trkpt>
      <trkpt lat="43.78837" lon="7.24633">
        <ele>573</ele>
        <time>2018-04-26T12:57:02.000Z</time>
      </trkpt>
      <trkpt lat="43.78827" lon="7.24625">
        <ele>569</ele>
        <time>2018-04-26T12:57:04.000Z</time>
      </trkpt>
      <trkpt lat="43.78823" lon="7.2462">
        <ele>568</ele>
        <time>2018-04-26T12:57:05.000Z</time>
      </trkpt>
      <trkpt lat="43.7882" lon="7.24614">
        <ele>568</ele>
        <time>2018-04-26T12:57:06.000Z</time>
      </trkpt>
      <trkpt lat="43.78814" lon="7.246">
        <ele>567</ele>
        <time>2018-04-26T12:57:08.000Z</time>
      </trkpt>
      <trkpt lat="43.78803" lon="7.24592">
        <ele>567</ele>
        <time>2018-04-26T12:57:11.000Z</time>
      </trkpt>
      <trkpt lat="43.78798" lon="7.24602">
        <ele>567</ele>
        <time>2018-04-26T12:57:13.000Z</time>
      </trkpt>
      <trkpt lat="43.78793" lon="7.24625">
        <ele>567</ele>
        <time>2018-04-26T12:57:16.000Z</time>
      </trkpt>
      <trkpt lat="43.7879" lon="7.24634">
        <ele>567</ele>
        <time>2018-04-26T12:57:17.000Z</time>
      </trkpt>
      <trkpt lat="43.78783" lon="7.24663">
        <ele>567</ele>
        <time>2018-04-26T12:57:20.000Z</time>
      </trkpt>
      <trkpt lat="43.78778" lon="7.24685">
        <ele>569</ele>
        <time>2018-04-26T12:57:22.000Z</time>
      </trkpt>
      <trkpt lat="43.78775" lon="7.24696">
        <ele>569</ele>
        <time>2018-04-26T12:57:23.000Z</time>
      </trkpt>
      <trkpt lat="43.78772" lon="7.24707">
        <ele>569</ele>
        <time>2018-04-26T12:57:24.000Z</time>
      </trkpt>
      <trkpt lat="43.78766" lon="7.2473">
        <ele>569</ele>
        <time>2018-04-26T12:57:26.000Z</time>
      </trkpt>
      <trkpt lat="43.78758" lon="7.24751">
        <ele>567</ele>
        <time>2018-04-26T12:57:28.000Z</time>
      </trkpt>
      <trkpt lat="43.78752" lon="7.24757">
        <ele>567</ele>
        <time>2018-04-26T12:57:29.000Z</time>
      </trkpt>
      <trkpt lat="43.78736" lon="7.24763">
        <ele>564</ele>
        <time>2018-04-26T12:57:31.000Z</time>
      </trkpt>
      <trkpt lat="43.78726" lon="7.24763">
        <ele>564</ele>
        <time>2018-04-26T12:57:32.000Z</time>
      </trkpt>
      <trkpt lat="43.78709" lon="7.2476">
        <ele>564</ele>
        <time>2018-04-26T12:57:34.000Z</time>
      </trkpt>
      <trkpt lat="43.787" lon="7.24756">
        <ele>564</ele>
        <time>2018-04-26T12:57:35.000Z</time>
      </trkpt>
      <trkpt lat="43.78693" lon="7.24753">
        <ele>564</ele>
        <time>2018-04-26T12:57:36.000Z</time>
      </trkpt>
      <trkpt lat="43.78686" lon="7.24755">
        <ele>563</ele>
        <time>2018-04-26T12:57:37.000Z</time>
      </trkpt>
      <trkpt lat="43.7868" lon="7.24759">
        <ele>563</ele>
        <time>2018-04-26T12:57:38.000Z</time>
      </trkpt>
      <trkpt lat="43.78676" lon="7.24763">
        <ele>563</ele>
        <time>2018-04-26T12:57:39.000Z</time>
      </trkpt>
      <trkpt lat="43.78665" lon="7.24772">
        <ele>561</ele>
        <time>2018-04-26T12:57:42.000Z</time>
      </trkpt>
      <trkpt lat="43.7866" lon="7.24778">
        <ele>561</ele>
        <time>2018-04-26T12:57:44.000Z</time>
      </trkpt>
      <trkpt lat="43.78653" lon="7.24786">
        <ele>561</ele>
        <time>2018-04-26T12:57:47.000Z</time>
      </trkpt>
      <trkpt lat="43.7865" lon="7.24788">
        <ele>561</ele>
        <time>2018-04-26T12:57:48.000Z</time>
      </trkpt>
      <trkpt lat="43.78645" lon="7.24792">
        <ele>561</ele>
        <time>2018-04-26T12:57:50.000Z</time>
      </trkpt>
      <trkpt lat="43.78641" lon="7.24801">
        <ele>561</ele>
        <time>2018-04-26T12:57:53.000Z</time>
      </trkpt>
      <trkpt lat="43.78645" lon="7.24819">
        <ele>561</ele>
        <time>2018-04-26T12:57:57.000Z</time>
      </trkpt>
      <trkpt lat="43.78649" lon="7.24844">
        <ele>563</ele>
        <time>2018-04-26T12:58:02.000Z</time>
      </trkpt>
      <trkpt lat="43.78651" lon="7.24854">
        <ele>563</ele>
        <time>2018-04-26T12:58:04.000Z</time>
      </trkpt>
      <trkpt lat="43.78655" lon="7.24868">
        <ele>563</ele>
        <time>2018-04-26T12:58:07.000Z</time>
      </trkpt>
      <trkpt lat="43.78656" lon="7.24873">
        <ele>563</ele>
        <time>2018-04-26T12:58:08.000Z</time>
      </trkpt>
      <trkpt lat="43.78661" lon="7.24905">
        <ele>563</ele>
        <time>2018-04-26T12:58:15.000Z</time>
      </trkpt>
      <trkpt lat="43.78661" lon="7.24909">
        <ele>564</ele>
        <time>2018-04-26T12:58:16.000Z</time>
      </trkpt>
      <trkpt lat="43.78657" lon="7.24915">
        <ele>564</ele>
        <time>2018-04-26T12:58:18.000Z</time>
      </trkpt>
      <trkpt lat="43.78654" lon="7.24917">
        <ele>563</ele>
        <time>2018-04-26T12:58:19.000Z</time>
      </trkpt>
      <trkpt lat="43.78647" lon="7.24919">
        <ele>565</ele>
        <time>2018-04-26T12:58:21.000Z</time>
      </trkpt>
      <trkpt lat="43.78644" lon="7.24919">
        <ele>565</ele>
        <time>2018-04-26T12:58:22.000Z</time>
      </trkpt>
      <trkpt lat="43.78637" lon="7.2492">
        <ele>565</ele>
        <time>2018-04-26T12:58:24.000Z</time>
      </trkpt>
      <trkpt lat="43.7863" lon="7.24923">
        <ele>565</ele>
        <time>2018-04-26T12:58:26.000Z</time>
      </trkpt>
      <trkpt lat="43.7861" lon="7.24928">
        <ele>565</ele>
        <time>2018-04-26T12:58:31.000Z</time>
      </trkpt>
      <trkpt lat="43.78587" lon="7.2494">
        <ele>565</ele>
        <time>2018-04-26T12:58:37.000Z</time>
      </trkpt>
      <trkpt lat="43.78552" lon="7.24964">
        <ele>566</ele>
        <time>2018-04-26T12:58:46.000Z</time>
      </trkpt>
      <trkpt lat="43.78524" lon="7.24988">
        <ele>565</ele>
        <time>2018-04-26T12:58:54.000Z</time>
      </trkpt>
      <trkpt lat="43.78511" lon="7.25002">
        <ele>566</ele>
        <time>2018-04-26T12:58:58.000Z</time>
      </trkpt>
      <trkpt lat="43.78505" lon="7.25011">
        <ele>566</ele>
        <time>2018-04-26T12:59:00.000Z</time>
      </trkpt>
      <trkpt lat="43.78488" lon="7.2504">
        <ele>561</ele>
        <time>2018-04-26T12:59:06.000Z</time>
      </trkpt>
      <trkpt lat="43.78485" lon="7.25047">
        <ele>561</ele>
        <time>2018-04-26T12:59:07.000Z</time>
      </trkpt>
      <trkpt lat="43.78473" lon="7.25064">
        <ele>561</ele>
        <time>2018-04-26T12:59:10.000Z</time>
      </trkpt>
      <trkpt lat="43.78464" lon="7.25078">
        <ele>560</ele>
        <time>2018-04-26T12:59:12.000Z</time>
      </trkpt>
      <trkpt lat="43.78452" lon="7.25091">
        <ele>561</ele>
        <time>2018-04-26T12:59:14.000Z</time>
      </trkpt>
      <trkpt lat="43.78439" lon="7.25106">
        <ele>559</ele>
        <time>2018-04-26T12:59:16.000Z</time>
      </trkpt>
      <trkpt lat="43.78425" lon="7.25121">
        <ele>559</ele>
        <time>2018-04-26T12:59:18.000Z</time>
      </trkpt>
      <trkpt lat="43.78417" lon="7.25128">
        <ele>550</ele>
        <time>2018-04-26T12:59:19.000Z</time>
      </trkpt>
      <trkpt lat="43.78407" lon="7.25134">
        <ele>550</ele>
        <time>2018-04-26T12:59:20.000Z</time>
      </trkpt>
      <trkpt lat="43.78388" lon="7.25144">
        <ele>549</ele>
        <time>2018-04-26T12:59:22.000Z</time>
      </trkpt>
      <trkpt lat="43.78377" lon="7.25149">
        <ele>547</ele>
        <time>2018-04-26T12:59:23.000Z</time>
      </trkpt>
      <trkpt lat="43.78366" lon="7.25155">
        <ele>546</ele>
        <time>2018-04-26T12:59:24.000Z</time>
      </trkpt>
      <trkpt lat="43.78356" lon="7.25161">
        <ele>545</ele>
        <time>2018-04-26T12:59:25.000Z</time>
      </trkpt>
      <trkpt lat="43.78345" lon="7.25168">
        <ele>545</ele>
        <time>2018-04-26T12:59:26.000Z</time>
      </trkpt>
      <trkpt lat="43.78335" lon="7.25175">
        <ele>544</ele>
        <time>2018-04-26T12:59:27.000Z</time>
      </trkpt>
      <trkpt lat="43.78325" lon="7.25182">
        <ele>542</ele>
        <time>2018-04-26T12:59:28.000Z</time>
      </trkpt>
      <trkpt lat="43.78315" lon="7.25188">
        <ele>541</ele>
        <time>2018-04-26T12:59:29.000Z</time>
      </trkpt>
      <trkpt lat="43.78305" lon="7.25195">
        <ele>541</ele>
        <time>2018-04-26T12:59:30.000Z</time>
      </trkpt>
      <trkpt lat="43.78295" lon="7.25201">
        <ele>541</ele>
        <time>2018-04-26T12:59:31.000Z</time>
      </trkpt>
      <trkpt lat="43.78285" lon="7.25208">
        <ele>541</ele>
        <time>2018-04-26T12:59:32.000Z</time>
      </trkpt>
      <trkpt lat="43.78275" lon="7.25215">
        <ele>541</ele>
        <time>2018-04-26T12:59:33.000Z</time>
      </trkpt>
      <trkpt lat="43.78266" lon="7.25221">
        <ele>541</ele>
        <time>2018-04-26T12:59:34.000Z</time>
      </trkpt>
      <trkpt lat="43.78258" lon="7.25227">
        <ele>541</ele>
        <time>2018-04-26T12:59:35.000Z</time>
      </trkpt>
      <trkpt lat="43.78242" lon="7.25238">
        <ele>540</ele>
        <time>2018-04-26T12:59:37.000Z</time>
      </trkpt>
      <trkpt lat="43.78229" lon="7.25247">
        <ele>539</ele>
        <time>2018-04-26T12:59:39.000Z</time>
      </trkpt>
      <trkpt lat="43.78224" lon="7.25251">
        <ele>538</ele>
        <time>2018-04-26T12:59:40.000Z</time>
      </trkpt>
      <trkpt lat="43.78216" lon="7.25258">
        <ele>537</ele>
        <time>2018-04-26T12:59:42.000Z</time>
      </trkpt>
      <trkpt lat="43.78213" lon="7.2526">
        <ele>537</ele>
        <time>2018-04-26T12:59:43.000Z</time>
      </trkpt>
      <trkpt lat="43.78208" lon="7.25262">
        <ele>536</ele>
        <time>2018-04-26T12:59:45.000Z</time>
      </trkpt>
      <trkpt lat="43.78203" lon="7.25263">
        <ele>536</ele>
        <time>2018-04-26T12:59:47.000Z</time>
      </trkpt>
      <trkpt lat="43.78198" lon="7.25278">
        <ele>535</ele>
        <time>2018-04-26T12:59:51.000Z</time>
      </trkpt>
      <trkpt lat="43.78194" lon="7.25286">
        <ele>535</ele>
        <time>2018-04-26T12:59:53.000Z</time>
      </trkpt>
      <trkpt lat="43.78188" lon="7.25282">
        <ele>535</ele>
        <time>2018-04-26T12:59:55.000Z</time>
      </trkpt>
      <trkpt lat="43.78165" lon="7.25262">
        <ele>536</ele>
        <time>2018-04-26T13:00:03.000Z</time>
      </trkpt>
      <trkpt lat="43.7816" lon="7.25255">
        <ele>536</ele>
        <time>2018-04-26T13:00:07.000Z</time>
      </trkpt>
      <trkpt lat="43.78159" lon="7.25254">
        <ele>536</ele>
        <time>2018-04-26T13:00:08.000Z</time>
      </trkpt>
      <trkpt lat="43.78158" lon="7.25254">
        <ele>536</ele>
        <time>2018-04-26T13:00:09.000Z</time>
      </trkpt>
      <trkpt lat="43.78156" lon="7.2525">
        <ele>537</ele>
        <time>2018-04-26T13:00:11.000Z</time>
      </trkpt>
      <trkpt lat="43.78155" lon="7.25247">
        <ele>542</ele>
        <time>2018-04-26T13:00:12.000Z</time>
      </trkpt>
      <trkpt lat="43.78155" lon="7.2524">
        <ele>544</ele>
        <time>2018-04-26T13:00:15.000Z</time>
      </trkpt>
      <trkpt lat="43.78154" lon="7.25234">
        <ele>547</ele>
        <time>2018-04-26T13:00:18.000Z</time>
      </trkpt>
      <trkpt lat="43.78154" lon="7.25229">
        <ele>548</ele>
        <time>2018-04-26T13:00:21.000Z</time>
      </trkpt>
      <trkpt lat="43.78154" lon="7.25225">
        <ele>549</ele>
        <time>2018-04-26T13:00:23.000Z</time>
      </trkpt>
      <trkpt lat="43.78155" lon="7.25222">
        <ele>550</ele>
        <time>2018-04-26T13:00:29.000Z</time>
      </trkpt>
      <trkpt lat="43.78155" lon="7.25221">
        <ele>550</ele>
        <time>2018-04-26T13:00:33.000Z</time>
      </trkpt>
      <trkpt lat="43.78155" lon="7.25221">
        <ele>550</ele>
        <time>2018-04-26T13:00:35.000Z</time>
      </trkpt>
      <trkpt lat="43.78155" lon="7.25221">
        <ele>550</ele>
        <time>2018-04-26T13:00:45.000Z</time>
      </trkpt>
      <trkpt lat="43.78154" lon="7.25224">
        <ele>550</ele>
        <time>2018-04-26T13:00:52.000Z</time>
      </trkpt>
      <trkpt lat="43.78154" lon="7.25224">
        <ele>549</ele>
        <time>2018-04-26T13:00:53.000Z</time>
      </trkpt>
      <trkpt lat="43.78154" lon="7.25226">
        <ele>549</ele>
        <time>2018-04-26T13:01:00.000Z</time>
      </trkpt>
      <trkpt lat="43.78154" lon="7.25226">
        <ele>549</ele>
        <time>2018-04-26T13:01:05.000Z</time>
      </trkpt>
      <trkpt lat="43.78154" lon="7.25227">
        <ele>549</ele>
        <time>2018-04-26T13:01:13.000Z</time>
      </trkpt>
      <trkpt lat="43.78155" lon="7.25227">
        <ele>549</ele>
        <time>2018-04-26T13:01:22.000Z</time>
      </trkpt>
      <trkpt lat="43.78157" lon="7.25227">
        <ele>548</ele>
        <time>2018-04-26T13:01:28.000Z</time>
      </trkpt>
      <trkpt lat="43.78158" lon="7.25229">
        <ele>547</ele>
        <time>2018-04-26T13:01:32.000Z</time>
      </trkpt>
      <trkpt lat="43.78158" lon="7.25229">
        <ele>547</ele>
        <time>2018-04-26T13:01:41.000Z</time>
      </trkpt>
      <trkpt lat="43.7816" lon="7.25231">
        <ele>546</ele>
        <time>2018-04-26T13:01:53.000Z</time>
      </trkpt>
      <trkpt lat="43.78162" lon="7.25232">
        <ele>546</ele>
        <time>2018-04-26T13:02:08.000Z</time>
      </trkpt>
      <trkpt lat="43.78163" lon="7.25232">
        <ele>546</ele>
        <time>2018-04-26T13:02:13.000Z</time>
      </trkpt>
      <trkpt lat="43.78163" lon="7.25232">
        <ele>546</ele>
        <time>2018-04-26T13:02:18.000Z</time>
      </trkpt>
      <trkpt lat="43.78164" lon="7.25232">
        <ele>545</ele>
        <time>2018-04-26T13:02:25.000Z</time>
      </trkpt>
      <trkpt lat="43.78167" lon="7.25234">
        <ele>536</ele>
        <time>2018-04-26T13:02:36.000Z</time>
      </trkpt>
      <trkpt lat="43.78167" lon="7.25234">
        <ele>536</ele>
        <time>2018-04-26T13:02:50.000Z</time>
      </trkpt>
      <trkpt lat="43.78166" lon="7.25235">
        <ele>543</ele>
        <time>2018-04-26T13:02:59.000Z</time>
      </trkpt>
      <trkpt lat="43.78166" lon="7.25235">
        <ele>544</ele>
        <time>2018-04-26T13:03:08.000Z</time>
      </trkpt>
      <trkpt lat="43.78166" lon="7.25235">
        <ele>544</ele>
        <time>2018-04-26T13:03:19.000Z</time>
      </trkpt>
      <trkpt lat="43.78165" lon="7.25234">
        <ele>544</ele>
        <time>2018-04-26T13:03:26.000Z</time>
      </trkpt>
      <trkpt lat="43.78162" lon="7.25233">
        <ele>545</ele>
        <time>2018-04-26T13:03:34.000Z</time>
      </trkpt>
      <trkpt lat="43.78163" lon="7.25233">
        <ele>545</ele>
        <time>2018-04-26T13:03:45.000Z</time>
      </trkpt>
      <trkpt lat="43.7816" lon="7.25234">
        <ele>545</ele>
        <time>2018-04-26T13:03:56.000Z</time>
      </trkpt>
      <trkpt lat="43.78162" lon="7.25234">
        <ele>545</ele>
        <time>2018-04-26T13:04:09.000Z</time>
      </trkpt>
      <trkpt lat="43.78166" lon="7.25234">
        <ele>544</ele>
        <time>2018-04-26T13:04:19.000Z</time>
      </trkpt>
      <trkpt lat="43.78164" lon="7.25233">
        <ele>545</ele>
        <time>2018-04-26T13:04:32.000Z</time>
      </trkpt>
      <trkpt lat="43.78164" lon="7.25233">
        <ele>545</ele>
        <time>2018-04-26T13:04:40.000Z</time>
      </trkpt>
      <trkpt lat="43.78164" lon="7.25234">
        <ele>544</ele>
        <time>2018-04-26T13:04:48.000Z</time>
      </trkpt>
      <trkpt lat="43.78165" lon="7.25234">
        <ele>544</ele>
        <time>2018-04-26T13:04:53.000Z</time>
      </trkpt>
      <trkpt lat="43.78166" lon="7.25233">
        <ele>545</ele>
        <time>2018-04-26T13:05:03.000Z</time>
      </trkpt>
      <trkpt lat="43.78165" lon="7.25232">
        <ele>545</ele>
        <time>2018-04-26T13:05:12.000Z</time>
      </trkpt>
      <trkpt lat="43.78164" lon="7.25233">
        <ele>545</ele>
        <time>2018-04-26T13:05:21.000Z</time>
      </trkpt>
      <trkpt lat="43.78163" lon="7.2523">
        <ele>546</ele>
        <time>2018-04-26T13:05:31.000Z</time>
      </trkpt>
      <trkpt lat="43.78161" lon="7.25228">
        <ele>547</ele>
        <time>2018-04-26T13:05:38.000Z</time>
      </trkpt>
      <trkpt lat="43.7816" lon="7.25228">
        <ele>547</ele>
        <time>2018-04-26T13:05:44.000Z</time>
      </trkpt>
      <trkpt lat="43.78161" lon="7.25228">
        <ele>547</ele>
        <time>2018-04-26T13:05:54.000Z</time>
      </trkpt>
      <trkpt lat="43.7816" lon="7.25229">
        <ele>547</ele>
        <time>2018-04-26T13:06:07.000Z</time>
      </trkpt>
      <trkpt lat="43.78163" lon="7.2523">
        <ele>546</ele>
        <time>2018-04-26T13:06:16.000Z</time>
      </trkpt>
      <trkpt lat="43.78164" lon="7.2523">
        <ele>546</ele>
        <time>2018-04-26T13:06:24.000Z</time>
      </trkpt>
      <trkpt lat="43.78162" lon="7.25228">
        <ele>547</ele>
        <time>2018-04-26T13:06:39.000Z</time>
      </trkpt>
      <trkpt lat="43.78162" lon="7.25228">
        <ele>547</ele>
        <time>2018-04-26T13:06:48.000Z</time>
      </trkpt>
      <trkpt lat="43.78163" lon="7.25228">
        <ele>547</ele>
        <time>2018-04-26T13:06:59.000Z</time>
      </trkpt>
      <trkpt lat="43.78165" lon="7.25229">
        <ele>546</ele>
        <time>2018-04-26T13:07:07.000Z</time>
      </trkpt>
      <trkpt lat="43.78166" lon="7.25229">
        <ele>546</ele>
        <time>2018-04-26T13:07:21.000Z</time>
      </trkpt>
      <trkpt lat="43.78168" lon="7.25229">
        <ele>537</ele>
        <time>2018-04-26T13:07:36.000Z</time>
      </trkpt>
      <trkpt lat="43.78167" lon="7.25227">
        <ele>547</ele>
        <time>2018-04-26T13:07:50.000Z</time>
      </trkpt>
      <trkpt lat="43.78165" lon="7.25227">
        <ele>547</ele>
        <time>2018-04-26T13:08:01.000Z</time>
      </trkpt>
      <trkpt lat="43.78166" lon="7.25228">
        <ele>546</ele>
        <time>2018-04-26T13:08:17.000Z</time>
      </trkpt>
      <trkpt lat="43.78165" lon="7.25229">
        <ele>546</ele>
        <time>2018-04-26T13:08:35.000Z</time>
      </trkpt>
      <trkpt lat="43.78164" lon="7.25228">
        <ele>547</ele>
        <time>2018-04-26T13:08:52.000Z</time>
      </trkpt>
      <trkpt lat="43.78164" lon="7.25227">
        <ele>547</ele>
        <time>2018-04-26T13:09:01.000Z</time>
      </trkpt>
      <trkpt lat="43.78168" lon="7.25228">
        <ele>537</ele>
        <time>2018-04-26T13:09:11.000Z</time>
      </trkpt>
      <trkpt lat="43.78168" lon="7.25228">
        <ele>537</ele>
        <time>2018-04-26T13:09:20.000Z</time>
      </trkpt>
      <trkpt lat="43.78167" lon="7.25228">
        <ele>537</ele>
        <time>2018-04-26T13:09:28.000Z</time>
      </trkpt>
      <trkpt lat="43.78166" lon="7.25226">
        <ele>547</ele>
        <time>2018-04-26T13:09:38.000Z</time>
      </trkpt>
      <trkpt lat="43.78165" lon="7.25227">
        <ele>547</ele>
        <time>2018-04-26T13:09:45.000Z</time>
      </trkpt>
      <trkpt lat="43.78165" lon="7.25226">
        <ele>547</ele>
        <time>2018-04-26T13:09:52.000Z</time>
      </trkpt>
      <trkpt lat="43.78166" lon="7.25227">
        <ele>547</ele>
        <time>2018-04-26T13:09:58.000Z</time>
      </trkpt>
      <trkpt lat="43.78166" lon="7.25227">
        <ele>547</ele>
        <time>2018-04-26T13:10:10.000Z</time>
      </trkpt>
      <trkpt lat="43.78166" lon="7.25231">
        <ele>546</ele>
        <time>2018-04-26T13:10:17.000Z</time>
      </trkpt>
      <trkpt lat="43.78165" lon="7.25231">
        <ele>546</ele>
        <time>2018-04-26T13:10:24.000Z</time>
      </trkpt>
      <trkpt lat="43.78162" lon="7.2523">
        <ele>546</ele>
        <time>2018-04-26T13:10:34.000Z</time>
      </trkpt>
      <trkpt lat="43.78164" lon="7.2523">
        <ele>546</ele>
        <time>2018-04-26T13:10:41.000Z</time>
      </trkpt>
      <trkpt lat="43.78164" lon="7.25226">
        <ele>547</ele>
        <time>2018-04-26T13:10:49.000Z</time>
      </trkpt>
      <trkpt lat="43.78162" lon="7.25226">
        <ele>548</ele>
        <time>2018-04-26T13:10:57.000Z</time>
      </trkpt>
      <trkpt lat="43.78162" lon="7.25226">
        <ele>548</ele>
        <time>2018-04-26T13:11:01.000Z</time>
      </trkpt>
      <trkpt lat="43.78161" lon="7.25225">
        <ele>548</ele>
        <time>2018-04-26T13:11:02.000Z</time>
      </trkpt>
      <trkpt lat="43.78163" lon="7.25224">
        <ele>548</ele>
        <time>2018-04-26T13:11:05.000Z</time>
      </trkpt>
      <trkpt lat="43.78165" lon="7.25223">
        <ele>548</ele>
        <time>2018-04-26T13:11:06.000Z</time>
      </trkpt>
      <trkpt lat="43.78173" lon="7.2521">
        <ele>538</ele>
        <time>2018-04-26T13:11:09.000Z</time>
      </trkpt>
      <trkpt lat="43.78176" lon="7.25204">
        <ele>539</ele>
        <time>2018-04-26T13:11:10.000Z</time>
      </trkpt>
      <trkpt lat="43.78184" lon="7.2519">
        <ele>540</ele>
        <time>2018-04-26T13:11:12.000Z</time>
      </trkpt>
      <trkpt lat="43.78188" lon="7.25182">
        <ele>540</ele>
        <time>2018-04-26T13:11:13.000Z</time>
      </trkpt>
      <trkpt lat="43.78197" lon="7.25164">
        <ele>542</ele>
        <time>2018-04-26T13:11:15.000Z</time>
      </trkpt>
      <trkpt lat="43.78202" lon="7.25156">
        <ele>541</ele>
        <time>2018-04-26T13:11:16.000Z</time>
      </trkpt>
      <trkpt lat="43.78206" lon="7.25146">
        <ele>540</ele>
        <time>2018-04-26T13:11:17.000Z</time>
      </trkpt>
      <trkpt lat="43.7821" lon="7.25137">
        <ele>540</ele>
        <time>2018-04-26T13:11:18.000Z</time>
      </trkpt>
      <trkpt lat="43.78213" lon="7.25129">
        <ele>540</ele>
        <time>2018-04-26T13:11:19.000Z</time>
      </trkpt>
      <trkpt lat="43.78218" lon="7.25117">
        <ele>539</ele>
        <time>2018-04-26T13:11:21.000Z</time>
      </trkpt>
      <trkpt lat="43.7822" lon="7.25109">
        <ele>539</ele>
        <time>2018-04-26T13:11:23.000Z</time>
      </trkpt>
      <trkpt lat="43.7822" lon="7.25105">
        <ele>539</ele>
        <time>2018-04-26T13:11:24.000Z</time>
      </trkpt>
      <trkpt lat="43.78219" lon="7.25103">
        <ele>539</ele>
        <time>2018-04-26T13:11:26.000Z</time>
      </trkpt>
      <trkpt lat="43.7822" lon="7.251">
        <ele>539</ele>
        <time>2018-04-26T13:11:32.000Z</time>
      </trkpt>
      <trkpt lat="43.78222" lon="7.25094">
        <ele>538</ele>
        <time>2018-04-26T13:11:37.000Z</time>
      </trkpt>
      <trkpt lat="43.78222" lon="7.25092">
        <ele>538</ele>
        <time>2018-04-26T13:11:39.000Z</time>
      </trkpt>
      <trkpt lat="43.78221" lon="7.25088">
        <ele>538</ele>
        <time>2018-04-26T13:11:42.000Z</time>
      </trkpt>
      <trkpt lat="43.78221" lon="7.25083">
        <ele>540</ele>
        <time>2018-04-26T13:11:46.000Z</time>
      </trkpt>
      <trkpt lat="43.78221" lon="7.25078">
        <ele>540</ele>
        <time>2018-04-26T13:11:50.000Z</time>
      </trkpt>
      <trkpt lat="43.78222" lon="7.25073">
        <ele>540</ele>
        <time>2018-04-26T13:11:54.000Z</time>
      </trkpt>
      <trkpt lat="43.78222" lon="7.25072">
        <ele>540</ele>
        <time>2018-04-26T13:11:55.000Z</time>
      </trkpt>
      <trkpt lat="43.7822" lon="7.25066">
        <ele>541</ele>
        <time>2018-04-26T13:12:01.000Z</time>
      </trkpt>
      <trkpt lat="43.7822" lon="7.25065">
        <ele>541</ele>
        <time>2018-04-26T13:12:02.000Z</time>
      </trkpt>
      <trkpt lat="43.78221" lon="7.25058">
        <ele>541</ele>
        <time>2018-04-26T13:12:09.000Z</time>
      </trkpt>
      <trkpt lat="43.7822" lon="7.25054">
        <ele>541</ele>
        <time>2018-04-26T13:12:14.000Z</time>
      </trkpt>
      <trkpt lat="43.78221" lon="7.25051">
        <ele>542</ele>
        <time>2018-04-26T13:12:16.000Z</time>
      </trkpt>
      <trkpt lat="43.78221" lon="7.25049">
        <ele>542</ele>
        <time>2018-04-26T13:12:23.000Z</time>
      </trkpt>
      <trkpt lat="43.78221" lon="7.25048">
        <ele>542</ele>
        <time>2018-04-26T13:12:27.000Z</time>
      </trkpt>
      <trkpt lat="43.78221" lon="7.25048">
        <ele>542</ele>
        <time>2018-04-26T13:12:36.000Z</time>
      </trkpt>
      <trkpt lat="43.78221" lon="7.25042">
        <ele>542</ele>
        <time>2018-04-26T13:12:44.000Z</time>
      </trkpt>
      <trkpt lat="43.78219" lon="7.25028">
        <ele>542</ele>
        <time>2018-04-26T13:12:50.000Z</time>
      </trkpt>
      <trkpt lat="43.78219" lon="7.25028">
        <ele>542</ele>
        <time>2018-04-26T13:12:51.000Z</time>
      </trkpt>
      <trkpt lat="43.78219" lon="7.25024">
        <ele>542</ele>
        <time>2018-04-26T13:12:53.000Z</time>
      </trkpt>
      <trkpt lat="43.78218" lon="7.25019">
        <ele>542</ele>
        <time>2018-04-26T13:12:56.000Z</time>
      </trkpt>
      <trkpt lat="43.78217" lon="7.25015">
        <ele>542</ele>
        <time>2018-04-26T13:12:58.000Z</time>
      </trkpt>
      <trkpt lat="43.78216" lon="7.25011">
        <ele>542</ele>
        <time>2018-04-26T13:13:01.000Z</time>
      </trkpt>
      <trkpt lat="43.78216" lon="7.25009">
        <ele>542</ele>
        <time>2018-04-26T13:13:02.000Z</time>
      </trkpt>
      <trkpt lat="43.78216" lon="7.25005">
        <ele>542</ele>
        <time>2018-04-26T13:13:05.000Z</time>
      </trkpt>
      <trkpt lat="43.78216" lon="7.25003">
        <ele>542</ele>
        <time>2018-04-26T13:13:07.000Z</time>
      </trkpt>
      <trkpt lat="43.78214" lon="7.25001">
        <ele>543</ele>
        <time>2018-04-26T13:13:11.000Z</time>
      </trkpt>
      <trkpt lat="43.78214" lon="7.25">
        <ele>543</ele>
        <time>2018-04-26T13:13:12.000Z</time>
      </trkpt>
      <trkpt lat="43.78214" lon="7.24998">
        <ele>543</ele>
        <time>2018-04-26T13:13:13.000Z</time>
      </trkpt>
      <trkpt lat="43.78212" lon="7.24995">
        <ele>543</ele>
        <time>2018-04-26T13:13:19.000Z</time>
      </trkpt>
      <trkpt lat="43.78212" lon="7.24989">
        <ele>543</ele>
        <time>2018-04-26T13:13:24.000Z</time>
      </trkpt>
      <trkpt lat="43.78211" lon="7.24987">
        <ele>543</ele>
        <time>2018-04-26T13:13:26.000Z</time>
      </trkpt>
      <trkpt lat="43.78211" lon="7.24986">
        <ele>544</ele>
        <time>2018-04-26T13:13:27.000Z</time>
      </trkpt>
      <trkpt lat="43.7821" lon="7.24981">
        <ele>544</ele>
        <time>2018-04-26T13:13:31.000Z</time>
      </trkpt>
      <trkpt lat="43.78209" lon="7.24978">
        <ele>544</ele>
        <time>2018-04-26T13:13:35.000Z</time>
      </trkpt>
      <trkpt lat="43.78208" lon="7.24976">
        <ele>544</ele>
        <time>2018-04-26T13:13:38.000Z</time>
      </trkpt>
      <trkpt lat="43.78206" lon="7.24974">
        <ele>545</ele>
        <time>2018-04-26T13:13:44.000Z</time>
      </trkpt>
      <trkpt lat="43.78206" lon="7.24974">
        <ele>545</ele>
        <time>2018-04-26T13:13:45.000Z</time>
      </trkpt>
      <trkpt lat="43.78206" lon="7.24969">
        <ele>545</ele>
        <time>2018-04-26T13:13:52.000Z</time>
      </trkpt>
      <trkpt lat="43.78203" lon="7.24956">
        <ele>545</ele>
        <time>2018-04-26T13:13:59.000Z</time>
      </trkpt>
      <trkpt lat="43.78203" lon="7.24954">
        <ele>545</ele>
        <time>2018-04-26T13:14:00.000Z</time>
      </trkpt>
      <trkpt lat="43.782" lon="7.24947">
        <ele>545</ele>
        <time>2018-04-26T13:14:04.000Z</time>
      </trkpt>
      <trkpt lat="43.782" lon="7.24945">
        <ele>545</ele>
        <time>2018-04-26T13:14:05.000Z</time>
      </trkpt>
      <trkpt lat="43.78199" lon="7.24941">
        <ele>546</ele>
        <time>2018-04-26T13:14:08.000Z</time>
      </trkpt>
      <trkpt lat="43.78197" lon="7.24938">
        <ele>546</ele>
        <time>2018-04-26T13:14:10.000Z</time>
      </trkpt>
      <trkpt lat="43.78196" lon="7.24937">
        <ele>546</ele>
        <time>2018-04-26T13:14:11.000Z</time>
      </trkpt>
      <trkpt lat="43.78197" lon="7.24937">
        <ele>546</ele>
        <time>2018-04-26T13:14:13.000Z</time>
      </trkpt>
      <trkpt lat="43.78197" lon="7.24937">
        <ele>546</ele>
        <time>2018-04-26T13:14:15.000Z</time>
      </trkpt>
      <trkpt lat="43.78193" lon="7.24936">
        <ele>547</ele>
        <time>2018-04-26T13:14:23.000Z</time>
      </trkpt>
      <trkpt lat="43.78192" lon="7.24936">
        <ele>547</ele>
        <time>2018-04-26T13:14:25.000Z</time>
      </trkpt>
      <trkpt lat="43.78189" lon="7.24934">
        <ele>548</ele>
        <time>2018-04-26T13:14:31.000Z</time>
      </trkpt>
      <trkpt lat="43.78188" lon="7.24932">
        <ele>548</ele>
        <time>2018-04-26T13:14:33.000Z</time>
      </trkpt>
      <trkpt lat="43.78186" lon="7.24929">
        <ele>549</ele>
        <time>2018-04-26T13:14:37.000Z</time>
      </trkpt>
      <trkpt lat="43.78185" lon="7.24926">
        <ele>550</ele>
        <time>2018-04-26T13:14:42.000Z</time>
      </trkpt>
      <trkpt lat="43.78184" lon="7.24925">
        <ele>550</ele>
        <time>2018-04-26T13:14:44.000Z</time>
      </trkpt>
      <trkpt lat="43.78179" lon="7.24919">
        <ele>552</ele>
        <time>2018-04-26T13:14:50.000Z</time>
      </trkpt>
      <trkpt lat="43.78175" lon="7.24914">
        <ele>551</ele>
        <time>2018-04-26T13:14:54.000Z</time>
      </trkpt>
      <trkpt lat="43.7817" lon="7.2491">
        <ele>552</ele>
        <time>2018-04-26T13:14:58.000Z</time>
      </trkpt>
      <trkpt lat="43.78164" lon="7.24904">
        <ele>559</ele>
        <time>2018-04-26T13:15:04.000Z</time>
      </trkpt>
      <trkpt lat="43.78162" lon="7.24902">
        <ele>560</ele>
        <time>2018-04-26T13:15:06.000Z</time>
      </trkpt>
      <trkpt lat="43.78155" lon="7.24899">
        <ele>560</ele>
        <time>2018-04-26T13:15:11.000Z</time>
      </trkpt>
      <trkpt lat="43.78153" lon="7.24898">
        <ele>560</ele>
        <time>2018-04-26T13:15:13.000Z</time>
      </trkpt>
      <trkpt lat="43.78144" lon="7.24894">
        <ele>561</ele>
        <time>2018-04-26T13:15:21.000Z</time>
      </trkpt>
      <trkpt lat="43.78139" lon="7.24889">
        <ele>562</ele>
        <time>2018-04-26T13:15:26.000Z</time>
      </trkpt>
      <trkpt lat="43.78137" lon="7.24887">
        <ele>562</ele>
        <time>2018-04-26T13:15:28.000Z</time>
      </trkpt>
      <trkpt lat="43.78132" lon="7.24884">
        <ele>562</ele>
        <time>2018-04-26T13:15:32.000Z</time>
      </trkpt>
      <trkpt lat="43.78129" lon="7.24883">
        <ele>563</ele>
        <time>2018-04-26T13:15:35.000Z</time>
      </trkpt>
      <trkpt lat="43.78125" lon="7.24881">
        <ele>563</ele>
        <time>2018-04-26T13:15:39.000Z</time>
      </trkpt>
      <trkpt lat="43.78124" lon="7.24881">
        <ele>563</ele>
        <time>2018-04-26T13:15:41.000Z</time>
      </trkpt>
      <trkpt lat="43.78122" lon="7.2488">
        <ele>563</ele>
        <time>2018-04-26T13:15:46.000Z</time>
      </trkpt>
      <trkpt lat="43.78121" lon="7.24879">
        <ele>564</ele>
        <time>2018-04-26T13:15:47.000Z</time>
      </trkpt>
      <trkpt lat="43.78116" lon="7.24879">
        <ele>564</ele>
        <time>2018-04-26T13:15:53.000Z</time>
      </trkpt>
      <trkpt lat="43.78114" lon="7.24878">
        <ele>565</ele>
        <time>2018-04-26T13:15:55.000Z</time>
      </trkpt>
      <trkpt lat="43.78109" lon="7.24878">
        <ele>565</ele>
        <time>2018-04-26T13:16:01.000Z</time>
      </trkpt>
      <trkpt lat="43.78107" lon="7.24878">
        <ele>566</ele>
        <time>2018-04-26T13:16:03.000Z</time>
      </trkpt>
      <trkpt lat="43.78102" lon="7.24879">
        <ele>567</ele>
        <time>2018-04-26T13:16:10.000Z</time>
      </trkpt>
      <trkpt lat="43.78101" lon="7.24879">
        <ele>567</ele>
        <time>2018-04-26T13:16:11.000Z</time>
      </trkpt>
      <trkpt lat="43.78097" lon="7.24878">
        <ele>567</ele>
        <time>2018-04-26T13:16:16.000Z</time>
      </trkpt>
      <trkpt lat="43.78096" lon="7.24878">
        <ele>567</ele>
        <time>2018-04-26T13:16:17.000Z</time>
      </trkpt>
      <trkpt lat="43.78092" lon="7.24879">
        <ele>568</ele>
        <time>2018-04-26T13:16:23.000Z</time>
      </trkpt>
      <trkpt lat="43.78089" lon="7.2488">
        <ele>568</ele>
        <time>2018-04-26T13:16:28.000Z</time>
      </trkpt>
      <trkpt lat="43.78087" lon="7.24881">
        <ele>568</ele>
        <time>2018-04-26T13:16:30.000Z</time>
      </trkpt>
      <trkpt lat="43.78084" lon="7.24882">
        <ele>569</ele>
        <time>2018-04-26T13:16:36.000Z</time>
      </trkpt>
      <trkpt lat="43.78077" lon="7.24881">
        <ele>585</ele>
        <time>2018-04-26T13:16:44.000Z</time>
      </trkpt>
      <trkpt lat="43.78072" lon="7.2488">
        <ele>585</ele>
        <time>2018-04-26T13:16:52.000Z</time>
      </trkpt>
      <trkpt lat="43.78067" lon="7.24882">
        <ele>586</ele>
        <time>2018-04-26T13:16:59.000Z</time>
      </trkpt>
      <trkpt lat="43.78065" lon="7.24882">
        <ele>586</ele>
        <time>2018-04-26T13:17:01.000Z</time>
      </trkpt>
      <trkpt lat="43.78062" lon="7.24882">
        <ele>586</ele>
        <time>2018-04-26T13:17:06.000Z</time>
      </trkpt>
      <trkpt lat="43.78059" lon="7.24882">
        <ele>587</ele>
        <time>2018-04-26T13:17:10.000Z</time>
      </trkpt>
      <trkpt lat="43.78057" lon="7.24883">
        <ele>587</ele>
        <time>2018-04-26T13:17:13.000Z</time>
      </trkpt>
      <trkpt lat="43.78054" lon="7.24882">
        <ele>587</ele>
        <time>2018-04-26T13:17:18.000Z</time>
      </trkpt>
      <trkpt lat="43.78054" lon="7.24882">
        <ele>587</ele>
        <time>2018-04-26T13:17:19.000Z</time>
      </trkpt>
      <trkpt lat="43.7805" lon="7.24881">
        <ele>588</ele>
        <time>2018-04-26T13:17:25.000Z</time>
      </trkpt>
      <trkpt lat="43.78048" lon="7.24881">
        <ele>588</ele>
        <time>2018-04-26T13:17:27.000Z</time>
      </trkpt>
      <trkpt lat="43.78045" lon="7.24881">
        <ele>588</ele>
        <time>2018-04-26T13:17:31.000Z</time>
      </trkpt>
      <trkpt lat="43.78044" lon="7.24881">
        <ele>588</ele>
        <time>2018-04-26T13:17:32.000Z</time>
      </trkpt>
      <trkpt lat="43.78043" lon="7.24881">
        <ele>589</ele>
        <time>2018-04-26T13:17:34.000Z</time>
      </trkpt>
      <trkpt lat="43.78039" lon="7.24881">
        <ele>589</ele>
        <time>2018-04-26T13:17:38.000Z</time>
      </trkpt>
      <trkpt lat="43.78036" lon="7.2488">
        <ele>590</ele>
        <time>2018-04-26T13:17:42.000Z</time>
      </trkpt>
      <trkpt lat="43.78036" lon="7.2488">
        <ele>590</ele>
        <time>2018-04-26T13:17:43.000Z</time>
      </trkpt>
      <trkpt lat="43.78032" lon="7.2488">
        <ele>590</ele>
        <time>2018-04-26T13:17:48.000Z</time>
      </trkpt>
      <trkpt lat="43.78031" lon="7.24881">
        <ele>591</ele>
        <time>2018-04-26T13:17:50.000Z</time>
      </trkpt>
      <trkpt lat="43.78027" lon="7.24882">
        <ele>591</ele>
        <time>2018-04-26T13:17:55.000Z</time>
      </trkpt>
      <trkpt lat="43.78025" lon="7.24882">
        <ele>591</ele>
        <time>2018-04-26T13:17:58.000Z</time>
      </trkpt>
      <trkpt lat="43.78023" lon="7.24881">
        <ele>592</ele>
        <time>2018-04-26T13:18:02.000Z</time>
      </trkpt>
      <trkpt lat="43.78021" lon="7.24881">
        <ele>592</ele>
        <time>2018-04-26T13:18:05.000Z</time>
      </trkpt>
      <trkpt lat="43.7802" lon="7.24881">
        <ele>592</ele>
        <time>2018-04-26T13:18:06.000Z</time>
      </trkpt>
      <trkpt lat="43.78014" lon="7.24881">
        <ele>593</ele>
        <time>2018-04-26T13:18:13.000Z</time>
      </trkpt>
      <trkpt lat="43.78011" lon="7.24881">
        <ele>593</ele>
        <time>2018-04-26T13:18:18.000Z</time>
      </trkpt>
      <trkpt lat="43.78006" lon="7.2488">
        <ele>593</ele>
        <time>2018-04-26T13:18:23.000Z</time>
      </trkpt>
      <trkpt lat="43.78002" lon="7.24877">
        <ele>593</ele>
        <time>2018-04-26T13:18:29.000Z</time>
      </trkpt>
      <trkpt lat="43.77992" lon="7.24874">
        <ele>607</ele>
        <time>2018-04-26T13:18:35.000Z</time>
      </trkpt>
      <trkpt lat="43.7799" lon="7.24873">
        <ele>607</ele>
        <time>2018-04-26T13:18:36.000Z</time>
      </trkpt>
      <trkpt lat="43.77983" lon="7.24867">
        <ele>607</ele>
        <time>2018-04-26T13:18:41.000Z</time>
      </trkpt>
      <trkpt lat="43.77983" lon="7.24864">
        <ele>607</ele>
        <time>2018-04-26T13:18:42.000Z</time>
      </trkpt>
      <trkpt lat="43.77983" lon="7.24854">
        <ele>605</ele>
        <time>2018-04-26T13:18:46.000Z</time>
      </trkpt>
      <trkpt lat="43.77983" lon="7.24852">
        <ele>604</ele>
        <time>2018-04-26T13:18:49.000Z</time>
      </trkpt>
      <trkpt lat="43.77982" lon="7.24849">
        <ele>604</ele>
        <time>2018-04-26T13:18:50.000Z</time>
      </trkpt>
      <trkpt lat="43.77982" lon="7.24849">
        <ele>604</ele>
        <time>2018-04-26T13:18:51.000Z</time>
      </trkpt>
      <trkpt lat="43.77981" lon="7.2484">
        <ele>603</ele>
        <time>2018-04-26T13:18:56.000Z</time>
      </trkpt>
      <trkpt lat="43.7798" lon="7.24835">
        <ele>603</ele>
        <time>2018-04-26T13:18:59.000Z</time>
      </trkpt>
      <trkpt lat="43.77979" lon="7.24831">
        <ele>598</ele>
        <time>2018-04-26T13:19:04.000Z</time>
      </trkpt>
      <trkpt lat="43.77979" lon="7.24829">
        <ele>598</ele>
        <time>2018-04-26T13:19:09.000Z</time>
      </trkpt>
      <trkpt lat="43.77979" lon="7.24827">
        <ele>598</ele>
        <time>2018-04-26T13:19:10.000Z</time>
      </trkpt>
      <trkpt lat="43.77978" lon="7.24823">
        <ele>598</ele>
        <time>2018-04-26T13:19:15.000Z</time>
      </trkpt>
      <trkpt lat="43.77978" lon="7.24822">
        <ele>598</ele>
        <time>2018-04-26T13:19:16.000Z</time>
      </trkpt>
      <trkpt lat="43.77977" lon="7.24815">
        <ele>598</ele>
        <time>2018-04-26T13:19:23.000Z</time>
      </trkpt>
      <trkpt lat="43.77977" lon="7.24814">
        <ele>598</ele>
        <time>2018-04-26T13:19:24.000Z</time>
      </trkpt>
      <trkpt lat="43.77974" lon="7.24812">
        <ele>599</ele>
        <time>2018-04-26T13:19:31.000Z</time>
      </trkpt>
      <trkpt lat="43.77971" lon="7.24809">
        <ele>599</ele>
        <time>2018-04-26T13:19:37.000Z</time>
      </trkpt>
      <trkpt lat="43.77969" lon="7.24808">
        <ele>599</ele>
        <time>2018-04-26T13:19:40.000Z</time>
      </trkpt>
      <trkpt lat="43.77969" lon="7.24808">
        <ele>600</ele>
        <time>2018-04-26T13:19:41.000Z</time>
      </trkpt>
      <trkpt lat="43.77967" lon="7.24806">
        <ele>600</ele>
        <time>2018-04-26T13:19:46.000Z</time>
      </trkpt>
      <trkpt lat="43.77966" lon="7.24805">
        <ele>600</ele>
        <time>2018-04-26T13:19:48.000Z</time>
      </trkpt>
      <trkpt lat="43.77965" lon="7.24804">
        <ele>600</ele>
        <time>2018-04-26T13:19:51.000Z</time>
      </trkpt>
      <trkpt lat="43.77962" lon="7.24802">
        <ele>600</ele>
        <time>2018-04-26T13:19:56.000Z</time>
      </trkpt>
      <trkpt lat="43.77959" lon="7.24804">
        <ele>601</ele>
        <time>2018-04-26T13:20:03.000Z</time>
      </trkpt>
      <trkpt lat="43.77959" lon="7.24804">
        <ele>601</ele>
        <time>2018-04-26T13:20:04.000Z</time>
      </trkpt>
      <trkpt lat="43.77959" lon="7.24807">
        <ele>601</ele>
        <time>2018-04-26T13:20:08.000Z</time>
      </trkpt>
      <trkpt lat="43.77956" lon="7.24812">
        <ele>602</ele>
        <time>2018-04-26T13:20:14.000Z</time>
      </trkpt>
      <trkpt lat="43.77956" lon="7.24813">
        <ele>602</ele>
        <time>2018-04-26T13:20:15.000Z</time>
      </trkpt>
      <trkpt lat="43.77953" lon="7.24817">
        <ele>603</ele>
        <time>2018-04-26T13:20:21.000Z</time>
      </trkpt>
      <trkpt lat="43.77949" lon="7.24821">
        <ele>604</ele>
        <time>2018-04-26T13:20:28.000Z</time>
      </trkpt>
      <trkpt lat="43.77948" lon="7.24821">
        <ele>604</ele>
        <time>2018-04-26T13:20:29.000Z</time>
      </trkpt>
      <trkpt lat="43.77945" lon="7.24818">
        <ele>605</ele>
        <time>2018-04-26T13:20:35.000Z</time>
      </trkpt>
      <trkpt lat="43.77944" lon="7.24818">
        <ele>605</ele>
        <time>2018-04-26T13:20:36.000Z</time>
      </trkpt>
      <trkpt lat="43.7794" lon="7.24818">
        <ele>605</ele>
        <time>2018-04-26T13:20:42.000Z</time>
      </trkpt>
      <trkpt lat="43.77938" lon="7.24817">
        <ele>606</ele>
        <time>2018-04-26T13:20:47.000Z</time>
      </trkpt>
      <trkpt lat="43.77936" lon="7.24816">
        <ele>606</ele>
        <time>2018-04-26T13:20:51.000Z</time>
      </trkpt>
      <trkpt lat="43.77934" lon="7.24816">
        <ele>607</ele>
        <time>2018-04-26T13:20:53.000Z</time>
      </trkpt>
      <trkpt lat="43.77931" lon="7.24816">
        <ele>607</ele>
        <time>2018-04-26T13:20:58.000Z</time>
      </trkpt>
      <trkpt lat="43.77931" lon="7.24816">
        <ele>607</ele>
        <time>2018-04-26T13:20:59.000Z</time>
      </trkpt>
      <trkpt lat="43.77928" lon="7.24814">
        <ele>607</ele>
        <time>2018-04-26T13:21:03.000Z</time>
      </trkpt>
      <trkpt lat="43.77927" lon="7.24813">
        <ele>607</ele>
        <time>2018-04-26T13:21:05.000Z</time>
      </trkpt>
      <trkpt lat="43.77924" lon="7.24811">
        <ele>607</ele>
        <time>2018-04-26T13:21:09.000Z</time>
      </trkpt>
      <trkpt lat="43.77921" lon="7.2481">
        <ele>607</ele>
        <time>2018-04-26T13:21:13.000Z</time>
      </trkpt>
      <trkpt lat="43.77919" lon="7.2481">
        <ele>608</ele>
        <time>2018-04-26T13:21:17.000Z</time>
      </trkpt>
      <trkpt lat="43.77916" lon="7.24809">
        <ele>617</ele>
        <time>2018-04-26T13:21:20.000Z</time>
      </trkpt>
      <trkpt lat="43.77915" lon="7.24809">
        <ele>617</ele>
        <time>2018-04-26T13:21:22.000Z</time>
      </trkpt>
      <trkpt lat="43.77911" lon="7.24806">
        <ele>617</ele>
        <time>2018-04-26T13:21:28.000Z</time>
      </trkpt>
      <trkpt lat="43.77907" lon="7.24806">
        <ele>617</ele>
        <time>2018-04-26T13:21:34.000Z</time>
      </trkpt>
      <trkpt lat="43.77906" lon="7.24806">
        <ele>618</ele>
        <time>2018-04-26T13:21:35.000Z</time>
      </trkpt>
      <trkpt lat="43.77904" lon="7.24808">
        <ele>618</ele>
        <time>2018-04-26T13:21:39.000Z</time>
      </trkpt>
      <trkpt lat="43.77903" lon="7.24809">
        <ele>618</ele>
        <time>2018-04-26T13:21:41.000Z</time>
      </trkpt>
      <trkpt lat="43.77899" lon="7.24813">
        <ele>618</ele>
        <time>2018-04-26T13:21:47.000Z</time>
      </trkpt>
      <trkpt lat="43.77898" lon="7.24814">
        <ele>618</ele>
        <time>2018-04-26T13:21:49.000Z</time>
      </trkpt>
      <trkpt lat="43.77895" lon="7.24817">
        <ele>619</ele>
        <time>2018-04-26T13:21:54.000Z</time>
      </trkpt>
      <trkpt lat="43.77892" lon="7.2482">
        <ele>619</ele>
        <time>2018-04-26T13:22:01.000Z</time>
      </trkpt>
      <trkpt lat="43.77887" lon="7.24824">
        <ele>619</ele>
        <time>2018-04-26T13:22:09.000Z</time>
      </trkpt>
      <trkpt lat="43.77886" lon="7.24825">
        <ele>620</ele>
        <time>2018-04-26T13:22:11.000Z</time>
      </trkpt>
      <trkpt lat="43.77883" lon="7.24827">
        <ele>620</ele>
        <time>2018-04-26T13:22:17.000Z</time>
      </trkpt>
      <trkpt lat="43.77882" lon="7.24828">
        <ele>620</ele>
        <time>2018-04-26T13:22:18.000Z</time>
      </trkpt>
      <trkpt lat="43.77879" lon="7.24832">
        <ele>621</ele>
        <time>2018-04-26T13:22:25.000Z</time>
      </trkpt>
      <trkpt lat="43.77878" lon="7.24833">
        <ele>621</ele>
        <time>2018-04-26T13:22:27.000Z</time>
      </trkpt>
      <trkpt lat="43.77875" lon="7.24835">
        <ele>630</ele>
        <time>2018-04-26T13:22:32.000Z</time>
      </trkpt>
      <trkpt lat="43.77874" lon="7.24836">
        <ele>630</ele>
        <time>2018-04-26T13:22:34.000Z</time>
      </trkpt>
      <trkpt lat="43.77871" lon="7.24838">
        <ele>630</ele>
        <time>2018-04-26T13:22:39.000Z</time>
      </trkpt>
      <trkpt lat="43.77868" lon="7.24838">
        <ele>631</ele>
        <time>2018-04-26T13:22:43.000Z</time>
      </trkpt>
      <trkpt lat="43.77866" lon="7.2484">
        <ele>631</ele>
        <time>2018-04-26T13:22:47.000Z</time>
      </trkpt>
      <trkpt lat="43.77864" lon="7.2484">
        <ele>631</ele>
        <time>2018-04-26T13:22:49.000Z</time>
      </trkpt>
      <trkpt lat="43.77862" lon="7.24842">
        <ele>632</ele>
        <time>2018-04-26T13:22:55.000Z</time>
      </trkpt>
      <trkpt lat="43.77858" lon="7.24845">
        <ele>632</ele>
        <time>2018-04-26T13:23:02.000Z</time>
      </trkpt>
      <trkpt lat="43.77857" lon="7.24846">
        <ele>632</ele>
        <time>2018-04-26T13:23:03.000Z</time>
      </trkpt>
      <trkpt lat="43.77854" lon="7.24848">
        <ele>633</ele>
        <time>2018-04-26T13:23:09.000Z</time>
      </trkpt>
      <trkpt lat="43.77854" lon="7.24849">
        <ele>633</ele>
        <time>2018-04-26T13:23:10.000Z</time>
      </trkpt>
      <trkpt lat="43.7785" lon="7.24853">
        <ele>633</ele>
        <time>2018-04-26T13:23:16.000Z</time>
      </trkpt>
      <trkpt lat="43.7785" lon="7.24855">
        <ele>633</ele>
        <time>2018-04-26T13:23:18.000Z</time>
      </trkpt>
      <trkpt lat="43.77847" lon="7.24858">
        <ele>634</ele>
        <time>2018-04-26T13:23:24.000Z</time>
      </trkpt>
      <trkpt lat="43.77846" lon="7.24858">
        <ele>634</ele>
        <time>2018-04-26T13:23:25.000Z</time>
      </trkpt>
      <trkpt lat="43.77843" lon="7.24861">
        <ele>634</ele>
        <time>2018-04-26T13:23:31.000Z</time>
      </trkpt>
      <trkpt lat="43.77841" lon="7.24861">
        <ele>634</ele>
        <time>2018-04-26T13:23:34.000Z</time>
      </trkpt>
      <trkpt lat="43.77839" lon="7.24862">
        <ele>634</ele>
        <time>2018-04-26T13:23:37.000Z</time>
      </trkpt>
      <trkpt lat="43.77837" lon="7.24862">
        <ele>634</ele>
        <time>2018-04-26T13:23:41.000Z</time>
      </trkpt>
      <trkpt lat="43.77835" lon="7.24863">
        <ele>634</ele>
        <time>2018-04-26T13:23:44.000Z</time>
      </trkpt>
      <trkpt lat="43.77832" lon="7.24864">
        <ele>642</ele>
        <time>2018-04-26T13:23:48.000Z</time>
      </trkpt>
      <trkpt lat="43.7783" lon="7.24865">
        <ele>642</ele>
        <time>2018-04-26T13:23:51.000Z</time>
      </trkpt>
      <trkpt lat="43.77827" lon="7.24867">
        <ele>643</ele>
        <time>2018-04-26T13:23:57.000Z</time>
      </trkpt>
      <trkpt lat="43.77823" lon="7.24869">
        <ele>643</ele>
        <time>2018-04-26T13:24:04.000Z</time>
      </trkpt>
      <trkpt lat="43.77819" lon="7.24872">
        <ele>644</ele>
        <time>2018-04-26T13:24:11.000Z</time>
      </trkpt>
      <trkpt lat="43.77818" lon="7.24873">
        <ele>644</ele>
        <time>2018-04-26T13:24:12.000Z</time>
      </trkpt>
      <trkpt lat="43.77815" lon="7.24875">
        <ele>644</ele>
        <time>2018-04-26T13:24:18.000Z</time>
      </trkpt>
      <trkpt lat="43.77813" lon="7.24876">
        <ele>644</ele>
        <time>2018-04-26T13:24:21.000Z</time>
      </trkpt>
      <trkpt lat="43.77811" lon="7.24876">
        <ele>644</ele>
        <time>2018-04-26T13:24:24.000Z</time>
      </trkpt>
      <trkpt lat="43.7781" lon="7.24875">
        <ele>644</ele>
        <time>2018-04-26T13:24:25.000Z</time>
      </trkpt>
      <trkpt lat="43.7781" lon="7.24875">
        <ele>644</ele>
        <time>2018-04-26T13:24:27.000Z</time>
      </trkpt>
      <trkpt lat="43.77806" lon="7.24873">
        <ele>644</ele>
        <time>2018-04-26T13:24:32.000Z</time>
      </trkpt>
      <trkpt lat="43.77805" lon="7.24873">
        <ele>644</ele>
        <time>2018-04-26T13:24:34.000Z</time>
      </trkpt>
      <trkpt lat="43.77801" lon="7.24872">
        <ele>644</ele>
        <time>2018-04-26T13:24:38.000Z</time>
      </trkpt>
      <trkpt lat="43.77798" lon="7.24872">
        <ele>644</ele>
        <time>2018-04-26T13:24:42.000Z</time>
      </trkpt>
      <trkpt lat="43.77796" lon="7.24872">
        <ele>645</ele>
        <time>2018-04-26T13:24:45.000Z</time>
      </trkpt>
      <trkpt lat="43.77792" lon="7.24874">
        <ele>645</ele>
        <time>2018-04-26T13:24:50.000Z</time>
      </trkpt>
      <trkpt lat="43.77791" lon="7.24874">
        <ele>645</ele>
        <time>2018-04-26T13:24:51.000Z</time>
      </trkpt>
      <trkpt lat="43.7779" lon="7.24875">
        <ele>645</ele>
        <time>2018-04-26T13:24:53.000Z</time>
      </trkpt>
      <trkpt lat="43.77787" lon="7.24879">
        <ele>646</ele>
        <time>2018-04-26T13:24:57.000Z</time>
      </trkpt>
      <trkpt lat="43.77787" lon="7.24879">
        <ele>646</ele>
        <time>2018-04-26T13:24:59.000Z</time>
      </trkpt>
      <trkpt lat="43.77787" lon="7.2488">
        <ele>646</ele>
        <time>2018-04-26T13:25:02.000Z</time>
      </trkpt>
      <trkpt lat="43.77787" lon="7.2488">
        <ele>646</ele>
        <time>2018-04-26T13:25:07.000Z</time>
      </trkpt>
      <trkpt lat="43.77787" lon="7.24878">
        <ele>645</ele>
        <time>2018-04-26T13:25:12.000Z</time>
      </trkpt>
      <trkpt lat="43.77787" lon="7.24877">
        <ele>645</ele>
        <time>2018-04-26T13:25:16.000Z</time>
      </trkpt>
      <trkpt lat="43.77787" lon="7.24877">
        <ele>645</ele>
        <time>2018-04-26T13:25:23.000Z</time>
      </trkpt>
      <trkpt lat="43.77787" lon="7.24877">
        <ele>645</ele>
        <time>2018-04-26T13:25:24.000Z</time>
      </trkpt>
      <trkpt lat="43.77785" lon="7.24876">
        <ele>645</ele>
        <time>2018-04-26T13:25:31.000Z</time>
      </trkpt>
      <trkpt lat="43.77787" lon="7.24875">
        <ele>645</ele>
        <time>2018-04-26T13:25:35.000Z</time>
      </trkpt>
      <trkpt lat="43.77788" lon="7.24874">
        <ele>645</ele>
        <time>2018-04-26T13:25:38.000Z</time>
      </trkpt>
      <trkpt lat="43.77787" lon="7.24874">
        <ele>645</ele>
        <time>2018-04-26T13:25:44.000Z</time>
      </trkpt>
      <trkpt lat="43.77787" lon="7.24875">
        <ele>645</ele>
        <time>2018-04-26T13:26:04.000Z</time>
      </trkpt>
      <trkpt lat="43.77787" lon="7.24872">
        <ele>645</ele>
        <time>2018-04-26T13:26:16.000Z</time>
      </trkpt>
      <trkpt lat="43.77788" lon="7.24872">
        <ele>645</ele>
        <time>2018-04-26T13:26:21.000Z</time>
      </trkpt>
      <trkpt lat="43.77788" lon="7.24873">
        <ele>645</ele>
        <time>2018-04-26T13:26:30.000Z</time>
      </trkpt>
      <trkpt lat="43.77787" lon="7.24873">
        <ele>645</ele>
        <time>2018-04-26T13:26:38.000Z</time>
      </trkpt>
      <trkpt lat="43.77787" lon="7.24873">
        <ele>645</ele>
        <time>2018-04-26T13:26:46.000Z</time>
      </trkpt>
      <trkpt lat="43.77787" lon="7.24874">
        <ele>645</ele>
        <time>2018-04-26T13:26:55.000Z</time>
      </trkpt>
      <trkpt lat="43.77787" lon="7.24875">
        <ele>645</ele>
        <time>2018-04-26T13:27:04.000Z</time>
      </trkpt>
      <trkpt lat="43.77786" lon="7.24874">
        <ele>645</ele>
        <time>2018-04-26T13:27:18.000Z</time>
      </trkpt>
      <trkpt lat="43.77786" lon="7.24875">
        <ele>645</ele>
        <time>2018-04-26T13:27:27.000Z</time>
      </trkpt>
      <trkpt lat="43.77786" lon="7.24874">
        <ele>645</ele>
        <time>2018-04-26T13:27:43.000Z</time>
      </trkpt>
      <trkpt lat="43.77786" lon="7.24874">
        <ele>645</ele>
        <time>2018-04-26T13:27:59.000Z</time>
      </trkpt>
      <trkpt lat="43.77787" lon="7.24874">
        <ele>645</ele>
        <time>2018-04-26T13:28:13.000Z</time>
      </trkpt>
      <trkpt lat="43.77786" lon="7.24875">
        <ele>645</ele>
        <time>2018-04-26T13:28:21.000Z</time>
      </trkpt>
      <trkpt lat="43.77786" lon="7.24874">
        <ele>645</ele>
        <time>2018-04-26T13:28:31.000Z</time>
      </trkpt>
      <trkpt lat="43.77786" lon="7.24874">
        <ele>645</ele>
        <time>2018-04-26T13:28:42.000Z</time>
      </trkpt>
      <trkpt lat="43.77786" lon="7.24874">
        <ele>645</ele>
        <time>2018-04-26T13:28:53.000Z</time>
      </trkpt>
      <trkpt lat="43.77786" lon="7.24873">
        <ele>645</ele>
        <time>2018-04-26T13:29:02.000Z</time>
      </trkpt>
      <trkpt lat="43.77786" lon="7.24874">
        <ele>645</ele>
        <time>2018-04-26T13:29:12.000Z</time>
      </trkpt>
      <trkpt lat="43.77786" lon="7.24878">
        <ele>646</ele>
        <time>2018-04-26T13:29:20.000Z</time>
      </trkpt>
      <trkpt lat="43.77785" lon="7.24879">
        <ele>646</ele>
        <time>2018-04-26T13:29:25.000Z</time>
      </trkpt>
      <trkpt lat="43.77783" lon="7.2488">
        <ele>646</ele>
        <time>2018-04-26T13:29:28.000Z</time>
      </trkpt>
      <trkpt lat="43.7778" lon="7.24882">
        <ele>646</ele>
        <time>2018-04-26T13:29:31.000Z</time>
      </trkpt>
      <trkpt lat="43.7777" lon="7.24889">
        <ele>648</ele>
        <time>2018-04-26T13:29:38.000Z</time>
      </trkpt>
      <trkpt lat="43.7777" lon="7.2489">
        <ele>648</ele>
        <time>2018-04-26T13:29:39.000Z</time>
      </trkpt>
      <trkpt lat="43.77767" lon="7.24895">
        <ele>650</ele>
        <time>2018-04-26T13:29:43.000Z</time>
      </trkpt>
      <trkpt lat="43.77761" lon="7.24897">
        <ele>651</ele>
        <time>2018-04-26T13:29:46.000Z</time>
      </trkpt>
      <trkpt lat="43.77758" lon="7.24898">
        <ele>651</ele>
        <time>2018-04-26T13:29:48.000Z</time>
      </trkpt>
      <trkpt lat="43.77755" lon="7.24898">
        <ele>652</ele>
        <time>2018-04-26T13:29:50.000Z</time>
      </trkpt>
      <trkpt lat="43.77745" lon="7.24901">
        <ele>654</ele>
        <time>2018-04-26T13:29:55.000Z</time>
      </trkpt>
      <trkpt lat="43.77728" lon="7.24907">
        <ele>653</ele>
        <time>2018-04-26T13:30:01.000Z</time>
      </trkpt>
      <trkpt lat="43.77707" lon="7.24918">
        <ele>667</ele>
        <time>2018-04-26T13:30:08.000Z</time>
      </trkpt>
      <trkpt lat="43.77686" lon="7.24917">
        <ele>665</ele>
        <time>2018-04-26T13:30:14.000Z</time>
      </trkpt>
      <trkpt lat="43.77665" lon="7.24904">
        <ele>655</ele>
        <time>2018-04-26T13:30:20.000Z</time>
      </trkpt>
      <trkpt lat="43.77655" lon="7.24904">
        <ele>654</ele>
        <time>2018-04-26T13:30:25.000Z</time>
      </trkpt>
      <trkpt lat="43.77652" lon="7.24906">
        <ele>654</ele>
        <time>2018-04-26T13:30:28.000Z</time>
      </trkpt>
      <trkpt lat="43.77649" lon="7.24906">
        <ele>653</ele>
        <time>2018-04-26T13:30:30.000Z</time>
      </trkpt>
      <trkpt lat="43.77648" lon="7.24905">
        <ele>653</ele>
        <time>2018-04-26T13:30:31.000Z</time>
      </trkpt>
      <trkpt lat="43.77646" lon="7.24906">
        <ele>653</ele>
        <time>2018-04-26T13:30:33.000Z</time>
      </trkpt>
      <trkpt lat="43.7764" lon="7.24905">
        <ele>653</ele>
        <time>2018-04-26T13:30:36.000Z</time>
      </trkpt>
      <trkpt lat="43.77637" lon="7.24905">
        <ele>653</ele>
        <time>2018-04-26T13:30:38.000Z</time>
      </trkpt>
      <trkpt lat="43.77631" lon="7.24905">
        <ele>652</ele>
        <time>2018-04-26T13:30:42.000Z</time>
      </trkpt>
      <trkpt lat="43.77629" lon="7.24906">
        <ele>652</ele>
        <time>2018-04-26T13:30:43.000Z</time>
      </trkpt>
      <trkpt lat="43.77622" lon="7.24907">
        <ele>653</ele>
        <time>2018-04-26T13:30:48.000Z</time>
      </trkpt>
      <trkpt lat="43.77621" lon="7.24908">
        <ele>653</ele>
        <time>2018-04-26T13:30:49.000Z</time>
      </trkpt>
      <trkpt lat="43.7762" lon="7.24908">
        <ele>653</ele>
        <time>2018-04-26T13:30:50.000Z</time>
      </trkpt>
      <trkpt lat="43.77613" lon="7.24906">
        <ele>653</ele>
        <time>2018-04-26T13:30:54.000Z</time>
      </trkpt>
      <trkpt lat="43.77604" lon="7.24908">
        <ele>654</ele>
        <time>2018-04-26T13:31:00.000Z</time>
      </trkpt>
      <trkpt lat="43.77601" lon="7.24909">
        <ele>655</ele>
        <time>2018-04-26T13:31:02.000Z</time>
      </trkpt>
      <trkpt lat="43.7759" lon="7.24912">
        <ele>658</ele>
        <time>2018-04-26T13:31:07.000Z</time>
      </trkpt>
      <trkpt lat="43.77574" lon="7.24916">
        <ele>656</ele>
        <time>2018-04-26T13:31:12.000Z</time>
      </trkpt>
      <trkpt lat="43.7757" lon="7.24917">
        <ele>665</ele>
        <time>2018-04-26T13:31:13.000Z</time>
      </trkpt>
      <trkpt lat="43.77559" lon="7.24922">
        <ele>666</ele>
        <time>2018-04-26T13:31:17.000Z</time>
      </trkpt>
      <trkpt lat="43.77543" lon="7.24926">
        <ele>667</ele>
        <time>2018-04-26T13:31:23.000Z</time>
      </trkpt>
      <trkpt lat="43.77532" lon="7.24929">
        <ele>666</ele>
        <time>2018-04-26T13:31:27.000Z</time>
      </trkpt>
      <trkpt lat="43.7752" lon="7.24932">
        <ele>665</ele>
        <time>2018-04-26T13:31:32.000Z</time>
      </trkpt>
      <trkpt lat="43.77503" lon="7.24936">
        <ele>664</ele>
        <time>2018-04-26T13:31:38.000Z</time>
      </trkpt>
      <trkpt lat="43.77482" lon="7.2494">
        <ele>665</ele>
        <time>2018-04-26T13:31:46.000Z</time>
      </trkpt>
      <trkpt lat="43.77466" lon="7.24943">
        <ele>667</ele>
        <time>2018-04-26T13:31:52.000Z</time>
      </trkpt>
      <trkpt lat="43.77464" lon="7.24944">
        <ele>667</ele>
        <time>2018-04-26T13:31:53.000Z</time>
      </trkpt>
      <trkpt lat="43.77453" lon="7.24944">
        <ele>667</ele>
        <time>2018-04-26T13:31:57.000Z</time>
      </trkpt>
      <trkpt lat="43.77441" lon="7.24939">
        <ele>666</ele>
        <time>2018-04-26T13:32:02.000Z</time>
      </trkpt>
      <trkpt lat="43.77432" lon="7.24943">
        <ele>666</ele>
        <time>2018-04-26T13:32:07.000Z</time>
      </trkpt>
      <trkpt lat="43.77428" lon="7.24947">
        <ele>667</ele>
        <time>2018-04-26T13:32:10.000Z</time>
      </trkpt>
      <trkpt lat="43.77427" lon="7.24947">
        <ele>667</ele>
        <time>2018-04-26T13:32:11.000Z</time>
      </trkpt>
      <trkpt lat="43.77424" lon="7.24948">
        <ele>667</ele>
        <time>2018-04-26T13:32:13.000Z</time>
      </trkpt>
      <trkpt lat="43.77418" lon="7.24952">
        <ele>668</ele>
        <time>2018-04-26T13:32:17.000Z</time>
      </trkpt>
      <trkpt lat="43.77412" lon="7.24956">
        <ele>670</ele>
        <time>2018-04-26T13:32:21.000Z</time>
      </trkpt>
      <trkpt lat="43.77411" lon="7.24956">
        <ele>670</ele>
        <time>2018-04-26T13:32:22.000Z</time>
      </trkpt>
      <trkpt lat="43.77406" lon="7.24959">
        <ele>670</ele>
        <time>2018-04-26T13:32:26.000Z</time>
      </trkpt>
      <trkpt lat="43.77404" lon="7.24959">
        <ele>671</ele>
        <time>2018-04-26T13:32:27.000Z</time>
      </trkpt>
      <trkpt lat="43.77401" lon="7.24959">
        <ele>671</ele>
        <time>2018-04-26T13:32:30.000Z</time>
      </trkpt>
      <trkpt lat="43.77397" lon="7.24957">
        <ele>670</ele>
        <time>2018-04-26T13:32:32.000Z</time>
      </trkpt>
      <trkpt lat="43.77386" lon="7.24955">
        <ele>670</ele>
        <time>2018-04-26T13:32:37.000Z</time>
      </trkpt>
      <trkpt lat="43.77378" lon="7.24959">
        <ele>671</ele>
        <time>2018-04-26T13:32:42.000Z</time>
      </trkpt>
      <trkpt lat="43.77374" lon="7.24958">
        <ele>671</ele>
        <time>2018-04-26T13:32:44.000Z</time>
      </trkpt>
      <trkpt lat="43.77369" lon="7.24959">
        <ele>671</ele>
        <time>2018-04-26T13:32:47.000Z</time>
      </trkpt>
      <trkpt lat="43.77366" lon="7.24961">
        <ele>671</ele>
        <time>2018-04-26T13:32:50.000Z</time>
      </trkpt>
      <trkpt lat="43.77364" lon="7.24961">
        <ele>671</ele>
        <time>2018-04-26T13:32:52.000Z</time>
      </trkpt>
      <trkpt lat="43.77363" lon="7.24962">
        <ele>672</ele>
        <time>2018-04-26T13:32:53.000Z</time>
      </trkpt>
      <trkpt lat="43.77362" lon="7.24962">
        <ele>672</ele>
        <time>2018-04-26T13:32:54.000Z</time>
      </trkpt>
      <trkpt lat="43.7736" lon="7.24963">
        <ele>672</ele>
        <time>2018-04-26T13:32:56.000Z</time>
      </trkpt>
      <trkpt lat="43.77356" lon="7.24964">
        <ele>672</ele>
        <time>2018-04-26T13:32:58.000Z</time>
      </trkpt>
      <trkpt lat="43.77355" lon="7.24964">
        <ele>672</ele>
        <time>2018-04-26T13:32:59.000Z</time>
      </trkpt>
      <trkpt lat="43.77354" lon="7.24964">
        <ele>672</ele>
        <time>2018-04-26T13:33:01.000Z</time>
      </trkpt>
      <trkpt lat="43.7735" lon="7.24966">
        <ele>673</ele>
        <time>2018-04-26T13:33:04.000Z</time>
      </trkpt>
      <trkpt lat="43.77345" lon="7.24966">
        <ele>673</ele>
        <time>2018-04-26T13:33:07.000Z</time>
      </trkpt>
      <trkpt lat="43.7734" lon="7.24964">
        <ele>673</ele>
        <time>2018-04-26T13:33:10.000Z</time>
      </trkpt>
      <trkpt lat="43.77333" lon="7.24964">
        <ele>673</ele>
        <time>2018-04-26T13:33:13.000Z</time>
      </trkpt>
      <trkpt lat="43.77327" lon="7.24963">
        <ele>673</ele>
        <time>2018-04-26T13:33:17.000Z</time>
      </trkpt>
      <trkpt lat="43.77319" lon="7.24965">
        <ele>673</ele>
        <time>2018-04-26T13:33:22.000Z</time>
      </trkpt>
      <trkpt lat="43.77317" lon="7.24965">
        <ele>673</ele>
        <time>2018-04-26T13:33:23.000Z</time>
      </trkpt>
      <trkpt lat="43.77304" lon="7.24966">
        <ele>673</ele>
        <time>2018-04-26T13:33:29.000Z</time>
      </trkpt>
      <trkpt lat="43.77297" lon="7.24968">
        <ele>673</ele>
        <time>2018-04-26T13:33:34.000Z</time>
      </trkpt>
      <trkpt lat="43.7729" lon="7.24968">
        <ele>673</ele>
        <time>2018-04-26T13:33:39.000Z</time>
      </trkpt>
      <trkpt lat="43.77289" lon="7.24968">
        <ele>673</ele>
        <time>2018-04-26T13:33:40.000Z</time>
      </trkpt>
      <trkpt lat="43.77279" lon="7.24969">
        <ele>674</ele>
        <time>2018-04-26T13:33:46.000Z</time>
      </trkpt>
      <trkpt lat="43.77258" lon="7.24972">
        <ele>675</ele>
        <time>2018-04-26T13:33:54.000Z</time>
      </trkpt>
      <trkpt lat="43.77236" lon="7.24976">
        <ele>675</ele>
        <time>2018-04-26T13:34:02.000Z</time>
      </trkpt>
      <trkpt lat="43.77218" lon="7.24982">
        <ele>674</ele>
        <time>2018-04-26T13:34:09.000Z</time>
      </trkpt>
      <trkpt lat="43.77202" lon="7.24985">
        <ele>674</ele>
        <time>2018-04-26T13:34:15.000Z</time>
      </trkpt>
      <trkpt lat="43.77177" lon="7.24986">
        <ele>677</ele>
        <time>2018-04-26T13:34:22.000Z</time>
      </trkpt>
      <trkpt lat="43.77164" lon="7.24987">
        <ele>678</ele>
        <time>2018-04-26T13:34:25.000Z</time>
      </trkpt>
      <trkpt lat="43.77153" lon="7.24989">
        <ele>677</ele>
        <time>2018-04-26T13:34:28.000Z</time>
      </trkpt>
      <trkpt lat="43.77149" lon="7.24989">
        <ele>676</ele>
        <time>2018-04-26T13:34:29.000Z</time>
      </trkpt>
      <trkpt lat="43.77128" lon="7.2499">
        <ele>674</ele>
        <time>2018-04-26T13:34:34.000Z</time>
      </trkpt>
      <trkpt lat="43.77123" lon="7.24989">
        <ele>673</ele>
        <time>2018-04-26T13:34:36.000Z</time>
      </trkpt>
      <trkpt lat="43.77102" lon="7.24989">
        <ele>675</ele>
        <time>2018-04-26T13:34:41.000Z</time>
      </trkpt>
      <trkpt lat="43.77094" lon="7.24991">
        <ele>677</ele>
        <time>2018-04-26T13:34:43.000Z</time>
      </trkpt>
      <trkpt lat="43.77086" lon="7.24992">
        <ele>678</ele>
        <time>2018-04-26T13:34:45.000Z</time>
      </trkpt>
      <trkpt lat="43.77082" lon="7.24993">
        <ele>679</ele>
        <time>2018-04-26T13:34:46.000Z</time>
      </trkpt>
      <trkpt lat="43.77079" lon="7.24991">
        <ele>678</ele>
        <time>2018-04-26T13:34:47.000Z</time>
      </trkpt>
      <trkpt lat="43.77071" lon="7.24987">
        <ele>677</ele>
        <time>2018-04-26T13:34:49.000Z</time>
      </trkpt>
      <trkpt lat="43.77062" lon="7.2498">
        <ele>675</ele>
        <time>2018-04-26T13:34:53.000Z</time>
      </trkpt>
      <trkpt lat="43.7705" lon="7.2497">
        <ele>673</ele>
        <time>2018-04-26T13:34:57.000Z</time>
      </trkpt>
      <trkpt lat="43.77039" lon="7.24965">
        <ele>673</ele>
        <time>2018-04-26T13:35:01.000Z</time>
      </trkpt>
      <trkpt lat="43.77036" lon="7.24965">
        <ele>673</ele>
        <time>2018-04-26T13:35:02.000Z</time>
      </trkpt>
      <trkpt lat="43.77027" lon="7.24964">
        <ele>673</ele>
        <time>2018-04-26T13:35:05.000Z</time>
      </trkpt>
      <trkpt lat="43.77022" lon="7.24967">
        <ele>674</ele>
        <time>2018-04-26T13:35:08.000Z</time>
      </trkpt>
      <trkpt lat="43.77018" lon="7.24972">
        <ele>675</ele>
        <time>2018-04-26T13:35:14.000Z</time>
      </trkpt>
      <trkpt lat="43.77018" lon="7.24972">
        <ele>675</ele>
        <time>2018-04-26T13:35:17.000Z</time>
      </trkpt>
      <trkpt lat="43.77017" lon="7.24973">
        <ele>675</ele>
        <time>2018-04-26T13:35:20.000Z</time>
      </trkpt>
      <trkpt lat="43.77011" lon="7.24977">
        <ele>676</ele>
        <time>2018-04-26T13:35:25.000Z</time>
      </trkpt>
      <trkpt lat="43.77001" lon="7.24981">
        <ele>678</ele>
        <time>2018-04-26T13:35:30.000Z</time>
      </trkpt>
      <trkpt lat="43.76999" lon="7.24983">
        <ele>677</ele>
        <time>2018-04-26T13:35:35.000Z</time>
      </trkpt>
      <trkpt lat="43.76999" lon="7.24984">
        <ele>677</ele>
        <time>2018-04-26T13:35:41.000Z</time>
      </trkpt>
      <trkpt lat="43.76998" lon="7.24984">
        <ele>677</ele>
        <time>2018-04-26T13:35:52.000Z</time>
      </trkpt>
      <trkpt lat="43.76998" lon="7.24984">
        <ele>677</ele>
        <time>2018-04-26T13:35:58.000Z</time>
      </trkpt>
      <trkpt lat="43.76998" lon="7.24984">
        <ele>677</ele>
        <time>2018-04-26T13:36:05.000Z</time>
      </trkpt>
      <trkpt lat="43.76998" lon="7.24984">
        <ele>677</ele>
        <time>2018-04-26T13:36:12.000Z</time>
      </trkpt>
      <trkpt lat="43.76998" lon="7.24984">
        <ele>677</ele>
        <time>2018-04-26T13:36:21.000Z</time>
      </trkpt>
      <trkpt lat="43.76998" lon="7.24984">
        <ele>677</ele>
        <time>2018-04-26T13:36:31.000Z</time>
      </trkpt>
      <trkpt lat="43.76997" lon="7.24985">
        <ele>677</ele>
        <time>2018-04-26T13:36:34.000Z</time>
      </trkpt>
      <trkpt lat="43.76992" lon="7.24987">
        <ele>677</ele>
        <time>2018-04-26T13:36:37.000Z</time>
      </trkpt>
      <trkpt lat="43.76979" lon="7.24992">
        <ele>675</ele>
        <time>2018-04-26T13:36:42.000Z</time>
      </trkpt>
      <trkpt lat="43.76958" lon="7.24999">
        <ele>672</ele>
        <time>2018-04-26T13:36:47.000Z</time>
      </trkpt>
      <trkpt lat="43.76954" lon="7.25">
        <ele>678</ele>
        <time>2018-04-26T13:36:48.000Z</time>
      </trkpt>
      <trkpt lat="43.76948" lon="7.25002">
        <ele>682</ele>
        <time>2018-04-26T13:36:50.000Z</time>
      </trkpt>
      <trkpt lat="43.76939" lon="7.25004">
        <ele>680</ele>
        <time>2018-04-26T13:36:53.000Z</time>
      </trkpt>
      <trkpt lat="43.76926" lon="7.25011">
        <ele>678</ele>
        <time>2018-04-26T13:36:56.000Z</time>
      </trkpt>
      <trkpt lat="43.76921" lon="7.25014">
        <ele>678</ele>
        <time>2018-04-26T13:36:57.000Z</time>
      </trkpt>
      <trkpt lat="43.76899" lon="7.25028">
        <ele>672</ele>
        <time>2018-04-26T13:37:02.000Z</time>
      </trkpt>
      <trkpt lat="43.76893" lon="7.25029">
        <ele>672</ele>
        <time>2018-04-26T13:37:03.000Z</time>
      </trkpt>
      <trkpt lat="43.76881" lon="7.25032">
        <ele>671</ele>
        <time>2018-04-26T13:37:05.000Z</time>
      </trkpt>
      <trkpt lat="43.76874" lon="7.25032">
        <ele>671</ele>
        <time>2018-04-26T13:37:06.000Z</time>
      </trkpt>
      <trkpt lat="43.76867" lon="7.25032">
        <ele>670</ele>
        <time>2018-04-26T13:37:07.000Z</time>
      </trkpt>
      <trkpt lat="43.76853" lon="7.25034">
        <ele>670</ele>
        <time>2018-04-26T13:37:09.000Z</time>
      </trkpt>
      <trkpt lat="43.76843" lon="7.25037">
        <ele>669</ele>
        <time>2018-04-26T13:37:11.000Z</time>
      </trkpt>
      <trkpt lat="43.76832" lon="7.25042">
        <ele>663</ele>
        <time>2018-04-26T13:37:13.000Z</time>
      </trkpt>
      <trkpt lat="43.76826" lon="7.25044">
        <ele>662</ele>
        <time>2018-04-26T13:37:14.000Z</time>
      </trkpt>
      <trkpt lat="43.76815" lon="7.25045">
        <ele>662</ele>
        <time>2018-04-26T13:37:16.000Z</time>
      </trkpt>
      <trkpt lat="43.76801" lon="7.25034">
        <ele>662</ele>
        <time>2018-04-26T13:37:19.000Z</time>
      </trkpt>
      <trkpt lat="43.76796" lon="7.25031">
        <ele>662</ele>
        <time>2018-04-26T13:37:20.000Z</time>
      </trkpt>
      <trkpt lat="43.76787" lon="7.25031">
        <ele>661</ele>
        <time>2018-04-26T13:37:23.000Z</time>
      </trkpt>
      <trkpt lat="43.76779" lon="7.25036">
        <ele>661</ele>
        <time>2018-04-26T13:37:25.000Z</time>
      </trkpt>
      <trkpt lat="43.76774" lon="7.25037">
        <ele>661</ele>
        <time>2018-04-26T13:37:26.000Z</time>
      </trkpt>
      <trkpt lat="43.76758" lon="7.25043">
        <ele>660</ele>
        <time>2018-04-26T13:37:29.000Z</time>
      </trkpt>
      <trkpt lat="43.76749" lon="7.25048">
        <ele>653</ele>
        <time>2018-04-26T13:37:31.000Z</time>
      </trkpt>
      <trkpt lat="43.76744" lon="7.25049">
        <ele>653</ele>
        <time>2018-04-26T13:37:32.000Z</time>
      </trkpt>
      <trkpt lat="43.76737" lon="7.25052">
        <ele>653</ele>
        <time>2018-04-26T13:37:34.000Z</time>
      </trkpt>
      <trkpt lat="43.76735" lon="7.25053">
        <ele>653</ele>
        <time>2018-04-26T13:37:35.000Z</time>
      </trkpt>
      <trkpt lat="43.76725" lon="7.25056">
        <ele>652</ele>
        <time>2018-04-26T13:37:38.000Z</time>
      </trkpt>
      <trkpt lat="43.76718" lon="7.25054">
        <ele>652</ele>
        <time>2018-04-26T13:37:40.000Z</time>
      </trkpt>
      <trkpt lat="43.76712" lon="7.25052">
        <ele>651</ele>
        <time>2018-04-26T13:37:42.000Z</time>
      </trkpt>
      <trkpt lat="43.76704" lon="7.25054">
        <ele>651</ele>
        <time>2018-04-26T13:37:44.000Z</time>
      </trkpt>
      <trkpt lat="43.76698" lon="7.25052">
        <ele>650</ele>
        <time>2018-04-26T13:37:45.000Z</time>
      </trkpt>
      <trkpt lat="43.76694" lon="7.25048">
        <ele>650</ele>
        <time>2018-04-26T13:37:46.000Z</time>
      </trkpt>
      <trkpt lat="43.76689" lon="7.25046">
        <ele>650</ele>
        <time>2018-04-26T13:37:47.000Z</time>
      </trkpt>
      <trkpt lat="43.76684" lon="7.25047">
        <ele>649</ele>
        <time>2018-04-26T13:37:48.000Z</time>
      </trkpt>
      <trkpt lat="43.7668" lon="7.25058">
        <ele>649</ele>
        <time>2018-04-26T13:37:50.000Z</time>
      </trkpt>
      <trkpt lat="43.76675" lon="7.2507">
        <ele>648</ele>
        <time>2018-04-26T13:37:52.000Z</time>
      </trkpt>
      <trkpt lat="43.76669" lon="7.25082">
        <ele>646</ele>
        <time>2018-04-26T13:37:54.000Z</time>
      </trkpt>
      <trkpt lat="43.76667" lon="7.25087">
        <ele>645</ele>
        <time>2018-04-26T13:37:55.000Z</time>
      </trkpt>
      <trkpt lat="43.76663" lon="7.2509">
        <ele>644</ele>
        <time>2018-04-26T13:37:56.000Z</time>
      </trkpt>
      <trkpt lat="43.76654" lon="7.25091">
        <ele>642</ele>
        <time>2018-04-26T13:37:58.000Z</time>
      </trkpt>
      <trkpt lat="43.76648" lon="7.25093">
        <ele>641</ele>
        <time>2018-04-26T13:37:59.000Z</time>
      </trkpt>
      <trkpt lat="43.76642" lon="7.25094">
        <ele>640</ele>
        <time>2018-04-26T13:38:00.000Z</time>
      </trkpt>
      <trkpt lat="43.76636" lon="7.25094">
        <ele>639</ele>
        <time>2018-04-26T13:38:01.000Z</time>
      </trkpt>
      <trkpt lat="43.76631" lon="7.25093">
        <ele>639</ele>
        <time>2018-04-26T13:38:02.000Z</time>
      </trkpt>
      <trkpt lat="43.76627" lon="7.25094">
        <ele>639</ele>
        <time>2018-04-26T13:38:03.000Z</time>
      </trkpt>
      <trkpt lat="43.76617" lon="7.25096">
        <ele>638</ele>
        <time>2018-04-26T13:38:05.000Z</time>
      </trkpt>
      <trkpt lat="43.76612" lon="7.25097">
        <ele>638</ele>
        <time>2018-04-26T13:38:06.000Z</time>
      </trkpt>
      <trkpt lat="43.76601" lon="7.251">
        <ele>637</ele>
        <time>2018-04-26T13:38:08.000Z</time>
      </trkpt>
      <trkpt lat="43.76592" lon="7.25102">
        <ele>637</ele>
        <time>2018-04-26T13:38:10.000Z</time>
      </trkpt>
      <trkpt lat="43.76589" lon="7.25102">
        <ele>637</ele>
        <time>2018-04-26T13:38:11.000Z</time>
      </trkpt>
      <trkpt lat="43.76585" lon="7.25104">
        <ele>637</ele>
        <time>2018-04-26T13:38:12.000Z</time>
      </trkpt>
      <trkpt lat="43.76573" lon="7.25108">
        <ele>633</ele>
        <time>2018-04-26T13:38:15.000Z</time>
      </trkpt>
      <trkpt lat="43.7657" lon="7.2511">
        <ele>632</ele>
        <time>2018-04-26T13:38:16.000Z</time>
      </trkpt>
      <trkpt lat="43.76564" lon="7.25112">
        <ele>632</ele>
        <time>2018-04-26T13:38:17.000Z</time>
      </trkpt>
      <trkpt lat="43.76554" lon="7.25118">
        <ele>631</ele>
        <time>2018-04-26T13:38:19.000Z</time>
      </trkpt>
      <trkpt lat="43.76539" lon="7.25127">
        <ele>631</ele>
        <time>2018-04-26T13:38:22.000Z</time>
      </trkpt>
      <trkpt lat="43.76535" lon="7.25129">
        <ele>631</ele>
        <time>2018-04-26T13:38:23.000Z</time>
      </trkpt>
      <trkpt lat="43.76525" lon="7.25128">
        <ele>630</ele>
        <time>2018-04-26T13:38:25.000Z</time>
      </trkpt>
      <trkpt lat="43.7652" lon="7.25126">
        <ele>630</ele>
        <time>2018-04-26T13:38:26.000Z</time>
      </trkpt>
      <trkpt lat="43.76515" lon="7.25123">
        <ele>630</ele>
        <time>2018-04-26T13:38:27.000Z</time>
      </trkpt>
      <trkpt lat="43.7651" lon="7.25121">
        <ele>629</ele>
        <time>2018-04-26T13:38:28.000Z</time>
      </trkpt>
      <trkpt lat="43.76497" lon="7.25116">
        <ele>623</ele>
        <time>2018-04-26T13:38:31.000Z</time>
      </trkpt>
      <trkpt lat="43.76493" lon="7.25113">
        <ele>623</ele>
        <time>2018-04-26T13:38:32.000Z</time>
      </trkpt>
      <trkpt lat="43.76484" lon="7.25111">
        <ele>622</ele>
        <time>2018-04-26T13:38:34.000Z</time>
      </trkpt>
      <trkpt lat="43.76479" lon="7.25111">
        <ele>622</ele>
        <time>2018-04-26T13:38:35.000Z</time>
      </trkpt>
      <trkpt lat="43.76471" lon="7.25112">
        <ele>622</ele>
        <time>2018-04-26T13:38:37.000Z</time>
      </trkpt>
      <trkpt lat="43.76468" lon="7.25113">
        <ele>622</ele>
        <time>2018-04-26T13:38:38.000Z</time>
      </trkpt>
      <trkpt lat="43.76452" lon="7.25115">
        <ele>620</ele>
        <time>2018-04-26T13:38:42.000Z</time>
      </trkpt>
      <trkpt lat="43.76447" lon="7.25116">
        <ele>620</ele>
        <time>2018-04-26T13:38:43.000Z</time>
      </trkpt>
      <trkpt lat="43.76438" lon="7.25119">
        <ele>620</ele>
        <time>2018-04-26T13:38:45.000Z</time>
      </trkpt>
      <trkpt lat="43.7643" lon="7.25124">
        <ele>620</ele>
        <time>2018-04-26T13:38:47.000Z</time>
      </trkpt>
      <trkpt lat="43.7642" lon="7.25128">
        <ele>620</ele>
        <time>2018-04-26T13:38:50.000Z</time>
      </trkpt>
      <trkpt lat="43.76413" lon="7.25131">
        <ele>610</ele>
        <time>2018-04-26T13:38:52.000Z</time>
      </trkpt>
      <trkpt lat="43.76407" lon="7.25134">
        <ele>610</ele>
        <time>2018-04-26T13:38:54.000Z</time>
      </trkpt>
      <trkpt lat="43.76403" lon="7.25135">
        <ele>610</ele>
        <time>2018-04-26T13:38:55.000Z</time>
      </trkpt>
      <trkpt lat="43.76397" lon="7.25138">
        <ele>610</ele>
        <time>2018-04-26T13:38:57.000Z</time>
      </trkpt>
      <trkpt lat="43.76387" lon="7.25148">
        <ele>609</ele>
        <time>2018-04-26T13:39:00.000Z</time>
      </trkpt>
      <trkpt lat="43.76383" lon="7.25152">
        <ele>609</ele>
        <time>2018-04-26T13:39:01.000Z</time>
      </trkpt>
      <trkpt lat="43.76379" lon="7.25156">
        <ele>609</ele>
        <time>2018-04-26T13:39:02.000Z</time>
      </trkpt>
      <trkpt lat="43.76371" lon="7.25164">
        <ele>608</ele>
        <time>2018-04-26T13:39:04.000Z</time>
      </trkpt>
      <trkpt lat="43.76369" lon="7.25168">
        <ele>617</ele>
        <time>2018-04-26T13:39:05.000Z</time>
      </trkpt>
      <trkpt lat="43.76365" lon="7.2517">
        <ele>616</ele>
        <time>2018-04-26T13:39:06.000Z</time>
      </trkpt>
      <trkpt lat="43.76362" lon="7.25173">
        <ele>615</ele>
        <time>2018-04-26T13:39:07.000Z</time>
      </trkpt>
      <trkpt lat="43.76359" lon="7.25177">
        <ele>615</ele>
        <time>2018-04-26T13:39:08.000Z</time>
      </trkpt>
      <trkpt lat="43.76353" lon="7.25189">
        <ele>615</ele>
        <time>2018-04-26T13:39:10.000Z</time>
      </trkpt>
      <trkpt lat="43.76337" lon="7.25202">
        <ele>615</ele>
        <time>2018-04-26T13:39:14.000Z</time>
      </trkpt>
      <trkpt lat="43.76333" lon="7.25202">
        <ele>606</ele>
        <time>2018-04-26T13:39:15.000Z</time>
      </trkpt>
      <trkpt lat="43.76326" lon="7.252">
        <ele>606</ele>
        <time>2018-04-26T13:39:17.000Z</time>
      </trkpt>
      <trkpt lat="43.76309" lon="7.25198">
        <ele>605</ele>
        <time>2018-04-26T13:39:21.000Z</time>
      </trkpt>
      <trkpt lat="43.76304" lon="7.252">
        <ele>605</ele>
        <time>2018-04-26T13:39:22.000Z</time>
      </trkpt>
      <trkpt lat="43.76294" lon="7.25201">
        <ele>604</ele>
        <time>2018-04-26T13:39:24.000Z</time>
      </trkpt>
      <trkpt lat="43.76289" lon="7.25202">
        <ele>604</ele>
        <time>2018-04-26T13:39:25.000Z</time>
      </trkpt>
      <trkpt lat="43.76285" lon="7.25204">
        <ele>603</ele>
        <time>2018-04-26T13:39:26.000Z</time>
      </trkpt>
      <trkpt lat="43.7628" lon="7.25204">
        <ele>603</ele>
        <time>2018-04-26T13:39:27.000Z</time>
      </trkpt>
      <trkpt lat="43.76271" lon="7.25204">
        <ele>602</ele>
        <time>2018-04-26T13:39:29.000Z</time>
      </trkpt>
      <trkpt lat="43.76266" lon="7.25204">
        <ele>602</ele>
        <time>2018-04-26T13:39:30.000Z</time>
      </trkpt>
      <trkpt lat="43.76261" lon="7.25206">
        <ele>602</ele>
        <time>2018-04-26T13:39:31.000Z</time>
      </trkpt>
      <trkpt lat="43.76256" lon="7.25206">
        <ele>602</ele>
        <time>2018-04-26T13:39:32.000Z</time>
      </trkpt>
      <trkpt lat="43.76251" lon="7.25207">
        <ele>602</ele>
        <time>2018-04-26T13:39:33.000Z</time>
      </trkpt>
      <trkpt lat="43.76243" lon="7.25209">
        <ele>592</ele>
        <time>2018-04-26T13:39:35.000Z</time>
      </trkpt>
      <trkpt lat="43.76229" lon="7.25211">
        <ele>591</ele>
        <time>2018-04-26T13:39:38.000Z</time>
      </trkpt>
      <trkpt lat="43.76223" lon="7.25211">
        <ele>591</ele>
        <time>2018-04-26T13:39:40.000Z</time>
      </trkpt>
      <trkpt lat="43.76219" lon="7.25211">
        <ele>590</ele>
        <time>2018-04-26T13:39:41.000Z</time>
      </trkpt>
      <trkpt lat="43.76209" lon="7.25213">
        <ele>589</ele>
        <time>2018-04-26T13:39:43.000Z</time>
      </trkpt>
      <trkpt lat="43.76204" lon="7.25215">
        <ele>589</ele>
        <time>2018-04-26T13:39:44.000Z</time>
      </trkpt>
      <trkpt lat="43.76201" lon="7.25218">
        <ele>589</ele>
        <time>2018-04-26T13:39:45.000Z</time>
      </trkpt>
      <trkpt lat="43.76198" lon="7.25219">
        <ele>589</ele>
        <time>2018-04-26T13:39:46.000Z</time>
      </trkpt>
      <trkpt lat="43.76196" lon="7.25219">
        <ele>589</ele>
        <time>2018-04-26T13:39:47.000Z</time>
      </trkpt>
      <trkpt lat="43.76193" lon="7.25219">
        <ele>589</ele>
        <time>2018-04-26T13:39:48.000Z</time>
      </trkpt>
      <trkpt lat="43.76182" lon="7.25225">
        <ele>589</ele>
        <time>2018-04-26T13:39:52.000Z</time>
      </trkpt>
      <trkpt lat="43.76173" lon="7.25231">
        <ele>590</ele>
        <time>2018-04-26T13:39:56.000Z</time>
      </trkpt>
      <trkpt lat="43.76169" lon="7.25233">
        <ele>590</ele>
        <time>2018-04-26T13:39:57.000Z</time>
      </trkpt>
      <trkpt lat="43.76154" lon="7.25242">
        <ele>581</ele>
        <time>2018-04-26T13:40:02.000Z</time>
      </trkpt>
      <trkpt lat="43.76146" lon="7.25247">
        <ele>578</ele>
        <time>2018-04-26T13:40:05.000Z</time>
      </trkpt>
      <trkpt lat="43.76144" lon="7.25247">
        <ele>577</ele>
        <time>2018-04-26T13:40:07.000Z</time>
      </trkpt>
      <trkpt lat="43.76145" lon="7.25246">
        <ele>577</ele>
        <time>2018-04-26T13:40:11.000Z</time>
      </trkpt>
      <trkpt lat="43.76144" lon="7.25247">
        <ele>577</ele>
        <time>2018-04-26T13:40:13.000Z</time>
      </trkpt>
      <trkpt lat="43.76139" lon="7.25249">
        <ele>575</ele>
        <time>2018-04-26T13:40:18.000Z</time>
      </trkpt>
      <trkpt lat="43.76134" lon="7.2525">
        <ele>587</ele>
        <time>2018-04-26T13:40:20.000Z</time>
      </trkpt>
      <trkpt lat="43.7613" lon="7.25254">
        <ele>586</ele>
        <time>2018-04-26T13:40:22.000Z</time>
      </trkpt>
      <trkpt lat="43.76128" lon="7.25257">
        <ele>586</ele>
        <time>2018-04-26T13:40:23.000Z</time>
      </trkpt>
      <trkpt lat="43.76117" lon="7.25263">
        <ele>584</ele>
        <time>2018-04-26T13:40:26.000Z</time>
      </trkpt>
      <trkpt lat="43.76112" lon="7.25266">
        <ele>583</ele>
        <time>2018-04-26T13:40:27.000Z</time>
      </trkpt>
      <trkpt lat="43.76104" lon="7.2527">
        <ele>582</ele>
        <time>2018-04-26T13:40:29.000Z</time>
      </trkpt>
      <trkpt lat="43.761" lon="7.25273">
        <ele>582</ele>
        <time>2018-04-26T13:40:30.000Z</time>
      </trkpt>
      <trkpt lat="43.76098" lon="7.25277">
        <ele>582</ele>
        <time>2018-04-26T13:40:31.000Z</time>
      </trkpt>
      <trkpt lat="43.76091" lon="7.2528">
        <ele>582</ele>
        <time>2018-04-26T13:40:33.000Z</time>
      </trkpt>
      <trkpt lat="43.76087" lon="7.2528">
        <ele>582</ele>
        <time>2018-04-26T13:40:34.000Z</time>
      </trkpt>
      <trkpt lat="43.76082" lon="7.25282">
        <ele>569</ele>
        <time>2018-04-26T13:40:36.000Z</time>
      </trkpt>
      <trkpt lat="43.76078" lon="7.25284">
        <ele>569</ele>
        <time>2018-04-26T13:40:37.000Z</time>
      </trkpt>
      <trkpt lat="43.76073" lon="7.25287">
        <ele>569</ele>
        <time>2018-04-26T13:40:38.000Z</time>
      </trkpt>
      <trkpt lat="43.76068" lon="7.25289">
        <ele>569</ele>
        <time>2018-04-26T13:40:39.000Z</time>
      </trkpt>
      <trkpt lat="43.76062" lon="7.25291">
        <ele>568</ele>
        <time>2018-04-26T13:40:40.000Z</time>
      </trkpt>
      <trkpt lat="43.76057" lon="7.25293">
        <ele>568</ele>
        <time>2018-04-26T13:40:41.000Z</time>
      </trkpt>
      <trkpt lat="43.76052" lon="7.25297">
        <ele>568</ele>
        <time>2018-04-26T13:40:42.000Z</time>
      </trkpt>
      <trkpt lat="43.76047" lon="7.253">
        <ele>567</ele>
        <time>2018-04-26T13:40:43.000Z</time>
      </trkpt>
      <trkpt lat="43.7604" lon="7.25305">
        <ele>567</ele>
        <time>2018-04-26T13:40:45.000Z</time>
      </trkpt>
      <trkpt lat="43.76031" lon="7.25307">
        <ele>566</ele>
        <time>2018-04-26T13:40:48.000Z</time>
      </trkpt>
      <trkpt lat="43.76026" lon="7.25307">
        <ele>566</ele>
        <time>2018-04-26T13:40:49.000Z</time>
      </trkpt>
      <trkpt lat="43.76022" lon="7.25308">
        <ele>565</ele>
        <time>2018-04-26T13:40:50.000Z</time>
      </trkpt>
      <trkpt lat="43.76017" lon="7.25311">
        <ele>565</ele>
        <time>2018-04-26T13:40:51.000Z</time>
      </trkpt>
      <trkpt lat="43.76008" lon="7.25317">
        <ele>565</ele>
        <time>2018-04-26T13:40:53.000Z</time>
      </trkpt>
      <trkpt lat="43.76005" lon="7.25319">
        <ele>565</ele>
        <time>2018-04-26T13:40:54.000Z</time>
      </trkpt>
      <trkpt lat="43.75996" lon="7.25324">
        <ele>558</ele>
        <time>2018-04-26T13:40:57.000Z</time>
      </trkpt>
      <trkpt lat="43.75987" lon="7.25332">
        <ele>557</ele>
        <time>2018-04-26T13:41:00.000Z</time>
      </trkpt>
      <trkpt lat="43.75981" lon="7.25336">
        <ele>565</ele>
        <time>2018-04-26T13:41:02.000Z</time>
      </trkpt>
      <trkpt lat="43.75969" lon="7.25342">
        <ele>564</ele>
        <time>2018-04-26T13:41:06.000Z</time>
      </trkpt>
      <trkpt lat="43.75961" lon="7.25347">
        <ele>563</ele>
        <time>2018-04-26T13:41:08.000Z</time>
      </trkpt>
      <trkpt lat="43.75957" lon="7.2535">
        <ele>563</ele>
        <time>2018-04-26T13:41:09.000Z</time>
      </trkpt>
      <trkpt lat="43.75953" lon="7.25352">
        <ele>562</ele>
        <time>2018-04-26T13:41:10.000Z</time>
      </trkpt>
      <trkpt lat="43.75947" lon="7.25354">
        <ele>561</ele>
        <time>2018-04-26T13:41:11.000Z</time>
      </trkpt>
      <trkpt lat="43.75941" lon="7.25358">
        <ele>561</ele>
        <time>2018-04-26T13:41:12.000Z</time>
      </trkpt>
      <trkpt lat="43.75936" lon="7.25363">
        <ele>561</ele>
        <time>2018-04-26T13:41:13.000Z</time>
      </trkpt>
      <trkpt lat="43.75931" lon="7.25366">
        <ele>561</ele>
        <time>2018-04-26T13:41:14.000Z</time>
      </trkpt>
      <trkpt lat="43.75925" lon="7.25369">
        <ele>561</ele>
        <time>2018-04-26T13:41:15.000Z</time>
      </trkpt>
      <trkpt lat="43.7592" lon="7.25373">
        <ele>562</ele>
        <time>2018-04-26T13:41:16.000Z</time>
      </trkpt>
      <trkpt lat="43.75914" lon="7.25381">
        <ele>551</ele>
        <time>2018-04-26T13:41:18.000Z</time>
      </trkpt>
      <trkpt lat="43.75903" lon="7.25388">
        <ele>552</ele>
        <time>2018-04-26T13:41:22.000Z</time>
      </trkpt>
      <trkpt lat="43.75896" lon="7.25392">
        <ele>552</ele>
        <time>2018-04-26T13:41:24.000Z</time>
      </trkpt>
      <trkpt lat="43.75891" lon="7.25398">
        <ele>552</ele>
        <time>2018-04-26T13:41:26.000Z</time>
      </trkpt>
      <trkpt lat="43.75885" lon="7.25405">
        <ele>552</ele>
        <time>2018-04-26T13:41:28.000Z</time>
      </trkpt>
      <trkpt lat="43.75878" lon="7.25411">
        <ele>551</ele>
        <time>2018-04-26T13:41:30.000Z</time>
      </trkpt>
      <trkpt lat="43.75874" lon="7.25416">
        <ele>550</ele>
        <time>2018-04-26T13:41:31.000Z</time>
      </trkpt>
      <trkpt lat="43.75862" lon="7.25425">
        <ele>559</ele>
        <time>2018-04-26T13:41:35.000Z</time>
      </trkpt>
      <trkpt lat="43.75857" lon="7.25428">
        <ele>558</ele>
        <time>2018-04-26T13:41:39.000Z</time>
      </trkpt>
      <trkpt lat="43.75846" lon="7.2543">
        <ele>556</ele>
        <time>2018-04-26T13:41:44.000Z</time>
      </trkpt>
      <trkpt lat="43.75839" lon="7.25433">
        <ele>555</ele>
        <time>2018-04-26T13:41:47.000Z</time>
      </trkpt>
      <trkpt lat="43.75832" lon="7.25436">
        <ele>546</ele>
        <time>2018-04-26T13:41:49.000Z</time>
      </trkpt>
      <trkpt lat="43.75829" lon="7.25437">
        <ele>546</ele>
        <time>2018-04-26T13:41:50.000Z</time>
      </trkpt>
      <trkpt lat="43.7582" lon="7.25444">
        <ele>546</ele>
        <time>2018-04-26T13:41:52.000Z</time>
      </trkpt>
      <trkpt lat="43.75816" lon="7.25447">
        <ele>545</ele>
        <time>2018-04-26T13:41:53.000Z</time>
      </trkpt>
      <trkpt lat="43.75812" lon="7.25448">
        <ele>545</ele>
        <time>2018-04-26T13:41:54.000Z</time>
      </trkpt>
      <trkpt lat="43.75798" lon="7.25456">
        <ele>544</ele>
        <time>2018-04-26T13:41:57.000Z</time>
      </trkpt>
      <trkpt lat="43.75793" lon="7.2546">
        <ele>543</ele>
        <time>2018-04-26T13:41:58.000Z</time>
      </trkpt>
      <trkpt lat="43.7579" lon="7.25463">
        <ele>543</ele>
        <time>2018-04-26T13:41:59.000Z</time>
      </trkpt>
      <trkpt lat="43.75787" lon="7.25465">
        <ele>543</ele>
        <time>2018-04-26T13:42:00.000Z</time>
      </trkpt>
      <trkpt lat="43.75781" lon="7.25469">
        <ele>543</ele>
        <time>2018-04-26T13:42:03.000Z</time>
      </trkpt>
      <trkpt lat="43.75765" lon="7.25483">
        <ele>542</ele>
        <time>2018-04-26T13:42:07.000Z</time>
      </trkpt>
      <trkpt lat="43.75761" lon="7.25485">
        <ele>542</ele>
        <time>2018-04-26T13:42:08.000Z</time>
      </trkpt>
      <trkpt lat="43.75752" lon="7.25491">
        <ele>541</ele>
        <time>2018-04-26T13:42:10.000Z</time>
      </trkpt>
      <trkpt lat="43.75737" lon="7.25499">
        <ele>533</ele>
        <time>2018-04-26T13:42:14.000Z</time>
      </trkpt>
      <trkpt lat="43.7573" lon="7.25501">
        <ele>539</ele>
        <time>2018-04-26T13:42:18.000Z</time>
      </trkpt>
      <trkpt lat="43.75728" lon="7.25502">
        <ele>539</ele>
        <time>2018-04-26T13:42:19.000Z</time>
      </trkpt>
      <trkpt lat="43.75719" lon="7.25506">
        <ele>538</ele>
        <time>2018-04-26T13:42:22.000Z</time>
      </trkpt>
      <trkpt lat="43.75716" lon="7.25508">
        <ele>538</ele>
        <time>2018-04-26T13:42:23.000Z</time>
      </trkpt>
      <trkpt lat="43.75702" lon="7.25515">
        <ele>536</ele>
        <time>2018-04-26T13:42:27.000Z</time>
      </trkpt>
      <trkpt lat="43.75697" lon="7.25515">
        <ele>535</ele>
        <time>2018-04-26T13:42:29.000Z</time>
      </trkpt>
      <trkpt lat="43.75688" lon="7.25517">
        <ele>534</ele>
        <time>2018-04-26T13:42:31.000Z</time>
      </trkpt>
      <trkpt lat="43.75679" lon="7.25523">
        <ele>533</ele>
        <time>2018-04-26T13:42:33.000Z</time>
      </trkpt>
      <trkpt lat="43.75673" lon="7.25528">
        <ele>534</ele>
        <time>2018-04-26T13:42:35.000Z</time>
      </trkpt>
      <trkpt lat="43.75667" lon="7.25532">
        <ele>534</ele>
        <time>2018-04-26T13:42:36.000Z</time>
      </trkpt>
      <trkpt lat="43.75663" lon="7.25534">
        <ele>524</ele>
        <time>2018-04-26T13:42:37.000Z</time>
      </trkpt>
      <trkpt lat="43.7566" lon="7.25535">
        <ele>524</ele>
        <time>2018-04-26T13:42:38.000Z</time>
      </trkpt>
      <trkpt lat="43.75654" lon="7.25536">
        <ele>523</ele>
        <time>2018-04-26T13:42:40.000Z</time>
      </trkpt>
      <trkpt lat="43.75647" lon="7.25538">
        <ele>523</ele>
        <time>2018-04-26T13:42:42.000Z</time>
      </trkpt>
      <trkpt lat="43.75642" lon="7.25541">
        <ele>523</ele>
        <time>2018-04-26T13:42:44.000Z</time>
      </trkpt>
      <trkpt lat="43.75639" lon="7.25543">
        <ele>523</ele>
        <time>2018-04-26T13:42:45.000Z</time>
      </trkpt>
      <trkpt lat="43.75634" lon="7.25548">
        <ele>523</ele>
        <time>2018-04-26T13:42:47.000Z</time>
      </trkpt>
      <trkpt lat="43.75627" lon="7.25553">
        <ele>522</ele>
        <time>2018-04-26T13:42:49.000Z</time>
      </trkpt>
      <trkpt lat="43.75623" lon="7.25555">
        <ele>522</ele>
        <time>2018-04-26T13:42:50.000Z</time>
      </trkpt>
      <trkpt lat="43.75614" lon="7.25561">
        <ele>522</ele>
        <time>2018-04-26T13:42:52.000Z</time>
      </trkpt>
      <trkpt lat="43.75603" lon="7.25568">
        <ele>521</ele>
        <time>2018-04-26T13:42:55.000Z</time>
      </trkpt>
      <trkpt lat="43.75591" lon="7.25571">
        <ele>520</ele>
        <time>2018-04-26T13:42:58.000Z</time>
      </trkpt>
      <trkpt lat="43.75588" lon="7.25573">
        <ele>520</ele>
        <time>2018-04-26T13:42:59.000Z</time>
      </trkpt>
      <trkpt lat="43.75584" lon="7.25573">
        <ele>520</ele>
        <time>2018-04-26T13:43:00.000Z</time>
      </trkpt>
      <trkpt lat="43.75574" lon="7.25576">
        <ele>512</ele>
        <time>2018-04-26T13:43:02.000Z</time>
      </trkpt>
      <trkpt lat="43.7557" lon="7.25581">
        <ele>511</ele>
        <time>2018-04-26T13:43:03.000Z</time>
      </trkpt>
      <trkpt lat="43.75562" lon="7.25584">
        <ele>514</ele>
        <time>2018-04-26T13:43:05.000Z</time>
      </trkpt>
      <trkpt lat="43.75557" lon="7.25587">
        <ele>513</ele>
        <time>2018-04-26T13:43:07.000Z</time>
      </trkpt>
      <trkpt lat="43.75553" lon="7.25593">
        <ele>511</ele>
        <time>2018-04-26T13:43:09.000Z</time>
      </trkpt>
      <trkpt lat="43.75551" lon="7.25594">
        <ele>511</ele>
        <time>2018-04-26T13:43:10.000Z</time>
      </trkpt>
      <trkpt lat="43.75547" lon="7.256">
        <ele>510</ele>
        <time>2018-04-26T13:43:11.000Z</time>
      </trkpt>
      <trkpt lat="43.7554" lon="7.2561">
        <ele>509</ele>
        <time>2018-04-26T13:43:13.000Z</time>
      </trkpt>
      <trkpt lat="43.75537" lon="7.25616">
        <ele>509</ele>
        <time>2018-04-26T13:43:14.000Z</time>
      </trkpt>
      <trkpt lat="43.75534" lon="7.25624">
        <ele>509</ele>
        <time>2018-04-26T13:43:16.000Z</time>
      </trkpt>
      <trkpt lat="43.75529" lon="7.25641">
        <ele>509</ele>
        <time>2018-04-26T13:43:19.000Z</time>
      </trkpt>
      <trkpt lat="43.75528" lon="7.25646">
        <ele>508</ele>
        <time>2018-04-26T13:43:20.000Z</time>
      </trkpt>
      <trkpt lat="43.75527" lon="7.25656">
        <ele>508</ele>
        <time>2018-04-26T13:43:22.000Z</time>
      </trkpt>
      <trkpt lat="43.75527" lon="7.2567">
        <ele>508</ele>
        <time>2018-04-26T13:43:24.000Z</time>
      </trkpt>
      <trkpt lat="43.75526" lon="7.25677">
        <ele>508</ele>
        <time>2018-04-26T13:43:25.000Z</time>
      </trkpt>
      <trkpt lat="43.75525" lon="7.25692">
        <ele>508</ele>
        <time>2018-04-26T13:43:27.000Z</time>
      </trkpt>
      <trkpt lat="43.75523" lon="7.25698">
        <ele>508</ele>
        <time>2018-04-26T13:43:28.000Z</time>
      </trkpt>
      <trkpt lat="43.75521" lon="7.25703">
        <ele>508</ele>
        <time>2018-04-26T13:43:29.000Z</time>
      </trkpt>
      <trkpt lat="43.7552" lon="7.25707">
        <ele>508</ele>
        <time>2018-04-26T13:43:30.000Z</time>
      </trkpt>
      <trkpt lat="43.75517" lon="7.25712">
        <ele>507</ele>
        <time>2018-04-26T13:43:32.000Z</time>
      </trkpt>
      <trkpt lat="43.75515" lon="7.25714">
        <ele>507</ele>
        <time>2018-04-26T13:43:33.000Z</time>
      </trkpt>
      <trkpt lat="43.75503" lon="7.25718">
        <ele>506</ele>
        <time>2018-04-26T13:43:37.000Z</time>
      </trkpt>
      <trkpt lat="43.75498" lon="7.25725">
        <ele>497</ele>
        <time>2018-04-26T13:43:39.000Z</time>
      </trkpt>
      <trkpt lat="43.75494" lon="7.25731">
        <ele>498</ele>
        <time>2018-04-26T13:43:40.000Z</time>
      </trkpt>
      <trkpt lat="43.75491" lon="7.25736">
        <ele>498</ele>
        <time>2018-04-26T13:43:41.000Z</time>
      </trkpt>
      <trkpt lat="43.75488" lon="7.25746">
        <ele>498</ele>
        <time>2018-04-26T13:43:42.000Z</time>
      </trkpt>
      <trkpt lat="43.75487" lon="7.25754">
        <ele>499</ele>
        <time>2018-04-26T13:43:43.000Z</time>
      </trkpt>
      <trkpt lat="43.75486" lon="7.25763">
        <ele>499</ele>
        <time>2018-04-26T13:43:44.000Z</time>
      </trkpt>
      <trkpt lat="43.75484" lon="7.25772">
        <ele>499</ele>
        <time>2018-04-26T13:43:45.000Z</time>
      </trkpt>
      <trkpt lat="43.75481" lon="7.25778">
        <ele>498</ele>
        <time>2018-04-26T13:43:46.000Z</time>
      </trkpt>
      <trkpt lat="43.75472" lon="7.25782">
        <ele>498</ele>
        <time>2018-04-26T13:43:48.000Z</time>
      </trkpt>
      <trkpt lat="43.75455" lon="7.25792">
        <ele>498</ele>
        <time>2018-04-26T13:43:52.000Z</time>
      </trkpt>
      <trkpt lat="43.75452" lon="7.25796">
        <ele>498</ele>
        <time>2018-04-26T13:43:53.000Z</time>
      </trkpt>
      <trkpt lat="43.75447" lon="7.25798">
        <ele>498</ele>
        <time>2018-04-26T13:43:54.000Z</time>
      </trkpt>
      <trkpt lat="43.75439" lon="7.258">
        <ele>498</ele>
        <time>2018-04-26T13:43:56.000Z</time>
      </trkpt>
      <trkpt lat="43.75426" lon="7.25799">
        <ele>497</ele>
        <time>2018-04-26T13:44:00.000Z</time>
      </trkpt>
      <trkpt lat="43.75415" lon="7.25802">
        <ele>495</ele>
        <time>2018-04-26T13:44:04.000Z</time>
      </trkpt>
      <trkpt lat="43.75404" lon="7.25806">
        <ele>496</ele>
        <time>2018-04-26T13:44:09.000Z</time>
      </trkpt>
      <trkpt lat="43.75402" lon="7.25805">
        <ele>495</ele>
        <time>2018-04-26T13:44:10.000Z</time>
      </trkpt>
      <trkpt lat="43.754" lon="7.25804">
        <ele>495</ele>
        <time>2018-04-26T13:44:11.000Z</time>
      </trkpt>
      <trkpt lat="43.75395" lon="7.25801">
        <ele>495</ele>
        <time>2018-04-26T13:44:14.000Z</time>
      </trkpt>
      <trkpt lat="43.75383" lon="7.25798">
        <ele>495</ele>
        <time>2018-04-26T13:44:21.000Z</time>
      </trkpt>
      <trkpt lat="43.75372" lon="7.25792">
        <ele>494</ele>
        <time>2018-04-26T13:44:27.000Z</time>
      </trkpt>
      <trkpt lat="43.75366" lon="7.25783">
        <ele>494</ele>
        <time>2018-04-26T13:44:31.000Z</time>
      </trkpt>
      <trkpt lat="43.75362" lon="7.25784">
        <ele>494</ele>
        <time>2018-04-26T13:44:32.000Z</time>
      </trkpt>
      <trkpt lat="43.75355" lon="7.25782">
        <ele>494</ele>
        <time>2018-04-26T13:44:34.000Z</time>
      </trkpt>
      <trkpt lat="43.7535" lon="7.25782">
        <ele>493</ele>
        <time>2018-04-26T13:44:35.000Z</time>
      </trkpt>
      <trkpt lat="43.75345" lon="7.25784">
        <ele>493</ele>
        <time>2018-04-26T13:44:36.000Z</time>
      </trkpt>
      <trkpt lat="43.7534" lon="7.25787">
        <ele>494</ele>
        <time>2018-04-26T13:44:37.000Z</time>
      </trkpt>
      <trkpt lat="43.75333" lon="7.25797">
        <ele>490</ele>
        <time>2018-04-26T13:44:39.000Z</time>
      </trkpt>
      <trkpt lat="43.7533" lon="7.25804">
        <ele>490</ele>
        <time>2018-04-26T13:44:40.000Z</time>
      </trkpt>
      <trkpt lat="43.75327" lon="7.25808">
        <ele>491</ele>
        <time>2018-04-26T13:44:41.000Z</time>
      </trkpt>
      <trkpt lat="43.75314" lon="7.25814">
        <ele>490</ele>
        <time>2018-04-26T13:44:44.000Z</time>
      </trkpt>
      <trkpt lat="43.75302" lon="7.25821">
        <ele>490</ele>
        <time>2018-04-26T13:44:47.000Z</time>
      </trkpt>
      <trkpt lat="43.75298" lon="7.25824">
        <ele>489</ele>
        <time>2018-04-26T13:44:48.000Z</time>
      </trkpt>
      <trkpt lat="43.7529" lon="7.25828">
        <ele>489</ele>
        <time>2018-04-26T13:44:52.000Z</time>
      </trkpt>
      <trkpt lat="43.75282" lon="7.25835">
        <ele>493</ele>
        <time>2018-04-26T13:44:56.000Z</time>
      </trkpt>
      <trkpt lat="43.75269" lon="7.25837">
        <ele>491</ele>
        <time>2018-04-26T13:45:00.000Z</time>
      </trkpt>
      <trkpt lat="43.75265" lon="7.2584">
        <ele>491</ele>
        <time>2018-04-26T13:45:02.000Z</time>
      </trkpt>
      <trkpt lat="43.75262" lon="7.25843">
        <ele>491</ele>
        <time>2018-04-26T13:45:04.000Z</time>
      </trkpt>
      <trkpt lat="43.75252" lon="7.25853">
        <ele>491</ele>
        <time>2018-04-26T13:45:09.000Z</time>
      </trkpt>
      <trkpt lat="43.75236" lon="7.25853">
        <ele>487</ele>
        <time>2018-04-26T13:45:14.000Z</time>
      </trkpt>
      <trkpt lat="43.75217" lon="7.25858">
        <ele>487</ele>
        <time>2018-04-26T13:45:18.000Z</time>
      </trkpt>
      <trkpt lat="43.75211" lon="7.25859">
        <ele>486</ele>
        <time>2018-04-26T13:45:19.000Z</time>
      </trkpt>
      <trkpt lat="43.75206" lon="7.25862">
        <ele>486</ele>
        <time>2018-04-26T13:45:20.000Z</time>
      </trkpt>
      <trkpt lat="43.75196" lon="7.25867">
        <ele>486</ele>
        <time>2018-04-26T13:45:22.000Z</time>
      </trkpt>
      <trkpt lat="43.75191" lon="7.25868">
        <ele>486</ele>
        <time>2018-04-26T13:45:23.000Z</time>
      </trkpt>
      <trkpt lat="43.75185" lon="7.25868">
        <ele>485</ele>
        <time>2018-04-26T13:45:24.000Z</time>
      </trkpt>
      <trkpt lat="43.7518" lon="7.2587">
        <ele>485</ele>
        <time>2018-04-26T13:45:25.000Z</time>
      </trkpt>
      <trkpt lat="43.75165" lon="7.25873">
        <ele>480</ele>
        <time>2018-04-26T13:45:28.000Z</time>
      </trkpt>
      <trkpt lat="43.75157" lon="7.25873">
        <ele>480</ele>
        <time>2018-04-26T13:45:30.000Z</time>
      </trkpt>
      <trkpt lat="43.75149" lon="7.25872">
        <ele>480</ele>
        <time>2018-04-26T13:45:32.000Z</time>
      </trkpt>
      <trkpt lat="43.75139" lon="7.25872">
        <ele>479</ele>
        <time>2018-04-26T13:45:34.000Z</time>
      </trkpt>
      <trkpt lat="43.75129" lon="7.2587">
        <ele>479</ele>
        <time>2018-04-26T13:45:36.000Z</time>
      </trkpt>
      <trkpt lat="43.75123" lon="7.25873">
        <ele>479</ele>
        <time>2018-04-26T13:45:37.000Z</time>
      </trkpt>
      <trkpt lat="43.75118" lon="7.25874">
        <ele>479</ele>
        <time>2018-04-26T13:45:38.000Z</time>
      </trkpt>
      <trkpt lat="43.75112" lon="7.25873">
        <ele>478</ele>
        <time>2018-04-26T13:45:39.000Z</time>
      </trkpt>
      <trkpt lat="43.75102" lon="7.25874">
        <ele>478</ele>
        <time>2018-04-26T13:45:41.000Z</time>
      </trkpt>
      <trkpt lat="43.75096" lon="7.25875">
        <ele>478</ele>
        <time>2018-04-26T13:45:42.000Z</time>
      </trkpt>
      <trkpt lat="43.75091" lon="7.25876">
        <ele>478</ele>
        <time>2018-04-26T13:45:43.000Z</time>
      </trkpt>
      <trkpt lat="43.75086" lon="7.25874">
        <ele>478</ele>
        <time>2018-04-26T13:45:44.000Z</time>
      </trkpt>
      <trkpt lat="43.75078" lon="7.25866">
        <ele>474</ele>
        <time>2018-04-26T13:45:46.000Z</time>
      </trkpt>
      <trkpt lat="43.75074" lon="7.25862">
        <ele>473</ele>
        <time>2018-04-26T13:45:47.000Z</time>
      </trkpt>
      <trkpt lat="43.75069" lon="7.25859">
        <ele>473</ele>
        <time>2018-04-26T13:45:48.000Z</time>
      </trkpt>
      <trkpt lat="43.75058" lon="7.2586">
        <ele>473</ele>
        <time>2018-04-26T13:45:50.000Z</time>
      </trkpt>
      <trkpt lat="43.75053" lon="7.2586">
        <ele>473</ele>
        <time>2018-04-26T13:45:51.000Z</time>
      </trkpt>
      <trkpt lat="43.75048" lon="7.25858">
        <ele>473</ele>
        <time>2018-04-26T13:45:52.000Z</time>
      </trkpt>
      <trkpt lat="43.75034" lon="7.25857">
        <ele>472</ele>
        <time>2018-04-26T13:45:55.000Z</time>
      </trkpt>
      <trkpt lat="43.75025" lon="7.25858">
        <ele>472</ele>
        <time>2018-04-26T13:45:57.000Z</time>
      </trkpt>
      <trkpt lat="43.75017" lon="7.25856">
        <ele>472</ele>
        <time>2018-04-26T13:45:59.000Z</time>
      </trkpt>
      <trkpt lat="43.75009" lon="7.25853">
        <ele>471</ele>
        <time>2018-04-26T13:46:01.000Z</time>
      </trkpt>
      <trkpt lat="43.74997" lon="7.2585">
        <ele>469</ele>
        <time>2018-04-26T13:46:04.000Z</time>
      </trkpt>
      <trkpt lat="43.74993" lon="7.25851">
        <ele>469</ele>
        <time>2018-04-26T13:46:05.000Z</time>
      </trkpt>
      <trkpt lat="43.74989" lon="7.25851">
        <ele>469</ele>
        <time>2018-04-26T13:46:06.000Z</time>
      </trkpt>
      <trkpt lat="43.74981" lon="7.25854">
        <ele>469</ele>
        <time>2018-04-26T13:46:08.000Z</time>
      </trkpt>
      <trkpt lat="43.74974" lon="7.25855">
        <ele>469</ele>
        <time>2018-04-26T13:46:10.000Z</time>
      </trkpt>
      <trkpt lat="43.74972" lon="7.25854">
        <ele>469</ele>
        <time>2018-04-26T13:46:11.000Z</time>
      </trkpt>
      <trkpt lat="43.7497" lon="7.25851">
        <ele>469</ele>
        <time>2018-04-26T13:46:12.000Z</time>
      </trkpt>
      <trkpt lat="43.74958" lon="7.2584">
        <ele>469</ele>
        <time>2018-04-26T13:46:16.000Z</time>
      </trkpt>
      <trkpt lat="43.74949" lon="7.25839">
        <ele>468</ele>
        <time>2018-04-26T13:46:18.000Z</time>
      </trkpt>
      <trkpt lat="43.74941" lon="7.25837">
        <ele>468</ele>
        <time>2018-04-26T13:46:20.000Z</time>
      </trkpt>
      <trkpt lat="43.74921" lon="7.25837">
        <ele>467</ele>
        <time>2018-04-26T13:46:26.000Z</time>
      </trkpt>
      <trkpt lat="43.74911" lon="7.25838">
        <ele>466</ele>
        <time>2018-04-26T13:46:31.000Z</time>
      </trkpt>
      <trkpt lat="43.74898" lon="7.25841">
        <ele>467</ele>
        <time>2018-04-26T13:46:36.000Z</time>
      </trkpt>
      <trkpt lat="43.74874" lon="7.25841">
        <ele>467</ele>
        <time>2018-04-26T13:46:43.000Z</time>
      </trkpt>
      <trkpt lat="43.74854" lon="7.2584">
        <ele>467</ele>
        <time>2018-04-26T13:46:48.000Z</time>
      </trkpt>
      <trkpt lat="43.74837" lon="7.2584">
        <ele>467</ele>
        <time>2018-04-26T13:46:53.000Z</time>
      </trkpt>
      <trkpt lat="43.74813" lon="7.2584">
        <ele>465</ele>
        <time>2018-04-26T13:47:00.000Z</time>
      </trkpt>
      <trkpt lat="43.74796" lon="7.25839">
        <ele>464</ele>
        <time>2018-04-26T13:47:06.000Z</time>
      </trkpt>
      <trkpt lat="43.74781" lon="7.25842">
        <ele>463</ele>
        <time>2018-04-26T13:47:10.000Z</time>
      </trkpt>
      <trkpt lat="43.74778" lon="7.25843">
        <ele>463</ele>
        <time>2018-04-26T13:47:11.000Z</time>
      </trkpt>
      <trkpt lat="43.74773" lon="7.25845">
        <ele>462</ele>
        <time>2018-04-26T13:47:12.000Z</time>
      </trkpt>
      <trkpt lat="43.74762" lon="7.25847">
        <ele>462</ele>
        <time>2018-04-26T13:47:15.000Z</time>
      </trkpt>
      <trkpt lat="43.74749" lon="7.25857">
        <ele>456</ele>
        <time>2018-04-26T13:47:19.000Z</time>
      </trkpt>
      <trkpt lat="43.74743" lon="7.2586">
        <ele>455</ele>
        <time>2018-04-26T13:47:21.000Z</time>
      </trkpt>
      <trkpt lat="43.74727" lon="7.25872">
        <ele>453</ele>
        <time>2018-04-26T13:47:26.000Z</time>
      </trkpt>
      <trkpt lat="43.74724" lon="7.25873">
        <ele>453</ele>
        <time>2018-04-26T13:47:27.000Z</time>
      </trkpt>
      <trkpt lat="43.74721" lon="7.25873">
        <ele>453</ele>
        <time>2018-04-26T13:47:29.000Z</time>
      </trkpt>
      <trkpt lat="43.74716" lon="7.25876">
        <ele>452</ele>
        <time>2018-04-26T13:47:31.000Z</time>
      </trkpt>
      <trkpt lat="43.74711" lon="7.25879">
        <ele>452</ele>
        <time>2018-04-26T13:47:33.000Z</time>
      </trkpt>
      <trkpt lat="43.74712" lon="7.25882">
        <ele>452</ele>
        <time>2018-04-26T13:47:34.000Z</time>
      </trkpt>
      <trkpt lat="43.74712" lon="7.25887">
        <ele>452</ele>
        <time>2018-04-26T13:47:36.000Z</time>
      </trkpt>
      <trkpt lat="43.7471" lon="7.2589">
        <ele>451</ele>
        <time>2018-04-26T13:47:38.000Z</time>
      </trkpt>
      <trkpt lat="43.74709" lon="7.25889">
        <ele>451</ele>
        <time>2018-04-26T13:47:39.000Z</time>
      </trkpt>
      <trkpt lat="43.74705" lon="7.25889">
        <ele>451</ele>
        <time>2018-04-26T13:47:41.000Z</time>
      </trkpt>
      <trkpt lat="43.74699" lon="7.25885">
        <ele>450</ele>
        <time>2018-04-26T13:47:43.000Z</time>
      </trkpt>
      <trkpt lat="43.74697" lon="7.25885">
        <ele>450</ele>
        <time>2018-04-26T13:47:44.000Z</time>
      </trkpt>
      <trkpt lat="43.74693" lon="7.25885">
        <ele>450</ele>
        <time>2018-04-26T13:47:46.000Z</time>
      </trkpt>
      <trkpt lat="43.74691" lon="7.25886">
        <ele>450</ele>
        <time>2018-04-26T13:47:47.000Z</time>
      </trkpt>
      <trkpt lat="43.74689" lon="7.25887">
        <ele>450</ele>
        <time>2018-04-26T13:47:48.000Z</time>
      </trkpt>
      <trkpt lat="43.74687" lon="7.25889">
        <ele>449</ele>
        <time>2018-04-26T13:47:51.000Z</time>
      </trkpt>
      <trkpt lat="43.74686" lon="7.2589">
        <ele>449</ele>
        <time>2018-04-26T13:47:52.000Z</time>
      </trkpt>
      <trkpt lat="43.74685" lon="7.2589">
        <ele>449</ele>
        <time>2018-04-26T13:47:53.000Z</time>
      </trkpt>
      <trkpt lat="43.74683" lon="7.25888">
        <ele>449</ele>
        <time>2018-04-26T13:47:55.000Z</time>
      </trkpt>
      <trkpt lat="43.74683" lon="7.25883">
        <ele>449</ele>
        <time>2018-04-26T13:47:57.000Z</time>
      </trkpt>
      <trkpt lat="43.74683" lon="7.2587">
        <ele>449</ele>
        <time>2018-04-26T13:48:00.000Z</time>
      </trkpt>
      <trkpt lat="43.7468" lon="7.25866">
        <ele>449</ele>
        <time>2018-04-26T13:48:01.000Z</time>
      </trkpt>
      <trkpt lat="43.74671" lon="7.25859">
        <ele>448</ele>
        <time>2018-04-26T13:48:03.000Z</time>
      </trkpt>
      <trkpt lat="43.74663" lon="7.25851">
        <ele>441</ele>
        <time>2018-04-26T13:48:05.000Z</time>
      </trkpt>
      <trkpt lat="43.74653" lon="7.25844">
        <ele>441</ele>
        <time>2018-04-26T13:48:08.000Z</time>
      </trkpt>
      <trkpt lat="43.74651" lon="7.25845">
        <ele>440</ele>
        <time>2018-04-26T13:48:09.000Z</time>
      </trkpt>
      <trkpt lat="43.74638" lon="7.25855">
        <ele>439</ele>
        <time>2018-04-26T13:48:13.000Z</time>
      </trkpt>
      <trkpt lat="43.74634" lon="7.25857">
        <ele>438</ele>
        <time>2018-04-26T13:48:14.000Z</time>
      </trkpt>
      <trkpt lat="43.74626" lon="7.25861">
        <ele>437</ele>
        <time>2018-04-26T13:48:16.000Z</time>
      </trkpt>
      <trkpt lat="43.74622" lon="7.25862">
        <ele>437</ele>
        <time>2018-04-26T13:48:18.000Z</time>
      </trkpt>
      <trkpt lat="43.74622" lon="7.25862">
        <ele>437</ele>
        <time>2018-04-26T13:48:22.000Z</time>
      </trkpt>
      <trkpt lat="43.74621" lon="7.25862">
        <ele>437</ele>
        <time>2018-04-26T13:48:34.000Z</time>
      </trkpt>
      <trkpt lat="43.74621" lon="7.25862">
        <ele>437</ele>
        <time>2018-04-26T13:48:41.000Z</time>
      </trkpt>
      <trkpt lat="43.7462" lon="7.25862">
        <ele>437</ele>
        <time>2018-04-26T13:48:53.000Z</time>
      </trkpt>
      <trkpt lat="43.7462" lon="7.25862">
        <ele>437</ele>
        <time>2018-04-26T13:49:03.000Z</time>
      </trkpt>
      <trkpt lat="43.74619" lon="7.25862">
        <ele>437</ele>
        <time>2018-04-26T13:49:19.000Z</time>
      </trkpt>
      <trkpt lat="43.74619" lon="7.25864">
        <ele>437</ele>
        <time>2018-04-26T13:49:21.000Z</time>
      </trkpt>
      <trkpt lat="43.74615" lon="7.25868">
        <ele>437</ele>
        <time>2018-04-26T13:49:24.000Z</time>
      </trkpt>
      <trkpt lat="43.74602" lon="7.25874">
        <ele>436</ele>
        <time>2018-04-26T13:49:30.000Z</time>
      </trkpt>
      <trkpt lat="43.74598" lon="7.25874">
        <ele>435</ele>
        <time>2018-04-26T13:49:32.000Z</time>
      </trkpt>
      <trkpt lat="43.74593" lon="7.25873">
        <ele>435</ele>
        <time>2018-04-26T13:49:34.000Z</time>
      </trkpt>
      <trkpt lat="43.74591" lon="7.25872">
        <ele>435</ele>
        <time>2018-04-26T13:49:35.000Z</time>
      </trkpt>
      <trkpt lat="43.74587" lon="7.25871">
        <ele>435</ele>
        <time>2018-04-26T13:49:37.000Z</time>
      </trkpt>
      <trkpt lat="43.74582" lon="7.25871">
        <ele>424</ele>
        <time>2018-04-26T13:49:39.000Z</time>
      </trkpt>
      <trkpt lat="43.74579" lon="7.2587">
        <ele>424</ele>
        <time>2018-04-26T13:49:40.000Z</time>
      </trkpt>
      <trkpt lat="43.74577" lon="7.2587">
        <ele>424</ele>
        <time>2018-04-26T13:49:41.000Z</time>
      </trkpt>
      <trkpt lat="43.74573" lon="7.25873">
        <ele>423</ele>
        <time>2018-04-26T13:49:43.000Z</time>
      </trkpt>
      <trkpt lat="43.74571" lon="7.25872">
        <ele>423</ele>
        <time>2018-04-26T13:49:44.000Z</time>
      </trkpt>
      <trkpt lat="43.74569" lon="7.25871">
        <ele>423</ele>
        <time>2018-04-26T13:49:45.000Z</time>
      </trkpt>
      <trkpt lat="43.74564" lon="7.2587">
        <ele>422</ele>
        <time>2018-04-26T13:49:47.000Z</time>
      </trkpt>
      <trkpt lat="43.74559" lon="7.25869">
        <ele>422</ele>
        <time>2018-04-26T13:49:49.000Z</time>
      </trkpt>
      <trkpt lat="43.74553" lon="7.25867">
        <ele>421</ele>
        <time>2018-04-26T13:49:51.000Z</time>
      </trkpt>
      <trkpt lat="43.74549" lon="7.2587">
        <ele>420</ele>
        <time>2018-04-26T13:49:53.000Z</time>
      </trkpt>
      <trkpt lat="43.74548" lon="7.25878">
        <ele>420</ele>
        <time>2018-04-26T13:49:55.000Z</time>
      </trkpt>
      <trkpt lat="43.74548" lon="7.25881">
        <ele>420</ele>
        <time>2018-04-26T13:49:56.000Z</time>
      </trkpt>
      <trkpt lat="43.74546" lon="7.25888">
        <ele>420</ele>
        <time>2018-04-26T13:49:58.000Z</time>
      </trkpt>
      <trkpt lat="43.74546" lon="7.25894">
        <ele>420</ele>
        <time>2018-04-26T13:50:00.000Z</time>
      </trkpt>
      <trkpt lat="43.74547" lon="7.25898">
        <ele>420</ele>
        <time>2018-04-26T13:50:01.000Z</time>
      </trkpt>
      <trkpt lat="43.74547" lon="7.25902">
        <ele>420</ele>
        <time>2018-04-26T13:50:02.000Z</time>
      </trkpt>
      <trkpt lat="43.74549" lon="7.2591">
        <ele>420</ele>
        <time>2018-04-26T13:50:04.000Z</time>
      </trkpt>
      <trkpt lat="43.7455" lon="7.25914">
        <ele>420</ele>
        <time>2018-04-26T13:50:05.000Z</time>
      </trkpt>
      <trkpt lat="43.74548" lon="7.25917">
        <ele>413</ele>
        <time>2018-04-26T13:50:06.000Z</time>
      </trkpt>
      <trkpt lat="43.74545" lon="7.25918">
        <ele>413</ele>
        <time>2018-04-26T13:50:08.000Z</time>
      </trkpt>
      <trkpt lat="43.74545" lon="7.25922">
        <ele>412</ele>
        <time>2018-04-26T13:50:10.000Z</time>
      </trkpt>
      <trkpt lat="43.74545" lon="7.25925">
        <ele>412</ele>
        <time>2018-04-26T13:50:11.000Z</time>
      </trkpt>
      <trkpt lat="43.74543" lon="7.25927">
        <ele>412</ele>
        <time>2018-04-26T13:50:12.000Z</time>
      </trkpt>
      <trkpt lat="43.74539" lon="7.25929">
        <ele>411</ele>
        <time>2018-04-26T13:50:14.000Z</time>
      </trkpt>
      <trkpt lat="43.74535" lon="7.25931">
        <ele>410</ele>
        <time>2018-04-26T13:50:16.000Z</time>
      </trkpt>
      <trkpt lat="43.7453" lon="7.25936">
        <ele>409</ele>
        <time>2018-04-26T13:50:18.000Z</time>
      </trkpt>
      <trkpt lat="43.74528" lon="7.25937">
        <ele>408</ele>
        <time>2018-04-26T13:50:19.000Z</time>
      </trkpt>
      <trkpt lat="43.74528" lon="7.25939">
        <ele>408</ele>
        <time>2018-04-26T13:50:20.000Z</time>
      </trkpt>
      <trkpt lat="43.74526" lon="7.25944">
        <ele>408</ele>
        <time>2018-04-26T13:50:22.000Z</time>
      </trkpt>
      <trkpt lat="43.74522" lon="7.25946">
        <ele>407</ele>
        <time>2018-04-26T13:50:24.000Z</time>
      </trkpt>
      <trkpt lat="43.74518" lon="7.25947">
        <ele>407</ele>
        <time>2018-04-26T13:50:25.000Z</time>
      </trkpt>
      <trkpt lat="43.74515" lon="7.25947">
        <ele>406</ele>
        <time>2018-04-26T13:50:26.000Z</time>
      </trkpt>
      <trkpt lat="43.74512" lon="7.25948">
        <ele>406</ele>
        <time>2018-04-26T13:50:27.000Z</time>
      </trkpt>
      <trkpt lat="43.74509" lon="7.25946">
        <ele>406</ele>
        <time>2018-04-26T13:50:28.000Z</time>
      </trkpt>
      <trkpt lat="43.74508" lon="7.25947">
        <ele>406</ele>
        <time>2018-04-26T13:50:29.000Z</time>
      </trkpt>
      <trkpt lat="43.74507" lon="7.25949">
        <ele>406</ele>
        <time>2018-04-26T13:50:30.000Z</time>
      </trkpt>
      <trkpt lat="43.74505" lon="7.25951">
        <ele>405</ele>
        <time>2018-04-26T13:50:31.000Z</time>
      </trkpt>
      <trkpt lat="43.74502" lon="7.25952">
        <ele>405</ele>
        <time>2018-04-26T13:50:32.000Z</time>
      </trkpt>
      <trkpt lat="43.74501" lon="7.2595">
        <ele>405</ele>
        <time>2018-04-26T13:50:33.000Z</time>
      </trkpt>
      <trkpt lat="43.74499" lon="7.25951">
        <ele>391</ele>
        <time>2018-04-26T13:50:34.000Z</time>
      </trkpt>
      <trkpt lat="43.74492" lon="7.25951">
        <ele>390</ele>
        <time>2018-04-26T13:50:37.000Z</time>
      </trkpt>
      <trkpt lat="43.74489" lon="7.25952">
        <ele>390</ele>
        <time>2018-04-26T13:50:38.000Z</time>
      </trkpt>
      <trkpt lat="43.74487" lon="7.25952">
        <ele>390</ele>
        <time>2018-04-26T13:50:39.000Z</time>
      </trkpt>
      <trkpt lat="43.74486" lon="7.25952">
        <ele>389</ele>
        <time>2018-04-26T13:50:40.000Z</time>
      </trkpt>
      <trkpt lat="43.74485" lon="7.25954">
        <ele>389</ele>
        <time>2018-04-26T13:50:41.000Z</time>
      </trkpt>
      <trkpt lat="43.7448" lon="7.25956">
        <ele>388</ele>
        <time>2018-04-26T13:50:43.000Z</time>
      </trkpt>
      <trkpt lat="43.74478" lon="7.25955">
        <ele>388</ele>
        <time>2018-04-26T13:50:44.000Z</time>
      </trkpt>
      <trkpt lat="43.74477" lon="7.25957">
        <ele>388</ele>
        <time>2018-04-26T13:50:45.000Z</time>
      </trkpt>
      <trkpt lat="43.74474" lon="7.25958">
        <ele>387</ele>
        <time>2018-04-26T13:50:46.000Z</time>
      </trkpt>
      <trkpt lat="43.7447" lon="7.25962">
        <ele>386</ele>
        <time>2018-04-26T13:50:48.000Z</time>
      </trkpt>
      <trkpt lat="43.74466" lon="7.25964">
        <ele>386</ele>
        <time>2018-04-26T13:50:50.000Z</time>
      </trkpt>
      <trkpt lat="43.74463" lon="7.25964">
        <ele>385</ele>
        <time>2018-04-26T13:50:52.000Z</time>
      </trkpt>
      <trkpt lat="43.74459" lon="7.25965">
        <ele>385</ele>
        <time>2018-04-26T13:50:54.000Z</time>
      </trkpt>
      <trkpt lat="43.74454" lon="7.25965">
        <ele>384</ele>
        <time>2018-04-26T13:50:56.000Z</time>
      </trkpt>
      <trkpt lat="43.74449" lon="7.25966">
        <ele>383</ele>
        <time>2018-04-26T13:50:58.000Z</time>
      </trkpt>
      <trkpt lat="43.74445" lon="7.25961">
        <ele>383</ele>
        <time>2018-04-26T13:51:00.000Z</time>
      </trkpt>
      <trkpt lat="43.74444" lon="7.25962">
        <ele>383</ele>
        <time>2018-04-26T13:51:01.000Z</time>
      </trkpt>
      <trkpt lat="43.74445" lon="7.25966">
        <ele>382</ele>
        <time>2018-04-26T13:51:03.000Z</time>
      </trkpt>
      <trkpt lat="43.74447" lon="7.2597">
        <ele>382</ele>
        <time>2018-04-26T13:51:04.000Z</time>
      </trkpt>
      <trkpt lat="43.74449" lon="7.25973">
        <ele>382</ele>
        <time>2018-04-26T13:51:05.000Z</time>
      </trkpt>
      <trkpt lat="43.74452" lon="7.25975">
        <ele>383</ele>
        <time>2018-04-26T13:51:06.000Z</time>
      </trkpt>
      <trkpt lat="43.74456" lon="7.25977">
        <ele>383</ele>
        <time>2018-04-26T13:51:07.000Z</time>
      </trkpt>
      <trkpt lat="43.74462" lon="7.25987">
        <ele>384</ele>
        <time>2018-04-26T13:51:09.000Z</time>
      </trkpt>
      <trkpt lat="43.74464" lon="7.25993">
        <ele>384</ele>
        <time>2018-04-26T13:51:10.000Z</time>
      </trkpt>
      <trkpt lat="43.74468" lon="7.26005">
        <ele>375</ele>
        <time>2018-04-26T13:51:12.000Z</time>
      </trkpt>
      <trkpt lat="43.7447" lon="7.26013">
        <ele>375</ele>
        <time>2018-04-26T13:51:13.000Z</time>
      </trkpt>
      <trkpt lat="43.74472" lon="7.26019">
        <ele>375</ele>
        <time>2018-04-26T13:51:14.000Z</time>
      </trkpt>
      <trkpt lat="43.74474" lon="7.26025">
        <ele>374</ele>
        <time>2018-04-26T13:51:15.000Z</time>
      </trkpt>
      <trkpt lat="43.74478" lon="7.26038">
        <ele>373</ele>
        <time>2018-04-26T13:51:17.000Z</time>
      </trkpt>
      <trkpt lat="43.74484" lon="7.26054">
        <ele>372</ele>
        <time>2018-04-26T13:51:19.000Z</time>
      </trkpt>
      <trkpt lat="43.7449" lon="7.26069">
        <ele>370</ele>
        <time>2018-04-26T13:51:21.000Z</time>
      </trkpt>
      <trkpt lat="43.74495" lon="7.26078">
        <ele>370</ele>
        <time>2018-04-26T13:51:23.000Z</time>
      </trkpt>
      <trkpt lat="43.74504" lon="7.26089">
        <ele>368</ele>
        <time>2018-04-26T13:51:25.000Z</time>
      </trkpt>
      <trkpt lat="43.74507" lon="7.26095">
        <ele>367</ele>
        <time>2018-04-26T13:51:26.000Z</time>
      </trkpt>
      <trkpt lat="43.74513" lon="7.26103">
        <ele>366</ele>
        <time>2018-04-26T13:51:27.000Z</time>
      </trkpt>
      <trkpt lat="43.74519" lon="7.2611">
        <ele>366</ele>
        <time>2018-04-26T13:51:28.000Z</time>
      </trkpt>
      <trkpt lat="43.74532" lon="7.26123">
        <ele>364</ele>
        <time>2018-04-26T13:51:30.000Z</time>
      </trkpt>
      <trkpt lat="43.74538" lon="7.26129">
        <ele>364</ele>
        <time>2018-04-26T13:51:31.000Z</time>
      </trkpt>
      <trkpt lat="43.74544" lon="7.26136">
        <ele>363</ele>
        <time>2018-04-26T13:51:32.000Z</time>
      </trkpt>
      <trkpt lat="43.7455" lon="7.26142">
        <ele>362</ele>
        <time>2018-04-26T13:51:33.000Z</time>
      </trkpt>
      <trkpt lat="43.74557" lon="7.26153">
        <ele>361</ele>
        <time>2018-04-26T13:51:35.000Z</time>
      </trkpt>
      <trkpt lat="43.74559" lon="7.26156">
        <ele>360</ele>
        <time>2018-04-26T13:51:36.000Z</time>
      </trkpt>
      <trkpt lat="43.74562" lon="7.26159">
        <ele>360</ele>
        <time>2018-04-26T13:51:37.000Z</time>
      </trkpt>
      <trkpt lat="43.74567" lon="7.26163">
        <ele>359</ele>
        <time>2018-04-26T13:51:39.000Z</time>
      </trkpt>
      <trkpt lat="43.74569" lon="7.26167">
        <ele>350</ele>
        <time>2018-04-26T13:51:40.000Z</time>
      </trkpt>
      <trkpt lat="43.74568" lon="7.26174">
        <ele>349</ele>
        <time>2018-04-26T13:51:42.000Z</time>
      </trkpt>
      <trkpt lat="43.74565" lon="7.26174">
        <ele>349</ele>
        <time>2018-04-26T13:51:43.000Z</time>
      </trkpt>
      <trkpt lat="43.74565" lon="7.26173">
        <ele>349</ele>
        <time>2018-04-26T13:51:44.000Z</time>
      </trkpt>
      <trkpt lat="43.74565" lon="7.26176">
        <ele>349</ele>
        <time>2018-04-26T13:51:46.000Z</time>
      </trkpt>
      <trkpt lat="43.74568" lon="7.26178">
        <ele>349</ele>
        <time>2018-04-26T13:51:49.000Z</time>
      </trkpt>
      <trkpt lat="43.74568" lon="7.26181">
        <ele>349</ele>
        <time>2018-04-26T13:51:50.000Z</time>
      </trkpt>
      <trkpt lat="43.74563" lon="7.26185">
        <ele>348</ele>
        <time>2018-04-26T13:51:53.000Z</time>
      </trkpt>
      <trkpt lat="43.74562" lon="7.26189">
        <ele>347</ele>
        <time>2018-04-26T13:51:55.000Z</time>
      </trkpt>
      <trkpt lat="43.7456" lon="7.26192">
        <ele>347</ele>
        <time>2018-04-26T13:51:56.000Z</time>
      </trkpt>
      <trkpt lat="43.74557" lon="7.26193">
        <ele>346</ele>
        <time>2018-04-26T13:51:57.000Z</time>
      </trkpt>
      <trkpt lat="43.74556" lon="7.26199">
        <ele>346</ele>
        <time>2018-04-26T13:51:59.000Z</time>
      </trkpt>
      <trkpt lat="43.74555" lon="7.26202">
        <ele>345</ele>
        <time>2018-04-26T13:52:00.000Z</time>
      </trkpt>
      <trkpt lat="43.74554" lon="7.26206">
        <ele>345</ele>
        <time>2018-04-26T13:52:01.000Z</time>
      </trkpt>
      <trkpt lat="43.74551" lon="7.26207">
        <ele>345</ele>
        <time>2018-04-26T13:52:02.000Z</time>
      </trkpt>
      <trkpt lat="43.74549" lon="7.26207">
        <ele>345</ele>
        <time>2018-04-26T13:52:03.000Z</time>
      </trkpt>
      <trkpt lat="43.74546" lon="7.26207">
        <ele>344</ele>
        <time>2018-04-26T13:52:04.000Z</time>
      </trkpt>
      <trkpt lat="43.74546" lon="7.26209">
        <ele>344</ele>
        <time>2018-04-26T13:52:05.000Z</time>
      </trkpt>
      <trkpt lat="43.74546" lon="7.26215">
        <ele>344</ele>
        <time>2018-04-26T13:52:07.000Z</time>
      </trkpt>
      <trkpt lat="43.74547" lon="7.26218">
        <ele>343</ele>
        <time>2018-04-26T13:52:08.000Z</time>
      </trkpt>
      <trkpt lat="43.74549" lon="7.26224">
        <ele>343</ele>
        <time>2018-04-26T13:52:10.000Z</time>
      </trkpt>
      <trkpt lat="43.74549" lon="7.26227">
        <ele>342</ele>
        <time>2018-04-26T13:52:11.000Z</time>
      </trkpt>
      <trkpt lat="43.74546" lon="7.26233">
        <ele>342</ele>
        <time>2018-04-26T13:52:12.000Z</time>
      </trkpt>
      <trkpt lat="43.74544" lon="7.26238">
        <ele>341</ele>
        <time>2018-04-26T13:52:13.000Z</time>
      </trkpt>
      <trkpt lat="43.74539" lon="7.26248">
        <ele>341</ele>
        <time>2018-04-26T13:52:14.000Z</time>
      </trkpt>
      <trkpt lat="43.74527" lon="7.26252">
        <ele>328</ele>
        <time>2018-04-26T13:52:16.000Z</time>
      </trkpt>
      <trkpt lat="43.74519" lon="7.26254">
        <ele>328</ele>
        <time>2018-04-26T13:52:17.000Z</time>
      </trkpt>
      <trkpt lat="43.74511" lon="7.26259">
        <ele>329</ele>
        <time>2018-04-26T13:52:18.000Z</time>
      </trkpt>
      <trkpt lat="43.74504" lon="7.26266">
        <ele>328</ele>
        <time>2018-04-26T13:52:19.000Z</time>
      </trkpt>
      <trkpt lat="43.74499" lon="7.26276">
        <ele>325</ele>
        <time>2018-04-26T13:52:20.000Z</time>
      </trkpt>
      <trkpt lat="43.74492" lon="7.26286">
        <ele>323</ele>
        <time>2018-04-26T13:52:21.000Z</time>
      </trkpt>
      <trkpt lat="43.74485" lon="7.26297">
        <ele>321</ele>
        <time>2018-04-26T13:52:22.000Z</time>
      </trkpt>
      <trkpt lat="43.74479" lon="7.26307">
        <ele>320</ele>
        <time>2018-04-26T13:52:23.000Z</time>
      </trkpt>
      <trkpt lat="43.74472" lon="7.26316">
        <ele>319</ele>
        <time>2018-04-26T13:52:24.000Z</time>
      </trkpt>
      <trkpt lat="43.74466" lon="7.26323">
        <ele>319</ele>
        <time>2018-04-26T13:52:25.000Z</time>
      </trkpt>
      <trkpt lat="43.7446" lon="7.26327">
        <ele>319</ele>
        <time>2018-04-26T13:52:26.000Z</time>
      </trkpt>
      <trkpt lat="43.74452" lon="7.26328">
        <ele>319</ele>
        <time>2018-04-26T13:52:27.000Z</time>
      </trkpt>
      <trkpt lat="43.74445" lon="7.26327">
        <ele>319</ele>
        <time>2018-04-26T13:52:28.000Z</time>
      </trkpt>
      <trkpt lat="43.74438" lon="7.26325">
        <ele>319</ele>
        <time>2018-04-26T13:52:29.000Z</time>
      </trkpt>
      <trkpt lat="43.74428" lon="7.26329">
        <ele>318</ele>
        <time>2018-04-26T13:52:31.000Z</time>
      </trkpt>
      <trkpt lat="43.74424" lon="7.26334">
        <ele>314</ele>
        <time>2018-04-26T13:52:32.000Z</time>
      </trkpt>
      <trkpt lat="43.74422" lon="7.26337">
        <ele>314</ele>
        <time>2018-04-26T13:52:33.000Z</time>
      </trkpt>
      <trkpt lat="43.74413" lon="7.26341">
        <ele>316</ele>
        <time>2018-04-26T13:52:36.000Z</time>
      </trkpt>
      <trkpt lat="43.74412" lon="7.26348">
        <ele>316</ele>
        <time>2018-04-26T13:52:39.000Z</time>
      </trkpt>
      <trkpt lat="43.74417" lon="7.26345">
        <ele>316</ele>
        <time>2018-04-26T13:52:41.000Z</time>
      </trkpt>
      <trkpt lat="43.74418" lon="7.26342">
        <ele>313</ele>
        <time>2018-04-26T13:52:42.000Z</time>
      </trkpt>
      <trkpt lat="43.74422" lon="7.26337">
        <ele>314</ele>
        <time>2018-04-26T13:52:47.000Z</time>
      </trkpt>
      <trkpt lat="43.74423" lon="7.26338">
        <ele>313</ele>
        <time>2018-04-26T13:52:55.000Z</time>
      </trkpt>
      <trkpt lat="43.74424" lon="7.26339">
        <ele>313</ele>
        <time>2018-04-26T13:53:09.000Z</time>
      </trkpt>
      <trkpt lat="43.74423" lon="7.2634">
        <ele>313</ele>
        <time>2018-04-26T13:53:17.000Z</time>
      </trkpt>
      <trkpt lat="43.74423" lon="7.2634">
        <ele>313</ele>
        <time>2018-04-26T13:53:27.000Z</time>
      </trkpt>
      <trkpt lat="43.74425" lon="7.26341">
        <ele>313</ele>
        <time>2018-04-26T13:53:31.000Z</time>
      </trkpt>
      <trkpt lat="43.74425" lon="7.26343">
        <ele>312</ele>
        <time>2018-04-26T13:53:32.000Z</time>
      </trkpt>
      <trkpt lat="43.74421" lon="7.26346">
        <ele>312</ele>
        <time>2018-04-26T13:53:36.000Z</time>
      </trkpt>
      <trkpt lat="43.74419" lon="7.26345">
        <ele>312</ele>
        <time>2018-04-26T13:53:37.000Z</time>
      </trkpt>
      <trkpt lat="43.74411" lon="7.26347">
        <ele>316</ele>
        <time>2018-04-26T13:53:41.000Z</time>
      </trkpt>
      <trkpt lat="43.74394" lon="7.2635">
        <ele>316</ele>
        <time>2018-04-26T13:53:47.000Z</time>
      </trkpt>
      <trkpt lat="43.74381" lon="7.26353">
        <ele>316</ele>
        <time>2018-04-26T13:53:52.000Z</time>
      </trkpt>
      <trkpt lat="43.74376" lon="7.26353">
        <ele>316</ele>
        <time>2018-04-26T13:53:54.000Z</time>
      </trkpt>
      <trkpt lat="43.74358" lon="7.26355">
        <ele>317</ele>
        <time>2018-04-26T13:54:00.000Z</time>
      </trkpt>
      <trkpt lat="43.74356" lon="7.26353">
        <ele>317</ele>
        <time>2018-04-26T13:54:01.000Z</time>
      </trkpt>
      <trkpt lat="43.74356" lon="7.26348">
        <ele>317</ele>
        <time>2018-04-26T13:54:03.000Z</time>
      </trkpt>
      <trkpt lat="43.74356" lon="7.26349">
        <ele>317</ele>
        <time>2018-04-26T13:54:06.000Z</time>
      </trkpt>
      <trkpt lat="43.74356" lon="7.26349">
        <ele>317</ele>
        <time>2018-04-26T13:54:07.000Z</time>
      </trkpt>
      <trkpt lat="43.74354" lon="7.2635">
        <ele>317</ele>
        <time>2018-04-26T13:54:15.000Z</time>
      </trkpt>
      <trkpt lat="43.74353" lon="7.26352">
        <ele>317</ele>
        <time>2018-04-26T13:54:23.000Z</time>
      </trkpt>
      <trkpt lat="43.74351" lon="7.26356">
        <ele>317</ele>
        <time>2018-04-26T13:54:31.000Z</time>
      </trkpt>
      <trkpt lat="43.7435" lon="7.26356">
        <ele>317</ele>
        <time>2018-04-26T13:54:38.000Z</time>
      </trkpt>
      <trkpt lat="43.7435" lon="7.26354">
        <ele>317</ele>
        <time>2018-04-26T13:54:45.000Z</time>
      </trkpt>
      <trkpt lat="43.74348" lon="7.26353">
        <ele>317</ele>
        <time>2018-04-26T13:54:50.000Z</time>
      </trkpt>
      <trkpt lat="43.7434" lon="7.26346">
        <ele>317</ele>
        <time>2018-04-26T13:54:55.000Z</time>
      </trkpt>
      <trkpt lat="43.74326" lon="7.26352">
        <ele>316</ele>
        <time>2018-04-26T13:54:59.000Z</time>
      </trkpt>
      <trkpt lat="43.74314" lon="7.26356">
        <ele>316</ele>
        <time>2018-04-26T13:55:01.000Z</time>
      </trkpt>
      <trkpt lat="43.74299" lon="7.2636">
        <ele>315</ele>
        <time>2018-04-26T13:55:03.000Z</time>
      </trkpt>
      <trkpt lat="43.74284" lon="7.26363">
        <ele>314</ele>
        <time>2018-04-26T13:55:05.000Z</time>
      </trkpt>
      <trkpt lat="43.74265" lon="7.26367">
        <ele>313</ele>
        <time>2018-04-26T13:55:07.000Z</time>
      </trkpt>
      <trkpt lat="43.74255" lon="7.26369">
        <ele>313</ele>
        <time>2018-04-26T13:55:08.000Z</time>
      </trkpt>
      <trkpt lat="43.74245" lon="7.26368">
        <ele>306</ele>
        <time>2018-04-26T13:55:09.000Z</time>
      </trkpt>
      <trkpt lat="43.74235" lon="7.26366">
        <ele>306</ele>
        <time>2018-04-26T13:55:10.000Z</time>
      </trkpt>
      <trkpt lat="43.74225" lon="7.26365">
        <ele>305</ele>
        <time>2018-04-26T13:55:11.000Z</time>
      </trkpt>
      <trkpt lat="43.74215" lon="7.26364">
        <ele>305</ele>
        <time>2018-04-26T13:55:12.000Z</time>
      </trkpt>
      <trkpt lat="43.74204" lon="7.26366">
        <ele>304</ele>
        <time>2018-04-26T13:55:13.000Z</time>
      </trkpt>
      <trkpt lat="43.74192" lon="7.26367">
        <ele>303</ele>
        <time>2018-04-26T13:55:14.000Z</time>
      </trkpt>
      <trkpt lat="43.7418" lon="7.26366">
        <ele>302</ele>
        <time>2018-04-26T13:55:15.000Z</time>
      </trkpt>
      <trkpt lat="43.74171" lon="7.26364">
        <ele>301</ele>
        <time>2018-04-26T13:55:16.000Z</time>
      </trkpt>
      <trkpt lat="43.74152" lon="7.26351">
        <ele>296</ele>
        <time>2018-04-26T13:55:18.000Z</time>
      </trkpt>
      <trkpt lat="43.74137" lon="7.26329">
        <ele>292</ele>
        <time>2018-04-26T13:55:20.000Z</time>
      </trkpt>
      <trkpt lat="43.7413" lon="7.26318">
        <ele>291</ele>
        <time>2018-04-26T13:55:21.000Z</time>
      </trkpt>
      <trkpt lat="43.74122" lon="7.26306">
        <ele>290</ele>
        <time>2018-04-26T13:55:22.000Z</time>
      </trkpt>
      <trkpt lat="43.74115" lon="7.26295">
        <ele>290</ele>
        <time>2018-04-26T13:55:23.000Z</time>
      </trkpt>
      <trkpt lat="43.74105" lon="7.26285">
        <ele>289</ele>
        <time>2018-04-26T13:55:24.000Z</time>
      </trkpt>
      <trkpt lat="43.74095" lon="7.26278">
        <ele>287</ele>
        <time>2018-04-26T13:55:25.000Z</time>
      </trkpt>
      <trkpt lat="43.74073" lon="7.26271">
        <ele>282</ele>
        <time>2018-04-26T13:55:27.000Z</time>
      </trkpt>
      <trkpt lat="43.74061" lon="7.26267">
        <ele>281</ele>
        <time>2018-04-26T13:55:28.000Z</time>
      </trkpt>
      <trkpt lat="43.7405" lon="7.26262">
        <ele>281</ele>
        <time>2018-04-26T13:55:29.000Z</time>
      </trkpt>
      <trkpt lat="43.74037" lon="7.26256">
        <ele>280</ele>
        <time>2018-04-26T13:55:30.000Z</time>
      </trkpt>
      <trkpt lat="43.74026" lon="7.26251">
        <ele>278</ele>
        <time>2018-04-26T13:55:31.000Z</time>
      </trkpt>
      <trkpt lat="43.74013" lon="7.26246">
        <ele>273</ele>
        <time>2018-04-26T13:55:32.000Z</time>
      </trkpt>
      <trkpt lat="43.74003" lon="7.26244">
        <ele>273</ele>
        <time>2018-04-26T13:55:33.000Z</time>
      </trkpt>
      <trkpt lat="43.73991" lon="7.26246">
        <ele>268</ele>
        <time>2018-04-26T13:55:34.000Z</time>
      </trkpt>
      <trkpt lat="43.73982" lon="7.2625">
        <ele>266</ele>
        <time>2018-04-26T13:55:35.000Z</time>
      </trkpt>
      <trkpt lat="43.73961" lon="7.26258">
        <ele>269</ele>
        <time>2018-04-26T13:55:37.000Z</time>
      </trkpt>
      <trkpt lat="43.73941" lon="7.26264">
        <ele>267</ele>
        <time>2018-04-26T13:55:39.000Z</time>
      </trkpt>
      <trkpt lat="43.73932" lon="7.26265">
        <ele>265</ele>
        <time>2018-04-26T13:55:40.000Z</time>
      </trkpt>
      <trkpt lat="43.73921" lon="7.26265">
        <ele>264</ele>
        <time>2018-04-26T13:55:41.000Z</time>
      </trkpt>
      <trkpt lat="43.73909" lon="7.26263">
        <ele>257</ele>
        <time>2018-04-26T13:55:42.000Z</time>
      </trkpt>
      <trkpt lat="43.73897" lon="7.26264">
        <ele>256</ele>
        <time>2018-04-26T13:55:43.000Z</time>
      </trkpt>
      <trkpt lat="43.73887" lon="7.26262">
        <ele>256</ele>
        <time>2018-04-26T13:55:44.000Z</time>
      </trkpt>
      <trkpt lat="43.73875" lon="7.26261">
        <ele>254</ele>
        <time>2018-04-26T13:55:45.000Z</time>
      </trkpt>
      <trkpt lat="43.73863" lon="7.26262">
        <ele>253</ele>
        <time>2018-04-26T13:55:46.000Z</time>
      </trkpt>
      <trkpt lat="43.73851" lon="7.26265">
        <ele>251</ele>
        <time>2018-04-26T13:55:47.000Z</time>
      </trkpt>
      <trkpt lat="43.73839" lon="7.26269">
        <ele>251</ele>
        <time>2018-04-26T13:55:48.000Z</time>
      </trkpt>
      <trkpt lat="43.73829" lon="7.26273">
        <ele>243</ele>
        <time>2018-04-26T13:55:49.000Z</time>
      </trkpt>
      <trkpt lat="43.73819" lon="7.26278">
        <ele>243</ele>
        <time>2018-04-26T13:55:50.000Z</time>
      </trkpt>
      <trkpt lat="43.7381" lon="7.26283">
        <ele>242</ele>
        <time>2018-04-26T13:55:51.000Z</time>
      </trkpt>
      <trkpt lat="43.738" lon="7.26286">
        <ele>242</ele>
        <time>2018-04-26T13:55:52.000Z</time>
      </trkpt>
      <trkpt lat="43.7379" lon="7.26287">
        <ele>241</ele>
        <time>2018-04-26T13:55:53.000Z</time>
      </trkpt>
      <trkpt lat="43.73779" lon="7.26286">
        <ele>240</ele>
        <time>2018-04-26T13:55:54.000Z</time>
      </trkpt>
      <trkpt lat="43.73768" lon="7.26286">
        <ele>239</ele>
        <time>2018-04-26T13:55:55.000Z</time>
      </trkpt>
      <trkpt lat="43.73757" lon="7.26284">
        <ele>238</ele>
        <time>2018-04-26T13:55:56.000Z</time>
      </trkpt>
      <trkpt lat="43.73746" lon="7.26283">
        <ele>230</ele>
        <time>2018-04-26T13:55:57.000Z</time>
      </trkpt>
      <trkpt lat="43.73734" lon="7.26282">
        <ele>229</ele>
        <time>2018-04-26T13:55:58.000Z</time>
      </trkpt>
      <trkpt lat="43.73722" lon="7.26281">
        <ele>228</ele>
        <time>2018-04-26T13:55:59.000Z</time>
      </trkpt>
      <trkpt lat="43.73709" lon="7.26279">
        <ele>227</ele>
        <time>2018-04-26T13:56:00.000Z</time>
      </trkpt>
      <trkpt lat="43.737" lon="7.26278">
        <ele>226</ele>
        <time>2018-04-26T13:56:01.000Z</time>
      </trkpt>
      <trkpt lat="43.73691" lon="7.26278">
        <ele>225</ele>
        <time>2018-04-26T13:56:02.000Z</time>
      </trkpt>
      <trkpt lat="43.73684" lon="7.26281">
        <ele>225</ele>
        <time>2018-04-26T13:56:03.000Z</time>
      </trkpt>
      <trkpt lat="43.73679" lon="7.26287">
        <ele>225</ele>
        <time>2018-04-26T13:56:04.000Z</time>
      </trkpt>
      <trkpt lat="43.73675" lon="7.26295">
        <ele>225</ele>
        <time>2018-04-26T13:56:05.000Z</time>
      </trkpt>
      <trkpt lat="43.73664" lon="7.26312">
        <ele>219</ele>
        <time>2018-04-26T13:56:07.000Z</time>
      </trkpt>
      <trkpt lat="43.7365" lon="7.26324">
        <ele>219</ele>
        <time>2018-04-26T13:56:09.000Z</time>
      </trkpt>
      <trkpt lat="43.73643" lon="7.2633">
        <ele>218</ele>
        <time>2018-04-26T13:56:10.000Z</time>
      </trkpt>
      <trkpt lat="43.73635" lon="7.26335">
        <ele>221</ele>
        <time>2018-04-26T13:56:11.000Z</time>
      </trkpt>
      <trkpt lat="43.73619" lon="7.26343">
        <ele>220</ele>
        <time>2018-04-26T13:56:13.000Z</time>
      </trkpt>
      <trkpt lat="43.7361" lon="7.26346">
        <ele>219</ele>
        <time>2018-04-26T13:56:14.000Z</time>
      </trkpt>
      <trkpt lat="43.73602" lon="7.26347">
        <ele>218</ele>
        <time>2018-04-26T13:56:15.000Z</time>
      </trkpt>
      <trkpt lat="43.73584" lon="7.26348">
        <ele>217</ele>
        <time>2018-04-26T13:56:17.000Z</time>
      </trkpt>
      <trkpt lat="43.73566" lon="7.26345">
        <ele>213</ele>
        <time>2018-04-26T13:56:19.000Z</time>
      </trkpt>
      <trkpt lat="43.73557" lon="7.26342">
        <ele>213</ele>
        <time>2018-04-26T13:56:20.000Z</time>
      </trkpt>
      <trkpt lat="43.73549" lon="7.26338">
        <ele>212</ele>
        <time>2018-04-26T13:56:21.000Z</time>
      </trkpt>
      <trkpt lat="43.73532" lon="7.26324">
        <ele>209</ele>
        <time>2018-04-26T13:56:23.000Z</time>
      </trkpt>
      <trkpt lat="43.73523" lon="7.26318">
        <ele>209</ele>
        <time>2018-04-26T13:56:24.000Z</time>
      </trkpt>
      <trkpt lat="43.73515" lon="7.2631">
        <ele>208</ele>
        <time>2018-04-26T13:56:25.000Z</time>
      </trkpt>
      <trkpt lat="43.73498" lon="7.26297">
        <ele>206</ele>
        <time>2018-04-26T13:56:27.000Z</time>
      </trkpt>
      <trkpt lat="43.7349" lon="7.2629">
        <ele>205</ele>
        <time>2018-04-26T13:56:28.000Z</time>
      </trkpt>
      <trkpt lat="43.73483" lon="7.26284">
        <ele>205</ele>
        <time>2018-04-26T13:56:29.000Z</time>
      </trkpt>
      <trkpt lat="43.73467" lon="7.26271">
        <ele>205</ele>
        <time>2018-04-26T13:56:31.000Z</time>
      </trkpt>
      <trkpt lat="43.73455" lon="7.26261">
        <ele>204</ele>
        <time>2018-04-26T13:56:33.000Z</time>
      </trkpt>
      <trkpt lat="43.73448" lon="7.26257">
        <ele>204</ele>
        <time>2018-04-26T13:56:35.000Z</time>
      </trkpt>
      <trkpt lat="43.73446" lon="7.2626">
        <ele>204</ele>
        <time>2018-04-26T13:56:36.000Z</time>
      </trkpt>
      <trkpt lat="43.73446" lon="7.26261">
        <ele>204</ele>
        <time>2018-04-26T13:56:39.000Z</time>
      </trkpt>
      <trkpt lat="43.73446" lon="7.26265">
        <ele>204</ele>
        <time>2018-04-26T13:56:44.000Z</time>
      </trkpt>
      <trkpt lat="43.73446" lon="7.26266">
        <ele>204</ele>
        <time>2018-04-26T13:56:45.000Z</time>
      </trkpt>
      <trkpt lat="43.73446" lon="7.26266">
        <ele>204</ele>
        <time>2018-04-26T13:56:51.000Z</time>
      </trkpt>
      <trkpt lat="43.73445" lon="7.26264">
        <ele>204</ele>
        <time>2018-04-26T13:57:00.000Z</time>
      </trkpt>
      <trkpt lat="43.73446" lon="7.26264">
        <ele>204</ele>
        <time>2018-04-26T13:57:04.000Z</time>
      </trkpt>
    </trkseg>
  </trk>
</gpx>